
Distance (Route):
Temperature : 19.5°C
Humidity : 0%
Pressure : 984.2hPa| Receiver | Frames | First received | Last received |
|---|---|---|---|
| BIOWL1-15 | 657 | 2026-09-05 04:58:29 | 2026-09-05 07:07:21 |
| DM0DOS-11 | 554 | 2026-09-05 04:58:43 | 2026-09-05 07:06:46 |
| DK7TD | 365 | 2026-09-05 05:23:37 | 2026-09-05 07:12:16 |
| DL1XH-west | 311 | 2026-09-05 05:54:13 | 2026-09-05 06:51:26 |
| HSKMA3-T | 307 | 2026-09-05 05:41:39 | 2026-09-05 06:57:21 |
| DK5PH-5 | 271 | 2026-09-05 04:53:27 | 2026-09-05 09:47:18 |
| DL1NUX | 205 | 2026-09-05 05:26:15 | 2026-09-05 06:58:34 |
| DL1XH1-15 | 197 | 2026-09-05 05:54:52 | 2026-09-05 06:51:18 |
| DO3MHA-11 | 191 | 2026-09-05 05:14:32 | 2026-09-05 07:13:30 |
| DF8AY | 163 | 2026-09-05 06:13:13 | 2026-09-05 06:50:09 |
| DB0UT-7 | 126 | 2026-09-05 04:41:03 | 2026-09-05 07:15:26 |
| DB0UT-9 | 98 | 2026-09-05 04:39:55 | 2026-09-05 07:15:16 |
| HARRO8 | 97 | 2026-09-05 04:48:12 | 2026-09-05 07:12:38 |
| DG9SBQ-11 | 97 | 2026-09-05 05:33:36 | 2026-09-05 07:04:45 |
| DJ2DS-15 | 85 | 2026-09-05 05:37:31 | 2026-09-05 06:53:52 |
| DB0ND-19 | 82 | 2026-09-05 04:47:18 | 2026-09-05 07:16:18 |
| DL1ZP-14 | 80 | 2026-09-05 04:49:42 | 2026-09-05 07:12:03 |
| DL1XH-15 | 80 | 2026-09-05 06:07:46 | 2026-09-05 06:45:41 |
| CB1BUN | 79 | 2026-09-05 04:47:19 | 2026-09-05 06:57:26 |
| HEMX73-11 | 74 | 2026-09-05 04:48:04 | 2026-09-05 06:57:25 |
| BIOWL9-15 | 67 | 2026-09-05 04:58:49 | 2026-09-05 07:00:54 |
| DF3TZ-5 | 67 | 2026-09-05 05:03:35 | 2026-09-05 07:16:01 |
| DF7PN | 59 | 2026-09-05 04:49:54 | 2026-09-05 07:14:50 |
| NBG1-10 | 58 | 2026-09-05 05:08:58 | 2026-09-05 06:59:46 |
| DO3DL | 57 | 2026-09-05 05:20:17 | 2026-09-05 06:55:30 |
| DF1GD-15 | 56 | 2026-09-05 04:53:21 | 2026-09-05 07:05:15 |
| DL0LBS | 54 | 2026-09-05 05:04:42 | 2026-09-05 07:14:34 |
| DB0NH | 53 | 2026-09-05 05:26:26 | 2026-09-05 07:14:23 |
| DM7RM-13 | 48 | 2026-09-05 05:08:00 | 2026-09-05 07:15:34 |
| DO8TBO-1 | 44 | 2026-09-05 05:45:28 | 2026-09-05 07:05:29 |
| SFWM-10 | 42 | 2026-09-05 05:15:12 | 2026-09-05 07:13:18 |
| DM3KS-11 | 40 | 2026-09-05 04:49:55 | 2026-09-05 06:56:42 |
| DF2AP-13 | 40 | 2026-09-05 05:23:35 | 2026-09-05 06:58:41 |
| BIOWL7-15 | 39 | 2026-09-05 04:58:44 | 2026-09-05 06:51:10 |
| DL4BBY-15 | 32 | 2026-09-05 05:43:17 | 2026-09-05 06:53:22 |
| DL9PN | 31 | 2026-09-05 04:47:39 | 2026-09-05 05:22:53 |
| SO1NDE-10 | 31 | 2026-09-05 05:28:37 | 2026-09-05 06:57:16 |
| KANTATE | 30 | 2026-09-05 05:33:12 | 2026-09-05 07:04:06 |
| DL6DJ-15 | 29 | 2026-09-05 05:52:48 | 2026-09-05 06:58:02 |
| DL3AQ-11 | 29 | 2026-09-05 06:13:08 | 2026-09-05 06:47:07 |
| IW2NTF | 29 | 2026-09-05 06:20:14 | 2026-09-05 06:48:49 |
| SONDE2-11 | 27 | 2026-09-05 05:54:43 | 2026-09-05 06:52:09 |
| OE5DXL-15 | 27 | 2026-09-05 06:08:30 | 2026-09-05 06:47:28 |
| PG1ADW-2 | 24 | 2026-09-05 06:28:29 | 2026-09-05 06:44:30 |
| DJTTGO | 23 | 2026-09-05 05:40:15 | 2026-09-05 07:03:35 |
| OE5DRO-10 | 23 | 2026-09-05 06:08:16 | 2026-09-05 06:49:47 |
| AU51GT2 | 22 | 2026-09-05 05:30:50 | 2026-09-05 06:41:10 |
| DH7VM-15 | 19 | 2026-09-05 04:54:46 | 2026-09-05 07:04:16 |
| DG1MJG | 14 | 2026-09-05 05:49:06 | 2026-09-05 06:58:40 |
| DO1YAY-16 | 13 | 2026-09-05 05:15:06 | 2026-09-05 06:45:42 |
| SONCRA | 13 | 2026-09-05 06:15:27 | 2026-09-05 06:49:06 |
| EDDB2-12 | 12 | 2026-09-05 06:07:09 | 2026-09-05 06:41:49 |
| EDDB2-11 | 10 | 2026-09-05 06:27:26 | 2026-09-05 06:51:14 |
| HTAHTA | 5 | 2026-09-05 06:08:18 | 2026-09-05 06:14:00 |
| HEMX73-6 | 4 | 2026-09-05 04:55:10 | 2026-09-05 06:28:58 |
| DC4HF-4 | 4 | 2026-09-05 05:43:13 | 2026-09-05 05:49:49 |
| AZAK | 4 | 2026-09-05 05:53:19 | 2026-09-05 06:58:36 |
| DL1KLB | 4 | 2026-09-05 06:05:18 | 2026-09-05 06:14:46 |
| DO2KSM | 3 | 2026-09-05 06:16:26 | 2026-09-05 06:19:54 |
| BUE01 | 3 | 2026-09-05 06:39:40 | 2026-09-05 06:45:22 |
| AA1-15 | 3 | 2026-09-05 06:44:05 | 2026-09-05 06:44:28 |
| LOEBOVI | 1 | 2026-09-05 06:28:16 | 2026-09-05 06:28:16 |
| SP3BTT-10 | 1 | 2026-09-05 06:38:41 | 2026-09-05 06:38:41 |
| DO9LL-15 | 1 | 2026-09-05 06:57:53 | 2026-09-05 06:57:53 |
| Receiver | Date | Latitude | Longitude | Direction | Speed | Altitude | Climb | Temperature | Humidity | Pressure | Voltage | Killtimer | Uptime | BKT | XDATA |
|---|---|---|---|---|---|---|---|---|---|---|---|---|---|---|---|
| DK5PH-5 | 2026-09-05 09:47:18 | 49.21917 | 9.58780 | 0° | 0km/h | 360m | 0.0m/s | 19.5°C | 0% | 984.2hPa | 2.9V | 00:00:23 | 05:14:43 | 00:00:00 | |
| DK5PH-5 | 2026-09-05 09:46:48 | 49.21917 | 9.58780 | 0° | 0km/h | 359m | 0.0m/s | 19.7°C | 0% | 984.3hPa | 2.9V | 00:00:53 | 05:14:13 | 00:00:00 | |
| DK5PH-5 | 2026-09-05 09:46:18 | 49.21917 | 9.58781 | 0° | 0km/h | 359m | 0.0m/s | 19.5°C | 0% | 984.1hPa | 2.9V | 00:01:23 | 05:13:43 | 00:00:00 | |
| DK5PH-5 | 2026-09-05 09:45:48 | 49.21917 | 9.58780 | 0° | 0km/h | 359m | 0.1m/s | 19.6°C | 0% | 984.2hPa | 2.9V | 00:01:53 | 05:13:13 | 00:00:00 | |
| DK5PH-5 | 2026-09-05 09:45:18 | 49.21916 | 9.58780 | 0° | 0km/h | 359m | 0.0m/s | 18.9°C | 0% | 984.2hPa | 2.9V | 00:02:23 | 05:12:43 | 00:00:00 | |
| DK5PH-5 | 2026-09-05 09:44:48 | 49.21917 | 9.58780 | 0° | 0km/h | 360m | -0.1m/s | 19.1°C | 0% | 984.4hPa | 2.9V | 00:02:53 | 05:12:13 | 00:00:00 | |
| DK5PH-5 | 2026-09-05 09:44:18 | 49.21917 | 9.58780 | 0° | 0km/h | 360m | -0.0m/s | 18.9°C | 0% | 984.4hPa | 2.9V | 00:03:23 | 05:11:43 | 00:00:00 | |
| DK5PH-5 | 2026-09-05 09:43:48 | 49.21917 | 9.58780 | 0° | 0km/h | 359m | -0.0m/s | 19.0°C | 0% | 984.4hPa | 2.9V | 00:03:53 | 05:11:13 | 00:00:00 | |
| DK5PH-5 | 2026-09-05 09:43:18 | 49.21917 | 9.58779 | 0° | 0km/h | 358m | -0.0m/s | 19.0°C | 0% | 984.3hPa | 2.9V | 00:04:23 | 05:10:43 | 00:00:00 | |
| DK5PH-5 | 2026-09-05 09:42:48 | 49.21916 | 9.58780 | 0° | 0km/h | 358m | 0.0m/s | 18.9°C | 0% | 984.4hPa | 2.9V | 00:04:53 | 05:10:13 | 00:00:00 | |
| DK5PH-5 | 2026-09-05 09:42:18 | 49.21917 | 9.58781 | 0° | 0km/h | 360m | 0.0m/s | 19.3°C | 0% | 984.3hPa | 2.9V | 00:05:23 | 05:09:43 | 00:00:00 | |
| DK5PH-5 | 2026-09-05 09:41:48 | 49.21917 | 9.58781 | 0° | 0km/h | 360m | 0.0m/s | 19.2°C | 0% | 984.2hPa | 2.9V | 00:05:53 | 05:09:13 | 00:00:00 | |
| DK5PH-5 | 2026-09-05 09:41:18 | 49.21917 | 9.58781 | 0° | 0km/h | 359m | 0.0m/s | 18.9°C | 0% | 984.3hPa | 2.9V | 00:06:23 | 05:08:43 | 00:00:00 | |
| DK5PH-5 | 2026-09-05 09:40:48 | 49.21917 | 9.58781 | 0° | 0km/h | 359m | -0.0m/s | 19.2°C | 0% | 984.3hPa | 2.9V | 00:06:53 | 05:08:13 | 00:00:00 | |
| DK5PH-5 | 2026-09-05 09:40:18 | 49.21917 | 9.58781 | 0° | 0km/h | 360m | -0.0m/s | 19.1°C | 0% | 984.4hPa | 2.9V | 00:07:23 | 05:07:43 | 00:00:00 | |
| DK5PH-5 | 2026-09-05 09:39:48 | 49.21917 | 9.58782 | 0° | 0km/h | 361m | 0.0m/s | 19.0°C | 0% | 984.3hPa | 2.9V | 00:07:53 | 05:07:13 | 00:00:00 | |
| DK5PH-5 | 2026-09-05 09:39:18 | 49.21917 | 9.58782 | 0° | 0km/h | 359m | -0.0m/s | 19.2°C | 0% | 984.3hPa | 2.9V | 00:08:23 | 05:06:43 | 00:00:00 | |
| DK5PH-5 | 2026-09-05 09:38:48 | 49.21917 | 9.58782 | 0° | 0km/h | 359m | 0.0m/s | 18.9°C | 0% | 984.3hPa | 2.9V | 00:08:53 | 05:06:13 | 00:00:00 | |
| DK5PH-5 | 2026-09-05 09:38:18 | 49.21917 | 9.58782 | 0° | 0km/h | 360m | -0.0m/s | 19.0°C | 0% | 984.5hPa | 2.9V | 00:09:23 | 05:05:43 | 00:00:00 | |
| DK5PH-5 | 2026-09-05 09:37:48 | 49.21916 | 9.58783 | 0° | 0km/h | 361m | 0.0m/s | 19.2°C | 0% | 984.3hPa | 2.9V | 00:09:53 | 05:05:13 | 00:00:00 | |
| DK5PH-5 | 2026-09-05 09:37:18 | 49.21916 | 9.58782 | 0° | 0km/h | 360m | 0.0m/s | 19.5°C | 0% | 984.3hPa | 2.9V | 00:10:23 | 05:04:43 | 00:00:00 | |
| DK5PH-5 | 2026-09-05 09:36:48 | 49.21916 | 9.58781 | 0° | 0km/h | 360m | 0.0m/s | 19.3°C | 0% | 984.4hPa | 2.9V | 00:10:53 | 05:04:13 | 00:00:00 | |
| DK5PH-5 | 2026-09-05 09:36:18 | 49.21917 | 9.58780 | 0° | 0km/h | 359m | -0.0m/s | 19.0°C | 0% | 984.4hPa | 2.9V | 00:11:23 | 05:03:43 | 00:00:00 | |
| DK5PH-5 | 2026-09-05 09:35:48 | 49.21916 | 9.58781 | 0° | 0km/h | 360m | 0.0m/s | 18.8°C | 0% | 984.4hPa | 2.9V | 00:11:53 | 05:03:13 | 00:00:00 | |
| DK5PH-5 | 2026-09-05 09:35:18 | 49.21916 | 9.58783 | 0° | 0km/h | 361m | 0.0m/s | 19.1°C | 0% | 984.3hPa | 2.9V | 00:12:23 | 05:02:43 | 00:00:00 | |
| DK5PH-5 | 2026-09-05 09:34:48 | 49.21916 | 9.58783 | 0° | 0km/h | 361m | 0.0m/s | 18.9°C | 0% | 984.4hPa | 2.9V | 00:12:53 | 05:02:13 | 00:00:00 | |
| DK5PH-5 | 2026-09-05 09:34:18 | 49.21916 | 9.58782 | 0° | 0km/h | 359m | -0.0m/s | 19.1°C | 0% | 984.3hPa | 2.9V | 00:13:23 | 05:01:43 | 00:00:00 | |
| DK5PH-5 | 2026-09-05 09:33:48 | 49.21916 | 9.58782 | 0° | 0km/h | 360m | -0.0m/s | 18.7°C | 0% | 984.4hPa | 2.9V | 00:13:53 | 05:01:13 | 00:00:00 | |
| DK5PH-5 | 2026-09-05 09:33:18 | 49.21916 | 9.58782 | 0° | 0km/h | 359m | 0.1m/s | 18.8°C | 0% | 984.3hPa | 2.9V | 00:14:23 | 05:00:43 | 00:00:00 | |
| DK5PH-5 | 2026-09-05 09:32:48 | 49.21915 | 9.58782 | 0° | 0km/h | 359m | 0.1m/s | 19.1°C | 0% | 984.4hPa | 2.9V | 00:14:53 | 05:00:13 | 00:00:00 | |
| DK5PH-5 | 2026-09-05 09:32:18 | 49.21916 | 9.58782 | 0° | 0km/h | 360m | 0.0m/s | 19.2°C | 0% | 984.5hPa | 2.9V | 00:15:23 | 04:59:43 | 00:00:00 | |
| DK5PH-5 | 2026-09-05 09:31:48 | 49.21916 | 9.58781 | 0° | 0km/h | 360m | 0.1m/s | 19.2°C | 0% | 984.3hPa | 2.9V | 00:15:53 | 04:59:13 | 00:00:00 | |
| DK5PH-5 | 2026-09-05 09:31:18 | 49.21917 | 9.58780 | 0° | 0km/h | 359m | 0.0m/s | 19.5°C | 0% | 984.3hPa | 2.9V | 00:16:23 | 04:58:43 | 00:00:00 | |
| DK5PH-5 | 2026-09-05 09:30:48 | 49.21918 | 9.58780 | 0° | 0km/h | 359m | -0.0m/s | 19.4°C | 0% | 984.3hPa | 2.9V | 00:16:53 | 04:58:13 | 00:00:00 | |
| DK5PH-5 | 2026-09-05 09:30:18 | 49.21917 | 9.58781 | 0° | 0km/h | 358m | -0.0m/s | 19.4°C | 0% | 984.1hPa | 2.9V | 00:17:23 | 04:57:43 | 00:00:00 | |
| DK5PH-5 | 2026-09-05 09:29:48 | 49.21916 | 9.58782 | 0° | 0km/h | 358m | -0.0m/s | 19.6°C | 0% | 984.3hPa | 2.9V | 00:17:53 | 04:57:13 | 00:00:00 | |
| DK5PH-5 | 2026-09-05 09:29:18 | 49.21917 | 9.58782 | 0° | 0km/h | 360m | -0.0m/s | 19.0°C | 0% | 984.4hPa | 2.9V | 00:18:23 | 04:56:43 | 00:00:00 | |
| DK5PH-5 | 2026-09-05 09:28:48 | 49.21917 | 9.58782 | 0° | 0km/h | 361m | -0.0m/s | 19.2°C | 0% | 984.3hPa | 2.9V | 00:18:53 | 04:56:13 | 00:00:00 | |
| DK5PH-5 | 2026-09-05 09:28:18 | 49.21917 | 9.58783 | 0° | 0km/h | 361m | -0.0m/s | 19.2°C | 0% | 984.4hPa | 2.9V | 00:19:23 | 04:55:43 | 00:00:00 | |
| DK5PH-5 | 2026-09-05 09:27:48 | 49.21917 | 9.58782 | 0° | 0km/h | 361m | 0.0m/s | 19.0°C | 0% | 984.3hPa | 2.9V | 00:19:53 | 04:55:13 | 00:00:00 | |
| DK5PH-5 | 2026-09-05 09:27:18 | 49.21917 | 9.58781 | 0° | 0km/h | 360m | 0.0m/s | 18.9°C | 0% | 984.2hPa | 2.9V | 00:20:23 | 04:54:43 | 00:00:00 | |
| DK5PH-5 | 2026-09-05 09:26:48 | 49.21917 | 9.58782 | 0° | 0km/h | 361m | 0.0m/s | 19.1°C | 0% | 984.4hPa | 2.9V | 00:20:53 | 04:54:13 | 00:00:00 | |
| DK5PH-5 | 2026-09-05 09:26:18 | 49.21917 | 9.58783 | 0° | 0km/h | 361m | 0.0m/s | 19.2°C | 0% | 984.4hPa | 2.9V | 00:21:23 | 04:53:43 | 00:00:00 | |
| DK5PH-5 | 2026-09-05 09:25:48 | 49.21917 | 9.58782 | 0° | 0km/h | 360m | 0.0m/s | 19.1°C | 0% | 984.4hPa | 2.9V | 00:21:53 | 04:53:13 | 00:00:00 | |
| DK5PH-5 | 2026-09-05 09:25:18 | 49.21917 | 9.58782 | 0° | 0km/h | 360m | -0.0m/s | 18.8°C | 0% | 984.2hPa | 2.9V | 00:22:23 | 04:52:43 | 00:00:00 | |
| DK5PH-5 | 2026-09-05 09:24:48 | 49.21917 | 9.58783 | 0° | 0km/h | 360m | 0.0m/s | 18.8°C | 0% | 984.2hPa | 2.9V | 00:22:53 | 04:52:13 | 00:00:00 | |
| DK5PH-5 | 2026-09-05 09:24:18 | 49.21916 | 9.58782 | 0° | 0km/h | 360m | -0.0m/s | 18.8°C | 0% | 984.4hPa | 2.9V | 00:23:23 | 04:51:43 | 00:00:00 | |
| DK5PH-5 | 2026-09-05 09:23:48 | 49.21916 | 9.58783 | 0° | 0km/h | 361m | 0.1m/s | 18.8°C | 0% | 984.3hPa | 2.9V | 00:23:53 | 04:51:13 | 00:00:00 | |
| DK5PH-5 | 2026-09-05 09:23:18 | 49.21916 | 9.58784 | 0° | 0km/h | 361m | -0.0m/s | 18.7°C | 0% | 984.2hPa | 2.9V | 00:24:23 | 04:50:43 | 00:00:00 | |
| DK5PH-5 | 2026-09-05 09:22:48 | 49.21917 | 9.58784 | 0° | 0km/h | 362m | -0.0m/s | 18.8°C | 0% | 984.4hPa | 2.9V | 00:24:53 | 04:50:13 | 00:00:00 | |
| DK5PH-5 | 2026-09-05 09:22:18 | 49.21917 | 9.58783 | 0° | 0km/h | 362m | 0.0m/s | 18.6°C | 0% | 984.3hPa | 2.9V | 00:25:23 | 04:49:43 | 00:00:00 | |
| DK5PH-5 | 2026-09-05 09:21:48 | 49.21917 | 9.58782 | 0° | 0km/h | 362m | 0.0m/s | 18.6°C | 0% | 984.4hPa | 2.9V | 00:25:53 | 04:49:13 | 00:00:00 | |
| DK5PH-5 | 2026-09-05 09:21:18 | 49.21917 | 9.58782 | 0° | 0km/h | 361m | -0.0m/s | 18.8°C | 0% | 984.3hPa | 2.9V | 00:26:23 | 04:48:43 | 00:00:00 | |
| DK5PH-5 | 2026-09-05 09:20:48 | 49.21917 | 9.58781 | 0° | 0km/h | 359m | 0.0m/s | 19.1°C | 0% | 984.3hPa | 2.9V | 00:26:53 | 04:48:13 | 00:00:00 | |
| DK5PH-5 | 2026-09-05 09:20:16 | 49.21917 | 9.58781 | 0° | 0km/h | 360m | 0.0m/s | 19.2°C | 0% | 984.3hPa | 2.9V | 00:27:25 | 04:47:41 | 00:00:00 | |
| DK5PH-5 | 2026-09-05 09:19:46 | 49.21917 | 9.58782 | 0° | 0km/h | 360m | -0.0m/s | 19.1°C | 0% | 984.4hPa | 2.9V | 00:27:55 | 04:47:11 | 00:00:00 | |
| DK5PH-5 | 2026-09-05 09:19:16 | 49.21918 | 9.58781 | 0° | 0km/h | 360m | -0.0m/s | 19.1°C | 0% | 984.4hPa | 2.9V | 00:28:25 | 04:46:41 | 00:00:00 | |
| DK5PH-5 | 2026-09-05 09:18:46 | 49.21917 | 9.58781 | 0° | 0km/h | 360m | -0.0m/s | 18.7°C | 0% | 984.2hPa | 2.9V | 00:28:55 | 04:46:11 | 00:00:00 | |
| DK5PH-5 | 2026-09-05 09:18:16 | 49.21916 | 9.58782 | 0° | 0km/h | 359m | 0.0m/s | 18.8°C | 0% | 984.4hPa | 2.9V | 00:29:25 | 04:45:41 | 00:00:00 | |
| DK5PH-5 | 2026-09-05 09:17:46 | 49.21917 | 9.58780 | 0° | 0km/h | 359m | 0.0m/s | 19.3°C | 0% | 984.3hPa | 2.9V | 00:29:55 | 04:45:11 | 00:00:00 | |
| DK5PH-5 | 2026-09-05 09:17:16 | 49.21916 | 9.58780 | 0° | 0km/h | 358m | 0.0m/s | 19.4°C | 0% | 984.2hPa | 2.9V | 00:30:25 | 04:44:41 | 00:00:00 | |
| DK5PH-5 | 2026-09-05 09:16:46 | 49.21916 | 9.58782 | 0° | 0km/h | 360m | 0.0m/s | 18.9°C | 0% | 984.4hPa | 2.9V | 00:30:55 | 04:44:11 | 00:00:00 | |
| DK5PH-5 | 2026-09-05 09:16:16 | 49.21915 | 9.58783 | 0° | 0km/h | 360m | -0.0m/s | 19.0°C | 0% | 984.3hPa | 2.9V | 00:31:25 | 04:43:41 | 00:00:00 | |
| DK5PH-5 | 2026-09-05 09:15:46 | 49.21914 | 9.58784 | 0° | 0km/h | 360m | -0.0m/s | 18.7°C | 0% | 984.3hPa | 2.9V | 00:31:55 | 04:43:11 | 00:00:00 | |
| DK5PH-5 | 2026-09-05 09:15:16 | 49.21914 | 9.58783 | 0° | 0km/h | 359m | 0.0m/s | 19.4°C | 0% | 984.3hPa | 2.9V | 00:32:25 | 04:42:41 | 00:00:00 | |
| DK5PH-5 | 2026-09-05 09:14:46 | 49.21916 | 9.58782 | 0° | 0km/h | 358m | -0.0m/s | 19.3°C | 0% | 984.2hPa | 2.9V | 00:32:55 | 04:42:11 | 00:00:00 | |
| DK5PH-5 | 2026-09-05 09:14:16 | 49.21916 | 9.58782 | 0° | 0km/h | 359m | 0.0m/s | 18.9°C | 0% | 984.2hPa | 2.9V | 00:33:25 | 04:41:41 | 00:00:00 | |
| DK5PH-5 | 2026-09-05 09:13:46 | 49.21916 | 9.58782 | 0° | 0km/h | 358m | 0.0m/s | 19.0°C | 0% | 984.3hPa | 2.9V | 00:33:55 | 04:41:11 | 00:00:00 | |
| DK5PH-5 | 2026-09-05 09:13:16 | 49.21916 | 9.58783 | 0° | 0km/h | 359m | 0.1m/s | 19.1°C | 0% | 984.4hPa | 2.9V | 00:34:25 | 04:40:41 | 00:00:00 | |
| DK5PH-5 | 2026-09-05 09:12:46 | 49.21916 | 9.58784 | 0° | 0km/h | 359m | 0.0m/s | 18.5°C | 0% | 984.2hPa | 2.9V | 00:34:55 | 04:40:11 | 00:00:00 | |
| DK5PH-5 | 2026-09-05 09:12:16 | 49.21916 | 9.58784 | 0° | 0km/h | 358m | -0.0m/s | 19.7°C | 0% | 984.2hPa | 2.9V | 00:35:25 | 04:39:41 | 00:00:00 | |
| DK5PH-5 | 2026-09-05 09:11:46 | 49.21916 | 9.58783 | 0° | 0km/h | 358m | 0.0m/s | 18.4°C | 0% | 984.2hPa | 2.9V | 00:35:55 | 04:39:11 | 00:00:00 | |
| DK5PH-5 | 2026-09-05 09:11:16 | 49.21916 | 9.58783 | 0° | 0km/h | 359m | -0.0m/s | 18.9°C | 0% | 984.1hPa | 2.9V | 00:36:25 | 04:38:41 | 00:00:00 | |
| DK5PH-5 | 2026-09-05 09:10:46 | 49.21916 | 9.58782 | 0° | 0km/h | 359m | -0.0m/s | 18.8°C | 0% | 984.2hPa | 2.9V | 00:36:55 | 04:38:11 | 00:00:00 | |
| DK5PH-5 | 2026-09-05 09:10:16 | 49.21916 | 9.58782 | 0° | 0km/h | 360m | -0.0m/s | 18.4°C | 0% | 984.3hPa | 2.9V | 00:37:25 | 04:37:41 | 00:00:00 | |
| DK5PH-5 | 2026-09-05 09:09:46 | 49.21917 | 9.58782 | 0° | 0km/h | 360m | -0.0m/s | 18.8°C | 0% | 984.3hPa | 2.9V | 00:37:55 | 04:37:11 | 00:00:00 | |
| DK5PH-5 | 2026-09-05 09:09:16 | 49.21918 | 9.58782 | 0° | 0km/h | 360m | 0.0m/s | 18.5°C | 0% | 984.1hPa | 2.9V | 00:38:25 | 04:36:41 | 00:00:00 | |
| DK5PH-5 | 2026-09-05 09:08:46 | 49.21918 | 9.58781 | 0° | 0km/h | 363m | -0.0m/s | 19.1°C | 0% | 984.2hPa | 2.9V | 00:38:55 | 04:36:11 | 00:00:00 | |
| DK5PH-5 | 2026-09-05 09:08:16 | 49.21917 | 9.58780 | 0° | 0km/h | 363m | 0.0m/s | 18.9°C | 0% | 984.1hPa | 2.9V | 00:39:25 | 04:35:41 | 00:00:00 | |
| DK5PH-5 | 2026-09-05 09:07:46 | 49.21917 | 9.58780 | 0° | 0km/h | 363m | 0.0m/s | 18.8°C | 0% | 984.1hPa | 2.9V | 00:39:55 | 04:35:11 | 00:00:00 | |
| DK5PH-5 | 2026-09-05 09:07:16 | 49.21917 | 9.58781 | 0° | 0km/h | 363m | 0.0m/s | 19.0°C | 0% | 984.1hPa | 2.9V | 00:40:25 | 04:34:41 | 00:00:00 | |
| DK5PH-5 | 2026-09-05 09:06:46 | 49.21916 | 9.58781 | 0° | 0km/h | 362m | 0.0m/s | 18.7°C | 0% | 984.3hPa | 2.9V | 00:40:55 | 04:34:11 | 00:00:00 | |
| DK5PH-5 | 2026-09-05 09:06:16 | 49.21917 | 9.58782 | 0° | 0km/h | 361m | -0.0m/s | 18.6°C | 0% | 984.0hPa | 2.9V | 00:41:25 | 04:33:41 | 00:00:00 | |
| DK5PH-5 | 2026-09-05 09:05:46 | 49.21916 | 9.58782 | 0° | 0km/h | 361m | 0.0m/s | 18.7°C | 0% | 984.2hPa | 2.9V | 00:41:55 | 04:33:11 | 00:00:00 | |
| DK5PH-5 | 2026-09-05 09:05:16 | 49.21916 | 9.58782 | 0° | 0km/h | 359m | 0.0m/s | 18.4°C | 0% | 984.0hPa | 2.9V | 00:42:25 | 04:32:41 | 00:00:00 | |
| DK5PH-5 | 2026-09-05 09:04:46 | 49.21916 | 9.58782 | 0° | 0km/h | 359m | -0.0m/s | 18.6°C | 0% | 984.2hPa | 2.9V | 00:42:55 | 04:32:11 | 00:00:00 | |
| DK5PH-5 | 2026-09-05 09:04:16 | 49.21917 | 9.58781 | 0° | 0km/h | 359m | -0.0m/s | 18.3°C | 0% | 984.1hPa | 2.9V | 00:43:25 | 04:31:41 | 00:00:00 | |
| DK5PH-5 | 2026-09-05 09:03:46 | 49.21917 | 9.58782 | 0° | 0km/h | 358m | -0.0m/s | 18.2°C | 0% | 984.2hPa | 2.9V | 00:43:55 | 04:31:11 | 00:00:00 | |
| DK5PH-5 | 2026-09-05 09:03:16 | 49.21917 | 9.58782 | 0° | 0km/h | 360m | 0.0m/s | 18.1°C | 0% | 984.1hPa | 2.9V | 00:44:25 | 04:30:41 | 00:00:00 | |
| DK5PH-5 | 2026-09-05 09:02:46 | 49.21917 | 9.58782 | 0° | 0km/h | 361m | 0.0m/s | 18.2°C | 0% | 984.1hPa | 2.9V | 00:44:55 | 04:30:11 | 00:00:00 | |
| DK5PH-5 | 2026-09-05 09:02:16 | 49.21916 | 9.58783 | 0° | 0km/h | 360m | 0.0m/s | 18.2°C | 0% | 984.2hPa | 2.9V | 00:45:25 | 04:29:41 | 00:00:00 | |
| DK5PH-5 | 2026-09-05 09:01:46 | 49.21916 | 9.58782 | 0° | 0km/h | 359m | 0.0m/s | 18.2°C | 0% | 984.2hPa | 2.9V | 00:45:55 | 04:29:11 | 00:00:00 | |
| DK5PH-5 | 2026-09-05 09:01:16 | 49.21916 | 9.58781 | 0° | 0km/h | 358m | 0.0m/s | 18.1°C | 0% | 984.1hPa | 2.9V | 00:46:25 | 04:28:41 | 00:00:00 | |
| DK5PH-5 | 2026-09-05 09:00:46 | 49.21916 | 9.58781 | 0° | 0km/h | 358m | 0.0m/s | 18.2°C | 0% | 984.0hPa | 2.9V | 00:46:55 | 04:28:11 | 00:00:00 | |
| DK5PH-5 | 2026-09-05 09:00:16 | 49.21916 | 9.58780 | 0° | 0km/h | 358m | -0.0m/s | 18.3°C | 0% | 984.0hPa | 2.9V | 00:47:25 | 04:27:41 | 00:00:00 | |
| DK5PH-5 | 2026-09-05 08:59:46 | 49.21916 | 9.58781 | 0° | 0km/h | 359m | -0.0m/s | 18.2°C | 0% | 984.1hPa | 2.9V | 00:47:55 | 04:27:11 | 00:00:00 | |
| DK5PH-5 | 2026-09-05 08:59:16 | 49.21916 | 9.58780 | 0° | 0km/h | 358m | -0.0m/s | 18.2°C | 0% | 984.1hPa | 2.9V | 00:48:25 | 04:26:41 | 00:00:00 | |
| DK5PH-5 | 2026-09-05 08:58:46 | 49.21917 | 9.58780 | 0° | 0km/h | 358m | 0.0m/s | 18.3°C | 0% | 984.0hPa | 2.9V | 00:48:55 | 04:26:11 | 00:00:00 | |
| DK5PH-5 | 2026-09-05 08:58:16 | 49.21917 | 9.58781 | 0° | 0km/h | 358m | -0.1m/s | 18.4°C | 0% | 983.8hPa | 2.9V | 00:49:25 | 04:25:41 | 00:00:00 | |
| DK5PH-5 | 2026-09-05 08:57:46 | 49.21916 | 9.58782 | 0° | 0km/h | 359m | -0.0m/s | 18.4°C | 0% | 984.0hPa | 2.9V | 00:49:55 | 04:25:11 | 00:00:00 | |
| DK5PH-5 | 2026-09-05 08:57:16 | 49.21916 | 9.58782 | 0° | 0km/h | 359m | -0.0m/s | 18.4°C | 0% | 984.1hPa | 2.9V | 00:50:25 | 04:24:41 | 00:00:00 | |
| DK5PH-5 | 2026-09-05 08:56:46 | 49.21916 | 9.58782 | 0° | 0km/h | 358m | 0.0m/s | 18.4°C | 0% | 984.0hPa | 2.9V | 00:50:55 | 04:24:11 | 00:00:00 | |
| DK5PH-5 | 2026-09-05 08:56:16 | 49.21916 | 9.58782 | 0° | 0km/h | 359m | -0.1m/s | 18.2°C | 0% | 984.1hPa | 2.9V | 00:51:25 | 04:23:41 | 00:00:00 | |
| DK5PH-5 | 2026-09-05 08:55:46 | 49.21916 | 9.58782 | 0° | 0km/h | 359m | -0.0m/s | 18.9°C | 0% | 984.1hPa | 2.9V | 00:51:55 | 04:23:11 | 00:00:00 | |
| DK5PH-5 | 2026-09-05 08:55:16 | 49.21916 | 9.58781 | 0° | 0km/h | 360m | -0.0m/s | 18.6°C | 0% | 984.0hPa | 2.9V | 00:52:25 | 04:22:41 | 00:00:00 | |
| DK5PH-5 | 2026-09-05 08:54:46 | 49.21916 | 9.58780 | 0° | 0km/h | 360m | -0.0m/s | 18.7°C | 0% | 984.1hPa | 2.9V | 00:52:55 | 04:22:11 | 00:00:00 | |
| DK5PH-5 | 2026-09-05 08:54:16 | 49.21916 | 9.58780 | 0° | 0km/h | 361m | -0.0m/s | 18.5°C | 0% | 984.1hPa | 2.9V | 00:53:25 | 04:21:41 | 00:00:00 | |
| DK5PH-5 | 2026-09-05 08:53:46 | 49.21917 | 9.58780 | 0° | 0km/h | 361m | 0.0m/s | 18.0°C | 0% | 984.1hPa | 2.9V | 00:53:55 | 04:21:11 | 00:00:00 | |
| DK5PH-5 | 2026-09-05 08:53:16 | 49.21916 | 9.58782 | 0° | 0km/h | 361m | -0.0m/s | 18.2°C | 0% | 984.1hPa | 2.9V | 00:54:25 | 04:20:41 | 00:00:00 | |
| DK5PH-5 | 2026-09-05 08:52:46 | 49.21916 | 9.58782 | 0° | 0km/h | 361m | -0.0m/s | 18.1°C | 0% | 984.1hPa | 2.9V | 00:54:55 | 04:20:11 | 00:00:00 | |
| DK5PH-5 | 2026-09-05 08:52:16 | 49.21916 | 9.58782 | 0° | 0km/h | 362m | -0.0m/s | 18.0°C | 0% | 984.1hPa | 2.9V | 00:55:25 | 04:19:41 | 00:00:00 | |
| DK5PH-5 | 2026-09-05 08:51:46 | 49.21916 | 9.58782 | 0° | 0km/h | 362m | 0.0m/s | 17.9°C | 0% | 984.2hPa | 2.9V | 00:55:55 | 04:19:11 | 00:00:00 | |
| DK5PH-5 | 2026-09-05 08:51:16 | 49.21916 | 9.58783 | 0° | 0km/h | 362m | -0.0m/s | 18.2°C | 0% | 984.0hPa | 2.9V | 00:56:25 | 04:18:41 | 00:00:00 | |
| DK5PH-5 | 2026-09-05 08:50:46 | 49.21916 | 9.58783 | 0° | 0km/h | 363m | -0.0m/s | 18.0°C | 0% | 983.9hPa | 2.9V | 00:56:55 | 04:18:11 | 00:00:00 | |
| DK5PH-5 | 2026-09-05 08:50:16 | 49.21915 | 9.58783 | 0° | 0km/h | 361m | 0.0m/s | 18.0°C | 0% | 984.0hPa | 2.9V | 00:57:25 | 04:17:41 | 00:00:00 | |
| DK5PH-5 | 2026-09-05 08:49:46 | 49.21915 | 9.58783 | 0° | 0km/h | 361m | 0.0m/s | 17.7°C | 0% | 983.9hPa | 2.9V | 00:57:55 | 04:17:11 | 00:00:00 | |
| DK5PH-5 | 2026-09-05 08:49:16 | 49.21915 | 9.58783 | 0° | 0km/h | 360m | -0.0m/s | 17.8°C | 0% | 984.2hPa | 2.9V | 00:58:25 | 04:16:41 | 00:00:00 | |
| DK5PH-5 | 2026-09-05 08:48:46 | 49.21915 | 9.58784 | 0° | 0km/h | 361m | 0.0m/s | 17.9°C | 0% | 984.1hPa | 2.9V | 00:58:55 | 04:16:11 | 00:00:00 | |
| DK5PH-5 | 2026-09-05 08:48:16 | 49.21916 | 9.58783 | 0° | 0km/h | 361m | -0.0m/s | 17.8°C | 0% | 984.0hPa | 2.9V | 00:59:25 | 04:15:41 | 00:00:00 | |
| DK5PH-5 | 2026-09-05 08:47:46 | 49.21916 | 9.58783 | 0° | 0km/h | 360m | 0.0m/s | 17.9°C | 0% | 983.8hPa | 2.9V | 00:59:55 | 04:15:11 | 00:00:00 | |
| DK5PH-5 | 2026-09-05 08:47:16 | 49.21916 | 9.58783 | 0° | 0km/h | 360m | 0.0m/s | 17.7°C | 0% | 984.0hPa | 2.9V | 01:00:00 | 04:14:41 | 00:00:00 | |
| DK5PH-5 | 2026-09-05 08:46:46 | 49.21917 | 9.58782 | 0° | 0km/h | 361m | 0.0m/s | 17.8°C | 0% | 984.0hPa | 2.9V | 00:00:00 | 04:14:11 | 00:00:00 | |
| DK5PH-5 | 2026-09-05 08:46:16 | 49.21917 | 9.58782 | 0° | 0km/h | 361m | -0.0m/s | 18.0°C | 0% | 983.8hPa | 2.9V | 01:01:00 | 04:13:41 | 00:00:00 | |
| DK5PH-5 | 2026-09-05 08:45:46 | 49.21917 | 9.58783 | 0° | 0km/h | 363m | -0.0m/s | 17.9°C | 0% | 984.0hPa | 2.9V | 00:00:00 | 04:13:11 | 00:00:00 | |
| DK5PH-5 | 2026-09-05 08:45:16 | 49.21917 | 9.58784 | 0° | 0km/h | 365m | 0.0m/s | 17.9°C | 0% | 983.9hPa | 2.9V | 01:02:00 | 04:12:41 | 00:00:00 | |
| DK5PH-5 | 2026-09-05 08:44:46 | 49.21916 | 9.58784 | 0° | 0km/h | 364m | 0.0m/s | 17.9°C | 0% | 983.9hPa | 2.9V | 00:00:00 | 04:12:11 | 00:00:00 | |
| DK5PH-5 | 2026-09-05 08:44:16 | 49.21917 | 9.58783 | 0° | 0km/h | 363m | 0.0m/s | 18.0°C | 0% | 984.0hPa | 2.9V | 01:03:00 | 04:11:41 | 00:00:00 | |
| DK5PH-5 | 2026-09-05 08:43:46 | 49.21918 | 9.58783 | 0° | 0km/h | 363m | -0.0m/s | 17.9°C | 0% | 984.1hPa | 2.9V | 00:00:00 | 04:11:11 | 00:00:00 | |
| DK5PH-5 | 2026-09-05 08:43:16 | 49.21917 | 9.58782 | 0° | 0km/h | 362m | 0.0m/s | 17.9°C | 0% | 983.7hPa | 2.9V | 01:04:00 | 04:10:41 | 00:00:00 | |
| DK5PH-5 | 2026-09-05 08:42:46 | 49.21917 | 9.58781 | 0° | 0km/h | 360m | 0.0m/s | 18.0°C | 0% | 983.8hPa | 2.9V | 00:00:00 | 04:10:11 | 00:00:00 | |
| DK5PH-5 | 2026-09-05 08:42:16 | 49.21916 | 9.58782 | 0° | 0km/h | 361m | 0.0m/s | 17.9°C | 0% | 983.9hPa | 2.9V | 01:05:00 | 04:09:41 | 00:00:00 | |
| DK5PH-5 | 2026-09-05 08:41:46 | 49.21917 | 9.58782 | 0° | 0km/h | 361m | -0.0m/s | 17.9°C | 0% | 983.9hPa | 2.9V | 00:00:00 | 04:09:11 | 00:00:00 | |
| DK5PH-5 | 2026-09-05 08:41:16 | 49.21917 | 9.58782 | 0° | 0km/h | 361m | -0.0m/s | 18.2°C | 0% | 983.8hPa | 2.9V | 01:06:00 | 04:08:41 | 00:00:00 | |
| DK5PH-5 | 2026-09-05 08:40:46 | 49.21918 | 9.58782 | 0° | 0km/h | 361m | 0.0m/s | 18.0°C | 0% | 983.9hPa | 2.9V | 00:00:00 | 04:08:11 | 00:00:00 | |
| DK5PH-5 | 2026-09-05 08:40:16 | 49.21918 | 9.58782 | 0° | 0km/h | 361m | 0.0m/s | 18.2°C | 0% | 983.7hPa | 2.9V | 01:07:00 | 04:07:41 | 00:00:00 | |
| DK5PH-5 | 2026-09-05 08:39:46 | 49.21918 | 9.58782 | 0° | 0km/h | 362m | -0.0m/s | 18.2°C | 0% | 983.8hPa | 2.9V | 00:00:00 | 04:07:11 | 00:00:00 | |
| DK5PH-5 | 2026-09-05 08:39:16 | 49.21917 | 9.58783 | 0° | 0km/h | 362m | 0.0m/s | 17.8°C | 0% | 983.8hPa | 2.9V | 01:08:00 | 04:06:41 | 00:00:00 | |
| DK5PH-5 | 2026-09-05 08:38:46 | 49.21917 | 9.58782 | 0° | 0km/h | 362m | 0.0m/s | 17.8°C | 0% | 983.9hPa | 2.9V | 00:00:00 | 04:06:11 | 00:00:00 | |
| DK5PH-5 | 2026-09-05 08:38:16 | 49.21917 | 9.58782 | 0° | 0km/h | 361m | 0.0m/s | 17.6°C | 0% | 984.0hPa | 2.9V | 01:09:00 | 04:05:41 | 00:00:00 | |
| DK5PH-5 | 2026-09-05 08:37:46 | 49.21917 | 9.58781 | 0° | 0km/h | 361m | 0.0m/s | 17.8°C | 0% | 983.9hPa | 2.9V | 00:00:00 | 04:05:11 | 00:00:00 | |
| DK5PH-5 | 2026-09-05 08:37:16 | 49.21916 | 9.58781 | 0° | 0km/h | 361m | 0.0m/s | 17.7°C | 0% | 983.8hPa | 2.9V | 01:10:00 | 04:04:41 | 00:00:00 | |
| DK5PH-5 | 2026-09-05 08:36:46 | 49.21916 | 9.58781 | 0° | 0km/h | 361m | -0.0m/s | 17.8°C | 0% | 983.8hPa | 2.9V | 00:00:00 | 04:04:11 | 00:00:00 | |
| DK5PH-5 | 2026-09-05 08:36:15 | 49.21916 | 9.58781 | 0° | 0km/h | 361m | -0.1m/s | 17.8°C | 0% | 983.8hPa | 2.9V | 01:11:00 | 04:03:40 | 00:00:00 | |
| DK5PH-5 | 2026-09-05 08:35:45 | 49.21917 | 9.58782 | 0° | 0km/h | 362m | 0.0m/s | 17.6°C | 0% | 983.8hPa | 2.9V | 00:00:00 | 04:03:10 | 00:00:00 | |
| DK5PH-5 | 2026-09-05 08:35:15 | 49.21917 | 9.58783 | 0° | 0km/h | 364m | 0.1m/s | 17.7°C | 0% | 983.7hPa | 2.9V | 01:12:00 | 04:02:40 | 00:00:00 | |
| DK5PH-5 | 2026-09-05 08:34:45 | 49.21916 | 9.58784 | 0° | 0km/h | 364m | -0.0m/s | 17.8°C | 0% | 983.8hPa | 2.9V | 00:00:00 | 04:02:10 | 00:00:00 | |
| DK5PH-5 | 2026-09-05 08:34:15 | 49.21916 | 9.58782 | 0° | 0km/h | 359m | -0.0m/s | 17.5°C | 0% | 983.8hPa | 2.9V | 01:13:00 | 04:01:40 | 00:00:00 | |
| DK5PH-5 | 2026-09-05 08:33:45 | 49.21915 | 9.58783 | 0° | 0km/h | 358m | -0.1m/s | 17.4°C | 0% | 983.9hPa | 2.9V | 00:00:00 | 04:01:10 | 00:00:00 | |
| DK5PH-5 | 2026-09-05 08:33:15 | 49.21916 | 9.58782 | 0° | 0km/h | 359m | 0.0m/s | 17.6°C | 0% | 983.9hPa | 2.9V | 01:14:00 | 04:00:40 | 00:00:00 | |
| DK5PH-5 | 2026-09-05 08:32:45 | 49.21917 | 9.58782 | 0° | 0km/h | 361m | -0.1m/s | 17.7°C | 0% | 983.8hPa | 2.9V | 00:00:00 | 04:00:10 | 00:00:00 | |
| DK5PH-5 | 2026-09-05 08:32:15 | 49.21917 | 9.58782 | 0° | 0km/h | 361m | -0.0m/s | 17.5°C | 0% | 983.7hPa | 2.9V | 01:15:00 | 03:59:40 | 00:00:00 | |
| DK5PH-5 | 2026-09-05 08:31:41 | 49.21917 | 9.58783 | 104° | 2km/h | 365m | -0.0m/s | 17.5°C | 0% | 983.9hPa | 2.9V | 00:00:00 | 03:59:06 | 00:00:00 | |
| DK5PH-5 | 2026-09-05 08:31:11 | 49.21916 | 9.58771 | 66° | 2km/h | 359m | 0.6m/s | 17.9°C | 0% | 983.8hPa | 2.9V | 01:16:00 | 03:58:36 | 00:00:00 | |
| DK5PH-5 | 2026-09-05 08:30:22 | 49.21918 | 9.58766 | 0° | 0km/h | 357m | 0.3m/s | 18.3°C | 0% | 984.0hPa | 2.9V | 00:00:00 | 03:57:47 | 00:00:00 | |
| DK5PH-5 | 2026-09-05 08:29:44 | 49.21918 | 9.58766 | 0° | 0km/h | 355m | 0.0m/s | 18.3°C | 0% | 983.9hPa | 2.9V | 01:17:00 | 03:57:09 | 00:00:00 | |
| DK5PH-5 | 2026-09-05 08:27:27 | 49.21917 | 9.58767 | 0° | 0km/h | 356m | -0.2m/s | 18.0°C | 0% | 984.0hPa | 2.9V | 00:00:00 | 03:54:52 | 00:00:00 | |
| DK5PH-5 | 2026-09-05 08:26:57 | 49.21917 | 9.58768 | 0° | 0km/h | 357m | -0.0m/s | 18.1°C | 0% | 984.0hPa | 2.9V | 01:20:00 | 03:54:22 | 00:00:00 | |
| DK5PH-5 | 2026-09-05 08:25:28 | 49.21916 | 9.58768 | 0° | 0km/h | 358m | -0.0m/s | 18.2°C | 0% | 984.0hPa | 2.9V | 00:00:00 | 03:52:53 | 00:00:00 | |
| DK5PH-5 | 2026-09-05 08:24:51 | 49.21915 | 9.58769 | 0° | 0km/h | 356m | 0.0m/s | 18.7°C | 0% | 984.0hPa | 2.9V | 01:22:00 | 03:52:16 | 00:00:00 | |
| DK5PH-5 | 2026-09-05 08:24:21 | 49.21916 | 9.58768 | 0° | 0km/h | 357m | 0.0m/s | 18.3°C | 0% | 983.9hPa | 2.9V | 00:00:00 | 03:51:46 | 00:00:00 | |
| DK5PH-5 | 2026-09-05 08:23:42 | 49.21916 | 9.58768 | 0° | 0km/h | 356m | 0.1m/s | 18.4°C | 0% | 984.0hPa | 2.9V | 01:23:00 | 03:51:07 | 00:00:00 | |
| DK5PH-5 | 2026-09-05 08:19:30 | 49.21918 | 9.58766 | 0° | 0km/h | 359m | 0.0m/s | 18.3°C | 0% | 983.8hPa | 2.9V | 00:00:00 | 03:46:55 | 00:00:00 | |
| DK5PH-5 | 2026-09-05 08:18:59 | 49.21919 | 9.58765 | 0° | 0km/h | 357m | -0.3m/s | 17.8°C | 0% | 984.0hPa | 2.9V | 01:28:00 | 03:46:24 | 00:00:00 | |
| DK5PH-5 | 2026-09-05 08:18:29 | 49.21918 | 9.58765 | 0° | 0km/h | 358m | 0.0m/s | 17.8°C | 0% | 983.8hPa | 2.9V | 00:00:00 | 03:45:54 | 00:00:00 | |
| DK5PH-5 | 2026-09-05 08:16:18 | 49.21917 | 9.58767 | 0° | 0km/h | 358m | -0.0m/s | 18.2°C | 0% | 984.0hPa | 2.9V | 01:31:00 | 03:43:43 | 00:00:00 | |
| DK5PH-5 | 2026-09-05 08:15:39 | 49.21917 | 9.58767 | 0° | 0km/h | 357m | -0.1m/s | 17.6°C | 0% | 983.7hPa | 2.9V | 00:00:00 | 03:43:04 | 00:00:00 | |
| DK5PH-5 | 2026-09-05 08:13:48 | 49.21916 | 9.58766 | 0° | 0km/h | 359m | -0.1m/s | 18.1°C | 0% | 983.9hPa | 2.7V | 01:33:00 | 03:41:13 | 00:00:00 | |
| DK5PH-5 | 2026-09-05 08:07:53 | 49.21916 | 9.58766 | 22° | 5km/h | 360m | -0.0m/s | 18.2°C | 0% | 983.8hPa | 2.7V | 00:00:00 | 03:35:18 | 00:00:00 | |
| DK5PH-5 | 2026-09-05 07:16:40 | 49.21915 | 9.58742 | 85° | 18km/h | 398m | -10.2m/s | 16.5°C | 85.0% | 979.6hPa | 2.7V | 02:31:00 | 02:44:06 | 00:00:00 | |
| DK5PH-5 | 2026-09-05 07:16:35 | 49.21912 | 9.58706 | 84° | 22km/h | 452m | -11.2m/s | 16.0°C | 84.5% | 973.9hPa | 2.7V | 00:00:00 | 02:44:01 | 00:00:00 | |
| DK5PH-5 | 2026-09-05 07:16:30 | 49.21906 | 9.58666 | 76° | 22km/h | 506m | -10.6m/s | 15.5°C | 87.5% | 967.6hPa | 2.7V | 00:00:00 | 02:43:56 | 00:00:00 | |
| DK5PH-5 | 2026-09-05 07:16:25 | 49.21898 | 9.58626 | 72° | 24km/h | 561m | -11.5m/s | 15.0°C | 89.2% | 961.4hPa | 2.7V | 02:31:00 | 02:43:51 | 00:00:00 | |
| DK5PH-5 | 2026-09-05 07:16:20 | 49.21890 | 9.58581 | 71° | 26km/h | 622m | -12.2m/s | 14.4°C | 91.1% | 954.7hPa | 2.6V | 00:00:00 | 02:43:46 | 00:00:00 | |
| DB0ND-19 | 2026-09-05 07:16:18 | 49.21882 | 9.58543 | 73° | 27km/h | 667m | -11.1m/s | 14.0°C | 91.1% | 949.5hPa | 2.6V | 00:00:00 | 00:00:00 | 00:00:00 | |
| DK5PH-5 | 2026-09-05 07:16:15 | 49.21880 | 9.58532 | 72° | 29km/h | 678m | -10.9m/s | 13.9°C | 93.5% | 948.2hPa | 2.6V | 00:00:00 | 02:43:41 | 00:00:00 | |
| DK5PH-5 | 2026-09-05 07:16:10 | 49.21870 | 9.58480 | 78° | 31km/h | 732m | -10.6m/s | 13.4°C | 94.8% | 942.2hPa | 2.6V | 02:31:00 | 02:43:36 | 00:00:00 | |
| DK5PH-5 | 2026-09-05 07:16:05 | 49.21866 | 9.58419 | 88° | 33km/h | 781m | -9.2m/s | 13.1°C | 96.0% | 936.7hPa | 2.7V | 00:00:00 | 02:43:31 | 00:00:00 | |
| DF3TZ-5 | 2026-09-05 07:16:01 | 49.21874 | 9.58248 | 97° | 33km/h | 914m | -10.3m/s | 12.6°C | 99.3% | 922.1hPa | 2.7V | 00:00:00 | 00:00:00 | 00:00:00 | |
| DB0ND-19 | 2026-09-05 07:15:47 | 49.21882 | 9.58176 | 101° | 29km/h | 977m | -10.2m/s | 12.2°C | 99.2% | 915.1hPa | 2.7V | 00:00:00 | 00:00:00 | 00:00:00 | |
| DK5PH-5 | 2026-09-05 07:15:45 | 49.21883 | 9.58165 | 99° | 27km/h | 988m | -10.4m/s | 12.1°C | 0% | 914.1hPa | 2.7V | 00:00:00 | 02:43:11 | 00:00:00 | |
| DK5PH-5 | 2026-09-05 07:15:40 | 49.21890 | 9.58115 | 100° | 26km/h | 1039m | -10.4m/s | 12.5°C | 90.2% | 908.4hPa | 2.7V | 02:32:00 | 02:43:06 | 00:00:00 | |
| DM7RM-13 | 2026-09-05 07:15:34 | 49.21895 | 9.58066 | 96° | 27km/h | 1089m | -9.7m/s | 12.3°C | 88.7% | 903.0hPa | 2.7V | 02:32:00 | 00:00:00 | 00:00:00 | |
| DK5PH-5 | 2026-09-05 07:15:30 | 49.21900 | 9.58014 | 102° | 27km/h | 1140m | -10.5m/s | 11.8°C | 95.4% | 897.6hPa | 2.7V | 00:00:00 | 02:42:56 | 00:00:00 | |
| DB0UT-7 | 2026-09-05 07:15:26 | 49.21904 | 9.57972 | 96° | 27km/h | 1180m | -10.2m/s | 11.4°C | 96.2% | 893.4hPa | 2.7V | 00:00:00 | 02:42:52 | 00:00:00 | |
| DK5PH-5 | 2026-09-05 07:15:20 | 49.21909 | 9.57909 | 96° | 29km/h | 1241m | -10.0m/s | 11.0°C | 93.4% | 887.0hPa | 2.7V | 00:00:00 | 02:42:46 | 00:00:00 | |
| DB0UT-9 | 2026-09-05 07:15:16 | 49.21912 | 9.57876 | 98° | 31km/h | 1269m | -9.3m/s | 11.0°C | 86.3% | 883.9hPa | 2.7V | 02:32:00 | 00:00:00 | 00:00:00 | |
| DB0UT-7 | 2026-09-05 07:15:16 | 49.21913 | 9.57864 | 95° | 33km/h | 1279m | -9.5m/s | 10.8°C | 89.5% | 882.7hPa | 2.7V | 00:00:00 | 00:00:00 | 00:00:00 | |
| DB0ND-19 | 2026-09-05 07:15:16 | 49.21914 | 9.57853 | 97° | 27km/h | 1288m | -9.9m/s | 10.8°C | 88.0% | 881.8hPa | 2.7V | 00:00:00 | 00:00:00 | 00:00:00 | |
| DM7RM-13 | 2026-09-05 07:15:14 | 49.21914 | 9.57853 | 99° | 29km/h | 1288m | -9.9m/s | 10.8°C | 88.0% | 881.8hPa | 2.7V | 02:32:00 | 00:00:00 | 00:00:00 | |
| DK5PH-5 | 2026-09-05 07:15:10 | 49.21919 | 9.57793 | 95° | 35km/h | 1337m | -9.6m/s | 10.4°C | 93.0% | 876.7hPa | 2.7V | 02:32:00 | 02:42:36 | 00:00:00 | |
| DB0UT-7 | 2026-09-05 07:15:06 | 49.21922 | 9.57741 | 95° | 35km/h | 1375m | -9.4m/s | 10.1°C | 93.2% | 872.6hPa | 2.7V | 02:32:00 | 02:42:32 | 00:00:00 | |
| DF3TZ-5 | 2026-09-05 07:14:59 | 49.21925 | 9.57648 | 96° | 35km/h | 1442m | -9.7m/s | 9.8°C | 96.3% | 865.5hPa | 2.6V | 00:00:00 | 00:00:00 | 00:00:00 | |
| DF7PN | 2026-09-05 07:14:50 | 49.21925 | 9.57522 | 88° | 38km/h | 1531m | -10.1m/s | 9.5°C | 71.3% | 856.2hPa | 2.6V | 00:00:00 | 00:00:00 | 00:00:00 | |
| DK5PH-5 | 2026-09-05 07:14:50 | 49.21925 | 9.57522 | 89° | 40km/h | 1531m | -10.0m/s | 9.5°C | 73.0% | 856.2hPa | 2.6V | 00:00:00 | 02:42:16 | 00:00:00 | |
| DB0UT-7 | 2026-09-05 07:14:46 | 49.21924 | 9.57462 | 85° | 42km/h | 1571m | -10.0m/s | 9.3°C | 74.6% | 852.1hPa | 2.6V | 00:00:00 | 02:42:12 | 00:00:00 | |
| DB0ND-19 | 2026-09-05 07:14:45 | 49.21921 | 9.57432 | 82° | 38km/h | 1591m | -10.4m/s | 9.2°C | 70.4% | 850.2hPa | 2.6V | 00:00:00 | 00:00:00 | 00:00:00 | |
| DK5PH-5 | 2026-09-05 07:14:40 | 49.21917 | 9.57369 | 86° | 44km/h | 1632m | -9.6m/s | 8.9°C | 72.0% | 846.0hPa | 2.6V | 02:33:00 | 02:42:06 | 00:00:00 | |
| DB0UT-7 | 2026-09-05 07:14:36 | 49.21910 | 9.57302 | 83° | 46km/h | 1672m | -9.4m/s | 8.7°C | 69.9% | 841.9hPa | 2.6V | 02:33:00 | 00:00:00 | 00:00:00 | |
| DB0UT-9 | 2026-09-05 07:14:35 | 49.21910 | 9.57302 | 84° | 44km/h | 1672m | -9.4m/s | 8.8°C | 68.3% | 842.0hPa | 2.6V | 02:33:00 | 00:00:00 | 00:00:00 | |
| DL0LBS | 2026-09-05 07:14:34 | 49.21908 | 9.57285 | 85° | 42km/h | 1682m | -9.8m/s | 8.8°C | 67.2% | 841.1hPa | 2.6V | 02:33:00 | 00:00:00 | 00:00:00 | |
| DM7RM-13 | 2026-09-05 07:14:32 | 49.21905 | 9.57251 | 83° | 44km/h | 1702m | -9.8m/s | 8.8°C | 64.6% | 839.0hPa | 2.6V | 02:33:00 | 00:00:00 | 00:00:00 | |
| DK5PH-5 | 2026-09-05 07:14:30 | 49.21902 | 9.57199 | 88° | 47km/h | 1732m | -9.9m/s | 8.5°C | 71.5% | 836.0hPa | 2.6V | 00:00:00 | 02:41:56 | 00:00:00 | |
| DF3TZ-5 | 2026-09-05 07:14:28 | 49.21901 | 9.57162 | 88° | 46km/h | 1752m | -10.1m/s | 8.6°C | 69.8% | 834.0hPa | 2.6V | 00:00:00 | 00:00:00 | 00:00:00 | |
| DB0UT-7 | 2026-09-05 07:14:26 | 49.21900 | 9.57126 | 91° | 51km/h | 1772m | -9.4m/s | 8.6°C | 70.1% | 832.0hPa | 2.6V | 00:00:00 | 02:41:52 | 00:00:00 | |
| DB0NH | 2026-09-05 07:14:23 | 49.21900 | 9.57069 | 93° | 53km/h | 1801m | -9.6m/s | 8.6°C | 67.2% | 829.1hPa | 2.6V | 00:00:00 | 02:41:49 | 00:00:00 | |
| DK5PH-5 | 2026-09-05 07:14:20 | 49.21903 | 9.57010 | 95° | 55km/h | 1830m | -9.7m/s | 8.7°C | 60.4% | 826.1hPa | 2.6V | 00:00:00 | 02:41:46 | 00:00:00 | |
| DF7PN | 2026-09-05 07:14:19 | 49.21904 | 9.56990 | 94° | 53km/h | 1839m | -10.1m/s | 8.8°C | 57.1% | 825.3hPa | 2.6V | 00:00:00 | 00:00:00 | 00:00:00 | |
| DB0UT-7 | 2026-09-05 07:14:16 | 49.21908 | 9.56927 | 96° | 55km/h | 1869m | -9.2m/s | 8.7°C | 56.2% | 822.4hPa | 2.6V | 00:00:00 | 00:00:00 | 00:00:00 | |
| DB0UT-9 | 2026-09-05 07:14:14 | 49.21910 | 9.56906 | 97° | 57km/h | 1878m | -9.2m/s | 8.8°C | 51.8% | 821.4hPa | 2.6V | 02:33:00 | 00:00:00 | 00:00:00 | |
| DL0LBS | 2026-09-05 07:14:13 | 49.21912 | 9.56885 | 97° | 57km/h | 1888m | -9.4m/s | 8.9°C | 47.4% | 820.6hPa | 2.6V | 02:33:00 | 00:00:00 | 00:00:00 | |
| DB0NH | 2026-09-05 07:14:13 | 49.21914 | 9.56864 | 97° | 53km/h | 1897m | -10.0m/s | 9.0°C | 45.7% | 819.5hPa | 2.6V | 00:00:00 | 02:41:39 | 00:00:00 | |
| DM7RM-13 | 2026-09-05 07:14:11 | 49.21915 | 9.56843 | 98° | 53km/h | 1907m | -10.1m/s | 9.1°C | 41.5% | 818.5hPa | 2.6V | 02:33:00 | 00:00:00 | 00:00:00 | |
| DK5PH-5 | 2026-09-05 07:14:10 | 49.21919 | 9.56802 | 97° | 53km/h | 1927m | -9.7m/s | 9.2°C | 33.8% | 816.6hPa | 2.6V | 02:33:00 | 02:41:36 | 00:00:00 | |
| DB0UT-7 | 2026-09-05 07:14:06 | 49.21926 | 9.56721 | 97° | 53km/h | 1965m | -9.7m/s | 9.1°C | 30.5% | 812.7hPa | 2.6V | 02:33:00 | 02:41:32 | 00:00:00 | |
| DB0NH | 2026-09-05 07:14:03 | 49.21930 | 9.56662 | 101° | 53km/h | 1994m | -10.0m/s | 8.9°C | 29.4% | 809.8hPa | 2.6V | 02:33:00 | 02:41:29 | 00:00:00 | |
| DF3TZ-5 | 2026-09-05 07:13:57 | 49.21941 | 9.56541 | 96° | 51km/h | 2053m | -10.3m/s | 8.5°C | 30.6% | 804.1hPa | 2.6V | 00:00:00 | 00:00:00 | 00:00:00 | |
| DF7PN | 2026-09-05 07:13:48 | 49.21959 | 9.56349 | 97° | 55km/h | 2142m | -9.7m/s | 8.0°C | 38.3% | 795.2hPa | 2.6V | 00:00:00 | 00:00:00 | 00:00:00 | |
| DB0ND-19 | 2026-09-05 07:13:42 | 49.21973 | 9.56218 | 98° | 58km/h | 2201m | -10.2m/s | 7.8°C | 38.9% | 789.7hPa | 2.6V | 00:00:00 | 00:00:00 | 00:00:00 | |
| DK5PH-5 | 2026-09-05 07:13:40 | 49.21978 | 9.56173 | 99° | 58km/h | 2221m | -9.9m/s | 7.7°C | 31.4% | 787.7hPa | 2.6V | 00:00:00 | 02:41:06 | 00:00:00 | |
| DB0UT-7 | 2026-09-05 07:13:36 | 49.21988 | 9.56084 | 103° | 58km/h | 2261m | -10.1m/s | 7.5°C | 25.1% | 783.9hPa | 2.6V | 00:00:00 | 02:41:02 | 00:00:00 | |
| DB0NH | 2026-09-05 07:13:33 | 49.21995 | 9.56018 | 100° | 58km/h | 2292m | -10.0m/s | 7.4°C | 24.0% | 781.1hPa | 2.6V | 00:00:00 | 02:40:59 | 00:00:00 | |
| DL0LBS | 2026-09-05 07:13:32 | 49.21995 | 9.56018 | 100° | 60km/h | 2292m | -10.1m/s | 7.4°C | 23.5% | 781.2hPa | 2.6V | 02:34:00 | 00:00:00 | 00:00:00 | |
| DO3MHA-11 | 2026-09-05 07:13:30 | 49.22002 | 9.55951 | 99° | 58km/h | 2322m | -10.0m/s | 7.1°C | 25.2% | 778.3hPa | 2.6V | 00:00:00 | 02:40:56 | 00:00:00 | |
| DF3TZ-5 | 2026-09-05 07:13:26 | 49.22012 | 9.55862 | 100° | 57km/h | 2362m | -10.2m/s | 6.9°C | 23.0% | 774.5hPa | 2.6V | 00:00:00 | 00:00:00 | 00:00:00 | |
| DO3MHA-11 | 2026-09-05 07:13:25 | 49.22015 | 9.55840 | 100° | 58km/h | 2372m | -9.7m/s | 6.7°C | 23.7% | 773.5hPa | 2.6V | 00:00:00 | 02:40:51 | 00:00:00 | |
| DO3MHA-11 | 2026-09-05 07:13:20 | 49.22027 | 9.55729 | 99° | 58km/h | 2422m | -10.1m/s | 6.3°C | 25.0% | 768.8hPa | 2.6V | 02:34:00 | 02:40:46 | 00:00:00 | |
| SFWM-10 | 2026-09-05 07:13:18 | 49.22029 | 9.55707 | 103° | 58km/h | 2432m | -9.9m/s | 6.3°C | 24.5% | 768.1hPa | 2.6V | 00:00:00 | 00:00:00 | 00:00:00 | |
| DF7PN | 2026-09-05 07:13:17 | 49.22035 | 9.55662 | 99° | 58km/h | 2451m | -9.5m/s | 6.1°C | 23.6% | 766.2hPa | 2.6V | 00:00:00 | 00:00:00 | 00:00:00 | |
| DB0UT-7 | 2026-09-05 07:13:16 | 49.22037 | 9.55640 | 100° | 57km/h | 2461m | -9.9m/s | 6.0°C | 23.4% | 765.2hPa | 2.6V | 02:34:00 | 00:00:00 | 00:00:00 | |
| DO3MHA-11 | 2026-09-05 07:13:15 | 49.22040 | 9.55619 | 103° | 57km/h | 2471m | -9.9m/s | 5.9°C | 23.3% | 764.3hPa | 2.6V | 00:00:00 | 02:40:41 | 00:00:00 | |
| DB0UT-9 | 2026-09-05 07:13:13 | 49.22042 | 9.55597 | 100° | 58km/h | 2481m | -10.0m/s | 5.9°C | 23.0% | 763.3hPa | 2.6V | 02:34:00 | 00:00:00 | 00:00:00 | |
| DB0NH | 2026-09-05 07:13:12 | 49.22048 | 9.55553 | 101° | 58km/h | 2501m | -9.8m/s | 5.6°C | 24.1% | 761.5hPa | 2.6V | 02:34:00 | 02:40:38 | 00:00:00 | |
| DB0ND-19 | 2026-09-05 07:13:11 | 49.22051 | 9.55531 | 99° | 57km/h | 2510m | -9.8m/s | 5.6°C | 23.5% | 760.6hPa | 2.6V | 00:00:00 | 00:00:00 | 00:00:00 | |
| DO3MHA-11 | 2026-09-05 07:13:10 | 49.22053 | 9.55510 | 99° | 57km/h | 2520m | -10.0m/s | 5.5°C | 24.3% | 759.7hPa | 2.6V | 00:00:00 | 02:40:36 | 00:00:00 | |
| DM7RM-13 | 2026-09-05 07:13:09 | 49.22053 | 9.55510 | 100° | 57km/h | 2520m | -10.1m/s | 5.5°C | 23.6% | 759.8hPa | 2.6V | 02:35:00 | 00:00:00 | 00:00:00 | |
| DO3MHA-11 | 2026-09-05 07:13:05 | 49.22065 | 9.55401 | 98° | 57km/h | 2569m | -10.0m/s | 5.1°C | 27.1% | 755.2hPa | 2.6V | 02:34:00 | 02:40:31 | 00:00:00 | |
| DF3TZ-5 | 2026-09-05 07:12:55 | 49.22090 | 9.55181 | 103° | 58km/h | 2669m | -10.5m/s | 4.2°C | 44.5% | 746.0hPa | 2.6V | 00:00:00 | 00:00:00 | 00:00:00 | |
| DF7PN | 2026-09-05 07:12:46 | 49.22125 | 9.54948 | 106° | 62km/h | 2774m | -10.5m/s | 3.3°C | 52.1% | 736.5hPa | 2.6V | 00:00:00 | 00:00:00 | 00:00:00 | |
| DO3MHA-11 | 2026-09-05 07:12:45 | 49.22125 | 9.54948 | 107° | 64km/h | 2774m | -10.5m/s | 3.2°C | 53.7% | 736.5hPa | 2.6V | 00:00:00 | 02:40:11 | 00:00:00 | |
| DO3MHA-11 | 2026-09-05 07:12:40 | 49.22144 | 9.54829 | 104° | 68km/h | 2825m | -10.0m/s | 2.8°C | 58.4% | 731.8hPa | 2.6V | 00:00:00 | 02:40:06 | 00:00:00 | |
| HARRO8 | 2026-09-05 07:12:38 | 49.22157 | 9.54754 | 104° | 68km/h | 2855m | -10.8m/s | 2.5°C | 60.5% | 729.0hPa | 2.6V | 00:00:00 | 00:00:00 | 00:00:00 | |
| DB0UT-7 | 2026-09-05 07:12:36 | 49.22161 | 9.54728 | 106° | 69km/h | 2866m | -10.8m/s | 2.4°C | 63.0% | 728.0hPa | 2.6V | 00:00:00 | 00:00:00 | 00:00:00 | |
| DO3MHA-11 | 2026-09-05 07:12:35 | 49.22166 | 9.54703 | 109° | 68km/h | 2876m | -10.9m/s | 2.3°C | 63.3% | 727.2hPa | 2.6V | 02:35:00 | 02:40:01 | 00:00:00 | |
| SFWM-10 | 2026-09-05 07:12:33 | 49.22171 | 9.54678 | 109° | 68km/h | 2887m | -11.0m/s | 2.2°C | 62.0% | 726.2hPa | 2.6V | 02:35:00 | 00:00:00 | 00:00:00 | |
| DK7TD | 2026-09-05 07:12:16 | 49.22252 | 9.54208 | 107° | 71km/h | 3078m | -10.5m/s | 0.9°C | 78.4% | 709.2hPa | 2.6V | 02:36:09 | 02:39:42 | 00:00:00 | |
| DB0UT-7 | 2026-09-05 07:12:16 | 49.22252 | 9.54208 | 107° | 68km/h | 3078m | -10.5m/s | 0.9°C | 71.6% | 709.1hPa | 2.6V | 02:35:00 | 02:39:42 | 00:00:00 | |
| DO3MHA-11 | 2026-09-05 07:12:15 | 49.22257 | 9.54182 | 107° | 69km/h | 3089m | -11.0m/s | 0.8°C | 72.1% | 708.3hPa | 2.6V | 00:00:00 | 02:39:41 | 00:00:00 | |
| SFWM-10 | 2026-09-05 07:12:13 | 49.22262 | 9.54156 | 106° | 69km/h | 3100m | -11.1m/s | 0.8°C | 70.1% | 707.3hPa | 2.6V | 02:36:00 | 00:00:00 | 00:00:00 | |
| DB0UT-9 | 2026-09-05 07:12:11 | 49.22271 | 9.54104 | 105° | 69km/h | 3122m | -11.0m/s | 0.6°C | 71.0% | 705.4hPa | 2.6V | 02:36:00 | 00:00:00 | 00:00:00 | |
| DO3MHA-11 | 2026-09-05 07:12:10 | 49.22280 | 9.54052 | 104° | 71km/h | 3144m | -11.2m/s | 0.3°C | 74.3% | 703.6hPa | 2.6V | 00:00:00 | 02:39:36 | 00:00:00 | |
| DB0ND-19 | 2026-09-05 07:12:09 | 49.22284 | 9.54026 | 103° | 69km/h | 3155m | -10.6m/s | 0.2°C | 72.3% | 702.7hPa | 2.6V | 00:00:00 | 00:00:00 | 00:00:00 | |
| DM7RM-13 | 2026-09-05 07:12:08 | 49.22284 | 9.54026 | 104° | 71km/h | 3156m | -10.6m/s | 0.2°C | 72.3% | 702.7hPa | 2.6V | 02:36:00 | 00:00:00 | 00:00:00 | |
| HARRO8 | 2026-09-05 07:12:06 | 49.22297 | 9.53946 | 104° | 69km/h | 3187m | -10.7m/s | -0.0°C | 73.7% | 699.8hPa | 2.6V | 00:00:00 | 00:00:00 | 00:00:00 | |
| DO3MHA-11 | 2026-09-05 07:12:05 | 49.22302 | 9.53919 | 104° | 71km/h | 3197m | -10.5m/s | -0.1°C | 76.8% | 698.8hPa | 2.6V | 02:35:00 | 02:39:31 | 00:00:00 | |
| DL1ZP-14 | 2026-09-05 07:12:03 | 49.22311 | 9.53866 | 103° | 69km/h | 3218m | -11.2m/s | -0.4°C | 75.1% | 697.0hPa | 2.6V | 00:00:00 | 00:00:00 | 00:00:00 | |
| DF3TZ-5 | 2026-09-05 07:11:53 | 49.22349 | 9.53620 | 103° | 62km/h | 3331m | -11.8m/s | -0.8°C | 78.3% | 687.2hPa | 2.6V | 00:00:00 | 00:00:00 | 00:00:00 | |
| DK7TD | 2026-09-05 07:11:38 | 49.22399 | 9.53278 | 103° | 60km/h | 3496m | -10.8m/s | -2.2°C | 87.3% | 673hPa | 2.6V | 02:36:09 | 02:39:04 | 00:00:00 | |
| DK7TD | 2026-09-05 07:11:26 | 49.22427 | 9.53005 | 98° | 60km/h | 3631m | -11.7m/s | -3°C | 87.3% | 661.6hPa | 2.6V | 02:37:00 | 02:38:52 | 00:00:00 | |
| DK7TD | 2026-09-05 07:11:15 | 49.22449 | 9.52760 | 101° | 58km/h | 3755m | -11.3m/s | -1.2°C | 34.2% | 651.3hPa | 2.6V | 02:37:00 | 02:38:41 | 00:00:00 | |
| DK7TD | 2026-09-05 07:11:00 | 49.22498 | 9.52413 | 107° | 62km/h | 3921m | -10.7m/s | -0.9°C | 5.7% | 637.9hPa | 2.6V | 02:37:00 | 02:38:26 | 00:00:00 | |
| DK7TD | 2026-09-05 07:10:50 | 49.22543 | 9.52185 | 108° | 62km/h | 4028m | -10.5m/s | -1.9°C | 4.2% | 629.4hPa | 2.6V | 02:37:00 | 02:38:16 | 00:00:00 | |
| DK7TD | 2026-09-05 07:10:40 | 49.22592 | 9.51961 | 109° | 60km/h | 4134m | -10.9m/s | -2.4°C | 2.2% | 621hPa | 2.5V | 02:37:00 | 02:38:06 | 00:00:00 | |
| DK7TD | 2026-09-05 07:10:29 | 49.22633 | 9.51706 | 104° | 64km/h | 4253m | -10.2m/s | -3.3°C | 3.6% | 611.8hPa | 2.5V | 02:37:51 | 02:37:55 | 00:00:00 | |
| DK7TD | 2026-09-05 07:10:19 | 49.22681 | 9.51465 | 110° | 69km/h | 4361m | -10.8m/s | -4.2°C | 4.4% | 603.5hPa | 2.5V | 02:37:51 | 02:37:45 | 00:00:00 | |
| DK7TD | 2026-09-05 07:10:08 | 49.22743 | 9.51180 | 108° | 71km/h | 4478m | -11.1m/s | -4.8°C | 0.7% | 594.6hPa | 2.5V | 02:37:51 | 02:37:34 | 00:00:00 | |
| DK7TD | 2026-09-05 07:09:57 | 49.22793 | 9.50884 | 103° | 75km/h | 4598m | -10.7m/s | -5.5°C | 0.1% | 585.7hPa | 2.6V | 02:37:51 | 02:37:23 | 00:00:00 | |
| DK7TD | 2026-09-05 07:09:47 | 49.22834 | 9.50605 | 103° | 75km/h | 4708m | -10.7m/s | -5.9°C | 0% | 577.6hPa | 2.6V | 02:38:42 | 02:37:13 | 00:00:00 | |
| DK7TD | 2026-09-05 07:09:37 | 49.22883 | 9.50321 | 104° | 78km/h | 4816m | -11m/s | -6.4°C | 1% | 569.8hPa | 2.6V | 02:38:42 | 02:37:03 | 00:00:00 | |
| DK7TD | 2026-09-05 07:09:26 | 49.22933 | 9.49973 | 100° | 88km/h | 4933m | -10.7m/s | -6.6°C | 0% | 561.4hPa | 2.6V | 02:38:42 | 02:36:52 | 00:00:00 | |
| DK7TD | 2026-09-05 07:09:15 | 49.22976 | 9.49609 | 99° | 86km/h | 5055m | -11m/s | -7.5°C | 4.5% | 552.5hPa | 2.6V | 02:38:42 | 02:36:41 | 00:00:00 | |
| DK7TD | 2026-09-05 07:09:04 | 49.23017 | 9.49251 | 100° | 84km/h | 5179m | -11.5m/s | -8.4°C | 6.5% | 543.8hPa | 2.5V | 02:38:42 | 02:36:30 | 00:00:00 | |
| DK7TD | 2026-09-05 07:08:54 | 49.23071 | 9.48942 | 107° | 84km/h | 5293m | -10.5m/s | -9.1°C | 4.7% | 535.8hPa | 2.6V | 02:39:33 | 02:36:20 | 00:00:00 | |
| DF3TZ-5 | 2026-09-05 07:08:47 | 49.23130 | 9.48706 | 112° | 82km/h | 5380m | -11.4m/s | -9.7°C | 4.1% | 529.8hPa | 2.6V | 00:00:00 | 00:00:00 | 00:00:00 | |
| DK7TD | 2026-09-05 07:08:44 | 49.23146 | 9.48646 | 112° | 86km/h | 5403m | -10.6m/s | -9.8°C | 3.3% | 528.3hPa | 2.6V | 02:39:33 | 02:36:10 | 00:00:00 | |
| DK7TD | 2026-09-05 07:08:33 | 49.23246 | 9.48306 | 114° | 89km/h | 5526m | -10.9m/s | -10°C | 12.3% | 520hPa | 2.6V | 02:39:33 | 02:35:59 | 00:00:00 | |
| DK7TD | 2026-09-05 07:08:22 | 49.23352 | 9.47962 | 117° | 89km/h | 5649m | -11.9m/s | -11.1°C | 13.4% | 511.5hPa | 2.5V | 02:39:33 | 02:35:48 | 00:00:00 | |
| DK7TD | 2026-09-05 07:08:12 | 49.23457 | 9.47649 | 118° | 91km/h | 5763m | -11.4m/s | -12.1°C | 14.2% | 504.1hPa | 2.6V | 02:39:33 | 02:35:38 | 00:00:00 | |
| DK7TD | 2026-09-05 07:08:01 | 49.23579 | 9.47301 | 118° | 95km/h | 5884m | -11.2m/s | -13.2°C | 12.6% | 496.1hPa | 2.6V | 02:40:24 | 02:35:27 | 00:00:00 | |
| DK7TD | 2026-09-05 07:07:50 | 49.23706 | 9.46945 | 117° | 95km/h | 6008m | -11.5m/s | -14.3°C | 12.5% | 488hPa | 2.6V | 02:40:24 | 02:35:16 | 00:00:00 | |
| DK7TD | 2026-09-05 07:07:40 | 49.23814 | 9.46611 | 114° | 99km/h | 6123m | -11.1m/s | -14.9°C | 13.8% | 480.6hPa | 2.6V | 02:40:24 | 02:35:06 | 00:00:00 | |
| DK7TD | 2026-09-05 07:07:29 | 49.23935 | 9.46212 | 115° | 106km/h | 6248m | -11.9m/s | -15.5°C | 11.4% | 472.7hPa | 2.6V | 02:40:24 | 02:34:55 | 00:00:00 | |
| BIOWL1-15 | 2026-09-05 07:07:21 | 49.24024 | 9.45905 | 113° | 110km/h | 6340m | -11.9m/s | -15.6°C | 9% | 467hPa | 2.5V | 02:40:24 | 02:34:47 | 00:00:00 | |
| DK7TD | 2026-09-05 07:07:18 | 49.24056 | 9.45787 | 112° | 110km/h | 6375m | -11.9m/s | -15.7°C | 8.1% | 464.9hPa | 2.6V | 02:40:24 | 02:34:44 | 00:00:00 | |
| BIOWL1-15 | 2026-09-05 07:07:11 | 49.24126 | 9.45504 | 110° | 113km/h | 6455m | -11.5m/s | -16.2°C | 7.6% | 460hPa | 2.5V | 02:41:15 | 02:34:37 | 00:00:00 | |
| DK7TD | 2026-09-05 07:07:07 | 49.24163 | 9.45338 | 108° | 113km/h | 6499m | -11.4m/s | -16.1°C | 5.8% | 457.2hPa | 2.5V | 02:41:15 | 02:34:33 | 00:00:00 | |
| DK7TD | 2026-09-05 07:06:56 | 49.24261 | 9.44896 | 110° | 111km/h | 6627m | -11.7m/s | -17.1°C | 5.6% | 449.5hPa | 2.5V | 02:41:15 | 02:34:22 | 00:00:00 | |
| BIOWL1-15 | 2026-09-05 07:06:52 | 49.24338 | 9.44575 | 109° | 108km/h | 6722m | -12.2m/s | -17.6°C | 5.1% | 443.8hPa | 2.6V | 02:41:15 | 02:34:14 | 00:00:00 | |
| DO3MHA-11 | 2026-09-05 07:06:47 | 49.24347 | 9.44536 | 110° | 113km/h | 6734m | -11.3m/s | -17.6°C | 5.7% | 443.0hPa | 2.6V | 02:40:00 | 02:34:13 | 00:00:00 | |
| DM0DOS-11 | 2026-09-05 07:06:46 | 49.24408 | 9.44291 | 111° | 115km/h | 6803m | -12.2m/s | -18.3°C | 6.2% | 438.9hPa | 2.6V | 02:40:59 | 02:34:07 | 00:00:00 | |
| DK7TD | 2026-09-05 07:06:45 | 49.24366 | 9.44455 | 111° | 113km/h | 6756m | -11.6m/s | -17.9°C | 5.3% | 441.7hPa | 2.5V | 02:41:15 | 02:34:11 | 00:00:00 | |
| BIOWL1-15 | 2026-09-05 07:06:37 | 49.24450 | 9.44125 | 111° | 119km/h | 6851m | -11.6m/s | -18.3°C | 5.4% | 436.1hPa | 2.6V | 02:41:15 | 02:34:03 | 00:00:00 | |
| DK7TD | 2026-09-05 07:06:35 | 49.24471 | 9.44040 | 110° | 119km/h | 6874m | -11.7m/s | -18.4°C | 5.2% | 434.8hPa | 2.5V | 02:41:15 | 02:34:01 | 00:00:00 | |
| DM0DOS-11 | 2026-09-05 07:06:34 | 49.24530 | 9.43782 | 108° | 119km/h | 6938m | -10m/s | -18.7°C | 5.5% | 431hPa | 2.6V | 02:41:11 | 02:33:55 | 00:00:00 | |
| BIOWL1-15 | 2026-09-05 07:06:29 | 49.24549 | 9.43696 | 108° | 115km/h | 6958m | -10.8m/s | -18.8°C | 4.7% | 429.9hPa | 2.5V | 02:41:15 | 02:33:53 | 00:00:00 | |
| DK7TD | 2026-09-05 07:06:24 | 49.24578 | 9.43568 | 110° | 117km/h | 6992m | -11.7m/s | -18.9°C | 5.4% | 428hPa | 2.5V | 02:42:06 | 02:33:50 | 00:00:00 | |
| BIOWL1-15 | 2026-09-05 07:06:16 | 49.24657 | 9.43227 | 110° | 117km/h | 7076m | -9.8m/s | -19.7°C | 6.2% | 423.1hPa | 2.5V | 02:43:48 | 02:33:42 | 00:00:00 | |
| DK7TD | 2026-09-05 07:06:13 | 49.24688 | 9.43100 | 111° | 117km/h | 7105m | -9.5m/s | -19.9°C | 6.6% | 421.4hPa | 2.6V | 02:42:06 | 02:33:39 | 00:00:00 | |
| BIOWL1-15 | 2026-09-05 07:06:06 | 49.24764 | 9.42800 | 111° | 122km/h | 7174m | -9.9m/s | -20.4°C | 7% | 417.5hPa | 2.6V | 02:43:48 | 02:33:32 | 00:00:00 | |
| DK7TD | 2026-09-05 07:06:02 | 49.24808 | 9.42623 | 110° | 124km/h | 7214m | -9.8m/s | -20.6°C | 6.6% | 415.3hPa | 2.6V | 02:42:06 | 02:33:28 | 00:00:00 | |
| BIOWL1-15 | 2026-09-05 07:05:55 | 49.24882 | 9.42309 | 110° | 122km/h | 7283m | -9.7m/s | -21°C | 6.2% | 411.3hPa | 2.5V | 02:43:48 | 02:33:21 | 00:00:00 | |
| DK7TD | 2026-09-05 07:05:51 | 49.24925 | 9.42130 | 111° | 122km/h | 7323m | -9.9m/s | -21.3°C | 6.2% | 409.1hPa | 2.5V | 02:42:06 | 02:33:17 | 00:00:00 | |
| DL1ZP-14 | 2026-09-05 07:05:51 | 49.24937 | 9.42085 | 111° | 122km/h | 7332m | -9.9m/s | -21.4°C | 5.7% | 408.5hPa | 2.6V | 00:00:00 | 00:00:00 | 00:00:00 | |
| BIOWL1-15 | 2026-09-05 07:05:44 | 49.25005 | 9.41819 | 112° | 122km/h | 7393m | -10.3m/s | -21.9°C | 7.1% | 405.3hPa | 2.6V | 02:43:48 | 02:33:10 | 00:00:00 | |
| DK7TD | 2026-09-05 07:05:40 | 49.25053 | 9.41642 | 113° | 124km/h | 7433m | -10m/s | -22.2°C | 7.7% | 403hPa | 2.5V | 02:42:06 | 02:33:06 | 00:00:00 | |
| DK7TD | 2026-09-05 07:05:30 | 49.25174 | 9.41198 | 112° | 126km/h | 7533m | -9.9m/s | -23°C | 8% | 397.6hPa | 2.5V | 02:42:57 | 02:32:56 | 00:00:00 | |
| DO8TBO-1 | 2026-09-05 07:05:29 | 49.25186 | 9.41153 | 114° | 128km/h | 7543m | -10.1m/s | -23.0°C | 7.7% | 397.1hPa | 2.5V | 02:42:00 | 02:32:55 | 00:00:00 | |
| DO3MHA-11 | 2026-09-05 07:05:27 | 49.25211 | 9.41064 | 113° | 128km/h | 7562m | -9.8m/s | -23.1°C | 7.6% | 395.9hPa | 2.6V | 00:00:00 | 02:32:53 | 00:00:00 | |
| DB0ND-19 | 2026-09-05 07:05:26 | 49.25224 | 9.41018 | 112° | 126km/h | 7572m | -10.0m/s | -23.3°C | 6.5% | 395.4hPa | 2.6V | 00:00:00 | 00:00:00 | 00:00:00 | |
| DM0DOS-11 | 2026-09-05 07:05:23 | 49.25323 | 9.40655 | 112° | 128km/h | 7651m | -9.7m/s | -23.7°C | 6.7% | 391.2hPa | 2.6V | 02:42:22 | 02:32:44 | 00:00:00 | |
| DK7TD | 2026-09-05 07:05:20 | 49.25299 | 9.40745 | 113° | 126km/h | 7632m | -10.1m/s | -23.6°C | 7% | 392.3hPa | 2.5V | 02:42:57 | 02:32:46 | 00:00:00 | |
| DL1ZP-14 | 2026-09-05 07:05:20 | 49.25311 | 9.40700 | 112° | 126km/h | 7642m | -10.2m/s | -23.7°C | 5.9% | 391.8hPa | 2.5V | 00:00:00 | 00:00:00 | 00:00:00 | |
| DO3MHA-11 | 2026-09-05 07:05:17 | 49.25335 | 9.40610 | 113° | 128km/h | 7661m | -10.2m/s | -23.7°C | 6.6% | 390.7hPa | 2.6V | 02:42:00 | 02:32:43 | 00:00:00 | |
| DF1GD-15 | 2026-09-05 07:05:15 | 49.25347 | 9.40564 | 113° | 128km/h | 7672m | -9.9m/s | -23.8°C | 5.5% | 390.2hPa | 2.5V | 02:42:00 | 00:00:00 | 00:00:00 | |
| DB0UT-9 | 2026-09-05 07:05:14 | 49.25360 | 9.40518 | 113° | 130km/h | 7681m | -9.7m/s | -23.8°C | 5.4% | 389.6hPa | 2.5V | 02:42:00 | 00:00:00 | 00:00:00 | |
| DM0DOS-11 | 2026-09-05 07:05:13 | 49.25443 | 9.40192 | 109° | 128km/h | 7752m | -10.1m/s | -24.2°C | 6.1% | 386hPa | 2.5V | 02:42:32 | 02:32:34 | 00:00:00 | |
| DK7TD | 2026-09-05 07:05:10 | 49.25420 | 9.40286 | 111° | 130km/h | 7731m | -10.5m/s | -24.2°C | 5.9% | 386.9hPa | 2.6V | 02:42:57 | 02:32:36 | 00:00:00 | |
| DB0UT-7 | 2026-09-05 07:05:10 | 49.25420 | 9.40286 | 111° | 128km/h | 7731m | -10.4m/s | -24.1°C | 6.2% | 386.9hPa | 2.5V | 00:00:00 | 02:32:36 | 00:00:00 | |
| DF3TZ-5 | 2026-09-05 07:05:09 | 49.25432 | 9.40239 | 110° | 128km/h | 7742m | -10.3m/s | -24.2°C | 5.2% | 386.5hPa | 2.5V | 00:00:00 | 00:00:00 | 00:00:00 | |
| DB0NH | 2026-09-05 07:05:08 | 49.25443 | 9.40192 | 110° | 128km/h | 7752m | -10.1m/s | -24.2°C | 6.1% | 385.9hPa | 2.5V | 00:00:00 | 02:32:34 | 00:00:00 | |
| BIOWL1-15 | 2026-09-05 07:05:08 | 49.25443 | 9.40192 | 110° | 128km/h | 7752m | -10.1m/s | -24.2°C | 5.8% | 386hPa | 2.5V | 02:43:48 | 02:32:34 | 00:00:00 | |
| DO3MHA-11 | 2026-09-05 07:05:07 | 49.25454 | 9.40145 | 111° | 128km/h | 7762m | -9.9m/s | -24.2°C | 5.9% | 385.3hPa | 2.5V | 00:00:00 | 02:32:33 | 00:00:00 | |
| DM0DOS-11 | 2026-09-05 07:05:03 | 49.25552 | 9.39725 | 109° | 128km/h | 7853m | -10.2m/s | -24.7°C | 5.9% | 380.6hPa | 2.5V | 02:42:42 | 02:32:24 | 00:00:00 | |
| DK7TD | 2026-09-05 07:04:59 | 49.25541 | 9.39771 | 110° | 128km/h | 7843m | -10.3m/s | -24.6°C | 5.6% | 381.2hPa | 2.5V | 02:42:57 | 02:32:25 | 00:00:00 | |
| BIOWL1-15 | 2026-09-05 07:04:57 | 49.25563 | 9.39678 | 109° | 130km/h | 7863m | -10m/s | -24.8°C | 5.7% | 380.1hPa | 2.6V | 02:43:48 | 02:32:23 | 00:00:00 | |
| DB0ND-19 | 2026-09-05 07:04:55 | 49.25584 | 9.39584 | 109° | 128km/h | 7883m | -10.2m/s | -25.0°C | 5.1% | 379.1hPa | 2.5V | 00:00:00 | 00:00:00 | 00:00:00 | |
| DF1GD-15 | 2026-09-05 07:04:54 | 49.25584 | 9.39584 | 110° | 128km/h | 7883m | -10.2m/s | -25.0°C | 5.1% | 379.1hPa | 2.5V | 02:42:00 | 00:00:00 | 00:00:00 | |
| DM0DOS-11 | 2026-09-05 07:04:53 | 49.25656 | 9.39255 | 108° | 128km/h | 7954m | -10.7m/s | -25.6°C | 6.3% | 375.5hPa | 2.5V | 02:42:52 | 02:32:14 | 00:00:00 | |
| DK7TD | 2026-09-05 07:04:48 | 49.25656 | 9.39255 | 108° | 130km/h | 7954m | -10.7m/s | -25.6°C | 6.2% | 375.5hPa | 2.5V | 02:42:57 | 02:32:14 | 00:00:00 | |
| BIOWL1-15 | 2026-09-05 07:04:46 | 49.25676 | 9.39162 | 109° | 126km/h | 7976m | -10.9m/s | -25.8°C | 6.2% | 374.2hPa | 2.6V | 02:43:48 | 02:32:12 | 00:00:00 | |
| DG9SBQ-11 | 2026-09-05 07:04:45 | 49.25676 | 9.39162 | 110° | 126km/h | 7976m | -10.9m/s | -25.8°C | 5.3% | 374.2hPa | 2.5V | 00:00:00 | 00:00:00 | 00:00:00 | |
| DM0DOS-11 | 2026-09-05 07:04:43 | 49.25762 | 9.38799 | 110° | 126km/h | 8067m | -12.9m/s | -26.6°C | 6.1% | 369.7hPa | 2.5V | 02:43:02 | 02:32:04 | 00:00:00 | |
| DK7TD | 2026-09-05 07:04:38 | 49.25762 | 9.38799 | 111° | 126km/h | 8067m | -12.9m/s | -26.6°C | 6% | 369.7hPa | 2.5V | 02:44:39 | 02:32:04 | 00:00:00 | |
| DK7TD | 2026-09-05 07:04:27 | 49.25879 | 9.38297 | 110° | 126km/h | 8193m | -11.7m/s | -27.6°C | 6.6% | 363.1hPa | 2.5V | 02:44:39 | 02:31:53 | 00:00:00 | |
| BIOWL1-15 | 2026-09-05 07:04:21 | 49.25945 | 9.38024 | 110° | 126km/h | 8263m | -11.4m/s | -28.2°C | 6.9% | 359.6hPa | 2.5V | 02:43:48 | 02:31:47 | 00:00:00 | |
| DK7TD | 2026-09-05 07:04:17 | 49.25988 | 9.37841 | 110° | 128km/h | 8307m | -11m/s | -28.5°C | 6.7% | 357.4hPa | 2.6V | 02:44:39 | 02:31:43 | 00:00:00 | |
| DO3MHA-11 | 2026-09-05 07:04:17 | 49.25988 | 9.37841 | 111° | 126km/h | 8307m | -11.0m/s | -28.5°C | 6.6% | 357.3hPa | 2.6V | 02:43:00 | 02:31:43 | 00:00:00 | |
| DH7VM-15 | 2026-09-05 07:04:16 | 49.25988 | 9.37841 | 111° | 128km/h | 8307m | -11.0m/s | -28.5°C | 5.4% | 357.4hPa | 2.5V | 00:00:00 | 00:00:00 | 00:00:00 | |
| DM0DOS-11 | 2026-09-05 07:04:15 | 49.26065 | 9.37520 | 110° | 126km/h | 8388m | -11.7m/s | -29.2°C | 7.2% | 353.4hPa | 2.5V | 02:43:30 | 02:31:36 | 00:00:00 | |
| BIOWL1-15 | 2026-09-05 07:04:11 | 49.26054 | 9.37566 | 110° | 128km/h | 8377m | -11.1m/s | -29.1°C | 7.3% | 354hPa | 2.6V | 02:43:48 | 02:31:37 | 00:00:00 | |
| DK7TD | 2026-09-05 07:04:07 | 49.26099 | 9.37382 | 111° | 128km/h | 8423m | -11.7m/s | -29.5°C | 8% | 351.6hPa | 2.6V | 02:44:39 | 02:31:33 | 00:00:00 | |
| DO3MHA-11 | 2026-09-05 07:04:07 | 49.26099 | 9.37382 | 112° | 126km/h | 8423m | -11.6m/s | -29.5°C | 7.5% | 351.6hPa | 2.6V | 00:00:00 | 02:31:33 | 00:00:00 | |
| KANTATE | 2026-09-05 07:04:06 | 49.26099 | 9.37382 | 112° | 128km/h | 8423m | -11.7m/s | -29.5°C | 6.2% | 351.6hPa | 2.6V | 02:43:00 | 00:00:00 | 00:00:00 | |
| DM0DOS-11 | 2026-09-05 07:04:05 | 49.26178 | 9.37060 | 111° | 126km/h | 8506m | -11.8m/s | -30.3°C | 8.1% | 347.6hPa | 2.6V | 02:43:40 | 02:31:26 | 00:00:00 | |
| BIOWL1-15 | 2026-09-05 07:04:02 | 49.26178 | 9.37060 | 111° | 126km/h | 8506m | -11.8m/s | -30.3°C | 8.8% | 347.7hPa | 2.6V | 02:43:48 | 02:31:26 | 00:00:00 | |
| DK7TD | 2026-09-05 07:03:56 | 49.26222 | 9.36878 | 110° | 126km/h | 8552m | -11.7m/s | -30.7°C | 9.2% | 345.5hPa | 2.5V | 02:44:39 | 02:31:22 | 00:00:00 | |
| DM0DOS-11 | 2026-09-05 07:03:55 | 49.26287 | 9.36601 | 109° | 122km/h | 8622m | -12.5m/s | -31.3°C | 8.7% | 342.1hPa | 2.5V | 02:43:50 | 02:31:16 | 00:00:00 | |
| BIOWL1-15 | 2026-09-05 07:03:49 | 49.26297 | 9.36557 | 110° | 120km/h | 8634m | -12.3m/s | -31.4°C | 9.8% | 341.4hPa | 2.6V | 02:45:30 | 02:31:15 | 00:00:00 | |
| SFWM-10 | 2026-09-05 07:03:48 | 49.26297 | 9.36557 | 111° | 120km/h | 8634m | -12.3m/s | -31.4°C | 7.3% | 341.4hPa | 2.6V | 02:44:00 | 00:00:00 | 00:00:00 | |
| DG9SBQ-11 | 2026-09-05 07:03:47 | 49.26319 | 9.36468 | 111° | 124km/h | 8658m | -11.6m/s | -31.6°C | 7.5% | 340.4hPa | 2.6V | 02:44:00 | 00:00:00 | 00:00:00 | |
| DM0DOS-11 | 2026-09-05 07:03:45 | 49.26393 | 9.36146 | 108° | 126km/h | 8737m | -11.1m/s | -32.3°C | 9.7% | 336.4hPa | 2.6V | 02:44:00 | 02:31:06 | 00:00:00 | |
| BIOWL1-15 | 2026-09-05 07:03:40 | 49.26414 | 9.36054 | 110° | 126km/h | 8758m | -11.3m/s | -32.5°C | 11.1% | 335.4hPa | 2.5V | 02:45:30 | 02:31:04 | 00:00:00 | |
| DK7TD | 2026-09-05 07:03:36 | 49.26435 | 9.35963 | 111° | 126km/h | 8783m | -12.3m/s | -32.7°C | 11.3% | 334.3hPa | 2.5V | 02:44:39 | 02:31:02 | 00:00:00 | |
| DJTTGO | 2026-09-05 07:03:35 | 49.26435 | 9.35963 | 112° | 126km/h | 8783m | -12.3m/s | -32.7°C | 8.2% | 334.3hPa | 2.6V | 02:44:00 | 00:00:00 | 00:00:00 | |
| DM0DOS-11 | 2026-09-05 07:03:34 | 49.26511 | 9.35644 | 109° | 126km/h | 8867m | -11.8m/s | -33.5°C | 10.6% | 330.3hPa | 2.6V | 02:44:11 | 02:30:55 | 00:00:00 | |
| BIOWL1-15 | 2026-09-05 07:03:28 | 49.26522 | 9.35599 | 111° | 126km/h | 8879m | -12.8m/s | -33.7°C | 12.1% | 329.8hPa | 2.6V | 02:45:30 | 02:30:54 | 00:00:00 | |
| DK7TD | 2026-09-05 07:03:26 | 49.26543 | 9.35508 | 109° | 124km/h | 8905m | -11.6m/s | -33.9°C | 12.3% | 328.6hPa | 2.5V | 02:44:39 | 02:30:52 | 00:00:00 | |
| KANTATE | 2026-09-05 07:03:25 | 49.26542 | 9.35508 | 110° | 124km/h | 8905m | -11.6m/s | -33.9°C | 9.0% | 328.6hPa | 2.5V | 00:00:00 | 00:00:00 | 00:00:00 | |
| DM0DOS-11 | 2026-09-05 07:03:23 | 49.26625 | 9.35147 | 110° | 124km/h | 8995m | -13m/s | -34.7°C | 11.6% | 324.4hPa | 2.5V | 02:44:22 | 02:30:44 | 00:00:00 | |
| BIOWL1-15 | 2026-09-05 07:03:17 | 49.26636 | 9.35101 | 110° | 124km/h | 9007m | -12.8m/s | -34.9°C | 13.4% | 323.8hPa | 2.5V | 02:45:30 | 02:30:43 | 00:00:00 | |
| DK7TD | 2026-09-05 07:03:15 | 49.26658 | 9.35012 | 110° | 122km/h | 9032m | -12.2m/s | -35.1°C | 13.6% | 322.6hPa | 2.6V | 02:44:39 | 02:30:41 | 00:00:00 | |
| DK7TD | 2026-09-05 07:03:04 | 49.26771 | 9.34529 | 110° | 120km/h | 9163m | -10.9m/s | -36.2°C | 16.1% | 316.7hPa | 2.5V | 02:44:39 | 02:30:30 | 00:00:00 | |
| DM0DOS-11 | 2026-09-05 07:03:03 | 49.26829 | 9.34267 | 107° | 119km/h | 9230m | -11.8m/s | -36.9°C | 18.1% | 313.5hPa | 2.6V | 02:44:42 | 02:30:24 | 00:00:00 | |
| DK7TD | 2026-09-05 07:02:53 | 49.26876 | 9.34051 | 107° | 117km/h | 9289m | -12.1m/s | -37.4°C | 24% | 310.9hPa | 2.6V | 02:45:30 | 02:30:19 | 00:00:00 | |
| DB0ND-19 | 2026-09-05 07:02:51 | 49.26894 | 9.33965 | 108° | 117km/h | 9311m | -10.4m/s | -37.5°C | 18.5% | 309.9hPa | 2.5V | 00:00:00 | 00:00:00 | 00:00:00 | |
| DM0DOS-11 | 2026-09-05 07:02:50 | 49.26947 | 9.33704 | 107° | 117km/h | 9382m | -13.1m/s | -38.2°C | 19.7% | 306.8hPa | 2.5V | 02:44:55 | 02:30:11 | 00:00:00 | |
| BIOWL1-15 | 2026-09-05 07:02:47 | 49.26930 | 9.33792 | 107° | 119km/h | 9356m | -13.3m/s | -38°C | 23.5% | 308hPa | 2.5V | 02:45:30 | 02:30:13 | 00:00:00 | |
| DK7TD | 2026-09-05 07:02:42 | 49.26974 | 9.33575 | 107° | 115km/h | 9417m | -11.6m/s | -38.5°C | 19.7% | 305.2hPa | 2.6V | 02:45:30 | 02:30:08 | 00:00:00 | |
| BIOWL1-15 | 2026-09-05 07:02:38 | 49.27027 | 9.33314 | 106° | 119km/h | 9486m | -10.8m/s | -39.1°C | 17.5% | 302.2hPa | 2.6V | 02:45:30 | 02:30:02 | 00:00:00 | |
| DM0DOS-11 | 2026-09-05 07:02:37 | 49.27059 | 9.33133 | 104° | 120km/h | 9528m | -10.2m/s | -39.5°C | 19.3% | 300.3hPa | 2.5V | 02:45:08 | 02:29:58 | 00:00:00 | |
| DK7TD | 2026-09-05 07:02:32 | 49.27059 | 9.33133 | 105° | 120km/h | 9528m | -10.2m/s | -39.5°C | 21.4% | 300.3hPa | 2.5V | 02:45:30 | 02:29:58 | 00:00:00 | |
| BIOWL1-15 | 2026-09-05 07:02:27 | 49.27113 | 9.32816 | 105° | 124km/h | 9607m | -10.7m/s | -40.1°C | 39.8% | 296.8hPa | 2.5V | 02:45:30 | 02:29:51 | 00:00:00 | |
| DO3MHA-11 | 2026-09-05 07:02:27 | 49.27097 | 9.32907 | 105° | 122km/h | 9585m | -11.0m/s | -39.9°C | 29.8% | 297.7hPa | 2.5V | 00:00:00 | 02:29:53 | 00:00:00 | |
| DM0DOS-11 | 2026-09-05 07:02:26 | 49.27143 | 9.32634 | 104° | 120km/h | 9651m | -11.3m/s | -40.5°C | 53.3% | 294.9hPa | 2.5V | 02:45:19 | 02:29:47 | 00:00:00 | |
| DK7TD | 2026-09-05 07:02:21 | 49.27144 | 9.32634 | 104° | 120km/h | 9651m | -11.4m/s | -40.5°C | 54.5% | 294.9hPa | 2.5V | 02:45:30 | 02:29:47 | 00:00:00 | |
| BIOWL1-15 | 2026-09-05 07:02:19 | 49.27194 | 9.32360 | 107° | 124km/h | 9716m | -10.5m/s | -41°C | 66.8% | 292.1hPa | 2.5V | 02:45:30 | 02:29:41 | 00:00:00 | |
| DK5PH-5 | 2026-09-05 07:02:19 | 49.27160 | 9.32543 | 106° | 120km/h | 9674m | -11.0m/s | -40.6°C | 62.8% | 293.9hPa | 2.6V | 00:00:00 | 02:29:45 | 00:00:00 | |
| DO3MHA-11 | 2026-09-05 07:02:18 | 49.27176 | 9.32452 | 107° | 122km/h | 9695m | -9.7m/s | -40.8°C | 65.8% | 292.9hPa | 2.6V | 02:45:00 | 02:29:43 | 00:00:00 | |
| DG9SBQ-11 | 2026-09-05 07:02:17 | 49.27176 | 9.32452 | 107° | 124km/h | 9695m | -9.8m/s | -40.9°C | 57.9% | 293.0hPa | 2.6V | 02:45:00 | 00:00:00 | 00:00:00 | |
| DM0DOS-11 | 2026-09-05 07:02:16 | 49.27228 | 9.32177 | 106° | 120km/h | 9760m | -10.7m/s | -41.4°C | 70.6% | 290.1hPa | 2.6V | 02:45:29 | 02:29:37 | 00:00:00 | |
| DK7TD | 2026-09-05 07:02:10 | 49.27236 | 9.32133 | 106° | 119km/h | 9770m | -10.5m/s | -41.4°C | 71% | 289.7hPa | 2.6V | 02:45:30 | 02:29:36 | 00:00:00 | |
| BIOWL1-15 | 2026-09-05 07:02:04 | 49.27292 | 9.31870 | 109° | 122km/h | 9836m | -10.3m/s | -41.6°C | 71.8% | 286.9hPa | 2.5V | 02:46:21 | 02:29:30 | 00:00:00 | |
| DK7TD | 2026-09-05 07:01:57 | 49.27361 | 9.31559 | 110° | 120km/h | 9907m | -11.5m/s | -42.2°C | 71.9% | 283.9hPa | 2.5V | 02:46:21 | 02:29:23 | 00:00:00 | |
| DO3MHA-11 | 2026-09-05 07:01:57 | 49.27361 | 9.31559 | 110° | 120km/h | 9907m | -11.4m/s | -42.2°C | 72.4% | 283.8hPa | 2.5V | 00:00:00 | 02:29:23 | 00:00:00 | |
| DM0DOS-11 | 2026-09-05 07:01:56 | 49.27424 | 9.31297 | 111° | 120km/h | 9977m | -12.4m/s | -42.8°C | 70.3% | 281.1hPa | 2.5V | 02:45:49 | 02:29:17 | 00:00:00 | |
| BIOWL1-15 | 2026-09-05 07:01:55 | 49.27403 | 9.31385 | 111° | 120km/h | 9952m | -12.2m/s | -42.7°C | 70.7% | 282.1hPa | 2.6V | 02:46:21 | 02:29:19 | 00:00:00 | |
| DF7PN | 2026-09-05 07:01:54 | 49.27403 | 9.31385 | 110° | 120km/h | 9952m | -12.2m/s | -42.7°C | 62.3% | 282.1hPa | 2.5V | 00:00:00 | 00:00:00 | 00:00:00 | |
| DB0ND-19 | 2026-09-05 07:01:49 | 49.27457 | 9.31167 | 111° | 119km/h | 10011m | -11.5m/s | -43.1°C | 60.4% | 279.6hPa | 2.5V | 00:00:00 | 00:00:00 | 00:00:00 | |
| DF1GD-15 | 2026-09-05 07:01:48 | 49.27445 | 9.31210 | 112° | 120km/h | 10000m | -10.7m/s | -43.0°C | 61.0% | 280.0hPa | 2.5V | 02:46:00 | 00:00:00 | 00:00:00 | |
| DO3MHA-11 | 2026-09-05 07:01:47 | 49.27468 | 9.31123 | 112° | 126km/h | 10022m | -11.1m/s | -43.2°C | 69.3% | 279.1hPa | 2.5V | 02:45:00 | 02:29:13 | 00:00:00 | |
| DM0DOS-11 | 2026-09-05 07:01:46 | 49.27541 | 9.30857 | 114° | 128km/h | 10091m | -11.8m/s | -43.6°C | 68.3% | 276.3hPa | 2.5V | 02:45:59 | 02:29:07 | 00:00:00 | |
| DK7TD | 2026-09-05 07:01:46 | 49.27479 | 9.31079 | 112° | 122km/h | 10033m | -11.7m/s | -43.3°C | 68.1% | 0hPa | 2.5V | 02:46:21 | 02:29:12 | 00:00:00 | |
| HARRO8 | 2026-09-05 07:01:46 | 49.27491 | 9.31035 | 112° | 122km/h | 10045m | -11.6m/s | -43.4°C | 60.0% | 278.2hPa | 2.5V | 00:00:00 | 00:00:00 | 00:00:00 | |
| BIOWL1-15 | 2026-09-05 07:01:42 | 49.27527 | 9.30902 | 114° | 126km/h | 10079m | -11.6m/s | -43.6°C | 67.2% | 276.8hPa | 2.5V | 02:46:21 | 02:29:08 | 00:00:00 | |
| BIOWL1-15 | 2026-09-05 07:01:32 | 49.27675 | 9.30431 | 117° | 142km/h | 10197m | -11.8m/s | -43.9°C | 65.4% | 272hPa | 2.5V | 02:46:21 | 02:28:58 | 00:00:00 | |
| DK7TD | 2026-09-05 07:01:27 | 49.27759 | 9.30183 | 117° | 144km/h | 10256m | -11.7m/s | -44°C | 63.8% | 0hPa | 2.6V | 02:46:21 | 02:28:53 | 00:00:00 | |
| DO3MHA-11 | 2026-09-05 07:01:27 | 49.27759 | 9.30183 | 117° | 148km/h | 10256m | -11.6m/s | -43.9°C | 61.5% | 269.6hPa | 2.6V | 00:00:00 | 02:28:53 | 00:00:00 | |
| DM0DOS-11 | 2026-09-05 07:01:26 | 49.27864 | 9.29882 | 118° | 150km/h | 10324m | -11.6m/s | -44.4°C | 60% | 266.9hPa | 2.6V | 02:46:19 | 02:28:47 | 00:00:00 | |
| BIOWL1-15 | 2026-09-05 07:01:24 | 49.27846 | 9.29933 | 118° | 146km/h | 10313m | -11.6m/s | -44.4°C | 62.8% | 267.4hPa | 2.6V | 02:46:21 | 02:28:48 | 00:00:00 | |
| DF7PN | 2026-09-05 07:01:23 | 49.27846 | 9.29933 | 117° | 146km/h | 10313m | -11.6m/s | -44.4°C | 51.9% | 267.4hPa | 2.6V | 00:00:00 | 00:00:00 | 00:00:00 | |
| DG9SBQ-11 | 2026-09-05 07:01:21 | 49.27846 | 9.29933 | 119° | 146km/h | 10313m | -11.6m/s | -44.3°C | 51.9% | 267.4hPa | 2.6V | 02:46:00 | 00:00:00 | 00:00:00 | |
| DB0UT-9 | 2026-09-05 07:01:20 | 49.27864 | 9.29882 | 119° | 150km/h | 10324m | -11.6m/s | -44.4°C | 51.9% | 266.9hPa | 2.6V | 02:46:00 | 00:00:00 | 00:00:00 | |
| DK5PH-5 | 2026-09-05 07:01:19 | 49.27899 | 9.29781 | 120° | 151km/h | 10347m | -11.5m/s | -44.6°C | 59.9% | 265.9hPa | 2.6V | 00:00:00 | 02:28:45 | 00:00:00 | |
| DB0ND-19 | 2026-09-05 07:01:18 | 49.27936 | 9.29679 | 119° | 150km/h | 10370m | -11.4m/s | -44.9°C | 51.2% | 265.1hPa | 2.6V | 00:00:00 | 00:00:00 | 00:00:00 | |
| DO3MHA-11 | 2026-09-05 07:01:17 | 49.27936 | 9.29679 | 120° | 153km/h | 10370m | -11.4m/s | -44.8°C | 59.4% | 265.0hPa | 2.6V | 02:46:00 | 02:28:43 | 00:00:00 | |
| DM0DOS-11 | 2026-09-05 07:01:16 | 49.28050 | 9.29370 | 119° | 155km/h | 10437m | -10.9m/s | -45.4°C | 57.9% | 262.4hPa | 2.6V | 02:46:29 | 02:28:37 | 00:00:00 | |
| DK7TD | 2026-09-05 07:01:16 | 49.27955 | 9.29629 | 119° | 150km/h | 10381m | -11.4m/s | 0°C | 0% | 0hPa | 2.6V | 18:12:15 | 02:28:42 | 00:00:00 | |
| BIOWL1-15 | 2026-09-05 07:01:11 | 49.28050 | 9.29370 | 119° | 155km/h | 10437m | -10.9m/s | -45.4°C | 60.5% | 262.4hPa | 2.6V | 02:47:12 | 02:28:37 | 00:00:00 | |
| DK7TD | 2026-09-05 07:01:05 | 49.28164 | 9.29058 | 119° | 153km/h | 10505m | -11.8m/s | 0°C | 0% | 0hPa | 2.5V | 18:12:15 | 02:28:31 | 00:00:00 | |
| BIOWL1-15 | 2026-09-05 07:01:03 | 49.28237 | 9.28852 | 119° | 151km/h | 10552m | -12m/s | -46.3°C | 63.5% | 257.8hPa | 2.6V | 02:47:12 | 02:28:27 | 00:00:00 | |
| DM0DOS-11 | 2026-09-05 07:01:02 | 49.28308 | 9.28646 | 117° | 151km/h | 10599m | -11.9m/s | -46.8°C | 60.8% | 256hPa | 2.6V | 02:46:43 | 02:28:23 | 00:00:00 | |
| DK7TD | 2026-09-05 07:00:55 | 49.28343 | 9.28542 | 117° | 150km/h | 10623m | -11.8m/s | 0°C | 0% | 0hPa | 2.5V | 18:12:15 | 02:28:21 | 00:00:00 | |
| BIOWL9-15 | 2026-09-05 07:00:54 | 49.28361 | 9.28491 | 116° | 150km/h | 10634m | -11.9m/s | 0°C | -1.0% | -1.0hPa | 2.6V | 00:00:00 | 00:00:00 | 00:00:00 | |
| DM0DOS-11 | 2026-09-05 07:00:52 | 49.28485 | 9.28130 | 117° | 150km/h | 10718m | -11.9m/s | -47.8°C | 63.8% | 251.5hPa | 2.6V | 02:46:53 | 02:28:13 | 00:00:00 | |
| BIOWL1-15 | 2026-09-05 07:00:50 | 49.28431 | 9.28284 | 118° | 150km/h | 10682m | -12.2m/s | -47.5°C | 65.5% | 252.8hPa | 2.5V | 02:47:12 | 02:28:16 | 00:00:00 | |
| DB0ND-19 | 2026-09-05 07:00:47 | 49.28503 | 9.28078 | 118° | 151km/h | 10730m | -11.9m/s | -47.9°C | 54.8% | 251.1hPa | 2.5V | 00:00:00 | 00:00:00 | 00:00:00 | |
| DK7TD | 2026-09-05 07:00:44 | 49.28540 | 9.27975 | 119° | 153km/h | 10753m | -11.7m/s | 0°C | 0% | 0hPa | 2.5V | 18:12:15 | 02:28:10 | 00:00:00 | |
| DG9SBQ-11 | 2026-09-05 07:00:43 | 49.28540 | 9.27975 | 120° | 153km/h | 10753m | -11.7m/s | -48.2°C | 55.7% | 250.2hPa | 2.6V | 02:47:00 | 00:00:00 | 00:00:00 | |
| DM0DOS-11 | 2026-09-05 07:00:41 | 49.28695 | 9.27554 | 119° | 157km/h | 10847m | -12m/s | -48.9°C | 65.8% | 246.6hPa | 2.6V | 02:47:04 | 02:28:02 | 00:00:00 | |
| BIOWL1-15 | 2026-09-05 07:00:39 | 49.28636 | 9.27712 | 119° | 155km/h | 10811m | -11.8m/s | -48.7°C | 68.8% | 248hPa | 2.5V | 02:47:12 | 02:28:05 | 00:00:00 | |
| BIOWL1-15 | 2026-09-05 07:00:32 | 49.28846 | 9.27129 | 119° | 155km/h | 10942m | -12m/s | -49.8°C | 70.7% | 243.1hPa | 2.5V | 02:47:12 | 02:27:54 | 00:00:00 | |
| DM0DOS-11 | 2026-09-05 07:00:31 | 49.28884 | 9.27024 | 119° | 155km/h | 10965m | -11.5m/s | -50°C | 68.2% | 242.2hPa | 2.6V | 02:47:14 | 02:27:52 | 00:00:00 | |
| DK7TD | 2026-09-05 07:00:18 | 49.29039 | 9.26601 | 119° | 157km/h | 11060m | -11.5m/s | 0°C | 0% | 0hPa | 2.5V | 18:12:15 | 02:27:44 | 00:00:00 | |
| BIOWL1-15 | 2026-09-05 07:00:17 | 49.29059 | 9.26548 | 119° | 157km/h | 11071m | -11.8m/s | -51°C | 71.4% | 238.3hPa | 2.5V | 02:48:03 | 02:27:43 | 00:00:00 | |
| BIOWL1-15 | 2026-09-05 07:00:09 | 49.29251 | 9.26011 | 118° | 159km/h | 11187m | -11.6m/s | -52°C | 70.3% | 234.1hPa | 2.5V | 02:48:03 | 02:27:33 | 00:00:00 | |
| DK7TD | 2026-09-05 07:00:00 | 49.29385 | 9.25634 | 119° | 161km/h | 11268m | -11.5m/s | 0°C | 0% | 0hPa | 2.6V | 18:12:15 | 02:27:26 | 00:00:00 | |
| BIOWL1-15 | 2026-09-05 06:59:58 | 49.29464 | 9.25417 | 120° | 161km/h | 11315m | -11.8m/s | -53.2°C | 67.4% | 229.5hPa | 2.5V | 02:48:03 | 02:27:22 | 00:00:00 | |
| BIOWL9-15 | 2026-09-05 06:59:52 | 49.29664 | 9.24884 | 119° | 157km/h | 11431m | -11.8m/s | 0°C | -1.0% | 225.4hPa | 2.5V | 00:00:00 | 00:00:00 | 00:00:00 | |
| DM0DOS-11 | 2026-09-05 06:59:51 | 49.29664 | 9.24884 | 119° | 157km/h | 11431m | -11.8m/s | -54.2°C | 60.8% | 225.4hPa | 2.5V | 02:47:54 | 02:27:12 | 00:00:00 | |
| BIOWL1-15 | 2026-09-05 06:59:47 | 49.29684 | 9.24831 | 120° | 157km/h | 11443m | -12.1m/s | -54.2°C | 62.4% | 224.9hPa | 2.5V | 02:48:03 | 02:27:11 | 00:00:00 | |
| DO3MHA-11 | 2026-09-05 06:59:47 | 49.29645 | 9.24937 | 120° | 159km/h | 11420m | -11.7m/s | -54.1°C | 61.6% | 225.7hPa | 2.6V | 02:47:00 | 02:27:13 | 00:00:00 | |
| NBG1-10 | 2026-09-05 06:59:46 | 49.29664 | 9.24884 | 120° | 155km/h | 11432m | -11.8m/s | -54.1°C | 60.8% | 225.3hPa | 2.5V | 02:47:00 | 02:27:12 | 00:00:00 | |
| DL0LBS | 2026-09-05 06:59:45 | 49.29664 | 9.24884 | 121° | 157km/h | 11432m | -11.8m/s | -54.2°C | 50.3% | 225.4hPa | 2.6V | 02:48:00 | 00:00:00 | 00:00:00 | |
| DF1GD-15 | 2026-09-05 06:59:44 | 49.29684 | 9.24831 | 120° | 157km/h | 11443m | -12.1m/s | -54.2°C | 49.2% | 224.9hPa | 2.6V | 02:48:00 | 00:00:00 | 00:00:00 | |
| KANTATE | 2026-09-05 06:59:43 | 49.29703 | 9.24778 | 121° | 159km/h | 11456m | -11.9m/s | -54.3°C | 48.4% | 224.6hPa | 2.6V | 00:00:00 | 00:00:00 | 00:00:00 | |
| DM0DOS-11 | 2026-09-05 06:59:41 | 49.29860 | 9.24351 | 118° | 155km/h | 11553m | -12.6m/s | -55.2°C | 56.1% | 221.2hPa | 2.6V | 02:48:04 | 02:27:02 | 00:00:00 | |
| BIOWL1-15 | 2026-09-05 06:59:35 | 49.29879 | 9.24298 | 119° | 157km/h | 11565m | -12.4m/s | -55.3°C | 58.4% | 220.7hPa | 2.6V | 02:48:54 | 02:27:01 | 00:00:00 | |
| DM0DOS-11 | 2026-09-05 06:59:31 | 49.30053 | 9.23823 | 119° | 157km/h | 11681m | -13.3m/s | -56.4°C | 51.6% | 216.8hPa | 2.5V | 02:48:14 | 02:26:52 | 00:00:00 | |
| BIOWL1-15 | 2026-09-05 06:59:22 | 49.30170 | 9.23511 | 120° | 153km/h | 11761m | -13.1m/s | -57°C | 50.6% | 214.1hPa | 2.5V | 02:48:54 | 02:26:46 | 00:00:00 | |
| BIOWL1-15 | 2026-09-05 06:59:12 | 49.30364 | 9.23002 | 121° | 151km/h | 11890m | -12.4m/s | -58.3°C | 46.7% | 209.7hPa | 2.6V | 02:48:54 | 02:26:36 | 00:00:00 | |
| BIOWL1-15 | 2026-09-05 06:58:59 | 49.30544 | 9.22460 | 117° | 135km/h | 12029m | -12.6m/s | -59.1°C | 40.2% | 205.2hPa | 2.6V | 02:48:54 | 02:26:25 | 00:00:00 | |
| BIOWL1-15 | 2026-09-05 06:58:49 | 49.30677 | 9.21994 | 109° | 130km/h | 12168m | -13.5m/s | -60°C | 34.3% | 200.6hPa | 2.5V | 02:48:54 | 02:26:15 | 00:00:00 | |
| DF7PN | 2026-09-05 06:58:47 | 49.30698 | 9.21900 | 107° | 128km/h | 12195m | -13.7m/s | -60.1°C | 27.0% | 199.8hPa | 2.5V | 00:00:00 | 00:00:00 | 00:00:00 | |
| DL0LBS | 2026-09-05 06:58:43 | 49.30725 | 9.21756 | 106° | 131km/h | 12236m | -13.4m/s | -60.3°C | 25.1% | 198.4hPa | 2.5V | 02:49:00 | 00:00:00 | 00:00:00 | |
| DB0ND-19 | 2026-09-05 06:58:42 | 49.30742 | 9.21656 | 103° | 133km/h | 12263m | -13.6m/s | -60.5°C | 23.9% | 197.6hPa | 2.5V | 00:00:00 | 00:00:00 | 00:00:00 | |
| DF2AP-13 | 2026-09-05 06:58:41 | 49.30750 | 9.21605 | 104° | 157km/h | 12276m | -13.2m/s | -60.5°C | 31.6% | 197.1hPa | 2.5V | 00:00:00 | 02:26:07 | 00:00:00 | |
| DG1MJG | 2026-09-05 06:58:40 | 49.30750 | 9.21605 | 104° | 137km/h | 12276m | -13.3m/s | -60.6°C | 23.1% | 197.1hPa | 2.5V | 02:49:00 | 00:00:00 | 00:00:00 | |
| NBG1-10 | 2026-09-05 06:58:39 | 49.30766 | 9.21500 | 104° | 162km/h | 12303m | -13.3m/s | -60.5°C | 29.8% | 196.3hPa | 2.5V | 00:00:00 | 02:26:05 | 00:00:00 | |
| DM0DOS-11 | 2026-09-05 06:58:38 | 49.30818 | 9.21171 | 104° | 150km/h | 12383m | -13.2m/s | -60°C | 24.9% | 193.8hPa | 2.5V | 02:49:07 | 02:25:59 | 00:00:00 | |
| BIOWL1-15 | 2026-09-05 06:58:38 | 49.30774 | 9.21446 | 103° | 144km/h | 12316m | -13.3m/s | -60.4°C | 25.1% | 195.9hPa | 2.6V | 02:49:45 | 02:26:04 | 00:00:00 | |
| DJTTGO | 2026-09-05 06:58:38 | 49.30774 | 9.21446 | 104° | 144km/h | 12316m | -13.3m/s | -60.4°C | 20.6% | 195.9hPa | 2.6V | 02:49:00 | 00:00:00 | 00:00:00 | |
| AZAK | 2026-09-05 06:58:36 | 49.30791 | 9.21337 | 104° | 146km/h | 12343m | -13.3m/s | -60.1°C | 0% | 0hPa | 2.6V | 00:00:00 | 00:00:00 | 00:00:00 | |
| DB0UT-9 | 2026-09-05 06:58:35 | 49.30791 | 9.21337 | 104° | 146km/h | 12343m | -13.3m/s | -60.1°C | 19.1% | 195.0hPa | 2.6V | 02:49:00 | 00:00:00 | 00:00:00 | |
| DL1NUX | 2026-09-05 06:58:34 | 49.30860 | 9.20945 | 106° | 153km/h | 12437m | -13.4m/s | -59.5°C | 22.3% | 192.2hPa | 2.6V | 02:49:11 | 02:25:55 | 00:00:00 | |
| BIOWL1-15 | 2026-09-05 06:58:29 | 49.30884 | 9.20830 | 108° | 157km/h | 12464m | -13.3m/s | -59.2°C | 19.8% | 191.3hPa | 2.5V | 02:49:45 | 02:25:53 | 00:00:00 | |
| DB0NH | 2026-09-05 06:58:29 | 49.30860 | 9.20945 | 107° | 168km/h | 12437m | -13.4m/s | -59.4°C | 22.3% | 192.1hPa | 2.6V | 02:49:00 | 02:25:55 | 00:00:00 | |
| DM0DOS-11 | 2026-09-05 06:58:28 | 49.30934 | 9.20596 | 108° | 162km/h | 12517m | -13.5m/s | -59.1°C | 20.8% | 189.7hPa | 2.6V | 02:49:17 | 02:25:49 | 00:00:00 | |
| DB0UT-7 | 2026-09-05 06:58:27 | 49.30884 | 9.20830 | 108° | 170km/h | 12464m | -13.3m/s | -59.1°C | 21.2% | 191.3hPa | 2.5V | 02:49:00 | 00:00:00 | 00:00:00 | |
| DF3TZ-5 | 2026-09-05 06:58:26 | 49.30908 | 9.20714 | 107° | 159km/h | 12490m | -13.3m/s | -59.3°C | 14.8% | 190.5hPa | 2.6V | 00:00:00 | 00:00:00 | 00:00:00 | |
| DO8TBO-1 | 2026-09-05 06:58:25 | 49.30908 | 9.20714 | 108° | 172km/h | 12490m | -13.3m/s | -59.2°C | 21.3% | 190.5hPa | 2.6V | 00:00:00 | 02:25:51 | 00:00:00 | |
| DL1NUX | 2026-09-05 06:58:22 | 49.31014 | 9.20232 | 109° | 166km/h | 12598m | -13.2m/s | -59.2°C | 19.5% | 187.3hPa | 2.6V | 02:49:23 | 02:25:43 | 00:00:00 | |
| DF1GD-15 | 2026-09-05 06:58:21 | 49.30947 | 9.20536 | 109° | 164km/h | 12531m | -13.6m/s | -59.0°C | 14.1% | 189.3hPa | 2.5V | 02:49:00 | 00:00:00 | 00:00:00 | |
| DK5PH-5 | 2026-09-05 06:58:19 | 49.30987 | 9.20354 | 109° | 175km/h | 12571m | -13.2m/s | -59.0°C | 19.8% | 188.0hPa | 2.5V | 00:00:00 | 02:25:45 | 00:00:00 | |
| DM0DOS-11 | 2026-09-05 06:58:18 | 49.31072 | 9.19988 | 110° | 170km/h | 12652m | -13.3m/s | -59.5°C | 19.6% | 185.7hPa | 2.5V | 02:49:27 | 02:25:39 | 00:00:00 | |
| BIOWL1-15 | 2026-09-05 06:58:13 | 49.31072 | 9.19988 | 111° | 170km/h | 12652m | -13.3m/s | -59.5°C | 18% | 185.7hPa | 2.5V | 02:49:45 | 02:25:39 | 00:00:00 | |
| DL1NUX | 2026-09-05 06:58:12 | 49.31164 | 9.19616 | 111° | 172km/h | 12734m | -13.5m/s | -59.2°C | 17.5% | 183.3hPa | 2.5V | 02:49:33 | 02:25:33 | 00:00:00 | |
| DF2AP-13 | 2026-09-05 06:58:11 | 49.31102 | 9.19864 | 111° | 179km/h | 12679m | -13.5m/s | -59.4°C | 19.3% | 184.8hPa | 2.6V | 00:00:00 | 02:25:37 | 00:00:00 | |
| DG9SBQ-11 | 2026-09-05 06:58:10 | 49.31102 | 9.19864 | 112° | 172km/h | 12679m | -13.6m/s | -59.5°C | 13.1% | 184.9hPa | 2.6V | 02:49:00 | 00:00:00 | 00:00:00 | |
| DG1MJG | 2026-09-05 06:58:09 | 49.31117 | 9.19803 | 112° | 172km/h | 12693m | -13.3m/s | -59.3°C | 12.7% | 184.5hPa | 2.6V | 02:49:00 | 00:00:00 | 00:00:00 | |
| DM0DOS-11 | 2026-09-05 06:58:08 | 49.31228 | 9.19365 | 112° | 177km/h | 12788m | -13.8m/s | -59.5°C | 16.4% | 181.7hPa | 2.6V | 02:49:37 | 02:25:29 | 00:00:00 | |
| BIOWL1-15 | 2026-09-05 06:58:04 | 49.31228 | 9.19365 | 112° | 177km/h | 12788m | -13.8m/s | -59.5°C | 14.7% | 181.7hPa | 2.6V | 02:49:45 | 02:25:29 | 00:00:00 | |
| NBG1-10 | 2026-09-05 06:58:04 | 49.31212 | 9.19428 | 112° | 173km/h | 12775m | -13.5m/s | -59.3°C | 16.6% | 182.1hPa | 2.5V | 02:49:00 | 02:25:30 | 00:00:00 | |
| DL6DJ-15 | 2026-09-05 06:58:02 | 49.31525 | 9.18340 | 117° | 183km/h | 13012m | -14.3m/s | -60.5°C | 6.5% | 175.3hPa | 2.5V | 00:00:00 | 00:00:00 | 00:00:00 | |
| DL0LBS | 2026-09-05 06:58:01 | 49.31245 | 9.19301 | 113° | 177km/h | 12802m | -13.9m/s | -59.6°C | 10.6% | 181.3hPa | 2.5V | 02:49:00 | 00:00:00 | 00:00:00 | |
| DM0DOS-11 | 2026-09-05 06:57:58 | 49.31403 | 9.18725 | 114° | 183km/h | 12927m | -13.9m/s | -60.3°C | 14% | 177.7hPa | 2.5V | 02:49:47 | 02:25:19 | 00:00:00 | |
| DF3TZ-5 | 2026-09-05 06:57:55 | 49.31384 | 9.18789 | 113° | 181km/h | 12913m | -14.1m/s | -60.2°C | 8.6% | 178.1hPa | 2.6V | 00:00:00 | 00:00:00 | 00:00:00 | |
| DL1NUX | 2026-09-05 06:57:54 | 49.31482 | 9.18467 | 116° | 184km/h | 12984m | -14.2m/s | -60.5°C | 12.6% | 176.1hPa | 2.6V | 02:49:51 | 02:25:15 | 00:00:00 | |
| BIOWL1-15 | 2026-09-05 06:57:53 | 49.31403 | 9.18725 | 114° | 183km/h | 12927m | -13.9m/s | -60.3°C | 10.4% | 177.7hPa | 2.5V | 02:50:36 | 02:25:19 | 00:00:00 | |
| DO9LL-15 | 2026-09-05 06:57:53 | 49.31403 | 9.18725 | 115° | 183km/h | 12928m | -13.9m/s | 0°C | 0% | 0hPa | 2.5V | 00:00:00 | 02:25:19 | 00:00:00 | |
| DB0UT-9 | 2026-09-05 06:57:50 | 49.31441 | 9.18596 | 116° | 184km/h | 12956m | -13.9m/s | -60.5°C | 7.9% | 176.9hPa | 2.5V | 02:50:00 | 00:00:00 | 00:00:00 | |
| DK5PH-5 | 2026-09-05 06:57:49 | 49.31482 | 9.18467 | 117° | 157km/h | 12984m | -14.2m/s | -60.4°C | 12.6% | 176.1hPa | 2.5V | 00:00:00 | 02:25:15 | 00:00:00 | |
| DM0DOS-11 | 2026-09-05 06:57:48 | 49.31610 | 9.18094 | 118° | 177km/h | 13068m | -13.7m/s | -60.1°C | 9.9% | 173.7hPa | 2.5V | 02:49:57 | 02:25:09 | 00:00:00 | |
| DF7PN | 2026-09-05 06:57:45 | 49.31567 | 9.18216 | 118° | 179km/h | 13041m | -13.8m/s | -60.6°C | 6.0% | 174.5hPa | 2.6V | 00:00:00 | 00:00:00 | 00:00:00 | |
| DL1NUX | 2026-09-05 06:57:44 | 49.31694 | 9.17859 | 118° | 168km/h | 13124m | -14.2m/s | -59°C | 7.8% | 172.2hPa | 2.6V | 02:50:01 | 02:25:05 | 00:00:00 | |
| BIOWL1-15 | 2026-09-05 06:57:42 | 49.31632 | 9.18034 | 118° | 175km/h | 13082m | -14.2m/s | -59.6°C | 5.1% | 173.3hPa | 2.5V | 02:50:36 | 02:25:08 | 00:00:00 | |
| DF2AP-13 | 2026-09-05 06:57:41 | 49.31653 | 9.17975 | 119° | 142km/h | 13096m | -14.3m/s | -59.5°C | 8.8% | 172.9hPa | 2.5V | 02:49:00 | 02:25:07 | 00:00:00 | |
| DF1GD-15 | 2026-09-05 06:57:40 | 49.31652 | 9.17975 | 120° | 173km/h | 13096m | -14.3m/s | -59.5°C | 4.4% | 173.0hPa | 2.6V | 02:50:00 | 00:00:00 | 00:00:00 | |
| DG1MJG | 2026-09-05 06:57:39 | 49.31673 | 9.17917 | 120° | 170km/h | 13110m | -14.0m/s | -59.4°C | 4.1% | 172.6hPa | 2.6V | 02:50:00 | 00:00:00 | 00:00:00 | |
| DM0DOS-11 | 2026-09-05 06:57:38 | 49.31812 | 9.17531 | 118° | 153km/h | 13209m | -14.1m/s | -58.5°C | 6.7% | 169.8hPa | 2.6V | 02:50:07 | 02:24:59 | 00:00:00 | |
| HARRO8 | 2026-09-05 06:57:37 | 49.31734 | 9.17746 | 118° | 162km/h | 13153m | -14.1m/s | -58.7°C | 3.4% | 171.4hPa | 2.5V | 00:00:00 | 00:00:00 | 00:00:00 | |
| SFWM-10 | 2026-09-05 06:57:36 | 49.31734 | 9.17746 | 119° | 164km/h | 13153m | -14.1m/s | -58.7°C | 3.4% | 171.4hPa | 2.5V | 02:50:00 | 00:00:00 | 00:00:00 | |
| DL1NUX | 2026-09-05 06:57:34 | 49.31883 | 9.17330 | 118° | 142km/h | 13266m | -14.1m/s | -58.2°C | 6.3% | 168.3hPa | 2.5V | 02:50:11 | 02:24:55 | 00:00:00 | |
| BIOWL1-15 | 2026-09-05 06:57:31 | 49.31848 | 9.17428 | 119° | 148km/h | 13238m | -14.2m/s | -58.4°C | 2.4% | 169.1hPa | 2.6V | 02:50:36 | 02:24:57 | 00:00:00 | |
| NBG1-10 | 2026-09-05 06:57:31 | 49.31848 | 9.17428 | 119° | 126km/h | 13238m | -14.1m/s | -58.3°C | 6.4% | 169.0hPa | 2.5V | 00:00:00 | 02:24:57 | 00:00:00 | |
| DB0UT-9 | 2026-09-05 06:57:30 | 49.31866 | 9.17379 | 119° | 146km/h | 13252m | -14.1m/s | -58.3°C | 2.7% | 168.7hPa | 2.5V | 02:50:00 | 00:00:00 | 00:00:00 | |
| DM0DOS-11 | 2026-09-05 06:57:28 | 49.31979 | 9.17045 | 115° | 133km/h | 13352m | -14m/s | -57.4°C | 5.7% | 166.1hPa | 2.5V | 02:50:17 | 02:24:49 | 00:00:00 | |
| DB0UT-7 | 2026-09-05 06:57:27 | 49.31917 | 9.17233 | 118° | 126km/h | 13295m | -14.4m/s | -57.8°C | 6.0% | 167.5hPa | 2.6V | 00:00:00 | 00:00:00 | 00:00:00 | |
| CB1BUN | 2026-09-05 06:57:26 | 49.31933 | 9.17186 | 118° | 137km/h | 13309m | -14.4m/s | -57.6°C | 2.4% | 167.2hPa | 2.6V | 02:50:00 | 00:00:00 | 00:00:00 | |
| HEMX73-11 | 2026-09-05 06:57:25 | 49.31933 | 9.17186 | 118° | 137km/h | 13309m | -14.4m/s | -57.6°C | 2.4% | 167.2hPa | 2.6V | 02:50:00 | 00:00:00 | 00:00:00 | |
| DL1NUX | 2026-09-05 06:57:24 | 49.32034 | 9.16862 | 114° | 130km/h | 13408m | -14.3m/s | -57.6°C | 5.6% | 164.6hPa | 2.6V | 02:50:21 | 02:24:45 | 00:00:00 | |
| HSKMA3-T | 2026-09-05 06:57:21 | 49.32007 | 9.16953 | 115° | 131km/h | 13380m | -13.9m/s | -57.5°C | 1.8% | 165.3hPa | 2.5V | 02:50:36 | 02:24:47 | 00:00:00 | |
| DG9SBQ-11 | 2026-09-05 06:57:20 | 49.32007 | 9.16953 | 116° | 131km/h | 13380m | -13.9m/s | -57.5°C | 2.3% | 165.3hPa | 2.6V | 02:50:00 | 00:00:00 | 00:00:00 | |
| DK5PH-5 | 2026-09-05 06:57:19 | 49.32034 | 9.16862 | 115° | 120km/h | 13408m | -14.3m/s | -57.5°C | 5.6% | 164.5hPa | 2.6V | 02:50:00 | 02:24:45 | 00:00:00 | |
| DM0DOS-11 | 2026-09-05 06:57:18 | 49.32113 | 9.16590 | 112° | 126km/h | 13494m | -14.2m/s | -57.5°C | 5.5% | 162.4hPa | 2.5V | 02:50:27 | 02:24:39 | 00:00:00 | |
| SFWM-10 | 2026-09-05 06:57:17 | 49.32061 | 9.16771 | 116° | 128km/h | 13437m | -14.4m/s | -57.7°C | 2.3% | 163.8hPa | 2.5V | 02:50:00 | 00:00:00 | 00:00:00 | |
| SO1NDE-10 | 2026-09-05 06:57:16 | 49.32075 | 9.16725 | 115° | 93km/h | 13451m | -14.4m/s | -57.6°C | 5.6% | 163.4hPa | 2.5V | 00:00:00 | 02:24:42 | 00:00:00 | |
| DL1NUX | 2026-09-05 06:57:14 | 49.32159 | 9.16413 | 110° | 120km/h | 13551m | -13.8m/s | -57.4°C | 5.3% | 160.9hPa | 2.5V | 02:50:31 | 02:24:35 | 00:00:00 | |
| BIOWL1-15 | 2026-09-05 06:57:11 | 49.32159 | 9.16413 | 110° | 120km/h | 13551m | -13.9m/s | -57.4°C | 1.5% | 160.9hPa | 2.5V | 02:50:36 | 02:24:35 | 00:00:00 | |
| DG1MJG | 2026-09-05 06:57:10 | 49.32148 | 9.16457 | 112° | 122km/h | 13537m | -13.9m/s | -57.4°C | 2.1% | 161.3hPa | 2.5V | 02:50:00 | 00:00:00 | 00:00:00 | |
| DB0UT-9 | 2026-09-05 06:57:09 | 49.32148 | 9.16457 | 112° | 122km/h | 13537m | -13.9m/s | -57.4°C | 2.2% | 161.3hPa | 2.5V | 02:50:00 | 00:00:00 | 00:00:00 | |
| DM0DOS-11 | 2026-09-05 06:57:08 | 49.32217 | 9.16152 | 107° | 119km/h | 13635m | -14.7m/s | -57.6°C | 5.3% | 158.7hPa | 2.5V | 02:50:37 | 02:24:29 | 00:00:00 | |
| HARRO8 | 2026-09-05 06:57:06 | 49.32189 | 9.16283 | 109° | 117km/h | 13593m | -13.8m/s | -57.5°C | 2.1% | 159.8hPa | 2.5V | 00:00:00 | 00:00:00 | 00:00:00 | |
| CB1BUN | 2026-09-05 06:57:05 | 49.32189 | 9.16283 | 110° | 119km/h | 13593m | -13.8m/s | -57.5°C | 2.1% | 159.9hPa | 2.5V | 02:50:00 | 00:00:00 | 00:00:00 | |
| HEMX73-11 | 2026-09-05 06:57:04 | 49.32199 | 9.16240 | 109° | 119km/h | 13607m | -14.3m/s | -57.5°C | 2.1% | 159.5hPa | 2.5V | 02:50:00 | 00:00:00 | 00:00:00 | |
| DL1NUX | 2026-09-05 06:57:03 | 49.32257 | 9.15932 | 104° | 117km/h | 13708m | -14.4m/s | -58.1°C | 5.5% | 157hPa | 2.5V | 02:50:42 | 02:24:24 | 00:00:00 | |
| HSKMA3-T | 2026-09-05 06:56:59 | 49.32250 | 9.15976 | 105° | 117km/h | 13693m | -14.6m/s | -58°C | 1.4% | 157.4hPa | 2.6V | 02:51:27 | 02:24:25 | 00:00:00 | |
| BIOWL1-15 | 2026-09-05 06:56:57 | 49.32265 | 9.15889 | 104° | 115km/h | 13722m | -14.3m/s | -58.2°C | 1.4% | 156.6hPa | 2.5V | 02:51:27 | 02:24:23 | 00:00:00 | |
| HSKMA3-T | 2026-09-05 06:56:49 | 49.32306 | 9.15540 | 97° | 115km/h | 13837m | -14.7m/s | -58.6°C | 1.3% | 153.7hPa | 2.5V | 02:51:27 | 02:24:15 | 00:00:00 | |
| DK5PH-5 | 2026-09-05 06:56:49 | 49.32306 | 9.15540 | 97° | 128km/h | 13838m | -14.6m/s | -58.6°C | 5.6% | 153.7hPa | 2.5V | 00:00:00 | 02:24:15 | 00:00:00 | |
| DM0DOS-11 | 2026-09-05 06:56:48 | 49.32317 | 9.15275 | 92° | 115km/h | 13925m | -14.7m/s | -58.8°C | 5.7% | 151.6hPa | 2.5V | 02:50:57 | 02:24:09 | 00:00:00 | |
| BIOWL1-15 | 2026-09-05 06:56:46 | 49.32313 | 9.15408 | 94° | 113km/h | 13881m | -14.6m/s | -58.6°C | 1.3% | 152.7hPa | 2.6V | 02:51:27 | 02:24:12 | 00:00:00 | |
| DJTTGO | 2026-09-05 06:56:45 | 49.32313 | 9.15408 | 94° | 113km/h | 13882m | -14.6m/s | -58.6°C | 2.0% | 152.7hPa | 2.5V | 02:51:00 | 00:00:00 | 00:00:00 | |
| HEMX73-11 | 2026-09-05 06:56:44 | 49.32315 | 9.15364 | 94° | 113km/h | 13896m | -14.3m/s | -58.7°C | 2.0% | 152.3hPa | 2.5V | 02:51:00 | 00:00:00 | 00:00:00 | |
| DF7PN | 2026-09-05 06:56:43 | 49.32317 | 9.15275 | 92° | 113km/h | 13925m | -14.7m/s | -58.8°C | 2.1% | 151.6hPa | 2.5V | 00:00:00 | 00:00:00 | 00:00:00 | |
| DM3KS-11 | 2026-09-05 06:56:42 | 49.32319 | 9.15185 | 91° | 117km/h | 13954m | -14.5m/s | -58.9°C | 2.1% | 150.9hPa | 2.5V | 00:00:00 | 00:00:00 | 00:00:00 | |
| DF2AP-13 | 2026-09-05 06:56:40 | 49.32319 | 9.15140 | 91° | 131km/h | 13969m | -14.6m/s | -58.9°C | 5.9% | 150.5hPa | 2.5V | 00:00:00 | 02:24:06 | 00:00:00 | |
| KANTATE | 2026-09-05 06:56:39 | 49.32319 | 9.15140 | 91° | 119km/h | 13969m | -14.6m/s | -59.0°C | 2.1% | 150.6hPa | 2.5V | 02:51:00 | 00:00:00 | 00:00:00 | |
| DM0DOS-11 | 2026-09-05 06:56:38 | 49.32318 | 9.14808 | 92° | 130km/h | 14071m | -14.6m/s | -59.4°C | 6.1% | 148.1hPa | 2.5V | 02:51:07 | 02:23:59 | 00:00:00 | |
| HSKMA3-T | 2026-09-05 06:56:38 | 49.32319 | 9.15047 | 89° | 119km/h | 13998m | -14.6m/s | -59.2°C | 1.5% | 149.9hPa | 2.5V | 02:51:27 | 02:24:04 | 00:00:00 | |
| BIOWL1-15 | 2026-09-05 06:56:36 | 49.32318 | 9.14954 | 89° | 122km/h | 14027m | -14.7m/s | -59.3°C | 1.3% | 149.2hPa | 2.6V | 02:51:27 | 02:24:02 | 00:00:00 | |
| HARRO8 | 2026-09-05 06:56:35 | 49.32317 | 9.14906 | 89° | 124km/h | 14042m | -14.8m/s | -59.4°C | 2.2% | 148.8hPa | 2.5V | 00:00:00 | 00:00:00 | 00:00:00 | |
| SFWM-10 | 2026-09-05 06:56:34 | 49.32317 | 9.14906 | 91° | 124km/h | 14042m | -14.8m/s | -59.4°C | 2.2% | 148.8hPa | 2.5V | 02:51:00 | 00:00:00 | 00:00:00 | |
| DL1ZP-14 | 2026-09-05 06:56:32 | 49.32322 | 9.14706 | 94° | 133km/h | 14101m | -14.9m/s | -59.4°C | 2.1% | 147.5hPa | 2.5V | 00:00:00 | 00:00:00 | 00:00:00 | |
| DM7RM-13 | 2026-09-05 06:56:30 | 49.32322 | 9.14706 | 95° | 135km/h | 14101m | -14.9m/s | -59.4°C | 2.2% | 147.5hPa | 2.6V | 02:51:00 | 00:00:00 | 00:00:00 | |
| DL6DJ-15 | 2026-09-05 06:56:29 | 49.32329 | 9.14601 | 96° | 139km/h | 14130m | -14.3m/s | -58.8°C | 2.0% | 146.8hPa | 2.6V | 00:00:00 | 00:00:00 | 00:00:00 | |
| DM0DOS-11 | 2026-09-05 06:56:28 | 49.32360 | 9.14272 | 99° | 141km/h | 14219m | -14.7m/s | -57.4°C | 5.1% | 144.7hPa | 2.6V | 02:51:17 | 02:23:49 | 00:00:00 | |
| BIOWL1-15 | 2026-09-05 06:56:28 | 49.32343 | 9.14436 | 98° | 144km/h | 14174m | -15.1m/s | -57.9°C | 0.9% | 145.7hPa | 2.5V | 02:51:27 | 02:23:52 | 00:00:00 | |
| HSKMA3-T | 2026-09-05 06:56:27 | 49.32338 | 9.14492 | 98° | 144km/h | 14159m | -14.6m/s | -58.1°C | 1% | 146.1hPa | 2.6V | 02:51:27 | 02:23:53 | 00:00:00 | |
| DB0UT-7 | 2026-09-05 06:56:27 | 49.32338 | 9.14492 | 99° | 130km/h | 14159m | -14.5m/s | -58.1°C | 5.5% | 146.0hPa | 2.5V | 00:00:00 | 00:00:00 | 00:00:00 | |
| DB0NH | 2026-09-05 06:56:26 | 49.32343 | 9.14436 | 99° | 128km/h | 14174m | -15.0m/s | -57.8°C | 5.4% | 145.7hPa | 2.5V | 02:51:00 | 02:23:52 | 00:00:00 | |
| NBG1-10 | 2026-09-05 06:56:25 | 49.32348 | 9.14381 | 99° | 126km/h | 14189m | -15.0m/s | -57.6°C | 5.2% | 145.3hPa | 2.5V | 02:51:00 | 02:23:51 | 00:00:00 | |
| CB1BUN | 2026-09-05 06:56:24 | 49.32348 | 9.14381 | 100° | 144km/h | 14189m | -15.0m/s | -57.6°C | 1.7% | 145.4hPa | 2.6V | 02:51:00 | 00:00:00 | 00:00:00 | |
| DO8TBO-1 | 2026-09-05 06:56:23 | 49.32360 | 9.14272 | 100° | 126km/h | 14219m | -14.7m/s | -57.4°C | 5.1% | 144.7hPa | 2.6V | 02:51:00 | 02:23:49 | 00:00:00 | |
| DJTTGO | 2026-09-05 06:56:22 | 49.32360 | 9.14272 | 101° | 141km/h | 14219m | -14.7m/s | -57.4°C | 1.7% | 144.7hPa | 2.5V | 02:51:00 | 00:00:00 | 00:00:00 | |
| DL0LBS | 2026-09-05 06:56:20 | 49.32372 | 9.14167 | 101° | 135km/h | 14249m | -15.0m/s | -57.2°C | 1.7% | 144.0hPa | 2.5V | 02:51:00 | 00:00:00 | 00:00:00 | |
| DK5PH-5 | 2026-09-05 06:56:19 | 49.32384 | 9.14067 | 101° | 122km/h | 14278m | -14.7m/s | -56.9°C | 4.9% | 143.3hPa | 2.5V | 00:00:00 | 02:23:45 | 00:00:00 | |
| DM0DOS-11 | 2026-09-05 06:56:18 | 49.32426 | 9.13780 | 103° | 124km/h | 14368m | -14.8m/s | -56.2°C | 4.6% | 141.3hPa | 2.5V | 02:51:27 | 02:23:39 | 00:00:00 | |
| HSKMA3-T | 2026-09-05 06:56:15 | 49.32412 | 9.13874 | 103° | 126km/h | 14337m | -15.2m/s | -56.4°C | 0.7% | 142hPa | 2.5V | 02:51:27 | 02:23:41 | 00:00:00 | |
| BIOWL9-15 | 2026-09-05 06:56:15 | 49.32419 | 9.13827 | 103° | 124km/h | 14353m | -15.2m/s | -56.2°C | 1.5% | 141.7hPa | 2.6V | 00:00:00 | 00:00:00 | 00:00:00 | |
| DF7PN | 2026-09-05 06:56:12 | 49.32434 | 9.13733 | 103° | 124km/h | 14383m | -14.7m/s | -56.3°C | 1.5% | 141.0hPa | 2.6V | 00:00:00 | 00:00:00 | 00:00:00 | |
| DF2AP-13 | 2026-09-05 06:56:10 | 49.32448 | 9.13640 | 103° | 117km/h | 14412m | -15.0m/s | -56.3°C | 4.7% | 140.3hPa | 2.6V | 02:51:00 | 02:23:36 | 00:00:00 | |
| DM7RM-13 | 2026-09-05 06:56:09 | 49.32448 | 9.13640 | 103° | 124km/h | 14412m | -15.0m/s | -56.3°C | 1.6% | 140.3hPa | 2.5V | 02:52:00 | 00:00:00 | 00:00:00 | |
| DM0DOS-11 | 2026-09-05 06:56:08 | 49.32489 | 9.13306 | 101° | 128km/h | 14519m | -15.3m/s | -56.6°C | 4.7% | 137.9hPa | 2.5V | 02:51:37 | 02:23:29 | 00:00:00 | |
| BIOWL1-15 | 2026-09-05 06:56:05 | 49.32477 | 9.13403 | 100° | 126km/h | 14488m | -15.1m/s | -56.4°C | 0.5% | 138.7hPa | 2.6V | 02:52:18 | 02:23:31 | 00:00:00 | |
| BIOWL1-15 | 2026-09-05 06:55:59 | 49.32542 | 9.12936 | 100° | 115km/h | 14641m | -15.4m/s | -56.4°C | 0.4% | 135.3hPa | 2.5V | 02:52:18 | 02:23:21 | 00:00:00 | |
| DM0DOS-11 | 2026-09-05 06:55:58 | 49.32552 | 9.12850 | 99° | 113km/h | 14672m | -15.1m/s | -56.4°C | 4.5% | 134.7hPa | 2.6V | 02:51:47 | 02:23:19 | 00:00:00 | |
| HSKMA3-T | 2026-09-05 06:55:54 | 49.32547 | 9.12892 | 100° | 113km/h | 14656m | -15.3m/s | -56.3°C | 0.4% | 135.1hPa | 2.6V | 02:52:18 | 02:23:20 | 00:00:00 | |
| DF3TZ-5 | 2026-09-05 06:55:51 | 49.32567 | 9.12723 | 100° | 110km/h | 14718m | -15.3m/s | -56.4°C | 1.4% | 133.7hPa | 2.6V | 00:00:00 | 00:00:00 | 00:00:00 | |
| DK5PH-5 | 2026-09-05 06:55:49 | 49.32572 | 9.12681 | 101° | 102km/h | 14733m | -15.0m/s | -56.3°C | 4.5% | 133.3hPa | 2.6V | 02:51:00 | 02:23:15 | 00:00:00 | |
| DM0DOS-11 | 2026-09-05 06:55:48 | 49.32607 | 9.12437 | 103° | 106km/h | 14825m | -15.6m/s | -56.8°C | 4.6% | 131.5hPa | 2.5V | 02:51:57 | 02:23:09 | 00:00:00 | |
| BIOWL1-15 | 2026-09-05 06:55:44 | 49.32601 | 9.12477 | 103° | 106km/h | 14810m | -15.4m/s | -56.7°C | 0.5% | 131.8hPa | 2.5V | 02:52:18 | 02:23:10 | 00:00:00 | |
| HSKMA3-T | 2026-09-05 06:55:43 | 49.32607 | 9.12437 | 103° | 106km/h | 14825m | -15.6m/s | -56.8°C | 0.4% | 131.5hPa | 2.5V | 02:52:18 | 02:23:09 | 00:00:00 | |
| DG9SBQ-11 | 2026-09-05 06:55:43 | 49.32607 | 9.12437 | 104° | 106km/h | 14826m | -15.6m/s | -56.8°C | 1.4% | 131.5hPa | 2.5V | 02:52:00 | 00:00:00 | 00:00:00 | |
| DF7PN | 2026-09-05 06:55:41 | 49.32620 | 9.12358 | 104° | 104km/h | 14857m | -15.6m/s | -56.9°C | 1.4% | 130.8hPa | 2.5V | 00:00:00 | 00:00:00 | 00:00:00 | |
| DL0LBS | 2026-09-05 06:55:40 | 49.32627 | 9.12318 | 108° | 106km/h | 14872m | -15.6m/s | -57.0°C | 1.5% | 130.5hPa | 2.5V | 02:52:00 | 00:00:00 | 00:00:00 | |
| DM0DOS-11 | 2026-09-05 06:55:38 | 49.32679 | 9.12055 | 105° | 99km/h | 14980m | -15.7m/s | -57.1°C | 4.7% | 128.3hPa | 2.5V | 02:52:07 | 02:22:59 | 00:00:00 | |
| BIOWL1-15 | 2026-09-05 06:55:34 | 49.32673 | 9.12091 | 106° | 99km/h | 14964m | -15.6m/s | -57.1°C | 0.4% | 128.6hPa | 2.5V | 02:52:18 | 02:23:00 | 00:00:00 | |
| HSKMA3-T | 2026-09-05 06:55:33 | 49.32680 | 9.12055 | 106° | 99km/h | 14980m | -15.7m/s | -57.1°C | 0.4% | 128.3hPa | 2.5V | 02:52:18 | 02:22:59 | 00:00:00 | |
| HARRO8 | 2026-09-05 06:55:33 | 49.32686 | 9.12018 | 104° | 95km/h | 14996m | -15.5m/s | -57.0°C | 1.3% | 128.0hPa | 2.6V | 00:00:00 | 00:00:00 | 00:00:00 | |
| DG9SBQ-11 | 2026-09-05 06:55:31 | 49.32686 | 9.12018 | 106° | 97km/h | 14996m | -15.5m/s | -57.0°C | 1.3% | 128.0hPa | 2.6V | 02:52:00 | 00:00:00 | 00:00:00 | |
| DO3DL | 2026-09-05 06:55:30 | 49.32692 | 9.11982 | 104° | 97km/h | 15011m | -15.7m/s | -56.9°C | 1.4% | 127.7hPa | 2.6V | 00:00:00 | 00:00:00 | 00:00:00 | |
| DL1ZP-14 | 2026-09-05 06:55:29 | 49.32702 | 9.11909 | 100° | 95km/h | 15043m | -15.6m/s | -56.3°C | 1.3% | 127.1hPa | 2.6V | 00:00:00 | 00:00:00 | 00:00:00 | |
| DM0DOS-11 | 2026-09-05 06:55:28 | 49.32723 | 9.11679 | 98° | 104km/h | 15136m | -15.7m/s | -56.5°C | 4.4% | 125.2hPa | 2.5V | 02:52:17 | 02:22:49 | 00:00:00 | |
| HSKMA3-T | 2026-09-05 06:55:23 | 49.32723 | 9.11679 | 98° | 104km/h | 15136m | -15.7m/s | -56.5°C | 0.2% | 125.2hPa | 2.5V | 02:52:18 | 02:22:49 | 00:00:00 | |
| DO3DL | 2026-09-05 06:55:22 | 49.32723 | 9.11679 | 99° | 104km/h | 15136m | -15.7m/s | -56.5°C | 1.3% | 125.2hPa | 2.6V | 00:00:00 | 00:00:00 | 00:00:00 | |
| DK5PH-5 | 2026-09-05 06:55:19 | 49.32740 | 9.11518 | 99° | 108km/h | 15200m | -15.8m/s | -56.7°C | 4.5% | 123.9hPa | 2.6V | 00:00:00 | 02:22:45 | 00:00:00 | |
| DM0DOS-11 | 2026-09-05 06:55:18 | 49.32760 | 9.11270 | 96° | 110km/h | 15293m | -15.8m/s | -56.6°C | 4.4% | 122.1hPa | 2.6V | 02:52:27 | 02:22:39 | 00:00:00 | |
| BIOWL1-15 | 2026-09-05 06:55:13 | 49.32760 | 9.11270 | 96° | 110km/h | 15293m | -15.8m/s | -56.6°C | 0.1% | 122.2hPa | 2.6V | 02:53:09 | 02:22:39 | 00:00:00 | |
| HSKMA3-T | 2026-09-05 06:55:12 | 49.32763 | 9.11228 | 96° | 110km/h | 15309m | -16m/s | -56.7°C | 0.2% | 121.8hPa | 2.5V | 02:53:09 | 02:22:38 | 00:00:00 | |
| DF2AP-13 | 2026-09-05 06:55:10 | 49.32770 | 9.11143 | 98° | 106km/h | 15342m | -16.2m/s | -56.9°C | 4.5% | 121.2hPa | 2.6V | 00:00:00 | 02:22:36 | 00:00:00 | |
| DM3KS-11 | 2026-09-05 06:55:09 | 49.32780 | 9.11058 | 100° | 111km/h | 15374m | -16.1m/s | -56.9°C | 1.3% | 120.6hPa | 2.6V | 00:00:00 | 00:00:00 | 00:00:00 | |
| DL1NUX | 2026-09-05 06:55:08 | 49.32816 | 9.10850 | 106° | 108km/h | 15454m | -16.2m/s | -56.8°C | 4.5% | 119hPa | 2.6V | 02:52:37 | 02:22:29 | 00:00:00 | |
| DM0DOS-11 | 2026-09-05 06:55:07 | 49.32824 | 9.10811 | 106° | 106km/h | 15471m | -15.9m/s | -56.8°C | 4.5% | 118.8hPa | 2.6V | 02:52:38 | 02:22:28 | 00:00:00 | |
| BIOWL1-15 | 2026-09-05 06:55:03 | 49.32824 | 9.10811 | 107° | 106km/h | 15471m | -15.9m/s | -56.8°C | 0.2% | 118.8hPa | 2.6V | 02:53:09 | 02:22:28 | 00:00:00 | |
| HSKMA3-T | 2026-09-05 06:55:01 | 49.32831 | 9.10772 | 106° | 106km/h | 15486m | -15.3m/s | -56.7°C | 0.1% | 118.5hPa | 2.5V | 02:53:09 | 02:22:27 | 00:00:00 | |
| DL1ZP-14 | 2026-09-05 06:54:59 | 49.32852 | 9.10654 | 105° | 106km/h | 15535m | -16.1m/s | -56.4°C | 1.2% | 117.6hPa | 2.6V | 00:00:00 | 00:00:00 | 00:00:00 | |
| DL0LBS | 2026-09-05 06:54:58 | 49.32845 | 9.10693 | 105° | 106km/h | 15519m | -15.8m/s | -56.5°C | 1.2% | 117.9hPa | 2.6V | 02:53:00 | 00:00:00 | 00:00:00 | |
| DM0DOS-11 | 2026-09-05 06:54:57 | 49.32891 | 9.10411 | 104° | 106km/h | 15632m | -16.4m/s | -56.7°C | 4.6% | 115.8hPa | 2.6V | 02:52:48 | 02:22:18 | 00:00:00 | |
| BIOWL1-15 | 2026-09-05 06:54:54 | 49.32891 | 9.10411 | 104° | 106km/h | 15632m | -16.4m/s | -56.7°C | 0.2% | 115.8hPa | 2.6V | 02:53:09 | 02:22:18 | 00:00:00 | |
| DB0NH | 2026-09-05 06:54:54 | 49.32878 | 9.10491 | 105° | 93km/h | 15599m | -16.2m/s | -56.4°C | 4.5% | 116.3hPa | 2.5V | 02:52:00 | 02:22:20 | 00:00:00 | |
| DO8TBO-1 | 2026-09-05 06:54:53 | 49.32884 | 9.10451 | 105° | 93km/h | 15616m | -16.3m/s | -56.5°C | 4.6% | 116.0hPa | 2.5V | 02:52:00 | 02:22:19 | 00:00:00 | |
| DG9SBQ-11 | 2026-09-05 06:54:51 | 49.32891 | 9.10411 | 105° | 106km/h | 15632m | -16.4m/s | -56.7°C | 1.2% | 115.8hPa | 2.5V | 02:53:00 | 00:00:00 | 00:00:00 | |
| DK5PH-5 | 2026-09-05 06:54:49 | 49.32912 | 9.10295 | 107° | 89km/h | 15681m | -16.3m/s | -56.4°C | 4.5% | 114.8hPa | 2.5V | 00:00:00 | 02:22:15 | 00:00:00 | |
| DO3DL | 2026-09-05 06:54:48 | 49.32912 | 9.10295 | 108° | 102km/h | 15681m | -16.3m/s | -56.5°C | 1.1% | 114.9hPa | 2.5V | 02:53:00 | 00:00:00 | 00:00:00 | |
| DM0DOS-11 | 2026-09-05 06:54:47 | 49.32977 | 9.10043 | 113° | 97km/h | 15796m | -16.5m/s | -55.5°C | 4.2% | 112.8hPa | 2.5V | 02:52:58 | 02:22:08 | 00:00:00 | |
| BIOWL1-15 | 2026-09-05 06:54:41 | 49.32986 | 9.10009 | 113° | 95km/h | 15813m | -16.2m/s | -55.4°C | 0% | 112.5hPa | 2.6V | 02:53:09 | 02:22:07 | 00:00:00 | |
| AZAK | 2026-09-05 06:54:41 | 49.32986 | 9.10009 | 114° | 95km/h | 15813m | -16.2m/s | -55.4°C | 0% | 0hPa | 2.6V | 00:00:00 | 00:00:00 | 00:00:00 | |
| DF2AP-13 | 2026-09-05 06:54:40 | 49.32995 | 9.09976 | 113° | 82km/h | 15829m | -16.3m/s | -55.3°C | 4.1% | 112.2hPa | 2.6V | 02:53:00 | 02:22:06 | 00:00:00 | |
| DF7PN | 2026-09-05 06:54:39 | 49.33004 | 9.09943 | 111° | 89km/h | 15845m | -16.3m/s | -55.3°C | 1.0% | 112.0hPa | 2.6V | 00:00:00 | 00:00:00 | 00:00:00 | |
| DM3KS-11 | 2026-09-05 06:54:38 | 49.33020 | 9.09878 | 108° | 88km/h | 15878m | -16.4m/s | -54.9°C | 0.9% | 111.4hPa | 2.6V | 00:00:00 | 00:00:00 | 00:00:00 | |
| DG1MJG | 2026-09-05 06:54:37 | 49.33020 | 9.09878 | 110° | 88km/h | 15878m | -16.4m/s | -54.9°C | 0.9% | 111.4hPa | 2.6V | 02:53:00 | 00:00:00 | 00:00:00 | |
| DG9SBQ-11 | 2026-09-05 06:54:36 | 49.33020 | 9.09878 | 110° | 88km/h | 15878m | -16.4m/s | -54.9°C | 0.9% | 111.4hPa | 2.6V | 02:53:00 | 00:00:00 | 00:00:00 | |
| DM0DOS-11 | 2026-09-05 06:54:35 | 49.33057 | 9.09653 | 100° | 84km/h | 15996m | -17.5m/s | -54.5°C | 3.7% | 109.3hPa | 2.6V | 02:53:10 | 02:21:56 | 00:00:00 | |
| BIOWL1-15 | 2026-09-05 06:54:31 | 49.33053 | 9.09685 | 101° | 84km/h | 15979m | -17.5m/s | -54.6°C | 0% | 109.6hPa | 2.5V | 02:53:09 | 02:21:57 | 00:00:00 | |
| HARRO8 | 2026-09-05 06:54:31 | 49.33053 | 9.09685 | 100° | 84km/h | 15979m | -17.5m/s | -54.6°C | 0.9% | 109.6hPa | 2.6V | 00:00:00 | 00:00:00 | 00:00:00 | |
| DG9SBQ-11 | 2026-09-05 06:54:30 | 49.33053 | 9.09685 | 102° | 84km/h | 15979m | -17.5m/s | -54.6°C | 0.9% | 109.6hPa | 2.6V | 02:53:00 | 00:00:00 | 00:00:00 | |
| DL1NUX | 2026-09-05 06:54:29 | 49.33083 | 9.09466 | 102° | 82km/h | 16099m | -16.6m/s | -54.6°C | 3.7% | 107.6hPa | 2.6V | 02:53:16 | 02:21:50 | 00:00:00 | |
| DO3DL | 2026-09-05 06:54:28 | 49.33060 | 9.09621 | 102° | 82km/h | 16014m | -18.3m/s | -54.2°C | 0.9% | 109.1hPa | 2.5V | 02:54:00 | 00:00:00 | 00:00:00 | |
| DJTTGO | 2026-09-05 06:54:27 | 49.33068 | 9.09559 | 103° | 82km/h | 16050m | -16.7m/s | -54.2°C | 0.9% | 108.4hPa | 2.5V | 02:54:00 | 00:00:00 | 00:00:00 | |
| DM7RM-13 | 2026-09-05 06:54:26 | 49.33068 | 9.09559 | 103° | 82km/h | 16050m | -16.7m/s | -54.2°C | 0.9% | 108.4hPa | 2.5V | 02:54:00 | 00:00:00 | 00:00:00 | |
| DM0DOS-11 | 2026-09-05 06:54:25 | 49.33102 | 9.09345 | 105° | 78km/h | 16164m | -16.2m/s | -55.1°C | 3.8% | 106.5hPa | 2.5V | 02:53:20 | 02:21:46 | 00:00:00 | |
| BIOWL1-15 | 2026-09-05 06:54:21 | 49.33097 | 9.09375 | 104° | 80km/h | 16148m | -16.1m/s | -55°C | 0% | 106.7hPa | 2.5V | 02:54:00 | 02:21:47 | 00:00:00 | |
| HSKMA3-T | 2026-09-05 06:54:20 | 49.33102 | 9.09345 | 106° | 78km/h | 16164m | -16.2m/s | -55.1°C | 0% | 106.5hPa | 2.5V | 02:54:51 | 02:21:46 | 00:00:00 | |
| DG9SBQ-11 | 2026-09-05 06:54:20 | 49.33102 | 9.09345 | 107° | 78km/h | 16164m | -16.2m/s | -55.1°C | 0.9% | 106.5hPa | 2.6V | 02:54:00 | 00:00:00 | 00:00:00 | |
| DK5PH-5 | 2026-09-05 06:54:19 | 49.33107 | 9.09316 | 105° | 78km/h | 16181m | -16.4m/s | -55.1°C | 3.8% | 106.2hPa | 2.6V | 02:53:00 | 02:21:45 | 00:00:00 | |
| DL1NUX | 2026-09-05 06:54:18 | 49.33138 | 9.09147 | 105° | 78km/h | 16281m | -17m/s | -55.7°C | 4.1% | 104.6hPa | 2.5V | 02:53:27 | 02:21:39 | 00:00:00 | |
| DO3MHA-11 | 2026-09-05 06:54:17 | 49.33117 | 9.09259 | 106° | 82km/h | 16214m | -16.8m/s | -55.4°C | 4.0% | 105.6hPa | 2.6V | 00:00:00 | 02:21:43 | 00:00:00 | |
| SO1NDE-10 | 2026-09-05 06:54:16 | 49.33122 | 9.09231 | 106° | 55km/h | 16231m | -16.7m/s | -55.4°C | 4.0% | 105.3hPa | 2.6V | 00:00:00 | 02:21:42 | 00:00:00 | |
| DM0DOS-11 | 2026-09-05 06:54:15 | 49.33153 | 9.09054 | 103° | 88km/h | 16331m | -16.8m/s | -56°C | 4.2% | 103.7hPa | 2.6V | 02:53:30 | 02:21:36 | 00:00:00 | |
| BIOWL1-15 | 2026-09-05 06:54:10 | 49.33153 | 9.09054 | 104° | 88km/h | 16331m | -16.8m/s | -56°C | 0% | 103.7hPa | 2.6V | 02:54:00 | 02:21:36 | 00:00:00 | |
| DF2AP-13 | 2026-09-05 06:54:10 | 49.33153 | 9.09054 | 104° | 77km/h | 16332m | -16.7m/s | -55.9°C | 4.2% | 103.7hPa | 2.5V | 00:00:00 | 02:21:36 | 00:00:00 | |
| KANTATE | 2026-09-05 06:54:09 | 49.33153 | 9.09054 | 105° | 88km/h | 16332m | -16.8m/s | -56.0°C | 1.0% | 103.7hPa | 2.5V | 02:54:00 | 00:00:00 | 00:00:00 | |
| DF7PN | 2026-09-05 06:54:08 | 49.33170 | 9.08952 | 105° | 89km/h | 16382m | -16.6m/s | -56.0°C | 1.0% | 102.9hPa | 2.5V | 00:00:00 | 00:00:00 | 00:00:00 | |
| DM3KS-11 | 2026-09-05 06:54:07 | 49.33176 | 9.08919 | 105° | 86km/h | 16399m | -16.3m/s | -56.1°C | 1.0% | 102.6hPa | 2.5V | 00:00:00 | 00:00:00 | 00:00:00 | |
| DM7RM-13 | 2026-09-05 06:54:05 | 49.33176 | 9.08919 | 107° | 88km/h | 16399m | -16.3m/s | -56.1°C | 1.1% | 102.6hPa | 2.5V | 02:54:00 | 00:00:00 | 00:00:00 | |
| DB0ND-19 | 2026-09-05 06:54:03 | 49.33195 | 9.08828 | 107° | 77km/h | 16447m | -16.1m/s | -56.0°C | 1.0% | 101.9hPa | 2.5V | 00:00:00 | 00:00:00 | 00:00:00 | |
| DJTTGO | 2026-09-05 06:54:02 | 49.33195 | 9.08828 | 109° | 77km/h | 16447m | -16.1m/s | -56.0°C | 1.0% | 101.9hPa | 2.5V | 02:54:00 | 00:00:00 | 00:00:00 | |
| HEMX73-11 | 2026-09-05 06:54:01 | 49.33200 | 9.08800 | 110° | 75km/h | 16463m | -16.5m/s | -56.0°C | 1.0% | 101.6hPa | 2.5V | 02:54:00 | 00:00:00 | 00:00:00 | |
| DM0DOS-11 | 2026-09-05 06:54:00 | 49.33247 | 9.08602 | 110° | 80km/h | 16577m | -16.3m/s | -55.4°C | 4% | 99.8hPa | 2.5V | 02:53:45 | 02:21:21 | 00:00:00 | |
| BIOWL1-15 | 2026-09-05 06:54:00 | 49.33213 | 9.08745 | 110° | 75km/h | 16496m | -16.2m/s | -55.9°C | 0% | 101.1hPa | 2.5V | 02:54:00 | 02:21:26 | 00:00:00 | |
| HARRO8 | 2026-09-05 06:54:00 | 49.33213 | 9.08745 | 109° | 75km/h | 16496m | -16.2m/s | -55.9°C | 1.0% | 101.1hPa | 2.5V | 00:00:00 | 00:00:00 | 00:00:00 | |
| DL1ZP-14 | 2026-09-05 06:53:56 | 49.33240 | 9.08631 | 109° | 78km/h | 16561m | -16.5m/s | -55.4°C | 0.9% | 100.0hPa | 2.5V | 00:00:00 | 00:00:00 | 00:00:00 | |
| DO8TBO-1 | 2026-09-05 06:53:53 | 49.33261 | 9.08546 | 112° | 62km/h | 16610m | -16.5m/s | -55.3°C | 4.0% | 99.2hPa | 2.5V | 00:00:00 | 02:21:19 | 00:00:00 | |
| DJ2DS-15 | 2026-09-05 06:53:52 | 49.33268 | 9.08519 | 113° | 66km/h | 16627m | -16.5m/s | -55.3°C | 4.0% | 99.0hPa | 2.5V | 00:00:00 | 02:21:18 | 00:00:00 | |
| SFWM-10 | 2026-09-05 06:53:51 | 49.33268 | 9.08519 | 113° | 75km/h | 16627m | -16.5m/s | -55.4°C | 0.9% | 99.0hPa | 2.5V | 02:54:00 | 00:00:00 | 00:00:00 | |
| DM0DOS-11 | 2026-09-05 06:53:50 | 49.33316 | 9.08336 | 110° | 69km/h | 16742m | -16.8m/s | -54.8°C | 3.8% | 97.2hPa | 2.5V | 02:53:55 | 02:21:11 | 00:00:00 | |
| BIOWL1-15 | 2026-09-05 06:53:49 | 49.33289 | 9.08441 | 113° | 73km/h | 16676m | -16.5m/s | -55.1°C | 0% | 98.2hPa | 2.6V | 02:54:00 | 02:21:15 | 00:00:00 | |
| DF3TZ-5 | 2026-09-05 06:53:46 | 49.33309 | 9.08362 | 110° | 71km/h | 16725m | -16.4m/s | -54.9°C | 0.9% | 97.5hPa | 2.6V | 00:00:00 | 00:00:00 | 00:00:00 | |
| BIOWL1-15 | 2026-09-05 06:53:40 | 49.33365 | 9.08173 | 120° | 64km/h | 16860m | -17.2m/s | -54.8°C | 0% | 95.5hPa | 2.6V | 02:54:51 | 02:21:04 | 00:00:00 | |
| BIOWL9-15 | 2026-09-05 06:53:40 | 49.33357 | 9.08195 | 119° | 64km/h | 16843m | -17.0m/s | -54.8°C | 0.8% | 95.8hPa | 2.6V | 00:00:00 | 00:00:00 | 00:00:00 | |
| DF2AP-13 | 2026-09-05 06:53:39 | 49.33357 | 9.08195 | 120° | 53km/h | 16843m | -16.9m/s | -54.7°C | 3.7% | 95.7hPa | 2.6V | 00:00:00 | 02:21:05 | 00:00:00 | |
| DM0DOS-11 | 2026-09-05 06:53:38 | 49.33400 | 9.08071 | 113° | 55km/h | 16945m | -17.1m/s | -54.8°C | 3.8% | 94.2hPa | 2.6V | 02:54:07 | 02:20:59 | 00:00:00 | |
| BIOWL1-15 | 2026-09-05 06:53:29 | 49.33431 | 9.07965 | 118° | 51km/h | 17048m | -17.6m/s | -54.8°C | 0% | 92.7hPa | 2.6V | 02:54:51 | 02:20:53 | 00:00:00 | |
| HARRO8 | 2026-09-05 06:53:29 | 49.33425 | 9.07982 | 117° | 49km/h | 17031m | -17.4m/s | -54.8°C | 0.8% | 92.9hPa | 2.6V | 00:00:00 | 00:00:00 | 00:00:00 | |
| DM0DOS-11 | 2026-09-05 06:53:28 | 49.33455 | 9.07892 | 114° | 53km/h | 17118m | -17.2m/s | -54.5°C | 3.6% | 91.7hPa | 2.6V | 02:54:17 | 02:20:49 | 00:00:00 | |
| DB0UT-7 | 2026-09-05 06:53:27 | 49.33431 | 9.07964 | 118° | 47km/h | 17049m | -17.5m/s | -54.8°C | 3.8% | 92.6hPa | 2.5V | 00:00:00 | 00:00:00 | 00:00:00 | |
| DL1ZP-14 | 2026-09-05 06:53:25 | 49.33444 | 9.07929 | 116° | 53km/h | 17084m | -17.4m/s | -54.6°C | 0.8% | 92.2hPa | 2.5V | 00:00:00 | 00:00:00 | 00:00:00 | |
| DB0NH | 2026-09-05 06:53:24 | 49.33449 | 9.07910 | 116° | 47km/h | 17101m | -17.6m/s | -54.5°C | 3.7% | 91.9hPa | 2.5V | 02:54:00 | 02:20:50 | 00:00:00 | |
| DO8TBO-1 | 2026-09-05 06:53:23 | 49.33455 | 9.07892 | 115° | 46km/h | 17119m | -17.1m/s | -54.4°C | 3.6% | 91.7hPa | 2.6V | 02:54:00 | 02:20:49 | 00:00:00 | |
| DL4BBY-15 | 2026-09-05 06:53:22 | 49.33460 | 9.07873 | 112° | 46km/h | 17136m | -17.2m/s | -55.4°C | 0% | 0hPa | 2.5V | 00:00:00 | 00:00:00 | 00:00:00 | |
| DO3DL | 2026-09-05 06:53:21 | 49.33460 | 9.07873 | 113° | 53km/h | 17136m | -17.3m/s | -54.6°C | 0.8% | 91.5hPa | 2.5V | 02:54:00 | 00:00:00 | 00:00:00 | |
| DK5PH-5 | 2026-09-05 06:53:19 | 49.33474 | 9.07816 | 110° | 44km/h | 17188m | -17.5m/s | -54.8°C | 3.7% | 90.7hPa | 2.5V | 00:00:00 | 02:20:45 | 00:00:00 | |
| DM0DOS-11 | 2026-09-05 06:53:18 | 49.33506 | 9.07701 | 115° | 53km/h | 17293m | -17.4m/s | -55.1°C | 3.8% | 89.2hPa | 2.5V | 02:54:27 | 02:20:39 | 00:00:00 | |
| BIOWL1-15 | 2026-09-05 06:53:17 | 49.33483 | 9.07778 | 112° | 55km/h | 17223m | -17.4m/s | -55.1°C | 0% | 90.2hPa | 2.6V | 02:54:51 | 02:20:43 | 00:00:00 | |
| DO3MHA-11 | 2026-09-05 06:53:17 | 49.33483 | 9.07778 | 112° | 49km/h | 17223m | -17.3m/s | -55.0°C | 3.8% | 90.2hPa | 2.5V | 00:00:00 | 02:20:43 | 00:00:00 | |
| DL0LBS | 2026-09-05 06:53:16 | 49.33483 | 9.07778 | 113° | 55km/h | 17223m | -17.4m/s | -55.1°C | 0.9% | 90.2hPa | 2.5V | 02:54:00 | 00:00:00 | 00:00:00 | |
| DF3TZ-5 | 2026-09-05 06:53:15 | 49.33494 | 9.07739 | 114° | 55km/h | 17258m | -17.2m/s | -54.9°C | 0.8% | 89.7hPa | 2.5V | 00:00:00 | 00:00:00 | 00:00:00 | |
| DG9SBQ-11 | 2026-09-05 06:53:12 | 49.33506 | 9.07701 | 117° | 53km/h | 17293m | -17.4m/s | -55.1°C | 0.8% | 89.2hPa | 2.5V | 02:54:00 | 00:00:00 | 00:00:00 | |
| DJ2DS-15 | 2026-09-05 06:53:11 | 49.33516 | 9.07666 | 116° | 40km/h | 17328m | -17.2m/s | -55.0°C | 3.8% | 88.7hPa | 2.5V | 00:00:00 | 02:20:37 | 00:00:00 | |
| DF1GD-15 | 2026-09-05 06:53:10 | 49.33516 | 9.07666 | 116° | 47km/h | 17328m | -17.2m/s | -55.1°C | 0.9% | 88.8hPa | 2.5V | 02:54:00 | 00:00:00 | 00:00:00 | |
| DF2AP-13 | 2026-09-05 06:53:08 | 49.33530 | 9.07619 | 113° | 42km/h | 17380m | -17.8m/s | -55.0°C | 3.8% | 88.0hPa | 2.5V | 02:54:00 | 02:20:34 | 00:00:00 | |
| DO3MHA-11 | 2026-09-05 06:53:07 | 49.33534 | 9.07603 | 111° | 42km/h | 17398m | -17.4m/s | -55.0°C | 3.8% | 87.7hPa | 2.5V | 02:54:00 | 02:20:33 | 00:00:00 | |
| DM0DOS-11 | 2026-09-05 06:53:06 | 49.33554 | 9.07506 | 101° | 42km/h | 17504m | -17.6m/s | -55.4°C | 3.9% | 86.3hPa | 2.6V | 02:54:39 | 02:20:27 | 00:00:00 | |
| BIOWL1-15 | 2026-09-05 06:53:06 | 49.33538 | 9.07588 | 110° | 44km/h | 17415m | -17.8m/s | -55.1°C | 0% | 87.6hPa | 2.6V | 02:54:51 | 02:20:32 | 00:00:00 | |
| HSKMA3-T | 2026-09-05 06:53:04 | 49.33545 | 9.07555 | 107° | 46km/h | 17451m | -17.7m/s | -55.1°C | 0% | 87.1hPa | 2.5V | 02:54:51 | 02:20:30 | 00:00:00 | |
| BIOWL1-15 | 2026-09-05 06:52:58 | 49.33560 | 9.07435 | 88° | 35km/h | 17594m | -17.9m/s | -55.1°C | 0% | 85.1hPa | 2.5V | 02:54:51 | 02:20:22 | 00:00:00 | |
| NBG1-10 | 2026-09-05 06:52:58 | 49.33559 | 9.07462 | 96° | 44km/h | 17558m | -17.7m/s | -55.5°C | 3.9% | 85.6hPa | 2.5V | 00:00:00 | 02:20:24 | 00:00:00 | |
| DB0UT-7 | 2026-09-05 06:52:57 | 49.33560 | 9.07449 | 92° | 44km/h | 17576m | -17.8m/s | -55.2°C | 3.8% | 85.3hPa | 2.5V | 00:00:00 | 02:20:23 | 00:00:00 | |
| DM0DOS-11 | 2026-09-05 06:52:56 | 49.33555 | 9.07364 | 83° | 38km/h | 17684m | -18m/s | -55°C | 3.7% | 83.9hPa | 2.5V | 02:54:49 | 02:20:17 | 00:00:00 | |
| HSKMA3-T | 2026-09-05 06:52:54 | 49.33558 | 9.07408 | 84° | 37km/h | 17630m | -17.7m/s | -55.1°C | 0% | 84.6hPa | 2.6V | 02:54:51 | 02:20:20 | 00:00:00 | |
| DO8TBO-1 | 2026-09-05 06:52:53 | 49.33557 | 9.07394 | 84° | 46km/h | 17648m | -18.2m/s | -54.9°C | 3.7% | 84.4hPa | 2.6V | 00:00:00 | 02:20:19 | 00:00:00 | |
| DL4BBY-15 | 2026-09-05 06:52:52 | 49.33556 | 9.07379 | 83° | 44km/h | 17666m | -17.9m/s | -55.8°C | 0% | 0hPa | 2.6V | 00:00:00 | 00:00:00 | 00:00:00 | |
| DJ2DS-15 | 2026-09-05 06:52:51 | 49.33555 | 9.07364 | 84° | 46km/h | 17684m | -18.0m/s | -54.9°C | 3.7% | 83.9hPa | 2.6V | 00:00:00 | 02:20:17 | 00:00:00 | |
| DF1GD-15 | 2026-09-05 06:52:50 | 49.33555 | 9.07364 | 85° | 40km/h | 17684m | -18.0m/s | -55.0°C | 0.8% | 83.9hPa | 2.6V | 02:54:00 | 00:00:00 | 00:00:00 | |
| DK5PH-5 | 2026-09-05 06:52:49 | 49.33553 | 9.07333 | 83° | 46km/h | 17720m | -17.8m/s | -54.9°C | 3.7% | 83.4hPa | 2.6V | 02:54:00 | 02:20:15 | 00:00:00 | |
| DO3MHA-11 | 2026-09-05 06:52:47 | 49.33549 | 9.07300 | 79° | 47km/h | 17756m | -18.0m/s | -55.2°C | 3.8% | 82.9hPa | 2.6V | 00:00:00 | 02:20:13 | 00:00:00 | |
| DM0DOS-11 | 2026-09-05 06:52:46 | 49.33530 | 9.07202 | 69° | 47km/h | 17863m | -17.9m/s | -55.4°C | 3.8% | 81.6hPa | 2.6V | 02:54:59 | 02:20:07 | 00:00:00 | |
| HSKMA3-T | 2026-09-05 06:52:44 | 49.33541 | 9.07251 | 72° | 44km/h | 17809m | -17.6m/s | -55.2°C | 0% | 82.3hPa | 2.6V | 02:55:42 | 02:20:10 | 00:00:00 | |
| BIOWL1-15 | 2026-09-05 06:52:43 | 49.33538 | 9.07235 | 71° | 44km/h | 17827m | -18m/s | -55.3°C | 0% | 82hPa | 2.5V | 02:55:42 | 02:20:09 | 00:00:00 | |
| DB0UT-9 | 2026-09-05 06:52:41 | 49.33534 | 9.07219 | 70° | 46km/h | 17846m | -18.2m/s | -55.4°C | 0.8% | 81.8hPa | 2.5V | 02:55:00 | 00:00:00 | 00:00:00 | |
| DG9SBQ-11 | 2026-09-05 06:52:40 | 49.33530 | 9.07202 | 71° | 47km/h | 17864m | -17.9m/s | -55.4°C | 0.8% | 81.6hPa | 2.5V | 02:55:00 | 00:00:00 | 00:00:00 | |
| DH7VM-15 | 2026-09-05 06:52:39 | 49.33521 | 9.07166 | 73° | 51km/h | 17899m | -17.9m/s | -55.5°C | 0.8% | 81.1hPa | 2.5V | 00:00:00 | 00:00:00 | 00:00:00 | |
| DF2AP-13 | 2026-09-05 06:52:38 | 49.33518 | 9.07146 | 73° | 44km/h | 17917m | -18.0m/s | -55.7°C | 3.9% | 80.8hPa | 2.5V | 00:00:00 | 02:20:04 | 00:00:00 | |
| DO3MHA-11 | 2026-09-05 06:52:37 | 49.33514 | 9.07126 | 74° | 47km/h | 17935m | -18.0m/s | -55.8°C | 4.0% | 80.6hPa | 2.5V | 02:55:00 | 02:20:03 | 00:00:00 | |
| DM0DOS-11 | 2026-09-05 06:52:36 | 49.33495 | 9.07017 | 77° | 44km/h | 18043m | -17.9m/s | -55.6°C | 3.9% | 79.3hPa | 2.5V | 02:55:09 | 02:19:57 | 00:00:00 | |
| HSKMA3-T | 2026-09-05 06:52:33 | 49.33501 | 9.07051 | 76° | 47km/h | 18007m | -18m/s | -55.9°C | 0% | 79.8hPa | 2.6V | 02:55:42 | 02:19:59 | 00:00:00 | |
| BIOWL1-15 | 2026-09-05 06:52:32 | 49.33498 | 9.07034 | 76° | 46km/h | 18025m | -18m/s | -55.7°C | 0% | 79.6hPa | 2.6V | 02:55:42 | 02:19:58 | 00:00:00 | |
| DJ2DS-15 | 2026-09-05 06:52:31 | 49.33495 | 9.07017 | 78° | 42km/h | 18043m | -17.8m/s | -55.6°C | 3.9% | 79.3hPa | 2.5V | 02:55:00 | 02:19:57 | 00:00:00 | |
| DJ2DS-15 | 2026-09-05 06:52:30 | 49.33493 | 9.07000 | 80° | 44km/h | 18061m | -18.2m/s | -55.8°C | 0.8% | 79.1hPa | 2.5V | 00:00:00 | 00:00:00 | 00:00:00 | |
| DF1GD-15 | 2026-09-05 06:52:29 | 49.33493 | 9.07000 | 82° | 44km/h | 18061m | -18.2m/s | -55.8°C | 0.8% | 79.1hPa | 2.5V | 02:55:00 | 00:00:00 | 00:00:00 | |
| DG9SBQ-11 | 2026-09-05 06:52:28 | 49.33492 | 9.06983 | 85° | 44km/h | 18079m | -17.9m/s | -55.8°C | 0.8% | 78.9hPa | 2.5V | 02:55:00 | 00:00:00 | 00:00:00 | |
| HARRO8 | 2026-09-05 06:52:27 | 49.33494 | 9.06930 | 101° | 46km/h | 18133m | -18.0m/s | -56.1°C | 0.8% | 78.2hPa | 2.5V | 00:00:00 | 00:00:00 | 00:00:00 | |
| DM0DOS-11 | 2026-09-05 06:52:26 | 49.33510 | 9.06849 | 106° | 38km/h | 18223m | -17.8m/s | -56.1°C | 3.9% | 77.1hPa | 2.5V | 02:55:19 | 02:19:47 | 00:00:00 | |
| HSKMA3-T | 2026-09-05 06:52:22 | 49.33507 | 9.06863 | 108° | 42km/h | 18205m | -18.1m/s | -56.1°C | 0% | 77.4hPa | 2.5V | 02:55:42 | 02:19:48 | 00:00:00 | |
| BIOWL1-15 | 2026-09-05 06:52:20 | 49.33513 | 9.06834 | 103° | 38km/h | 18240m | -17.6m/s | -56°C | 0% | 76.9hPa | 2.6V | 02:55:42 | 02:19:46 | 00:00:00 | |
| DK5PH-5 | 2026-09-05 06:52:19 | 49.33514 | 9.06820 | 102° | 42km/h | 18258m | -17.7m/s | -55.9°C | 4.0% | 76.6hPa | 2.5V | 00:00:00 | 02:19:45 | 00:00:00 | |
| DO3MHA-11 | 2026-09-05 06:52:17 | 49.33517 | 9.06792 | 97° | 42km/h | 18294m | -17.4m/s | -55.5°C | 3.8% | 76.2hPa | 2.5V | 00:00:00 | 02:19:43 | 00:00:00 | |
| DM0DOS-11 | 2026-09-05 06:52:16 | 49.33519 | 9.06699 | 85° | 46km/h | 18401m | -17.9m/s | -55.5°C | 3.8% | 75hPa | 2.5V | 02:55:29 | 02:19:37 | 00:00:00 | |
| HSKMA3-T | 2026-09-05 06:52:11 | 49.33519 | 9.06699 | 85° | 46km/h | 18401m | -17.9m/s | -55.5°C | 0% | 75hPa | 2.5V | 02:55:42 | 02:19:37 | 00:00:00 | |
| BIOWL1-15 | 2026-09-05 06:52:10 | 49.33518 | 9.06681 | 84° | 47km/h | 18419m | -18.3m/s | -55.6°C | 0% | 74.8hPa | 2.6V | 02:55:42 | 02:19:36 | 00:00:00 | |
| SONDE2-11 | 2026-09-05 06:52:09 | 49.33517 | 9.06663 | 83° | 47km/h | 18438m | -18.5m/s | -55.8°C | 0.7% | 74.5hPa | 2.6V | 00:00:00 | 00:00:00 | 00:00:00 | |
| DF2AP-13 | 2026-09-05 06:52:08 | 49.33515 | 9.06645 | 83° | 40km/h | 18456m | -18.7m/s | -55.8°C | 4.0% | 74.3hPa | 2.6V | 00:00:00 | 02:19:34 | 00:00:00 | |
| DO3MHA-11 | 2026-09-05 06:52:07 | 49.33514 | 9.06627 | 83° | 49km/h | 18475m | -18.1m/s | -55.9°C | 4.0% | 74.1hPa | 2.6V | 02:55:00 | 02:19:33 | 00:00:00 | |
| DM0DOS-11 | 2026-09-05 06:52:06 | 49.33515 | 9.06514 | 98° | 51km/h | 18585m | -18.3m/s | -56.1°C | 4.1% | 72.9hPa | 2.5V | 02:55:39 | 02:19:27 | 00:00:00 | |
| HSKMA3-T | 2026-09-05 06:52:00 | 49.33517 | 9.06495 | 100° | 51km/h | 18603m | -18.4m/s | -56.1°C | 0% | 72.7hPa | 2.5V | 02:55:42 | 02:19:26 | 00:00:00 | |
| BIOWL1-15 | 2026-09-05 06:51:58 | 49.33521 | 9.06458 | 100° | 44km/h | 18640m | -18.8m/s | -56°C | 0% | 72.2hPa | 2.6V | 02:55:42 | 02:19:24 | 00:00:00 | |
| HSKMA3-T | 2026-09-05 06:51:50 | 49.33530 | 9.06359 | 95° | 29km/h | 18793m | -19.5m/s | -55°C | 0% | 70.5hPa | 2.6V | 02:56:33 | 02:19:16 | 00:00:00 | |
| BIOWL1-15 | 2026-09-05 06:51:50 | 49.33531 | 9.06335 | 91° | 33km/h | 18831m | -19.4m/s | -54.7°C | 0% | 70.1hPa | 2.6V | 02:56:33 | 02:19:14 | 00:00:00 | |
| DL6DJ-15 | 2026-09-05 06:51:50 | 49.33531 | 9.06347 | 95° | 29km/h | 18812m | -19.2m/s | -54.9°C | 0.7% | 70.3hPa | 2.5V | 00:00:00 | 00:00:00 | 00:00:00 | |
| HSKMA3-T | 2026-09-05 06:51:40 | 49.33528 | 9.06218 | 93° | 38km/h | 18993m | -20.8m/s | -55.2°C | 0% | 68.4hPa | 2.5V | 02:56:33 | 02:19:06 | 00:00:00 | |
| BIOWL1-15 | 2026-09-05 06:51:39 | 49.33530 | 9.06175 | 96° | 35km/h | 19054m | -19.3m/s | -54.9°C | 0% | 67.7hPa | 2.6V | 02:56:33 | 02:19:03 | 00:00:00 | |
| DK7TD | 2026-09-05 06:51:36 | 49.33531 | 9.06162 | 93° | 33km/h | 19074m | -20.8m/s | -55°C | 0% | 67.5hPa | 2.6V | 02:57:24 | 02:19:02 | 00:00:00 | |
| HSKMA3-T | 2026-09-05 06:51:29 | 49.33530 | 9.06072 | 95° | 37km/h | 19211m | -20.1m/s | -54.9°C | 0% | 66hPa | 2.5V | 02:56:33 | 02:18:55 | 00:00:00 | |
| DB0ND-19 | 2026-09-05 06:51:28 | 49.33531 | 9.06058 | 95° | 35km/h | 19230m | -19.0m/s | -55.0°C | 0.7% | 65.8hPa | 2.6V | 00:00:00 | 00:00:00 | 00:00:00 | |
| DB0UT-7 | 2026-09-05 06:51:27 | 49.33532 | 9.06044 | 94° | 33km/h | 19249m | -18.6m/s | -54.9°C | 3.9% | 65.6hPa | 2.6V | 00:00:00 | 00:00:00 | 00:00:00 | |
| DM0DOS-11 | 2026-09-05 06:51:26 | 49.33533 | 9.05949 | 94° | 55km/h | 19368m | -20m/s | -54.8°C | 3.9% | 64.4hPa | 2.6V | 02:56:19 | 02:18:47 | 00:00:00 | |
| DL1XH-west | 2026-09-05 06:51:26 | 49.33532 | 9.06031 | 92° | 33km/h | 19269m | -20.1m/s | -55°C | 0% | 65.4hPa | 2.6V | 02:56:33 | 02:18:52 | 00:00:00 | |
| BIOWL1-15 | 2026-09-05 06:51:25 | 49.33532 | 9.06019 | 92° | 35km/h | 19288m | -19.1m/s | -55°C | 0% | 65.3hPa | 2.6V | 02:56:33 | 02:18:51 | 00:00:00 | |
| SFWM-10 | 2026-09-05 06:51:24 | 49.33532 | 9.06019 | 93° | 35km/h | 19288m | -19.1m/s | -55.0°C | 0.7% | 65.3hPa | 2.6V | 02:56:00 | 00:00:00 | 00:00:00 | |
| DO3MHA-11 | 2026-09-05 06:51:23 | 49.33533 | 9.05988 | 91° | 44km/h | 19327m | -20.8m/s | -54.7°C | 3.9% | 64.8hPa | 2.6V | 00:00:00 | 02:18:49 | 00:00:00 | |
| DL4BBY-15 | 2026-09-05 06:51:22 | 49.33533 | 9.05969 | 92° | 33km/h | 19348m | -21.2m/s | -55.6°C | 0% | 0hPa | 2.6V | 00:00:00 | 00:00:00 | 00:00:00 | |
| DL1ZP-14 | 2026-09-05 06:51:21 | 49.33534 | 9.05949 | 94° | 53km/h | 19368m | -20.0m/s | -54.8°C | 0.7% | 64.4hPa | 2.6V | 00:00:00 | 00:00:00 | 00:00:00 | |
| NBG1-10 | 2026-09-05 06:51:19 | 49.33537 | 9.05910 | 102° | 40km/h | 19409m | -19.9m/s | -55.0°C | 4.0% | 63.9hPa | 2.6V | 00:00:00 | 02:18:45 | 00:00:00 | |
| DL1XH1-15 | 2026-09-05 06:51:18 | 49.33555 | 9.05829 | 107° | 29km/h | 19539m | -20.4m/s | -53.4°C | 3.4% | 62.7hPa | 2.6V | 02:56:27 | 02:18:39 | 00:00:00 | |
| HSKMA3-T | 2026-09-05 06:51:18 | 49.33540 | 9.05893 | 108° | 42km/h | 19430m | -23.2m/s | -55.2°C | 0% | 63.8hPa | 2.6V | 02:56:33 | 02:18:44 | 00:00:00 | |
| BIOWL1-15 | 2026-09-05 06:51:17 | 49.33550 | 9.05852 | 111° | 35km/h | 19497m | -21.2m/s | -54.2°C | 0% | 63.1hPa | 2.6V | 02:56:33 | 02:18:41 | 00:00:00 | |
| DL1XH-west | 2026-09-05 06:51:16 | 49.33547 | 9.05865 | 111° | 37km/h | 19476m | -21.7m/s | -54.8°C | 0% | 63.4hPa | 2.6V | 02:56:33 | 02:18:42 | 00:00:00 | |
| CB1BUN | 2026-09-05 06:51:15 | 49.33547 | 9.05865 | 112° | 37km/h | 19476m | -21.7m/s | -54.8°C | 0.7% | 63.4hPa | 2.7V | 02:56:00 | 00:00:00 | 00:00:00 | |
| EDDB2-11 | 2026-09-05 06:51:14 | 49.33555 | 9.05829 | 107° | 29km/h | 19539m | -20.4m/s | -53.4°C | 0.6% | 62.7hPa | 2.7V | 00:00:00 | 00:00:00 | 00:00:00 | |
| DO3MHA-11 | 2026-09-05 06:51:13 | 49.33555 | 9.05829 | 108° | 24km/h | 19539m | -20.3m/s | -53.3°C | 3.4% | 62.7hPa | 2.7V | 00:00:00 | 02:18:39 | 00:00:00 | |
| DJ2DS-15 | 2026-09-05 06:51:11 | 49.33558 | 9.05810 | 100° | 29km/h | 19579m | -20.1m/s | -53.2°C | 3.3% | 62.3hPa | 2.7V | 00:00:00 | 02:18:37 | 00:00:00 | |
| BIOWL7-15 | 2026-09-05 06:51:10 | 49.33558 | 9.05810 | 101° | 24km/h | 19579m | -20.2m/s | -53.3°C | 0.6% | 62.3hPa | 2.7V | 00:00:00 | 00:00:00 | 00:00:00 | |
| DL1XH1-15 | 2026-09-05 06:51:08 | 49.33543 | 9.05743 | 63° | 27km/h | 19741m | -20.5m/s | -53.2°C | 3.3% | 60.8hPa | 2.7V | 02:56:37 | 02:18:29 | 00:00:00 | |
| HSKMA3-T | 2026-09-05 06:51:07 | 49.33555 | 9.05777 | 67° | 22km/h | 19659m | -20.1m/s | -53.2°C | 0% | 61.5hPa | 2.6V | 02:56:33 | 02:18:33 | 00:00:00 | |
| DM0DOS-11 | 2026-09-05 06:51:06 | 49.33537 | 9.05724 | 61° | 27km/h | 19782m | -19.8m/s | -53.4°C | 3.4% | 60.4hPa | 2.6V | 02:56:39 | 02:18:27 | 00:00:00 | |
| DL1XH-west | 2026-09-05 06:51:05 | 49.33550 | 9.05761 | 60° | 26km/h | 19700m | -20.6m/s | -53.1°C | 0% | 61.2hPa | 2.6V | 02:57:24 | 02:18:31 | 00:00:00 | |
| BIOWL1-15 | 2026-09-05 06:51:04 | 49.33547 | 9.05752 | 61° | 26km/h | 19721m | -20.7m/s | -53.1°C | 0% | 61hPa | 2.6V | 02:57:24 | 02:18:30 | 00:00:00 | |
| DO3MHA-11 | 2026-09-05 06:51:03 | 49.33543 | 9.05743 | 64° | 31km/h | 19742m | -20.5m/s | -53.2°C | 3.3% | 60.7hPa | 2.7V | 02:56:00 | 02:18:29 | 00:00:00 | |
| DF7PN | 2026-09-05 06:51:01 | 49.33537 | 9.05724 | 61° | 26km/h | 19782m | -19.8m/s | -53.4°C | 0.6% | 60.4hPa | 2.6V | 00:00:00 | 00:00:00 | 00:00:00 | |
| SO1NDE-10 | 2026-09-05 06:51:00 | 49.33534 | 9.05715 | 62° | 38km/h | 19802m | -19.3m/s | -53.4°C | 3.4% | 60.2hPa | 2.6V | 00:00:00 | 02:18:26 | 00:00:00 | |
| DL1XH1-15 | 2026-09-05 06:50:58 | 49.33514 | 9.05633 | 77° | 37km/h | 19938m | -19.8m/s | -54.3°C | 3.6% | 58.9hPa | 2.6V | 02:56:47 | 02:18:19 | 00:00:00 | |
| DB0UT-7 | 2026-09-05 06:50:57 | 49.33524 | 9.05684 | 69° | 38km/h | 19860m | -19.5m/s | -53.7°C | 3.4% | 59.6hPa | 2.6V | 02:56:00 | 02:18:23 | 00:00:00 | |
| DM0DOS-11 | 2026-09-05 06:50:56 | 49.33511 | 9.05606 | 77° | 35km/h | 19978m | -20.1m/s | -54.3°C | 3.6% | 58.5hPa | 2.6V | 02:56:49 | 02:18:17 | 00:00:00 | |
| HSKMA3-T | 2026-09-05 06:50:56 | 49.33521 | 9.05672 | 72° | 33km/h | 19879m | -19.4m/s | -53.9°C | 0% | 59.5hPa | 2.6V | 02:57:24 | 02:18:22 | 00:00:00 | |
| DL1XH-west | 2026-09-05 06:50:55 | 49.33519 | 9.05659 | 74° | 35km/h | 19898m | -19.5m/s | -54°C | 0% | 59.3hPa | 2.6V | 02:57:24 | 02:18:21 | 00:00:00 | |
| KANTATE | 2026-09-05 06:50:54 | 49.33519 | 9.05659 | 75° | 35km/h | 19899m | -19.5m/s | -54.0°C | 0.6% | 59.3hPa | 2.5V | 02:57:00 | 00:00:00 | 00:00:00 | |
| DL1NUX | 2026-09-05 06:50:53 | 49.33506 | 9.05566 | 82° | 35km/h | 20039m | -20.2m/s | -54.1°C | 3.6% | 58hPa | 2.5V | 02:56:52 | 02:18:14 | 00:00:00 | |
| BIOWL1-15 | 2026-09-05 06:50:52 | 49.33512 | 9.05620 | 78° | 37km/h | 19958m | -20.1m/s | -54.3°C | 0% | 58.8hPa | 2.6V | 02:57:24 | 02:18:18 | 00:00:00 | |
| DK7TD | 2026-09-05 06:50:49 | 49.33507 | 9.05580 | 80° | 35km/h | 20018m | -20.3m/s | -54.2°C | 0% | 58.2hPa | 2.6V | 02:57:24 | 02:18:15 | 00:00:00 | |
| DK5PH-5 | 2026-09-05 06:50:49 | 49.33507 | 9.05580 | 81° | 35km/h | 20019m | -20.2m/s | -54.1°C | 3.6% | 58.2hPa | 2.6V | 00:00:00 | 02:18:15 | 00:00:00 | |
| DL1XH1-15 | 2026-09-05 06:50:48 | 49.33507 | 9.05499 | 100° | 37km/h | 20140m | -20.1m/s | -54.8°C | 3.9% | 57.1hPa | 2.6V | 02:56:57 | 02:18:09 | 00:00:00 | |
| DG9SBQ-11 | 2026-09-05 06:50:48 | 49.33506 | 9.05566 | 84° | 35km/h | 20039m | -20.2m/s | -54.1°C | 0.6% | 58.0hPa | 2.5V | 02:57:00 | 00:00:00 | 00:00:00 | |
| DF1GD-15 | 2026-09-05 06:50:47 | 49.33506 | 9.05566 | 84° | 35km/h | 20039m | -20.2m/s | -54.1°C | 0.7% | 58.0hPa | 2.5V | 02:57:00 | 00:00:00 | 00:00:00 | |
| DM0DOS-11 | 2026-09-05 06:50:46 | 49.33512 | 9.05472 | 107° | 38km/h | 20181m | -21.6m/s | -54.8°C | 3.8% | 56.7hPa | 2.5V | 02:56:59 | 02:18:07 | 00:00:00 | |
| DL1XH-west | 2026-09-05 06:50:45 | 49.33505 | 9.05526 | 94° | 35km/h | 20099m | -20.3m/s | -54.5°C | 0% | 57.4hPa | 2.6V | 02:57:24 | 02:18:11 | 00:00:00 | |
| DL1NUX | 2026-09-05 06:50:43 | 49.33522 | 9.05425 | 108° | 46km/h | 20255m | -28.3m/s | -54.7°C | 3.8% | 56.2hPa | 2.6V | 02:57:02 | 02:18:04 | 00:00:00 | |
| BIOWL1-15 | 2026-09-05 06:50:43 | 49.33512 | 9.05472 | 107° | 38km/h | 20181m | -21.6m/s | -54.8°C | 0% | 56.7hPa | 2.5V | 02:57:24 | 02:18:07 | 00:00:00 | |
| DO3MHA-11 | 2026-09-05 06:50:43 | 49.33507 | 9.05499 | 101° | 42km/h | 20140m | -20.1m/s | -54.7°C | 3.9% | 57.0hPa | 2.7V | 00:00:00 | 02:18:09 | 00:00:00 | |
| DJ2DS-15 | 2026-09-05 06:50:42 | 49.33509 | 9.05486 | 103° | 37km/h | 20160m | -20.4m/s | -54.9°C | 0.7% | 56.9hPa | 2.7V | 00:00:00 | 00:00:00 | 00:00:00 | |
| DO3DL | 2026-09-05 06:50:41 | 49.33509 | 9.05486 | 105° | 37km/h | 20160m | -20.4m/s | -54.9°C | 0.7% | 56.9hPa | 2.7V | 02:57:00 | 00:00:00 | 00:00:00 | |
| DF3TZ-5 | 2026-09-05 06:50:40 | 49.33515 | 9.05457 | 108° | 40km/h | 20204m | -24.5m/s | -54.7°C | 0.6% | 56.6hPa | 2.7V | 00:00:00 | 00:00:00 | 00:00:00 | |
| DM7RM-13 | 2026-09-05 06:50:39 | 49.33515 | 9.05457 | 110° | 42km/h | 20204m | -24.5m/s | -54.7°C | 0.7% | 56.6hPa | 2.7V | 02:57:00 | 00:00:00 | 00:00:00 | |
| DL1XH1-15 | 2026-09-05 06:50:38 | 49.33546 | 9.05350 | 126° | 42km/h | 20383m | -23.2m/s | -54.4°C | 3.9% | 55hPa | 2.7V | 02:57:07 | 02:17:59 | 00:00:00 | |
| DK7TD | 2026-09-05 06:50:37 | 49.33525 | 9.05408 | 110° | 46km/h | 20283m | -27.1m/s | -54.7°C | 0% | 56hPa | 2.6V | 02:57:24 | 02:18:03 | 00:00:00 | |
| DL1XH-west | 2026-09-05 06:50:35 | 49.33534 | 9.05377 | 119° | 44km/h | 20335m | -24.7m/s | -54.7°C | 0% | 55.4hPa | 2.6V | 02:57:24 | 02:18:01 | 00:00:00 | |
| BIOWL1-15 | 2026-09-05 06:50:31 | 49.33559 | 9.05326 | 134° | 42km/h | 20429m | -23.2m/s | -53.9°C | 0% | 54.6hPa | 2.6V | 02:57:24 | 02:17:57 | 00:00:00 | |
| DJ2DS-15 | 2026-09-05 06:50:31 | 49.33559 | 9.05326 | 135° | 27km/h | 20429m | -23.1m/s | -53.8°C | 3.7% | 54.6hPa | 2.6V | 02:57:00 | 02:17:57 | 00:00:00 | |
| DH7VM-15 | 2026-09-05 06:50:30 | 49.33583 | 9.05315 | 137° | 40km/h | 20453m | -23.3m/s | -53.8°C | 0.6% | 54.4hPa | 2.6V | 00:00:00 | 00:00:00 | 00:00:00 | |
| DM3KS-11 | 2026-09-05 06:50:29 | 49.33574 | 9.05305 | 135° | 37km/h | 20476m | -23.2m/s | -53.9°C | 0.6% | 54.2hPa | 2.6V | 00:00:00 | 00:00:00 | 00:00:00 | |
| DL1XH1-15 | 2026-09-05 06:50:28 | 49.33603 | 9.05251 | 123° | 26km/h | 20615m | -23.1m/s | -54°C | 3.7% | 53hPa | 2.6V | 02:57:17 | 02:17:49 | 00:00:00 | |
| DK7TD | 2026-09-05 06:50:27 | 49.33586 | 9.05285 | 133° | 33km/h | 20522m | -23.3m/s | -53.8°C | 0% | 53.8hPa | 2.6V | 02:57:24 | 02:17:53 | 00:00:00 | |
| SO1NDE-10 | 2026-09-05 06:50:27 | 49.33586 | 9.05285 | 133° | 18km/h | 20522m | -23.2m/s | -53.8°C | 3.6% | 53.8hPa | 2.7V | 00:00:00 | 02:17:53 | 00:00:00 | |
| DM0DOS-11 | 2026-09-05 06:50:26 | 49.33611 | 9.05235 | 127° | 27km/h | 20661m | -23.2m/s | -53.6°C | 3.5% | 52.7hPa | 2.7V | 02:57:19 | 02:17:47 | 00:00:00 | |
| DL1XH-west | 2026-09-05 06:50:24 | 49.33600 | 9.05259 | 125° | 26km/h | 20592m | -23.1m/s | -54°C | 0% | 53.3hPa | 2.6V | 02:57:24 | 02:17:50 | 00:00:00 | |
| BIOWL1-15 | 2026-09-05 06:50:22 | 49.33615 | 9.05227 | 130° | 27km/h | 20684m | -23.2m/s | -53.3°C | 0% | 52.5hPa | 2.6V | 02:57:24 | 02:17:46 | 00:00:00 | |
| DL4BBY-15 | 2026-09-05 06:50:22 | 49.33607 | 9.05243 | 127° | 15km/h | 20638m | -23.2m/s | -54.7°C | 0% | 0hPa | 2.6V | 00:00:00 | 00:00:00 | 00:00:00 | |
| DO3DL | 2026-09-05 06:50:21 | 49.33607 | 9.05243 | 128° | 26km/h | 20638m | -23.3m/s | -53.9°C | 0.6% | 52.8hPa | 2.6V | 02:57:00 | 00:00:00 | 00:00:00 | |
| DG9SBQ-11 | 2026-09-05 06:50:20 | 49.33611 | 9.05235 | 128° | 27km/h | 20661m | -23.2m/s | -53.6°C | 0.6% | 52.7hPa | 2.6V | 02:57:00 | 00:00:00 | 00:00:00 | |
| DK5PH-5 | 2026-09-05 06:50:19 | 49.33620 | 9.05219 | 133° | 13km/h | 20708m | -23.0m/s | -52.9°C | 3.3% | 52.2hPa | 2.6V | 00:00:00 | 02:17:45 | 00:00:00 | |
| DL1XH1-15 | 2026-09-05 06:50:18 | 49.33651 | 9.05189 | 171° | 18km/h | 20847m | -23.1m/s | -52.8°C | 3.3% | 51.2hPa | 2.6V | 02:57:27 | 02:17:39 | 00:00:00 | |
| DL6DJ-15 | 2026-09-05 06:50:17 | 49.33636 | 9.05198 | 145° | 24km/h | 20777m | -23.5m/s | -52.9°C | 0.5% | 51.7hPa | 2.6V | 00:00:00 | 00:00:00 | 00:00:00 | |
| DM0DOS-11 | 2026-09-05 06:50:16 | 49.33660 | 9.05188 | 181° | 18km/h | 20894m | -23.3m/s | -52.5°C | 3.2% | 50.8hPa | 2.6V | 02:57:29 | 02:17:37 | 00:00:00 | |
| DK7TD | 2026-09-05 06:50:16 | 49.33636 | 9.05198 | 146° | 26km/h | 20777m | -23.5m/s | -52.9°C | 0% | 51.7hPa | 2.6V | 02:57:24 | 02:17:42 | 00:00:00 | |
| DL1XH-west | 2026-09-05 06:50:14 | 49.33646 | 9.05190 | 163° | 20km/h | 20824m | -23.2m/s | -52.8°C | 0% | 51.4hPa | 2.7V | 02:58:15 | 02:17:40 | 00:00:00 | |
| HSKMA3-T | 2026-09-05 06:50:13 | 49.33651 | 9.05189 | 171° | 18km/h | 20847m | -23.2m/s | -52.8°C | 0% | 51.2hPa | 2.6V | 02:58:15 | 02:17:39 | 00:00:00 | |
| BIOWL1-15 | 2026-09-05 06:50:12 | 49.33664 | 9.05188 | 182° | 16km/h | 20917m | -23.4m/s | -52.4°C | 0% | 50.6hPa | 2.6V | 02:58:15 | 02:17:36 | 00:00:00 | |
| DF8AY | 2026-09-05 06:50:09 | 49.33668 | 9.05189 | 182° | 15km/h | 20941m | -23.6m/s | -52.5°C | 0% | 50.4hPa | 2.7V | 02:58:15 | 02:17:35 | 00:00:00 | |
| DL1XH1-15 | 2026-09-05 06:50:08 | 49.33673 | 9.05192 | 313° | 4km/h | 21082m | -23.9m/s | -53.2°C | 3.4% | 49.3hPa | 2.6V | 02:57:37 | 02:17:29 | 00:00:00 | |
| DF2AP-13 | 2026-09-05 06:50:08 | 49.33671 | 9.05189 | 184° | 11km/h | 20964m | -23.4m/s | -52.4°C | 3.1% | 50.2hPa | 2.6V | 02:57:00 | 02:17:34 | 00:00:00 | |
| DO3DL | 2026-09-05 06:50:07 | 49.33671 | 9.05189 | 185° | 11km/h | 20964m | -23.5m/s | -52.5°C | 0.5% | 50.2hPa | 2.6V | 02:58:00 | 00:00:00 | 00:00:00 | |
| DM0DOS-11 | 2026-09-05 06:50:06 | 49.33672 | 9.05194 | 23° | 0km/h | 21130m | -23.8m/s | -53.2°C | 3.4% | 48.9hPa | 2.6V | 02:57:39 | 02:17:27 | 00:00:00 | |
| DL1XH-west | 2026-09-05 06:50:03 | 49.33673 | 9.05192 | 313° | 4km/h | 21082m | -23.9m/s | -53.2°C | 0% | 49.3hPa | 2.6V | 02:58:15 | 02:17:29 | 00:00:00 | |
| HSKMA3-T | 2026-09-05 06:50:02 | 49.33673 | 9.05194 | 315° | 4km/h | 21106m | -23.7m/s | -53.1°C | 0% | 49.1hPa | 2.6V | 02:58:15 | 02:17:28 | 00:00:00 | |
| DF8AY | 2026-09-05 06:50:00 | 49.33670 | 9.05175 | 57° | 13km/h | 21273m | -23.6m/s | -53.7°C | 0% | 47.9hPa | 2.6V | 02:58:15 | 02:17:21 | 00:00:00 | |
| BIOWL1-15 | 2026-09-05 06:49:59 | 49.33673 | 9.05191 | 102° | 7km/h | 21178m | -23.9m/s | -53.5°C | 0% | 48.6hPa | 2.6V | 02:58:15 | 02:17:25 | 00:00:00 | |
| DM3KS-11 | 2026-09-05 06:49:58 | 49.33673 | 9.05184 | 77° | 11km/h | 21225m | -23.9m/s | -53.6°C | 0.5% | 48.3hPa | 2.6V | 00:00:00 | 00:00:00 | 00:00:00 | |
| SO1NDE-10 | 2026-09-05 06:49:57 | 49.33673 | 9.05184 | 78° | 16km/h | 21225m | -23.8m/s | -53.6°C | 3.5% | 48.2hPa | 2.6V | 02:57:00 | 02:17:23 | 00:00:00 | |
| DM0DOS-11 | 2026-09-05 06:49:56 | 49.33665 | 9.05161 | 80° | 11km/h | 21367m | -23.6m/s | -54.2°C | 3.7% | 47.2hPa | 2.7V | 02:57:49 | 02:17:17 | 00:00:00 | |
| DL1XH-west | 2026-09-05 06:49:53 | 49.33667 | 9.05168 | 56° | 11km/h | 21320m | -23.8m/s | -53.9°C | 0% | 47.5hPa | 2.6V | 02:58:15 | 02:17:19 | 00:00:00 | |
| HSKMA3-T | 2026-09-05 06:49:52 | 49.33666 | 9.05164 | 64° | 11km/h | 21343m | -23.6m/s | -54°C | 0% | 47.3hPa | 2.6V | 02:58:15 | 02:17:18 | 00:00:00 | |
| BIOWL1-15 | 2026-09-05 06:49:49 | 49.33665 | 9.05151 | 94° | 15km/h | 21414m | -23.6m/s | -54.3°C | 0% | 46.8hPa | 2.6V | 02:58:15 | 02:17:15 | 00:00:00 | |
| DL1ZP-14 | 2026-09-05 06:49:48 | 49.33665 | 9.05145 | 94° | 15km/h | 21438m | -24.0m/s | -54.1°C | 0.6% | 46.7hPa | 2.6V | 00:00:00 | 00:00:00 | 00:00:00 | |
| OE5DRO-10 | 2026-09-05 06:49:47 | 49.33666 | 9.05139 | 91° | 16km/h | 21462m | -24.0m/s | -54.0°C | 3.7% | 46.4hPa | 2.6V | 02:57:00 | 00:00:00 | 00:00:00 | |
| DM0DOS-11 | 2026-09-05 06:49:46 | 49.33665 | 9.05103 | 87° | 18km/h | 21608m | -24.1m/s | -53.5°C | 3.5% | 45.4hPa | 2.6V | 02:57:59 | 02:17:07 | 00:00:00 | |
| DL6DJ-15 | 2026-09-05 06:49:45 | 49.33666 | 9.05127 | 86° | 15km/h | 21511m | -24.3m/s | -53.8°C | 0.5% | 46.1hPa | 2.6V | 00:00:00 | 00:00:00 | 00:00:00 | |
| DL1XH-west | 2026-09-05 06:49:42 | 49.33665 | 9.05109 | 88° | 16km/h | 21583m | -24.4m/s | -53.5°C | 0% | 45.6hPa | 2.6V | 02:58:15 | 02:17:08 | 00:00:00 | |
| HSKMA3-T | 2026-09-05 06:49:41 | 49.33665 | 9.05103 | 87° | 18km/h | 21608m | -24.1m/s | -53.5°C | 0% | 45.4hPa | 2.6V | 02:58:15 | 02:17:07 | 00:00:00 | |
| BIOWL1-15 | 2026-09-05 06:49:40 | 49.33663 | 9.05083 | 79° | 18km/h | 21681m | -24.5m/s | -53.1°C | 0% | 44.9hPa | 2.6V | 02:58:15 | 02:17:04 | 00:00:00 | |
| DL1XH1-15 | 2026-09-05 06:49:38 | 49.33657 | 9.05056 | 67° | 13km/h | 21806m | -24.8m/s | -53.3°C | 3.4% | 44.1hPa | 2.7V | 02:58:07 | 02:16:59 | 00:00:00 | |
| DF2AP-13 | 2026-09-05 06:49:38 | 49.33663 | 9.05083 | 79° | 18km/h | 21681m | -24.4m/s | -53.0°C | 3.4% | 44.9hPa | 2.6V | 00:00:00 | 02:17:04 | 00:00:00 | |
| DG9SBQ-11 | 2026-09-05 06:49:37 | 49.33662 | 9.05077 | 75° | 18km/h | 21706m | -25.0m/s | -53.1°C | 0.5% | 44.7hPa | 2.6V | 02:58:00 | 00:00:00 | 00:00:00 | |
| DM0DOS-11 | 2026-09-05 06:49:36 | 49.33655 | 9.05048 | 57° | 15km/h | 21856m | -24.9m/s | -53.5°C | 3.5% | 43.7hPa | 2.6V | 02:58:09 | 02:16:57 | 00:00:00 | |
| DL1XH-west | 2026-09-05 06:49:32 | 49.33656 | 9.05052 | 65° | 11km/h | 21831m | -25.1m/s | -53.5°C | 0% | 43.9hPa | 2.6V | 02:58:15 | 02:16:58 | 00:00:00 | |
| DF8AY | 2026-09-05 06:49:31 | 49.33655 | 9.05048 | 58° | 15km/h | 21856m | -24.9m/s | -53.5°C | 0% | 43.7hPa | 2.6V | 02:58:15 | 02:16:57 | 00:00:00 | |
| HSKMA3-T | 2026-09-05 06:49:30 | 49.33653 | 9.05043 | 61° | 16km/h | 21881m | -24.8m/s | -53.6°C | 0% | 43.5hPa | 2.6V | 02:58:15 | 02:16:56 | 00:00:00 | |
| NBG1-10 | 2026-09-05 06:49:30 | 49.33653 | 9.05043 | 62° | 15km/h | 21882m | -24.7m/s | -53.5°C | 3.6% | 43.5hPa | 2.6V | 00:00:00 | 02:16:56 | 00:00:00 | |
| DL1XH1-15 | 2026-09-05 06:49:28 | 49.33647 | 9.04994 | 111° | 15km/h | 22056m | -25.4m/s | -53.6°C | 3.6% | 42.4hPa | 2.6V | 02:58:17 | 02:16:49 | 00:00:00 | |
| BIOWL1-15 | 2026-09-05 06:49:28 | 49.33649 | 9.05030 | 75° | 22km/h | 21931m | -24.8m/s | -53.6°C | 0% | 43.2hPa | 2.6V | 02:58:15 | 02:16:54 | 00:00:00 | |
| DL1XH-west | 2026-09-05 06:49:22 | 49.33648 | 9.04989 | 122° | 15km/h | 22081m | -25.5m/s | -53.2°C | 0% | 42.2hPa | 2.6V | 02:59:06 | 02:16:48 | 00:00:00 | |
| DF8AY | 2026-09-05 06:49:20 | 49.33652 | 9.04980 | 121° | 15km/h | 22132m | -25.6m/s | -52.8°C | 0% | 41.9hPa | 2.6V | 02:59:06 | 02:16:46 | 00:00:00 | |
| HSKMA3-T | 2026-09-05 06:49:19 | 49.33654 | 9.04975 | 117° | 16km/h | 22158m | -25.3m/s | -52.8°C | 0% | 41.7hPa | 2.6V | 02:59:06 | 02:16:45 | 00:00:00 | |
| BIOWL1-15 | 2026-09-05 06:49:17 | 49.33656 | 9.04963 | 100° | 15km/h | 22208m | -25.2m/s | -52.5°C | 0% | 41.4hPa | 2.6V | 02:59:06 | 02:16:43 | 00:00:00 | |
| DL1XH-west | 2026-09-05 06:49:11 | 49.33653 | 9.04920 | 83° | 22km/h | 22363m | -25.6m/s | -52.9°C | 0% | 40.4hPa | 2.6V | 02:59:06 | 02:16:37 | 00:00:00 | |
| DF8AY | 2026-09-05 06:49:10 | 49.33653 | 9.04911 | 85° | 24km/h | 22388m | -25.4m/s | -53.1°C | 0% | 40.2hPa | 2.6V | 02:59:06 | 02:16:36 | 00:00:00 | |
| HSKMA3-T | 2026-09-05 06:49:09 | 49.33653 | 9.04902 | 91° | 24km/h | 22413m | -25.7m/s | -53.2°C | 0% | 40.1hPa | 2.7V | 02:59:06 | 02:16:35 | 00:00:00 | |
| DK7TD | 2026-09-05 06:49:07 | 49.33654 | 9.04884 | 100° | 26km/h | 22465m | -25.9m/s | -53.3°C | 0% | 39.8hPa | 2.6V | 02:59:06 | 02:16:33 | 00:00:00 | |
| DM0DOS-11 | 2026-09-05 06:49:06 | 49.33662 | 9.04849 | 116° | 4km/h | 22625m | -26.8m/s | -52.4°C | 3.3% | 38.8hPa | 2.6V | 02:58:39 | 02:16:27 | 00:00:00 | |
| BIOWL1-15 | 2026-09-05 06:49:06 | 49.33655 | 9.04875 | 103° | 22km/h | 22491m | -26.1m/s | -53.1°C | 0% | 39.6hPa | 2.6V | 02:59:06 | 02:16:32 | 00:00:00 | |
| SONCRA | 2026-09-05 06:49:06 | 49.33656 | 9.04868 | 108° | 18km/h | 22518m | -26.0m/s | -52.7°C | 0.5% | 39.5hPa | 2.6V | 00:00:00 | 00:00:00 | 00:00:00 | |
| DL1NUX | 2026-09-05 06:49:04 | 49.33662 | 9.04848 | 207° | 0km/h | 22680m | -27.3m/s | -52.2°C | 3.2% | 38.5hPa | 2.6V | 02:58:41 | 02:16:25 | 00:00:00 | |
| DL1XH-west | 2026-09-05 06:49:00 | 49.33662 | 9.04848 | 127° | 2km/h | 22653m | -27.1m/s | -52.3°C | 0% | 38.6hPa | 2.7V | 02:59:06 | 02:16:26 | 00:00:00 | |
| DF8AY | 2026-09-05 06:48:59 | 49.33663 | 9.04848 | 207° | 0km/h | 22680m | -27.3m/s | -52.2°C | 0% | 38.5hPa | 2.6V | 02:59:06 | 02:16:25 | 00:00:00 | |
| HSKMA3-T | 2026-09-05 06:48:58 | 49.33662 | 9.04848 | 343° | 4km/h | 22707m | -27.2m/s | -51.8°C | 0% | 38.4hPa | 2.6V | 02:59:06 | 02:16:24 | 00:00:00 | |
| DK7TD | 2026-09-05 06:48:56 | 49.33659 | 9.04849 | 340° | 7km/h | 22762m | -27.1m/s | -51.5°C | 0% | 38hPa | 2.7V | 02:59:06 | 02:16:22 | 00:00:00 | |
| DM0DOS-11 | 2026-09-05 06:48:56 | 49.33646 | 9.04848 | 358° | 15km/h | 22896m | -26.7m/s | -51.9°C | 3.1% | 37.2hPa | 2.7V | 02:58:49 | 02:16:17 | 00:00:00 | |
| DJ2DS-15 | 2026-09-05 06:48:54 | 49.33653 | 9.04849 | 16° | 9km/h | 22843m | -26.5m/s | -51.7°C | 0.4% | 37.5hPa | 2.7V | 00:00:00 | 00:00:00 | 00:00:00 | |
| HEMX73-11 | 2026-09-05 06:48:53 | 49.33653 | 9.04849 | 18° | 11km/h | 22843m | -26.5m/s | -51.7°C | 0.4% | 37.5hPa | 2.7V | 02:59:00 | 00:00:00 | 00:00:00 | |
| DL4BBY-15 | 2026-09-05 06:48:52 | 49.33650 | 9.04848 | 10° | 11km/h | 22869m | -26.2m/s | -52.6°C | 0% | 0hPa | 2.7V | 00:00:00 | 00:00:00 | 00:00:00 | |
| DL1NUX | 2026-09-05 06:48:51 | 49.33632 | 9.04844 | 19° | 11km/h | 23030m | -26.4m/s | -52°C | 3.1% | 36.4hPa | 2.7V | 02:58:54 | 02:16:12 | 00:00:00 | |
| DL1XH-west | 2026-09-05 06:48:50 | 49.33643 | 9.04848 | 2° | 15km/h | 22922m | -27.3m/s | -52°C | 0% | 37.1hPa | 2.6V | 02:59:06 | 02:16:16 | 00:00:00 | |
| SO1NDE-10 | 2026-09-05 06:48:50 | 49.33643 | 9.04848 | 3° | 13km/h | 22923m | -27.2m/s | -52.0°C | 3.1% | 37.0hPa | 2.6V | 00:00:00 | 02:16:16 | 00:00:00 | |
| IW2NTF | 2026-09-05 06:48:49 | 49.33627 | 9.04839 | 43° | 13km/h | 23083m | -26.5m/s | -52°C | 3% | 36.1hPa | 2.6V | 02:58:56 | 02:16:10 | 00:00:00 | |
| DF8AY | 2026-09-05 06:48:48 | 49.33637 | 9.04847 | 13° | 11km/h | 22977m | -27.1m/s | -51.9°C | 0% | 36.8hPa | 2.6V | 02:59:06 | 02:16:14 | 00:00:00 | |
| HSKMA3-T | 2026-09-05 06:48:47 | 49.33634 | 9.04846 | 18° | 11km/h | 23004m | -26.5m/s | -51.9°C | 0% | 36.6hPa | 2.6V | 02:59:06 | 02:16:13 | 00:00:00 | |
| BIOWL1-15 | 2026-09-05 06:48:45 | 49.33629 | 9.04842 | 31° | 13km/h | 23057m | -26.6m/s | -51.9°C | 0% | 36.3hPa | 2.7V | 02:59:06 | 02:16:11 | 00:00:00 | |
| DL1XH-west | 2026-09-05 06:48:39 | 49.33616 | 9.04817 | 63° | 13km/h | 23214m | -26.5m/s | -52.5°C | 0% | 35.4hPa | 2.6V | 02:59:06 | 02:16:05 | 00:00:00 | |
| DF8AY | 2026-09-05 06:48:38 | 49.33615 | 9.04813 | 75° | 13km/h | 23240m | -26.8m/s | -52.6°C | 0% | 35.3hPa | 2.6V | 02:59:06 | 02:16:04 | 00:00:00 | |
| HSKMA3-T | 2026-09-05 06:48:37 | 49.33614 | 9.04808 | 75° | 15km/h | 23266m | -26.7m/s | -52.7°C | 0% | 35.1hPa | 2.6V | 02:59:06 | 02:16:03 | 00:00:00 | |
| DK7TD | 2026-09-05 06:48:34 | 49.33613 | 9.04794 | 88° | 11km/h | 23345m | -27m/s | -53°C | 0% | 34.7hPa | 2.7V | 02:59:06 | 02:16:00 | 00:00:00 | |
| DB0NH | 2026-09-05 06:48:34 | 49.33612 | 9.04794 | 89° | 13km/h | 23345m | -26.9m/s | -52.9°C | 3.3% | 34.6hPa | 2.7V | 00:00:00 | 02:16:00 | 00:00:00 | |
| DO3MHA-11 | 2026-09-05 06:48:33 | 49.33612 | 9.04790 | 87° | 7km/h | 23372m | -26.9m/s | -53.0°C | 3.4% | 34.5hPa | 2.7V | 02:59:00 | 02:15:59 | 00:00:00 | |
| SONDE2-11 | 2026-09-05 06:48:32 | 49.33612 | 9.04786 | 69° | 7km/h | 23399m | -27.0m/s | -53.2°C | 0.5% | 34.4hPa | 2.6V | 00:00:00 | 00:00:00 | 00:00:00 | |
| IW2NTF | 2026-09-05 06:48:31 | 49.33608 | 9.04776 | 69° | 5km/h | 23563m | -28.2m/s | -53.9°C | 3.7% | 33.5hPa | 2.6V | 02:59:14 | 02:15:52 | 00:00:00 | |
| DL1XH-west | 2026-09-05 06:48:28 | 49.33610 | 9.04779 | 8° | 4km/h | 23508m | -27.5m/s | -53.8°C | 0% | 33.8hPa | 2.6V | 02:59:57 | 02:15:54 | 00:00:00 | |
| HSKMA3-T | 2026-09-05 06:48:26 | 49.33608 | 9.04777 | 69° | 5km/h | 23563m | -28.2m/s | -53.9°C | 0% | 33.5hPa | 2.6V | 02:59:57 | 02:15:52 | 00:00:00 | |
| BIOWL1-15 | 2026-09-05 06:48:23 | 49.33606 | 9.04765 | 78° | 13km/h | 23647m | -27.5m/s | -53.7°C | 0% | 33.1hPa | 2.6V | 02:59:57 | 02:15:49 | 00:00:00 | |
| DO3MHA-11 | 2026-09-05 06:48:23 | 49.33606 | 9.04765 | 78° | 26km/h | 23647m | -27.4m/s | -53.7°C | 3.7% | 33.0hPa | 2.6V | 00:00:00 | 02:15:49 | 00:00:00 | |
| DL4BBY-15 | 2026-09-05 06:48:22 | 49.33606 | 9.04759 | 90° | 24km/h | 23674m | -27.6m/s | -54.4°C | 0% | 0hPa | 2.6V | 00:00:00 | 00:00:00 | 00:00:00 | |
| IW2NTF | 2026-09-05 06:48:21 | 49.33613 | 9.04702 | 106° | 35km/h | 23839m | -27.5m/s | -52.6°C | 3.4% | 32.1hPa | 2.6V | 02:59:24 | 02:15:42 | 00:00:00 | |
| DL1XH-west | 2026-09-05 06:48:18 | 49.33609 | 9.04724 | 101° | 27km/h | 23783m | -27.7m/s | -52.8°C | 0% | 32.4hPa | 2.6V | 02:59:57 | 02:15:44 | 00:00:00 | |
| DF8AY | 2026-09-05 06:48:17 | 49.33611 | 9.04714 | 107° | 31km/h | 23811m | -28m/s | -52.6°C | 0% | 32.2hPa | 2.6V | 02:59:57 | 02:15:43 | 00:00:00 | |
| HSKMA3-T | 2026-09-05 06:48:16 | 49.33613 | 9.04702 | 106° | 35km/h | 23839m | -27.5m/s | -52.6°C | 0% | 32.1hPa | 2.6V | 02:59:57 | 02:15:42 | 00:00:00 | |
| DK7TD | 2026-09-05 06:48:12 | 49.33629 | 9.04648 | 118° | 40km/h | 23952m | -28.7m/s | -52.8°C | 0% | 31.6hPa | 2.6V | 02:59:57 | 02:15:38 | 00:00:00 | |
| DG9SBQ-11 | 2026-09-05 06:48:11 | 49.33629 | 9.04648 | 119° | 40km/h | 23952m | -28.7m/s | -52.8°C | 0.4% | 31.6hPa | 2.7V | 02:59:00 | 00:00:00 | 00:00:00 | |
| DJ2DS-15 | 2026-09-05 06:48:10 | 49.33640 | 9.04625 | 134° | 18km/h | 24009m | -28.8m/s | -52.5°C | 3.4% | 31.2hPa | 2.7V | 00:00:00 | 02:15:36 | 00:00:00 | |
| DL0LBS | 2026-09-05 06:48:09 | 49.33640 | 9.04625 | 134° | 37km/h | 24009m | -28.9m/s | -52.6°C | 0.5% | 31.3hPa | 2.7V | 02:59:00 | 00:00:00 | 00:00:00 | |
| DL1XH1-15 | 2026-09-05 06:48:08 | 49.33674 | 9.04588 | 145° | 18km/h | 24210m | -28.8m/s | -52.6°C | 3.4% | 30.3hPa | 2.7V | 02:59:37 | 02:15:29 | 00:00:00 | |
| NBG1-10 | 2026-09-05 06:48:08 | 49.33652 | 9.04607 | 143° | 15km/h | 24066m | -28.4m/s | -52.3°C | 3.3% | 30.9hPa | 2.6V | 00:00:00 | 02:15:34 | 00:00:00 | |
| DL1XH-west | 2026-09-05 06:48:08 | 49.33652 | 9.04607 | 142° | 29km/h | 24066m | -28.5m/s | -52.4°C | 0% | 31hPa | 2.6V | 02:59:57 | 02:15:34 | 00:00:00 | |
| EDDB2-11 | 2026-09-05 06:48:07 | 49.33658 | 9.04601 | 150° | 22km/h | 24095m | -28.5m/s | -52.3°C | 0.4% | 30.9hPa | 2.6V | 00:00:00 | 00:00:00 | 00:00:00 | |
| DM0DOS-11 | 2026-09-05 06:48:06 | 49.33680 | 9.04581 | 140° | 15km/h | 24267m | -29m/s | -52.5°C | 3.4% | 30hPa | 2.6V | 02:59:39 | 02:15:27 | 00:00:00 | |
| DF8AY | 2026-09-05 06:48:06 | 49.33662 | 9.04597 | 158° | 18km/h | 24123m | -28.6m/s | -52.3°C | 0% | 30.7hPa | 2.6V | 02:59:57 | 02:15:32 | 00:00:00 | |
| HSKMA3-T | 2026-09-05 06:48:05 | 49.33666 | 9.04594 | 156° | 18km/h | 24152m | -29m/s | -52.4°C | 0% | 30.6hPa | 2.6V | 02:59:57 | 02:15:31 | 00:00:00 | |
| DK7TD | 2026-09-05 06:48:02 | 49.33677 | 9.04585 | 140° | 16km/h | 24239m | -28.6m/s | -52.6°C | 0% | 30.2hPa | 2.6V | 02:59:57 | 02:15:28 | 00:00:00 | |
| SONDE2-11 | 2026-09-05 06:48:01 | 49.33684 | 9.04577 | 142° | 16km/h | 24296m | -29.1m/s | -52.3°C | 0.4% | 29.9hPa | 2.7V | 00:00:00 | 00:00:00 | 00:00:00 | |
| DG9SBQ-11 | 2026-09-05 06:47:59 | 49.33684 | 9.04577 | 143° | 18km/h | 24297m | -29.1m/s | -52.3°C | 0.4% | 29.9hPa | 2.7V | 02:59:00 | 00:00:00 | 00:00:00 | |
| DL1XH1-15 | 2026-09-05 06:47:58 | 49.33711 | 9.04561 | 173° | 15km/h | 24500m | -29.6m/s | -51.5°C | 3.1% | 29hPa | 2.7V | 02:59:47 | 02:15:19 | 00:00:00 | |
| DL1XH-west | 2026-09-05 06:47:58 | 49.33692 | 9.04569 | 146° | 16km/h | 24354m | -29m/s | -52°C | 0% | 29.6hPa | 2.6V | 02:59:57 | 02:15:24 | 00:00:00 | |
| DF8AY | 2026-09-05 06:47:56 | 49.33699 | 9.04565 | 163° | 15km/h | 24412m | -29.3m/s | -51.9°C | 0% | 29.4hPa | 2.6V | 02:59:57 | 02:15:22 | 00:00:00 | |
| HSKMA3-T | 2026-09-05 06:47:54 | 49.33707 | 9.04561 | 166° | 16km/h | 24471m | -29.6m/s | -51.6°C | 0% | 29.1hPa | 2.7V | 02:59:57 | 02:15:20 | 00:00:00 | |
| DK7TD | 2026-09-05 06:47:51 | 49.33720 | 9.04559 | 172° | 18km/h | 24559m | -29.6m/s | -51.5°C | 0% | 28.7hPa | 2.6V | 02:59:57 | 02:15:17 | 00:00:00 | |
| BIOWL1-15 | 2026-09-05 06:47:50 | 49.33724 | 9.04559 | 181° | 15km/h | 24589m | -30m/s | -51.5°C | 0% | 28.6hPa | 2.6V | 02:59:57 | 02:15:16 | 00:00:00 | |
| DJ2DS-15 | 2026-09-05 06:47:49 | 49.33727 | 9.04560 | 192° | 11km/h | 24619m | -29.9m/s | -51.4°C | 3.1% | 28.4hPa | 2.7V | 00:00:00 | 02:15:15 | 00:00:00 | |
| DL1XH1-15 | 2026-09-05 06:47:48 | 49.33746 | 9.04572 | 239° | 9km/h | 24799m | -30.4m/s | -51.4°C | 3.1% | 27.6hPa | 2.7V | 02:59:57 | 02:15:09 | 00:00:00 | |
| DL1XH-west | 2026-09-05 06:47:47 | 49.33735 | 9.04562 | 190° | 16km/h | 24679m | -29.9m/s | -51.6°C | 0% | 28.2hPa | 2.7V | 02:59:57 | 02:15:13 | 00:00:00 | |
| DF8AY | 2026-09-05 06:47:45 | 49.33742 | 9.04567 | 214° | 13km/h | 24739m | -30.3m/s | -51.6°C | 0% | 27.9hPa | 2.6V | 02:59:57 | 02:15:11 | 00:00:00 | |
| HSKMA3-T | 2026-09-05 06:47:43 | 49.33746 | 9.04572 | 239° | 9km/h | 24799m | -30.4m/s | -51.4°C | 0% | 27.6hPa | 2.7V | 02:59:57 | 02:15:09 | 00:00:00 | |
| DK7TD | 2026-09-05 06:47:41 | 49.33745 | 9.04579 | 306° | 13km/h | 24860m | -30.8m/s | -51.6°C | 0% | 27.4hPa | 2.6V | 03:00:48 | 02:15:07 | 00:00:00 | |
| BIOWL1-15 | 2026-09-05 06:47:40 | 49.33743 | 9.04583 | 307° | 11km/h | 24891m | -30.5m/s | -51.8°C | 0% | 27.3hPa | 2.6V | 03:00:48 | 02:15:06 | 00:00:00 | |
| BIOWL7-15 | 2026-09-05 06:47:39 | 49.33743 | 9.04583 | 308° | 11km/h | 24891m | -30.5m/s | -51.8°C | 0.3% | 27.3hPa | 2.7V | 00:00:00 | 00:00:00 | 00:00:00 | |
| DL1XH1-15 | 2026-09-05 06:47:38 | 49.33723 | 9.04587 | 34° | 9km/h | 25094m | -28.6m/s | -52°C | 3.4% | 26.4hPa | 2.7V | 03:00:07 | 02:14:59 | 00:00:00 | |
| DO3DL | 2026-09-05 06:47:37 | 49.33738 | 9.04587 | 342° | 13km/h | 24951m | -29.5m/s | -52.1°C | 0.4% | 27.0hPa | 2.6V | 03:00:00 | 00:00:00 | 00:00:00 | |
| DM0DOS-11 | 2026-09-05 06:47:36 | 49.33720 | 9.04584 | 52° | 5km/h | 25151m | -28.9m/s | -51.5°C | 3.3% | 26.2hPa | 2.6V | 03:00:09 | 02:14:57 | 00:00:00 | |
| DL1XH-west | 2026-09-05 06:47:36 | 49.33731 | 9.04590 | 352° | 15km/h | 25009m | -29m/s | -52.2°C | 0% | 26.8hPa | 2.6V | 03:00:48 | 02:15:02 | 00:00:00 | |
| DF8AY | 2026-09-05 06:47:35 | 49.33728 | 9.04590 | 7° | 13km/h | 25037m | -28.6m/s | -52.2°C | 0% | 26.6hPa | 2.6V | 03:00:48 | 02:15:01 | 00:00:00 | |
| HSKMA3-T | 2026-09-05 06:47:32 | 49.33721 | 9.04585 | 27° | 7km/h | 25123m | -28.9m/s | -51.8°C | 0% | 26.3hPa | 2.7V | 03:00:48 | 02:14:58 | 00:00:00 | |
| BIOWL1-15 | 2026-09-05 06:47:32 | 49.33720 | 9.04582 | 98° | 5km/h | 25180m | -28.8m/s | -51.3°C | 0% | 26.1hPa | 2.6V | 03:00:48 | 02:14:56 | 00:00:00 | |
| DK7TD | 2026-09-05 06:47:31 | 49.33720 | 9.04584 | 52° | 5km/h | 25151m | -28.9m/s | -51.5°C | 0% | 26.2hPa | 2.6V | 03:00:48 | 02:14:57 | 00:00:00 | |
| DB0NH | 2026-09-05 06:47:31 | 49.33720 | 9.04584 | 53° | 5km/h | 25151m | -28.9m/s | -51.5°C | 3.3% | 26.1hPa | 2.6V | 03:00:00 | 02:14:57 | 00:00:00 | |
| SONDE2-11 | 2026-09-05 06:47:30 | 49.33720 | 9.04580 | 107° | 5km/h | 25209m | -29.0m/s | -51.2°C | 0.4% | 25.9hPa | 2.6V | 00:00:00 | 00:00:00 | 00:00:00 | |
| DJ2DS-15 | 2026-09-05 06:47:29 | 49.33720 | 9.04580 | 108° | 5km/h | 25209m | -29.0m/s | -51.2°C | 3.2% | 25.9hPa | 2.6V | 00:00:00 | 02:14:55 | 00:00:00 | |
| DL1NUX | 2026-09-05 06:47:28 | 49.33726 | 9.04575 | 209° | 5km/h | 25388m | -30.4m/s | -50.3°C | 3% | 25.2hPa | 2.6V | 03:00:17 | 02:14:49 | 00:00:00 | |
| OE5DXL-15 | 2026-09-05 06:47:28 | 49.33720 | 9.04578 | 135° | 5km/h | 25238m | -29.4m/s | -51.0°C | 3.2% | 25.8hPa | 2.7V | 00:00:00 | 00:00:00 | 00:00:00 | |
| DG9SBQ-11 | 2026-09-05 06:47:27 | 49.33721 | 9.04577 | 150° | 9km/h | 25268m | -30.0m/s | -50.9°C | 0.3% | 25.7hPa | 2.7V | 03:00:00 | 00:00:00 | 00:00:00 | |
| DM0DOS-11 | 2026-09-05 06:47:26 | 49.33726 | 9.04579 | 299° | 9km/h | 25449m | -30.9m/s | -50°C | 3% | 25hPa | 2.7V | 03:00:19 | 02:14:47 | 00:00:00 | |
| DL1XH-west | 2026-09-05 06:47:26 | 49.33723 | 9.04575 | 151° | 9km/h | 25297m | -29.8m/s | -50.7°C | 0% | 25.6hPa | 2.7V | 03:00:48 | 02:14:52 | 00:00:00 | |
| DF8AY | 2026-09-05 06:47:25 | 49.33724 | 9.04574 | 166° | 5km/h | 25327m | -30m/s | -50.6°C | 0% | 25.4hPa | 2.7V | 03:00:48 | 02:14:51 | 00:00:00 | |
| HSKMA3-T | 2026-09-05 06:47:21 | 49.33726 | 9.04579 | 300° | 9km/h | 25449m | -30.9m/s | -50.1°C | 0% | 25hPa | 2.7V | 03:00:48 | 02:14:47 | 00:00:00 | |
| DK7TD | 2026-09-05 06:47:20 | 49.33725 | 9.04581 | 305° | 9km/h | 25479m | -31m/s | -50.2°C | 0% | 24.9hPa | 2.6V | 03:00:48 | 02:14:46 | 00:00:00 | |
| BIOWL1-15 | 2026-09-05 06:47:19 | 49.33723 | 9.04584 | 308° | 9km/h | 25510m | -31.1m/s | -50.3°C | 0% | 24.8hPa | 2.6V | 03:00:48 | 02:14:45 | 00:00:00 | |
| DK5PH-5 | 2026-09-05 06:47:18 | 49.33722 | 9.04586 | 321° | 5km/h | 25542m | -30.6m/s | -50.3°C | 3.1% | 24.6hPa | 2.7V | 00:00:00 | 02:14:44 | 00:00:00 | |
| DM0DOS-11 | 2026-09-05 06:47:16 | 49.33719 | 9.04595 | 204° | 2km/h | 25759m | -31.2m/s | -50.1°C | 3% | 23.8hPa | 2.7V | 03:00:29 | 02:14:37 | 00:00:00 | |
| DL1XH-west | 2026-09-05 06:47:15 | 49.33719 | 9.04592 | 229° | 4km/h | 25634m | -31.2m/s | -50.6°C | 0% | 24.3hPa | 2.6V | 03:00:48 | 02:14:41 | 00:00:00 | |
| HSKMA3-T | 2026-09-05 06:47:11 | 49.33719 | 9.04595 | 205° | 2km/h | 25759m | -31.2m/s | -50.1°C | 0% | 23.8hPa | 2.7V | 03:00:48 | 02:14:37 | 00:00:00 | |
| DK7TD | 2026-09-05 06:47:09 | 49.33719 | 9.04596 | 346° | 4km/h | 25822m | -31.5m/s | -49.8°C | 0% | 23.6hPa | 2.6V | 03:00:48 | 02:14:35 | 00:00:00 | |
| DJ2DS-15 | 2026-09-05 06:47:09 | 49.33719 | 9.04596 | 347° | 5km/h | 25822m | -31.4m/s | -49.8°C | 3.0% | 23.5hPa | 2.7V | 00:00:00 | 02:14:35 | 00:00:00 | |
| DL3AQ-11 | 2026-09-05 06:47:07 | 49.33718 | 9.04594 | 85° | 5km/h | 25885m | -31.7m/s | -49.5°C | 0.3% | 23.4hPa | 2.7V | 00:00:00 | 00:00:00 | 00:00:00 | |
| DM0DOS-11 | 2026-09-05 06:47:06 | 49.33720 | 9.04582 | 51° | 2km/h | 26074m | -31.9m/s | -48.7°C | 2.7% | 22.7hPa | 2.7V | 03:00:39 | 02:14:27 | 00:00:00 | |
| DL1XH-west | 2026-09-05 06:47:04 | 49.33719 | 9.04588 | 113° | 7km/h | 25981m | -31.6m/s | -48.6°C | 0% | 23hPa | 2.7V | 03:00:48 | 02:14:30 | 00:00:00 | |
| HSKMA3-T | 2026-09-05 06:47:00 | 49.33720 | 9.04581 | 91° | 2km/h | 26106m | -32.1m/s | -48.8°C | 0% | 22.6hPa | 2.7V | 03:00:48 | 02:14:26 | 00:00:00 | |
| DK7TD | 2026-09-05 06:46:59 | 49.33720 | 9.04580 | 42° | 4km/h | 26138m | -31.8m/s | -49°C | 0% | 22.5hPa | 2.6V | 03:00:48 | 02:14:25 | 00:00:00 | |
| BIOWL1-15 | 2026-09-05 06:46:58 | 49.33719 | 9.04580 | 5° | 4km/h | 26169m | -32.1m/s | -49°C | 0% | 22.4hPa | 2.6V | 03:00:48 | 02:14:24 | 00:00:00 | |
| OE5DXL-15 | 2026-09-05 06:46:58 | 49.33719 | 9.04580 | 6° | 7km/h | 26170m | -32.0m/s | -49.0°C | 2.9% | 22.3hPa | 2.6V | 00:00:00 | 00:00:00 | 00:00:00 | |
| DB0UT-7 | 2026-09-05 06:46:57 | 49.33719 | 9.04580 | 16° | 7km/h | 26202m | -32.0m/s | -49.0°C | 2.9% | 22.2hPa | 2.6V | 00:00:00 | 02:14:23 | 00:00:00 | |
| DM0DOS-11 | 2026-09-05 06:46:56 | 49.33730 | 9.04580 | 193° | 11km/h | 26395m | -33.4m/s | -48.8°C | 2.9% | 21.6hPa | 2.6V | 03:00:49 | 02:14:17 | 00:00:00 | |
| DL1XH-west | 2026-09-05 06:46:54 | 49.33722 | 9.04578 | 171° | 9km/h | 26297m | -32.4m/s | -48.8°C | 0% | 21.9hPa | 2.7V | 03:00:48 | 02:14:20 | 00:00:00 | |
| HSKMA3-T | 2026-09-05 06:46:49 | 49.33734 | 9.04584 | 236° | 9km/h | 26462m | -34.1m/s | -48.6°C | 0% | 21.4hPa | 2.7V | 03:01:39 | 02:14:15 | 00:00:00 | |
| BIOWL1-15 | 2026-09-05 06:46:48 | 49.33735 | 9.04586 | 239° | 5km/h | 26495m | -34.2m/s | -48.5°C | 0% | 21.3hPa | 2.7V | 03:02:30 | 02:14:14 | 00:00:00 | |
| HARRO8 | 2026-09-05 06:46:45 | 49.33734 | 9.04590 | 7° | 0km/h | 26597m | -34.0m/s | -48.3°C | 0.2% | 20.9hPa | 2.7V | 00:00:00 | 00:00:00 | 00:00:00 | |
| DL1XH-west | 2026-09-05 06:46:44 | 49.33734 | 9.04590 | 125° | 2km/h | 26631m | -34m/s | -48.2°C | 0% | 20.8hPa | 2.7V | 03:01:39 | 02:14:10 | 00:00:00 | |
| BIOWL1-15 | 2026-09-05 06:46:39 | 49.33738 | 9.04587 | 88° | 2km/h | 26867m | -33.3m/s | -47.1°C | 0% | 20.1hPa | 2.7V | 03:02:30 | 02:14:03 | 00:00:00 | |
| HSKMA3-T | 2026-09-05 06:46:38 | 49.33738 | 9.04588 | 205° | 2km/h | 26834m | -33.5m/s | -47.3°C | 0% | 20.2hPa | 2.7V | 03:01:39 | 02:14:04 | 00:00:00 | |
| OE5DRO-10 | 2026-09-05 06:46:38 | 49.33738 | 9.04588 | 206° | 11km/h | 26834m | -33.5m/s | -47.3°C | 2.6% | 20.1hPa | 2.7V | 03:01:00 | 00:00:00 | 00:00:00 | |
| DM0DOS-11 | 2026-09-05 06:46:36 | 49.33731 | 9.04564 | 71° | 15km/h | 27070m | -34m/s | -46.6°C | 2.4% | 19.5hPa | 2.7V | 03:01:09 | 02:13:57 | 00:00:00 | |
| DL1XH-west | 2026-09-05 06:46:33 | 49.33734 | 9.04574 | 63° | 15km/h | 27002m | -34.2m/s | -46.6°C | 0% | 19.7hPa | 2.6V | 03:01:39 | 02:13:59 | 00:00:00 | |
| DO3MHA-11 | 2026-09-05 06:46:33 | 49.33734 | 9.04574 | 64° | 11km/h | 27002m | -34.2m/s | -46.5°C | 2.4% | 19.6hPa | 2.6V | 00:00:00 | 02:13:59 | 00:00:00 | |
| DF3TZ-5 | 2026-09-05 06:46:32 | 49.33732 | 9.04569 | 67° | 15km/h | 27036m | -34.3m/s | -46.6°C | 0.2% | 19.6hPa | 2.7V | 00:00:00 | 00:00:00 | 00:00:00 | |
| DM7RM-13 | 2026-09-05 06:46:31 | 49.33732 | 9.04569 | 68° | 15km/h | 27036m | -34.3m/s | -46.6°C | 0.2% | 19.6hPa | 2.7V | 03:01:00 | 00:00:00 | 00:00:00 | |
| SONCRA | 2026-09-05 06:46:30 | 49.33731 | 9.04559 | 79° | 11km/h | 27104m | -33.2m/s | -46.6°C | 0.2% | 19.3hPa | 2.7V | 00:00:00 | 00:00:00 | 00:00:00 | |
| DB0UT-9 | 2026-09-05 06:46:29 | 49.33731 | 9.04559 | 80° | 11km/h | 27104m | -33.2m/s | -46.6°C | 0.2% | 19.3hPa | 2.7V | 03:01:00 | 00:00:00 | 00:00:00 | |
| DL1XH1-15 | 2026-09-05 06:46:28 | 49.33745 | 9.04545 | 158° | 11km/h | 27333m | -33.1m/s | -46.8°C | 2.4% | 18.7hPa | 2.7V | 03:01:17 | 02:13:49 | 00:00:00 | |
| HSKMA3-T | 2026-09-05 06:46:28 | 49.33732 | 9.04553 | 133° | 5km/h | 27169m | -32.4m/s | -46.8°C | 0% | 19.2hPa | 2.6V | 03:01:39 | 02:13:54 | 00:00:00 | |
| SONDE2-11 | 2026-09-05 06:46:28 | 49.33734 | 9.04552 | 153° | 7km/h | 27201m | -32.6m/s | -46.9°C | 0.2% | 19.1hPa | 2.7V | 00:00:00 | 00:00:00 | 00:00:00 | |
| DB0UT-7 | 2026-09-05 06:46:27 | 49.33734 | 9.04551 | 154° | 11km/h | 27202m | -32.6m/s | -46.9°C | 2.5% | 19.0hPa | 2.7V | 00:00:00 | 00:00:00 | 00:00:00 | |
| DM0DOS-11 | 2026-09-05 06:46:26 | 49.33751 | 9.04542 | 167° | 16km/h | 27399m | -32.8m/s | -46.9°C | 2.5% | 18.5hPa | 2.7V | 03:01:19 | 02:13:47 | 00:00:00 | |
| BIOWL1-15 | 2026-09-05 06:46:26 | 49.33736 | 9.04550 | 159° | 13km/h | 27234m | -32.9m/s | -46.8°C | 0% | 18.9hPa | 2.7V | 03:02:30 | 02:13:52 | 00:00:00 | |
| DL1XH-west | 2026-09-05 06:46:22 | 49.33748 | 9.04543 | 163° | 13km/h | 27366m | -32.9m/s | -46.8°C | 0% | 18.6hPa | 2.7V | 03:01:39 | 02:13:48 | 00:00:00 | |
| DL4BBY-15 | 2026-09-05 06:46:22 | 49.33748 | 9.04543 | 163° | 11km/h | 27366m | -32.9m/s | -47.7°C | 0% | 0hPa | 2.6V | 00:00:00 | 00:00:00 | 00:00:00 | |
| DM3KS-11 | 2026-09-05 06:46:21 | 49.33751 | 9.04542 | 167° | 15km/h | 27400m | -32.8m/s | -46.9°C | 0.2% | 18.5hPa | 2.6V | 00:00:00 | 00:00:00 | 00:00:00 | |
| DO8TBO-1 | 2026-09-05 06:46:20 | 49.33755 | 9.04542 | 180° | 11km/h | 27433m | -33.4m/s | -46.8°C | 2.5% | 18.3hPa | 2.6V | 00:00:00 | 02:13:46 | 00:00:00 | |
| OE5DRO-10 | 2026-09-05 06:46:19 | 49.33759 | 9.04542 | 200° | 7km/h | 27466m | -33.8m/s | -46.6°C | 2.4% | 18.2hPa | 2.6V | 00:00:00 | 00:00:00 | 00:00:00 | |
| DL1XH1-15 | 2026-09-05 06:46:18 | 49.33773 | 9.04558 | 277° | 4km/h | 27677m | -36.2m/s | -47.1°C | 2.6% | 17.7hPa | 2.6V | 03:01:27 | 02:13:39 | 00:00:00 | |
| DK7TD | 2026-09-05 06:46:18 | 49.33763 | 9.04545 | 200° | 18km/h | 27500m | -34.8m/s | -46.7°C | 0% | 18.2hPa | 2.6V | 03:01:39 | 02:13:44 | 00:00:00 | |
| HSKMA3-T | 2026-09-05 06:46:17 | 49.33767 | 9.04548 | 221° | 15km/h | 27534m | -35.2m/s | -46.7°C | 0% | 18.2hPa | 2.7V | 03:01:39 | 02:13:43 | 00:00:00 | |
| BIOWL1-15 | 2026-09-05 06:46:15 | 49.33771 | 9.04555 | 228° | 11km/h | 27605m | -36.1m/s | -46.9°C | 0% | 17.9hPa | 2.7V | 03:02:30 | 02:13:41 | 00:00:00 | |
| DL3AQ-11 | 2026-09-05 06:46:15 | 49.33772 | 9.04557 | 236° | 4km/h | 27641m | -35.7m/s | -47.0°C | 0.2% | 17.8hPa | 2.6V | 00:00:00 | 00:00:00 | 00:00:00 | |
| IW2NTF | 2026-09-05 06:46:14 | 49.33773 | 9.04559 | 172° | 4km/h | 27823m | -37.2m/s | -47°C | 2.5% | 17.3hPa | 2.6V | 03:01:31 | 02:13:35 | 00:00:00 | |
| DL1XH-west | 2026-09-05 06:46:12 | 49.33772 | 9.04560 | 299° | 2km/h | 27713m | -36.5m/s | -47.1°C | 0% | 17.6hPa | 2.7V | 03:01:39 | 02:13:38 | 00:00:00 | |
| DF8AY | 2026-09-05 06:46:11 | 49.33772 | 9.04560 | 145° | 2km/h | 27750m | -36.4m/s | -47.1°C | 0% | 17.5hPa | 2.7V | 03:01:39 | 02:13:37 | 00:00:00 | |
| DL1ZP-14 | 2026-09-05 06:46:11 | 49.33773 | 9.04559 | 136° | 2km/h | 27786m | -36.9m/s | -47.1°C | 0.2% | 17.5hPa | 2.6V | 00:00:00 | 00:00:00 | 00:00:00 | |
| DB0UT-9 | 2026-09-05 06:46:09 | 49.33773 | 9.04559 | 138° | 4km/h | 27786m | -36.9m/s | -47.1°C | 0.3% | 17.5hPa | 2.6V | 03:01:00 | 00:00:00 | 00:00:00 | |
| DL1XH1-15 | 2026-09-05 06:46:08 | 49.33779 | 9.04555 | 98° | 7km/h | 28043m | -36.5m/s | -47.1°C | 2.6% | 16.8hPa | 2.6V | 03:01:37 | 02:13:29 | 00:00:00 | |
| HSKMA3-T | 2026-09-05 06:46:07 | 49.33775 | 9.04559 | 185° | 5km/h | 27896m | -36.6m/s | -47.1°C | 0% | 17.2hPa | 2.7V | 03:01:39 | 02:13:33 | 00:00:00 | |
| BIOWL1-15 | 2026-09-05 06:46:04 | 49.33778 | 9.04557 | 90° | 4km/h | 28006m | -36.2m/s | -47.1°C | 0% | 16.9hPa | 2.6V | 03:02:30 | 02:13:30 | 00:00:00 | |
| DL1XH-west | 2026-09-05 06:46:02 | 49.33779 | 9.04552 | 112° | 13km/h | 28079m | -36.1m/s | -47.1°C | 0% | 16.7hPa | 2.7V | 03:01:39 | 02:13:28 | 00:00:00 | |
| DF8AY | 2026-09-05 06:46:00 | 49.33783 | 9.04542 | 120° | 16km/h | 28151m | -36.9m/s | -47.1°C | 0% | 16.5hPa | 2.6V | 03:02:30 | 02:13:26 | 00:00:00 | |
| SONCRA | 2026-09-05 06:45:59 | 49.33785 | 9.04536 | 131° | 20km/h | 28188m | -37.0m/s | -46.9°C | 0.2% | 16.4hPa | 2.7V | 00:00:00 | 00:00:00 | 00:00:00 | |
| DL1XH1-15 | 2026-09-05 06:45:58 | 49.33800 | 9.04519 | 215° | 4km/h | 28409m | -37.5m/s | -46.7°C | 2.6% | 15.9hPa | 2.7V | 03:01:47 | 02:13:19 | 00:00:00 | |
| DK7TD | 2026-09-05 06:45:57 | 49.33792 | 9.04525 | 141° | 16km/h | 28262m | -37.4m/s | -46.9°C | 0% | 16.2hPa | 2.7V | 03:02:30 | 02:13:23 | 00:00:00 | |
| SONDE2-11 | 2026-09-05 06:45:57 | 49.33794 | 9.04522 | 157° | 11km/h | 28299m | -36.9m/s | -46.9°C | 0.2% | 16.1hPa | 2.7V | 00:00:00 | 00:00:00 | 00:00:00 | |
| DM0DOS-11 | 2026-09-05 06:45:56 | 49.33801 | 9.04519 | 97° | 5km/h | 28484m | -38.3m/s | -46.4°C | 2.5% | 15.7hPa | 2.7V | 03:01:49 | 02:13:17 | 00:00:00 | |
| HSKMA3-T | 2026-09-05 06:45:56 | 49.33794 | 9.04522 | 158° | 11km/h | 28298m | -36.9m/s | -46.9°C | 0% | 16.1hPa | 2.7V | 03:02:30 | 02:13:22 | 00:00:00 | |
| BIOWL1-15 | 2026-09-05 06:45:56 | 49.33800 | 9.04520 | 167° | 2km/h | 28446m | -38.4m/s | -46.6°C | 0% | 15.8hPa | 2.7V | 03:02:30 | 02:13:18 | 00:00:00 | |
| DL1XH-west | 2026-09-05 06:45:51 | 49.33800 | 9.04518 | 98° | 5km/h | 28484m | -38.3m/s | -46.4°C | 0% | 15.7hPa | 2.7V | 03:02:30 | 02:13:17 | 00:00:00 | |
| DF8AY | 2026-09-05 06:45:50 | 49.33800 | 9.04516 | 96° | 7km/h | 28522m | -38.1m/s | -46.2°C | 0% | 15.6hPa | 2.5V | 03:02:30 | 02:13:16 | 00:00:00 | |
| DB0ND-19 | 2026-09-05 06:45:47 | 49.33803 | 9.04501 | 116° | 11km/h | 28674m | -37.5m/s | -46.2°C | 0.1% | 15.2hPa | 2.7V | 00:00:00 | 00:00:00 | 00:00:00 | |
| DM0DOS-11 | 2026-09-05 06:45:46 | 49.33804 | 9.04493 | 2° | 7km/h | 28861m | -37.3m/s | -46.1°C | 2.5% | 14.8hPa | 2.7V | 03:01:59 | 02:13:07 | 00:00:00 | |
| DK7TD | 2026-09-05 06:45:46 | 49.33803 | 9.04501 | 116° | 13km/h | 28674m | -37.5m/s | -46.2°C | 0% | 15.2hPa | 2.7V | 03:02:30 | 02:13:12 | 00:00:00 | |
| HSKMA3-T | 2026-09-05 06:45:45 | 49.33804 | 9.04498 | 116° | 7km/h | 28711m | -37.5m/s | -46.3°C | 0% | 15.1hPa | 2.7V | 03:02:30 | 02:13:11 | 00:00:00 | |
| DL0LBS | 2026-09-05 06:45:44 | 49.33804 | 9.04498 | 117° | 7km/h | 28712m | -37.5m/s | -46.3°C | 0.2% | 15.1hPa | 2.7V | 03:02:00 | 00:00:00 | 00:00:00 | |
| DO3MHA-11 | 2026-09-05 06:45:43 | 49.33805 | 9.04495 | 128° | 7km/h | 28786m | -37.4m/s | -46.3°C | 2.6% | 14.9hPa | 2.7V | 03:01:00 | 02:13:09 | 00:00:00 | |
| DO1YAY-16 | 2026-09-05 06:45:42 | 49.33804 | 9.04493 | 2° | 5km/h | 28861m | -37.3m/s | -46.1°C | 0.2% | 14.8hPa | 2.7V | 00:00:00 | 00:00:00 | 00:00:00 | |
| DL1XH-15 | 2026-09-05 06:45:41 | 49.33796 | 9.04481 | 70° | 11km/h | 29043m | -36.7m/s | -45.8°C | 2.5% | 14.4hPa | 2.7V | 03:02:04 | 02:13:02 | 00:00:00 | |
| DL1XH-west | 2026-09-05 06:45:41 | 49.33804 | 9.04493 | 2° | 7km/h | 28861m | -37.3m/s | -46.1°C | 0% | 14.8hPa | 2.7V | 03:02:30 | 02:13:07 | 00:00:00 | |
| DF8AY | 2026-09-05 06:45:39 | 49.33800 | 9.04491 | 37° | 9km/h | 28935m | -36.7m/s | -46°C | 0% | 14.6hPa | 2.6V | 03:02:30 | 02:13:05 | 00:00:00 | |
| NBG1-10 | 2026-09-05 06:45:39 | 49.33800 | 9.04491 | 37° | 20km/h | 28935m | -36.7m/s | -46.0°C | 2.5% | 14.5hPa | 2.7V | 00:00:00 | 02:13:05 | 00:00:00 | |
| DL6DJ-15 | 2026-09-05 06:45:37 | 49.33796 | 9.04481 | 70° | 9km/h | 29043m | -36.7m/s | -45.8°C | 0.2% | 14.4hPa | 2.7V | 00:00:00 | 00:00:00 | 00:00:00 | |
| DM0DOS-11 | 2026-09-05 06:45:36 | 49.33788 | 9.04469 | 41° | 13km/h | 29235m | -40.9m/s | -44.5°C | 2.3% | 13.9hPa | 2.7V | 03:02:09 | 02:12:57 | 00:00:00 | |
| HSKMA3-T | 2026-09-05 06:45:35 | 49.33795 | 9.04479 | 55° | 7km/h | 29080m | -37.8m/s | -45.5°C | 0% | 14.3hPa | 2.6V | 03:02:30 | 02:13:01 | 00:00:00 | |
| DL3AQ-11 | 2026-09-05 06:45:35 | 49.33794 | 9.04476 | 71° | 5km/h | 29118m | -38.7m/s | -45.2°C | 0.1% | 14.2hPa | 2.7V | 00:00:00 | 00:00:00 | 00:00:00 | |
| KANTATE | 2026-09-05 06:45:34 | 49.33794 | 9.04476 | 72° | 7km/h | 29118m | -38.7m/s | -45.2°C | 0.1% | 14.2hPa | 2.7V | 00:00:00 | 00:00:00 | 00:00:00 | |
| DJTTGO | 2026-09-05 06:45:33 | 49.33792 | 9.04474 | 31° | 9km/h | 29156m | -39.0m/s | -44.9°C | 0.1% | 14.1hPa | 2.7V | 03:02:00 | 00:00:00 | 00:00:00 | |
| EDDB2-11 | 2026-09-05 06:45:32 | 49.33790 | 9.04472 | 33° | 9km/h | 29195m | -40.7m/s | -44.6°C | 0.1% | 14.1hPa | 2.7V | 00:00:00 | 00:00:00 | 00:00:00 | |
| DL1XH-15 | 2026-09-05 06:45:31 | 49.33775 | 9.04451 | 37° | 13km/h | 29444m | -44m/s | -43.9°C | 2.1% | 13.6hPa | 2.7V | 03:02:14 | 02:12:52 | 00:00:00 | |
| DL1XH-west | 2026-09-05 06:45:31 | 49.33788 | 9.04469 | 42° | 13km/h | 29235m | -40.9m/s | -44.5°C | 0% | 13.9hPa | 2.7V | 03:02:30 | 02:12:57 | 00:00:00 | |
| DF8AY | 2026-09-05 06:45:28 | 49.33780 | 9.04458 | 55° | 15km/h | 29358m | -42.7m/s | -44.2°C | 0% | 13.8hPa | 2.6V | 03:02:30 | 02:12:54 | 00:00:00 | |
| DL1XH1-15 | 2026-09-05 06:45:28 | 49.33766 | 9.04441 | 32° | 18km/h | 29574m | -43.5m/s | -43.6°C | 2.1% | 13.3hPa | 2.7V | 03:02:17 | 02:12:49 | 00:00:00 | |
| DJ2DS-15 | 2026-09-05 06:45:28 | 49.33780 | 9.04458 | 56° | 15km/h | 29359m | -42.7m/s | -44.1°C | 2.2% | 13.7hPa | 2.6V | 00:00:00 | 02:12:54 | 00:00:00 | |
| DB0UT-7 | 2026-09-05 06:45:27 | 49.33777 | 9.04454 | 42° | 15km/h | 29401m | -43.6m/s | -43.9°C | 2.2% | 13.6hPa | 2.7V | 00:00:00 | 00:00:00 | 00:00:00 | |
| DM0DOS-11 | 2026-09-05 06:45:26 | 49.33759 | 9.04433 | 43° | 16km/h | 29658m | -42.1m/s | -43.7°C | 2.1% | 13hPa | 2.7V | 03:02:19 | 02:12:47 | 00:00:00 | |
| HSKMA3-T | 2026-09-05 06:45:24 | 49.33769 | 9.04444 | 31° | 16km/h | 29531m | -44.4m/s | -43.6°C | 0% | 13.4hPa | 2.6V | 03:02:30 | 02:12:50 | 00:00:00 | |
| DL3AQ-11 | 2026-09-05 06:45:24 | 49.33766 | 9.04441 | 32° | 16km/h | 29575m | -43.5m/s | -43.6°C | 0.1% | 13.3hPa | 2.7V | 00:00:00 | 00:00:00 | 00:00:00 | |
| DO3MHA-11 | 2026-09-05 06:45:23 | 49.33766 | 9.04440 | 33° | 16km/h | 29575m | -43.4m/s | -43.6°C | 2.1% | 13.3hPa | 2.7V | 00:00:00 | 02:12:49 | 00:00:00 | |
| BUE01 | 2026-09-05 06:45:22 | 49.33756 | 9.04428 | 58° | 15km/h | 29699m | -40.8m/s | -43.7°C | -1.0% | 13.0hPa | 2.7V | 00:00:00 | 00:00:00 | 00:00:00 | |
| DL1XH-15 | 2026-09-05 06:45:21 | 49.33760 | 9.04404 | 136° | 15km/h | 29859m | -39.9m/s | -43.4°C | 2.1% | 12.7hPa | 2.7V | 03:02:24 | 02:12:42 | 00:00:00 | |
| BIOWL1-15 | 2026-09-05 06:45:20 | 49.33756 | 9.04428 | 59° | 16km/h | 29699m | -40.8m/s | -43.7°C | 0% | 13hPa | 2.6V | 03:02:30 | 02:12:46 | 00:00:00 | |
| DF8AY | 2026-09-05 06:45:18 | 49.33755 | 9.04415 | 114° | 20km/h | 29779m | -40.3m/s | -43.5°C | 0% | 12.9hPa | 2.6V | 03:02:30 | 02:12:44 | 00:00:00 | |
| DK5PH-5 | 2026-09-05 06:45:18 | 49.33755 | 9.04415 | 115° | 16km/h | 29780m | -40.3m/s | -43.5°C | 2.1% | 12.8hPa | 2.6V | 00:00:00 | 02:12:44 | 00:00:00 | |
| DJ2DS-15 | 2026-09-05 06:45:17 | 49.33757 | 9.04409 | 123° | 16km/h | 29820m | -40.6m/s | -43.4°C | 0.1% | 12.8hPa | 2.7V | 00:00:00 | 00:00:00 | 00:00:00 | |
| DM0DOS-11 | 2026-09-05 06:45:16 | 49.33767 | 9.04389 | 84° | 11km/h | 30066m | -43.2m/s | -43.5°C | 2.2% | 12.3hPa | 2.7V | 03:02:29 | 02:12:37 | 00:00:00 | |
| HSKMA3-T | 2026-09-05 06:45:13 | 49.33766 | 9.04395 | 93° | 5km/h | 29980m | -42.5m/s | -43.6°C | 0% | 12.5hPa | 2.6V | 03:02:30 | 02:12:39 | 00:00:00 | |
| DO3MHA-11 | 2026-09-05 06:45:13 | 49.33766 | 9.04395 | 93° | 13km/h | 29981m | -42.4m/s | -43.6°C | 2.2% | 12.4hPa | 2.7V | 00:00:00 | 02:12:39 | 00:00:00 | |
| HARRO8 | 2026-09-05 06:45:12 | 49.33766 | 9.04389 | 84° | 11km/h | 30066m | -43.2m/s | -43.6°C | 0.1% | 12.3hPa | 2.7V | 00:00:00 | 00:00:00 | 00:00:00 | |
| DO1YAY-16 | 2026-09-05 06:45:11 | 49.33766 | 9.04385 | 79° | 13km/h | 30109m | -43.3m/s | -43.6°C | 0.1% | 12.2hPa | 2.7V | 00:00:00 | 00:00:00 | 00:00:00 | |
| DL1XH-15 | 2026-09-05 06:45:10 | 49.33775 | 9.04366 | 203° | 13km/h | 30330m | -44.3m/s | -44.2°C | 2.4% | 11.8hPa | 2.7V | 03:02:35 | 02:12:31 | 00:00:00 | |
| DL1XH-west | 2026-09-05 06:45:09 | 49.33766 | 9.04379 | 101° | 16km/h | 30153m | -43.9m/s | -43.7°C | 0% | 12.1hPa | 2.5V | 03:03:21 | 02:12:35 | 00:00:00 | |
| DL1XH1-15 | 2026-09-05 06:45:08 | 49.33780 | 9.04372 | 233° | 13km/h | 30418m | -45m/s | -44.1°C | 2.4% | 11.7hPa | 2.6V | 03:02:37 | 02:12:29 | 00:00:00 | |
| DF8AY | 2026-09-05 06:45:07 | 49.33769 | 9.04368 | 129° | 15km/h | 30242m | -45.2m/s | -44°C | 0% | 12hPa | 2.6V | 03:03:21 | 02:12:33 | 00:00:00 | |
| HSKMA3-T | 2026-09-05 06:45:02 | 49.33781 | 9.04375 | 276° | 7km/h | 30463m | -45.7m/s | -43.9°C | 0% | 11.6hPa | 2.6V | 03:03:21 | 02:12:28 | 00:00:00 | |
| EDDB2-11 | 2026-09-05 06:45:01 | 49.33781 | 9.04377 | 352° | 2km/h | 30509m | -46.9m/s | -43.8°C | 0.1% | 11.5hPa | 2.7V | 00:00:00 | 00:00:00 | 00:00:00 | |
| DL1XH-15 | 2026-09-05 06:45:00 | 49.33798 | 9.04332 | 145° | 33km/h | 30790m | -49.1m/s | -41.9°C | 2.1% | 11hPa | 2.7V | 03:02:45 | 02:12:21 | 00:00:00 | |
| BIOWL1-15 | 2026-09-05 06:45:00 | 49.33783 | 9.04362 | 111° | 29km/h | 30647m | -46.6m/s | -43°C | 0% | 11.3hPa | 2.7V | 03:03:21 | 02:12:24 | 00:00:00 | |
| DL1XH-west | 2026-09-05 06:44:59 | 49.33781 | 9.04370 | 103° | 20km/h | 30601m | -45m/s | -43.4°C | 0% | 11.3hPa | 2.7V | 03:03:21 | 02:12:25 | 00:00:00 | |
| DF8AY | 2026-09-05 06:44:57 | 49.33786 | 9.04351 | 127° | 37km/h | 30694m | -47.7m/s | -42.6°C | 0% | 11.2hPa | 2.6V | 03:03:21 | 02:12:23 | 00:00:00 | |
| HSKMA3-T | 2026-09-05 06:44:52 | 49.33815 | 9.04320 | 175° | 20km/h | 30934m | -46.9m/s | -41.3°C | 0% | 10.8hPa | 2.5V | 03:03:21 | 02:12:18 | 00:00:00 | |
| DL1XH-west | 2026-09-05 06:44:49 | 49.33825 | 9.04314 | 128° | 18km/h | 31076m | -49.3m/s | -41.2°C | 0% | 10.6hPa | 2.7V | 03:03:21 | 02:12:15 | 00:00:00 | |
| BIOWL1-15 | 2026-09-05 06:44:47 | 49.33831 | 9.04300 | 114° | 29km/h | 31178m | -52.1m/s | -41°C | 0% | 10.5hPa | 2.6V | 03:03:21 | 02:12:13 | 00:00:00 | |
| DF8AY | 2026-09-05 06:44:46 | 49.33834 | 9.04289 | 112° | 29km/h | 31231m | -53.8m/s | -40.8°C | 0% | 10.4hPa | 2.5V | 03:03:21 | 02:12:12 | 00:00:00 | |
| DK7TD | 2026-09-05 06:44:42 | 49.33843 | 9.04251 | 109° | 22km/h | 31454m | -58.8m/s | -40.4°C | 0% | 10.1hPa | 2.7V | 03:03:21 | 02:12:08 | 00:00:00 | |
| HSKMA3-T | 2026-09-05 06:44:41 | 49.33845 | 9.04243 | 114° | 22km/h | 31511m | -57.4m/s | -40.3°C | 0% | 10hPa | 2.7V | 03:03:21 | 02:12:07 | 00:00:00 | |
| BIOWL1-15 | 2026-09-05 06:44:41 | 49.33853 | 9.04219 | 122° | 16km/h | 31741m | -55.1m/s | -38.7°C | 0% | 9.6hPa | 2.7V | 03:03:21 | 02:12:03 | 00:00:00 | |
| HARRO8 | 2026-09-05 06:44:41 | 49.33847 | 9.04236 | 117° | 16km/h | 31569m | -57.7m/s | -40.0°C | 0.0% | 9.8hPa | 2.6V | 00:00:00 | 00:00:00 | 00:00:00 | |
| IW2NTF | 2026-09-05 06:44:39 | 49.33860 | 9.04202 | 130° | 18km/h | 31905m | -52.8m/s | -38.2°C | 1.6% | 9.3hPa | 2.6V | 03:03:06 | 02:12:00 | 00:00:00 | |
| DB0NH | 2026-09-05 06:44:39 | 49.33849 | 9.04230 | 119° | 18km/h | 31628m | -59.8m/s | -39.5°C | 1.8% | 9.7hPa | 2.6V | 00:00:00 | 02:12:05 | 00:00:00 | |
| DL1XH1-15 | 2026-09-05 06:44:38 | 49.33864 | 9.04196 | 126° | 22km/h | 31956m | -49.5m/s | -38.1°C | 1.6% | 9.2hPa | 2.6V | 03:03:07 | 02:11:59 | 00:00:00 | |
| DL1XH-west | 2026-09-05 06:44:38 | 49.33851 | 9.04224 | 114° | 18km/h | 31685m | -56m/s | -39.1°C | 0% | 9.7hPa | 2.7V | 03:03:21 | 02:12:04 | 00:00:00 | |
| DF8AY | 2026-09-05 06:44:36 | 49.33855 | 9.04213 | 122° | 16km/h | 31796m | -55.3m/s | -38.4°C | 0% | 9.5hPa | 2.7V | 03:03:21 | 02:12:02 | 00:00:00 | |
| DK7TD | 2026-09-05 06:44:32 | 49.33867 | 9.04190 | 133° | 20km/h | 32005m | -48.6m/s | -38.1°C | 0% | 9.2hPa | 2.7V | 03:03:21 | 02:11:58 | 00:00:00 | |
| HSKMA3-T | 2026-09-05 06:44:31 | 49.33870 | 9.04184 | 111° | 20km/h | 32053m | -47.2m/s | -38.2°C | 0% | 9.1hPa | 2.7V | 03:03:21 | 02:11:57 | 00:00:00 | |
| PG1ADW-2 | 2026-09-05 06:44:30 | 49.33873 | 9.04178 | 131° | 15km/h | 32099m | -44.9m/s | -38.1°C | 1.6% | 9.0hPa | 2.7V | 00:00:00 | 02:11:56 | 00:00:00 | |
| IW2NTF | 2026-09-05 06:44:29 | 49.33879 | 9.04155 | 59° | 15km/h | 32379m | -42.2m/s | -37.8°C | 1.5% | 8.6hPa | 2.7V | 03:03:16 | 02:11:50 | 00:00:00 | |
| DL1XH1-15 | 2026-09-05 06:44:28 | 49.33877 | 9.04151 | 54° | 13km/h | 32419m | -37.8m/s | -37.9°C | 1.5% | 8.6hPa | 2.6V | 03:03:17 | 02:11:49 | 00:00:00 | |
| AA1-15 | 2026-09-05 06:44:28 | 49.33877 | 9.04170 | 115° | 11km/h | 32192m | -48.2m/s | 0°C | 0% | 0hPa | 2.6V | 18:12:15 | 02:11:54 | 00:00:00 | |
| DL1XH-west | 2026-09-05 06:44:27 | 49.33879 | 9.04166 | 116° | 11km/h | 32241m | -48.7m/s | -37.6°C | 0% | 8.9hPa | 2.6V | 03:03:21 | 02:11:53 | 00:00:00 | |
| BIOWL1-15 | 2026-09-05 06:44:26 | 49.33880 | 9.04163 | 118° | 7km/h | 32289m | -46.7m/s | -37.6°C | 0% | 8.8hPa | 2.7V | 03:03:21 | 02:11:52 | 00:00:00 | |
| DF8AY | 2026-09-05 06:44:25 | 49.33880 | 9.04159 | 64° | 9km/h | 32334m | -45.8m/s | -37.7°C | 0% | 8.7hPa | 2.7V | 03:03:21 | 02:11:51 | 00:00:00 | |
| HSKMA3-T | 2026-09-05 06:44:21 | 49.33872 | 9.04143 | 51° | 16km/h | 32496m | -38.8m/s | -38.1°C | 0% | 8.5hPa | 2.7V | 03:03:21 | 02:11:47 | 00:00:00 | |
| BUE01 | 2026-09-05 06:44:20 | 49.33866 | 9.04134 | 41° | 15km/h | 32568m | -33.3m/s | -38.3°C | -1.0% | 8.4hPa | 2.6V | 00:00:00 | 00:00:00 | 00:00:00 | |
| DL1XH1-15 | 2026-09-05 06:44:18 | 49.33855 | 9.04103 | 69° | 13km/h | 32732m | -21.9m/s | -38°C | 1.6% | 8.1hPa | 2.6V | 03:03:27 | 02:11:39 | 00:00:00 | |
| AA1-15 | 2026-09-05 06:44:17 | 49.33861 | 9.04124 | 61° | 15km/h | 32630m | -28.2m/s | 0°C | 0% | 0hPa | 2.7V | 18:12:15 | 02:11:43 | 00:00:00 | |
| DF1GD-15 | 2026-09-05 06:44:17 | 49.33861 | 9.04124 | 62° | 15km/h | 32630m | -28.2m/s | -38.0°C | 0.1% | 8.3hPa | 2.7V | 03:04:00 | 00:00:00 | 00:00:00 | |
| DL1XH-15 | 2026-09-05 06:44:16 | 49.33852 | 9.04093 | 44° | 16km/h | 32773m | -20m/s | -38°C | 1.6% | 8.1hPa | 2.7V | 03:03:29 | 02:11:37 | 00:00:00 | |
| BIOWL1-15 | 2026-09-05 06:44:16 | 49.33859 | 9.04119 | 71° | 15km/h | 32657m | -27m/s | -37.9°C | 0% | 8.2hPa | 2.7V | 03:04:12 | 02:11:42 | 00:00:00 | |
| DF8AY | 2026-09-05 06:44:14 | 49.33857 | 9.04108 | 77° | 15km/h | 32709m | -23.9m/s | -38°C | 0% | 8.2hPa | 2.6V | 03:04:12 | 02:11:40 | 00:00:00 | |
| HSKMA3-T | 2026-09-05 06:44:10 | 49.33848 | 9.04089 | 35° | 20km/h | 32792m | -20.4m/s | -38°C | 0% | 8.1hPa | 2.7V | 03:04:12 | 02:11:36 | 00:00:00 | |
| PG1ADW-2 | 2026-09-05 06:44:10 | 49.33848 | 9.04089 | 35° | 15km/h | 32793m | -20.4m/s | -38.0°C | 1.5% | 8.0hPa | 2.6V | 00:00:00 | 00:00:00 | 00:00:00 | |
| IW2NTF | 2026-09-05 06:44:09 | 49.33830 | 9.04054 | 71° | 20km/h | 32928m | -13.4m/s | -37.9°C | 1.6% | 7.9hPa | 2.6V | 03:03:36 | 02:11:30 | 00:00:00 | |
| DL1XH-west | 2026-09-05 06:44:06 | 49.33834 | 9.04069 | 71° | 22km/h | 32884m | -31.2m/s | -38°C | 0% | 8hPa | 2.7V | 03:04:12 | 02:11:32 | 00:00:00 | |
| AA1-15 | 2026-09-05 06:44:05 | 49.33832 | 9.04061 | 70° | 20km/h | 32910m | -22.7m/s | 0°C | 0% | 0hPa | 2.7V | 18:12:15 | 02:11:31 | 00:00:00 | |
| DM0DOS-11 | 2026-09-05 06:44:05 | 49.33824 | 9.04025 | 95° | 13km/h | 32912m | 4.9m/s | -38.1°C | 1.6% | 7.9hPa | 2.7V | 03:03:40 | 02:11:26 | 00:00:00 | |
| DF8AY | 2026-09-05 06:44:03 | 49.33828 | 9.04046 | 69° | 22km/h | 32935m | -3.9m/s | -37.9°C | 0% | 7.8hPa | 2.6V | 03:04:12 | 02:11:29 | 00:00:00 | |
| DK7TD | 2026-09-05 06:44:00 | 49.33824 | 9.04025 | 96° | 13km/h | 32912m | 4.9m/s | -38.1°C | 0% | 7.9hPa | 2.7V | 03:05:03 | 02:11:26 | 00:00:00 | |
| IW2NTF | 2026-09-05 06:43:59 | 49.33821 | 9.04017 | 23° | 11km/h | 32882m | 4.3m/s | -38°C | 1.6% | 7.9hPa | 2.7V | 03:03:46 | 02:11:20 | 00:00:00 | |
| HSKMA3-T | 2026-09-05 06:43:59 | 49.33824 | 9.04021 | 111° | 9km/h | 32907m | 4.6m/s | -38.1°C | 0% | 7.9hPa | 2.6V | 03:04:12 | 02:11:25 | 00:00:00 | |
| DL1XH1-15 | 2026-09-05 06:43:58 | 49.33818 | 9.04014 | 44° | 15km/h | 32877m | 5.1m/s | -38°C | 1.6% | 7.9hPa | 2.6V | 03:03:47 | 02:11:19 | 00:00:00 | |
| DF3TZ-5 | 2026-09-05 06:43:57 | 49.33825 | 9.04017 | 343° | 4km/h | 32891m | 5.5m/s | -38.1°C | 0.0% | 7.9hPa | 2.7V | 00:00:00 | 00:00:00 | 00:00:00 | |
| DB0UT-7 | 2026-09-05 06:43:56 | 49.33825 | 9.04017 | 344° | 16km/h | 32892m | 5.4m/s | -38.0°C | 1.6% | 7.9hPa | 2.7V | 03:03:00 | 02:11:22 | 00:00:00 | |
| DM0DOS-11 | 2026-09-05 06:43:55 | 49.33811 | 9.03990 | 73° | 29km/h | 32859m | 5m/s | -37.9°C | 1.6% | 7.9hPa | 2.7V | 03:03:50 | 02:11:16 | 00:00:00 | |
| DL1XH-west | 2026-09-05 06:43:55 | 49.33823 | 9.04018 | 1° | 9km/h | 32886m | 4.6m/s | -38.1°C | 0% | 7.9hPa | 2.7V | 03:04:12 | 02:11:21 | 00:00:00 | |
| BIOWL1-15 | 2026-09-05 06:43:52 | 49.33816 | 9.04008 | 61° | 20km/h | 32871m | 6.5m/s | -38°C | 0% | 7.9hPa | 2.6V | 03:04:12 | 02:11:18 | 00:00:00 | |
| DL4BBY-15 | 2026-09-05 06:43:52 | 49.33815 | 9.04008 | 61° | 16km/h | 32872m | 6.4m/s | -38.8°C | 0% | 0hPa | 2.7V | 00:00:00 | 00:00:00 | 00:00:00 | |
| PG1ADW-2 | 2026-09-05 06:43:50 | 49.33811 | 9.03990 | 74° | 18km/h | 32860m | 5.0m/s | -37.9°C | 1.6% | 7.9hPa | 2.7V | 03:03:00 | 00:00:00 | 00:00:00 | |
| IW2NTF | 2026-09-05 06:43:49 | 49.33793 | 9.03952 | 359° | 9km/h | 32828m | 4.9m/s | -37.8°C | 1.6% | 8hPa | 2.7V | 03:03:56 | 02:11:10 | 00:00:00 | |
| DL1XH1-15 | 2026-09-05 06:43:48 | 49.33792 | 9.03952 | 349° | 4km/h | 32823m | 5.6m/s | -37.9°C | 1.6% | 8hPa | 2.7V | 03:03:57 | 02:11:09 | 00:00:00 | |
| HSKMA3-T | 2026-09-05 06:43:48 | 49.33806 | 9.03969 | 64° | 27km/h | 32850m | 4.7m/s | -37.9°C | 0% | 8hPa | 2.7V | 03:04:12 | 02:11:14 | 00:00:00 | |
| DK7TD | 2026-09-05 06:43:47 | 49.33803 | 9.03961 | 53° | 24km/h | 32845m | 6m/s | -38°C | 0% | 7.9hPa | 2.6V | 03:05:03 | 02:11:13 | 00:00:00 | |
| DF7PN | 2026-09-05 06:43:47 | 49.33799 | 9.03955 | 37° | 16km/h | 32839m | 5.6m/s | -37.9°C | 0.0% | 8.0hPa | 2.7V | 00:00:00 | 00:00:00 | 00:00:00 | |
| DM3KS-11 | 2026-09-05 06:43:46 | 49.33796 | 9.03952 | 18° | 11km/h | 32833m | 5.2m/s | -37.8°C | 0.0% | 8.0hPa | 2.7V | 00:00:00 | 00:00:00 | 00:00:00 | |
| DL1XH-west | 2026-09-05 06:43:44 | 49.33793 | 9.03952 | 360° | 9km/h | 32828m | 4.9m/s | -37.8°C | 0% | 8hPa | 2.7V | 03:04:12 | 02:11:10 | 00:00:00 | |
| BIOWL1-15 | 2026-09-05 06:43:42 | 49.33791 | 9.03952 | 88° | 2km/h | 32817m | 5.8m/s | -38°C | 0% | 8hPa | 2.6V | 03:04:12 | 02:11:08 | 00:00:00 | |
| DF8AY | 2026-09-05 06:43:41 | 49.33791 | 9.03950 | 119° | 5km/h | 32812m | 5.1m/s | -37.9°C | 0% | 8hPa | 2.6V | 03:04:12 | 02:11:07 | 00:00:00 | |
| CB1BUN | 2026-09-05 06:43:41 | 49.33791 | 9.03951 | 120° | 5km/h | 32812m | 5.1m/s | -37.9°C | 0.0% | 8.0hPa | 2.7V | 03:04:00 | 00:00:00 | 00:00:00 | |
| DL0LBS | 2026-09-05 06:43:40 | 49.33791 | 9.03951 | 120° | 5km/h | 32812m | 5.1m/s | -37.9°C | 0.0% | 8.0hPa | 2.7V | 03:04:00 | 00:00:00 | 00:00:00 | |
| HARRO8 | 2026-09-05 06:43:39 | 49.33792 | 9.03936 | 74° | 18km/h | 32798m | 4.6m/s | -38.0°C | 0.0% | 8.0hPa | 2.7V | 00:00:00 | 00:00:00 | 00:00:00 | |
| DL1XH1-15 | 2026-09-05 06:43:38 | 49.33772 | 9.03903 | 41° | 24km/h | 32771m | 4.1m/s | -37.9°C | 1.6% | 8.1hPa | 2.7V | 03:04:07 | 02:10:59 | 00:00:00 | |
| HSKMA3-T | 2026-09-05 06:43:37 | 49.33790 | 9.03929 | 60° | 22km/h | 32793m | 6.1m/s | -37.8°C | 0% | 8hPa | 2.7V | 03:04:12 | 02:11:03 | 00:00:00 | |
| DK7TD | 2026-09-05 06:43:36 | 49.33786 | 9.03922 | 46° | 26km/h | 32786m | 6.2m/s | -37.9°C | 0% | 8hPa | 2.6V | 03:05:03 | 02:11:02 | 00:00:00 | |
| DL1XH-west | 2026-09-05 06:43:33 | 49.33771 | 9.03903 | 41° | 24km/h | 32771m | 4.1m/s | -37.9°C | 0% | 8.1hPa | 2.7V | 03:04:12 | 02:10:59 | 00:00:00 | |
| BIOWL1-15 | 2026-09-05 06:43:31 | 49.33766 | 9.03892 | 78° | 15km/h | 32761m | 6m/s | -37.9°C | 0% | 8.1hPa | 2.7V | 03:04:12 | 02:10:57 | 00:00:00 | |
| DF8AY | 2026-09-05 06:43:30 | 49.33767 | 9.03887 | 111° | 15km/h | 32756m | 5.8m/s | -38.1°C | 0% | 8.1hPa | 2.6V | 03:04:12 | 02:10:56 | 00:00:00 | |
| HSKMA3-T | 2026-09-05 06:43:27 | 49.33774 | 9.03876 | 148° | 11km/h | 32740m | 5.4m/s | -38°C | 0% | 8.1hPa | 2.7V | 03:05:03 | 02:10:53 | 00:00:00 | |
| DB0UT-7 | 2026-09-05 06:43:26 | 49.33775 | 9.03874 | 129° | 16km/h | 32736m | 5.5m/s | -38.1°C | 1.6% | 8.1hPa | 2.6V | 00:00:00 | 00:00:00 | 00:00:00 | |
| DM0DOS-11 | 2026-09-05 06:43:25 | 49.33758 | 9.03846 | 61° | 27km/h | 32703m | 5m/s | -38°C | 1.6% | 8.2hPa | 2.6V | 03:04:20 | 02:10:46 | 00:00:00 | |
| DK7TD | 2026-09-05 06:43:25 | 49.33775 | 9.03873 | 39° | 5km/h | 32730m | 5.2m/s | -38°C | 0% | 8.1hPa | 2.6V | 03:05:03 | 02:10:51 | 00:00:00 | |
| DL1XH-west | 2026-09-05 06:43:23 | 49.33770 | 9.03867 | 36° | 18km/h | 32719m | 5m/s | -38°C | 0% | 8.1hPa | 2.7V | 03:05:03 | 02:10:49 | 00:00:00 | |
| BIOWL1-15 | 2026-09-05 06:43:20 | 49.33758 | 9.03846 | 61° | 27km/h | 32703m | 5m/s | -38°C | 0% | 8.2hPa | 2.6V | 03:05:03 | 02:10:46 | 00:00:00 | |
| IW2NTF | 2026-09-05 06:43:19 | 49.33743 | 9.03814 | 336° | 5km/h | 32672m | 4.9m/s | -38.2°C | 1.6% | 8.2hPa | 2.6V | 03:04:26 | 02:10:40 | 00:00:00 | |
| DF8AY | 2026-09-05 06:43:19 | 49.33755 | 9.03836 | 64° | 27km/h | 32698m | 4.2m/s | -38°C | 0% | 8.2hPa | 2.6V | 03:05:03 | 02:10:45 | 00:00:00 | |
| HSKMA3-T | 2026-09-05 06:43:17 | 49.33749 | 9.03820 | 56° | 18km/h | 32689m | 5.7m/s | -38°C | 0% | 8.2hPa | 2.7V | 03:05:03 | 02:10:43 | 00:00:00 | |
| DF7PN | 2026-09-05 06:43:16 | 49.33744 | 9.03814 | 12° | 7km/h | 32678m | 5.3m/s | -38.1°C | 0.0% | 8.2hPa | 2.7V | 00:00:00 | 00:00:00 | 00:00:00 | |
| DM0DOS-11 | 2026-09-05 06:43:15 | 49.33741 | 9.03812 | 82° | 11km/h | 32652m | 4.5m/s | -38.4°C | 1.6% | 8.2hPa | 2.7V | 03:04:30 | 02:10:36 | 00:00:00 | |
| DK7TD | 2026-09-05 06:43:15 | 49.33744 | 9.03814 | 13° | 7km/h | 32677m | 5.3m/s | -38.1°C | 0% | 8.2hPa | 2.6V | 03:05:03 | 02:10:41 | 00:00:00 | |
| DF8AY | 2026-09-05 06:43:13 | 49.33738 | 9.03801 | 54° | 24km/h | 32643m | 4.8m/s | -38.5°C | 0% | 8.2hPa | 2.6V | 03:05:03 | 02:10:34 | 00:00:00 | |
| DL1XH-west | 2026-09-05 06:43:12 | 49.33741 | 9.03815 | 255° | 2km/h | 32662m | 5m/s | -38.5°C | 0% | 8.2hPa | 2.7V | 03:05:03 | 02:10:38 | 00:00:00 | |
| DB0ND-19 | 2026-09-05 06:43:12 | 49.33741 | 9.03815 | 99° | 4km/h | 32657m | 5.2m/s | -38.4°C | 0.0% | 8.2hPa | 2.6V | 00:00:00 | 00:00:00 | 00:00:00 | |
| PG1ADW-2 | 2026-09-05 06:43:10 | 49.33741 | 9.03812 | 83° | 20km/h | 32653m | 4.5m/s | -38.4°C | 1.6% | 8.2hPa | 2.6V | 00:00:00 | 02:10:36 | 00:00:00 | |
| IW2NTF | 2026-09-05 06:43:09 | 49.33712 | 9.03773 | 25° | 37km/h | 32622m | 4.1m/s | -38.6°C | 1.7% | 8.3hPa | 2.6V | 03:04:36 | 02:10:30 | 00:00:00 | |
| BIOWL1-15 | 2026-09-05 06:43:09 | 49.33740 | 9.03807 | 68° | 16km/h | 32648m | 4.2m/s | -38.5°C | 0% | 8.2hPa | 2.6V | 03:05:03 | 02:10:35 | 00:00:00 | |
| HSKMA3-T | 2026-09-05 06:43:07 | 49.33734 | 9.03793 | 43° | 29km/h | 32638m | 6m/s | -38.6°C | 0% | 8.2hPa | 2.7V | 03:05:03 | 02:10:33 | 00:00:00 | |
| DM7RM-13 | 2026-09-05 06:43:06 | 49.33727 | 9.03786 | 35° | 35km/h | 32632m | 6.0m/s | -38.6°C | 0.1% | 8.2hPa | 2.6V | 03:05:00 | 00:00:00 | 00:00:00 | |
| DM0DOS-11 | 2026-09-05 06:43:05 | 49.33691 | 9.03749 | 76° | 16km/h | 32602m | 6m/s | -38.5°C | 1.7% | 8.3hPa | 2.6V | 03:04:40 | 02:10:26 | 00:00:00 | |
| DK7TD | 2026-09-05 06:43:04 | 49.33711 | 9.03773 | 25° | 37km/h | 32622m | 4.1m/s | -38.6°C | 0% | 8.3hPa | 2.6V | 03:05:03 | 02:10:30 | 00:00:00 | |
| DL1XH-west | 2026-09-05 06:43:01 | 49.33693 | 9.03755 | 51° | 20km/h | 32608m | 5.9m/s | -38.5°C | 0% | 8.3hPa | 2.7V | 03:05:03 | 02:10:27 | 00:00:00 | |
| IW2NTF | 2026-09-05 06:42:59 | 49.33691 | 9.03723 | 37° | 9km/h | 32571m | 4.7m/s | -38.4°C | 1.6% | 8.3hPa | 2.6V | 03:04:46 | 02:10:20 | 00:00:00 | |
| NBG1-10 | 2026-09-05 06:42:59 | 49.33691 | 9.03743 | 100° | 16km/h | 32597m | 5.5m/s | -38.5°C | 1.6% | 8.2hPa | 2.6V | 00:00:00 | 02:10:25 | 00:00:00 | |
| DL1XH1-15 | 2026-09-05 06:42:58 | 49.33689 | 9.03721 | 27° | 11km/h | 32566m | 5.1m/s | -38.4°C | 1.6% | 8.3hPa | 2.6V | 03:04:47 | 02:10:19 | 00:00:00 | |
| DF8AY | 2026-09-05 06:42:58 | 49.33692 | 9.03737 | 108° | 15km/h | 32591m | 5m/s | -38.4°C | 0% | 8.3hPa | 2.6V | 03:05:03 | 02:10:24 | 00:00:00 | |
| HSKMA3-T | 2026-09-05 06:42:56 | 49.33693 | 9.03728 | 90° | 9km/h | 32580m | 5.5m/s | -38.4°C | 0% | 8.3hPa | 2.7V | 03:05:03 | 02:10:22 | 00:00:00 | |
| DK7TD | 2026-09-05 06:42:53 | 49.33689 | 9.03721 | 27° | 11km/h | 32566m | 5.1m/s | -38.4°C | 0% | 8.3hPa | 2.6V | 03:05:03 | 02:10:19 | 00:00:00 | |
| DL1XH-west | 2026-09-05 06:42:50 | 49.33681 | 9.03713 | 36° | 15km/h | 32549m | 4.8m/s | -38.4°C | 0% | 8.3hPa | 2.7V | 03:05:03 | 02:10:16 | 00:00:00 | |
| PG1ADW-2 | 2026-09-05 06:42:50 | 49.33681 | 9.03713 | 36° | 16km/h | 32550m | 4.8m/s | -38.3°C | 1.6% | 8.3hPa | 2.7V | 00:00:00 | 00:00:00 | 00:00:00 | |
| DO8TBO-1 | 2026-09-05 06:42:49 | 49.33678 | 9.03710 | 38° | 22km/h | 32545m | 4.5m/s | -38.3°C | 1.6% | 8.3hPa | 2.6V | 00:00:00 | 02:10:15 | 00:00:00 | |
| BIOWL1-15 | 2026-09-05 06:42:49 | 49.33671 | 9.03701 | 36° | 20km/h | 32534m | 6.3m/s | -38.4°C | 0% | 8.4hPa | 2.6V | 03:05:03 | 02:10:13 | 00:00:00 | |
| DL1XH1-15 | 2026-09-05 06:42:48 | 49.33661 | 9.03684 | 106° | 11km/h | 32515m | 4.4m/s | -38.3°C | 1.6% | 8.4hPa | 2.6V | 03:04:57 | 02:10:09 | 00:00:00 | |
| DF8AY | 2026-09-05 06:42:48 | 49.33675 | 9.03706 | 38° | 18km/h | 32540m | 5.1m/s | -38.4°C | 0% | 8.4hPa | 2.6V | 03:05:03 | 02:10:14 | 00:00:00 | |
| HSKMA3-T | 2026-09-05 06:42:46 | 49.33667 | 9.03697 | 36° | 20km/h | 32528m | 5.5m/s | -38.3°C | 0% | 8.4hPa | 2.7V | 03:05:03 | 02:10:12 | 00:00:00 | |
| DM0DOS-11 | 2026-09-05 06:42:45 | 49.33673 | 9.03671 | 155° | 29km/h | 32496m | 6.2m/s | -38.3°C | 1.6% | 8.4hPa | 2.7V | 03:05:00 | 02:10:06 | 00:00:00 | |
| DK7TD | 2026-09-05 06:42:43 | 49.33661 | 9.03684 | 107° | 11km/h | 32515m | 4.4m/s | -38.3°C | 0% | 8.4hPa | 2.6V | 03:05:03 | 02:10:09 | 00:00:00 | |
| DL1XH-west | 2026-09-05 06:42:40 | 49.33673 | 9.03671 | 156° | 29km/h | 32496m | 6.2m/s | -38.3°C | 0% | 8.4hPa | 2.7V | 03:05:03 | 02:10:06 | 00:00:00 | |
| IW2NTF | 2026-09-05 06:42:39 | 49.33686 | 9.03653 | 16° | 18km/h | 32465m | 4.7m/s | -38.2°C | 1.6% | 8.4hPa | 2.7V | 03:05:06 | 02:10:00 | 00:00:00 | |
| BIOWL1-15 | 2026-09-05 06:42:37 | 49.33689 | 9.03660 | 147° | 15km/h | 32483m | 5.2m/s | -38.3°C | 0% | 8.4hPa | 2.6V | 03:05:03 | 02:10:03 | 00:00:00 | |
| HARRO8 | 2026-09-05 06:42:36 | 49.33691 | 9.03657 | 100° | 5km/h | 32477m | 6.6m/s | -38.4°C | 0.0% | 8.4hPa | 2.7V | 00:00:00 | 00:00:00 | 00:00:00 | |
| DM0DOS-11 | 2026-09-05 06:42:35 | 49.33676 | 9.03639 | 122° | 15km/h | 32447m | 6.1m/s | -38.2°C | 1.6% | 8.5hPa | 2.7V | 03:05:10 | 02:09:56 | 00:00:00 | |
| HSKMA3-T | 2026-09-05 06:42:35 | 49.33690 | 9.03655 | 27° | 11km/h | 32470m | 6.2m/s | -38.2°C | 0% | 8.4hPa | 2.7V | 03:05:54 | 02:10:01 | 00:00:00 | |
| DK7TD | 2026-09-05 06:42:31 | 49.33676 | 9.03644 | 72° | 11km/h | 32453m | 4.9m/s | -38.2°C | 0% | 8.5hPa | 2.6V | 03:06:45 | 02:09:57 | 00:00:00 | |
| DL1XH-west | 2026-09-05 06:42:29 | 49.33680 | 9.03634 | 147° | 24km/h | 32441m | 6.5m/s | -38.2°C | 0% | 8.5hPa | 2.7V | 03:05:54 | 02:09:55 | 00:00:00 | |
| DL1XH1-15 | 2026-09-05 06:42:28 | 49.33725 | 9.03614 | 167° | 15km/h | 32409m | 6m/s | -38.2°C | 1.6% | 8.5hPa | 2.6V | 03:05:17 | 02:09:49 | 00:00:00 | |
| BIOWL1-15 | 2026-09-05 06:42:27 | 49.33695 | 9.03625 | 163° | 38km/h | 32429m | 5.3m/s | -38.4°C | 0% | 8.5hPa | 2.6V | 03:05:54 | 02:09:53 | 00:00:00 | |
| HSKMA3-T | 2026-09-05 06:42:24 | 49.33720 | 9.03616 | 170° | 24km/h | 32415m | 5.2m/s | -38.4°C | 0% | 8.5hPa | 2.7V | 03:05:54 | 02:09:50 | 00:00:00 | |
| DK7TD | 2026-09-05 06:42:20 | 49.33725 | 9.03610 | 32° | 11km/h | 32391m | 5.1m/s | -38.3°C | 0% | 8.5hPa | 2.7V | 03:06:45 | 02:09:46 | 00:00:00 | |
| DL1XH-west | 2026-09-05 06:42:18 | 49.33721 | 9.03603 | 67° | 11km/h | 32381m | 5.4m/s | -38.2°C | 0% | 8.6hPa | 2.6V | 03:05:54 | 02:09:44 | 00:00:00 | |
| DF8AY | 2026-09-05 06:42:17 | 49.33721 | 9.03599 | 99° | 13km/h | 32376m | 6m/s | -38.2°C | 0% | 8.6hPa | 2.6V | 03:05:54 | 02:09:43 | 00:00:00 | |
| BIOWL1-15 | 2026-09-05 06:42:16 | 49.33722 | 9.03594 | 122° | 16km/h | 32369m | 5.8m/s | -38.3°C | 0% | 8.6hPa | 2.6V | 03:05:54 | 02:09:42 | 00:00:00 | |
| HSKMA3-T | 2026-09-05 06:42:13 | 49.33734 | 9.03577 | 143° | 22km/h | 32354m | 4.9m/s | -38.3°C | 0% | 8.6hPa | 2.7V | 03:05:54 | 02:09:39 | 00:00:00 | |
| DK7TD | 2026-09-05 06:42:09 | 49.33741 | 9.03564 | 63° | 5km/h | 32332m | 5.4m/s | -38.4°C | 0% | 8.6hPa | 2.7V | 03:06:45 | 02:09:35 | 00:00:00 | |
| DL1XH1-15 | 2026-09-05 06:42:08 | 49.33748 | 9.03550 | 140° | 18km/h | 32299m | 5.2m/s | -38.6°C | 1.6% | 8.7hPa | 2.7V | 03:05:37 | 02:09:29 | 00:00:00 | |
| DL1XH-west | 2026-09-05 06:42:07 | 49.33740 | 9.03561 | 84° | 4km/h | 32322m | 4.9m/s | -38.5°C | 0% | 8.6hPa | 2.7V | 03:05:54 | 02:09:33 | 00:00:00 | |
| DF8AY | 2026-09-05 06:42:06 | 49.33740 | 9.03559 | 133° | 5km/h | 32316m | 5.9m/s | -38.4°C | 0% | 8.6hPa | 2.6V | 03:05:54 | 02:09:32 | 00:00:00 | |
| DJ2DS-15 | 2026-09-05 06:42:06 | 49.33740 | 9.03559 | 133° | 16km/h | 32317m | 5.9m/s | -38.4°C | 1.6% | 8.6hPa | 2.7V | 00:00:00 | 02:09:32 | 00:00:00 | |
| IW2NTF | 2026-09-05 06:42:05 | 49.33756 | 9.03534 | 113° | 16km/h | 32281m | 5.4m/s | -38.4°C | 1.6% | 8.7hPa | 2.7V | 03:05:40 | 02:09:26 | 00:00:00 | |
| BIOWL1-15 | 2026-09-05 06:42:05 | 49.33742 | 9.03557 | 147° | 11km/h | 32310m | 6m/s | -38.4°C | 0% | 8.7hPa | 2.6V | 03:05:54 | 02:09:31 | 00:00:00 | |
| HSKMA3-T | 2026-09-05 06:42:03 | 49.33752 | 9.03545 | 133° | 18km/h | 32293m | 6.1m/s | -38.5°C | 0% | 8.7hPa | 2.6V | 03:05:54 | 02:09:28 | 00:00:00 | |
| DK7TD | 2026-09-05 06:41:58 | 49.33760 | 9.03523 | 120° | 15km/h | 32272m | 4.8m/s | -38.6°C | 0% | 8.7hPa | 2.6V | 03:06:45 | 02:09:24 | 00:00:00 | |
| DL1XH1-15 | 2026-09-05 06:41:58 | 49.33780 | 9.03510 | 173° | 20km/h | 32245m | 4.3m/s | -38.7°C | 1.7% | 8.7hPa | 2.6V | 03:05:47 | 02:09:19 | 00:00:00 | |
| OE5DXL-15 | 2026-09-05 06:41:58 | 49.33760 | 9.03523 | 120° | 20km/h | 32272m | 4.7m/s | -38.5°C | 1.6% | 8.6hPa | 2.6V | 03:05:00 | 00:00:00 | 00:00:00 | |
| DL1XH-15 | 2026-09-05 06:41:57 | 49.33784 | 9.03509 | 170° | 16km/h | 32240m | 5.2m/s | -38.8°C | 1.7% | 8.7hPa | 2.6V | 03:05:48 | 02:09:18 | 00:00:00 | |
| DL1XH-west | 2026-09-05 06:41:57 | 49.33762 | 9.03518 | 136° | 15km/h | 32267m | 5.4m/s | -38.7°C | 0% | 8.7hPa | 2.6V | 03:05:54 | 02:09:23 | 00:00:00 | |
| BIOWL1-15 | 2026-09-05 06:41:56 | 49.33774 | 9.03511 | 172° | 22km/h | 32249m | 4.9m/s | -38.6°C | 0% | 8.7hPa | 2.7V | 03:05:54 | 02:09:20 | 00:00:00 | |
| DF8AY | 2026-09-05 06:41:55 | 49.33769 | 9.03512 | 166° | 20km/h | 32255m | 5.9m/s | -38.6°C | 0% | 8.7hPa | 2.7V | 03:05:54 | 02:09:21 | 00:00:00 | |
| HSKMA3-T | 2026-09-05 06:41:51 | 49.33788 | 9.03508 | 159° | 13km/h | 32234m | 6m/s | -39°C | 0% | 8.7hPa | 2.6V | 03:05:54 | 02:09:17 | 00:00:00 | |
| SONCRA | 2026-09-05 06:41:51 | 49.33788 | 9.03508 | 159° | 11km/h | 32234m | 6.0m/s | -39.0°C | 0.0% | 8.7hPa | 2.7V | 00:00:00 | 00:00:00 | 00:00:00 | |
| EDDB2-12 | 2026-09-05 06:41:49 | 49.33791 | 9.03502 | 113° | 9km/h | 32223m | 5.0m/s | -39.1°C | 0.1% | 8.8hPa | 2.7V | 00:00:00 | 00:00:00 | 00:00:00 | |
| DL1XH1-15 | 2026-09-05 06:41:48 | 49.33818 | 9.03471 | 156° | 35km/h | 32190m | 5m/s | -38.8°C | 1.7% | 8.8hPa | 2.7V | 03:05:57 | 02:09:09 | 00:00:00 | |
| DK7TD | 2026-09-05 06:41:47 | 49.33795 | 9.03493 | 127° | 16km/h | 32214m | 4.7m/s | -39°C | 0% | 8.8hPa | 2.6V | 03:06:45 | 02:09:13 | 00:00:00 | |
| DL1XH-west | 2026-09-05 06:41:46 | 49.33798 | 9.03488 | 139° | 22km/h | 32208m | 6.4m/s | -39°C | 0% | 8.8hPa | 2.6V | 03:05:54 | 02:09:12 | 00:00:00 | |
| BIOWL9-15 | 2026-09-05 06:41:46 | 49.33803 | 9.03482 | 149° | 27km/h | 32202m | 6.5m/s | -39.0°C | 0.1% | 8.8hPa | 2.7V | 00:00:00 | 00:00:00 | 00:00:00 | |
| DF8AY | 2026-09-05 06:41:44 | 49.33810 | 9.03477 | 154° | 33km/h | 32196m | 5.8m/s | -38.9°C | 0% | 8.8hPa | 2.7V | 03:06:45 | 02:09:10 | 00:00:00 | |
| BIOWL1-15 | 2026-09-05 06:41:43 | 49.33818 | 9.03471 | 156° | 35km/h | 32190m | 5m/s | -38.8°C | 0% | 8.8hPa | 2.7V | 03:06:45 | 02:09:09 | 00:00:00 | |
| DO3MHA-11 | 2026-09-05 06:41:43 | 49.33818 | 9.03471 | 157° | 26km/h | 32191m | 5.0m/s | -38.8°C | 1.7% | 8.8hPa | 2.6V | 03:05:00 | 02:09:09 | 00:00:00 | |
| DF7PN | 2026-09-05 06:41:42 | 49.33826 | 9.03465 | 154° | 33km/h | 32185m | 4.9m/s | -38.8°C | 0.0% | 8.8hPa | 2.6V | 00:00:00 | 00:00:00 | 00:00:00 | |
| IW2NTF | 2026-09-05 06:41:41 | 49.33855 | 9.03432 | 139° | 20km/h | 32151m | 6.3m/s | -38.9°C | 1.7% | 8.8hPa | 2.6V | 03:06:04 | 02:09:02 | 00:00:00 | |
| HSKMA3-T | 2026-09-05 06:41:40 | 49.33840 | 9.03454 | 146° | 27km/h | 32173m | 6.1m/s | -38.8°C | 0% | 8.8hPa | 2.6V | 03:06:45 | 02:09:06 | 00:00:00 | |
| DL1XH-west | 2026-09-05 06:41:36 | 49.33855 | 9.03432 | 139° | 20km/h | 32151m | 6.3m/s | -38.9°C | 0% | 8.8hPa | 2.6V | 03:06:45 | 02:09:02 | 00:00:00 | |
| DK7TD | 2026-09-05 06:41:35 | 49.33860 | 9.03427 | 146° | 22km/h | 32145m | 6.2m/s | -38.8°C | 0% | 8.9hPa | 2.7V | 03:06:45 | 02:09:01 | 00:00:00 | |
| DF8AY | 2026-09-05 06:41:34 | 49.33864 | 9.03423 | 151° | 22km/h | 32139m | 5.5m/s | -38.7°C | 0% | 8.9hPa | 2.7V | 03:06:45 | 02:09:00 | 00:00:00 | |
| DL1XH-15 | 2026-09-05 06:41:33 | 49.33885 | 9.03396 | 119° | 15km/h | 32106m | 4.8m/s | -38.9°C | 1.7% | 8.9hPa | 2.7V | 03:06:12 | 02:08:54 | 00:00:00 | |
| BIOWL1-15 | 2026-09-05 06:41:32 | 49.33874 | 9.03414 | 147° | 20km/h | 32129m | 5m/s | -38.7°C | 0% | 8.9hPa | 2.6V | 03:06:45 | 02:08:58 | 00:00:00 | |
| HSKMA3-T | 2026-09-05 06:41:29 | 49.33883 | 9.03400 | 119° | 15km/h | 32111m | 5.7m/s | -38.9°C | 0% | 8.9hPa | 2.7V | 03:06:45 | 02:08:55 | 00:00:00 | |
| DL1XH-west | 2026-09-05 06:41:26 | 49.33890 | 9.03386 | 141° | 18km/h | 32095m | 6.4m/s | -39.1°C | 0% | 8.9hPa | 2.6V | 03:06:45 | 02:08:52 | 00:00:00 | |
| DK7TD | 2026-09-05 06:41:24 | 49.33900 | 9.03377 | 153° | 26km/h | 32083m | 5.7m/s | -39.1°C | 0% | 9hPa | 2.6V | 03:06:45 | 02:08:50 | 00:00:00 | |
| BIOWL1-15 | 2026-09-05 06:41:24 | 49.33911 | 9.03368 | 150° | 24km/h | 32072m | 5.7m/s | -38.9°C | 0% | 9hPa | 2.7V | 03:06:45 | 02:08:48 | 00:00:00 | |
| DL3AQ-11 | 2026-09-05 06:41:24 | 49.33905 | 9.03373 | 153° | 24km/h | 32077m | 5.1m/s | -39.0°C | 0.0% | 9.0hPa | 2.6V | 00:00:00 | 00:00:00 | 00:00:00 | |
| DL1XH-15 | 2026-09-05 06:41:23 | 49.33924 | 9.03347 | 120° | 20km/h | 32049m | 5.5m/s | -38.6°C | 1.7% | 9hPa | 2.6V | 03:06:22 | 02:08:44 | 00:00:00 | |
| DF8AY | 2026-09-05 06:41:23 | 49.33905 | 9.03373 | 153° | 26km/h | 32077m | 5.1m/s | -39°C | 0% | 9hPa | 2.7V | 03:06:45 | 02:08:49 | 00:00:00 | |
| HSKMA3-T | 2026-09-05 06:41:18 | 49.33924 | 9.03347 | 120° | 20km/h | 32049m | 5.5m/s | -38.6°C | 0% | 9hPa | 2.6V | 03:06:45 | 02:08:44 | 00:00:00 | |
| DK5PH-5 | 2026-09-05 06:41:18 | 49.33924 | 9.03347 | 121° | 18km/h | 32049m | 5.5m/s | -38.6°C | 1.7% | 8.9hPa | 2.7V | 00:00:00 | 02:08:44 | 00:00:00 | |
| IW2NTF | 2026-09-05 06:41:17 | 49.33945 | 9.03304 | 122° | 18km/h | 32014m | 6.6m/s | -38.7°C | 1.7% | 9hPa | 2.7V | 03:06:28 | 02:08:38 | 00:00:00 | |
| DL1XH-west | 2026-09-05 06:41:15 | 49.33935 | 9.03324 | 131° | 26km/h | 32030m | 5.3m/s | -38.6°C | 0% | 9hPa | 2.7V | 03:06:45 | 02:08:41 | 00:00:00 | |
| BIOWL9-15 | 2026-09-05 06:41:15 | 49.33939 | 9.03317 | 131° | 24km/h | 32025m | 4.8m/s | -38.6°C | 0.0% | 9.0hPa | 2.6V | 00:00:00 | 00:00:00 | 00:00:00 | |
| DM0DOS-11 | 2026-09-05 06:41:14 | 49.33950 | 9.03289 | 115° | 13km/h | 31995m | 5.4m/s | -38.8°C | 1.6% | 9.1hPa | 2.6V | 03:06:31 | 02:08:35 | 00:00:00 | |
| DK7TD | 2026-09-05 06:41:14 | 49.33939 | 9.03317 | 131° | 24km/h | 32025m | 4.8m/s | -38.6°C | 0% | 9hPa | 2.6V | 03:06:45 | 02:08:40 | 00:00:00 | |
| DF8AY | 2026-09-05 06:41:12 | 49.33946 | 9.03304 | 122° | 18km/h | 32014m | 6.6m/s | -38.7°C | 0% | 9hPa | 2.7V | 03:06:45 | 02:08:38 | 00:00:00 | |
| BIOWL1-15 | 2026-09-05 06:41:11 | 49.33948 | 9.03298 | 114° | 15km/h | 32008m | 6.6m/s | -38.7°C | 0% | 9hPa | 2.7V | 03:06:45 | 02:08:37 | 00:00:00 | |
| AU51GT2 | 2026-09-05 06:41:10 | 49.33950 | 9.03289 | 115° | 11km/h | 31996m | 5.4m/s | -38.8°C | 0.0% | 9.1hPa | 2.6V | 00:00:00 | 00:00:00 | 00:00:00 | |
| OE5DRO-10 | 2026-09-05 06:41:09 | 49.33950 | 9.03289 | 116° | 15km/h | 31996m | 5.3m/s | -38.8°C | 1.6% | 9.0hPa | 2.6V | 00:00:00 | 00:00:00 | 00:00:00 | |
| DL1XH1-15 | 2026-09-05 06:41:08 | 49.33973 | 9.03261 | 141° | 20km/h | 31961m | 6m/s | -38.9°C | 1.7% | 9.1hPa | 2.6V | 03:06:37 | 02:08:29 | 00:00:00 | |
| HSKMA3-T | 2026-09-05 06:41:08 | 49.33952 | 9.03285 | 128° | 15km/h | 31990m | 6m/s | -38.9°C | 0% | 9.1hPa | 2.7V | 03:06:45 | 02:08:34 | 00:00:00 | |
| DB0UT-9 | 2026-09-05 06:41:07 | 49.33951 | 9.03284 | 129° | 15km/h | 31990m | 6.0m/s | -38.9°C | 0.1% | 9.1hPa | 2.6V | 03:06:00 | 00:00:00 | 00:00:00 | |
| DJ2DS-15 | 2026-09-05 06:41:06 | 49.33959 | 9.03275 | 147° | 18km/h | 31977m | 6.1m/s | -39.0°C | 1.6% | 9.0hPa | 2.6V | 03:06:00 | 02:08:32 | 00:00:00 | |
| DJ2DS-15 | 2026-09-05 06:41:05 | 49.33964 | 9.03271 | 147° | 24km/h | 31972m | 5.2m/s | -39.0°C | 0.1% | 9.1hPa | 2.6V | 00:00:00 | 00:00:00 | 00:00:00 | |
| DM0DOS-11 | 2026-09-05 06:41:04 | 49.33980 | 9.03241 | 105° | 15km/h | 31937m | 5.4m/s | -38.9°C | 1.7% | 9.1hPa | 2.6V | 03:06:41 | 02:08:25 | 00:00:00 | |
| DL1XH-west | 2026-09-05 06:41:04 | 49.33969 | 9.03266 | 146° | 24km/h | 31967m | 4.9m/s | -39°C | 0% | 9.1hPa | 2.6V | 03:06:45 | 02:08:30 | 00:00:00 | |
| DF8AY | 2026-09-05 06:41:02 | 49.33977 | 9.03256 | 129° | 16km/h | 31955m | 6.9m/s | -38.8°C | 0% | 9.1hPa | 2.7V | 03:06:45 | 02:08:28 | 00:00:00 | |
| BIOWL1-15 | 2026-09-05 06:41:01 | 49.33978 | 9.03251 | 113° | 15km/h | 31948m | 6.5m/s | -38.8°C | 0% | 9.1hPa | 2.7V | 03:06:45 | 02:08:27 | 00:00:00 | |
| DL1ZP-14 | 2026-09-05 06:41:00 | 49.33979 | 9.03246 | 103° | 13km/h | 31942m | 5.5m/s | -38.8°C | 0.0% | 9.1hPa | 2.7V | 00:00:00 | 00:00:00 | 00:00:00 | |
| DL1XH-15 | 2026-09-05 06:40:59 | 49.33992 | 9.03216 | 132° | 15km/h | 31906m | 6.2m/s | -39.2°C | 1.7% | 9.2hPa | 2.7V | 03:06:46 | 02:08:20 | 00:00:00 | |
| HSKMA3-T | 2026-09-05 06:40:58 | 49.33982 | 9.03236 | 115° | 15km/h | 31931m | 6.7m/s | -38.9°C | 0% | 9.2hPa | 2.6V | 03:06:45 | 02:08:24 | 00:00:00 | |
| DL6DJ-15 | 2026-09-05 06:40:57 | 49.33984 | 9.03230 | 125° | 16km/h | 31924m | 6.5m/s | -39.0°C | 0.0% | 9.2hPa | 2.7V | 00:00:00 | 00:00:00 | 00:00:00 | |
| DL0LBS | 2026-09-05 06:40:56 | 49.33986 | 9.03225 | 134° | 18km/h | 31918m | 5.8m/s | -39.0°C | 0.1% | 9.2hPa | 2.7V | 03:06:00 | 00:00:00 | 00:00:00 | |
| DM0DOS-11 | 2026-09-05 06:40:54 | 49.34003 | 9.03192 | 129° | 22km/h | 31876m | 7m/s | -39.3°C | 1.7% | 9.2hPa | 2.7V | 03:06:51 | 02:08:15 | 00:00:00 | |
| DL1XH-west | 2026-09-05 06:40:53 | 49.33995 | 9.03211 | 128° | 13km/h | 31900m | 6.6m/s | -39.2°C | 0% | 9.2hPa | 2.6V | 03:07:36 | 02:08:19 | 00:00:00 | |
| DF8AY | 2026-09-05 06:40:52 | 49.33997 | 9.03207 | 121° | 13km/h | 31894m | 5.7m/s | -39.1°C | 0% | 9.2hPa | 2.6V | 03:07:36 | 02:08:18 | 00:00:00 | |
| DL4BBY-15 | 2026-09-05 06:40:52 | 49.33996 | 9.03207 | 121° | 24km/h | 31894m | 5.7m/s | -39.9°C | 0% | 0hPa | 2.7V | 00:00:00 | 00:00:00 | 00:00:00 | |
| KANTATE | 2026-09-05 06:40:51 | 49.33997 | 9.03207 | 122° | 13km/h | 31894m | 5.7m/s | -39.1°C | 0.0% | 9.2hPa | 2.7V | 03:07:00 | 00:00:00 | 00:00:00 | |
| PG1ADW-2 | 2026-09-05 06:40:50 | 49.34001 | 9.03197 | 127° | 24km/h | 31883m | 5.5m/s | -39.1°C | 1.7% | 9.2hPa | 2.7V | 00:00:00 | 00:00:00 | 00:00:00 | |
| DL1XH-15 | 2026-09-05 06:40:49 | 49.34023 | 9.03151 | 107° | 24km/h | 31846m | 6.9m/s | -39.1°C | 1.7% | 9.3hPa | 2.7V | 03:06:56 | 02:08:10 | 00:00:00 | |
| BIOWL1-15 | 2026-09-05 06:40:49 | 49.34004 | 9.03192 | 129° | 22km/h | 31877m | 7m/s | -39.3°C | 0% | 9.2hPa | 2.7V | 03:07:36 | 02:08:15 | 00:00:00 | |
| HSKMA3-T | 2026-09-05 06:40:47 | 49.34012 | 9.03177 | 131° | 29km/h | 31863m | 5.8m/s | -39.3°C | 0% | 9.3hPa | 2.6V | 03:07:36 | 02:08:13 | 00:00:00 | |
| DF2AP-13 | 2026-09-05 06:40:47 | 49.34012 | 9.03177 | 131° | 27km/h | 31864m | 5.7m/s | -39.3°C | 1.7% | 9.2hPa | 2.6V | 00:00:00 | 02:08:13 | 00:00:00 | |
| DJ2DS-15 | 2026-09-05 06:40:46 | 49.34016 | 9.03168 | 126° | 24km/h | 31858m | 5.1m/s | -39.2°C | 1.7% | 9.2hPa | 2.6V | 00:00:00 | 02:08:12 | 00:00:00 | |
| DO3DL | 2026-09-05 06:40:45 | 49.34016 | 9.03168 | 127° | 27km/h | 31858m | 5.2m/s | -39.3°C | 0.0% | 9.3hPa | 2.6V | 03:07:00 | 00:00:00 | 00:00:00 | |
| DM0DOS-11 | 2026-09-05 06:40:44 | 49.34026 | 9.03117 | 126° | 18km/h | 31817m | 7m/s | -39.5°C | 1.7% | 9.3hPa | 2.6V | 03:07:01 | 02:08:05 | 00:00:00 | |
| DK7TD | 2026-09-05 06:40:43 | 49.34023 | 9.03143 | 95° | 20km/h | 31839m | 6.6m/s | -39.2°C | 0% | 9.3hPa | 2.6V | 03:07:36 | 02:08:09 | 00:00:00 | |
| DL1XH-west | 2026-09-05 06:40:42 | 49.34024 | 9.03136 | 86° | 18km/h | 31833m | 5.5m/s | -39.2°C | 0% | 9.3hPa | 2.6V | 03:07:36 | 02:08:08 | 00:00:00 | |
| DF8AY | 2026-09-05 06:40:41 | 49.34023 | 9.03129 | 91° | 16km/h | 31828m | 4.9m/s | -39.3°C | 0% | 9.3hPa | 2.7V | 03:07:36 | 02:08:07 | 00:00:00 | |
| DF7PN | 2026-09-05 06:40:40 | 49.34024 | 9.03123 | 108° | 15km/h | 31823m | 5.4m/s | -39.4°C | 0.1% | 9.3hPa | 2.6V | 00:00:00 | 00:00:00 | 00:00:00 | |
| AU51GT2 | 2026-09-05 06:40:39 | 49.34030 | 9.03111 | 139° | 24km/h | 31810m | 6.9m/s | -39.6°C | 0.1% | 9.3hPa | 2.6V | 00:00:00 | 00:00:00 | 00:00:00 | |
| DL1XH1-15 | 2026-09-05 06:40:38 | 49.34057 | 9.03073 | 118° | 24km/h | 31779m | 6.4m/s | -39.8°C | 1.7% | 9.4hPa | 2.6V | 03:07:07 | 02:07:59 | 00:00:00 | |
| BIOWL1-15 | 2026-09-05 06:40:38 | 49.34030 | 9.03111 | 139° | 26km/h | 31810m | 6.9m/s | -39.6°C | 0% | 9.3hPa | 2.6V | 03:07:36 | 02:08:04 | 00:00:00 | |
| HSKMA3-T | 2026-09-05 06:40:36 | 49.34042 | 9.03097 | 143° | 33km/h | 31797m | 5.4m/s | -39.6°C | 0% | 9.3hPa | 2.7V | 03:07:36 | 02:08:02 | 00:00:00 | |
| DM0DOS-11 | 2026-09-05 06:40:34 | 49.34063 | 9.03039 | 106° | 24km/h | 31755m | 6.7m/s | -39.9°C | 1.7% | 9.4hPa | 2.7V | 03:07:11 | 02:07:55 | 00:00:00 | |
| DK7TD | 2026-09-05 06:40:32 | 49.34059 | 9.03065 | 106° | 22km/h | 31773m | 5.9m/s | -39.7°C | 0% | 9.4hPa | 2.6V | 03:07:36 | 02:07:58 | 00:00:00 | |
| DL1XH-west | 2026-09-05 06:40:31 | 49.34060 | 9.03056 | 100° | 22km/h | 31767m | 5.6m/s | -39.7°C | 0% | 9.4hPa | 2.7V | 03:07:36 | 02:07:57 | 00:00:00 | |
| DF8AY | 2026-09-05 06:40:30 | 49.34061 | 9.03048 | 101° | 24km/h | 31761m | 6.3m/s | -39.8°C | 0% | 9.4hPa | 2.7V | 03:07:36 | 02:07:56 | 00:00:00 | |
| BIOWL1-15 | 2026-09-05 06:40:30 | 49.34065 | 9.03030 | 113° | 27km/h | 31748m | 6.2m/s | -40.1°C | 0% | 9.4hPa | 2.6V | 03:07:36 | 02:07:54 | 00:00:00 | |
| PG1ADW-2 | 2026-09-05 06:40:30 | 49.34061 | 9.03047 | 101° | 29km/h | 31762m | 6.2m/s | -39.8°C | 1.7% | 9.3hPa | 2.7V | 00:00:00 | 02:07:56 | 00:00:00 | |
| DO8TBO-1 | 2026-09-05 06:40:29 | 49.34063 | 9.03039 | 107° | 22km/h | 31755m | 6.7m/s | -39.9°C | 1.7% | 9.3hPa | 2.7V | 00:00:00 | 02:07:55 | 00:00:00 | |
| DL1XH1-15 | 2026-09-05 06:40:28 | 49.34081 | 9.02978 | 107° | 29km/h | 31718m | 6.5m/s | -40.4°C | 1.8% | 9.5hPa | 2.7V | 03:07:17 | 02:07:49 | 00:00:00 | |
| HSKMA3-T | 2026-09-05 06:40:25 | 49.34075 | 9.03000 | 116° | 29km/h | 31731m | 5.7m/s | -40.2°C | 0% | 9.4hPa | 2.7V | 03:07:36 | 02:07:51 | 00:00:00 | |
| DK7TD | 2026-09-05 06:40:22 | 49.34083 | 9.02968 | 107° | 29km/h | 31712m | 5.5m/s | -40.4°C | 0% | 9.5hPa | 2.6V | 03:07:36 | 02:07:48 | 00:00:00 | |
| DL1XH-west | 2026-09-05 06:40:21 | 49.34085 | 9.02957 | 111° | 31km/h | 31707m | 5.2m/s | -40.4°C | 0% | 9.5hPa | 2.6V | 03:07:36 | 02:07:47 | 00:00:00 | |
| DL1XH-15 | 2026-09-05 06:40:19 | 49.34122 | 9.02892 | 124° | 26km/h | 31667m | 6.6m/s | -40.8°C | 1.8% | 9.5hPa | 2.7V | 03:07:26 | 02:07:40 | 00:00:00 | |
| DF8AY | 2026-09-05 06:40:19 | 49.34093 | 9.02936 | 128° | 33km/h | 31695m | 7m/s | -40.4°C | 0% | 9.5hPa | 2.7V | 03:07:36 | 02:07:45 | 00:00:00 | |
| BIOWL1-15 | 2026-09-05 06:40:19 | 49.34106 | 9.02917 | 140° | 35km/h | 31682m | 5.3m/s | -40.6°C | 0% | 9.5hPa | 2.7V | 03:07:36 | 02:07:43 | 00:00:00 | |
| HSKMA3-T | 2026-09-05 06:40:15 | 49.34118 | 9.02900 | 135° | 29km/h | 31672m | 5.2m/s | -40.9°C | 0% | 9.5hPa | 2.6V | 03:07:36 | 02:07:41 | 00:00:00 | |
| DL3AQ-11 | 2026-09-05 06:40:15 | 49.34123 | 9.02892 | 124° | 24km/h | 31667m | 6.6m/s | -40.8°C | 0.1% | 9.5hPa | 2.7V | 00:00:00 | 00:00:00 | 00:00:00 | |
| DL1NUX | 2026-09-05 06:40:14 | 49.34125 | 9.02848 | 98° | 26km/h | 31635m | 5.9m/s | -40.9°C | 1.8% | 9.6hPa | 2.7V | 03:07:31 | 02:07:35 | 00:00:00 | |
| DK7TD | 2026-09-05 06:40:11 | 49.34126 | 9.02867 | 82° | 24km/h | 31646m | 5.6m/s | -40.8°C | 0% | 9.6hPa | 2.6V | 03:07:36 | 02:07:37 | 00:00:00 | |
| DL1XH-west | 2026-09-05 06:40:10 | 49.34125 | 9.02858 | 86° | 24km/h | 31641m | 5.2m/s | -40.9°C | 0% | 9.6hPa | 2.7V | 03:07:36 | 02:07:36 | 00:00:00 | |
| DF8AY | 2026-09-05 06:40:09 | 49.34125 | 9.02848 | 98° | 26km/h | 31635m | 5.9m/s | -40.9°C | 0% | 9.6hPa | 2.7V | 03:07:36 | 02:07:35 | 00:00:00 | |
| DL1XH1-15 | 2026-09-05 06:40:08 | 49.34157 | 9.02792 | 133° | 33km/h | 31599m | 6.2m/s | -41.1°C | 1.9% | 9.6hPa | 2.6V | 03:07:37 | 02:07:29 | 00:00:00 | |
| BIOWL1-15 | 2026-09-05 06:40:06 | 49.34137 | 9.02820 | 137° | 35km/h | 31616m | 6.2m/s | -41.1°C | 0% | 9.6hPa | 2.7V | 03:07:36 | 02:07:32 | 00:00:00 | |
| HSKMA3-T | 2026-09-05 06:40:04 | 49.34151 | 9.02801 | 139° | 37km/h | 31604m | 5.6m/s | -41.1°C | 0% | 9.6hPa | 2.7V | 03:07:36 | 02:07:30 | 00:00:00 | |
| DL3AQ-11 | 2026-09-05 06:40:04 | 49.34157 | 9.02792 | 133° | 33km/h | 31599m | 6.2m/s | -41.1°C | 0.1% | 9.6hPa | 2.6V | 00:00:00 | 00:00:00 | 00:00:00 | |
| DO3MHA-11 | 2026-09-05 06:40:03 | 49.34157 | 9.02792 | 134° | 20km/h | 31599m | 6.1m/s | -41.0°C | 1.9% | 9.6hPa | 2.6V | 00:00:00 | 02:07:29 | 00:00:00 | |
| HARRO8 | 2026-09-05 06:40:01 | 49.34165 | 9.02774 | 114° | 24km/h | 31587m | 5.8m/s | -41.0°C | 0.1% | 9.7hPa | 2.6V | 00:00:00 | 00:00:00 | 00:00:00 | |
| DL1NUX | 2026-09-05 06:40:00 | 49.34178 | 9.02742 | 150° | 13km/h | 31550m | 5.2m/s | -41.1°C | 1.8% | 9.7hPa | 2.6V | 03:07:45 | 02:07:21 | 00:00:00 | |
| DL1XH-west | 2026-09-05 06:40:00 | 49.34167 | 9.02766 | 108° | 22km/h | 31581m | 5.5m/s | -41.1°C | 0% | 9.7hPa | 2.7V | 03:08:27 | 02:07:26 | 00:00:00 | |
| DF8AY | 2026-09-05 06:39:58 | 49.34170 | 9.02753 | 118° | 15km/h | 31569m | 6.8m/s | -41.1°C | 0% | 9.7hPa | 2.7V | 03:08:27 | 02:07:24 | 00:00:00 | |
| BIOWL1-15 | 2026-09-05 06:39:55 | 49.34178 | 9.02742 | 151° | 13km/h | 31550m | 5.3m/s | -41.1°C | 0% | 9.7hPa | 2.6V | 03:08:27 | 02:07:21 | 00:00:00 | |
| HSKMA3-T | 2026-09-05 06:39:53 | 49.34183 | 9.02737 | 136° | 11km/h | 31539m | 6.5m/s | -41.1°C | 0% | 9.7hPa | 2.7V | 03:08:27 | 02:07:19 | 00:00:00 | |
| DK7TD | 2026-09-05 06:39:50 | 49.34187 | 9.02724 | 104° | 15km/h | 31520m | 5.4m/s | -41.1°C | 0% | 9.7hPa | 2.6V | 03:08:27 | 02:07:16 | 00:00:00 | |
| DL1XH-west | 2026-09-05 06:39:49 | 49.34188 | 9.02719 | 115° | 15km/h | 31515m | 5.4m/s | -41°C | 0% | 9.8hPa | 2.6V | 03:08:27 | 02:07:15 | 00:00:00 | |
| DL3AQ-11 | 2026-09-05 06:39:48 | 49.34194 | 9.02709 | 146° | 18km/h | 31503m | 6.9m/s | -41.0°C | 0.1% | 9.8hPa | 2.7V | 00:00:00 | 00:00:00 | 00:00:00 | |
| DL1NUX | 2026-09-05 06:39:47 | 49.34215 | 9.02682 | 109° | 24km/h | 31472m | 7m/s | -41.1°C | 1.8% | 9.8hPa | 2.7V | 03:07:58 | 02:07:08 | 00:00:00 | |
| DF8AY | 2026-09-05 06:39:47 | 49.34194 | 9.02709 | 146° | 18km/h | 31502m | 6.9m/s | -41°C | 0% | 9.8hPa | 2.7V | 03:08:27 | 02:07:13 | 00:00:00 | |
| BIOWL1-15 | 2026-09-05 06:39:45 | 49.34203 | 9.02701 | 151° | 24km/h | 31490m | 5.2m/s | -41.2°C | 0% | 9.8hPa | 2.6V | 03:08:27 | 02:07:11 | 00:00:00 | |
| HSKMA3-T | 2026-09-05 06:39:43 | 49.34212 | 9.02690 | 127° | 22km/h | 31479m | 6.4m/s | -41.2°C | 0% | 9.8hPa | 2.6V | 03:08:27 | 02:07:09 | 00:00:00 | |
| DF8AY | 2026-09-05 06:39:42 | 49.34222 | 9.02634 | 120° | 26km/h | 31441m | 6.2m/s | -41.3°C | 0% | 9.8hPa | 2.7V | 03:08:27 | 02:07:03 | 00:00:00 | |
| BIOWL9-15 | 2026-09-05 06:39:41 | 49.34216 | 9.02673 | 98° | 26km/h | 31466m | 6.2m/s | -41.0°C | 0.1% | 9.8hPa | 2.6V | 00:00:00 | 00:00:00 | 00:00:00 | |
| BUE01 | 2026-09-05 06:39:40 | 49.34220 | 9.02642 | 108° | 26km/h | 31448m | 6.8m/s | 0°C | -1.0% | -1.0hPa | 2.6V | 00:00:00 | 00:00:00 | 00:00:00 | |
| DL1XH-15 | 2026-09-05 06:39:39 | 49.34234 | 9.02612 | 134° | 24km/h | 31424m | 6.3m/s | -41.2°C | 1.9% | 9.9hPa | 2.6V | 03:08:06 | 02:07:00 | 00:00:00 | |
| DK7TD | 2026-09-05 06:39:39 | 49.34218 | 9.02652 | 100° | 27km/h | 31454m | 6m/s | -41.1°C | 0% | 9.8hPa | 2.6V | 03:08:27 | 02:07:05 | 00:00:00 | |
| DL1XH-west | 2026-09-05 06:39:38 | 49.34220 | 9.02642 | 109° | 26km/h | 31448m | 6.8m/s | -41.2°C | 0% | 9.8hPa | 2.6V | 03:08:27 | 02:07:04 | 00:00:00 | |
| BIOWL1-15 | 2026-09-05 06:39:37 | 49.34230 | 9.02619 | 136° | 24km/h | 31430m | 5.7m/s | -41.2°C | 0% | 9.9hPa | 2.6V | 03:08:27 | 02:07:01 | 00:00:00 | |
| AU51GT2 | 2026-09-05 06:39:37 | 49.34226 | 9.02626 | 130° | 24km/h | 31436m | 5.7m/s | -41.2°C | 0.1% | 9.9hPa | 2.7V | 00:00:00 | 00:00:00 | 00:00:00 | |
| HEMX73-11 | 2026-09-05 06:39:36 | 49.34226 | 9.02626 | 131° | 24km/h | 31436m | 5.7m/s | -41.2°C | 0.1% | 9.9hPa | 2.7V | 03:08:00 | 00:00:00 | 00:00:00 | |
| DL1NUX | 2026-09-05 06:39:34 | 49.34249 | 9.02583 | 137° | 15km/h | 31394m | 5.3m/s | -41.1°C | 1.9% | 9.9hPa | 2.7V | 03:08:11 | 02:06:55 | 00:00:00 | |
| HSKMA3-T | 2026-09-05 06:39:32 | 49.34241 | 9.02599 | 124° | 20km/h | 31411m | 6.1m/s | -41.3°C | 0% | 9.9hPa | 2.7V | 03:08:27 | 02:06:58 | 00:00:00 | |
| NBG1-10 | 2026-09-05 06:39:31 | 49.34244 | 9.02593 | 122° | 16km/h | 31405m | 5.4m/s | -41.2°C | 1.9% | 9.9hPa | 2.6V | 00:00:00 | 02:06:57 | 00:00:00 | |
| PG1ADW-2 | 2026-09-05 06:39:30 | 49.34247 | 9.02587 | 127° | 16km/h | 31400m | 5.0m/s | -41.1°C | 1.9% | 9.9hPa | 2.6V | 00:00:00 | 00:00:00 | 00:00:00 | |
| DL1XH-15 | 2026-09-05 06:39:29 | 49.34266 | 9.02576 | 156° | 11km/h | 31365m | 5m/s | -41.3°C | 1.9% | 10hPa | 2.6V | 03:08:16 | 02:06:50 | 00:00:00 | |
| DK7TD | 2026-09-05 06:39:29 | 49.34249 | 9.02583 | 138° | 15km/h | 31394m | 5.3m/s | -41.1°C | 0% | 9.9hPa | 2.7V | 03:08:27 | 02:06:55 | 00:00:00 | |
| SO1NDE-10 | 2026-09-05 06:39:29 | 49.34249 | 9.02582 | 138° | 16km/h | 31395m | 5.2m/s | -41.1°C | 1.9% | 9.9hPa | 2.7V | 00:00:00 | 02:06:55 | 00:00:00 | |
| DL1XH1-15 | 2026-09-05 06:39:28 | 49.34268 | 9.02573 | 124° | 11km/h | 31359m | 6.7m/s | -41.4°C | 1.9% | 10hPa | 2.7V | 03:08:17 | 02:06:49 | 00:00:00 | |
| BIOWL1-15 | 2026-09-05 06:39:28 | 49.34266 | 9.02576 | 157° | 11km/h | 31365m | 5m/s | -41.3°C | 0% | 10hPa | 2.6V | 03:08:27 | 02:06:50 | 00:00:00 | |
| DL1XH-west | 2026-09-05 06:39:28 | 49.34253 | 9.02579 | 154° | 15km/h | 31388m | 6.7m/s | -41.2°C | 0% | 9.9hPa | 2.7V | 03:08:27 | 02:06:54 | 00:00:00 | |
| DF8AY | 2026-09-05 06:39:26 | 49.34260 | 9.02577 | 179° | 15km/h | 31375m | 5.5m/s | -41.4°C | 0% | 9.9hPa | 2.6V | 03:08:27 | 02:06:52 | 00:00:00 | |
| HSKMA3-T | 2026-09-05 06:39:21 | 49.34270 | 9.02563 | 92° | 18km/h | 31347m | 5.8m/s | -41.4°C | 0% | 10hPa | 2.7V | 03:08:27 | 02:06:47 | 00:00:00 | |
| DG9SBQ-11 | 2026-09-05 06:39:21 | 49.34270 | 9.02563 | 93° | 18km/h | 31347m | 5.8m/s | -41.4°C | 0.1% | 10.0hPa | 2.6V | 03:08:00 | 00:00:00 | 00:00:00 | |
| EDDB2-11 | 2026-09-05 06:39:20 | 49.34271 | 9.02548 | 108° | 18km/h | 31336m | 4.7m/s | -41.3°C | 0.1% | 10.0hPa | 2.6V | 00:00:00 | 00:00:00 | 00:00:00 | |
| DL1XH-15 | 2026-09-05 06:39:19 | 49.34293 | 9.02528 | 162° | 22km/h | 31308m | 5m/s | -41.3°C | 1.9% | 10.1hPa | 2.6V | 03:08:26 | 02:06:40 | 00:00:00 | |
| DK7TD | 2026-09-05 06:39:18 | 49.34273 | 9.02542 | 126° | 18km/h | 31330m | 6.3m/s | -41.3°C | 0% | 10hPa | 2.6V | 03:08:27 | 02:06:44 | 00:00:00 | |
| DL1XH1-15 | 2026-09-05 06:39:18 | 49.34298 | 9.02525 | 151° | 20km/h | 31302m | 6m/s | -41.4°C | 1.9% | 10.1hPa | 2.6V | 03:08:27 | 02:06:39 | 00:00:00 | |
| DL1XH-west | 2026-09-05 06:39:17 | 49.34277 | 9.02537 | 147° | 20km/h | 31324m | 6.6m/s | -41.4°C | 0% | 10hPa | 2.7V | 03:08:27 | 02:06:43 | 00:00:00 | |
| DF8AY | 2026-09-05 06:39:15 | 49.34287 | 9.02531 | 166° | 24km/h | 31312m | 4.7m/s | -41.4°C | 0% | 10.1hPa | 2.7V | 03:08:27 | 02:06:41 | 00:00:00 | |
| BIOWL1-15 | 2026-09-05 06:39:15 | 49.34297 | 9.02525 | 151° | 20km/h | 31302m | 6m/s | -41.4°C | 0% | 10.1hPa | 2.6V | 03:08:27 | 02:06:39 | 00:00:00 | |
| DF2AP-13 | 2026-09-05 06:39:15 | 49.34287 | 9.02530 | 167° | 16km/h | 31313m | 4.7m/s | -41.3°C | 1.9% | 10.0hPa | 2.7V | 00:00:00 | 02:06:41 | 00:00:00 | |
| DL1NUX | 2026-09-05 06:39:14 | 49.34305 | 9.02501 | 95° | 18km/h | 31279m | 4.5m/s | -41.3°C | 1.9% | 10.1hPa | 2.7V | 03:08:31 | 02:06:35 | 00:00:00 | |
| HSKMA3-T | 2026-09-05 06:39:11 | 49.34303 | 9.02515 | 110° | 18km/h | 31290m | 5.9m/s | -41.4°C | 0% | 10.1hPa | 2.7V | 03:09:18 | 02:06:37 | 00:00:00 | |
| PG1ADW-2 | 2026-09-05 06:39:10 | 49.34304 | 9.02508 | 98° | 16km/h | 31284m | 5.1m/s | -41.2°C | 1.9% | 10.1hPa | 2.7V | 00:00:00 | 02:06:36 | 00:00:00 | |
| DL1XH1-15 | 2026-09-05 06:39:08 | 49.34322 | 9.02486 | 181° | 18km/h | 31246m | 4.6m/s | -41.3°C | 1.8% | 10.2hPa | 2.7V | 03:08:37 | 02:06:29 | 00:00:00 | |
| DK7TD | 2026-09-05 06:39:07 | 49.34307 | 9.02490 | 124° | 13km/h | 31269m | 6.5m/s | -41.4°C | 0% | 10.1hPa | 2.6V | 03:09:18 | 02:06:33 | 00:00:00 | |
| DL1XH-west | 2026-09-05 06:39:06 | 49.34309 | 9.02487 | 156° | 15km/h | 31262m | 6.4m/s | -41.4°C | 0% | 10.1hPa | 2.6V | 03:09:18 | 02:06:32 | 00:00:00 | |
| DF8AY | 2026-09-05 06:39:04 | 49.34317 | 9.02486 | 183° | 18km/h | 31251m | 4.9m/s | -41.2°C | 0% | 10.2hPa | 2.7V | 03:09:18 | 02:06:30 | 00:00:00 | |
| DL1NUX | 2026-09-05 06:39:04 | 49.34332 | 9.02475 | 102° | 15km/h | 31223m | 5m/s | -41.3°C | 1.9% | 10.2hPa | 2.7V | 03:08:41 | 02:06:25 | 00:00:00 | |
| BIOWL1-15 | 2026-09-05 06:39:03 | 49.34326 | 9.02486 | 171° | 15km/h | 31241m | 5.7m/s | -41.4°C | 0% | 10.2hPa | 2.6V | 03:09:18 | 02:06:28 | 00:00:00 | |
| HSKMA3-T | 2026-09-05 06:39:00 | 49.34331 | 9.02480 | 118° | 13km/h | 31229m | 5.8m/s | -41.3°C | 0% | 10.2hPa | 2.6V | 03:09:18 | 02:06:26 | 00:00:00 | |
| SO1NDE-10 | 2026-09-05 06:38:59 | 49.34332 | 9.02475 | 103° | 18km/h | 31224m | 4.9m/s | -41.3°C | 1.9% | 10.1hPa | 2.7V | 00:00:00 | 02:06:25 | 00:00:00 | |
| DL1XH1-15 | 2026-09-05 06:38:58 | 49.34349 | 9.02451 | 169° | 18km/h | 31191m | 4.9m/s | -41.6°C | 1.9% | 10.2hPa | 2.7V | 03:08:47 | 02:06:19 | 00:00:00 | |
| NBG1-10 | 2026-09-05 06:38:58 | 49.34333 | 9.02469 | 103° | 16km/h | 31219m | 4.5m/s | -41.3°C | 1.9% | 10.1hPa | 2.6V | 03:08:00 | 02:06:24 | 00:00:00 | |
| DM0DOS-11 | 2026-09-05 06:38:57 | 49.34353 | 9.02449 | 165° | 16km/h | 31187m | 5.3m/s | -41.6°C | 1.9% | 10.3hPa | 2.6V | 03:08:48 | 02:06:18 | 00:00:00 | |
| DK7TD | 2026-09-05 06:38:57 | 49.34335 | 9.02463 | 115° | 16km/h | 31214m | 5.2m/s | -41.5°C | 0% | 10.2hPa | 2.7V | 03:09:18 | 02:06:23 | 00:00:00 | |
| DL1XH-west | 2026-09-05 06:38:56 | 49.34337 | 9.02458 | 133° | 16km/h | 31208m | 6.2m/s | -41.4°C | 0% | 10.2hPa | 2.6V | 03:09:18 | 02:06:22 | 00:00:00 | |
| DF8AY | 2026-09-05 06:38:53 | 49.34349 | 9.02451 | 169° | 18km/h | 31191m | 4.9m/s | -41.6°C | 0% | 10.2hPa | 2.7V | 03:09:18 | 02:06:19 | 00:00:00 | |
| DL1NUX | 2026-09-05 06:38:53 | 49.34364 | 9.02436 | 124° | 15km/h | 31164m | 4.7m/s | -41.6°C | 1.9% | 10.3hPa | 2.6V | 03:08:52 | 02:06:14 | 00:00:00 | |
| BIOWL1-15 | 2026-09-05 06:38:51 | 49.34357 | 9.02447 | 156° | 15km/h | 31181m | 6.3m/s | -41.6°C | 0% | 10.3hPa | 2.6V | 03:09:18 | 02:06:17 | 00:00:00 | |
| PG1ADW-2 | 2026-09-05 06:38:50 | 49.34360 | 9.02444 | 140° | 20km/h | 31175m | 5.8m/s | -41.5°C | 1.9% | 10.2hPa | 2.7V | 00:00:00 | 00:00:00 | 00:00:00 | |
| DL1XH-15 | 2026-09-05 06:38:49 | 49.34380 | 9.02415 | 148° | 27km/h | 31142m | 5.3m/s | -41.7°C | 2% | 10.3hPa | 2.6V | 03:08:56 | 02:06:10 | 00:00:00 | |
| HSKMA3-T | 2026-09-05 06:38:49 | 49.34362 | 9.02440 | 127° | 13km/h | 31169m | 5m/s | -41.6°C | 0% | 10.3hPa | 2.7V | 03:09:18 | 02:06:15 | 00:00:00 | |
| DK7TD | 2026-09-05 06:38:47 | 49.34367 | 9.02431 | 132° | 16km/h | 31159m | 5.4m/s | -41.5°C | 0% | 10.3hPa | 2.6V | 03:09:18 | 02:06:13 | 00:00:00 | |
| DM0DOS-11 | 2026-09-05 06:38:46 | 49.34396 | 9.02397 | 130° | 22km/h | 31127m | 6m/s | -41.7°C | 1.9% | 10.3hPa | 2.7V | 03:08:59 | 02:06:07 | 00:00:00 | |
| DL1XH-west | 2026-09-05 06:38:45 | 49.34375 | 9.02421 | 147° | 26km/h | 31147m | 5.9m/s | -41.6°C | 0% | 10.3hPa | 2.7V | 03:09:18 | 02:06:11 | 00:00:00 | |
| DF8AY | 2026-09-05 06:38:42 | 49.34392 | 9.02404 | 140° | 26km/h | 31132m | 4.5m/s | -41.7°C | 0% | 10.3hPa | 2.7V | 03:09:18 | 02:06:08 | 00:00:00 | |
| BIOWL1-15 | 2026-09-05 06:38:41 | 49.34396 | 9.02397 | 130° | 22km/h | 31127m | 6m/s | -41.7°C | 0% | 10.4hPa | 2.7V | 03:09:18 | 02:06:07 | 00:00:00 | |
| SP3BTT-10 | 2026-09-05 06:38:41 | 49.34396 | 9.02397 | 131° | 16km/h | 31127m | 6.0m/s | 0°C | 0% | 0hPa | 2.7V | 00:00:00 | 00:00:00 | 00:00:00 | |
| KANTATE | 2026-09-05 06:38:40 | 49.34396 | 9.02397 | 131° | 22km/h | 31127m | 6.0m/s | -41.7°C | 0.1% | 10.4hPa | 2.7V | 03:09:00 | 00:00:00 | 00:00:00 | |
| DL1XH-15 | 2026-09-05 06:38:39 | 49.34415 | 9.02378 | 190° | 24km/h | 31088m | 5.2m/s | -41.7°C | 2% | 10.4hPa | 2.7V | 03:09:06 | 02:06:00 | 00:00:00 | |
| HSKMA3-T | 2026-09-05 06:38:39 | 49.34400 | 9.02385 | 107° | 15km/h | 31115m | 4.9m/s | -41.6°C | 0% | 10.4hPa | 2.6V | 03:09:18 | 02:06:05 | 00:00:00 | |
| DL1XH1-15 | 2026-09-05 06:38:38 | 49.34421 | 9.02380 | 188° | 26km/h | 31084m | 4.9m/s | -41.5°C | 1.9% | 10.4hPa | 2.6V | 03:09:07 | 02:05:59 | 00:00:00 | |
| BIOWL1-15 | 2026-09-05 06:38:37 | 49.34434 | 9.02381 | 174° | 24km/h | 31072m | 5.8m/s | -41.5°C | 0% | 10.4hPa | 2.6V | 03:09:18 | 02:05:57 | 00:00:00 | |
| DM0DOS-11 | 2026-09-05 06:38:36 | 49.34434 | 9.02381 | 173° | 24km/h | 31072m | 5.8m/s | -41.5°C | 1.9% | 10.4hPa | 2.6V | 03:09:09 | 02:05:57 | 00:00:00 | |
| DK7TD | 2026-09-05 06:38:36 | 49.34406 | 9.02377 | 176° | 13km/h | 31101m | 6.3m/s | -41.6°C | 0% | 10.4hPa | 2.7V | 03:09:18 | 02:06:02 | 00:00:00 | |
| DL1XH-west | 2026-09-05 06:38:34 | 49.34415 | 9.02378 | 191° | 24km/h | 31089m | 5.2m/s | -41.7°C | 0% | 10.4hPa | 2.7V | 03:09:18 | 02:06:00 | 00:00:00 | |
| DL1NUX | 2026-09-05 06:38:33 | 49.34451 | 9.02372 | 157° | 26km/h | 31056m | 5.8m/s | -41.4°C | 1.9% | 10.5hPa | 2.7V | 03:09:12 | 02:05:54 | 00:00:00 | |
| DF8AY | 2026-09-05 06:38:32 | 49.34428 | 9.02381 | 182° | 26km/h | 31078m | 6m/s | -41.5°C | 0% | 10.4hPa | 2.6V | 03:09:18 | 02:05:58 | 00:00:00 | |
| DO3DL | 2026-09-05 06:38:32 | 49.34427 | 9.02381 | 183° | 26km/h | 31078m | 6.0m/s | -41.5°C | 0.1% | 10.4hPa | 2.7V | 03:09:00 | 00:00:00 | 00:00:00 | |
| PG1ADW-2 | 2026-09-05 06:38:30 | 49.34439 | 9.02379 | 165° | 22km/h | 31067m | 5.5m/s | -41.5°C | 1.9% | 10.4hPa | 2.7V | 03:09:00 | 00:00:00 | 00:00:00 | |
| DL1XH-15 | 2026-09-05 06:38:29 | 49.34473 | 9.02357 | 146° | 18km/h | 31036m | 4.8m/s | -41.4°C | 1.9% | 10.5hPa | 2.7V | 03:09:16 | 02:05:50 | 00:00:00 | |
| DL1XH1-15 | 2026-09-05 06:38:28 | 49.34476 | 9.02353 | 135° | 15km/h | 31030m | 6.6m/s | -41.4°C | 1.9% | 10.5hPa | 2.7V | 03:09:17 | 02:05:49 | 00:00:00 | |
| HSKMA3-T | 2026-09-05 06:38:28 | 49.34451 | 9.02372 | 158° | 26km/h | 31056m | 5.9m/s | -41.4°C | 0% | 10.5hPa | 2.7V | 03:09:18 | 02:05:54 | 00:00:00 | |
| DK7TD | 2026-09-05 06:38:25 | 49.34469 | 9.02361 | 154° | 22km/h | 31040m | 4.1m/s | -41.4°C | 0% | 10.5hPa | 2.6V | 03:09:18 | 02:05:51 | 00:00:00 | |
| DM0DOS-11 | 2026-09-05 06:38:25 | 49.34482 | 9.02343 | 150° | 11km/h | 31014m | 4.2m/s | -41.5°C | 1.9% | 10.5hPa | 2.6V | 03:09:20 | 02:05:46 | 00:00:00 | |
| DO3DL | 2026-09-05 06:38:24 | 49.34468 | 9.02361 | 155° | 22km/h | 31041m | 4.1m/s | -41.4°C | 0.1% | 10.5hPa | 2.7V | 03:09:00 | 00:00:00 | 00:00:00 | |
| DL1NUX | 2026-09-05 06:38:23 | 49.34489 | 9.02341 | 181° | 20km/h | 31003m | 6.5m/s | -41.5°C | 1.9% | 10.5hPa | 2.7V | 03:09:22 | 02:05:44 | 00:00:00 | |
| DL1XH-west | 2026-09-05 06:38:23 | 49.34476 | 9.02353 | 136° | 15km/h | 31030m | 6.6m/s | -41.4°C | 0% | 10.5hPa | 2.7V | 03:09:18 | 02:05:49 | 00:00:00 | |
| DF8AY | 2026-09-05 06:38:21 | 49.34480 | 9.02345 | 125° | 11km/h | 31018m | 4.8m/s | -41.6°C | 0% | 10.5hPa | 2.6V | 03:10:09 | 02:05:47 | 00:00:00 | |
| KANTATE | 2026-09-05 06:38:20 | 49.34480 | 9.02345 | 126° | 11km/h | 31019m | 4.8m/s | -41.6°C | 0.1% | 10.5hPa | 2.6V | 00:00:00 | 00:00:00 | 00:00:00 | |
| SFWM-10 | 2026-09-05 06:38:19 | 49.34482 | 9.02343 | 151° | 11km/h | 31014m | 4.2m/s | -41.5°C | 0.1% | 10.5hPa | 2.6V | 03:10:00 | 00:00:00 | 00:00:00 | |
| DL1XH1-15 | 2026-09-05 06:38:18 | 49.34523 | 9.02337 | 150° | 24km/h | 30978m | 6m/s | -41.7°C | 1.9% | 10.6hPa | 2.6V | 03:09:27 | 02:05:39 | 00:00:00 | |
| HSKMA3-T | 2026-09-05 06:38:17 | 49.34496 | 9.02342 | 185° | 27km/h | 30997m | 5.6m/s | -41.6°C | 0% | 10.6hPa | 2.7V | 03:10:09 | 02:05:43 | 00:00:00 | |
| DK7TD | 2026-09-05 06:38:15 | 49.34511 | 9.02342 | 176° | 29km/h | 30988m | 4m/s | -41.7°C | 0% | 10.6hPa | 2.6V | 03:10:09 | 02:05:41 | 00:00:00 | |
| DL3AQ-11 | 2026-09-05 06:38:15 | 49.34518 | 9.02340 | 165° | 26km/h | 30984m | 5.3m/s | -41.6°C | 0.1% | 10.6hPa | 2.6V | 00:00:00 | 00:00:00 | 00:00:00 | |
| DL1NUX | 2026-09-05 06:38:13 | 49.34538 | 9.02301 | 124° | 20km/h | 30951m | 5.6m/s | -41.8°C | 1.9% | 10.6hPa | 2.6V | 03:09:32 | 02:05:34 | 00:00:00 | |
| DL1XH-west | 2026-09-05 06:38:12 | 49.34528 | 9.02331 | 130° | 22km/h | 30972m | 5.5m/s | -41.8°C | 0% | 10.6hPa | 2.7V | 03:10:09 | 02:05:38 | 00:00:00 | |
| BIOWL1-15 | 2026-09-05 06:38:12 | 49.34533 | 9.02316 | 110° | 22km/h | 30962m | 5m/s | -41.7°C | 0% | 10.6hPa | 2.7V | 03:10:09 | 02:05:36 | 00:00:00 | |
| DF8AY | 2026-09-05 06:38:11 | 49.34531 | 9.02324 | 115° | 22km/h | 30967m | 5m/s | -41.7°C | 0% | 10.6hPa | 2.7V | 03:10:09 | 02:05:37 | 00:00:00 | |
| HSKMA3-T | 2026-09-05 06:38:06 | 49.34545 | 9.02291 | 151° | 20km/h | 30941m | 4.9m/s | -41.7°C | 0% | 10.7hPa | 2.7V | 03:10:09 | 02:05:32 | 00:00:00 | |
| DJ2DS-15 | 2026-09-05 06:38:06 | 49.34545 | 9.02291 | 152° | 18km/h | 30941m | 4.8m/s | -41.7°C | 1.9% | 10.6hPa | 2.7V | 00:00:00 | 02:05:32 | 00:00:00 | |
| DM0DOS-11 | 2026-09-05 06:38:05 | 49.34564 | 9.02262 | 102° | 16km/h | 30909m | 4.8m/s | -42.1°C | 1.9% | 10.7hPa | 2.7V | 03:09:40 | 02:05:26 | 00:00:00 | |
| BIOWL1-15 | 2026-09-05 06:38:05 | 49.34565 | 9.02255 | 107° | 16km/h | 30904m | 5.7m/s | -42.1°C | 0% | 10.7hPa | 2.7V | 03:10:09 | 02:05:25 | 00:00:00 | |
| DK7TD | 2026-09-05 06:38:04 | 49.34554 | 9.02284 | 150° | 20km/h | 30931m | 4.6m/s | -42°C | 0% | 10.7hPa | 2.7V | 03:10:09 | 02:05:30 | 00:00:00 | |
| DL1XH-west | 2026-09-05 06:38:01 | 49.34563 | 9.02268 | 107° | 18km/h | 30915m | 5.3m/s | -42°C | 0% | 10.7hPa | 2.6V | 03:10:09 | 02:05:27 | 00:00:00 | |
| DF8AY | 2026-09-05 06:38:00 | 49.34564 | 9.02262 | 103° | 16km/h | 30909m | 4.8m/s | -42.1°C | 0% | 10.7hPa | 2.7V | 03:10:09 | 02:05:26 | 00:00:00 | |
| HARRO8 | 2026-09-05 06:37:57 | 49.34569 | 9.02244 | 124° | 15km/h | 30893m | 5.2m/s | -42.1°C | 0.1% | 10.7hPa | 2.7V | 00:00:00 | 00:00:00 | 00:00:00 | |
| DO1YAY-16 | 2026-09-05 06:37:56 | 49.34573 | 9.02234 | 119° | 15km/h | 30883m | 5.1m/s | -42.3°C | 0.1% | 10.8hPa | 2.7V | 00:00:00 | 00:00:00 | 00:00:00 | |
| DM0DOS-11 | 2026-09-05 06:37:55 | 49.34583 | 9.02204 | 135° | 18km/h | 30856m | 5.9m/s | -42.5°C | 2% | 10.8hPa | 2.7V | 03:09:50 | 02:05:16 | 00:00:00 | |
| HSKMA3-T | 2026-09-05 06:37:55 | 49.34573 | 9.02234 | 119° | 16km/h | 30883m | 5.1m/s | -42.3°C | 0% | 10.8hPa | 2.7V | 03:10:09 | 02:05:21 | 00:00:00 | |
| DK7TD | 2026-09-05 06:37:54 | 49.34575 | 9.02228 | 111° | 16km/h | 30877m | 6.1m/s | -42.3°C | 0% | 10.7hPa | 2.7V | 03:10:09 | 02:05:20 | 00:00:00 | |
| DL1XH-west | 2026-09-05 06:37:51 | 49.34579 | 9.02210 | 123° | 18km/h | 30862m | 4.8m/s | -42.4°C | 0% | 10.8hPa | 2.7V | 03:10:09 | 02:05:17 | 00:00:00 | |
| BIOWL1-15 | 2026-09-05 06:37:50 | 49.34591 | 9.02194 | 148° | 24km/h | 30845m | 4.4m/s | -42.4°C | 0% | 10.8hPa | 2.6V | 03:10:09 | 02:05:14 | 00:00:00 | |
| DF8AY | 2026-09-05 06:37:50 | 49.34582 | 9.02204 | 136° | 20km/h | 30856m | 5.9m/s | -42.5°C | 0% | 10.8hPa | 2.7V | 03:10:09 | 02:05:16 | 00:00:00 | |
| DL3AQ-11 | 2026-09-05 06:37:48 | 49.34596 | 9.02189 | 141° | 24km/h | 30841m | 4.0m/s | -42.4°C | 0.1% | 10.8hPa | 2.6V | 00:00:00 | 00:00:00 | 00:00:00 | |
| EDDB2-11 | 2026-09-05 06:37:47 | 49.34600 | 9.02183 | 128° | 22km/h | 30837m | 5.0m/s | -42.6°C | 0.1% | 10.8hPa | 2.6V | 00:00:00 | 00:00:00 | 00:00:00 | |
| DL1NUX | 2026-09-05 06:37:46 | 49.34600 | 9.02136 | 76° | 26km/h | 30810m | 5.5m/s | -42.9°C | 2.1% | 10.9hPa | 2.6V | 03:09:59 | 02:05:07 | 00:00:00 | |
| DJ2DS-15 | 2026-09-05 06:37:46 | 49.34600 | 9.02183 | 129° | 18km/h | 30837m | 5.0m/s | -42.5°C | 2.0% | 10.8hPa | 2.6V | 00:00:00 | 02:05:12 | 00:00:00 | |
| DM0DOS-11 | 2026-09-05 06:37:45 | 49.34600 | 9.02127 | 82° | 22km/h | 30805m | 5.4m/s | -42.8°C | 2% | 10.9hPa | 2.6V | 03:10:00 | 02:05:06 | 00:00:00 | |
| HSKMA3-T | 2026-09-05 06:37:44 | 49.34604 | 9.02166 | 91° | 26km/h | 30825m | 5.7m/s | -42.6°C | 0% | 10.8hPa | 2.6V | 03:10:09 | 02:05:10 | 00:00:00 | |
| DK7TD | 2026-09-05 06:37:43 | 49.34604 | 9.02156 | 80° | 27km/h | 30820m | 4.8m/s | -42.7°C | 0% | 10.9hPa | 2.7V | 03:10:09 | 02:05:09 | 00:00:00 | |
| DL1XH-west | 2026-09-05 06:37:40 | 49.34600 | 9.02127 | 82° | 22km/h | 30805m | 5.4m/s | -42.8°C | 0% | 10.9hPa | 2.6V | 03:10:09 | 02:05:06 | 00:00:00 | |
| DF8AY | 2026-09-05 06:37:39 | 49.34599 | 9.02120 | 91° | 16km/h | 30800m | 4.7m/s | -42.8°C | 0% | 10.9hPa | 2.7V | 03:10:09 | 02:05:05 | 00:00:00 | |
| BIOWL1-15 | 2026-09-05 06:37:38 | 49.34599 | 9.02114 | 96° | 15km/h | 30795m | 4.7m/s | -42.8°C | 0% | 10.9hPa | 2.7V | 03:10:09 | 02:05:04 | 00:00:00 | |
| BIOWL9-15 | 2026-09-05 06:37:37 | 49.34600 | 9.02108 | 96° | 13km/h | 30790m | 5.0m/s | -43.0°C | 0.1% | 10.9hPa | 2.6V | 00:00:00 | 00:00:00 | 00:00:00 | |
| KANTATE | 2026-09-05 06:37:36 | 49.34600 | 9.02108 | 98° | 13km/h | 30791m | 5.0m/s | -43.0°C | 0.1% | 10.9hPa | 2.6V | 00:00:00 | 00:00:00 | 00:00:00 | |
| DM0DOS-11 | 2026-09-05 06:37:35 | 49.34604 | 9.02069 | 115° | 16km/h | 30753m | 4.4m/s | -43.1°C | 2% | 10.9hPa | 2.6V | 03:10:10 | 02:04:56 | 00:00:00 | |
| HSKMA3-T | 2026-09-05 06:37:34 | 49.34600 | 9.02092 | 88° | 15km/h | 30774m | 4.6m/s | -42.9°C | 0% | 10.9hPa | 2.7V | 03:10:09 | 02:05:00 | 00:00:00 | |
| DK7TD | 2026-09-05 06:37:33 | 49.34600 | 9.02087 | 98° | 15km/h | 30770m | 4.5m/s | -43°C | 0% | 10.9hPa | 2.7V | 03:10:09 | 02:04:59 | 00:00:00 | |
| DL1XH-west | 2026-09-05 06:37:29 | 49.34606 | 9.02063 | 101° | 16km/h | 30749m | 3.8m/s | -43.2°C | 0% | 11hPa | 2.7V | 03:11:00 | 02:04:55 | 00:00:00 | |
| BIOWL1-15 | 2026-09-05 06:37:28 | 49.34606 | 9.02057 | 80° | 16km/h | 30745m | 4.7m/s | -43.3°C | 0% | 11hPa | 2.7V | 03:11:00 | 02:04:54 | 00:00:00 | |
| OE5DXL-15 | 2026-09-05 06:37:28 | 49.34606 | 9.02057 | 80° | 11km/h | 30745m | 4.7m/s | -43.3°C | 2.1% | 10.9hPa | 2.6V | 00:00:00 | 00:00:00 | 00:00:00 | |
| DG9SBQ-11 | 2026-09-05 06:37:27 | 49.34606 | 9.02057 | 81° | 16km/h | 30745m | 4.7m/s | -43.3°C | 0.1% | 11.0hPa | 2.6V | 03:11:00 | 00:00:00 | 00:00:00 | |
| DJ2DS-15 | 2026-09-05 06:37:26 | 49.34601 | 9.02045 | 45° | 9km/h | 30734m | 5.5m/s | -43.2°C | 2.1% | 10.9hPa | 2.6V | 00:00:00 | 02:04:52 | 00:00:00 | |
| DM0DOS-11 | 2026-09-05 06:37:25 | 49.34586 | 9.02027 | 141° | 5km/h | 30704m | 4.4m/s | -43.4°C | 2.1% | 11hPa | 2.6V | 03:10:20 | 02:04:46 | 00:00:00 | |
| DO1YAY-16 | 2026-09-05 06:37:25 | 49.34597 | 9.02039 | 35° | 22km/h | 30729m | 4.5m/s | -43.3°C | 0.2% | 11.0hPa | 2.6V | 00:00:00 | 00:00:00 | 00:00:00 | |
| DO3DL | 2026-09-05 06:37:24 | 49.34597 | 9.02039 | 37° | 22km/h | 30729m | 4.5m/s | -43.3°C | 0.2% | 11.0hPa | 2.6V | 03:11:00 | 00:00:00 | 00:00:00 | |
| DL1NUX | 2026-09-05 06:37:23 | 49.34588 | 9.02023 | 104° | 7km/h | 30694m | 5.5m/s | -43.4°C | 2.1% | 11.1hPa | 2.6V | 03:10:22 | 02:04:44 | 00:00:00 | |
| DK7TD | 2026-09-05 06:37:23 | 49.34589 | 9.02031 | 30° | 15km/h | 30720m | 5.6m/s | -43.3°C | 0% | 11hPa | 2.7V | 03:11:00 | 02:04:49 | 00:00:00 | |
| DL1XH-west | 2026-09-05 06:37:19 | 49.34587 | 9.02025 | 132° | 7km/h | 30699m | 4.6m/s | -43.5°C | 0% | 11hPa | 2.6V | 03:11:00 | 02:04:45 | 00:00:00 | |
| DL1XH1-15 | 2026-09-05 06:37:18 | 49.34581 | 9.01999 | 61° | 13km/h | 30669m | 5.7m/s | -43.6°C | 2.1% | 11.1hPa | 2.6V | 03:10:27 | 02:04:39 | 00:00:00 | |
| DF8AY | 2026-09-05 06:37:18 | 49.34588 | 9.02023 | 104° | 7km/h | 30694m | 5.5m/s | -43.4°C | 0% | 11.1hPa | 2.6V | 03:11:00 | 02:04:44 | 00:00:00 | |
| DK5PH-5 | 2026-09-05 06:37:18 | 49.34588 | 9.02023 | 105° | 9km/h | 30695m | 5.5m/s | -43.4°C | 2.1% | 11.0hPa | 2.7V | 00:00:00 | 02:04:44 | 00:00:00 | |
| DB0UT-9 | 2026-09-05 06:37:17 | 49.34588 | 9.02023 | 105° | 7km/h | 30695m | 5.5m/s | -43.4°C | 0.2% | 11.1hPa | 2.7V | 03:11:00 | 00:00:00 | 00:00:00 | |
| KANTATE | 2026-09-05 06:37:16 | 49.34588 | 9.02019 | 81° | 11km/h | 30689m | 5.5m/s | -43.4°C | 0.1% | 11.1hPa | 2.7V | 00:00:00 | 00:00:00 | 00:00:00 | |
| DM0DOS-11 | 2026-09-05 06:37:15 | 49.34579 | 9.01992 | 53° | 2km/h | 30653m | 4.7m/s | -43.9°C | 2.1% | 11.1hPa | 2.7V | 03:10:30 | 02:04:36 | 00:00:00 | |
| DK7TD | 2026-09-05 06:37:12 | 49.34580 | 9.01995 | 69° | 9km/h | 30664m | 5.5m/s | -43.7°C | 0% | 11.1hPa | 2.6V | 03:11:00 | 02:04:38 | 00:00:00 | |
| DB0UT-7 | 2026-09-05 06:37:12 | 49.34580 | 9.01995 | 69° | 7km/h | 30664m | 5.4m/s | -43.6°C | 2.1% | 11.1hPa | 2.6V | 00:00:00 | 00:00:00 | 00:00:00 | |
| SONCRA | 2026-09-05 06:37:11 | 49.34580 | 9.01993 | 74° | 4km/h | 30659m | 5.1m/s | -43.8°C | 0.1% | 11.1hPa | 2.7V | 00:00:00 | 00:00:00 | 00:00:00 | |
| PG1ADW-2 | 2026-09-05 06:37:10 | 49.34579 | 9.01992 | 54° | 9km/h | 30654m | 4.7m/s | -43.8°C | 2.1% | 11.1hPa | 2.7V | 03:10:00 | 00:00:00 | 00:00:00 | |
| SONDE2-11 | 2026-09-05 06:37:09 | 49.34578 | 9.01991 | 0° | 5km/h | 30643m | 5.8m/s | -44.2°C | 0.2% | 11.1hPa | 2.7V | 00:00:00 | 00:00:00 | 00:00:00 | |
| DL1XH1-15 | 2026-09-05 06:37:08 | 49.34570 | 9.01984 | 114° | 7km/h | 30618m | 6.2m/s | -44.1°C | 2.2% | 11.2hPa | 2.7V | 03:10:37 | 02:04:29 | 00:00:00 | |
| DL1XH-west | 2026-09-05 06:37:08 | 49.34578 | 9.01991 | 1° | 5km/h | 30643m | 5.8m/s | -44.2°C | 0% | 11.1hPa | 2.6V | 03:11:00 | 02:04:34 | 00:00:00 | |
| BIOWL1-15 | 2026-09-05 06:37:07 | 49.34576 | 9.01991 | 8° | 9km/h | 30638m | 5.8m/s | -44.1°C | 0% | 11.2hPa | 2.6V | 03:11:00 | 02:04:33 | 00:00:00 | |
| HSKMA3-T | 2026-09-05 06:37:02 | 49.34572 | 9.01982 | 141° | 11km/h | 30612m | 5.7m/s | -44.2°C | 0% | 11.2hPa | 2.6V | 03:11:00 | 02:04:28 | 00:00:00 | |
| DK7TD | 2026-09-05 06:37:01 | 49.34574 | 9.01979 | 143° | 15km/h | 30607m | 4.9m/s | -44.2°C | 0% | 11.2hPa | 2.6V | 03:11:00 | 02:04:27 | 00:00:00 | |
| DB0ND-19 | 2026-09-05 06:36:59 | 49.34579 | 9.01971 | 121° | 13km/h | 30597m | 5.7m/s | -44.3°C | 0.2% | 11.2hPa | 2.7V | 00:00:00 | 00:00:00 | 00:00:00 | |
| DL1XH1-15 | 2026-09-05 06:36:58 | 49.34578 | 9.01950 | 133° | 4km/h | 30565m | 5.8m/s | -44.2°C | 2.2% | 11.3hPa | 2.7V | 03:10:47 | 02:04:19 | 00:00:00 | |
| OE5DXL-15 | 2026-09-05 06:36:58 | 49.34580 | 9.01966 | 100° | 7km/h | 30592m | 5.8m/s | -44.3°C | 2.2% | 11.2hPa | 2.7V | 00:00:00 | 00:00:00 | 00:00:00 | |
| DM0DOS-11 | 2026-09-05 06:36:57 | 49.34578 | 9.01950 | 175° | 4km/h | 30560m | 5.1m/s | -44.3°C | 2.2% | 11.3hPa | 2.7V | 03:10:48 | 02:04:18 | 00:00:00 | |
| DL1XH-west | 2026-09-05 06:36:57 | 49.34580 | 9.01962 | 77° | 13km/h | 30586m | 5.1m/s | -44.4°C | 0% | 11.2hPa | 2.7V | 03:11:00 | 02:04:23 | 00:00:00 | |
| BIOWL1-15 | 2026-09-05 06:36:56 | 49.34579 | 9.01957 | 65° | 11km/h | 30581m | 4.5m/s | -44.4°C | 0% | 11.3hPa | 2.6V | 03:11:00 | 02:04:22 | 00:00:00 | |
| HSKMA3-T | 2026-09-05 06:36:53 | 49.34578 | 9.01950 | 175° | 4km/h | 30560m | 5.1m/s | -44.3°C | 0% | 11.3hPa | 2.7V | 03:11:00 | 02:04:18 | 00:00:00 | |
| DK7TD | 2026-09-05 06:36:50 | 49.34579 | 9.01950 | 155° | 0km/h | 30550m | 5.5m/s | -44.4°C | 0% | 11.3hPa | 2.6V | 03:11:00 | 02:04:16 | 00:00:00 | |
| DL6DJ-15 | 2026-09-05 06:36:49 | 49.34578 | 9.01948 | 37° | 5km/h | 30539m | 5.1m/s | -44.4°C | 0.2% | 11.3hPa | 2.6V | 00:00:00 | 00:00:00 | 00:00:00 | |
| DL1XH1-15 | 2026-09-05 06:36:48 | 49.34577 | 9.01936 | 129° | 7km/h | 30512m | 4.8m/s | -44.3°C | 2.2% | 11.4hPa | 2.6V | 03:10:57 | 02:04:09 | 00:00:00 | |
| DK5PH-5 | 2026-09-05 06:36:48 | 49.34578 | 9.01948 | 38° | 7km/h | 30539m | 5.1m/s | -44.3°C | 2.2% | 11.3hPa | 2.6V | 00:00:00 | 02:04:14 | 00:00:00 | |
| DM0DOS-11 | 2026-09-05 06:36:47 | 49.34578 | 9.01934 | 116° | 5km/h | 30507m | 4.5m/s | -44.2°C | 2.2% | 11.4hPa | 2.6V | 03:10:58 | 02:04:08 | 00:00:00 | |
| DL1XH-west | 2026-09-05 06:36:46 | 49.34576 | 9.01944 | 67° | 7km/h | 30529m | 5m/s | -44.4°C | 0% | 11.3hPa | 2.7V | 03:11:00 | 02:04:12 | 00:00:00 | |
| BIOWL1-15 | 2026-09-05 06:36:45 | 49.34575 | 9.01941 | 90° | 7km/h | 30523m | 6.2m/s | -44.4°C | 0% | 11.3hPa | 2.7V | 03:11:00 | 02:04:11 | 00:00:00 | |
| HSKMA3-T | 2026-09-05 06:36:43 | 49.34578 | 9.01934 | 117° | 5km/h | 30507m | 4.5m/s | -44.3°C | 0% | 11.4hPa | 2.6V | 03:11:00 | 02:04:08 | 00:00:00 | |
| DK7TD | 2026-09-05 06:36:39 | 49.34575 | 9.01928 | 29° | 11km/h | 30491m | 5.2m/s | -44.3°C | 0% | 11.4hPa | 2.7V | 03:11:51 | 02:04:05 | 00:00:00 | |
| DL1NUX | 2026-09-05 06:36:39 | 49.34570 | 9.01921 | 141° | 5km/h | 30464m | 5m/s | -44.4°C | 2.2% | 11.4hPa | 2.7V | 03:11:06 | 02:04:00 | 00:00:00 | |
| EDDB2-12 | 2026-09-05 06:36:38 | 49.34572 | 9.01926 | 25° | 11km/h | 30486m | 4.7m/s | -44.3°C | 0.2% | 11.4hPa | 2.6V | 00:00:00 | 00:00:00 | 00:00:00 | |
| DO3DL | 2026-09-05 06:36:37 | 49.34572 | 9.01926 | 27° | 11km/h | 30486m | 4.7m/s | -44.3°C | 0.2% | 11.4hPa | 2.6V | 03:11:00 | 00:00:00 | 00:00:00 | |
| DM0DOS-11 | 2026-09-05 06:36:36 | 49.34571 | 9.01913 | 77° | 9km/h | 30446m | 5.9m/s | -44.4°C | 2.2% | 11.5hPa | 2.6V | 03:11:09 | 02:03:57 | 00:00:00 | |
| DL1XH-west | 2026-09-05 06:36:36 | 49.34569 | 9.01923 | 44° | 4km/h | 30475m | 6.2m/s | -44.5°C | 0% | 11.4hPa | 2.6V | 03:11:51 | 02:04:02 | 00:00:00 | |
| BIOWL1-15 | 2026-09-05 06:36:35 | 49.34569 | 9.01922 | 127° | 4km/h | 30469m | 5.7m/s | -44.5°C | 0% | 11.5hPa | 2.7V | 03:11:51 | 02:04:01 | 00:00:00 | |
| DF8AY | 2026-09-05 06:36:34 | 49.34570 | 9.01921 | 142° | 5km/h | 30464m | 5m/s | -44.4°C | 0% | 11.4hPa | 2.7V | 03:11:51 | 02:04:00 | 00:00:00 | |
| HSKMA3-T | 2026-09-05 06:36:31 | 49.34571 | 9.01913 | 77° | 9km/h | 30446m | 5.9m/s | -44.5°C | 0% | 11.5hPa | 2.6V | 03:11:51 | 02:03:57 | 00:00:00 | |
| PG1ADW-2 | 2026-09-05 06:36:30 | 49.34570 | 9.01910 | 66° | 9km/h | 30441m | 5.0m/s | -44.5°C | 2.2% | 11.4hPa | 2.6V | 00:00:00 | 02:03:56 | 00:00:00 | |
| DL1NUX | 2026-09-05 06:36:29 | 49.34565 | 9.01900 | 330° | 7km/h | 30409m | 5.4m/s | -44.7°C | 2.3% | 11.6hPa | 2.6V | 03:11:16 | 02:03:50 | 00:00:00 | |
| DK7TD | 2026-09-05 06:36:29 | 49.34569 | 9.01905 | 65° | 11km/h | 30436m | 4.9m/s | -44.7°C | 0% | 11.5hPa | 2.7V | 03:11:51 | 02:03:55 | 00:00:00 | |
| OE5DXL-15 | 2026-09-05 06:36:28 | 49.34568 | 9.01902 | 63° | 9km/h | 30431m | 5.3m/s | -44.7°C | 2.2% | 11.5hPa | 2.7V | 00:00:00 | 00:00:00 | 00:00:00 | |
| DL0LBS | 2026-09-05 06:36:27 | 49.34568 | 9.01902 | 64° | 9km/h | 30431m | 5.3m/s | -44.8°C | 0.2% | 11.5hPa | 2.7V | 03:11:00 | 00:00:00 | 00:00:00 | |
| DM0DOS-11 | 2026-09-05 06:36:26 | 49.34557 | 9.01902 | 5° | 13km/h | 30392m | 4.4m/s | -44.5°C | 2.3% | 11.6hPa | 2.7V | 03:11:19 | 02:03:47 | 00:00:00 | |
| DF8AY | 2026-09-05 06:36:25 | 49.34565 | 9.01900 | 331° | 7km/h | 30409m | 5.4m/s | -44.7°C | 0% | 11.6hPa | 2.6V | 03:11:51 | 02:03:50 | 00:00:00 | |
| DL1XH-west | 2026-09-05 06:36:25 | 49.34566 | 9.01899 | 324° | 4km/h | 30414m | 4.9m/s | -44.7°C | 0% | 11.5hPa | 2.6V | 03:11:51 | 02:03:51 | 00:00:00 | |
| HSKMA3-T | 2026-09-05 06:36:20 | 49.34554 | 9.01901 | 21° | 11km/h | 30388m | 4.4m/s | -44.5°C | 0% | 11.6hPa | 2.6V | 03:11:51 | 02:03:46 | 00:00:00 | |
| DL1NUX | 2026-09-05 06:36:19 | 49.34559 | 9.01884 | 127° | 7km/h | 30354m | 6.3m/s | -44.5°C | 2.3% | 11.7hPa | 2.6V | 03:11:26 | 02:03:40 | 00:00:00 | |
| NBG1-10 | 2026-09-05 06:36:19 | 49.34552 | 9.01899 | 50° | 9km/h | 30383m | 5.9m/s | -44.5°C | 2.3% | 11.6hPa | 2.6V | 00:00:00 | 02:03:45 | 00:00:00 | |
| DL1XH1-15 | 2026-09-05 06:36:18 | 49.34560 | 9.01882 | 84° | 4km/h | 30348m | 5.9m/s | -44.4°C | 2.2% | 11.7hPa | 2.6V | 03:11:27 | 02:03:39 | 00:00:00 | |
| DK7TD | 2026-09-05 06:36:18 | 49.34552 | 9.01897 | 106° | 7km/h | 30376m | 6.6m/s | -44.6°C | 0% | 11.6hPa | 2.6V | 03:11:51 | 02:03:44 | 00:00:00 | |
| DL6DJ-15 | 2026-09-05 06:36:18 | 49.34553 | 9.01894 | 133° | 11km/h | 30370m | 6.1m/s | -44.6°C | 0.1% | 11.6hPa | 2.7V | 00:00:00 | 00:00:00 | 00:00:00 | |
| DJ2DS-15 | 2026-09-05 06:36:17 | 49.34555 | 9.01890 | 140° | 13km/h | 30365m | 4.9m/s | -44.6°C | 0.2% | 11.6hPa | 2.7V | 00:00:00 | 00:00:00 | 00:00:00 | |
| DM0DOS-11 | 2026-09-05 06:36:16 | 49.34558 | 9.01883 | 317° | 5km/h | 30337m | 5.5m/s | -44.5°C | 2.2% | 11.7hPa | 2.7V | 03:11:29 | 02:03:37 | 00:00:00 | |
| DL1XH-west | 2026-09-05 06:36:15 | 49.34558 | 9.01887 | 138° | 13km/h | 30360m | 5.2m/s | -44.6°C | 0% | 11.7hPa | 2.7V | 03:11:51 | 02:03:41 | 00:00:00 | |
| DF8AY | 2026-09-05 06:36:13 | 49.34560 | 9.01882 | 85° | 4km/h | 30348m | 5.9m/s | -44.5°C | 0% | 11.7hPa | 2.6V | 03:11:51 | 02:03:39 | 00:00:00 | |
| DF2AP-13 | 2026-09-05 06:36:13 | 49.34560 | 9.01882 | 85° | 9km/h | 30348m | 5.9m/s | -44.4°C | 2.2% | 11.6hPa | 2.7V | 03:11:00 | 02:03:39 | 00:00:00 | |
| DB0UT-7 | 2026-09-05 06:36:12 | 49.34560 | 9.01882 | 347° | 9km/h | 30343m | 5.0m/s | -44.4°C | 2.3% | 11.6hPa | 2.7V | 00:00:00 | 00:00:00 | 00:00:00 | |
| DF3TZ-5 | 2026-09-05 06:36:11 | 49.34559 | 9.01883 | 317° | 5km/h | 30337m | 5.5m/s | -44.5°C | 0.2% | 11.7hPa | 2.7V | 00:00:00 | 00:00:00 | 00:00:00 | |
| PG1ADW-2 | 2026-09-05 06:36:10 | 49.34558 | 9.01885 | 300° | 9km/h | 30332m | 6.5m/s | -44.5°C | 2.2% | 11.6hPa | 2.7V | 00:00:00 | 00:00:00 | 00:00:00 | |
| HSKMA3-T | 2026-09-05 06:36:10 | 49.34558 | 9.01885 | 299° | 7km/h | 30331m | 6.5m/s | -44.5°C | 0% | 11.7hPa | 2.7V | 03:11:51 | 02:03:36 | 00:00:00 | |
| SONCRA | 2026-09-05 06:36:09 | 49.34557 | 9.01887 | 291° | 5km/h | 30325m | 5.4m/s | -44.5°C | 0.2% | 11.7hPa | 2.7V | 00:00:00 | 00:00:00 | 00:00:00 | |
| DL1XH1-15 | 2026-09-05 06:36:08 | 49.34551 | 9.01885 | 104° | 11km/h | 30293m | 5.5m/s | -44.4°C | 2.3% | 11.8hPa | 2.7V | 03:11:37 | 02:03:29 | 00:00:00 | |
| DK7TD | 2026-09-05 06:36:08 | 49.34556 | 9.01890 | 302° | 7km/h | 30320m | 4.6m/s | -44.3°C | 0% | 11.7hPa | 2.6V | 03:11:51 | 02:03:34 | 00:00:00 | |
| SONDE2-11 | 2026-09-05 06:36:07 | 49.34553 | 9.01892 | 1° | 5km/h | 30309m | 6.4m/s | -44.3°C | 0.2% | 11.7hPa | 2.6V | 00:00:00 | 00:00:00 | 00:00:00 | |
| DM0DOS-11 | 2026-09-05 06:36:06 | 49.34555 | 9.01877 | 139° | 16km/h | 30280m | 6.1m/s | -44.2°C | 2.3% | 11.8hPa | 2.6V | 03:11:39 | 02:03:27 | 00:00:00 | |
| DJ2DS-15 | 2026-09-05 06:36:06 | 49.34553 | 9.01892 | 2° | 9km/h | 30309m | 6.4m/s | -44.2°C | 2.2% | 11.7hPa | 2.6V | 00:00:00 | 02:03:32 | 00:00:00 | |
| DL1NUX | 2026-09-05 06:36:05 | 49.34563 | 9.01859 | 24° | 5km/h | 30247m | 4.9m/s | -44.2°C | 2.2% | 11.8hPa | 2.6V | 03:11:45 | 02:03:21 | 00:00:00 | |
| DL1XH-west | 2026-09-05 06:36:05 | 49.34552 | 9.01891 | 36° | 7km/h | 30303m | 5.4m/s | -44.3°C | 0% | 11.8hPa | 2.7V | 03:11:51 | 02:03:31 | 00:00:00 | |
| BIOWL1-15 | 2026-09-05 06:36:04 | 49.34551 | 9.01889 | 73° | 9km/h | 30298m | 4.8m/s | -44.4°C | 0% | 11.8hPa | 2.7V | 03:11:51 | 02:03:30 | 00:00:00 | |
| DF8AY | 2026-09-05 06:36:03 | 49.34551 | 9.01885 | 105° | 11km/h | 30293m | 5.5m/s | -44.4°C | 0% | 11.8hPa | 2.7V | 03:11:51 | 02:03:29 | 00:00:00 | |
| HSKMA3-T | 2026-09-05 06:36:00 | 49.34558 | 9.01872 | 144° | 16km/h | 30275m | 5m/s | -44.1°C | 0% | 11.8hPa | 2.6V | 03:11:51 | 02:03:26 | 00:00:00 | |
| DK7TD | 2026-09-05 06:35:57 | 49.34564 | 9.01862 | 93° | 7km/h | 30257m | 6m/s | -44.2°C | 0% | 11.8hPa | 2.7V | 03:11:51 | 02:03:23 | 00:00:00 | |
| DL1XH-west | 2026-09-05 06:35:54 | 49.34562 | 9.01858 | 5° | 4km/h | 30241m | 5.6m/s | -44.2°C | 0% | 11.8hPa | 2.6V | 03:11:51 | 02:03:20 | 00:00:00 | |
| BIOWL1-15 | 2026-09-05 06:35:53 | 49.34561 | 9.01859 | 309° | 2km/h | 30236m | 6.2m/s | -44.2°C | 0% | 11.9hPa | 2.7V | 03:11:51 | 02:03:19 | 00:00:00 | |
| DF8AY | 2026-09-05 06:35:52 | 49.34561 | 9.01859 | 205° | 4km/h | 30230m | 5.6m/s | -44.2°C | 0% | 11.9hPa | 2.7V | 03:11:51 | 02:03:18 | 00:00:00 | |
| HSKMA3-T | 2026-09-05 06:35:49 | 49.34565 | 9.01856 | 113° | 9km/h | 30214m | 6.3m/s | -44.1°C | 0% | 11.9hPa | 2.6V | 03:11:51 | 02:03:15 | 00:00:00 | |
| DL1XH1-15 | 2026-09-05 06:35:48 | 49.34570 | 9.01820 | 129° | 16km/h | 30179m | 6.2m/s | -43.9°C | 2.2% | 12hPa | 2.6V | 03:11:57 | 02:03:09 | 00:00:00 | |
| DK7TD | 2026-09-05 06:35:47 | 49.34565 | 9.01847 | 88° | 16km/h | 30201m | 5.4m/s | -44°C | 0% | 11.9hPa | 2.7V | 03:12:42 | 02:03:13 | 00:00:00 | |
| DL6DJ-15 | 2026-09-05 06:35:46 | 49.34565 | 9.01840 | 92° | 18km/h | 30197m | 5.1m/s | -44.0°C | 0.2% | 11.9hPa | 2.6V | 00:00:00 | 00:00:00 | 00:00:00 | |
| DL1XH-west | 2026-09-05 06:35:43 | 49.34569 | 9.01820 | 130° | 16km/h | 30179m | 6.2m/s | -43.9°C | 0% | 12hPa | 2.6V | 03:12:42 | 02:03:09 | 00:00:00 | |
| DF8AY | 2026-09-05 06:35:41 | 49.34574 | 9.01813 | 141° | 11km/h | 30167m | 5.4m/s | -43.6°C | 0% | 12hPa | 2.7V | 03:12:42 | 02:03:07 | 00:00:00 | |
| DJ2DS-15 | 2026-09-05 06:35:41 | 49.34576 | 9.01811 | 124° | 5km/h | 30161m | 6.6m/s | -43.4°C | 0.2% | 12.0hPa | 2.7V | 00:00:00 | 00:00:00 | 00:00:00 | |
| DF3TZ-5 | 2026-09-05 06:35:40 | 49.34576 | 9.01811 | 124° | 5km/h | 30161m | 6.6m/s | -43.4°C | 0.2% | 12.0hPa | 2.7V | 00:00:00 | 00:00:00 | 00:00:00 | |
| DG9SBQ-11 | 2026-09-05 06:35:39 | 49.34576 | 9.01811 | 126° | 7km/h | 30162m | 6.6m/s | -43.4°C | 0.2% | 12.0hPa | 2.7V | 03:12:00 | 00:00:00 | 00:00:00 | |
| DL1XH1-15 | 2026-09-05 06:35:38 | 49.34576 | 9.01791 | 111° | 15km/h | 30121m | 5m/s | -43.4°C | 2.1% | 12.1hPa | 2.7V | 03:12:07 | 02:02:59 | 00:00:00 | |
| HSKMA3-T | 2026-09-05 06:35:38 | 49.34576 | 9.01806 | 55° | 7km/h | 30149m | 5.2m/s | -43.4°C | 0% | 12hPa | 2.6V | 03:12:42 | 02:03:04 | 00:00:00 | |
| DK7TD | 2026-09-05 06:35:36 | 49.34574 | 9.01802 | 73° | 7km/h | 30138m | 6m/s | -43.4°C | 0% | 12.1hPa | 2.6V | 03:12:42 | 02:03:02 | 00:00:00 | |
| DL1XH-west | 2026-09-05 06:35:33 | 49.34576 | 9.01791 | 111° | 15km/h | 30121m | 5m/s | -43.4°C | 0% | 12.1hPa | 2.7V | 03:12:42 | 02:02:59 | 00:00:00 | |
| BIOWL1-15 | 2026-09-05 06:35:32 | 49.34577 | 9.01785 | 104° | 18km/h | 30116m | 5.3m/s | -43.4°C | 0% | 12.1hPa | 2.6V | 03:12:42 | 02:02:58 | 00:00:00 | |
| DF8AY | 2026-09-05 06:35:31 | 49.34578 | 9.01778 | 95° | 22km/h | 30110m | 6.7m/s | -43.4°C | 0% | 12.1hPa | 2.6V | 03:12:42 | 02:02:57 | 00:00:00 | |
| DF7PN | 2026-09-05 06:35:30 | 49.34578 | 9.01760 | 86° | 24km/h | 30098m | 5.1m/s | -43.4°C | 0.2% | 12.1hPa | 2.7V | 00:00:00 | 00:00:00 | 00:00:00 | |
| DM3KS-11 | 2026-09-05 06:35:29 | 49.34578 | 9.01760 | 86° | 24km/h | 30098m | 5.1m/s | -43.4°C | 0.2% | 12.1hPa | 2.7V | 00:00:00 | 00:00:00 | 00:00:00 | |
| DL1XH1-15 | 2026-09-05 06:35:28 | 49.34586 | 9.01725 | 142° | 11km/h | 30065m | 4.7m/s | -43.3°C | 2.1% | 12.2hPa | 2.7V | 03:12:17 | 02:02:49 | 00:00:00 | |
| HSKMA3-T | 2026-09-05 06:35:27 | 49.34578 | 9.01742 | 99° | 20km/h | 30087m | 5.9m/s | -43.5°C | 0% | 12.1hPa | 2.7V | 03:12:42 | 02:02:53 | 00:00:00 | |
| DK7TD | 2026-09-05 06:35:26 | 49.34579 | 9.01735 | 116° | 16km/h | 30081m | 6.4m/s | -43.5°C | 0% | 12.2hPa | 2.6V | 03:12:42 | 02:02:52 | 00:00:00 | |
| DL1XH-west | 2026-09-05 06:35:23 | 49.34586 | 9.01724 | 143° | 11km/h | 30065m | 4.7m/s | -43.3°C | 0% | 12.2hPa | 2.7V | 03:12:42 | 02:02:49 | 00:00:00 | |
| DF8AY | 2026-09-05 06:35:22 | 49.34588 | 9.01719 | 84° | 9km/h | 30053m | 6.4m/s | -43.4°C | 0% | 12.2hPa | 2.7V | 03:12:42 | 02:02:47 | 00:00:00 | |
| BIOWL1-15 | 2026-09-05 06:35:22 | 49.34588 | 9.01722 | 120° | 7km/h | 30059m | 6.3m/s | -43.3°C | 0% | 12.2hPa | 2.7V | 03:12:42 | 02:02:48 | 00:00:00 | |
| DL4BBY-15 | 2026-09-05 06:35:22 | 49.34588 | 9.01722 | 120° | 16km/h | 30059m | 6.2m/s | -44.2°C | 0% | 0hPa | 2.6V | 00:00:00 | 00:00:00 | 00:00:00 | |
| HARRO8 | 2026-09-05 06:35:21 | 49.34588 | 9.01719 | 83° | 9km/h | 30053m | 6.4m/s | -43.4°C | 0.1% | 12.2hPa | 2.6V | 00:00:00 | 00:00:00 | 00:00:00 | |
| DO1YAY-16 | 2026-09-05 06:35:20 | 49.34588 | 9.01714 | 69° | 13km/h | 30047m | 5.8m/s | -43.4°C | 0.2% | 12.2hPa | 2.6V | 00:00:00 | 00:00:00 | 00:00:00 | |
| DL1XH1-15 | 2026-09-05 06:35:18 | 49.34593 | 9.01670 | 117° | 18km/h | 30006m | 6.6m/s | -43.3°C | 2.1% | 12.3hPa | 2.6V | 03:12:27 | 02:02:39 | 00:00:00 | |
| DK5PH-5 | 2026-09-05 06:35:18 | 49.34585 | 9.01703 | 81° | 16km/h | 30036m | 5.2m/s | -43.5°C | 2.1% | 12.2hPa | 2.7V | 00:00:00 | 02:02:44 | 00:00:00 | |
| DG9SBQ-11 | 2026-09-05 06:35:17 | 49.34585 | 9.01703 | 82° | 16km/h | 30036m | 5.2m/s | -43.6°C | 0.1% | 12.3hPa | 2.7V | 03:12:00 | 00:00:00 | 00:00:00 | |
| DL1XH-15 | 2026-09-05 06:35:16 | 49.34596 | 9.01658 | 106° | 15km/h | 29994m | 5m/s | -43.2°C | 2.1% | 12.3hPa | 2.7V | 03:12:29 | 02:02:37 | 00:00:00 | |
| HSKMA3-T | 2026-09-05 06:35:16 | 49.34586 | 9.01690 | 111° | 18km/h | 30024m | 6m/s | -43.4°C | 0% | 12.3hPa | 2.7V | 03:12:42 | 02:02:42 | 00:00:00 | |
| DM0DOS-11 | 2026-09-05 06:35:15 | 49.34597 | 9.01653 | 109° | 13km/h | 29989m | 5.1m/s | -43.2°C | 2.1% | 12.3hPa | 2.7V | 03:12:30 | 02:02:36 | 00:00:00 | |
| DK7TD | 2026-09-05 06:35:15 | 49.34588 | 9.01683 | 120° | 20km/h | 30018m | 5.4m/s | -43.4°C | 0% | 12.3hPa | 2.7V | 03:12:42 | 02:02:41 | 00:00:00 | |
| DL1XH-west | 2026-09-05 06:35:12 | 49.34595 | 9.01664 | 111° | 16km/h | 30000m | 5.8m/s | -43.2°C | 0% | 12.3hPa | 2.6V | 03:12:42 | 02:02:38 | 00:00:00 | |
| BIOWL1-15 | 2026-09-05 06:35:11 | 49.34596 | 9.01658 | 106° | 15km/h | 29994m | 5m/s | -43.2°C | 0% | 12.3hPa | 2.7V | 03:12:42 | 02:02:37 | 00:00:00 | |
| PG1ADW-2 | 2026-09-05 06:35:10 | 49.34597 | 9.01653 | 110° | 16km/h | 29990m | 5.0m/s | -43.1°C | 2.1% | 12.3hPa | 2.7V | 00:00:00 | 02:02:36 | 00:00:00 | |
| DF8AY | 2026-09-05 06:35:10 | 49.34597 | 9.01653 | 110° | 13km/h | 29990m | 5.1m/s | -43.2°C | 0% | 12.3hPa | 2.7V | 03:12:42 | 02:02:36 | 00:00:00 | |
| DF3TZ-5 | 2026-09-05 06:35:09 | 49.34598 | 9.01649 | 121° | 9km/h | 29984m | 5.9m/s | -43.2°C | -1.0% | 12.3hPa | 2.7V | 00:00:00 | 00:00:00 | 00:00:00 | |
| DL1XH1-15 | 2026-09-05 06:35:08 | 49.34603 | 9.01620 | 80° | 26km/h | 29948m | 5.8m/s | -43.3°C | 2.2% | 12.4hPa | 2.7V | 03:12:37 | 02:02:29 | 00:00:00 | |
| DL3AQ-11 | 2026-09-05 06:35:08 | 49.34601 | 9.01644 | 133° | 9km/h | 29972m | 5.6m/s | -43.4°C | 0.2% | 12.4hPa | 2.6V | 00:00:00 | 00:00:00 | 00:00:00 | |
| SONCRA | 2026-09-05 06:35:07 | 49.34601 | 9.01644 | 133° | 9km/h | 29972m | 5.6m/s | -43.4°C | 0.2% | 12.4hPa | 2.6V | 00:00:00 | 00:00:00 | 00:00:00 | |
| DL1XH-15 | 2026-09-05 06:35:06 | 49.34602 | 9.01598 | 91° | 29km/h | 29938m | 4.6m/s | -43.2°C | 2.1% | 12.4hPa | 2.6V | 03:12:39 | 02:02:27 | 00:00:00 | |
| HSKMA3-T | 2026-09-05 06:35:05 | 49.34604 | 9.01636 | 95° | 15km/h | 29961m | 5.5m/s | -43.3°C | 0% | 12.4hPa | 2.7V | 03:12:42 | 02:02:31 | 00:00:00 | |
| DK7TD | 2026-09-05 06:35:04 | 49.34603 | 9.01629 | 84° | 20km/h | 29955m | 6.9m/s | -43.3°C | 0% | 12.4hPa | 2.7V | 03:12:42 | 02:02:30 | 00:00:00 | |
| DO3MHA-11 | 2026-09-05 06:35:03 | 49.34603 | 9.01620 | 81° | 22km/h | 29949m | 5.8m/s | -43.2°C | 2.2% | 12.4hPa | 2.7V | 03:12:00 | 02:02:29 | 00:00:00 | |
| DM0DOS-11 | 2026-09-05 06:35:02 | 49.34611 | 9.01564 | 139° | 18km/h | 29915m | 4.8m/s | -43.4°C | 2.1% | 12.5hPa | 2.7V | 03:12:43 | 02:02:23 | 00:00:00 | |
| DL1XH-west | 2026-09-05 06:35:01 | 49.34601 | 9.01598 | 91° | 29km/h | 29938m | 4.6m/s | -43.2°C | 0% | 12.4hPa | 2.6V | 03:12:42 | 02:02:27 | 00:00:00 | |
| DF8AY | 2026-09-05 06:34:59 | 49.34604 | 9.01577 | 116° | 26km/h | 29926m | 6.4m/s | -43.2°C | 0% | 12.5hPa | 2.7V | 03:12:42 | 02:02:25 | 00:00:00 | |
| DF7PN | 2026-09-05 06:34:59 | 49.34608 | 9.01569 | 130° | 22km/h | 29921m | 5.6m/s | -43.3°C | 0.2% | 12.5hPa | 2.7V | 00:00:00 | 00:00:00 | 00:00:00 | |
| AU51GT2 | 2026-09-05 06:34:57 | 49.34614 | 9.01560 | 140° | 13km/h | 29910m | 5.4m/s | -43.5°C | 0.2% | 12.5hPa | 2.7V | 00:00:00 | 00:00:00 | 00:00:00 | |
| DL1XH-15 | 2026-09-05 06:34:56 | 49.34611 | 9.01544 | 43° | 13km/h | 29882m | 5.2m/s | -43.2°C | 2.1% | 12.5hPa | 2.7V | 03:12:49 | 02:02:17 | 00:00:00 | |
| HSKMA3-T | 2026-09-05 06:34:54 | 49.34617 | 9.01553 | 77° | 7km/h | 29898m | 6m/s | -43.5°C | 0% | 12.5hPa | 2.6V | 03:13:33 | 02:02:20 | 00:00:00 | |
| BIOWL1-15 | 2026-09-05 06:34:51 | 49.34611 | 9.01544 | 44° | 13km/h | 29882m | 5.2m/s | -43.2°C | 0% | 12.5hPa | 2.7V | 03:13:33 | 02:02:17 | 00:00:00 | |
| DL1XH-west | 2026-09-05 06:34:50 | 49.34609 | 9.01540 | 60° | 11km/h | 29876m | 6.1m/s | -43.2°C | 0% | 12.6hPa | 2.6V | 03:13:33 | 02:02:16 | 00:00:00 | |
| DF8AY | 2026-09-05 06:34:49 | 49.34608 | 9.01536 | 86° | 13km/h | 29871m | 5.7m/s | -43.2°C | 0% | 12.5hPa | 2.6V | 03:13:33 | 02:02:15 | 00:00:00 | |
| DO8TBO-1 | 2026-09-05 06:34:49 | 49.34608 | 9.01530 | 103° | 20km/h | 29866m | 5.3m/s | -43.2°C | 2.1% | 12.5hPa | 2.6V | 00:00:00 | 02:02:14 | 00:00:00 | |
| DK5PH-5 | 2026-09-05 06:34:48 | 49.34608 | 9.01530 | 103° | 16km/h | 29866m | 5.3m/s | -43.2°C | 2.1% | 12.5hPa | 2.6V | 00:00:00 | 02:02:14 | 00:00:00 | |
| DM0DOS-11 | 2026-09-05 06:34:47 | 49.34610 | 9.01474 | 77° | 22km/h | 29833m | 4.5m/s | -43°C | 2.1% | 12.6hPa | 2.6V | 03:12:58 | 02:02:08 | 00:00:00 | |
| DK7TD | 2026-09-05 06:34:43 | 49.34612 | 9.01483 | 83° | 27km/h | 29837m | 4.4m/s | -43.1°C | 0% | 12.6hPa | 2.6V | 03:13:33 | 02:02:09 | 00:00:00 | |
| BIOWL1-15 | 2026-09-05 06:34:43 | 49.34609 | 9.01467 | 72° | 15km/h | 29827m | 5.9m/s | -43°C | 0% | 12.7hPa | 2.7V | 03:13:33 | 02:02:07 | 00:00:00 | |
| DL1XH-west | 2026-09-05 06:34:40 | 49.34608 | 9.01463 | 60° | 7km/h | 29821m | 6.6m/s | -43.1°C | 0% | 12.7hPa | 2.7V | 03:13:33 | 02:02:06 | 00:00:00 | |
| DF8AY | 2026-09-05 06:34:38 | 49.34606 | 9.01462 | 336° | 7km/h | 29809m | 5.6m/s | -43.2°C | 0% | 12.7hPa | 2.6V | 03:13:33 | 02:02:04 | 00:00:00 | |
| HSKMA3-T | 2026-09-05 06:34:33 | 49.34588 | 9.01455 | 51° | 18km/h | 29782m | 4.9m/s | -43.4°C | 0% | 12.7hPa | 2.7V | 03:13:33 | 02:01:59 | 00:00:00 | |
| DK7TD | 2026-09-05 06:34:32 | 49.34586 | 9.01449 | 68° | 18km/h | 29777m | 6.1m/s | -43.5°C | 0% | 12.7hPa | 2.6V | 03:13:33 | 02:01:58 | 00:00:00 | |
| BIOWL1-15 | 2026-09-05 06:34:30 | 49.34585 | 9.01435 | 99° | 18km/h | 29764m | 5.2m/s | -43.3°C | 0% | 12.8hPa | 2.6V | 03:13:33 | 02:01:56 | 00:00:00 | |
| DL1XH-west | 2026-09-05 06:34:29 | 49.34586 | 9.01428 | 103° | 18km/h | 29759m | 4.5m/s | -43.3°C | 0% | 12.8hPa | 2.7V | 03:13:33 | 02:01:55 | 00:00:00 | |
| DF8AY | 2026-09-05 06:34:28 | 49.34587 | 9.01421 | 96° | 16km/h | 29755m | 5.1m/s | -43.4°C | 0% | 12.8hPa | 2.7V | 03:13:33 | 02:01:54 | 00:00:00 | |
| HSKMA3-T | 2026-09-05 06:34:22 | 49.34572 | 9.01400 | 5° | 11km/h | 29723m | 5.9m/s | -43.8°C | 0% | 12.8hPa | 2.7V | 03:13:33 | 02:01:48 | 00:00:00 | |
| DK7TD | 2026-09-05 06:34:21 | 49.34570 | 9.01400 | 356° | 5km/h | 29717m | 6m/s | -43.7°C | 0% | 12.8hPa | 2.7V | 03:13:33 | 02:01:47 | 00:00:00 | |
| BIOWL1-15 | 2026-09-05 06:34:21 | 49.34569 | 9.01399 | 89° | 4km/h | 29706m | 4.5m/s | -43.6°C | 0% | 12.9hPa | 2.6V | 03:13:33 | 02:01:45 | 00:00:00 | |
| OE5DRO-10 | 2026-09-05 06:34:21 | 49.34570 | 9.01399 | 356° | 16km/h | 29717m | 5.9m/s | -43.7°C | 2.1% | 12.8hPa | 2.6V | 00:00:00 | 00:00:00 | 00:00:00 | |
| HARRO8 | 2026-09-05 06:34:19 | 49.34569 | 9.01399 | 88° | 2km/h | 29707m | 4.5m/s | -43.6°C | 0.2% | 12.9hPa | 2.6V | 00:00:00 | 00:00:00 | 00:00:00 | |
| DL1XH-15 | 2026-09-05 06:34:18 | 49.34557 | 9.01351 | 73° | 35km/h | 29673m | 5.7m/s | -43.9°C | 2.1% | 12.9hPa | 2.6V | 03:13:27 | 02:01:39 | 00:00:00 | |
| DL1XH-west | 2026-09-05 06:34:18 | 49.34569 | 9.01396 | 79° | 9km/h | 29702m | 4.8m/s | -43.7°C | 0% | 12.9hPa | 2.6V | 03:13:33 | 02:01:44 | 00:00:00 | |
| DF8AY | 2026-09-05 06:34:17 | 49.34568 | 9.01392 | 70° | 16km/h | 29696m | 6.1m/s | -43.8°C | 0% | 12.9hPa | 2.7V | 03:13:33 | 02:01:43 | 00:00:00 | |
| HSKMA3-T | 2026-09-05 06:34:11 | 49.34554 | 9.01327 | 81° | 27km/h | 29663m | 4.6m/s | -44°C | 0% | 13hPa | 2.7V | 03:13:33 | 02:01:37 | 00:00:00 | |
| PG1ADW-2 | 2026-09-05 06:34:10 | 49.34553 | 9.01318 | 80° | 16km/h | 29658m | 4.3m/s | -43.9°C | 2.1% | 12.9hPa | 2.7V | 00:00:00 | 00:00:00 | 00:00:00 | |
| EDDB2-11 | 2026-09-05 06:34:09 | 49.34551 | 9.01310 | 69° | 16km/h | 29653m | 5.7m/s | -44.0°C | 0.2% | 13.0hPa | 2.7V | 00:00:00 | 00:00:00 | 00:00:00 | |
| DL1XH1-15 | 2026-09-05 06:34:08 | 49.34539 | 9.01308 | 314° | 5km/h | 29619m | 4.7m/s | -44.3°C | 2.2% | 13hPa | 2.7V | 03:13:37 | 02:01:29 | 00:00:00 | |
| BIOWL1-15 | 2026-09-05 06:34:08 | 49.34550 | 9.01305 | 48° | 13km/h | 29647m | 6.1m/s | -44.1°C | 0% | 13hPa | 2.6V | 03:13:33 | 02:01:34 | 00:00:00 | |
| DL1XH-west | 2026-09-05 06:34:07 | 49.34547 | 9.01303 | 19° | 11km/h | 29641m | 5.6m/s | -44.2°C | 0% | 13hPa | 2.6V | 03:13:33 | 02:01:33 | 00:00:00 | |
| DF8AY | 2026-09-05 06:34:06 | 49.34545 | 9.01303 | 349° | 9km/h | 29636m | 5.1m/s | -44.2°C | 0% | 13hPa | 2.6V | 03:14:24 | 02:01:32 | 00:00:00 | |
| HSKMA3-T | 2026-09-05 06:34:01 | 49.34536 | 9.01307 | 38° | 13km/h | 29611m | 4.7m/s | -44.4°C | 0% | 13hPa | 2.6V | 03:14:24 | 02:01:27 | 00:00:00 | |
| DK7TD | 2026-09-05 06:34:00 | 49.34533 | 9.01303 | 40° | 20km/h | 29605m | 6.5m/s | -44.4°C | 0% | 13.1hPa | 2.6V | 03:14:24 | 02:01:26 | 00:00:00 | |
| BIOWL7-15 | 2026-09-05 06:34:00 | 49.34533 | 9.01303 | 41° | 20km/h | 29606m | 6.5m/s | -44.4°C | 0.2% | 13.1hPa | 2.7V | 00:00:00 | 00:00:00 | 00:00:00 | |
| DO3DL | 2026-09-05 06:33:59 | 49.34533 | 9.01303 | 41° | 20km/h | 29606m | 6.5m/s | -44.4°C | 0.2% | 13.1hPa | 2.7V | 03:14:00 | 00:00:00 | 00:00:00 | |
| DL1XH1-15 | 2026-09-05 06:33:58 | 49.34502 | 9.01253 | 56° | 9km/h | 29569m | 4.7m/s | -44.7°C | 2.2% | 13.1hPa | 2.7V | 03:13:47 | 02:01:19 | 00:00:00 | |
| OE5DXL-15 | 2026-09-05 06:33:58 | 49.34523 | 9.01288 | 43° | 18km/h | 29594m | 4.8m/s | -44.5°C | 2.2% | 13.1hPa | 2.7V | 03:13:00 | 00:00:00 | 00:00:00 | |
| DM0DOS-11 | 2026-09-05 06:33:57 | 49.34501 | 9.01250 | 37° | 7km/h | 29564m | 4.8m/s | -44.7°C | 2.3% | 13.2hPa | 2.7V | 03:13:48 | 02:01:18 | 00:00:00 | |
| DL1XH-west | 2026-09-05 06:33:57 | 49.34517 | 9.01280 | 45° | 33km/h | 29589m | 4m/s | -44.6°C | 0% | 13.1hPa | 2.7V | 03:14:24 | 02:01:23 | 00:00:00 | |
| DF8AY | 2026-09-05 06:33:56 | 49.34511 | 9.01271 | 48° | 29km/h | 29584m | 4.8m/s | -44.5°C | 0% | 13.1hPa | 2.6V | 03:14:24 | 02:01:22 | 00:00:00 | |
| HSKMA3-T | 2026-09-05 06:33:51 | 49.34499 | 9.01249 | 11° | 7km/h | 29559m | 5.7m/s | -44.6°C | 0% | 13.2hPa | 2.7V | 03:14:24 | 02:01:17 | 00:00:00 | |
| DK7TD | 2026-09-05 06:33:50 | 49.34496 | 9.01249 | 3° | 13km/h | 29553m | 5.7m/s | -44.7°C | 0% | 13.2hPa | 2.6V | 03:14:24 | 02:01:16 | 00:00:00 | |
| PG1ADW-2 | 2026-09-05 06:33:50 | 49.34496 | 9.01249 | 4° | 16km/h | 29554m | 5.7m/s | -44.6°C | 2.2% | 13.1hPa | 2.6V | 00:00:00 | 02:01:16 | 00:00:00 | |
| DL1XH1-15 | 2026-09-05 06:33:48 | 49.34465 | 9.01225 | 56° | 20km/h | 29517m | 4.3m/s | -44.8°C | 2.3% | 13.2hPa | 2.6V | 03:13:57 | 02:01:09 | 00:00:00 | |
| DK5PH-5 | 2026-09-05 06:33:48 | 49.34488 | 9.01247 | 12° | 16km/h | 29543m | 4.6m/s | -44.7°C | 2.3% | 13.1hPa | 2.6V | 03:13:00 | 02:01:14 | 00:00:00 | |
| DM0DOS-11 | 2026-09-05 06:33:47 | 49.34462 | 9.01218 | 58° | 22km/h | 29513m | 4.1m/s | -44.8°C | 2.3% | 13.2hPa | 2.6V | 03:13:58 | 02:01:08 | 00:00:00 | |
| DL1XH-west | 2026-09-05 06:33:47 | 49.34482 | 9.01245 | 19° | 24km/h | 29538m | 4.7m/s | -44.7°C | 0% | 13.2hPa | 2.7V | 03:14:24 | 02:01:13 | 00:00:00 | |
| DF8AY | 2026-09-05 06:33:45 | 49.34472 | 9.01237 | 37° | 22km/h | 29528m | 6m/s | -44.7°C | 0% | 13.2hPa | 2.7V | 03:14:24 | 02:01:11 | 00:00:00 | |
| DK7TD | 2026-09-05 06:33:40 | 49.34456 | 9.01204 | 50° | 26km/h | 29503m | 5.6m/s | -44.9°C | 0% | 13.3hPa | 2.7V | 03:14:24 | 02:01:06 | 00:00:00 | |
| DO3DL | 2026-09-05 06:33:39 | 49.34456 | 9.01203 | 51° | 26km/h | 29503m | 5.6m/s | -44.9°C | 0.2% | 13.3hPa | 2.6V | 03:14:00 | 00:00:00 | 00:00:00 | |
| EDDB2-11 | 2026-09-05 06:33:38 | 49.34447 | 9.01190 | 42° | 22km/h | 29493m | 4.2m/s | -44.8°C | 0.2% | 13.3hPa | 2.6V | 00:00:00 | 00:00:00 | 00:00:00 | |
| DL1XH1-15 | 2026-09-05 06:33:38 | 49.34440 | 9.01176 | 175° | 4km/h | 29467m | 4.2m/s | -44.6°C | 2.2% | 13.3hPa | 2.7V | 03:14:07 | 02:00:59 | 00:00:00 | |
| DM0DOS-11 | 2026-09-05 06:33:37 | 49.34441 | 9.01176 | 153° | 2km/h | 29463m | 3.5m/s | -44.6°C | 2.2% | 13.3hPa | 2.6V | 03:14:08 | 02:00:58 | 00:00:00 | |
| BIOWL1-15 | 2026-09-05 06:33:36 | 49.34440 | 9.01181 | 45° | 11km/h | 29485m | 4.7m/s | -44.7°C | 0% | 13.3hPa | 2.6V | 03:15:15 | 02:01:02 | 00:00:00 | |
| DF8AY | 2026-09-05 06:33:35 | 49.34439 | 9.01178 | 61° | 5km/h | 29479m | 6.5m/s | -44.7°C | 0% | 13.3hPa | 2.7V | 03:14:24 | 02:01:01 | 00:00:00 | |
| HSKMA3-T | 2026-09-05 06:33:29 | 49.34435 | 9.01170 | 34° | 20km/h | 29448m | 5.4m/s | -44.9°C | 0% | 13.4hPa | 2.7V | 03:14:24 | 02:00:55 | 00:00:00 | |
| BIOWL1-15 | 2026-09-05 06:33:29 | 49.34418 | 9.01142 | 64° | 24km/h | 29427m | 5.3m/s | -45.1°C | 0% | 13.4hPa | 2.6V | 03:15:15 | 02:00:51 | 00:00:00 | |
| BIOWL9-15 | 2026-09-05 06:33:29 | 49.34431 | 9.01165 | 37° | 26km/h | 29443m | 4.7m/s | -45.0°C | 0.2% | 13.4hPa | 2.7V | 00:00:00 | 00:00:00 | 00:00:00 | |
| OE5DXL-15 | 2026-09-05 06:33:28 | 49.34430 | 9.01165 | 38° | 11km/h | 29443m | 4.7m/s | -44.9°C | 2.3% | 13.3hPa | 2.7V | 00:00:00 | 00:00:00 | 00:00:00 | |
| DM0DOS-11 | 2026-09-05 06:33:27 | 49.34414 | 9.01124 | 75° | 9km/h | 29413m | 5.1m/s | -45.3°C | 2.3% | 13.5hPa | 2.7V | 03:14:18 | 02:00:48 | 00:00:00 | |
| DL1XH-west | 2026-09-05 06:33:26 | 49.34421 | 9.01150 | 53° | 27km/h | 29433m | 5.8m/s | -45.1°C | 0% | 13.4hPa | 2.6V | 03:14:24 | 02:00:52 | 00:00:00 | |
| DF8AY | 2026-09-05 06:33:24 | 49.34416 | 9.01134 | 74° | 18km/h | 29422m | 4.5m/s | -45.2°C | 0% | 13.4hPa | 2.6V | 03:14:24 | 02:00:50 | 00:00:00 | |
| DK7TD | 2026-09-05 06:33:19 | 49.34410 | 9.01123 | 322° | 9km/h | 29397m | 4.7m/s | -45.2°C | 0% | 13.5hPa | 2.6V | 03:14:24 | 02:00:45 | 00:00:00 | |
| DL1XH-west | 2026-09-05 06:33:15 | 49.34405 | 9.01132 | 300° | 2km/h | 29377m | 5.3m/s | -45.1°C | 0% | 13.5hPa | 2.7V | 03:15:15 | 02:00:41 | 00:00:00 | |
| DF8AY | 2026-09-05 06:33:14 | 49.34405 | 9.01132 | 87° | 2km/h | 29372m | 4.6m/s | -45.1°C | 0% | 13.5hPa | 2.6V | 03:15:15 | 02:00:40 | 00:00:00 | |
| HSKMA3-T | 2026-09-05 06:33:09 | 49.34395 | 9.01117 | 36° | 16km/h | 29347m | 4.5m/s | -45.4°C | 0% | 13.6hPa | 2.7V | 03:15:15 | 02:00:35 | 00:00:00 | |
| DL1XH1-15 | 2026-09-05 06:33:08 | 49.34392 | 9.01093 | 135° | 7km/h | 29316m | 5m/s | -45.3°C | 2.3% | 13.7hPa | 2.7V | 03:14:37 | 02:00:29 | 00:00:00 | |
| DK7TD | 2026-09-05 06:33:08 | 49.34392 | 9.01113 | 43° | 16km/h | 29342m | 4.6m/s | -45.4°C | 0% | 13.6hPa | 2.6V | 03:15:15 | 02:00:34 | 00:00:00 | |
| DL1XH-west | 2026-09-05 06:33:05 | 49.34389 | 9.01100 | 111° | 13km/h | 29326m | 5.3m/s | -45.5°C | 0% | 13.6hPa | 2.7V | 03:15:15 | 02:00:31 | 00:00:00 | |
| DF8AY | 2026-09-05 06:33:04 | 49.34391 | 9.01096 | 126° | 11km/h | 29321m | 4.9m/s | -45.4°C | 0% | 13.7hPa | 2.7V | 03:15:15 | 02:00:30 | 00:00:00 | |
| BIOWL1-15 | 2026-09-05 06:33:02 | 49.34393 | 9.01092 | 134° | 4km/h | 29310m | 5.9m/s | -45.4°C | 0% | 13.7hPa | 2.6V | 03:15:15 | 02:00:28 | 00:00:00 | |
| NBG1-10 | 2026-09-05 06:33:01 | 49.34393 | 9.01091 | 349° | 11km/h | 29305m | 5.3m/s | -45.3°C | 2.3% | 13.6hPa | 2.7V | 00:00:00 | 02:00:27 | 00:00:00 | |
| KANTATE | 2026-09-05 06:33:00 | 49.34393 | 9.01091 | 350° | 2km/h | 29305m | 5.3m/s | -45.3°C | 0.2% | 13.7hPa | 2.7V | 03:15:00 | 00:00:00 | 00:00:00 | |
| DL1XH1-15 | 2026-09-05 06:32:58 | 49.34378 | 9.01064 | 45° | 16km/h | 29262m | 5.6m/s | -45.7°C | 2.3% | 13.8hPa | 2.7V | 03:14:47 | 02:00:19 | 00:00:00 | |
| HSKMA3-T | 2026-09-05 06:32:58 | 49.34389 | 9.01089 | 45° | 9km/h | 29290m | 5.9m/s | -45.6°C | 0% | 13.7hPa | 2.7V | 03:15:15 | 02:00:24 | 00:00:00 | |
| DK7TD | 2026-09-05 06:32:57 | 49.34387 | 9.01086 | 61° | 13km/h | 29284m | 5.8m/s | -45.6°C | 0% | 13.7hPa | 2.7V | 03:15:15 | 02:00:23 | 00:00:00 | |
| DL1XH-west | 2026-09-05 06:32:55 | 49.34384 | 9.01075 | 62° | 18km/h | 29274m | 4.9m/s | -45.7°C | 0% | 13.8hPa | 2.6V | 03:15:15 | 02:00:21 | 00:00:00 | |
| DF8AY | 2026-09-05 06:32:53 | 49.34379 | 9.01064 | 46° | 16km/h | 29262m | 5.6m/s | -45.7°C | 0% | 13.8hPa | 2.7V | 03:15:15 | 02:00:19 | 00:00:00 | |
| BIOWL1-15 | 2026-09-05 06:32:51 | 49.34373 | 9.01056 | 46° | 13km/h | 29253m | 4.9m/s | -45.8°C | 0% | 13.8hPa | 2.7V | 03:15:15 | 02:00:17 | 00:00:00 | |
| DB0ND-19 | 2026-09-05 06:32:51 | 49.34373 | 9.01056 | 46° | 11km/h | 29253m | 4.9m/s | -45.8°C | 0.2% | 13.8hPa | 2.6V | 00:00:00 | 00:00:00 | 00:00:00 | |
| PG1ADW-2 | 2026-09-05 06:32:50 | 49.34371 | 9.01053 | 58° | 11km/h | 29247m | 5.9m/s | -45.8°C | 2.4% | 13.8hPa | 2.6V | 00:00:00 | 00:00:00 | 00:00:00 | |
| DJTTGO | 2026-09-05 06:32:49 | 49.34371 | 9.01053 | 59° | 9km/h | 29247m | 6.0m/s | -45.8°C | 0.2% | 13.8hPa | 2.6V | 03:15:00 | 00:00:00 | 00:00:00 | |
| DL1XH1-15 | 2026-09-05 06:32:48 | 49.34365 | 9.01052 | 336° | 15km/h | 29210m | 4.4m/s | -45.8°C | 2.3% | 13.9hPa | 2.6V | 03:14:57 | 02:00:09 | 00:00:00 | |
| DK5PH-5 | 2026-09-05 06:32:48 | 49.34371 | 9.01047 | 104° | 13km/h | 29236m | 4.6m/s | -45.7°C | 2.4% | 13.8hPa | 2.6V | 00:00:00 | 02:00:14 | 00:00:00 | |
| DM0DOS-11 | 2026-09-05 06:32:47 | 49.34361 | 9.01054 | 352° | 15km/h | 29205m | 4.9m/s | -45.8°C | 2.3% | 13.9hPa | 2.6V | 03:14:58 | 02:00:08 | 00:00:00 | |
| HSKMA3-T | 2026-09-05 06:32:47 | 49.34371 | 9.01045 | 115° | 2km/h | 29232m | 4.4m/s | -45.7°C | 0% | 13.8hPa | 2.7V | 03:15:15 | 02:00:13 | 00:00:00 | |
| HARRO8 | 2026-09-05 06:32:46 | 49.34371 | 9.01045 | 308° | 2km/h | 29227m | 5.4m/s | -45.7°C | 0.2% | 13.8hPa | 2.6V | 00:00:00 | 00:00:00 | 00:00:00 | |
| DO1YAY-16 | 2026-09-05 06:32:45 | 49.34370 | 9.01047 | 315° | 7km/h | 29221m | 6.2m/s | -45.7°C | 0.2% | 13.9hPa | 2.6V | 00:00:00 | 00:00:00 | 00:00:00 | |
| DL1XH-west | 2026-09-05 06:32:44 | 49.34368 | 9.01050 | 324° | 13km/h | 29215m | 5.2m/s | -45.7°C | 0% | 13.9hPa | 2.6V | 03:15:15 | 02:00:10 | 00:00:00 | |
| DF8AY | 2026-09-05 06:32:43 | 49.34365 | 9.01052 | 337° | 15km/h | 29210m | 4.4m/s | -45.8°C | 0% | 13.9hPa | 2.6V | 03:15:15 | 02:00:09 | 00:00:00 | |
| BIOWL1-15 | 2026-09-05 06:32:42 | 49.34354 | 9.01051 | 37° | 16km/h | 29194m | 5.7m/s | -45.8°C | 0% | 13.9hPa | 2.7V | 03:15:15 | 02:00:06 | 00:00:00 | |
| DB0NH | 2026-09-05 06:32:42 | 49.34361 | 9.01053 | 353° | 13km/h | 29206m | 4.9m/s | -45.7°C | 2.3% | 13.9hPa | 2.7V | 00:00:00 | 02:00:08 | 00:00:00 | |
| DB0UT-7 | 2026-09-05 06:32:41 | 49.34357 | 9.01053 | 14° | 13km/h | 29200m | 6.1m/s | -45.8°C | 2.3% | 13.8hPa | 2.7V | 00:00:00 | 02:00:07 | 00:00:00 | |
| DL6DJ-15 | 2026-09-05 06:32:40 | 49.34354 | 9.01051 | 36° | 15km/h | 29194m | 5.7m/s | -45.8°C | 0.2% | 13.9hPa | 2.6V | 00:00:00 | 00:00:00 | 00:00:00 | |
| DO3DL | 2026-09-05 06:32:39 | 49.34354 | 9.01051 | 38° | 16km/h | 29194m | 5.7m/s | -45.8°C | 0.2% | 13.9hPa | 2.6V | 03:15:00 | 00:00:00 | 00:00:00 | |
| DM0DOS-11 | 2026-09-05 06:32:37 | 49.34332 | 9.01034 | 339° | 7km/h | 29151m | 6.2m/s | -46.1°C | 2.4% | 14hPa | 2.6V | 03:15:08 | 01:59:58 | 00:00:00 | |
| DK7TD | 2026-09-05 06:32:37 | 49.34345 | 9.01037 | 41° | 16km/h | 29179m | 5.4m/s | -45.9°C | 0% | 14hPa | 2.6V | 03:15:15 | 02:00:03 | 00:00:00 | |
| HSKMA3-T | 2026-09-05 06:32:36 | 49.34342 | 9.01034 | 26° | 15km/h | 29173m | 6.1m/s | -45.9°C | 0% | 14hPa | 2.6V | 03:15:15 | 02:00:02 | 00:00:00 | |
| DL1XH-west | 2026-09-05 06:32:34 | 49.34336 | 9.01032 | 351° | 11km/h | 29162m | 4.8m/s | -46°C | 0% | 14hPa | 2.7V | 03:15:15 | 02:00:00 | 00:00:00 | |
| DF8AY | 2026-09-05 06:32:33 | 49.34333 | 9.01033 | 341° | 9km/h | 29157m | 5.3m/s | -46.1°C | 0% | 14hPa | 2.7V | 03:15:15 | 01:59:59 | 00:00:00 | |
| BIOWL1-15 | 2026-09-05 06:32:31 | 49.34327 | 9.01036 | 347° | 9km/h | 29136m | 4.3m/s | -46.2°C | 0% | 14.1hPa | 2.7V | 03:15:15 | 01:59:55 | 00:00:00 | |
| SONDE2-11 | 2026-09-05 06:32:30 | 49.34327 | 9.01036 | 346° | 7km/h | 29137m | 4.3m/s | -46.2°C | 0.3% | 14.1hPa | 2.7V | 00:00:00 | 00:00:00 | 00:00:00 | |
| OE5DXL-15 | 2026-09-05 06:32:28 | 49.34324 | 9.01037 | 347° | 13km/h | 29132m | 6.0m/s | -46.2°C | 2.5% | 14.0hPa | 2.7V | 00:00:00 | 00:00:00 | 00:00:00 | |
| DM0DOS-11 | 2026-09-05 06:32:27 | 49.34295 | 9.01037 | 31° | 15km/h | 29098m | 5.5m/s | -46.5°C | 2.5% | 14.1hPa | 2.7V | 03:15:18 | 01:59:48 | 00:00:00 | |
| DK7TD | 2026-09-05 06:32:26 | 49.34315 | 9.01040 | 351° | 24km/h | 29119m | 5.4m/s | -46.3°C | 0% | 14.1hPa | 2.6V | 03:15:15 | 01:59:52 | 00:00:00 | |
| DL1XH-west | 2026-09-05 06:32:23 | 49.34298 | 9.01039 | 17° | 18km/h | 29104m | 6.1m/s | -46.5°C | 0% | 14.1hPa | 2.7V | 03:16:06 | 01:59:49 | 00:00:00 | |
| DM3KS-11 | 2026-09-05 06:32:23 | 49.34295 | 9.01037 | 31° | 13km/h | 29098m | 5.5m/s | -46.5°C | 0.2% | 14.1hPa | 2.6V | 00:00:00 | 00:00:00 | 00:00:00 | |
| DL4BBY-15 | 2026-09-05 06:32:22 | 49.34295 | 9.01036 | 32° | 11km/h | 29098m | 5.4m/s | -47.4°C | 0% | 0hPa | 2.6V | 00:00:00 | 00:00:00 | 00:00:00 | |
| DB0ND-19 | 2026-09-05 06:32:20 | 49.34291 | 9.01032 | 40° | 2km/h | 29088m | 5.0m/s | -46.4°C | 0.3% | 14.2hPa | 2.6V | 00:00:00 | 00:00:00 | 00:00:00 | |
| DO3DL | 2026-09-05 06:32:19 | 49.34291 | 9.01032 | 41° | 4km/h | 29088m | 5.0m/s | -46.4°C | 0.3% | 14.1hPa | 2.6V | 03:16:00 | 00:00:00 | 00:00:00 | |
| DL1XH1-15 | 2026-09-05 06:32:18 | 49.34290 | 9.01054 | 293° | 2km/h | 29048m | 5.1m/s | -46.5°C | 2.4% | 14.2hPa | 2.6V | 03:15:27 | 01:59:39 | 00:00:00 | |
| BIOWL1-15 | 2026-09-05 06:32:18 | 49.34290 | 9.01035 | 276° | 9km/h | 29076m | 6.2m/s | -46.4°C | 0% | 14.2hPa | 2.6V | 03:16:06 | 01:59:44 | 00:00:00 | |
| DF8AY | 2026-09-05 06:32:17 | 49.34290 | 9.01054 | 11° | 4km/h | 29043m | 4.7m/s | -46.5°C | 0% | 14.2hPa | 2.6V | 03:16:06 | 01:59:38 | 00:00:00 | |
| HSKMA3-T | 2026-09-05 06:32:15 | 49.34290 | 9.01049 | 267° | 11km/h | 29060m | 5.5m/s | -46.6°C | 0% | 14.2hPa | 2.7V | 03:16:06 | 01:59:41 | 00:00:00 | |
| DL1XH-west | 2026-09-05 06:32:13 | 49.34290 | 9.01054 | 294° | 2km/h | 29048m | 5.1m/s | -46.5°C | 0% | 14.2hPa | 2.6V | 03:16:06 | 01:59:39 | 00:00:00 | |
| DF2AP-13 | 2026-09-05 06:32:13 | 49.34290 | 9.01054 | 294° | 11km/h | 29049m | 5.1m/s | -46.4°C | 2.4% | 14.2hPa | 2.6V | 03:15:00 | 01:59:39 | 00:00:00 | |
| DB0NH | 2026-09-05 06:32:12 | 49.34290 | 9.01054 | 12° | 11km/h | 29044m | 4.6m/s | -46.4°C | 2.5% | 14.2hPa | 2.6V | 00:00:00 | 01:59:38 | 00:00:00 | |
| DB0UT-7 | 2026-09-05 06:32:10 | 49.34285 | 9.01053 | 6° | 11km/h | 29033m | 6.5m/s | -46.7°C | 2.6% | 14.2hPa | 2.7V | 00:00:00 | 00:00:00 | 00:00:00 | |
| DL6DJ-15 | 2026-09-05 06:32:09 | 49.34281 | 9.01053 | 2° | 16km/h | 29026m | 5.8m/s | -46.6°C | 0.2% | 14.3hPa | 2.7V | 00:00:00 | 00:00:00 | 00:00:00 | |
| DL1XH1-15 | 2026-09-05 06:32:08 | 49.34270 | 9.01045 | 158° | 7km/h | 28994m | 4.6m/s | -46.2°C | 2.4% | 14.4hPa | 2.7V | 03:15:37 | 01:59:29 | 00:00:00 | |
| OE5DRO-10 | 2026-09-05 06:32:08 | 49.34277 | 9.01053 | 4° | 13km/h | 29021m | 4.7m/s | -46.5°C | 2.5% | 14.2hPa | 2.5V | 00:00:00 | 00:00:00 | 00:00:00 | |
| BIOWL1-15 | 2026-09-05 06:32:08 | 49.34277 | 9.01053 | 3° | 16km/h | 29021m | 4.8m/s | -46.6°C | 0% | 14.3hPa | 2.5V | 03:16:06 | 01:59:34 | 00:00:00 | |
| DM0DOS-11 | 2026-09-05 06:32:07 | 49.34272 | 9.01045 | 189° | 7km/h | 28989m | 5.2m/s | -46.3°C | 2.4% | 14.3hPa | 2.5V | 03:15:38 | 01:59:28 | 00:00:00 | |
| HSKMA3-T | 2026-09-05 06:32:05 | 49.34269 | 9.01049 | 65° | 5km/h | 29005m | 6.3m/s | -46.3°C | 0% | 14.3hPa | 2.7V | 03:16:06 | 01:59:31 | 00:00:00 | |
| DK7TD | 2026-09-05 06:32:04 | 49.34269 | 9.01047 | 122° | 7km/h | 28999m | 5.2m/s | -46.2°C | 0% | 14.4hPa | 2.7V | 03:16:06 | 01:59:30 | 00:00:00 | |
| DL1XH-west | 2026-09-05 06:32:03 | 49.34271 | 9.01045 | 158° | 7km/h | 28994m | 4.6m/s | -46.2°C | 0% | 14.4hPa | 2.7V | 03:16:06 | 01:59:29 | 00:00:00 | |
| DF8AY | 2026-09-05 06:32:02 | 49.34272 | 9.01045 | 190° | 7km/h | 28989m | 5.2m/s | -46.3°C | 0% | 14.3hPa | 2.5V | 03:16:06 | 01:59:28 | 00:00:00 | |
| SONCRA | 2026-09-05 06:32:01 | 49.34276 | 9.01050 | 250° | 13km/h | 28978m | 6.2m/s | -46.6°C | 0.2% | 14.4hPa | 2.7V | 00:00:00 | 00:00:00 | 00:00:00 | |
| EDDB2-12 | 2026-09-05 06:31:59 | 49.34276 | 9.01055 | 266° | 13km/h | 28972m | 5.4m/s | -46.6°C | 0.2% | 14.4hPa | 2.7V | 00:00:00 | 00:00:00 | 00:00:00 | |
| DL1XH1-15 | 2026-09-05 06:31:58 | 49.34272 | 9.01051 | 83° | 22km/h | 28939m | 5.1m/s | -46.5°C | 2.5% | 14.5hPa | 2.7V | 03:15:47 | 01:59:19 | 00:00:00 | |
| OE5DXL-15 | 2026-09-05 06:31:58 | 49.34276 | 9.01060 | 280° | 11km/h | 28967m | 4.4m/s | -46.4°C | 2.5% | 14.4hPa | 2.7V | 03:15:00 | 00:00:00 | 00:00:00 | |
| DM0DOS-11 | 2026-09-05 06:31:57 | 49.34272 | 9.01043 | 80° | 22km/h | 28934m | 5.4m/s | -46.5°C | 2.5% | 14.5hPa | 2.7V | 03:15:48 | 01:59:18 | 00:00:00 | |
| BIOWL1-15 | 2026-09-05 06:31:57 | 49.34275 | 9.01064 | 296° | 9km/h | 28962m | 4.5m/s | -46.5°C | 0% | 14.4hPa | 2.7V | 03:16:06 | 01:59:23 | 00:00:00 | |
| DK7TD | 2026-09-05 06:31:54 | 49.34273 | 9.01059 | 82° | 18km/h | 28945m | 5.9m/s | -46.5°C | 0% | 14.5hPa | 2.6V | 03:16:06 | 01:59:20 | 00:00:00 | |
| DL1XH-west | 2026-09-05 06:31:52 | 49.34272 | 9.01043 | 81° | 22km/h | 28934m | 5.4m/s | -46.5°C | 0% | 14.5hPa | 2.7V | 03:16:06 | 01:59:18 | 00:00:00 | |
| DF8AY | 2026-09-05 06:31:51 | 49.34270 | 9.01034 | 75° | 20km/h | 28929m | 5.8m/s | -46.5°C | 0% | 14.5hPa | 2.7V | 03:16:06 | 01:59:17 | 00:00:00 | |
| PG1ADW-2 | 2026-09-05 06:31:50 | 49.34269 | 9.01027 | 66° | 9km/h | 28923m | 5.7m/s | -46.5°C | 2.6% | 14.5hPa | 2.5V | 03:15:00 | 00:00:00 | 00:00:00 | |
| OE5DRO-10 | 2026-09-05 06:31:49 | 49.34267 | 9.01022 | 60° | 9km/h | 28918m | 4.9m/s | -46.5°C | 2.6% | 14.5hPa | 2.6V | 00:00:00 | 00:00:00 | 00:00:00 | |
| DL1XH1-15 | 2026-09-05 06:31:48 | 49.34260 | 9.01005 | 22° | 7km/h | 28885m | 6.3m/s | -46.5°C | 2.5% | 14.6hPa | 2.6V | 03:15:57 | 01:59:09 | 00:00:00 | |
| DK5PH-5 | 2026-09-05 06:31:48 | 49.34265 | 9.01019 | 56° | 7km/h | 28913m | 4.9m/s | -46.4°C | 2.5% | 14.5hPa | 2.6V | 03:15:00 | 01:59:14 | 00:00:00 | |
| DM0DOS-11 | 2026-09-05 06:31:47 | 49.34258 | 9.01005 | 6° | 9km/h | 28878m | 6.6m/s | -46.6°C | 2.5% | 14.6hPa | 2.6V | 03:15:58 | 01:59:08 | 00:00:00 | |
| BIOWL1-15 | 2026-09-05 06:31:46 | 49.34263 | 9.01012 | 68° | 9km/h | 28901m | 5.9m/s | -46.3°C | 0% | 14.6hPa | 2.7V | 03:16:06 | 01:59:12 | 00:00:00 | |
| HSKMA3-T | 2026-09-05 06:31:44 | 49.34261 | 9.01007 | 45° | 7km/h | 28890m | 5.1m/s | -46.4°C | 0% | 14.6hPa | 2.5V | 03:16:06 | 01:59:10 | 00:00:00 | |
| DK7TD | 2026-09-05 06:31:43 | 49.34260 | 9.01005 | 22° | 7km/h | 28885m | 6.3m/s | -46.5°C | 0% | 14.6hPa | 2.6V | 03:16:06 | 01:59:09 | 00:00:00 | |
| DL1XH-west | 2026-09-05 06:31:42 | 49.34258 | 9.01005 | 7° | 9km/h | 28878m | 6.6m/s | -46.6°C | 0% | 14.6hPa | 2.6V | 03:16:06 | 01:59:08 | 00:00:00 | |
| DL1ZP-14 | 2026-09-05 06:31:41 | 49.34255 | 9.01004 | 5° | 9km/h | 28872m | 5.4m/s | -46.5°C | 0.3% | 14.6hPa | 2.7V | 00:00:00 | 00:00:00 | 00:00:00 | |
| DF8AY | 2026-09-05 06:31:41 | 49.34255 | 9.01004 | 5° | 11km/h | 28872m | 5.4m/s | -46.5°C | 0% | 14.6hPa | 2.7V | 03:16:06 | 01:59:07 | 00:00:00 | |
| DG1MJG | 2026-09-05 06:31:40 | 49.34255 | 9.01004 | 6° | 11km/h | 28873m | 5.4m/s | -46.5°C | 0.3% | 14.6hPa | 2.7V | 03:16:00 | 00:00:00 | 00:00:00 | |
| DB0UT-7 | 2026-09-05 06:31:39 | 49.34251 | 9.01002 | 53° | 9km/h | 28862m | 6.0m/s | -46.4°C | 2.5% | 14.6hPa | 2.7V | 03:16:00 | 01:59:05 | 00:00:00 | |
| DL1XH1-15 | 2026-09-05 06:31:38 | 49.34257 | 9.00986 | 267° | 4km/h | 28827m | 6.4m/s | -46.4°C | 2.4% | 14.8hPa | 2.7V | 03:16:07 | 01:58:59 | 00:00:00 | |
| DO8TBO-1 | 2026-09-05 06:31:37 | 49.34251 | 9.00995 | 115° | 13km/h | 28850m | 5.6m/s | -46.3°C | 2.5% | 14.6hPa | 2.6V | 03:16:00 | 01:59:03 | 00:00:00 | |
| DM0DOS-11 | 2026-09-05 06:31:36 | 49.34255 | 9.00990 | 306° | 9km/h | 28816m | 5m/s | -46.5°C | 2.4% | 14.8hPa | 2.6V | 03:16:09 | 01:58:57 | 00:00:00 | |
| BIOWL1-15 | 2026-09-05 06:31:36 | 49.34253 | 9.00991 | 125° | 13km/h | 28844m | 4.8m/s | -46.3°C | 0% | 14.7hPa | 2.7V | 03:16:06 | 01:59:02 | 00:00:00 | |
| HSKMA3-T | 2026-09-05 06:31:34 | 49.34256 | 9.00985 | 150° | 5km/h | 28833m | 6.3m/s | -46.3°C | 0% | 14.7hPa | 2.6V | 03:16:06 | 01:59:00 | 00:00:00 | |
| DK7TD | 2026-09-05 06:31:33 | 49.34257 | 9.00986 | 268° | 4km/h | 28827m | 6.4m/s | -46.4°C | 0% | 14.8hPa | 2.7V | 03:16:57 | 01:58:59 | 00:00:00 | |
| DL1XH-west | 2026-09-05 06:31:31 | 49.34255 | 9.00990 | 307° | 9km/h | 28816m | 5m/s | -46.5°C | 0% | 14.8hPa | 2.6V | 03:16:57 | 01:58:57 | 00:00:00 | |
| DF8AY | 2026-09-05 06:31:30 | 49.34254 | 9.00992 | 317° | 7km/h | 28810m | 6.1m/s | -46.6°C | 0% | 14.8hPa | 2.6V | 03:16:57 | 01:58:56 | 00:00:00 | |
| SONCRA | 2026-09-05 06:31:30 | 49.34253 | 9.00993 | 347° | 4km/h | 28804m | 6.3m/s | -46.7°C | 0.3% | 14.8hPa | 2.5V | 00:00:00 | 00:00:00 | 00:00:00 | |
| DL1XH1-15 | 2026-09-05 06:31:28 | 49.34246 | 9.00986 | 63° | 4km/h | 28770m | 5.1m/s | -46.5°C | 2.6% | 14.8hPa | 2.5V | 03:16:17 | 01:58:49 | 00:00:00 | |
| SONDE2-11 | 2026-09-05 06:31:28 | 49.34251 | 9.00992 | 46° | 5km/h | 28793m | 5.1m/s | -46.5°C | 0.2% | 14.8hPa | 2.7V | 00:00:00 | 00:00:00 | 00:00:00 | |
| DM0DOS-11 | 2026-09-05 06:31:26 | 49.34247 | 9.00981 | 131° | 9km/h | 28758m | 6.8m/s | -46.5°C | 2.6% | 14.9hPa | 2.7V | 03:16:19 | 01:58:47 | 00:00:00 | |
| BIOWL1-15 | 2026-09-05 06:31:26 | 49.34249 | 9.00990 | 43° | 7km/h | 28787m | 5.5m/s | -46.5°C | 0% | 14.8hPa | 2.6V | 03:16:57 | 01:58:52 | 00:00:00 | |
| HSKMA3-T | 2026-09-05 06:31:23 | 49.34246 | 9.00986 | 64° | 4km/h | 28770m | 5.1m/s | -46.5°C | 0% | 14.8hPa | 2.5V | 03:16:57 | 01:58:49 | 00:00:00 | |
| DL1XH-west | 2026-09-05 06:31:20 | 49.34249 | 9.00978 | 143° | 13km/h | 28752m | 5.4m/s | -46.4°C | 0% | 14.9hPa | 2.7V | 03:16:57 | 01:58:46 | 00:00:00 | |
| NBG1-10 | 2026-09-05 06:31:19 | 49.34252 | 9.00975 | 147° | 7km/h | 28748m | 4.3m/s | -46.3°C | 2.5% | 14.9hPa | 2.5V | 00:00:00 | 01:58:45 | 00:00:00 | |
| DL1XH1-15 | 2026-09-05 06:31:18 | 49.34249 | 9.00974 | 11° | 11km/h | 28714m | 5.2m/s | -46.4°C | 2.5% | 15hPa | 2.5V | 03:16:27 | 01:58:39 | 00:00:00 | |
| DK5PH-5 | 2026-09-05 06:31:18 | 49.34254 | 9.00973 | 152° | 9km/h | 28743m | 4.7m/s | -46.3°C | 2.5% | 14.9hPa | 2.6V | 00:00:00 | 01:58:44 | 00:00:00 | |
| DM0DOS-11 | 2026-09-05 06:31:16 | 49.34244 | 9.00968 | 64° | 13km/h | 28701m | 6m/s | -46.4°C | 2.5% | 15hPa | 2.6V | 03:16:29 | 01:58:37 | 00:00:00 | |
| BIOWL1-15 | 2026-09-05 06:31:15 | 49.34254 | 9.00973 | 339° | 9km/h | 28724m | 5.9m/s | -46.3°C | 0% | 15hPa | 2.7V | 03:16:57 | 01:58:41 | 00:00:00 | |
| HSKMA3-T | 2026-09-05 06:31:13 | 49.34249 | 9.00974 | 11° | 13km/h | 28714m | 5.2m/s | -46.4°C | 0% | 15hPa | 2.5V | 03:16:57 | 01:58:39 | 00:00:00 | |
| DK7TD | 2026-09-05 06:31:12 | 49.34246 | 9.00972 | 37° | 11km/h | 28708m | 6.5m/s | -46.3°C | 0% | 15hPa | 2.6V | 03:16:57 | 01:58:38 | 00:00:00 | |
| DB0NH | 2026-09-05 06:31:12 | 49.34246 | 9.00972 | 38° | 9km/h | 28708m | 6.5m/s | -46.3°C | 2.5% | 15.0hPa | 2.7V | 00:00:00 | 01:58:38 | 00:00:00 | |
| OE5DRO-10 | 2026-09-05 06:31:11 | 49.34244 | 9.00968 | 65° | 9km/h | 28702m | 6.0m/s | -46.3°C | 2.5% | 15.0hPa | 2.7V | 03:16:00 | 00:00:00 | 00:00:00 | |
| PG1ADW-2 | 2026-09-05 06:31:10 | 49.34243 | 9.00963 | 81° | 9km/h | 28696m | 5.1m/s | -46.4°C | 2.5% | 15.0hPa | 2.7V | 00:00:00 | 01:58:36 | 00:00:00 | |
| DB0UT-7 | 2026-09-05 06:31:09 | 49.34242 | 9.00957 | 88° | 7km/h | 28691m | 5.1m/s | -46.4°C | 2.5% | 15.0hPa | 2.7V | 00:00:00 | 00:00:00 | 00:00:00 | |
| DL1XH-west | 2026-09-05 06:31:09 | 49.34243 | 9.00957 | 87° | 16km/h | 28691m | 5.1m/s | -46.4°C | 0% | 15hPa | 2.7V | 03:16:57 | 01:58:35 | 00:00:00 | |
| DL1XH1-15 | 2026-09-05 06:31:08 | 49.34244 | 9.00939 | 166° | 7km/h | 28656m | 6.8m/s | -46.3°C | 2.5% | 15.1hPa | 2.7V | 03:16:37 | 01:58:29 | 00:00:00 | |
| DL6DJ-15 | 2026-09-05 06:31:07 | 49.34242 | 9.00943 | 88° | 5km/h | 28674m | 5.1m/s | -46.2°C | 0.3% | 15.1hPa | 2.5V | 00:00:00 | 00:00:00 | 00:00:00 | |
| DM0DOS-11 | 2026-09-05 06:31:06 | 49.34248 | 9.00939 | 178° | 7km/h | 28645m | 4.8m/s | -46.3°C | 2.5% | 15.2hPa | 2.5V | 03:16:39 | 01:58:27 | 00:00:00 | |
| BIOWL1-15 | 2026-09-05 06:31:05 | 49.34242 | 9.00941 | 114° | 4km/h | 28669m | 4.9m/s | -46.2°C | 0% | 15.1hPa | 2.6V | 03:16:57 | 01:58:31 | 00:00:00 | |
| HSKMA3-T | 2026-09-05 06:31:02 | 49.34246 | 9.00939 | 170° | 9km/h | 28650m | 5.7m/s | -46.3°C | 0% | 15.1hPa | 2.7V | 03:16:57 | 01:58:28 | 00:00:00 | |
| DK7TD | 2026-09-05 06:31:01 | 49.34248 | 9.00939 | 178° | 7km/h | 28645m | 4.8m/s | -46.3°C | 0% | 15.2hPa | 2.5V | 03:16:57 | 01:58:27 | 00:00:00 | |
| DL1XH-west | 2026-09-05 06:30:59 | 49.34251 | 9.00940 | 254° | 5km/h | 28635m | 5.9m/s | -46.3°C | 0% | 15.2hPa | 2.6V | 03:16:57 | 01:58:25 | 00:00:00 | |
| SONCRA | 2026-09-05 06:30:59 | 49.34250 | 9.00942 | 295° | 7km/h | 28628m | 6.8m/s | -46.2°C | 0.3% | 15.2hPa | 2.7V | 00:00:00 | 00:00:00 | 00:00:00 | |
| EDDB2-12 | 2026-09-05 06:30:57 | 49.34249 | 9.00945 | 312° | 9km/h | 28622m | 5.6m/s | -46.1°C | 0.2% | 15.2hPa | 2.7V | 00:00:00 | 00:00:00 | 00:00:00 | |
| SONDE2-11 | 2026-09-05 06:30:56 | 49.34247 | 9.00948 | 330° | 9km/h | 28617m | 4.7m/s | -46.0°C | 0.2% | 15.2hPa | 2.7V | 00:00:00 | 00:00:00 | 00:00:00 | |
| DM0DOS-11 | 2026-09-05 06:30:55 | 49.34244 | 9.00930 | 94° | 11km/h | 28582m | 6.2m/s | -45.9°C | 2.4% | 15.3hPa | 2.7V | 03:16:50 | 01:58:16 | 00:00:00 | |
| BIOWL1-15 | 2026-09-05 06:30:55 | 49.34245 | 9.00949 | 356° | 7km/h | 28612m | 5.1m/s | -46°C | 0% | 15.2hPa | 2.6V | 03:16:57 | 01:58:21 | 00:00:00 | |
| HSKMA3-T | 2026-09-05 06:30:52 | 49.34243 | 9.00940 | 97° | 15km/h | 28594m | 5.5m/s | -46°C | 0% | 15.3hPa | 2.7V | 03:16:57 | 01:58:18 | 00:00:00 | |
| DK7TD | 2026-09-05 06:30:51 | 49.34244 | 9.00935 | 100° | 15km/h | 28588m | 5.3m/s | -46°C | 0% | 15.3hPa | 2.7V | 03:16:57 | 01:58:17 | 00:00:00 | |
| DL1XH-west | 2026-09-05 06:30:49 | 49.34244 | 9.00927 | 82° | 5km/h | 28576m | 5.8m/s | -46°C | 0% | 15.3hPa | 2.5V | 03:16:57 | 01:58:15 | 00:00:00 | |
| DB0ND-19 | 2026-09-05 06:30:47 | 49.34243 | 9.00926 | 290° | 2km/h | 28566m | 5.0m/s | -46.2°C | 0.2% | 15.3hPa | 2.7V | 00:00:00 | 00:00:00 | 00:00:00 | |
| NBG1-10 | 2026-09-05 06:30:46 | 49.34243 | 9.00927 | 262° | 9km/h | 28560m | 6.3m/s | -46.2°C | 2.4% | 15.3hPa | 2.7V | 03:16:00 | 01:58:12 | 00:00:00 | |
| DM0DOS-11 | 2026-09-05 06:30:45 | 49.34244 | 9.00943 | 288° | 5km/h | 28524m | 4.7m/s | -46.2°C | 2.4% | 15.4hPa | 2.7V | 03:17:00 | 01:58:06 | 00:00:00 | |
| DJ2DS-15 | 2026-09-05 06:30:45 | 49.34243 | 9.00928 | 243° | 7km/h | 28554m | 6.5m/s | -46.1°C | 2.4% | 15.3hPa | 2.7V | 00:00:00 | 01:58:11 | 00:00:00 | |
| DL1XH-15 | 2026-09-05 06:30:44 | 49.34243 | 9.00944 | 251° | 2km/h | 28519m | 5.1m/s | -46.3°C | 2.5% | 15.4hPa | 2.7V | 03:17:01 | 01:58:05 | 00:00:00 | |
| BIOWL1-15 | 2026-09-05 06:30:44 | 49.34244 | 9.00930 | 248° | 7km/h | 28548m | 5.5m/s | -46.2°C | 0% | 15.4hPa | 2.7V | 03:16:57 | 01:58:10 | 00:00:00 | |
| HSKMA3-T | 2026-09-05 06:30:41 | 49.34244 | 9.00940 | 286° | 9km/h | 28530m | 5.7m/s | -46.3°C | 0% | 15.4hPa | 2.6V | 03:17:48 | 01:58:07 | 00:00:00 | |
| DK7TD | 2026-09-05 06:30:40 | 49.34244 | 9.00943 | 289° | 5km/h | 28524m | 4.7m/s | -46.2°C | 0% | 15.4hPa | 2.7V | 03:17:48 | 01:58:06 | 00:00:00 | |
| DL1XH-west | 2026-09-05 06:30:38 | 49.34244 | 9.00944 | 132° | 5km/h | 28513m | 6.5m/s | -46.4°C | 0% | 15.5hPa | 2.7V | 03:17:48 | 01:58:04 | 00:00:00 | |
| BIOWL1-15 | 2026-09-05 06:30:35 | 49.34253 | 9.00924 | 122° | 5km/h | 28485m | 6.3m/s | -46.3°C | 0% | 15.5hPa | 2.7V | 03:17:48 | 01:57:59 | 00:00:00 | |
| DM0DOS-11 | 2026-09-05 06:30:35 | 49.34251 | 9.00926 | 310° | 7km/h | 28468m | 5.7m/s | -46.4°C | 2.5% | 15.6hPa | 2.7V | 03:17:10 | 01:57:56 | 00:00:00 | |
| HSKMA3-T | 2026-09-05 06:30:30 | 49.34252 | 9.00926 | 311° | 7km/h | 28468m | 5.7m/s | -46.4°C | 0% | 15.6hPa | 2.7V | 03:17:48 | 01:57:56 | 00:00:00 | |
| DK7TD | 2026-09-05 06:30:29 | 49.34251 | 9.00927 | 307° | 4km/h | 28463m | 6m/s | -46.3°C | 0% | 15.6hPa | 2.7V | 03:17:48 | 01:57:55 | 00:00:00 | |
| DF8AY | 2026-09-05 06:30:28 | 49.34250 | 9.00928 | 297° | 2km/h | 28456m | 5.9m/s | -46.3°C | 0% | 15.6hPa | 2.5V | 03:17:48 | 01:57:54 | 00:00:00 | |
| DL1XH-west | 2026-09-05 06:30:27 | 49.34250 | 9.00928 | 111° | 2km/h | 28451m | 5.5m/s | -46.3°C | 0% | 15.6hPa | 2.5V | 03:17:48 | 01:57:53 | 00:00:00 | |
| HSKMA3-T | 2026-09-05 06:30:20 | 49.34262 | 9.00913 | 160° | 24km/h | 28410m | 6.1m/s | -46.7°C | 0% | 15.7hPa | 2.5V | 03:17:48 | 01:57:46 | 00:00:00 | |
| DK7TD | 2026-09-05 06:30:19 | 49.34273 | 9.00910 | 176° | 22km/h | 28400m | 4.6m/s | -46.7°C | 0% | 15.7hPa | 2.6V | 03:17:48 | 01:57:44 | 00:00:00 | |
| DL1XH1-15 | 2026-09-05 06:30:18 | 49.34283 | 9.00923 | 280° | 9km/h | 28372m | 5.8m/s | -46.5°C | 2.5% | 15.8hPa | 2.5V | 03:17:27 | 01:57:39 | 00:00:00 | |
| DF8AY | 2026-09-05 06:30:17 | 49.34278 | 9.00910 | 190° | 16km/h | 28395m | 6.1m/s | -46.7°C | 0% | 15.8hPa | 2.7V | 03:17:48 | 01:57:43 | 00:00:00 | |
| DL1XH-west | 2026-09-05 06:30:16 | 49.34281 | 9.00912 | 215° | 11km/h | 28388m | 6.6m/s | -46.7°C | 0% | 15.8hPa | 2.7V | 03:17:48 | 01:57:42 | 00:00:00 | |
| HSKMA3-T | 2026-09-05 06:30:10 | 49.34284 | 9.00926 | 148° | 7km/h | 28355m | 5.1m/s | -46.5°C | 0% | 15.8hPa | 2.7V | 03:17:48 | 01:57:36 | 00:00:00 | |
| BIOWL1-15 | 2026-09-05 06:30:10 | 49.34288 | 9.00921 | 130° | 11km/h | 28344m | 5.8m/s | -46.7°C | 0% | 15.9hPa | 2.5V | 03:17:48 | 01:57:34 | 00:00:00 | |
| PG1ADW-2 | 2026-09-05 06:30:10 | 49.34284 | 9.00926 | 148° | 16km/h | 28355m | 5.1m/s | -46.5°C | 2.5% | 15.8hPa | 2.7V | 00:00:00 | 00:00:00 | 00:00:00 | |
| KANTATE | 2026-09-05 06:30:09 | 49.34284 | 9.00926 | 148° | 7km/h | 28355m | 5.1m/s | -46.5°C | 0.3% | 15.8hPa | 2.7V | 03:17:00 | 00:00:00 | 00:00:00 | |
| DL1XH1-15 | 2026-09-05 06:30:08 | 49.34302 | 9.00904 | 161° | 22km/h | 28315m | 6.6m/s | -46.7°C | 2.6% | 15.9hPa | 2.7V | 03:17:37 | 01:57:29 | 00:00:00 | |
| DL1ZP-14 | 2026-09-05 06:30:08 | 49.34289 | 9.00917 | 128° | 11km/h | 28338m | 6.0m/s | -46.8°C | 0.3% | 15.9hPa | 2.6V | 00:00:00 | 00:00:00 | 00:00:00 | |
| DL1XH-15 | 2026-09-05 06:30:07 | 49.34307 | 9.00902 | 165° | 22km/h | 28310m | 4.7m/s | -46.7°C | 2.6% | 16hPa | 2.5V | 03:17:38 | 01:57:28 | 00:00:00 | |
| DK7TD | 2026-09-05 06:30:07 | 49.34289 | 9.00917 | 128° | 13km/h | 28338m | 6m/s | -46.8°C | 0% | 15.9hPa | 2.6V | 03:17:48 | 01:57:33 | 00:00:00 | |
| DF8AY | 2026-09-05 06:30:06 | 49.34292 | 9.00914 | 133° | 13km/h | 28333m | 5.4m/s | -46.8°C | 0% | 15.9hPa | 2.6V | 03:17:48 | 01:57:32 | 00:00:00 | |
| DL1XH-west | 2026-09-05 06:30:05 | 49.34294 | 9.00910 | 144° | 15km/h | 28327m | 5.3m/s | -46.8°C | 0% | 15.9hPa | 2.7V | 03:17:48 | 01:57:31 | 00:00:00 | |
| HSKMA3-T | 2026-09-05 06:30:00 | 49.34316 | 9.00898 | 157° | 15km/h | 28300m | 5.8m/s | -46.8°C | 0% | 16hPa | 2.5V | 03:17:48 | 01:57:26 | 00:00:00 | |
| BIOWL1-15 | 2026-09-05 06:29:57 | 49.34319 | 9.00889 | 72° | 13km/h | 28282m | 5m/s | -46.6°C | 0% | 16hPa | 2.7V | 03:17:48 | 01:57:23 | 00:00:00 | |
| DK7TD | 2026-09-05 06:29:56 | 49.34318 | 9.00883 | 78° | 16km/h | 28277m | 4.9m/s | -46.6°C | 0% | 16hPa | 2.5V | 03:17:48 | 01:57:22 | 00:00:00 | |
| DL1XH-west | 2026-09-05 06:29:55 | 49.34317 | 9.00876 | 90° | 18km/h | 28272m | 6m/s | -46.7°C | 0% | 16hPa | 2.5V | 03:17:48 | 01:57:21 | 00:00:00 | |
| HSKMA3-T | 2026-09-05 06:29:49 | 49.34337 | 9.00838 | 144° | 15km/h | 28239m | 6.1m/s | -46.5°C | 0% | 16.1hPa | 2.5V | 03:18:39 | 01:57:15 | 00:00:00 | |
| DL1XH1-15 | 2026-09-05 06:29:48 | 49.34345 | 9.00813 | 109° | 20km/h | 28203m | 5.2m/s | -46.6°C | 2.5% | 16.2hPa | 2.7V | 03:17:57 | 01:57:09 | 00:00:00 | |
| BIOWL1-15 | 2026-09-05 06:29:46 | 49.34341 | 9.00829 | 106° | 9km/h | 28221m | 5.3m/s | -46.6°C | 0% | 16.2hPa | 2.7V | 03:18:39 | 01:57:12 | 00:00:00 | |
| DL1XH-west | 2026-09-05 06:29:45 | 49.34342 | 9.00825 | 108° | 13km/h | 28215m | 6.3m/s | -46.6°C | 0% | 16.2hPa | 2.5V | 03:18:39 | 01:57:11 | 00:00:00 | |
| DF8AY | 2026-09-05 06:29:44 | 49.34344 | 9.00820 | 110° | 16km/h | 28209m | 6.2m/s | -46.6°C | 0% | 16.2hPa | 2.6V | 03:18:39 | 01:57:10 | 00:00:00 | |
| DO8TBO-1 | 2026-09-05 06:29:44 | 49.34343 | 9.00819 | 110° | 13km/h | 28209m | 6.2m/s | -46.5°C | 2.6% | 16.2hPa | 2.7V | 00:00:00 | 01:57:10 | 00:00:00 | |
| DM0DOS-11 | 2026-09-05 06:29:43 | 49.34351 | 9.00778 | 115° | 13km/h | 28176m | 4.7m/s | -46.8°C | 2.5% | 16.3hPa | 2.7V | 03:18:02 | 01:57:04 | 00:00:00 | |
| DO3MHA-11 | 2026-09-05 06:29:43 | 49.34345 | 9.00813 | 110° | 16km/h | 28203m | 5.1m/s | -46.6°C | 2.5% | 16.2hPa | 2.5V | 03:17:00 | 01:57:09 | 00:00:00 | |
| DB0UT-9 | 2026-09-05 06:29:42 | 49.34345 | 9.00813 | 110° | 20km/h | 28203m | 5.2m/s | -46.6°C | 0.3% | 16.2hPa | 2.5V | 03:18:00 | 00:00:00 | 00:00:00 | |
| DG9SBQ-11 | 2026-09-05 06:29:41 | 49.34347 | 9.00805 | 107° | 22km/h | 28198m | 5.1m/s | -46.6°C | 0.3% | 16.3hPa | 2.5V | 03:18:00 | 00:00:00 | 00:00:00 | |
| HARRO8 | 2026-09-05 06:29:40 | 49.34350 | 9.00783 | 100° | 15km/h | 28181m | 4.6m/s | -46.7°C | 0.3% | 16.3hPa | 2.5V | 00:00:00 | 00:00:00 | 00:00:00 | |
| DO1YAY-16 | 2026-09-05 06:29:39 | 49.34350 | 9.00783 | 100° | 15km/h | 28181m | 4.6m/s | -46.7°C | 0.3% | 16.3hPa | 2.5V | 00:00:00 | 00:00:00 | 00:00:00 | |
| DL1XH1-15 | 2026-09-05 06:29:38 | 49.34364 | 9.00768 | 166° | 7km/h | 28150m | 4.2m/s | -46.7°C | 2.6% | 16.4hPa | 2.5V | 03:18:07 | 01:56:59 | 00:00:00 | |
| HSKMA3-T | 2026-09-05 06:29:38 | 49.34351 | 9.00778 | 115° | 13km/h | 28176m | 4.7m/s | -46.8°C | 0% | 16.3hPa | 2.7V | 03:18:39 | 01:57:04 | 00:00:00 | |
| BIOWL1-15 | 2026-09-05 06:29:36 | 49.34355 | 9.00772 | 156° | 13km/h | 28164m | 6.5m/s | -46.9°C | 0% | 16.3hPa | 2.6V | 03:18:39 | 01:57:02 | 00:00:00 | |
| DL1XH-west | 2026-09-05 06:29:35 | 49.34358 | 9.00770 | 168° | 15km/h | 28159m | 5.2m/s | -46.8°C | 0% | 16.4hPa | 2.7V | 03:18:39 | 01:57:01 | 00:00:00 | |
| DF8AY | 2026-09-05 06:29:33 | 49.34364 | 9.00768 | 167° | 7km/h | 28150m | 4.2m/s | -46.7°C | 0% | 16.4hPa | 2.5V | 03:18:39 | 01:56:59 | 00:00:00 | |
| DO3MHA-11 | 2026-09-05 06:29:33 | 49.34364 | 9.00768 | 167° | 13km/h | 28150m | 4.2m/s | -46.7°C | 2.6% | 16.3hPa | 2.5V | 00:00:00 | 01:56:59 | 00:00:00 | |
| CB1BUN | 2026-09-05 06:29:32 | 49.34364 | 9.00768 | 167° | 7km/h | 28150m | 4.2m/s | -46.7°C | 0.3% | 16.4hPa | 2.7V | 03:18:00 | 00:00:00 | 00:00:00 | |
| DL4BBY-15 | 2026-09-05 06:29:31 | 49.34364 | 9.00766 | 27° | 9km/h | 28139m | 6.7m/s | -47.7°C | 0% | 0hPa | 2.7V | 00:00:00 | 00:00:00 | 00:00:00 | |
| PG1ADW-2 | 2026-09-05 06:29:30 | 49.34362 | 9.00764 | 27° | 11km/h | 28132m | 5.7m/s | 0°C | 0% | 0hPa | 2.7V | 00:00:00 | 00:00:00 | 00:00:00 | |
| DG9SBQ-11 | 2026-09-05 06:29:29 | 49.34362 | 9.00764 | 28° | 15km/h | 28132m | 5.7m/s | -46.9°C | 0.3% | 16.4hPa | 2.7V | 03:18:00 | 00:00:00 | 00:00:00 | |
| DL1XH1-15 | 2026-09-05 06:29:28 | 49.34357 | 9.00732 | 155° | 13km/h | 28094m | 5.8m/s | -46.8°C | 2.5% | 16.5hPa | 2.7V | 03:18:17 | 01:56:49 | 00:00:00 | |
| DF8AY | 2026-09-05 06:29:27 | 49.34360 | 9.00731 | 174° | 11km/h | 28088m | 6m/s | -46.9°C | 0% | 16.5hPa | 2.7V | 03:18:39 | 01:56:48 | 00:00:00 | |
| HSKMA3-T | 2026-09-05 06:29:27 | 49.34352 | 9.00751 | 64° | 16km/h | 28116m | 6.1m/s | -46.9°C | 0% | 16.4hPa | 2.5V | 03:18:39 | 01:56:53 | 00:00:00 | |
| DK7TD | 2026-09-05 06:29:25 | 49.34352 | 9.00739 | 120° | 15km/h | 28104m | 5.1m/s | -46.8°C | 0% | 16.5hPa | 2.6V | 03:18:39 | 01:56:51 | 00:00:00 | |
| DL1XH-west | 2026-09-05 06:29:24 | 49.34354 | 9.00735 | 140° | 15km/h | 28099m | 5.2m/s | -46.7°C | 0% | 16.5hPa | 2.7V | 03:18:39 | 01:56:50 | 00:00:00 | |
| DL3AQ-11 | 2026-09-05 06:29:24 | 49.34357 | 9.00732 | 155° | 13km/h | 28094m | 5.8m/s | -46.8°C | 0.3% | 16.5hPa | 2.6V | 00:00:00 | 00:00:00 | 00:00:00 | |
| DO3MHA-11 | 2026-09-05 06:29:23 | 49.34357 | 9.00732 | 156° | 7km/h | 28094m | 5.7m/s | -46.7°C | 2.5% | 16.4hPa | 2.6V | 00:00:00 | 01:56:49 | 00:00:00 | |
| DB0UT-9 | 2026-09-05 06:29:22 | 49.34357 | 9.00732 | 156° | 13km/h | 28094m | 5.8m/s | -46.8°C | 0.3% | 16.5hPa | 2.6V | 03:18:00 | 00:00:00 | 00:00:00 | |
| BIOWL9-15 | 2026-09-05 06:29:20 | 49.34363 | 9.00732 | 243° | 4km/h | 28077m | 5.0m/s | -46.7°C | 0.3% | 16.6hPa | 2.6V | 00:00:00 | 00:00:00 | 00:00:00 | |
| BIOWL7-15 | 2026-09-05 06:29:19 | 49.34363 | 9.00732 | 244° | 5km/h | 28077m | 5.0m/s | -46.7°C | 0.3% | 16.5hPa | 2.6V | 00:00:00 | 00:00:00 | 00:00:00 | |
| DL1XH1-15 | 2026-09-05 06:29:18 | 49.34361 | 9.00723 | 54° | 9km/h | 28038m | 6.5m/s | -46.8°C | 2.5% | 16.6hPa | 2.6V | 03:18:27 | 01:56:39 | 00:00:00 | |
| HSKMA3-T | 2026-09-05 06:29:17 | 49.34363 | 9.00734 | 67° | 4km/h | 28060m | 6.2m/s | -46.8°C | 0% | 16.6hPa | 2.7V | 03:18:39 | 01:56:43 | 00:00:00 | |
| BIOWL1-15 | 2026-09-05 06:29:16 | 49.34362 | 9.00726 | 70° | 9km/h | 28044m | 5.4m/s | -46.8°C | 0% | 16.6hPa | 2.5V | 03:18:39 | 01:56:40 | 00:00:00 | |
| DK7TD | 2026-09-05 06:29:15 | 49.34362 | 9.00729 | 79° | 9km/h | 28050m | 5m/s | -46.8°C | 0% | 16.6hPa | 2.5V | 03:18:39 | 01:56:41 | 00:00:00 | |
| DB0ND-19 | 2026-09-05 06:29:14 | 49.34361 | 9.00723 | 54° | 7km/h | 28038m | 6.5m/s | -46.8°C | 0.3% | 16.6hPa | 2.5V | 00:00:00 | 00:00:00 | 00:00:00 | |
| DM0DOS-11 | 2026-09-05 06:29:13 | 49.34362 | 9.00713 | 151° | 13km/h | 28011m | 5.7m/s | -46.7°C | 2.5% | 16.7hPa | 2.5V | 03:18:32 | 01:56:34 | 00:00:00 | |
| DL1XH-west | 2026-09-05 06:29:13 | 49.34361 | 9.00723 | 54° | 9km/h | 28038m | 6.5m/s | -46.8°C | 0% | 16.6hPa | 2.6V | 03:18:39 | 01:56:39 | 00:00:00 | |
| DF8AY | 2026-09-05 06:29:12 | 49.34359 | 9.00720 | 44° | 7km/h | 28032m | 5.3m/s | -46.8°C | 0% | 16.7hPa | 2.7V | 03:18:39 | 01:56:38 | 00:00:00 | |
| DO3DL | 2026-09-05 06:29:11 | 49.34359 | 9.00721 | 45° | 7km/h | 28032m | 5.3m/s | -46.8°C | 0.3% | 16.7hPa | 2.5V | 03:18:00 | 00:00:00 | 00:00:00 | |
| PG1ADW-2 | 2026-09-05 06:29:10 | 49.34358 | 9.00717 | 123° | 7km/h | 28023m | 5.1m/s | 0°C | 0% | 0hPa | 2.5V | 00:00:00 | 00:00:00 | 00:00:00 | |
| HARRO8 | 2026-09-05 06:29:09 | 49.34360 | 9.00716 | 145° | 7km/h | 28017m | 6.6m/s | -46.8°C | 0.3% | 16.7hPa | 2.5V | 00:00:00 | 00:00:00 | 00:00:00 | |
| DL1XH1-15 | 2026-09-05 06:29:08 | 49.34371 | 9.00706 | 16° | 4km/h | 27983m | 5m/s | -46.7°C | 2.6% | 16.8hPa | 2.5V | 03:18:37 | 01:56:29 | 00:00:00 | |
| HSKMA3-T | 2026-09-05 06:29:06 | 49.34368 | 9.00709 | 154° | 11km/h | 28000m | 4.7m/s | -46.8°C | 0% | 16.7hPa | 2.7V | 03:18:39 | 01:56:32 | 00:00:00 | |
| DK7TD | 2026-09-05 06:29:04 | 49.34371 | 9.00706 | 129° | 2km/h | 27989m | 5.9m/s | -46.7°C | 0% | 16.8hPa | 2.5V | 03:18:39 | 01:56:30 | 00:00:00 | |
| BIOWL1-15 | 2026-09-05 06:29:03 | 49.34371 | 9.00706 | 17° | 4km/h | 27983m | 5m/s | -46.7°C | 0% | 16.8hPa | 2.5V | 03:18:39 | 01:56:29 | 00:00:00 | |
| DL1XH-west | 2026-09-05 06:29:02 | 49.34370 | 9.00705 | 19° | 4km/h | 27979m | 4.8m/s | -46.8°C | 0% | 16.8hPa | 2.7V | 03:18:39 | 01:56:28 | 00:00:00 | |
| DF8AY | 2026-09-05 06:29:01 | 49.34369 | 9.00704 | 52° | 4km/h | 27973m | 5.9m/s | -46.7°C | 0% | 16.8hPa | 2.7V | 03:18:39 | 01:56:27 | 00:00:00 | |
| EDDB2-11 | 2026-09-05 06:28:59 | 49.34370 | 9.00701 | 136° | 5km/h | 27962m | 5.2m/s | -46.6°C | 0.3% | 16.9hPa | 2.7V | 00:00:00 | 00:00:00 | 00:00:00 | |
| DL1XH1-15 | 2026-09-05 06:28:58 | 49.34379 | 9.00702 | 210° | 9km/h | 27929m | 5.7m/s | -46.7°C | 2.5% | 16.9hPa | 2.7V | 03:18:47 | 01:56:19 | 00:00:00 | |
| HEMX73-6 | 2026-09-05 06:28:58 | 49.34371 | 9.00699 | 152° | 16km/h | 27957m | 4.8m/s | -46.7°C | 2.6% | 16.8hPa | 2.5V | 03:18:00 | 01:56:24 | 00:00:00 | |
| DL0LBS | 2026-09-05 06:28:57 | 49.34371 | 9.00699 | 153° | 7km/h | 27957m | 4.9m/s | -46.7°C | 0.3% | 16.9hPa | 2.5V | 03:19:00 | 00:00:00 | 00:00:00 | |
| DL1XH-15 | 2026-09-05 06:28:56 | 49.34385 | 9.00705 | 190° | 13km/h | 27917m | 4.9m/s | -46.6°C | 2.5% | 16.9hPa | 2.5V | 03:18:49 | 01:56:17 | 00:00:00 | |
| HSKMA3-T | 2026-09-05 06:28:55 | 49.34376 | 9.00699 | 214° | 5km/h | 27940m | 5.9m/s | -46.6°C | 0% | 16.9hPa | 2.5V | 03:19:30 | 01:56:21 | 00:00:00 | |
| DK7TD | 2026-09-05 06:28:54 | 49.34377 | 9.00701 | 218° | 7km/h | 27934m | 5m/s | -46.7°C | 0% | 16.9hPa | 2.7V | 03:19:30 | 01:56:20 | 00:00:00 | |
| DL1XH-west | 2026-09-05 06:28:52 | 49.34382 | 9.00704 | 199° | 11km/h | 27923m | 6.4m/s | -46.6°C | 0% | 16.9hPa | 2.5V | 03:19:30 | 01:56:18 | 00:00:00 | |
| DF8AY | 2026-09-05 06:28:50 | 49.34387 | 9.00706 | 185° | 9km/h | 27913m | 4.3m/s | -46.7°C | 0% | 16.9hPa | 2.6V | 03:19:30 | 01:56:16 | 00:00:00 | |
| BIOWL9-15 | 2026-09-05 06:28:49 | 49.34389 | 9.00706 | 175° | 5km/h | 27908m | 4.9m/s | -46.7°C | 0.3% | 17.0hPa | 2.7V | 00:00:00 | 00:00:00 | 00:00:00 | |
| DK5PH-5 | 2026-09-05 06:28:48 | 49.34390 | 9.00706 | 120° | 5km/h | 27903m | 6.5m/s | -46.6°C | 2.5% | 16.9hPa | 2.7V | 00:00:00 | 01:56:14 | 00:00:00 | |
| DG9SBQ-11 | 2026-09-05 06:28:47 | 49.34390 | 9.00706 | 0° | 0km/h | 27903m | 6.5m/s | -46.7°C | 0.3% | 17.0hPa | 2.7V | 03:19:00 | 00:00:00 | 00:00:00 | |
| DL1XH-15 | 2026-09-05 06:28:46 | 49.34390 | 9.00692 | 150° | 7km/h | 27865m | 4.3m/s | -46.8°C | 2.5% | 17.1hPa | 2.7V | 03:18:59 | 01:56:07 | 00:00:00 | |
| HSKMA3-T | 2026-09-05 06:28:45 | 49.34387 | 9.00702 | 53° | 7km/h | 27886m | 5.2m/s | -46.7°C | 0% | 17hPa | 2.5V | 03:19:30 | 01:56:11 | 00:00:00 | |
| AU51GT2 | 2026-09-05 06:28:45 | 49.34387 | 9.00702 | 52° | 5km/h | 27886m | 5.2m/s | -46.7°C | 0.3% | 17.0hPa | 2.7V | 00:00:00 | 00:00:00 | 00:00:00 | |
| DK7TD | 2026-09-05 06:28:43 | 49.34387 | 9.00697 | 118° | 7km/h | 27874m | 5.3m/s | -46.8°C | 0% | 17.1hPa | 2.7V | 03:19:30 | 01:56:09 | 00:00:00 | |
| DL1XH-west | 2026-09-05 06:28:41 | 49.34390 | 9.00692 | 151° | 7km/h | 27865m | 4.4m/s | -46.8°C | 0% | 17.1hPa | 2.7V | 03:19:30 | 01:56:07 | 00:00:00 | |
| DF8AY | 2026-09-05 06:28:40 | 49.34392 | 9.00691 | 212° | 2km/h | 27854m | 6.3m/s | -46.9°C | 0% | 17.1hPa | 2.5V | 03:19:30 | 01:56:05 | 00:00:00 | |
| HSKMA3-T | 2026-09-05 06:28:34 | 49.34390 | 9.00694 | 138° | 2km/h | 27826m | 5.3m/s | -46.9°C | 0% | 17.2hPa | 2.5V | 03:19:30 | 01:56:00 | 00:00:00 | |
| DK7TD | 2026-09-05 06:28:33 | 49.34390 | 9.00694 | 168° | 2km/h | 27821m | 4.4m/s | -46.9°C | 0% | 17.2hPa | 2.5V | 03:19:30 | 01:55:59 | 00:00:00 | |
| DL1XH-west | 2026-09-05 06:28:31 | 49.34390 | 9.00695 | 302° | 5km/h | 27811m | 6.1m/s | -46.9°C | 0% | 17.2hPa | 2.7V | 03:19:30 | 01:55:57 | 00:00:00 | |
| NBG1-10 | 2026-09-05 06:28:31 | 49.34390 | 9.00695 | 303° | 15km/h | 27811m | 6.1m/s | -46.8°C | 2.6% | 17.2hPa | 2.7V | 03:19:00 | 01:55:57 | 00:00:00 | |
| PG1ADW-2 | 2026-09-05 06:28:29 | 49.34388 | 9.00700 | 310° | 9km/h | 27800m | 4.6m/s | 0°C | 0% | 0hPa | 2.7V | 00:00:00 | 01:55:55 | 00:00:00 | |
| DL1XH1-15 | 2026-09-05 06:28:28 | 49.34392 | 9.00703 | 168° | 7km/h | 27767m | 6.1m/s | -46.9°C | 2.6% | 17.4hPa | 2.7V | 03:19:17 | 01:55:49 | 00:00:00 | |
| DF8AY | 2026-09-05 06:28:28 | 49.34386 | 9.00702 | 306° | 7km/h | 27795m | 4.6m/s | -46.9°C | 0% | 17.3hPa | 2.5V | 03:19:30 | 01:55:54 | 00:00:00 | |
| HSKMA3-T | 2026-09-05 06:28:23 | 49.34392 | 9.00703 | 168° | 7km/h | 27767m | 6.1m/s | -46.9°C | 0% | 17.4hPa | 2.7V | 03:19:30 | 01:55:49 | 00:00:00 | |
| DK7TD | 2026-09-05 06:28:22 | 49.34393 | 9.00702 | 187° | 4km/h | 27761m | 5.7m/s | -47°C | 0% | 17.4hPa | 2.7V | 03:19:30 | 01:55:48 | 00:00:00 | |
| BIOWL1-15 | 2026-09-05 06:28:22 | 49.34399 | 9.00706 | 198° | 11km/h | 27739m | 5.6m/s | -46.8°C | 0% | 17.4hPa | 2.7V | 03:19:30 | 01:55:44 | 00:00:00 | |
| DL1XH-west | 2026-09-05 06:28:20 | 49.34395 | 9.00704 | 207° | 5km/h | 27751m | 5.1m/s | -46.9°C | 0% | 17.4hPa | 2.5V | 03:19:30 | 01:55:46 | 00:00:00 | |
| DF8AY | 2026-09-05 06:28:18 | 49.34402 | 9.00708 | 204° | 11km/h | 27734m | 4.6m/s | -46.9°C | 0% | 17.4hPa | 2.7V | 03:19:30 | 01:55:43 | 00:00:00 | |
| DL1XH1-15 | 2026-09-05 06:28:18 | 49.34408 | 9.00719 | 242° | 9km/h | 27713m | 4.1m/s | -46.8°C | 2.5% | 17.5hPa | 2.5V | 03:19:27 | 01:55:39 | 00:00:00 | |
| DK5PH-5 | 2026-09-05 06:28:18 | 49.34399 | 9.00706 | 198° | 16km/h | 27740m | 5.6m/s | -46.8°C | 2.6% | 17.4hPa | 2.5V | 00:00:00 | 01:55:44 | 00:00:00 | |
| LOEBOVI | 2026-09-05 06:28:16 | 49.34402 | 9.00708 | 205° | 11km/h | 27734m | 4.6m/s | -46.9°C | 0% | 0hPa | 2.5V | 00:00:00 | 00:00:00 | 00:00:00 | |
| DL3AQ-11 | 2026-09-05 06:28:15 | 49.34407 | 9.00716 | 251° | 9km/h | 27718m | 5.4m/s | -46.9°C | 0.3% | 17.5hPa | 2.5V | 00:00:00 | 00:00:00 | 00:00:00 | |
| DO8TBO-1 | 2026-09-05 06:28:14 | 49.34407 | 9.00716 | 252° | 18km/h | 27718m | 5.3m/s | -46.8°C | 2.6% | 17.4hPa | 2.5V | 00:00:00 | 01:55:40 | 00:00:00 | |
| DM0DOS-11 | 2026-09-05 06:28:13 | 49.34424 | 9.00724 | 178° | 18km/h | 27687m | 4.4m/s | -46.7°C | 2.6% | 17.6hPa | 2.5V | 03:19:32 | 01:55:34 | 00:00:00 | |
| HSKMA3-T | 2026-09-05 06:28:13 | 49.34408 | 9.00719 | 243° | 9km/h | 27713m | 4.1m/s | -46.8°C | 0% | 17.5hPa | 2.5V | 03:19:30 | 01:55:39 | 00:00:00 | |
| DK7TD | 2026-09-05 06:28:12 | 49.34410 | 9.00722 | 223° | 9km/h | 27709m | 4.5m/s | -46.9°C | 0% | 17.5hPa | 2.7V | 03:19:30 | 01:55:38 | 00:00:00 | |
| CB1BUN | 2026-09-05 06:28:11 | 49.34410 | 9.00722 | 224° | 9km/h | 27709m | 4.5m/s | -46.9°C | 0.3% | 17.5hPa | 2.7V | 03:19:00 | 00:00:00 | 00:00:00 | |
| DL1XH-15 | 2026-09-05 06:28:10 | 49.34436 | 9.00728 | 216° | 15km/h | 27671m | 5m/s | -46.8°C | 2.6% | 17.6hPa | 2.7V | 03:19:35 | 01:55:31 | 00:00:00 | |
| DL1XH-west | 2026-09-05 06:28:09 | 49.34419 | 9.00724 | 177° | 18km/h | 27692m | 4.9m/s | -46.8°C | 0% | 17.5hPa | 2.5V | 03:20:21 | 01:55:35 | 00:00:00 | |
| BIOWL1-15 | 2026-09-05 06:28:07 | 49.34428 | 9.00724 | 187° | 18km/h | 27682m | 5.5m/s | -46.8°C | 0% | 17.6hPa | 2.5V | 03:20:21 | 01:55:33 | 00:00:00 | |
| DF8AY | 2026-09-05 06:28:06 | 49.34432 | 9.00726 | 200° | 15km/h | 27676m | 5.7m/s | -46.7°C | 0% | 17.6hPa | 2.7V | 03:20:21 | 01:55:32 | 00:00:00 | |
| DO1YAY-16 | 2026-09-05 06:28:06 | 49.34436 | 9.00728 | 216° | 13km/h | 27671m | 5.0m/s | 0°C | -1.0% | 17.6hPa | 2.5V | 00:00:00 | 00:00:00 | 00:00:00 | |
| DJ2DS-15 | 2026-09-05 06:28:05 | 49.34436 | 9.00728 | 217° | 20km/h | 27672m | 5.0m/s | -46.7°C | 2.6% | 17.6hPa | 2.5V | 00:00:00 | 01:55:31 | 00:00:00 | |
| DL3AQ-11 | 2026-09-05 06:28:04 | 49.34441 | 9.00736 | 224° | 15km/h | 27662m | 4.4m/s | -46.7°C | 0.3% | 17.6hPa | 2.5V | 00:00:00 | 00:00:00 | 00:00:00 | |
| DM0DOS-11 | 2026-09-05 06:28:03 | 49.34467 | 9.00757 | 204° | 27km/h | 27635m | 5.4m/s | -46.7°C | 2.6% | 17.7hPa | 2.5V | 03:19:42 | 01:55:24 | 00:00:00 | |
| HSKMA3-T | 2026-09-05 06:28:03 | 49.34441 | 9.00736 | 225° | 16km/h | 27662m | 4.4m/s | -46.7°C | 0% | 17.6hPa | 2.5V | 03:20:21 | 01:55:29 | 00:00:00 | |
| DK7TD | 2026-09-05 06:28:02 | 49.34444 | 9.00740 | 215° | 18km/h | 27657m | 5.1m/s | -46.7°C | 0% | 17.6hPa | 2.5V | 03:20:21 | 01:55:28 | 00:00:00 | |
| DL1XH-west | 2026-09-05 06:27:59 | 49.34461 | 9.00752 | 202° | 27km/h | 27640m | 5.1m/s | -46.6°C | 0% | 17.7hPa | 2.7V | 03:20:21 | 01:55:25 | 00:00:00 | |
| DL1XH1-15 | 2026-09-05 06:27:58 | 49.34490 | 9.00771 | 179° | 16km/h | 27609m | 6.1m/s | -46.5°C | 2.6% | 17.8hPa | 2.5V | 03:19:47 | 01:55:19 | 00:00:00 | |
| BIOWL1-15 | 2026-09-05 06:27:58 | 49.34478 | 9.00765 | 209° | 20km/h | 27624m | 5m/s | -46.6°C | 0% | 17.8hPa | 2.7V | 03:20:21 | 01:55:22 | 00:00:00 | |
| DF8AY | 2026-09-05 06:27:55 | 49.34482 | 9.00768 | 203° | 18km/h | 27619m | 4.2m/s | -46.5°C | 0% | 17.8hPa | 2.7V | 03:20:21 | 01:55:21 | 00:00:00 | |
| HSKMA3-T | 2026-09-05 06:27:52 | 49.34495 | 9.00770 | 172° | 18km/h | 27604m | 5.3m/s | -46.5°C | 0% | 17.8hPa | 2.7V | 03:20:21 | 01:55:18 | 00:00:00 | |
| EDDB2-12 | 2026-09-05 06:27:51 | 49.34503 | 9.00769 | 183° | 16km/h | 27594m | 4.9m/s | -46.4°C | 0.3% | 17.8hPa | 2.5V | 00:00:00 | 00:00:00 | 00:00:00 | |
| SONDE2-11 | 2026-09-05 06:27:50 | 49.34503 | 9.00769 | 183° | 16km/h | 27594m | 4.9m/s | -46.4°C | 0.3% | 17.8hPa | 2.5V | 00:00:00 | 00:00:00 | 00:00:00 | |
| DL1XH-15 | 2026-09-05 06:27:49 | 49.34535 | 9.00793 | 196° | 27km/h | 27561m | 4.7m/s | -46.2°C | 2.5% | 17.9hPa | 2.5V | 03:19:56 | 01:55:10 | 00:00:00 | |
| DL1XH1-15 | 2026-09-05 06:27:48 | 49.34541 | 9.00795 | 190° | 26km/h | 27557m | 3.8m/s | -46.2°C | 2.5% | 17.9hPa | 2.5V | 03:19:57 | 01:55:09 | 00:00:00 | |
| BIOWL1-15 | 2026-09-05 06:27:48 | 49.34522 | 9.00784 | 212° | 27km/h | 27572m | 5.5m/s | -46.4°C | 0% | 17.9hPa | 2.7V | 03:20:21 | 01:55:12 | 00:00:00 | |
| DL1XH-west | 2026-09-05 06:27:48 | 49.34512 | 9.00774 | 212° | 20km/h | 27583m | 5.6m/s | -46.4°C | 0% | 17.9hPa | 2.5V | 03:20:21 | 01:55:14 | 00:00:00 | |
| DL3AQ-11 | 2026-09-05 06:27:48 | 49.34517 | 9.00778 | 215° | 24km/h | 27578m | 5.0m/s | -46.3°C | 0.3% | 17.9hPa | 2.5V | 00:00:00 | 00:00:00 | 00:00:00 | |
| BIOWL9-15 | 2026-09-05 06:27:47 | 49.34517 | 9.00778 | 215° | 24km/h | 27578m | 5.0m/s | -46.3°C | 0.3% | 17.9hPa | 2.5V | 00:00:00 | 00:00:00 | 00:00:00 | |
| DF8AY | 2026-09-05 06:27:44 | 49.34535 | 9.00793 | 197° | 27km/h | 27561m | 4.7m/s | -46.3°C | 0% | 17.9hPa | 2.5V | 03:20:21 | 01:55:10 | 00:00:00 | |
| DO8TBO-1 | 2026-09-05 06:27:44 | 49.34535 | 9.00792 | 197° | 22km/h | 27562m | 4.7m/s | -46.2°C | 2.5% | 17.9hPa | 2.5V | 00:00:00 | 01:55:10 | 00:00:00 | |
| DM0DOS-11 | 2026-09-05 06:27:43 | 49.34565 | 9.00798 | 172° | 18km/h | 27531m | 5.3m/s | -46.1°C | 2.5% | 18hPa | 2.5V | 03:20:02 | 01:55:04 | 00:00:00 | |
| DK7TD | 2026-09-05 06:27:42 | 49.34548 | 9.00796 | 187° | 24km/h | 27553m | 4.8m/s | -46.2°C | 0% | 17.9hPa | 2.5V | 03:20:21 | 01:55:08 | 00:00:00 | |
| HSKMA3-T | 2026-09-05 06:27:41 | 49.34553 | 9.00797 | 187° | 20km/h | 27547m | 6.1m/s | -46.2°C | 0% | 17.9hPa | 2.7V | 03:20:21 | 01:55:07 | 00:00:00 | |
| DB0ND-19 | 2026-09-05 06:27:41 | 49.34557 | 9.00798 | 183° | 15km/h | 27542m | 5.6m/s | -46.1°C | 0.3% | 18.0hPa | 2.7V | 00:00:00 | 00:00:00 | 00:00:00 | |
| OE5DRO-10 | 2026-09-05 06:27:40 | 49.34557 | 9.00798 | 184° | 18km/h | 27542m | 5.6m/s | -46.1°C | 2.5% | 17.9hPa | 2.7V | 00:00:00 | 00:00:00 | 00:00:00 | |
| DL1XH1-15 | 2026-09-05 06:27:38 | 49.34591 | 9.00799 | 206° | 20km/h | 27503m | 6.2m/s | -46.1°C | 2.5% | 18.1hPa | 2.7V | 03:20:07 | 01:54:59 | 00:00:00 | |
| DL1XH-west | 2026-09-05 06:27:37 | 49.34570 | 9.00797 | 171° | 20km/h | 27525m | 6.1m/s | -46.1°C | 0% | 18hPa | 2.5V | 03:20:21 | 01:55:03 | 00:00:00 | |
| BIOWL1-15 | 2026-09-05 06:27:35 | 49.34581 | 9.00795 | 182° | 22km/h | 27515m | 4.9m/s | -46.1°C | 0% | 18hPa | 2.7V | 03:20:21 | 01:55:01 | 00:00:00 | |
| DM7RM-13 | 2026-09-05 06:27:34 | 49.34581 | 9.00795 | 183° | 22km/h | 27515m | 4.9m/s | -46.1°C | 0.3% | 18.0hPa | 2.7V | 03:20:00 | 00:00:00 | 00:00:00 | |
| DM0DOS-11 | 2026-09-05 06:27:33 | 49.34614 | 9.00815 | 176° | 20km/h | 27477m | 5.3m/s | -46.2°C | 2.5% | 18.1hPa | 2.7V | 03:20:12 | 01:54:54 | 00:00:00 | |
| DF8AY | 2026-09-05 06:27:33 | 49.34591 | 9.00799 | 207° | 20km/h | 27503m | 6.2m/s | -46.2°C | 0% | 18.1hPa | 2.7V | 03:20:21 | 01:54:59 | 00:00:00 | |
| DK7TD | 2026-09-05 06:27:31 | 49.34600 | 9.00808 | 216° | 20km/h | 27493m | 4.1m/s | -46.3°C | 0% | 18.1hPa | 2.5V | 03:20:21 | 01:54:57 | 00:00:00 | |
| HSKMA3-T | 2026-09-05 06:27:30 | 49.34604 | 9.00812 | 208° | 20km/h | 27488m | 5.2m/s | -46.2°C | 0% | 18.1hPa | 2.5V | 03:20:21 | 01:54:56 | 00:00:00 | |
| DL4BBY-15 | 2026-09-05 06:27:30 | 49.34604 | 9.00812 | 209° | 20km/h | 27489m | 5.1m/s | -47.0°C | 0% | 0hPa | 2.5V | 00:00:00 | 00:00:00 | 00:00:00 | |
| DL6DJ-15 | 2026-09-05 06:27:29 | 49.34614 | 9.00815 | 176° | 18km/h | 27477m | 5.3m/s | -46.2°C | 0.3% | 18.1hPa | 2.5V | 00:00:00 | 00:00:00 | 00:00:00 | |
| DL1XH1-15 | 2026-09-05 06:27:28 | 49.34631 | 9.00806 | 167° | 9km/h | 27451m | 4.4m/s | -46.1°C | 2.5% | 18.2hPa | 2.5V | 03:20:17 | 01:54:49 | 00:00:00 | |
| BIOWL1-15 | 2026-09-05 06:27:27 | 49.34626 | 9.00809 | 154° | 15km/h | 27462m | 6.2m/s | -46.2°C | 0% | 18.2hPa | 2.7V | 03:20:21 | 01:54:51 | 00:00:00 | |
| DL1XH-west | 2026-09-05 06:27:27 | 49.34618 | 9.00814 | 164° | 18km/h | 27472m | 4.9m/s | -46.2°C | 0% | 18.1hPa | 2.5V | 03:20:21 | 01:54:53 | 00:00:00 | |
| EDDB2-11 | 2026-09-05 06:27:26 | 49.34626 | 9.00809 | 154° | 13km/h | 27462m | 6.2m/s | 0°C | -1.0% | -1.0hPa | 2.7V | 00:00:00 | 00:00:00 | 00:00:00 | |
| DJ2DS-15 | 2026-09-05 06:27:25 | 49.34626 | 9.00809 | 155° | 18km/h | 27462m | 6.2m/s | -46.1°C | 2.5% | 18.1hPa | 2.7V | 00:00:00 | 01:54:51 | 00:00:00 | |
| DL3AQ-11 | 2026-09-05 06:27:24 | 49.34631 | 9.00806 | 167° | 7km/h | 27451m | 4.4m/s | -46.2°C | 0.3% | 18.2hPa | 2.5V | 00:00:00 | 00:00:00 | 00:00:00 | |
| DM0DOS-11 | 2026-09-05 06:27:23 | 49.34652 | 9.00806 | 183° | 22km/h | 27425m | 4.5m/s | -46°C | 2.5% | 18.3hPa | 2.5V | 03:20:22 | 01:54:44 | 00:00:00 | |
| DF8AY | 2026-09-05 06:27:22 | 49.34634 | 9.00806 | 178° | 11km/h | 27447m | 4.4m/s | -46.1°C | 0% | 18.2hPa | 2.5V | 03:20:21 | 01:54:48 | 00:00:00 | |
| DK7TD | 2026-09-05 06:27:21 | 49.34637 | 9.00806 | 180° | 15km/h | 27442m | 5.5m/s | -46.1°C | 0% | 18.2hPa | 2.7V | 03:20:21 | 01:54:47 | 00:00:00 | |
| DL1XH-15 | 2026-09-05 06:27:20 | 49.34666 | 9.00808 | 184° | 16km/h | 27409m | 4.2m/s | -46.1°C | 2.5% | 18.3hPa | 2.7V | 03:20:25 | 01:54:41 | 00:00:00 | |
| HSKMA3-T | 2026-09-05 06:27:19 | 49.34646 | 9.00806 | 181° | 22km/h | 27430m | 5.1m/s | -46.2°C | 0% | 18.3hPa | 2.5V | 03:20:21 | 01:54:45 | 00:00:00 | |
| DL1XH-west | 2026-09-05 06:27:16 | 49.34662 | 9.00808 | 189° | 18km/h | 27414m | 5.6m/s | -46.2°C | 0% | 18.3hPa | 2.7V | 03:21:12 | 01:54:42 | 00:00:00 | |
| DF8AY | 2026-09-05 06:27:15 | 49.34680 | 9.00803 | 152° | 24km/h | 27395m | 6.1m/s | -46.3°C | 0% | 18.4hPa | 2.5V | 03:21:12 | 01:54:38 | 00:00:00 | |
| BIOWL1-15 | 2026-09-05 06:27:15 | 49.34666 | 9.00808 | 184° | 16km/h | 27409m | 4.2m/s | -46.1°C | 0% | 18.3hPa | 2.7V | 03:22:03 | 01:54:41 | 00:00:00 | |
| DM0DOS-11 | 2026-09-05 06:27:13 | 49.34702 | 9.00784 | 159° | 20km/h | 27373m | 6m/s | -46.2°C | 2.5% | 18.4hPa | 2.7V | 03:20:32 | 01:54:34 | 00:00:00 | |
| DF7PN | 2026-09-05 06:27:13 | 49.34680 | 9.00803 | 151° | 22km/h | 27395m | 6.1m/s | -46.3°C | 0.3% | 18.4hPa | 2.5V | 00:00:00 | 00:00:00 | 00:00:00 | |
| AU51GT2 | 2026-09-05 06:27:12 | 49.34680 | 9.00803 | 151° | 22km/h | 27395m | 6.1m/s | -46.3°C | 0.3% | 18.4hPa | 2.5V | 00:00:00 | 00:00:00 | 00:00:00 | |
| DL1XH-15 | 2026-09-05 06:27:10 | 49.34716 | 9.00779 | 165° | 20km/h | 27357m | 5.9m/s | -46.2°C | 2.5% | 18.5hPa | 2.5V | 03:20:35 | 01:54:31 | 00:00:00 | |
| DK7TD | 2026-09-05 06:27:10 | 49.34691 | 9.00793 | 149° | 27km/h | 27384m | 4.8m/s | -46.2°C | 0% | 18.4hPa | 2.7V | 03:21:12 | 01:54:36 | 00:00:00 | |
| HSKMA3-T | 2026-09-05 06:27:09 | 49.34697 | 9.00788 | 153° | 24km/h | 27378m | 5.7m/s | -46.3°C | 0% | 18.4hPa | 2.7V | 03:21:12 | 01:54:35 | 00:00:00 | |
| DL1XH-west | 2026-09-05 06:27:06 | 49.34711 | 9.00780 | 168° | 18km/h | 27362m | 4.7m/s | -46.1°C | 0% | 18.5hPa | 2.5V | 03:21:12 | 01:54:32 | 00:00:00 | |
| BIOWL1-15 | 2026-09-05 06:27:04 | 49.34721 | 9.00777 | 162° | 22km/h | 27351m | 5.8m/s | -46.3°C | 0% | 18.5hPa | 2.7V | 03:22:03 | 01:54:30 | 00:00:00 | |
| DM0DOS-11 | 2026-09-05 06:27:03 | 49.34756 | 9.00759 | 161° | 27km/h | 27320m | 4.4m/s | -46.3°C | 2.5% | 18.6hPa | 2.5V | 03:20:42 | 01:54:24 | 00:00:00 | |
| DF8AY | 2026-09-05 06:27:01 | 49.34738 | 9.00767 | 161° | 24km/h | 27336m | 5.6m/s | -46.1°C | 0% | 18.5hPa | 2.5V | 03:21:12 | 01:54:27 | 00:00:00 | |
| DK7TD | 2026-09-05 06:26:59 | 49.34749 | 9.00762 | 165° | 26km/h | 27324m | 4.8m/s | -46.3°C | 0% | 18.6hPa | 2.6V | 03:21:12 | 01:54:25 | 00:00:00 | |
| HSKMA3-T | 2026-09-05 06:26:58 | 49.34756 | 9.00759 | 162° | 27km/h | 27320m | 4.4m/s | -46.3°C | 0% | 18.6hPa | 2.5V | 03:21:12 | 01:54:24 | 00:00:00 | |
| DL1XH-west | 2026-09-05 06:26:55 | 49.34780 | 9.00743 | 155° | 38km/h | 27303m | 4.8m/s | -46.3°C | 0% | 18.7hPa | 2.6V | 03:21:12 | 01:54:21 | 00:00:00 | |
| BIOWL1-15 | 2026-09-05 06:26:54 | 49.34788 | 9.00737 | 155° | 37km/h | 27299m | 3.9m/s | -46.3°C | 0% | 18.7hPa | 2.5V | 03:22:03 | 01:54:20 | 00:00:00 | |
| DF8AY | 2026-09-05 06:26:51 | 49.34807 | 9.00725 | 164° | 16km/h | 27284m | 5.7m/s | -46.3°C | 0% | 18.7hPa | 2.7V | 03:21:12 | 01:54:17 | 00:00:00 | |
| DK7TD | 2026-09-05 06:26:49 | 49.34812 | 9.00723 | 151° | 7km/h | 27274m | 4.4m/s | -46.3°C | 0% | 18.7hPa | 2.7V | 03:21:12 | 01:54:15 | 00:00:00 | |
| HSKMA3-T | 2026-09-05 06:26:48 | 49.34814 | 9.00721 | 134° | 9km/h | 27268m | 5.7m/s | -46.3°C | 0% | 18.7hPa | 2.5V | 03:21:12 | 01:54:14 | 00:00:00 | |
| DL1XH-west | 2026-09-05 06:26:45 | 49.34821 | 9.00706 | 130° | 24km/h | 27252m | 4.8m/s | -46.2°C | 0% | 18.8hPa | 2.7V | 03:21:12 | 01:54:11 | 00:00:00 | |
| BIOWL1-15 | 2026-09-05 06:26:44 | 49.34825 | 9.00699 | 134° | 24km/h | 27247m | 4.8m/s | -46.3°C | 0% | 18.8hPa | 2.7V | 03:22:03 | 01:54:10 | 00:00:00 | |
| DO8TBO-1 | 2026-09-05 06:26:44 | 49.34825 | 9.00699 | 135° | 18km/h | 27247m | 4.8m/s | -46.2°C | 2.5% | 18.8hPa | 2.7V | 00:00:00 | 01:54:10 | 00:00:00 | |
| DM0DOS-11 | 2026-09-05 06:26:43 | 49.34851 | 9.00680 | 163° | 16km/h | 27216m | 5.7m/s | -46.4°C | 2.5% | 18.9hPa | 2.7V | 03:21:02 | 01:54:04 | 00:00:00 | |
| DF8AY | 2026-09-05 06:26:40 | 49.34843 | 9.00683 | 168° | 18km/h | 27225m | 4.4m/s | -46.4°C | 0% | 18.9hPa | 2.5V | 03:21:12 | 01:54:06 | 00:00:00 | |
| DK7TD | 2026-09-05 06:26:39 | 49.34847 | 9.00681 | 169° | 16km/h | 27221m | 4.5m/s | -46.3°C | 0% | 18.9hPa | 2.7V | 03:21:12 | 01:54:05 | 00:00:00 | |
| HSKMA3-T | 2026-09-05 06:26:38 | 49.34851 | 9.00680 | 163° | 16km/h | 27216m | 5.7m/s | -46.4°C | 0% | 18.9hPa | 2.7V | 03:21:12 | 01:54:04 | 00:00:00 | |
| DL1XH-west | 2026-09-05 06:26:35 | 49.34862 | 9.00669 | 118° | 16km/h | 27200m | 4.8m/s | -46.7°C | 0% | 18.9hPa | 2.7V | 03:21:12 | 01:54:01 | 00:00:00 | |
| BIOWL1-15 | 2026-09-05 06:26:33 | 49.34863 | 9.00657 | 78° | 15km/h | 27189m | 6.1m/s | -46.7°C | 0% | 18.9hPa | 2.5V | 03:22:03 | 01:53:59 | 00:00:00 | |
| DO3MHA-11 | 2026-09-05 06:26:33 | 49.34862 | 9.00657 | 79° | 18km/h | 27189m | 6.1m/s | -46.6°C | 2.7% | 18.9hPa | 2.5V | 00:00:00 | 01:53:59 | 00:00:00 | |
| DL1XH-15 | 2026-09-05 06:26:32 | 49.34861 | 9.00617 | 114° | 24km/h | 27158m | 4.2m/s | -46.7°C | 2.6% | 19hPa | 2.5V | 03:21:13 | 01:53:53 | 00:00:00 | |
| DF8AY | 2026-09-05 06:26:29 | 49.34858 | 9.00633 | 92° | 18km/h | 27169m | 6.4m/s | -46.6°C | 0% | 19hPa | 2.5V | 03:21:12 | 01:53:55 | 00:00:00 | |
| DL1XH1-15 | 2026-09-05 06:26:28 | 49.34867 | 9.00589 | 72° | 13km/h | 27138m | 6.2m/s | -46.5°C | 2.5% | 19.1hPa | 2.5V | 03:21:17 | 01:53:49 | 00:00:00 | |
| HSKMA3-T | 2026-09-05 06:26:28 | 49.34859 | 9.00625 | 107° | 22km/h | 27163m | 5.8m/s | -46.7°C | 0% | 19.1hPa | 2.5V | 03:21:12 | 01:53:54 | 00:00:00 | |
| BIOWL1-15 | 2026-09-05 06:26:24 | 49.34865 | 9.00585 | 43° | 13km/h | 27132m | 5.8m/s | -46.4°C | 0% | 19.1hPa | 2.5V | 03:22:03 | 01:53:48 | 00:00:00 | |
| DL1XH-west | 2026-09-05 06:26:24 | 49.34867 | 9.00594 | 98° | 16km/h | 27144m | 5.8m/s | -46.6°C | 0% | 19.1hPa | 2.7V | 03:22:03 | 01:53:50 | 00:00:00 | |
| DM0DOS-11 | 2026-09-05 06:26:23 | 49.34855 | 9.00574 | 58° | 15km/h | 27112m | 5m/s | -46.4°C | 2.5% | 19.2hPa | 2.7V | 03:21:22 | 01:53:44 | 00:00:00 | |
| DO3MHA-11 | 2026-09-05 06:26:23 | 49.34867 | 9.00589 | 73° | 18km/h | 27138m | 6.1m/s | -46.4°C | 2.5% | 19.1hPa | 2.7V | 03:21:00 | 01:53:49 | 00:00:00 | |
| DF1GD-15 | 2026-09-05 06:26:22 | 49.34867 | 9.00589 | 74° | 13km/h | 27138m | 6.2m/s | -46.5°C | 0.3% | 19.1hPa | 2.7V | 03:22:00 | 00:00:00 | 00:00:00 | |
| DJTTGO | 2026-09-05 06:26:21 | 49.34865 | 9.00585 | 44° | 13km/h | 27132m | 5.8m/s | -46.4°C | 0.3% | 19.1hPa | 2.7V | 03:22:00 | 00:00:00 | 00:00:00 | |
| OE5DRO-10 | 2026-09-05 06:26:19 | 49.34857 | 9.00578 | 39° | 18km/h | 27117m | 4.8m/s | -46.3°C | 2.5% | 19.1hPa | 2.7V | 00:00:00 | 00:00:00 | 00:00:00 | |
| DL1XH1-15 | 2026-09-05 06:26:18 | 49.34846 | 9.00528 | 71° | 24km/h | 27087m | 4.4m/s | -46.1°C | 2.5% | 19.3hPa | 2.7V | 03:21:27 | 01:53:39 | 00:00:00 | |
| HSKMA3-T | 2026-09-05 06:26:18 | 49.34854 | 9.00574 | 59° | 15km/h | 27112m | 5m/s | -46.4°C | 0% | 19.2hPa | 2.7V | 03:22:03 | 01:53:44 | 00:00:00 | |
| DK7TD | 2026-09-05 06:26:17 | 49.34853 | 9.00567 | 72° | 20km/h | 27107m | 5.1m/s | -46.3°C | 0% | 19.2hPa | 2.5V | 03:22:03 | 01:53:43 | 00:00:00 | |
| SONDE2-11 | 2026-09-05 06:26:17 | 49.34851 | 9.00559 | 79° | 24km/h | 27102m | 5.1m/s | -46.3°C | 0.3% | 19.2hPa | 2.5V | 00:00:00 | 00:00:00 | 00:00:00 | |
| DM0DOS-11 | 2026-09-05 06:26:13 | 49.34845 | 9.00516 | 209° | 7km/h | 27061m | 4.4m/s | -46.4°C | 2.5% | 19.3hPa | 2.5V | 03:21:32 | 01:53:34 | 00:00:00 | |
| DL1XH-west | 2026-09-05 06:26:13 | 49.34847 | 9.00528 | 71° | 24km/h | 27087m | 4.4m/s | -46.1°C | 0% | 19.3hPa | 2.7V | 03:22:03 | 01:53:39 | 00:00:00 | |
| DO3MHA-11 | 2026-09-05 06:26:13 | 49.34847 | 9.00528 | 72° | 11km/h | 27088m | 4.4m/s | -46.1°C | 2.5% | 19.2hPa | 2.5V | 00:00:00 | 01:53:39 | 00:00:00 | |
| DG9SBQ-11 | 2026-09-05 06:26:12 | 49.34846 | 9.00528 | 72° | 24km/h | 27088m | 4.4m/s | -46.1°C | 0.3% | 19.3hPa | 2.5V | 03:22:00 | 00:00:00 | 00:00:00 | |
| DL1XH-15 | 2026-09-05 06:26:11 | 49.34847 | 9.00516 | 95° | 5km/h | 27053m | 4.6m/s | -46.5°C | 2.5% | 19.4hPa | 2.5V | 03:21:34 | 01:53:32 | 00:00:00 | |
| BIOWL1-15 | 2026-09-05 06:26:11 | 49.34843 | 9.00516 | 63° | 9km/h | 27078m | 5.4m/s | -46.3°C | 0% | 19.3hPa | 2.5V | 03:22:03 | 01:53:37 | 00:00:00 | |
| DF7PN | 2026-09-05 06:26:11 | 49.34843 | 9.00514 | 93° | 0km/h | 27072m | 5.9m/s | -46.4°C | 0.3% | 19.3hPa | 2.7V | 00:00:00 | 00:00:00 | 00:00:00 | |
| DM3KS-11 | 2026-09-05 06:26:10 | 49.34843 | 9.00514 | 93° | 0km/h | 27072m | 5.9m/s | -46.4°C | 0.3% | 19.3hPa | 2.7V | 00:00:00 | 00:00:00 | 00:00:00 | |
| KANTATE | 2026-09-05 06:26:09 | 49.34843 | 9.00514 | 0° | 0km/h | 27072m | 5.9m/s | -46.4°C | 0.3% | 19.3hPa | 2.7V | 03:22:00 | 00:00:00 | 00:00:00 | |
| DL1XH1-15 | 2026-09-05 06:26:08 | 49.34838 | 9.00499 | 46° | 33km/h | 27035m | 6.1m/s | -46.5°C | 2.5% | 19.4hPa | 2.7V | 03:21:37 | 01:53:29 | 00:00:00 | |
| DK7TD | 2026-09-05 06:26:07 | 49.34846 | 9.00517 | 184° | 5km/h | 27057m | 3.8m/s | -46.4°C | 0% | 19.3hPa | 2.5V | 03:22:03 | 01:53:33 | 00:00:00 | |
| DB0UT-7 | 2026-09-05 06:26:07 | 49.34846 | 9.00517 | 184° | 18km/h | 27058m | 3.7m/s | -46.4°C | 2.5% | 19.3hPa | 2.7V | 00:00:00 | 00:00:00 | 00:00:00 | |
| DB0NH | 2026-09-05 06:26:06 | 49.34847 | 9.00516 | 96° | 18km/h | 27053m | 4.5m/s | -46.4°C | 2.5% | 19.3hPa | 2.7V | 00:00:00 | 01:53:32 | 00:00:00 | |
| DJ2DS-15 | 2026-09-05 06:26:05 | 49.34846 | 9.00512 | 60° | 22km/h | 27048m | 5.8m/s | -46.4°C | 2.5% | 19.3hPa | 2.7V | 00:00:00 | 01:53:31 | 00:00:00 | |
| DL3AQ-11 | 2026-09-05 06:26:04 | 49.34839 | 9.00499 | 46° | 31km/h | 27035m | 6.1m/s | -46.5°C | 0.3% | 19.4hPa | 2.7V | 00:00:00 | 00:00:00 | 00:00:00 | |
| DM0DOS-11 | 2026-09-05 06:26:03 | 49.34814 | 9.00453 | 78° | 15km/h | 27010m | 5.8m/s | -46.3°C | 2.4% | 19.5hPa | 2.7V | 03:21:42 | 01:53:24 | 00:00:00 | |
| BIOWL1-15 | 2026-09-05 06:26:02 | 49.34820 | 9.00468 | 52° | 31km/h | 27021m | 4.7m/s | -46.3°C | 0% | 19.4hPa | 2.5V | 03:22:03 | 01:53:26 | 00:00:00 | |
| DL1XH-west | 2026-09-05 06:26:02 | 49.34832 | 9.00489 | 46° | 38km/h | 27030m | 4.9m/s | -46.5°C | 0% | 19.4hPa | 2.5V | 03:22:03 | 01:53:28 | 00:00:00 | |
| DL1XH-15 | 2026-09-05 06:26:01 | 49.34816 | 9.00446 | 161° | 9km/h | 26999m | 4.9m/s | -46.2°C | 2.4% | 19.5hPa | 2.5V | 03:21:44 | 01:53:22 | 00:00:00 | |
| DL1ZP-14 | 2026-09-05 06:25:59 | 49.34816 | 9.00460 | 61° | 22km/h | 27016m | 5.4m/s | -46.3°C | 0.3% | 19.5hPa | 2.7V | 00:00:00 | 00:00:00 | 00:00:00 | |
| DL1XH1-15 | 2026-09-05 06:25:58 | 49.34819 | 9.00447 | 9° | 4km/h | 26983m | 5.1m/s | -46.6°C | 2.5% | 19.6hPa | 2.7V | 03:21:47 | 01:53:19 | 00:00:00 | |
| HSKMA3-T | 2026-09-05 06:25:56 | 49.34816 | 9.00446 | 162° | 9km/h | 26999m | 4.9m/s | -46.3°C | 0% | 19.5hPa | 2.5V | 03:22:03 | 01:53:22 | 00:00:00 | |
| DG9SBQ-11 | 2026-09-05 06:25:55 | 49.34816 | 9.00446 | 163° | 9km/h | 26999m | 4.9m/s | -46.3°C | 0.3% | 19.5hPa | 2.7V | 03:22:00 | 00:00:00 | 00:00:00 | |
| DM0DOS-11 | 2026-09-05 06:25:53 | 49.34803 | 9.00416 | 67° | 33km/h | 26955m | 5.4m/s | -46.9°C | 2.6% | 19.6hPa | 2.7V | 03:21:52 | 01:53:14 | 00:00:00 | |
| DL1XH-west | 2026-09-05 06:25:52 | 49.34818 | 9.00445 | 28° | 11km/h | 26978m | 5m/s | -46.7°C | 0% | 19.6hPa | 2.7V | 03:22:03 | 01:53:18 | 00:00:00 | |
| BIOWL1-15 | 2026-09-05 06:25:49 | 49.34806 | 9.00427 | 58° | 31km/h | 26961m | 6.5m/s | -46.9°C | 0% | 19.6hPa | 2.7V | 03:22:03 | 01:53:15 | 00:00:00 | |
| DF8AY | 2026-09-05 06:25:46 | 49.34798 | 9.00393 | 72° | 27km/h | 26947m | 3.4m/s | -46.9°C | 0% | 19.7hPa | 2.5V | 03:22:03 | 01:53:12 | 00:00:00 | |
| HSKMA3-T | 2026-09-05 06:25:45 | 49.34796 | 9.00384 | 69° | 20km/h | 26943m | 4.4m/s | -46.8°C | 0% | 19.7hPa | 2.5V | 03:22:03 | 01:53:11 | 00:00:00 | |
| DJ2DS-15 | 2026-09-05 06:25:45 | 49.34795 | 9.00384 | 69° | 15km/h | 26943m | 4.3m/s | -46.8°C | 2.5% | 19.6hPa | 2.7V | 00:00:00 | 01:53:11 | 00:00:00 | |
| DO8TBO-1 | 2026-09-05 06:25:44 | 49.34794 | 9.00379 | 56° | 15km/h | 26938m | 5.8m/s | -46.8°C | 2.5% | 19.7hPa | 2.7V | 00:00:00 | 01:53:10 | 00:00:00 | |
| DO3MHA-11 | 2026-09-05 06:25:43 | 49.34792 | 9.00377 | 350° | 13km/h | 26932m | 5.6m/s | -46.9°C | 2.4% | 19.7hPa | 2.7V | 03:21:00 | 01:53:09 | 00:00:00 | |
| DM0DOS-11 | 2026-09-05 06:25:42 | 49.34802 | 9.00400 | 177° | 11km/h | 26901m | 3.9m/s | -47.3°C | 2.6% | 19.8hPa | 2.7V | 03:22:03 | 01:53:03 | 00:00:00 | |
| DL1XH-west | 2026-09-05 06:25:42 | 49.34791 | 9.00379 | 280° | 11km/h | 26927m | 5.2m/s | -47.1°C | 0% | 19.7hPa | 2.7V | 03:22:03 | 01:53:08 | 00:00:00 | |
| BIOWL1-15 | 2026-09-05 06:25:41 | 49.34796 | 9.00396 | 226° | 18km/h | 26910m | 5.3m/s | -47.2°C | 0% | 19.8hPa | 2.5V | 03:22:03 | 01:53:05 | 00:00:00 | |
| DK7TD | 2026-09-05 06:25:36 | 49.34804 | 9.00399 | 126° | 7km/h | 26897m | 5m/s | -47.4°C | 0% | 19.8hPa | 2.7V | 03:22:54 | 01:53:02 | 00:00:00 | |
| HSKMA3-T | 2026-09-05 06:25:35 | 49.34804 | 9.00396 | 79° | 11km/h | 26891m | 6.5m/s | -47.5°C | 0% | 19.8hPa | 2.5V | 03:22:54 | 01:53:01 | 00:00:00 | |
| DO3MHA-11 | 2026-09-05 06:25:33 | 49.34800 | 9.00385 | 54° | 16km/h | 26880m | 4.9m/s | -47.7°C | 2.7% | 19.8hPa | 2.5V | 00:00:00 | 01:52:59 | 00:00:00 | |
| DM0DOS-11 | 2026-09-05 06:25:32 | 49.34800 | 9.00359 | 195° | 13km/h | 26849m | 6.5m/s | -47.8°C | 2.6% | 20hPa | 2.7V | 03:22:13 | 01:52:53 | 00:00:00 | |
| DL1XH-west | 2026-09-05 06:25:31 | 49.34795 | 9.00372 | 70° | 18km/h | 26870m | 5.4m/s | -47.7°C | 0% | 19.9hPa | 2.7V | 03:22:54 | 01:52:57 | 00:00:00 | |
| DL1XH-15 | 2026-09-05 06:25:29 | 49.34812 | 9.00370 | 210° | 22km/h | 26834m | 4.3m/s | -47.9°C | 2.6% | 20hPa | 2.5V | 03:22:16 | 01:52:50 | 00:00:00 | |
| DL1XH1-15 | 2026-09-05 06:25:28 | 49.34817 | 9.00374 | 200° | 22km/h | 26829m | 5.2m/s | -48.1°C | 2.7% | 20hPa | 2.7V | 03:22:17 | 01:52:49 | 00:00:00 | |
| BIOWL1-15 | 2026-09-05 06:25:28 | 49.34797 | 9.00359 | 167° | 11km/h | 26855m | 5.1m/s | -47.9°C | 0% | 20hPa | 2.7V | 03:22:54 | 01:52:54 | 00:00:00 | |
| DK7TD | 2026-09-05 06:25:25 | 49.34807 | 9.00366 | 215° | 20km/h | 26838m | 4.5m/s | -47.8°C | 0% | 20hPa | 2.5V | 03:22:54 | 01:52:51 | 00:00:00 | |
| HSKMA3-T | 2026-09-05 06:25:24 | 49.34812 | 9.00370 | 210° | 22km/h | 26834m | 4.3m/s | -47.9°C | 0% | 20hPa | 2.5V | 03:22:54 | 01:52:50 | 00:00:00 | |
| DL3AQ-11 | 2026-09-05 06:25:24 | 49.34817 | 9.00374 | 200° | 22km/h | 26829m | 5.2m/s | -48.1°C | 0.3% | 20.0hPa | 2.7V | 00:00:00 | 00:00:00 | 00:00:00 | |
| DO3MHA-11 | 2026-09-05 06:25:23 | 49.34817 | 9.00373 | 201° | 16km/h | 26829m | 5.1m/s | -48.0°C | 2.7% | 20.0hPa | 2.7V | 00:00:00 | 01:52:49 | 00:00:00 | |
| DM0DOS-11 | 2026-09-05 06:25:22 | 49.34829 | 9.00358 | 37° | 18km/h | 26798m | 6m/s | -48.2°C | 2.7% | 20.1hPa | 2.7V | 03:22:23 | 01:52:43 | 00:00:00 | |
| DL1XH-west | 2026-09-05 06:25:21 | 49.34827 | 9.00375 | 164° | 18km/h | 26819m | 4.6m/s | -48.1°C | 0% | 20.1hPa | 2.7V | 03:22:54 | 01:52:47 | 00:00:00 | |
| BIOWL1-15 | 2026-09-05 06:25:20 | 49.34832 | 9.00362 | 65° | 15km/h | 26804m | 6.1m/s | -48.2°C | 0% | 20.1hPa | 2.5V | 03:22:54 | 01:52:44 | 00:00:00 | |
| DL1XH-15 | 2026-09-05 06:25:19 | 49.34817 | 9.00352 | 3° | 13km/h | 26784m | 4.3m/s | -48.4°C | 2.8% | 20.2hPa | 2.5V | 03:22:26 | 01:52:40 | 00:00:00 | |
| DL1XH1-15 | 2026-09-05 06:25:18 | 49.34814 | 9.00352 | 12° | 5km/h | 26779m | 5.9m/s | -48.3°C | 2.7% | 20.2hPa | 2.5V | 03:22:27 | 01:52:39 | 00:00:00 | |
| DF8AY | 2026-09-05 06:25:14 | 49.34817 | 9.00352 | 4° | 13km/h | 26784m | 4.3m/s | -48.4°C | 0% | 20.2hPa | 2.5V | 03:22:54 | 01:52:40 | 00:00:00 | |
| HSKMA3-T | 2026-09-05 06:25:13 | 49.34815 | 9.00352 | 12° | 5km/h | 26779m | 5.9m/s | -48.3°C | 0% | 20.2hPa | 2.5V | 03:22:54 | 01:52:39 | 00:00:00 | |
| DL1XH-west | 2026-09-05 06:25:11 | 49.34816 | 9.00350 | 160° | 11km/h | 26767m | 5.6m/s | -48.3°C | 0% | 20.2hPa | 2.7V | 03:22:54 | 01:52:37 | 00:00:00 | |
| SFWM-10 | 2026-09-05 06:25:10 | 49.34816 | 9.00349 | 161° | 11km/h | 26768m | 5.6m/s | -48.3°C | 0.3% | 20.2hPa | 2.5V | 03:22:00 | 00:00:00 | 00:00:00 | |
| HEMX73-11 | 2026-09-05 06:25:09 | 49.34819 | 9.00348 | 162° | 15km/h | 26762m | 5.2m/s | -48.5°C | 0.3% | 20.3hPa | 2.5V | 03:22:00 | 00:00:00 | 00:00:00 | |
| DL1XH1-15 | 2026-09-05 06:25:08 | 49.34822 | 9.00336 | 37° | 11km/h | 26724m | 5.5m/s | -48.8°C | 2.8% | 20.4hPa | 2.5V | 03:22:37 | 01:52:29 | 00:00:00 | |
| BIOWL1-15 | 2026-09-05 06:25:08 | 49.34827 | 9.00343 | 132° | 5km/h | 26745m | 5.6m/s | -48.5°C | 0% | 20.3hPa | 2.7V | 03:22:54 | 01:52:33 | 00:00:00 | |
| DK7TD | 2026-09-05 06:25:04 | 49.34824 | 9.00338 | 26° | 11km/h | 26729m | 5m/s | -48.7°C | 0% | 20.4hPa | 2.5V | 03:22:54 | 01:52:30 | 00:00:00 | |
| HSKMA3-T | 2026-09-05 06:25:03 | 49.34822 | 9.00336 | 37° | 11km/h | 26724m | 5.5m/s | -48.8°C | 0% | 20.4hPa | 2.5V | 03:22:54 | 01:52:29 | 00:00:00 | |
| DO3MHA-11 | 2026-09-05 06:25:03 | 49.34822 | 9.00336 | 38° | 9km/h | 26724m | 5.5m/s | -48.7°C | 2.8% | 20.3hPa | 2.5V | 03:22:00 | 01:52:29 | 00:00:00 | |
| DL0LBS | 2026-09-05 06:25:02 | 49.34822 | 9.00336 | 38° | 11km/h | 26724m | 5.5m/s | -48.8°C | 0.4% | 20.4hPa | 2.7V | 03:22:00 | 00:00:00 | 00:00:00 | |
| HARRO8 | 2026-09-05 06:25:00 | 49.34819 | 9.00327 | 104° | 5km/h | 26708m | 4.6m/s | -48.8°C | 0.4% | 20.4hPa | 2.7V | 00:00:00 | 00:00:00 | 00:00:00 | |
| DL1XH-west | 2026-09-05 06:25:00 | 49.34819 | 9.00327 | 105° | 5km/h | 26708m | 4.6m/s | -48.8°C | 0% | 20.4hPa | 2.7V | 03:22:54 | 01:52:26 | 00:00:00 | |
| DL1XH-15 | 2026-09-05 06:24:59 | 49.34829 | 9.00334 | 203° | 15km/h | 26675m | 6.1m/s | -48.9°C | 2.9% | 20.5hPa | 2.7V | 03:22:46 | 01:52:20 | 00:00:00 | |
| BIOWL1-15 | 2026-09-05 06:24:56 | 49.34824 | 9.00329 | 220° | 11km/h | 26687m | 4.6m/s | -48.8°C | 0% | 20.5hPa | 2.7V | 03:22:54 | 01:52:22 | 00:00:00 | |
| HSKMA3-T | 2026-09-05 06:24:53 | 49.34833 | 9.00337 | 203° | 15km/h | 26670m | 4.9m/s | -48.9°C | 0% | 20.5hPa | 2.5V | 03:22:54 | 01:52:19 | 00:00:00 | |
| DF8AY | 2026-09-05 06:24:52 | 49.34835 | 9.00339 | 212° | 9km/h | 26665m | 4.7m/s | -49°C | 0% | 20.6hPa | 2.5V | 03:22:54 | 01:52:18 | 00:00:00 | |
| DJ2DS-15 | 2026-09-05 06:24:52 | 49.34837 | 9.00341 | 241° | 5km/h | 26660m | 6.2m/s | -49.0°C | 0.4% | 20.6hPa | 2.5V | 00:00:00 | 00:00:00 | 00:00:00 | |
| DL4BBY-15 | 2026-09-05 06:24:51 | 49.34836 | 9.00341 | 242° | 9km/h | 26660m | 6.2m/s | -49.8°C | 0% | 0hPa | 2.5V | 00:00:00 | 00:00:00 | 00:00:00 | |
| SFWM-10 | 2026-09-05 06:24:50 | 49.34836 | 9.00340 | 243° | 5km/h | 26660m | 6.2m/s | -49.0°C | 0.4% | 20.6hPa | 2.5V | 03:22:00 | 00:00:00 | 00:00:00 | |
| DL1XH-15 | 2026-09-05 06:24:49 | 49.34832 | 9.00337 | 138° | 9km/h | 26623m | 5.1m/s | -49.1°C | 2.9% | 20.7hPa | 2.5V | 03:22:56 | 01:52:10 | 00:00:00 | |
| DL1XH-west | 2026-09-05 06:24:49 | 49.34835 | 9.00344 | 341° | 7km/h | 26649m | 4.3m/s | -49°C | 0% | 20.6hPa | 2.7V | 03:22:54 | 01:52:15 | 00:00:00 | |
| BIOWL1-15 | 2026-09-05 06:24:45 | 49.34830 | 9.00340 | 116° | 7km/h | 26628m | 5.3m/s | -49.1°C | 0% | 20.7hPa | 2.7V | 03:23:45 | 01:52:11 | 00:00:00 | |
| HSKMA3-T | 2026-09-05 06:24:42 | 49.34835 | 9.00335 | 182° | 7km/h | 26612m | 5.6m/s | -49.1°C | 0% | 20.7hPa | 2.5V | 03:23:45 | 01:52:08 | 00:00:00 | |
| KANTATE | 2026-09-05 06:24:41 | 49.34835 | 9.00335 | 183° | 7km/h | 26612m | 5.6m/s | -49.1°C | 0.4% | 20.7hPa | 2.7V | 03:23:00 | 00:00:00 | 00:00:00 | |
| DH7VM-15 | 2026-09-05 06:24:40 | 49.34836 | 9.00336 | 217° | 5km/h | 26607m | 5.3m/s | -49.1°C | 0.4% | 20.8hPa | 2.7V | 00:00:00 | 00:00:00 | 00:00:00 | |
| DL1XH-15 | 2026-09-05 06:24:39 | 49.34848 | 9.00342 | 158° | 5km/h | 26570m | 5.8m/s | -49.3°C | 2.9% | 20.9hPa | 2.7V | 03:23:06 | 01:52:00 | 00:00:00 | |
| DL1XH1-15 | 2026-09-05 06:24:38 | 49.34848 | 9.00341 | 129° | 2km/h | 26564m | 5.8m/s | -49.2°C | 2.9% | 20.9hPa | 2.7V | 03:23:07 | 01:51:59 | 00:00:00 | |
| DL1XH-west | 2026-09-05 06:24:38 | 49.34840 | 9.00341 | 213° | 7km/h | 26592m | 5.7m/s | -49.2°C | 0% | 20.8hPa | 2.5V | 03:23:45 | 01:52:04 | 00:00:00 | |
| HSKMA3-T | 2026-09-05 06:24:32 | 49.34849 | 9.00341 | 99° | 2km/h | 26559m | 4.6m/s | -49.3°C | 0% | 20.9hPa | 2.5V | 03:23:45 | 01:51:58 | 00:00:00 | |
| DF8AY | 2026-09-05 06:24:31 | 49.34849 | 9.00340 | 122° | 4km/h | 26554m | 4.8m/s | -49.3°C | 0% | 20.9hPa | 2.5V | 03:23:45 | 01:51:57 | 00:00:00 | |
| HARRO8 | 2026-09-05 06:24:29 | 49.34852 | 9.00336 | 155° | 13km/h | 26543m | 6.0m/s | -49.3°C | 0.4% | 21.0hPa | 2.5V | 00:00:00 | 00:00:00 | 00:00:00 | |
| DL1XH1-15 | 2026-09-05 06:24:28 | 49.34880 | 9.00331 | 178° | 16km/h | 26512m | 4.3m/s | -49.5°C | 2.9% | 21hPa | 2.5V | 03:23:17 | 01:51:49 | 00:00:00 | |
| DL1XH-west | 2026-09-05 06:24:28 | 49.34856 | 9.00334 | 164° | 18km/h | 26537m | 4.9m/s | -49.3°C | 0% | 21hPa | 2.7V | 03:23:45 | 01:51:54 | 00:00:00 | |
| BIOWL1-15 | 2026-09-05 06:24:24 | 49.34876 | 9.00331 | 182° | 16km/h | 26517m | 4.8m/s | -49.4°C | 0% | 21hPa | 2.7V | 03:23:45 | 01:51:50 | 00:00:00 | |
| DO3MHA-11 | 2026-09-05 06:24:23 | 49.34880 | 9.00330 | 179° | 18km/h | 26513m | 4.3m/s | -49.4°C | 2.9% | 21.0hPa | 2.5V | 03:23:00 | 01:51:49 | 00:00:00 | |
| DM0DOS-11 | 2026-09-05 06:24:22 | 49.34911 | 9.00324 | 185° | 20km/h | 26483m | 6.1m/s | -49.5°C | 2.9% | 21.2hPa | 2.5V | 03:23:23 | 01:51:43 | 00:00:00 | |
| HSKMA3-T | 2026-09-05 06:24:22 | 49.34884 | 9.00330 | 172° | 18km/h | 26508m | 5m/s | -49.5°C | 0% | 21.1hPa | 2.5V | 03:23:45 | 01:51:48 | 00:00:00 | |
| DF8AY | 2026-09-05 06:24:21 | 49.34889 | 9.00329 | 168° | 20km/h | 26502m | 5.5m/s | -49.5°C | 0% | 21.1hPa | 2.5V | 03:23:45 | 01:51:47 | 00:00:00 | |
| DL4BBY-15 | 2026-09-05 06:24:21 | 49.34888 | 9.00329 | 168° | 13km/h | 26502m | 5.4m/s | -50.4°C | 0% | 0hPa | 2.7V | 00:00:00 | 00:00:00 | 00:00:00 | |
| DG9SBQ-11 | 2026-09-05 06:24:19 | 49.34894 | 9.00327 | 166° | 22km/h | 26497m | 5.2m/s | -49.5°C | 0.4% | 21.1hPa | 2.7V | 03:23:00 | 00:00:00 | 00:00:00 | |
| DL1XH1-15 | 2026-09-05 06:24:18 | 49.34924 | 9.00330 | 179° | 9km/h | 26462m | 6m/s | -49.6°C | 3% | 21.2hPa | 2.7V | 03:23:27 | 01:51:39 | 00:00:00 | |
| DL1XH-west | 2026-09-05 06:24:17 | 49.34911 | 9.00324 | 185° | 20km/h | 26483m | 6.1m/s | -49.5°C | 0% | 21.2hPa | 2.5V | 03:23:45 | 01:51:43 | 00:00:00 | |
| DJ2DS-15 | 2026-09-05 06:24:16 | 49.34919 | 9.00327 | 205° | 13km/h | 26472m | 4.5m/s | -49.5°C | 0.4% | 21.2hPa | 2.7V | 00:00:00 | 00:00:00 | 00:00:00 | |
| DL3AQ-11 | 2026-09-05 06:24:15 | 49.34922 | 9.00329 | 201° | 9km/h | 26467m | 4.5m/s | -49.5°C | 0.4% | 21.2hPa | 2.7V | 00:00:00 | 00:00:00 | 00:00:00 | |
| DO8TBO-1 | 2026-09-05 06:24:14 | 49.34921 | 9.00329 | 202° | 13km/h | 26468m | 4.4m/s | -49.4°C | 2.9% | 21.2hPa | 2.7V | 03:23:00 | 01:51:40 | 00:00:00 | |
| DO3MHA-11 | 2026-09-05 06:24:13 | 49.34924 | 9.00330 | 180° | 13km/h | 26462m | 5.9m/s | -49.5°C | 3.0% | 21.2hPa | 2.7V | 00:00:00 | 01:51:39 | 00:00:00 | |
| DM0DOS-11 | 2026-09-05 06:24:12 | 49.34937 | 9.00317 | 170° | 13km/h | 26430m | 4.9m/s | -49.6°C | 2.9% | 21.3hPa | 2.7V | 03:23:33 | 01:51:33 | 00:00:00 | |
| DK7TD | 2026-09-05 06:24:12 | 49.34926 | 9.00329 | 147° | 9km/h | 26456m | 5.7m/s | -49.5°C | 0% | 21.2hPa | 2.6V | 03:23:45 | 01:51:38 | 00:00:00 | |
| BIOWL1-15 | 2026-09-05 06:24:11 | 49.34928 | 9.00326 | 132° | 11km/h | 26451m | 4.7m/s | -49.5°C | 0% | 21.3hPa | 2.5V | 03:23:45 | 01:51:37 | 00:00:00 | |
| DF8AY | 2026-09-05 06:24:10 | 49.34930 | 9.00323 | 132° | 11km/h | 26446m | 4.7m/s | -49.5°C | 0% | 21.3hPa | 2.5V | 03:23:45 | 01:51:36 | 00:00:00 | |
| SFWM-10 | 2026-09-05 06:24:09 | 49.34930 | 9.00323 | 133° | 11km/h | 26447m | 4.7m/s | -49.5°C | 0.4% | 21.3hPa | 2.7V | 03:23:00 | 00:00:00 | 00:00:00 | |
| DL1XH1-15 | 2026-09-05 06:24:08 | 49.34953 | 9.00312 | 170° | 20km/h | 26409m | 3.3m/s | -49.7°C | 2.9% | 21.4hPa | 2.7V | 03:23:37 | 01:51:29 | 00:00:00 | |
| DL1XH-west | 2026-09-05 06:24:06 | 49.34940 | 9.00316 | 172° | 15km/h | 26425m | 5.2m/s | -49.6°C | 0% | 21.3hPa | 2.5V | 03:23:45 | 01:51:32 | 00:00:00 | |
| DB0UT-7 | 2026-09-05 06:24:06 | 49.34940 | 9.00316 | 173° | 11km/h | 26425m | 5.1m/s | -49.6°C | 2.9% | 21.3hPa | 2.7V | 00:00:00 | 00:00:00 | 00:00:00 | |
| DJ2DS-15 | 2026-09-05 06:24:05 | 49.34944 | 9.00315 | 170° | 13km/h | 26419m | 6.1m/s | -49.7°C | 3.0% | 21.3hPa | 2.7V | 00:00:00 | 01:51:31 | 00:00:00 | |
| DL3AQ-11 | 2026-09-05 06:24:04 | 49.34953 | 9.00312 | 170° | 18km/h | 26409m | 3.3m/s | -49.7°C | 0.4% | 21.4hPa | 2.7V | 00:00:00 | 00:00:00 | 00:00:00 | |
| DO3MHA-11 | 2026-09-05 06:24:03 | 49.34953 | 9.00312 | 171° | 9km/h | 26410m | 3.2m/s | -49.7°C | 2.9% | 21.3hPa | 2.7V | 00:00:00 | 01:51:29 | 00:00:00 | |
| DM0DOS-11 | 2026-09-05 06:24:02 | 49.34967 | 9.00315 | 69° | 4km/h | 26380m | 6.1m/s | -49.9°C | 3% | 21.5hPa | 2.7V | 03:23:43 | 01:51:23 | 00:00:00 | |
| HSKMA3-T | 2026-09-05 06:24:01 | 49.34962 | 9.00312 | 186° | 15km/h | 26401m | 5.7m/s | -49.7°C | 0% | 21.4hPa | 2.5V | 03:23:45 | 01:51:27 | 00:00:00 | |
| DF8AY | 2026-09-05 06:24:00 | 49.34965 | 9.00313 | 204° | 9km/h | 26395m | 5.4m/s | -49.9°C | 0% | 21.4hPa | 2.5V | 03:23:45 | 01:51:26 | 00:00:00 | |
| DL1XH1-15 | 2026-09-05 06:23:58 | 49.34964 | 9.00304 | 61° | 9km/h | 26358m | 5.3m/s | -49.9°C | 3% | 21.5hPa | 2.7V | 03:23:47 | 01:51:19 | 00:00:00 | |
| DL1ZP-14 | 2026-09-05 06:23:55 | 49.34966 | 9.00310 | 68° | 9km/h | 26369m | 4.7m/s | -50.0°C | 0.4% | 21.5hPa | 2.5V | 00:00:00 | 00:00:00 | 00:00:00 | |
| DL1XH-west | 2026-09-05 06:23:55 | 49.34966 | 9.00310 | 69° | 9km/h | 26369m | 4.7m/s | -50°C | 0% | 21.5hPa | 2.5V | 03:23:45 | 01:51:21 | 00:00:00 | |
| DM0DOS-11 | 2026-09-05 06:23:52 | 49.34975 | 9.00283 | 155° | 18km/h | 26329m | 4m/s | -50.1°C | 3.1% | 21.6hPa | 2.7V | 03:23:53 | 01:51:13 | 00:00:00 | |
| BIOWL1-15 | 2026-09-05 06:23:51 | 49.34963 | 9.00298 | 113° | 9km/h | 26349m | 3.9m/s | -49.9°C | 0% | 21.6hPa | 2.7V | 03:24:36 | 01:51:17 | 00:00:00 | |
| HSKMA3-T | 2026-09-05 06:23:50 | 49.34965 | 9.00294 | 130° | 13km/h | 26344m | 5.8m/s | -50°C | 0% | 21.6hPa | 2.5V | 03:24:36 | 01:51:16 | 00:00:00 | |
| DL1XH-west | 2026-09-05 06:23:45 | 49.34982 | 9.00280 | 179° | 11km/h | 26318m | 5.8m/s | -50.1°C | 0% | 21.7hPa | 2.5V | 03:24:36 | 01:51:11 | 00:00:00 | |
| DO8TBO-1 | 2026-09-05 06:23:44 | 49.34984 | 9.00280 | 190° | 9km/h | 26313m | 4.5m/s | -50.0°C | 3.0% | 21.7hPa | 2.5V | 00:00:00 | 01:51:10 | 00:00:00 | |
| DO3MHA-11 | 2026-09-05 06:23:43 | 49.34986 | 9.00280 | 181° | 9km/h | 26309m | 4.8m/s | -50.0°C | 3.0% | 21.7hPa | 2.5V | 03:23:00 | 01:51:09 | 00:00:00 | |
| DM0DOS-11 | 2026-09-05 06:23:42 | 49.34981 | 9.00267 | 52° | 11km/h | 26277m | 3.8m/s | -50°C | 3.1% | 21.8hPa | 2.5V | 03:24:03 | 01:51:03 | 00:00:00 | |
| DK7TD | 2026-09-05 06:23:41 | 49.34987 | 9.00278 | 87° | 5km/h | 26297m | 5.2m/s | -50°C | 0% | 21.8hPa | 2.7V | 03:24:36 | 01:51:07 | 00:00:00 | |
| BIOWL1-15 | 2026-09-05 06:23:40 | 49.34986 | 9.00276 | 65° | 7km/h | 26292m | 5m/s | -50°C | 0% | 21.8hPa | 2.7V | 03:24:36 | 01:51:06 | 00:00:00 | |
| HSKMA3-T | 2026-09-05 06:23:39 | 49.34985 | 9.00273 | 51° | 9km/h | 26287m | 5.8m/s | -50°C | 0% | 21.8hPa | 2.5V | 03:24:36 | 01:51:05 | 00:00:00 | |
| DL1XH-west | 2026-09-05 06:23:34 | 49.34980 | 9.00253 | 108° | 16km/h | 26262m | 5.6m/s | -49.9°C | 0% | 21.9hPa | 2.6V | 03:24:36 | 01:51:00 | 00:00:00 | |
| DO3MHA-11 | 2026-09-05 06:23:33 | 49.34982 | 9.00247 | 126° | 11km/h | 26257m | 4.3m/s | -49.8°C | 3.1% | 21.9hPa | 2.5V | 00:00:00 | 01:50:59 | 00:00:00 | |
| DM0DOS-11 | 2026-09-05 06:23:32 | 49.34994 | 9.00244 | 267° | 2km/h | 26228m | 5.6m/s | -49.8°C | 3% | 22hPa | 2.5V | 03:24:13 | 01:50:53 | 00:00:00 | |
| BIOWL1-15 | 2026-09-05 06:23:30 | 49.34991 | 9.00240 | 189° | 11km/h | 26242m | 5.8m/s | -49.8°C | 0% | 22hPa | 2.7V | 03:24:36 | 01:50:56 | 00:00:00 | |
| DF8AY | 2026-09-05 06:23:28 | 49.34994 | 9.00243 | 243° | 5km/h | 26233m | 4.1m/s | -49.8°C | 0% | 22hPa | 2.5V | 03:24:36 | 01:50:54 | 00:00:00 | |
| OE5DXL-15 | 2026-09-05 06:23:28 | 49.34994 | 9.00243 | 244° | 9km/h | 26233m | 4.1m/s | -49.8°C | 3.0% | 21.9hPa | 2.7V | 00:00:00 | 00:00:00 | 00:00:00 | |
| HARRO8 | 2026-09-05 06:23:27 | 49.34994 | 9.00244 | 267° | 0km/h | 26228m | 5.6m/s | -49.8°C | 0.4% | 22.0hPa | 2.7V | 00:00:00 | 00:00:00 | 00:00:00 | |
| IW2NTF | 2026-09-05 06:23:26 | 49.34989 | 9.00214 | 89° | 7km/h | 26191m | 5.2m/s | -49.7°C | 2.9% | 22.1hPa | 2.7V | 03:24:20 | 01:50:46 | 00:00:00 | |
| DL1XH-west | 2026-09-05 06:23:23 | 49.34991 | 9.00230 | 75° | 18km/h | 26206m | 4.7m/s | -49.8°C | 0% | 22.1hPa | 2.5V | 03:24:36 | 01:50:49 | 00:00:00 | |
| DO3MHA-11 | 2026-09-05 06:23:23 | 49.34991 | 9.00230 | 75° | 11km/h | 26206m | 4.7m/s | -49.7°C | 2.9% | 22.0hPa | 2.5V | 00:00:00 | 01:50:49 | 00:00:00 | |
| DM0DOS-11 | 2026-09-05 06:23:22 | 49.34993 | 9.00210 | 162° | 9km/h | 26177m | 5.3m/s | -49.6°C | 3% | 22.2hPa | 2.5V | 03:24:23 | 01:50:43 | 00:00:00 | |
| BIOWL1-15 | 2026-09-05 06:23:19 | 49.34989 | 9.00212 | 138° | 4km/h | 26186m | 4.4m/s | -49.7°C | 0% | 22.1hPa | 2.7V | 03:24:36 | 01:50:45 | 00:00:00 | |
| DF8AY | 2026-09-05 06:23:18 | 49.34991 | 9.00211 | 168° | 7km/h | 26182m | 4.1m/s | -49.7°C | 0% | 22.2hPa | 2.5V | 03:24:36 | 01:50:44 | 00:00:00 | |
| HSKMA3-T | 2026-09-05 06:23:17 | 49.34992 | 9.00210 | 162° | 9km/h | 26177m | 5.3m/s | -49.7°C | 0% | 22.2hPa | 2.5V | 03:24:36 | 01:50:43 | 00:00:00 | |
| DO3DL | 2026-09-05 06:23:16 | 49.34992 | 9.00210 | 163° | 9km/h | 26177m | 5.3m/s | -49.7°C | 0.4% | 22.2hPa | 2.5V | 03:24:00 | 00:00:00 | 00:00:00 | |
| IW2NTF | 2026-09-05 06:23:15 | 49.35000 | 9.00197 | 68° | 5km/h | 26141m | 4.1m/s | -49.7°C | 3% | 22.3hPa | 2.5V | 03:24:30 | 01:50:36 | 00:00:00 | |
| DL1XH-west | 2026-09-05 06:23:13 | 49.35000 | 9.00202 | 123° | 7km/h | 26157m | 5.5m/s | -49.7°C | 0% | 22.3hPa | 2.6V | 03:24:36 | 01:50:39 | 00:00:00 | |
| BIOWL1-15 | 2026-09-05 06:23:09 | 49.35000 | 9.00195 | 81° | 7km/h | 26137m | 5.5m/s | -49.7°C | 0% | 22.3hPa | 2.7V | 03:24:36 | 01:50:35 | 00:00:00 | |
| DK7TD | 2026-09-05 06:23:08 | 49.35000 | 9.00191 | 96° | 11km/h | 26131m | 5.5m/s | -49.6°C | 0% | 22.3hPa | 2.7V | 03:24:36 | 01:50:34 | 00:00:00 | |
| HSKMA3-T | 2026-09-05 06:23:07 | 49.35000 | 9.00187 | 108° | 13km/h | 26126m | 4.2m/s | -49.6°C | 0% | 22.4hPa | 2.5V | 03:24:36 | 01:50:33 | 00:00:00 | |
| DB0UT-7 | 2026-09-05 06:23:06 | 49.35002 | 9.00182 | 123° | 9km/h | 26123m | 3.6m/s | -49.5°C | 2.8% | 22.3hPa | 2.5V | 00:00:00 | 00:00:00 | 00:00:00 | |
| DJ2DS-15 | 2026-09-05 06:23:05 | 49.35004 | 9.00178 | 140° | 11km/h | 26118m | 4.9m/s | -49.6°C | 2.9% | 22.3hPa | 2.5V | 00:00:00 | 01:50:31 | 00:00:00 | |
| IW2NTF | 2026-09-05 06:23:04 | 49.35019 | 9.00178 | 123° | 5km/h | 26087m | 5.2m/s | -49.6°C | 2.9% | 22.5hPa | 2.5V | 03:24:41 | 01:50:25 | 00:00:00 | |
| DL1XH-west | 2026-09-05 06:23:03 | 49.35010 | 9.00176 | 188° | 13km/h | 26107m | 5.4m/s | -49.8°C | 0% | 22.4hPa | 2.7V | 03:25:27 | 01:50:29 | 00:00:00 | |
| DO3MHA-11 | 2026-09-05 06:23:03 | 49.35010 | 9.00176 | 189° | 13km/h | 26107m | 5.3m/s | -49.8°C | 2.9% | 22.4hPa | 2.7V | 03:24:00 | 01:50:29 | 00:00:00 | |
| DB0ND-19 | 2026-09-05 06:23:01 | 49.35016 | 9.00179 | 196° | 11km/h | 26098m | 4.1m/s | -49.7°C | 0.4% | 22.5hPa | 2.5V | 00:00:00 | 00:00:00 | 00:00:00 | |
| DL0LBS | 2026-09-05 06:22:59 | 49.35018 | 9.00179 | 180° | 7km/h | 26093m | 5.6m/s | -49.6°C | 0.5% | 22.5hPa | 2.5V | 03:25:00 | 00:00:00 | 00:00:00 | |
| DL1XH1-15 | 2026-09-05 06:22:58 | 49.35003 | 9.00163 | 11° | 15km/h | 26056m | 3.9m/s | -50°C | 3% | 22.6hPa | 2.5V | 03:24:47 | 01:50:19 | 00:00:00 | |
| BIOWL1-15 | 2026-09-05 06:22:58 | 49.35019 | 9.00176 | 75° | 9km/h | 26082m | 4.9m/s | -49.7°C | 0% | 22.5hPa | 2.7V | 03:25:27 | 01:50:24 | 00:00:00 | |
| HSKMA3-T | 2026-09-05 06:22:57 | 49.35018 | 9.00172 | 49° | 13km/h | 26077m | 5.3m/s | -49.8°C | 0% | 22.5hPa | 2.7V | 03:25:27 | 01:50:23 | 00:00:00 | |
| HARRO8 | 2026-09-05 06:22:56 | 49.35015 | 9.00169 | 32° | 15km/h | 26072m | 6.2m/s | -49.9°C | 0.4% | 22.5hPa | 2.5V | 00:00:00 | 00:00:00 | 00:00:00 | |
| IW2NTF | 2026-09-05 06:22:55 | 49.34999 | 9.00155 | 130° | 7km/h | 26035m | 4.3m/s | -50.4°C | 3.1% | 22.7hPa | 2.5V | 03:24:51 | 01:50:15 | 00:00:00 | |
| DL3AQ-11 | 2026-09-05 06:22:55 | 49.35007 | 9.00164 | 11° | 16km/h | 26060m | 4.5m/s | -50.0°C | 0.4% | 22.6hPa | 2.7V | 00:00:00 | 00:00:00 | 00:00:00 | |
| BIOWL7-15 | 2026-09-05 06:22:54 | 49.35012 | 9.00166 | 20° | 18km/h | 26066m | 6.1m/s | -49.9°C | 0.4% | 22.6hPa | 2.7V | 00:00:00 | 00:00:00 | 00:00:00 | |
| DO3MHA-11 | 2026-09-05 06:22:53 | 49.35003 | 9.00163 | 12° | 7km/h | 26056m | 3.9m/s | -50.0°C | 3.0% | 22.5hPa | 2.7V | 00:00:00 | 01:50:19 | 00:00:00 | |
| DM0DOS-11 | 2026-09-05 06:22:52 | 49.35001 | 9.00152 | 172° | 4km/h | 26025m | 5.6m/s | -50.3°C | 3.1% | 22.7hPa | 2.7V | 03:24:53 | 01:50:13 | 00:00:00 | |
| DL1XH-west | 2026-09-05 06:22:52 | 49.35000 | 9.00161 | 21° | 11km/h | 26051m | 5.3m/s | -50.1°C | 0% | 22.6hPa | 2.7V | 03:25:27 | 01:50:18 | 00:00:00 | |
| DL6DJ-15 | 2026-09-05 06:22:50 | 49.34999 | 9.00155 | 130° | 7km/h | 26035m | 4.4m/s | -50.4°C | 0.4% | 22.7hPa | 2.7V | 00:00:00 | 00:00:00 | 00:00:00 | |
| DL1XH1-15 | 2026-09-05 06:22:48 | 49.35000 | 9.00153 | 26° | 5km/h | 26005m | 6m/s | -50.4°C | 3.1% | 22.8hPa | 2.7V | 03:24:57 | 01:50:09 | 00:00:00 | |
| BIOWL1-15 | 2026-09-05 06:22:48 | 49.35000 | 9.00153 | 144° | 5km/h | 26031m | 5.4m/s | -50.4°C | 0% | 22.7hPa | 2.7V | 03:25:27 | 01:50:14 | 00:00:00 | |
| DF8AY | 2026-09-05 06:22:46 | 49.35002 | 9.00152 | 262° | 2km/h | 26020m | 5m/s | -50.2°C | 0% | 22.7hPa | 2.5V | 03:25:27 | 01:50:12 | 00:00:00 | |
| DJ2DS-15 | 2026-09-05 06:22:45 | 49.35001 | 9.00153 | 311° | 7km/h | 26015m | 4.5m/s | -50.2°C | 3.1% | 22.7hPa | 2.7V | 00:00:00 | 01:50:11 | 00:00:00 | |
| DO8TBO-1 | 2026-09-05 06:22:44 | 49.35001 | 9.00154 | 349° | 9km/h | 26010m | 4.8m/s | -50.3°C | 3.1% | 22.7hPa | 2.7V | 00:00:00 | 01:50:10 | 00:00:00 | |
| DO3MHA-11 | 2026-09-05 06:22:43 | 49.35000 | 9.00153 | 27° | 7km/h | 26005m | 5.9m/s | -50.3°C | 3.1% | 22.7hPa | 2.7V | 00:00:00 | 01:50:09 | 00:00:00 | |
| DM0DOS-11 | 2026-09-05 06:22:42 | 49.34988 | 9.00148 | 340° | 7km/h | 25974m | 4.2m/s | -50.5°C | 3.1% | 22.9hPa | 2.7V | 03:25:03 | 01:50:03 | 00:00:00 | |
| DL1XH-west | 2026-09-05 06:22:42 | 49.34999 | 9.00152 | 44° | 7km/h | 25999m | 4.9m/s | -50.3°C | 0% | 22.8hPa | 2.7V | 03:25:27 | 01:50:08 | 00:00:00 | |
| BIOWL1-15 | 2026-09-05 06:22:39 | 49.34988 | 9.00148 | 341° | 7km/h | 25974m | 4.2m/s | -50.5°C | 0% | 22.9hPa | 2.7V | 03:25:27 | 01:50:03 | 00:00:00 | |
| DL1XH1-15 | 2026-09-05 06:22:38 | 49.34991 | 9.00147 | 172° | 13km/h | 25953m | 5.4m/s | -50.7°C | 3% | 23hPa | 2.7V | 03:25:07 | 01:49:59 | 00:00:00 | |
| HSKMA3-T | 2026-09-05 06:22:36 | 49.34987 | 9.00148 | 322° | 2km/h | 25970m | 4.5m/s | -50.6°C | 0% | 22.9hPa | 2.7V | 03:25:27 | 01:50:02 | 00:00:00 | |
| DK7TD | 2026-09-05 06:22:35 | 49.34987 | 9.00149 | 173° | 4km/h | 25965m | 6.2m/s | -50.6°C | 0% | 22.9hPa | 2.5V | 03:25:27 | 01:50:01 | 00:00:00 | |
| AU51GT2 | 2026-09-05 06:22:33 | 49.34995 | 9.00147 | 183° | 13km/h | 25948m | 5.4m/s | -50.7°C | 0.4% | 23.0hPa | 2.7V | 00:00:00 | 00:00:00 | 00:00:00 | |
| DM0DOS-11 | 2026-09-05 06:22:32 | 49.35005 | 9.00155 | 263° | 2km/h | 25922m | 6.1m/s | -50.4°C | 3.1% | 23.1hPa | 2.7V | 03:25:13 | 01:49:53 | 00:00:00 | |
| DL1XH-west | 2026-09-05 06:22:31 | 49.34998 | 9.00148 | 197° | 15km/h | 25942m | 6.1m/s | -50.7°C | 0% | 23hPa | 2.5V | 03:25:27 | 01:49:57 | 00:00:00 | |
| OE5DRO-10 | 2026-09-05 06:22:31 | 49.34998 | 9.00148 | 197° | 11km/h | 25942m | 6.0m/s | -50.6°C | 3.1% | 22.9hPa | 2.5V | 00:00:00 | 00:00:00 | 00:00:00 | |
| DB0ND-19 | 2026-09-05 06:22:30 | 49.35001 | 9.00150 | 211° | 11km/h | 25937m | 4.6m/s | -50.5°C | 0.4% | 23.0hPa | 2.5V | 00:00:00 | 00:00:00 | 00:00:00 | |
| DO3DL | 2026-09-05 06:22:29 | 49.35001 | 9.00150 | 213° | 13km/h | 25937m | 4.6m/s | -50.5°C | 0.4% | 23.0hPa | 2.5V | 03:25:00 | 00:00:00 | 00:00:00 | |
| DL1XH1-15 | 2026-09-05 06:22:28 | 49.34999 | 9.00156 | 341° | 9km/h | 25900m | 5.2m/s | -50.5°C | 3.2% | 23.1hPa | 2.5V | 03:25:17 | 01:49:49 | 00:00:00 | |
| BIOWL1-15 | 2026-09-05 06:22:27 | 49.35005 | 9.00155 | 264° | 2km/h | 25922m | 6.1m/s | -50.4°C | 0% | 23.1hPa | 2.7V | 03:25:27 | 01:49:53 | 00:00:00 | |
| DF8AY | 2026-09-05 06:22:26 | 49.35005 | 9.00155 | 14° | 4km/h | 25916m | 5.2m/s | -50.4°C | 0% | 23.1hPa | 2.7V | 03:25:27 | 01:49:52 | 00:00:00 | |
| HSKMA3-T | 2026-09-05 06:22:25 | 49.35003 | 9.00155 | 4° | 7km/h | 25911m | 5m/s | -50.5°C | 0% | 23.1hPa | 2.5V | 03:25:27 | 01:49:51 | 00:00:00 | |
| IW2NTF | 2026-09-05 06:22:25 | 49.34999 | 9.00155 | 149° | 13km/h | 25880m | 5.8m/s | -50.5°C | 3.1% | 23.2hPa | 2.5V | 03:25:21 | 01:49:45 | 00:00:00 | |
| DK7TD | 2026-09-05 06:22:24 | 49.35001 | 9.00155 | 352° | 9km/h | 25905m | 6m/s | -50.5°C | 0% | 23.1hPa | 2.5V | 03:25:27 | 01:49:50 | 00:00:00 | |
| DO3MHA-11 | 2026-09-05 06:22:23 | 49.34999 | 9.00156 | 342° | 13km/h | 25900m | 5.2m/s | -50.5°C | 3.2% | 23.1hPa | 2.5V | 03:25:00 | 01:49:49 | 00:00:00 | |
| DM0DOS-11 | 2026-09-05 06:22:22 | 49.35007 | 9.00149 | 162° | 20km/h | 25871m | 4m/s | -50.7°C | 3.1% | 23.3hPa | 2.5V | 03:25:23 | 01:49:43 | 00:00:00 | |
| DL1XH-west | 2026-09-05 06:22:20 | 49.34997 | 9.00157 | 144° | 5km/h | 25886m | 6.2m/s | -50.5°C | 0% | 23.2hPa | 2.6V | 03:25:27 | 01:49:46 | 00:00:00 | |
| DL4BBY-15 | 2026-09-05 06:22:20 | 49.34997 | 9.00156 | 144° | 9km/h | 25886m | 6.1m/s | -51.4°C | 0% | 0hPa | 2.5V | 00:00:00 | 00:00:00 | 00:00:00 | |
| DL6DJ-15 | 2026-09-05 06:22:19 | 49.35003 | 9.00152 | 154° | 18km/h | 25875m | 4.7m/s | -50.6°C | 0.4% | 23.2hPa | 2.5V | 00:00:00 | 00:00:00 | 00:00:00 | |
| DL1XH1-15 | 2026-09-05 06:22:18 | 49.35022 | 9.00153 | 245° | 11km/h | 25850m | 4.6m/s | -50.4°C | 3% | 23.3hPa | 2.5V | 03:25:27 | 01:49:39 | 00:00:00 | |
| BIOWL1-15 | 2026-09-05 06:22:16 | 49.35012 | 9.00147 | 174° | 20km/h | 25866m | 5.1m/s | -50.7°C | 0% | 23.3hPa | 2.7V | 03:25:27 | 01:49:42 | 00:00:00 | |
| DF8AY | 2026-09-05 06:22:15 | 49.35017 | 9.00148 | 190° | 16km/h | 25860m | 5.6m/s | -50.5°C | 0% | 23.3hPa | 2.7V | 03:25:27 | 01:49:41 | 00:00:00 | |
| DK7TD | 2026-09-05 06:22:14 | 49.35020 | 9.00150 | 217° | 13km/h | 25855m | 5.2m/s | -50.4°C | 0% | 23.3hPa | 2.5V | 03:25:27 | 01:49:40 | 00:00:00 | |
| DL1XH-west | 2026-09-05 06:22:10 | 49.35021 | 9.00160 | 350° | 5km/h | 25835m | 5.7m/s | -50.6°C | 0% | 23.4hPa | 2.7V | 03:26:18 | 01:49:36 | 00:00:00 | |
| EDDB2-12 | 2026-09-05 06:22:09 | 49.35019 | 9.00160 | 21° | 5km/h | 25830m | 5.0m/s | -50.6°C | 0.4% | 23.4hPa | 2.7V | 00:00:00 | 00:00:00 | 00:00:00 | |
| DL1XH1-15 | 2026-09-05 06:22:08 | 49.35019 | 9.00165 | 236° | 7km/h | 25800m | 4.8m/s | -50.9°C | 3.2% | 23.5hPa | 2.7V | 03:25:37 | 01:49:29 | 00:00:00 | |
| BIOWL1-15 | 2026-09-05 06:22:05 | 49.35018 | 9.00160 | 246° | 5km/h | 25809m | 4.7m/s | -50.8°C | 0% | 23.5hPa | 2.7V | 03:26:18 | 01:49:31 | 00:00:00 | |
| HSKMA3-T | 2026-09-05 06:22:03 | 49.35019 | 9.00165 | 237° | 7km/h | 25800m | 4.8m/s | -50.9°C | 0% | 23.5hPa | 2.7V | 03:26:18 | 01:49:29 | 00:00:00 | |
| DL1XH-west | 2026-09-05 06:21:59 | 49.35022 | 9.00168 | 277° | 4km/h | 25779m | 4.4m/s | -50.8°C | 0% | 23.6hPa | 2.7V | 03:26:18 | 01:49:25 | 00:00:00 | |
| OE5DXL-15 | 2026-09-05 06:21:58 | 49.35021 | 9.00169 | 289° | 11km/h | 25774m | 6.1m/s | -50.8°C | 3.1% | 23.6hPa | 2.5V | 03:25:00 | 00:00:00 | 00:00:00 | |
| DL0LBS | 2026-09-05 06:21:57 | 49.35021 | 9.00169 | 290° | 5km/h | 25774m | 6.2m/s | -50.8°C | 0.5% | 23.6hPa | 2.5V | 03:26:00 | 00:00:00 | 00:00:00 | |
| DG9SBQ-11 | 2026-09-05 06:21:56 | 49.35021 | 9.00173 | 292° | 11km/h | 25768m | 6.2m/s | -50.9°C | 0.5% | 23.6hPa | 2.5V | 03:26:00 | 00:00:00 | 00:00:00 | |
| DO3DL | 2026-09-05 06:21:55 | 49.35020 | 9.00177 | 295° | 13km/h | 25763m | 5.1m/s | -51.0°C | 0.5% | 23.6hPa | 2.5V | 03:26:00 | 00:00:00 | 00:00:00 | |
| IW2NTF | 2026-09-05 06:21:54 | 49.35009 | 9.00197 | 303° | 13km/h | 25726m | 5.7m/s | -51.3°C | 3.3% | 23.8hPa | 2.5V | 03:25:51 | 01:49:15 | 00:00:00 | |
| BIOWL1-15 | 2026-09-05 06:21:54 | 49.35017 | 9.00185 | 304° | 9km/h | 25752m | 6.1m/s | -50.9°C | 0% | 23.7hPa | 2.7V | 03:26:18 | 01:49:20 | 00:00:00 | |
| HSKMA3-T | 2026-09-05 06:21:52 | 49.35014 | 9.00189 | 328° | 7km/h | 25742m | 4.4m/s | -50.9°C | 0% | 23.7hPa | 2.7V | 03:26:18 | 01:49:18 | 00:00:00 | |
| DL1XH-west | 2026-09-05 06:21:49 | 49.35009 | 9.00197 | 304° | 13km/h | 25726m | 5.7m/s | -51.3°C | 0% | 23.8hPa | 2.5V | 03:26:18 | 01:49:15 | 00:00:00 | |
| DL1XH1-15 | 2026-09-05 06:21:48 | 49.35000 | 9.00220 | 295° | 11km/h | 25694m | 6m/s | -51.2°C | 3.3% | 23.9hPa | 2.5V | 03:25:57 | 01:49:09 | 00:00:00 | |
| DL3AQ-11 | 2026-09-05 06:21:48 | 49.35005 | 9.00206 | 299° | 13km/h | 25716m | 4.9m/s | -51.3°C | 0.5% | 23.8hPa | 2.5V | 00:00:00 | 00:00:00 | 00:00:00 | |
| DB0NH | 2026-09-05 06:21:47 | 49.35005 | 9.00206 | 300° | 13km/h | 25717m | 4.8m/s | -51.2°C | 3.3% | 23.8hPa | 2.5V | 00:00:00 | 01:49:13 | 00:00:00 | |
| DJ2DS-15 | 2026-09-05 06:21:45 | 49.35002 | 9.00214 | 298° | 13km/h | 25705m | 5.2m/s | -51.2°C | 3.3% | 23.8hPa | 2.5V | 00:00:00 | 01:49:11 | 00:00:00 | |
| IW2NTF | 2026-09-05 06:21:44 | 49.34994 | 9.00235 | 322° | 9km/h | 25674m | 5.8m/s | -51°C | 0% | 24hPa | 2.5V | 03:26:01 | 01:49:05 | 00:00:00 | |
| BIOWL1-15 | 2026-09-05 06:21:44 | 49.35001 | 9.00217 | 296° | 9km/h | 25700m | 4.8m/s | -51.3°C | 0% | 23.9hPa | 2.5V | 03:26:18 | 01:49:10 | 00:00:00 | |
| DF8AY | 2026-09-05 06:21:43 | 49.35000 | 9.00220 | 295° | 11km/h | 25694m | 6m/s | -51.2°C | 0% | 23.9hPa | 2.5V | 03:26:18 | 01:49:09 | 00:00:00 | |
| DK7TD | 2026-09-05 06:21:42 | 49.34999 | 9.00224 | 297° | 13km/h | 25689m | 5.7m/s | -51.1°C | 0% | 23.9hPa | 2.7V | 03:26:18 | 01:49:08 | 00:00:00 | |
| HSKMA3-T | 2026-09-05 06:21:41 | 49.34997 | 9.00228 | 303° | 13km/h | 25684m | 4.4m/s | -51°C | 0% | 23.9hPa | 2.7V | 03:26:18 | 01:49:07 | 00:00:00 | |
| NBG1-10 | 2026-09-05 06:21:41 | 49.34997 | 9.00228 | 303° | 11km/h | 25684m | 4.4m/s | -50.9°C | 3.3% | 23.9hPa | 2.5V | 00:00:00 | 01:49:07 | 00:00:00 | |
| CB1BUN | 2026-09-05 06:21:39 | 49.34995 | 9.00232 | 311° | 11km/h | 25679m | 4.5m/s | -51.0°C | 0.5% | 24.0hPa | 2.5V | 03:26:00 | 00:00:00 | 00:00:00 | |
| DL1XH1-15 | 2026-09-05 06:21:38 | 49.34984 | 9.00252 | 281° | 20km/h | 25641m | 4.5m/s | -51°C | 3.2% | 24.1hPa | 2.5V | 03:26:07 | 01:48:59 | 00:00:00 | |
| DL1XH-west | 2026-09-05 06:21:38 | 49.34992 | 9.00236 | 341° | 7km/h | 25668m | 6m/s | -51°C | 0% | 24hPa | 2.5V | 03:26:18 | 01:49:04 | 00:00:00 | |
| DF8AY | 2026-09-05 06:21:37 | 49.34983 | 9.00260 | 274° | 22km/h | 25636m | 4.7m/s | -50.9°C | 0% | 24.1hPa | 2.5V | 03:26:18 | 01:48:58 | 00:00:00 | |
| BIOWL1-15 | 2026-09-05 06:21:37 | 49.34984 | 9.00252 | 281° | 20km/h | 25641m | 4.5m/s | -51°C | 0% | 24.1hPa | 2.5V | 03:26:18 | 01:48:59 | 00:00:00 | |
| DB0UT-7 | 2026-09-05 06:21:36 | 49.34988 | 9.00238 | 328° | 13km/h | 25658m | 4.9m/s | -50.9°C | 3.1% | 24.0hPa | 2.7V | 03:26:00 | 01:49:02 | 00:00:00 | |
| IW2NTF | 2026-09-05 06:21:35 | 49.34985 | 9.00281 | 245° | 13km/h | 25620m | 5.3m/s | -50.5°C | 0% | 24.2hPa | 2.7V | 03:26:11 | 01:48:55 | 00:00:00 | |
| HSKMA3-T | 2026-09-05 06:21:31 | 49.34983 | 9.00268 | 265° | 20km/h | 25631m | 5.7m/s | -50.8°C | 0% | 24.1hPa | 2.7V | 03:26:18 | 01:48:57 | 00:00:00 | |
| DF7PN | 2026-09-05 06:21:31 | 49.34983 | 9.00268 | 265° | 20km/h | 25632m | 5.7m/s | -50.8°C | 0.4% | 24.1hPa | 2.5V | 00:00:00 | 00:00:00 | 00:00:00 | |
| DB0UT-9 | 2026-09-05 06:21:30 | 49.34983 | 9.00268 | 266° | 20km/h | 25632m | 5.7m/s | -50.8°C | 0.5% | 24.1hPa | 2.5V | 03:26:00 | 00:00:00 | 00:00:00 | |
| DL1XH1-15 | 2026-09-05 06:21:28 | 49.34983 | 9.00306 | 296° | 15km/h | 25589m | 5m/s | -50.5°C | 3.1% | 24.3hPa | 2.5V | 03:26:17 | 01:48:49 | 00:00:00 | |
| DL1XH-west | 2026-09-05 06:21:27 | 49.34987 | 9.00289 | 258° | 9km/h | 25611m | 4.5m/s | -50.4°C | 0% | 24.2hPa | 2.5V | 03:26:18 | 01:48:53 | 00:00:00 | |
| DH7VM-15 | 2026-09-05 06:21:26 | 49.34987 | 9.00289 | 259° | 9km/h | 25611m | 4.5m/s | -50.4°C | 0.5% | 24.2hPa | 2.7V | 00:00:00 | 00:00:00 | 00:00:00 | |
| DJ2DS-15 | 2026-09-05 06:21:25 | 49.34986 | 9.00296 | 293° | 11km/h | 25600m | 5.9m/s | -50.4°C | 3.1% | 24.2hPa | 2.7V | 00:00:00 | 01:48:51 | 00:00:00 | |
| IW2NTF | 2026-09-05 06:21:24 | 49.34984 | 9.00321 | 235° | 9km/h | 25567m | 4.9m/s | 0°C | 0% | 0hPa | 2.7V | 03:26:21 | 01:48:45 | 00:00:00 | |
| DL3AQ-11 | 2026-09-05 06:21:24 | 49.34984 | 9.00306 | 296° | 13km/h | 25589m | 5.0m/s | -50.5°C | 0.4% | 24.3hPa | 2.5V | 00:00:00 | 00:00:00 | 00:00:00 | |
| HARRO8 | 2026-09-05 06:21:23 | 49.34982 | 9.00310 | 286° | 11km/h | 25584m | 5.8m/s | -50.5°C | 0.5% | 24.3hPa | 2.5V | 00:00:00 | 00:00:00 | 00:00:00 | |
| DM0DOS-11 | 2026-09-05 06:21:22 | 49.34986 | 9.00328 | 256° | 11km/h | 25557m | 6.2m/s | -50.7°C | 3.1% | 24.4hPa | 2.5V | 03:26:23 | 01:48:43 | 00:00:00 | |
| BIOWL1-15 | 2026-09-05 06:21:22 | 49.34982 | 9.00310 | 286° | 11km/h | 25584m | 5.8m/s | -50.5°C | 0% | 24.3hPa | 2.5V | 03:26:18 | 01:48:48 | 00:00:00 | |
| DK7TD | 2026-09-05 06:21:20 | 49.34983 | 9.00318 | 243° | 9km/h | 25572m | 5.5m/s | -50.6°C | 0% | 24.4hPa | 2.7V | 03:27:09 | 01:48:46 | 00:00:00 | |
| DL1XH-west | 2026-09-05 06:21:16 | 49.34986 | 9.00332 | 270° | 13km/h | 25551m | 5.5m/s | -50.6°C | 0% | 24.4hPa | 2.5V | 03:27:09 | 01:48:42 | 00:00:00 | |
| BIOWL1-15 | 2026-09-05 06:21:16 | 49.34986 | 9.00350 | 258° | 9km/h | 25529m | 5m/s | -50.6°C | 0% | 24.5hPa | 2.7V | 03:27:09 | 01:48:38 | 00:00:00 | |
| IW2NTF | 2026-09-05 06:21:15 | 49.34986 | 9.00360 | 293° | 9km/h | 25513m | 6.1m/s | 0°C | 0% | 0hPa | 2.5V | 03:26:31 | 01:48:35 | 00:00:00 | |
| DO8TBO-1 | 2026-09-05 06:21:14 | 49.34986 | 9.00342 | 271° | 9km/h | 25540m | 5.7m/s | -50.5°C | 3.1% | 24.4hPa | 2.7V | 00:00:00 | 01:48:40 | 00:00:00 | |
| DO3MHA-11 | 2026-09-05 06:21:13 | 49.34986 | 9.00347 | 265° | 9km/h | 25535m | 6.1m/s | -50.6°C | 3.1% | 24.4hPa | 2.7V | 00:00:00 | 01:48:39 | 00:00:00 | |
| DM0DOS-11 | 2026-09-05 06:21:12 | 49.34984 | 9.00366 | 284° | 7km/h | 25503m | 4.5m/s | -50.1°C | 3% | 24.6hPa | 2.7V | 03:26:33 | 01:48:33 | 00:00:00 | |
| DF8AY | 2026-09-05 06:21:11 | 49.34987 | 9.00354 | 265° | 7km/h | 25524m | 4.6m/s | -50.5°C | 0% | 24.5hPa | 2.5V | 03:27:09 | 01:48:37 | 00:00:00 | |
| HSKMA3-T | 2026-09-05 06:21:10 | 49.34986 | 9.00356 | 281° | 7km/h | 25519m | 5.2m/s | -50.5°C | 0% | 24.6hPa | 2.5V | 03:27:09 | 01:48:36 | 00:00:00 | |
| DK7TD | 2026-09-05 06:21:09 | 49.34986 | 9.00360 | 293° | 9km/h | 25513m | 6.1m/s | -50.3°C | 0% | 24.6hPa | 2.5V | 03:27:09 | 01:48:35 | 00:00:00 | |
| DL1XH-west | 2026-09-05 06:21:06 | 49.34984 | 9.00369 | 257° | 7km/h | 25497m | 6.1m/s | -50.2°C | 0% | 24.7hPa | 2.5V | 03:27:09 | 01:48:32 | 00:00:00 | |
| DB0UT-7 | 2026-09-05 06:21:06 | 49.34984 | 9.00369 | 257° | 11km/h | 25498m | 6.1m/s | -50.2°C | 3.0% | 24.6hPa | 2.5V | 00:00:00 | 00:00:00 | 00:00:00 | |
| IW2NTF | 2026-09-05 06:21:05 | 49.34994 | 9.00384 | 237° | 5km/h | 25460m | 4.3m/s | 0°C | 0% | 0hPa | 2.5V | 03:26:41 | 01:48:25 | 00:00:00 | |
| BIOWL9-15 | 2026-09-05 06:21:04 | 49.34989 | 9.00375 | 210° | 9km/h | 25481m | 4.6m/s | -50.3°C | 0.4% | 24.7hPa | 2.7V | 00:00:00 | 00:00:00 | 00:00:00 | |
| DO3MHA-11 | 2026-09-05 06:21:03 | 49.34989 | 9.00375 | 211° | 7km/h | 25482m | 4.6m/s | -50.2°C | 3.0% | 24.6hPa | 2.7V | 03:26:00 | 01:48:29 | 00:00:00 | |
| DM0DOS-11 | 2026-09-05 06:21:02 | 49.34996 | 9.00386 | 180° | 7km/h | 25449m | 5.9m/s | -50.4°C | 3% | 24.8hPa | 2.7V | 03:26:43 | 01:48:23 | 00:00:00 | |
| BIOWL1-15 | 2026-09-05 06:21:01 | 49.34992 | 9.00380 | 243° | 7km/h | 25470m | 5.6m/s | -50.1°C | 0% | 24.8hPa | 2.7V | 03:27:09 | 01:48:27 | 00:00:00 | |
| DF8AY | 2026-09-05 06:21:00 | 49.34993 | 9.00382 | 251° | 7km/h | 25465m | 4.5m/s | -50.2°C | 0% | 24.8hPa | 2.5V | 03:27:09 | 01:48:26 | 00:00:00 | |
| HSKMA3-T | 2026-09-05 06:20:59 | 49.34994 | 9.00384 | 237° | 5km/h | 25461m | 4.3m/s | -50.3°C | 0% | 24.8hPa | 2.5V | 03:27:09 | 01:48:25 | 00:00:00 | |
| DK7TD | 2026-09-05 06:20:58 | 49.34995 | 9.00386 | 208° | 5km/h | 25455m | 6.1m/s | -50.4°C | 0% | 24.8hPa | 2.5V | 03:27:09 | 01:48:24 | 00:00:00 | |
| DB0ND-19 | 2026-09-05 06:20:57 | 49.34996 | 9.00386 | 180° | 5km/h | 25450m | 5.9m/s | -50.4°C | 0.4% | 24.8hPa | 2.5V | 00:00:00 | 00:00:00 | 00:00:00 | |
| OE5DRO-10 | 2026-09-05 06:20:56 | 49.34998 | 9.00386 | 180° | 11km/h | 25444m | 5.0m/s | -50.4°C | 3.0% | 24.8hPa | 2.5V | 03:26:00 | 00:00:00 | 00:00:00 | |
| DL1XH-west | 2026-09-05 06:20:56 | 49.34998 | 9.00386 | 179° | 9km/h | 25444m | 5.1m/s | -50.5°C | 0% | 24.9hPa | 2.7V | 03:27:09 | 01:48:22 | 00:00:00 | |
| IW2NTF | 2026-09-05 06:20:55 | 49.35015 | 9.00400 | 187° | 15km/h | 25406m | 5.3m/s | 0°C | 0% | 0hPa | 2.5V | 03:26:51 | 01:48:15 | 00:00:00 | |
| DO3MHA-11 | 2026-09-05 06:20:53 | 49.35004 | 9.00390 | 226° | 13km/h | 25428m | 5.2m/s | -50.5°C | 3.1% | 24.9hPa | 2.5V | 00:00:00 | 01:48:19 | 00:00:00 | |
| DM0DOS-11 | 2026-09-05 06:20:52 | 49.35022 | 9.00401 | 183° | 11km/h | 25395m | 6.1m/s | -50.5°C | 3.1% | 25hPa | 2.5V | 03:26:53 | 01:48:13 | 00:00:00 | |
| BIOWL1-15 | 2026-09-05 06:20:50 | 49.35012 | 9.00399 | 200° | 13km/h | 25412m | 6.3m/s | -50.5°C | 0% | 25hPa | 2.7V | 03:27:09 | 01:48:16 | 00:00:00 | |
| DF8AY | 2026-09-05 06:20:49 | 49.35015 | 9.00400 | 188° | 15km/h | 25406m | 5.3m/s | -50.5°C | 0% | 25hPa | 2.5V | 03:27:09 | 01:48:15 | 00:00:00 | |
| DL1ZP-14 | 2026-09-05 06:20:49 | 49.35019 | 9.00401 | 182° | 13km/h | 25401m | 4.8m/s | -50.5°C | 0.4% | 25.0hPa | 2.5V | 00:00:00 | 00:00:00 | 00:00:00 | |
| DL1XH1-15 | 2026-09-05 06:20:48 | 49.35032 | 9.00398 | 148° | 13km/h | 25374m | 6.3m/s | -50.6°C | 3.1% | 25.1hPa | 2.5V | 03:26:57 | 01:48:09 | 00:00:00 | |
| DK7TD | 2026-09-05 06:20:48 | 49.35019 | 9.00401 | 183° | 13km/h | 25401m | 4.8m/s | -50.5°C | 0% | 25hPa | 2.5V | 03:27:09 | 01:48:14 | 00:00:00 | |
| DL1XH-west | 2026-09-05 06:20:45 | 49.35027 | 9.00401 | 172° | 9km/h | 25384m | 4.6m/s | -50.6°C | 0% | 25.1hPa | 2.7V | 03:27:09 | 01:48:11 | 00:00:00 | |
| DJ2DS-15 | 2026-09-05 06:20:45 | 49.35027 | 9.00401 | 172° | 11km/h | 25385m | 4.6m/s | -50.6°C | 3.2% | 25.0hPa | 2.5V | 00:00:00 | 01:48:11 | 00:00:00 | |
| DL3AQ-11 | 2026-09-05 06:20:44 | 49.35032 | 9.00398 | 148° | 13km/h | 25374m | 6.3m/s | -50.6°C | 0.4% | 25.1hPa | 2.5V | 00:00:00 | 00:00:00 | 00:00:00 | |
| DO3MHA-11 | 2026-09-05 06:20:43 | 49.35032 | 9.00398 | 149° | 11km/h | 25374m | 6.3m/s | -50.5°C | 3.1% | 25.1hPa | 2.5V | 00:00:00 | 01:48:09 | 00:00:00 | |
| DM0DOS-11 | 2026-09-05 06:20:41 | 49.35051 | 9.00391 | 195° | 11km/h | 25337m | 6.2m/s | -50.6°C | 3.1% | 25.3hPa | 2.5V | 03:27:04 | 01:48:02 | 00:00:00 | |
| BIOWL1-15 | 2026-09-05 06:20:40 | 49.35042 | 9.00389 | 158° | 13km/h | 25358m | 5.7m/s | -50.7°C | 0% | 25.2hPa | 2.7V | 03:27:09 | 01:48:06 | 00:00:00 | |
| DF8AY | 2026-09-05 06:20:39 | 49.35044 | 9.00388 | 176° | 9km/h | 25352m | 6m/s | -50.8°C | 0% | 25.2hPa | 2.7V | 03:27:09 | 01:48:05 | 00:00:00 | |
| HSKMA3-T | 2026-09-05 06:20:38 | 49.35046 | 9.00389 | 196° | 9km/h | 25347m | 4.9m/s | -50.7°C | 0% | 25.2hPa | 2.6V | 03:27:09 | 01:48:04 | 00:00:00 | |
| DK7TD | 2026-09-05 06:20:37 | 49.35049 | 9.00390 | 202° | 9km/h | 25342m | 4.8m/s | -50.6°C | 0% | 25.2hPa | 2.5V | 03:27:09 | 01:48:03 | 00:00:00 | |
| DL1XH-west | 2026-09-05 06:20:35 | 49.35054 | 9.00392 | 188° | 11km/h | 25331m | 5.4m/s | -50.6°C | 0% | 25.3hPa | 2.5V | 03:27:09 | 01:48:01 | 00:00:00 | |
| DO3DL | 2026-09-05 06:20:34 | 49.35053 | 9.00392 | 188° | 11km/h | 25331m | 5.4m/s | -50.6°C | 0.5% | 25.3hPa | 2.7V | 03:27:00 | 00:00:00 | 00:00:00 | |
| DO3MHA-11 | 2026-09-05 06:20:33 | 49.35058 | 9.00392 | 183° | 11km/h | 25321m | 5.9m/s | -50.6°C | 3.1% | 25.3hPa | 2.7V | 00:00:00 | 01:47:59 | 00:00:00 | |
| DF2AP-13 | 2026-09-05 06:20:32 | 49.35060 | 9.00392 | 175° | 7km/h | 25315m | 5.9m/s | -50.6°C | 3.2% | 25.3hPa | 2.5V | 00:00:00 | 01:47:58 | 00:00:00 | |
| DM0DOS-11 | 2026-09-05 06:20:31 | 49.35069 | 9.00372 | 120° | 15km/h | 25283m | 5.5m/s | -50.7°C | 3.1% | 25.5hPa | 2.5V | 03:27:14 | 01:47:52 | 00:00:00 | |
| DF8AY | 2026-09-05 06:20:29 | 49.35063 | 9.00387 | 125° | 11km/h | 25299m | 6.5m/s | -50.7°C | 0% | 25.4hPa | 2.7V | 03:28:00 | 01:47:55 | 00:00:00 | |
| HSKMA3-T | 2026-09-05 06:20:27 | 49.35067 | 9.00378 | 123° | 16km/h | 25288m | 4.2m/s | -50.7°C | 0% | 25.4hPa | 2.7V | 03:28:00 | 01:47:53 | 00:00:00 | |
| DK7TD | 2026-09-05 06:20:26 | 49.35069 | 9.00372 | 121° | 15km/h | 25283m | 5.5m/s | -50.7°C | 0% | 25.5hPa | 2.5V | 03:28:00 | 01:47:52 | 00:00:00 | |
| DL1XH-west | 2026-09-05 06:20:24 | 49.35072 | 9.00365 | 134° | 9km/h | 25272m | 4.7m/s | -50.6°C | 0% | 25.5hPa | 2.5V | 03:28:00 | 01:47:50 | 00:00:00 | |
| SFWM-10 | 2026-09-05 06:20:24 | 49.35072 | 9.00365 | 135° | 9km/h | 25273m | 4.7m/s | -50.6°C | 0.5% | 25.5hPa | 2.7V | 03:28:00 | 00:00:00 | 00:00:00 | |
| DO3MHA-11 | 2026-09-05 06:20:23 | 49.35074 | 9.00362 | 159° | 9km/h | 25268m | 4.8m/s | -50.7°C | 3.1% | 25.5hPa | 2.7V | 03:27:00 | 01:47:49 | 00:00:00 | |
| DM0DOS-11 | 2026-09-05 06:20:21 | 49.35092 | 9.00371 | 212° | 4km/h | 25230m | 4.5m/s | -50.8°C | 3.2% | 25.7hPa | 2.7V | 03:27:24 | 01:47:42 | 00:00:00 | |
| BIOWL1-15 | 2026-09-05 06:20:19 | 49.35087 | 9.00365 | 207° | 13km/h | 25246m | 5.3m/s | -50.6°C | 0% | 25.6hPa | 2.5V | 03:28:00 | 01:47:45 | 00:00:00 | |
| DF8AY | 2026-09-05 06:20:18 | 49.35089 | 9.00367 | 218° | 11km/h | 25241m | 6m/s | -50.7°C | 0% | 25.6hPa | 2.5V | 03:28:00 | 01:47:44 | 00:00:00 | |
| HSKMA3-T | 2026-09-05 06:20:17 | 49.35091 | 9.00370 | 227° | 7km/h | 25235m | 5.2m/s | -50.7°C | 0% | 25.7hPa | 2.7V | 03:28:00 | 01:47:43 | 00:00:00 | |
| DB0NH | 2026-09-05 06:20:17 | 49.35091 | 9.00369 | 227° | 9km/h | 25236m | 5.1m/s | -50.7°C | 3.2% | 25.6hPa | 2.5V | 00:00:00 | 01:47:43 | 00:00:00 | |
| DL3AQ-11 | 2026-09-05 06:20:15 | 49.35093 | 9.00371 | 144° | 4km/h | 25226m | 5.2m/s | -50.7°C | 0.5% | 25.7hPa | 2.5V | 00:00:00 | 00:00:00 | 00:00:00 | |
| DK7TD | 2026-09-05 06:20:15 | 49.35093 | 9.00371 | 145° | 4km/h | 25226m | 5.2m/s | -50.7°C | 0% | 25.7hPa | 2.5V | 03:28:00 | 01:47:41 | 00:00:00 | |
| IW2NTF | 2026-09-05 06:20:14 | 49.35101 | 9.00354 | 150° | 4km/h | 25194m | 5.2m/s | 0°C | 0% | 0hPa | 2.5V | 00:00:00 | 01:47:35 | 00:00:00 | |
| DL1XH-west | 2026-09-05 06:20:14 | 49.35094 | 9.00369 | 127° | 9km/h | 25220m | 5.7m/s | -50.7°C | 0% | 25.7hPa | 2.5V | 03:28:00 | 01:47:40 | 00:00:00 | |
| DO3MHA-11 | 2026-09-05 06:20:13 | 49.35095 | 9.00366 | 127° | 7km/h | 25215m | 4.9m/s | -50.6°C | 3.1% | 25.7hPa | 2.6V | 00:00:00 | 01:47:39 | 00:00:00 | |
| DM0DOS-11 | 2026-09-05 06:20:11 | 49.35104 | 9.00354 | 188° | 5km/h | 25178m | 5.3m/s | -50.7°C | 3.2% | 25.9hPa | 2.6V | 03:27:34 | 01:47:32 | 00:00:00 | |
| BIOWL1-15 | 2026-09-05 06:20:11 | 49.35101 | 9.00354 | 150° | 4km/h | 25194m | 5.2m/s | -50.8°C | 0% | 25.8hPa | 2.5V | 03:28:00 | 01:47:35 | 00:00:00 | |
| DF8AY | 2026-09-05 06:20:08 | 49.35102 | 9.00354 | 191° | 4km/h | 25189m | 4.6m/s | -50.8°C | 0% | 25.9hPa | 2.7V | 03:28:00 | 01:47:34 | 00:00:00 | |
| DL1XH1-15 | 2026-09-05 06:20:08 | 49.35106 | 9.00354 | 33° | 2km/h | 25162m | 6.2m/s | -50.8°C | 3.2% | 26hPa | 2.5V | 03:27:37 | 01:47:29 | 00:00:00 | |
| HSKMA3-T | 2026-09-05 06:20:07 | 49.35103 | 9.00354 | 195° | 5km/h | 25184m | 6.1m/s | -50.7°C | 0% | 25.9hPa | 2.7V | 03:28:00 | 01:47:33 | 00:00:00 | |
| DK7TD | 2026-09-05 06:20:05 | 49.35106 | 9.00355 | 185° | 4km/h | 25173m | 4.8m/s | -50.8°C | 0% | 25.9hPa | 2.5V | 03:28:00 | 01:47:31 | 00:00:00 | |
| DL1XH-west | 2026-09-05 06:20:04 | 49.35106 | 9.00355 | 171° | 2km/h | 25168m | 5m/s | -50.8°C | 0% | 25.9hPa | 2.5V | 03:28:00 | 01:47:30 | 00:00:00 | |
| DJ2DS-15 | 2026-09-05 06:20:03 | 49.35106 | 9.00355 | 33° | 2km/h | 25163m | 6.3m/s | -50.8°C | 0.5% | 26.0hPa | 2.5V | 00:00:00 | 00:00:00 | 00:00:00 | |
| BIOWL9-15 | 2026-09-05 06:20:02 | 49.35104 | 9.00352 | 45° | 7km/h | 25153m | 3.8m/s | -50.7°C | 0.5% | 26.0hPa | 2.5V | 00:00:00 | 00:00:00 | 00:00:00 | |
| DM0DOS-11 | 2026-09-05 06:20:01 | 49.35105 | 9.00329 | 103° | 15km/h | 25128m | 3.6m/s | -50.7°C | 3.1% | 26.1hPa | 2.5V | 03:27:44 | 01:47:22 | 00:00:00 | |
| DM7RM-13 | 2026-09-05 06:20:00 | 49.35104 | 9.00352 | 47° | 7km/h | 25153m | 3.8m/s | -50.7°C | 0.5% | 26.0hPa | 2.7V | 03:28:00 | 00:00:00 | 00:00:00 | |
| OE5DRO-10 | 2026-09-05 06:19:59 | 49.35103 | 9.00345 | 89° | 11km/h | 25143m | 5.7m/s | -50.8°C | 3.2% | 26.0hPa | 2.7V | 00:00:00 | 00:00:00 | 00:00:00 | |
| DL1XH1-15 | 2026-09-05 06:19:58 | 49.35103 | 9.00318 | 27° | 9km/h | 25113m | 4.9m/s | -50.8°C | 3.1% | 26.2hPa | 2.7V | 03:27:47 | 01:47:19 | 00:00:00 | |
| DF8AY | 2026-09-05 06:19:58 | 49.35103 | 9.00340 | 102° | 15km/h | 25137m | 5.5m/s | -50.8°C | 0% | 26.1hPa | 2.7V | 03:28:00 | 01:47:24 | 00:00:00 | |
| HSKMA3-T | 2026-09-05 06:19:57 | 49.35104 | 9.00334 | 107° | 16km/h | 25132m | 4.3m/s | -50.7°C | 0% | 26.1hPa | 2.6V | 03:28:00 | 01:47:23 | 00:00:00 | |
| DL1XH-15 | 2026-09-05 06:19:56 | 49.35099 | 9.00316 | 4° | 9km/h | 25103m | 5.9m/s | -50.9°C | 3.1% | 26.2hPa | 2.6V | 03:27:49 | 01:47:17 | 00:00:00 | |
| DK7TD | 2026-09-05 06:19:55 | 49.35105 | 9.00324 | 89° | 11km/h | 25124m | 5.2m/s | -50.7°C | 0% | 26.1hPa | 2.5V | 03:28:00 | 01:47:21 | 00:00:00 | |
| DG9SBQ-11 | 2026-09-05 06:19:55 | 49.35105 | 9.00324 | 90° | 11km/h | 25124m | 5.2m/s | -50.7°C | 0.5% | 26.1hPa | 2.7V | 03:28:00 | 00:00:00 | 00:00:00 | |
| DO2KSM | 2026-09-05 06:19:54 | 49.35105 | 9.00324 | 90° | 11km/h | 25124m | 5.2m/s | -50.7°C | 0% | 0hPa | 2.7V | 03:28:00 | 00:00:00 | 00:00:00 | |
| DO3MHA-11 | 2026-09-05 06:19:53 | 49.35103 | 9.00318 | 28° | 11km/h | 25113m | 4.8m/s | -50.8°C | 3.1% | 26.1hPa | 2.7V | 00:00:00 | 01:47:19 | 00:00:00 | |
| DL1XH-west | 2026-09-05 06:19:53 | 49.35103 | 9.00318 | 27° | 9km/h | 25113m | 4.9m/s | -50.8°C | 0% | 26.2hPa | 2.7V | 03:28:00 | 01:47:19 | 00:00:00 | |
| DL4BBY-15 | 2026-09-05 06:19:50 | 49.35096 | 9.00316 | 5° | 11km/h | 25098m | 5.3m/s | -51.7°C | 0% | 0hPa | 2.7V | 00:00:00 | 00:00:00 | 00:00:00 | |
| DG9SBQ-11 | 2026-09-05 06:19:49 | 49.35096 | 9.00316 | 6° | 9km/h | 25098m | 5.3m/s | -50.9°C | 0.5% | 26.3hPa | 2.7V | 03:28:00 | 00:00:00 | 00:00:00 | |
| DL1XH1-15 | 2026-09-05 06:19:48 | 49.35078 | 9.00315 | 35° | 7km/h | 25061m | 6.3m/s | -51.1°C | 3.2% | 26.4hPa | 2.7V | 03:27:57 | 01:47:09 | 00:00:00 | |
| DF8AY | 2026-09-05 06:19:47 | 49.35089 | 9.00316 | 357° | 11km/h | 25083m | 5.7m/s | -50.9°C | 0% | 26.3hPa | 2.7V | 03:28:00 | 01:47:13 | 00:00:00 | |
| BIOWL1-15 | 2026-09-05 06:19:46 | 49.35086 | 9.00316 | 356° | 13km/h | 25077m | 5.7m/s | -50.9°C | 0% | 26.3hPa | 2.7V | 03:28:00 | 01:47:12 | 00:00:00 | |
| DK7TD | 2026-09-05 06:19:44 | 49.35080 | 9.00316 | 9° | 9km/h | 25067m | 5.1m/s | -51.1°C | 0% | 26.4hPa | 2.5V | 03:28:00 | 01:47:10 | 00:00:00 | |
| DL1XH-west | 2026-09-05 06:19:42 | 49.35077 | 9.00313 | 71° | 7km/h | 25055m | 5.4m/s | -51.1°C | 0% | 26.4hPa | 2.7V | 03:28:00 | 01:47:08 | 00:00:00 | |
| OE5DRO-10 | 2026-09-05 06:19:40 | 49.35076 | 9.00309 | 48° | 13km/h | 25046m | 4.9m/s | -51.0°C | 3.3% | 26.4hPa | 2.5V | 03:28:00 | 00:00:00 | 00:00:00 | |
| HEMX73-11 | 2026-09-05 06:19:39 | 49.35075 | 9.00308 | 6° | 7km/h | 25041m | 5.8m/s | -51.0°C | 0.5% | 26.5hPa | 2.5V | 03:28:00 | 00:00:00 | 00:00:00 | |
| DL1XH1-15 | 2026-09-05 06:19:38 | 49.35054 | 9.00315 | 353° | 16km/h | 25009m | 5m/s | -51°C | 3.2% | 26.6hPa | 2.5V | 03:28:07 | 01:46:59 | 00:00:00 | |
| DF8AY | 2026-09-05 06:19:37 | 49.35069 | 9.00310 | 342° | 15km/h | 25030m | 4.2m/s | -51°C | 0% | 26.5hPa | 2.7V | 03:28:51 | 01:47:03 | 00:00:00 | |
| HSKMA3-T | 2026-09-05 06:19:35 | 49.35061 | 9.00313 | 345° | 15km/h | 25020m | 5.8m/s | -51°C | 0% | 26.5hPa | 2.5V | 03:28:51 | 01:47:01 | 00:00:00 | |
| DK7TD | 2026-09-05 06:19:34 | 49.35058 | 9.00315 | 350° | 15km/h | 25015m | 5m/s | -51°C | 0% | 26.6hPa | 2.5V | 03:28:51 | 01:47:00 | 00:00:00 | |
| DO3MHA-11 | 2026-09-05 06:19:33 | 49.35054 | 9.00315 | 354° | 13km/h | 25010m | 5.0m/s | -51.0°C | 3.2% | 26.6hPa | 2.5V | 00:00:00 | 01:46:59 | 00:00:00 | |
| DM0DOS-11 | 2026-09-05 06:19:31 | 49.35029 | 9.00321 | 292° | 2km/h | 24973m | 4.8m/s | -51.5°C | 3.3% | 26.7hPa | 2.5V | 03:28:14 | 01:46:52 | 00:00:00 | |
| DL1XH-west | 2026-09-05 06:19:31 | 49.35044 | 9.00317 | 353° | 20km/h | 24999m | 5.8m/s | -51.1°C | 0% | 26.6hPa | 2.7V | 03:28:51 | 01:46:57 | 00:00:00 | |
| DO2KSM | 2026-09-05 06:19:30 | 49.35044 | 9.00317 | 354° | 20km/h | 24999m | 5.8m/s | -51.1°C | 0% | 0hPa | 2.7V | 00:00:00 | 00:00:00 | 00:00:00 | |
| DL1XH1-15 | 2026-09-05 06:19:28 | 49.35027 | 9.00328 | 302° | 13km/h | 24959m | 5.8m/s | -51.5°C | 3.2% | 26.8hPa | 2.7V | 03:28:17 | 01:46:49 | 00:00:00 | |
| OE5DXL-15 | 2026-09-05 06:19:28 | 49.35032 | 9.00320 | 352° | 11km/h | 24985m | 5.9m/s | -51.2°C | 3.2% | 26.6hPa | 2.7V | 00:00:00 | 00:00:00 | 00:00:00 | |
| DM3KS-11 | 2026-09-05 06:19:27 | 49.35029 | 9.00321 | 292° | 0km/h | 24973m | 4.8m/s | -51.5°C | 0.5% | 26.8hPa | 2.7V | 00:00:00 | 00:00:00 | 00:00:00 | |
| DL1XH-15 | 2026-09-05 06:19:26 | 49.35021 | 9.00338 | 319° | 22km/h | 24948m | 4.3m/s | -51.4°C | 3.2% | 26.9hPa | 2.7V | 03:28:19 | 01:46:47 | 00:00:00 | |
| DF8AY | 2026-09-05 06:19:26 | 49.35029 | 9.00321 | 292° | 2km/h | 24973m | 4.8m/s | -51.5°C | 0% | 26.8hPa | 2.5V | 03:28:51 | 01:46:52 | 00:00:00 | |
| HSKMA3-T | 2026-09-05 06:19:24 | 49.35028 | 9.00324 | 288° | 7km/h | 24964m | 5m/s | -51.6°C | 0% | 26.8hPa | 2.5V | 03:28:51 | 01:46:50 | 00:00:00 | |
| BIOWL1-15 | 2026-09-05 06:19:23 | 49.35027 | 9.00328 | 303° | 13km/h | 24959m | 5.9m/s | -51.5°C | 0% | 26.8hPa | 2.7V | 03:28:51 | 01:46:49 | 00:00:00 | |
| DO3MHA-11 | 2026-09-05 06:19:23 | 49.35027 | 9.00328 | 303° | 16km/h | 24959m | 5.8m/s | -51.4°C | 3.2% | 26.8hPa | 2.7V | 00:00:00 | 01:46:49 | 00:00:00 | |
| DG9SBQ-11 | 2026-09-05 06:19:22 | 49.35025 | 9.00332 | 314° | 18km/h | 24954m | 5.0m/s | -51.4°C | 0.5% | 26.8hPa | 2.7V | 03:28:00 | 00:00:00 | 00:00:00 | |
| DM0DOS-11 | 2026-09-05 06:19:21 | 49.35003 | 9.00358 | 311° | 11km/h | 24924m | 4.4m/s | -51.3°C | 3.2% | 27hPa | 2.7V | 03:28:24 | 01:46:42 | 00:00:00 | |
| DL1XH-west | 2026-09-05 06:19:21 | 49.35021 | 9.00338 | 320° | 22km/h | 24949m | 4.3m/s | -51.4°C | 0% | 26.9hPa | 2.7V | 03:28:51 | 01:46:47 | 00:00:00 | |
| DL4BBY-15 | 2026-09-05 06:19:20 | 49.35017 | 9.00343 | 325° | 11km/h | 24944m | 5.0m/s | -52.3°C | 0% | 0hPa | 2.7V | 00:00:00 | 00:00:00 | 00:00:00 | |
| DM7RM-13 | 2026-09-05 06:19:19 | 49.35017 | 9.00343 | 325° | 22km/h | 24944m | 5.0m/s | -51.5°C | 0.5% | 26.9hPa | 2.7V | 03:28:00 | 00:00:00 | 00:00:00 | |
| DL1XH1-15 | 2026-09-05 06:19:18 | 49.34999 | 9.00368 | 292° | 9km/h | 24909m | 4.5m/s | -51.5°C | 3.3% | 27hPa | 2.7V | 03:28:27 | 01:46:39 | 00:00:00 | |
| HEMX73-11 | 2026-09-05 06:19:17 | 49.35008 | 9.00351 | 328° | 16km/h | 24934m | 5.0m/s | -51.3°C | 0.5% | 26.9hPa | 2.5V | 03:28:00 | 00:00:00 | 00:00:00 | |
| DL1XH-15 | 2026-09-05 06:19:16 | 49.34998 | 9.00373 | 320° | 5km/h | 24900m | 5.8m/s | -51.5°C | 3.3% | 27hPa | 2.5V | 03:28:29 | 01:46:37 | 00:00:00 | |
| DF8AY | 2026-09-05 06:19:16 | 49.35003 | 9.00358 | 312° | 11km/h | 24924m | 4.4m/s | -51.3°C | 0% | 27hPa | 2.7V | 03:28:51 | 01:46:42 | 00:00:00 | |
| HSKMA3-T | 2026-09-05 06:19:14 | 49.35001 | 9.00365 | 292° | 11km/h | 24914m | 5.2m/s | -51.5°C | 0% | 27hPa | 2.5V | 03:28:51 | 01:46:40 | 00:00:00 | |
| DK7TD | 2026-09-05 06:19:13 | 49.35000 | 9.00368 | 292° | 9km/h | 24909m | 4.5m/s | -51.5°C | 0% | 27hPa | 2.7V | 03:28:51 | 01:46:39 | 00:00:00 | |
| DL1XH-west | 2026-09-05 06:19:10 | 49.34996 | 9.00374 | 352° | 5km/h | 24894m | 6m/s | -51.4°C | 0% | 27.1hPa | 2.5V | 03:28:51 | 01:46:36 | 00:00:00 | |
| DL1XH1-15 | 2026-09-05 06:19:08 | 49.34996 | 9.00401 | 238° | 15km/h | 24859m | 5.1m/s | -51.2°C | 3.3% | 27.2hPa | 2.5V | 03:28:37 | 01:46:29 | 00:00:00 | |
| DL3AQ-11 | 2026-09-05 06:19:08 | 49.34993 | 9.00378 | 293° | 7km/h | 24880m | 6.0m/s | -51.3°C | -1.0% | -1.0hPa | 2.7V | 00:00:00 | 00:00:00 | 00:00:00 | |
| DF3TZ-5 | 2026-09-05 06:19:07 | 49.34992 | 9.00382 | 272° | 13km/h | 24874m | 5.8m/s | -51.3°C | 0.5% | 27.2hPa | 2.7V | 00:00:00 | 00:00:00 | 00:00:00 | |
| DL1XH-15 | 2026-09-05 06:19:06 | 49.35000 | 9.00407 | 206° | 9km/h | 24849m | 4.9m/s | -51.1°C | 3.2% | 27.3hPa | 2.7V | 03:28:39 | 01:46:27 | 00:00:00 | |
| DF8AY | 2026-09-05 06:19:05 | 49.34992 | 9.00388 | 259° | 18km/h | 24868m | 4.7m/s | -51.2°C | 0% | 27.2hPa | 2.5V | 03:28:51 | 01:46:31 | 00:00:00 | |
| HSKMA3-T | 2026-09-05 06:19:03 | 49.34996 | 9.00401 | 238° | 15km/h | 24859m | 5.1m/s | -51.2°C | 0% | 27.2hPa | 2.5V | 03:28:51 | 01:46:29 | 00:00:00 | |
| DK7TD | 2026-09-05 06:19:02 | 49.34998 | 9.00405 | 224° | 13km/h | 24854m | 5.4m/s | -51.1°C | 0% | 27.3hPa | 2.7V | 03:28:51 | 01:46:28 | 00:00:00 | |
| DL1XH-west | 2026-09-05 06:18:59 | 49.35002 | 9.00408 | 210° | 2km/h | 24839m | 4.8m/s | -51.1°C | 0% | 27.3hPa | 2.5V | 03:28:51 | 01:46:25 | 00:00:00 | |
| DL1XH1-15 | 2026-09-05 06:18:58 | 49.35009 | 9.00424 | 197° | 18km/h | 24809m | 5.8m/s | -51°C | 3.1% | 27.4hPa | 2.7V | 03:28:47 | 01:46:19 | 00:00:00 | |
| OE5DXL-15 | 2026-09-05 06:18:58 | 49.35002 | 9.00409 | 284° | 16km/h | 24834m | 5.6m/s | -51.0°C | 3.1% | 27.3hPa | 2.7V | 00:00:00 | 00:00:00 | 00:00:00 | |
| DL1XH-15 | 2026-09-05 06:18:56 | 49.35020 | 9.00426 | 178° | 24km/h | 24799m | 4.3m/s | -51.2°C | 3.3% | 27.5hPa | 2.7V | 03:28:49 | 01:46:17 | 00:00:00 | |
| DF8AY | 2026-09-05 06:18:55 | 49.35003 | 9.00418 | 238° | 11km/h | 24820m | 4.2m/s | -51.1°C | 0% | 27.4hPa | 2.5V | 03:28:51 | 01:46:21 | 00:00:00 | |
| HSKMA3-T | 2026-09-05 06:18:53 | 49.35009 | 9.00424 | 197° | 18km/h | 24809m | 5.8m/s | -51°C | 0% | 27.4hPa | 2.7V | 03:28:51 | 01:46:19 | 00:00:00 | |
| DK7TD | 2026-09-05 06:18:52 | 49.35014 | 9.00425 | 185° | 22km/h | 24804m | 5.3m/s | -51.2°C | 0% | 27.4hPa | 2.7V | 03:28:51 | 01:46:18 | 00:00:00 | |
| DJ2DS-15 | 2026-09-05 06:18:51 | 49.35020 | 9.00426 | 178° | 22km/h | 24799m | 4.3m/s | -51.3°C | 0.5% | 27.5hPa | 2.5V | 00:00:00 | 00:00:00 | 00:00:00 | |
| DL4BBY-15 | 2026-09-05 06:18:50 | 49.35025 | 9.00425 | 180° | 18km/h | 24795m | 4.1m/s | -52.1°C | 0% | 0hPa | 2.5V | 00:00:00 | 00:00:00 | 00:00:00 | |
| DM0DOS-11 | 2026-09-05 06:18:49 | 49.35042 | 9.00447 | 238° | 15km/h | 24766m | 4.2m/s | -51.2°C | 3.3% | 27.6hPa | 2.5V | 03:28:56 | 01:46:10 | 00:00:00 | |
| DL1XH-west | 2026-09-05 06:18:49 | 49.35030 | 9.00426 | 187° | 16km/h | 24790m | 4.7m/s | -51.2°C | 0% | 27.5hPa | 2.5V | 03:28:51 | 01:46:15 | 00:00:00 | |
| DB0NH | 2026-09-05 06:18:47 | 49.35036 | 9.00431 | 232° | 20km/h | 24781m | 5.0m/s | -51.0°C | 3.2% | 27.5hPa | 2.5V | 03:28:00 | 01:46:13 | 00:00:00 | |
| DL1XH-15 | 2026-09-05 06:18:46 | 49.35048 | 9.00454 | 169° | 9km/h | 24752m | 5.4m/s | -51.1°C | 3.3% | 27.7hPa | 2.5V | 03:28:59 | 01:46:07 | 00:00:00 | |
| BIOWL1-15 | 2026-09-05 06:18:44 | 49.35042 | 9.00447 | 239° | 15km/h | 24766m | 4.3m/s | -51.2°C | 0% | 27.6hPa | 2.5V | 03:29:42 | 01:46:10 | 00:00:00 | |
| HSKMA3-T | 2026-09-05 06:18:43 | 49.35044 | 9.00451 | 227° | 13km/h | 24762m | 4.3m/s | -51.1°C | 0% | 27.6hPa | 2.7V | 03:29:42 | 01:46:09 | 00:00:00 | |
| DO3MHA-11 | 2026-09-05 06:18:43 | 49.35044 | 9.00451 | 228° | 15km/h | 24762m | 4.3m/s | -51.1°C | 3.2% | 27.6hPa | 2.5V | 00:00:00 | 01:46:09 | 00:00:00 | |
| OE5DRO-10 | 2026-09-05 06:18:42 | 49.35046 | 9.00453 | 204° | 18km/h | 24757m | 5.1m/s | -51.1°C | 3.3% | 27.6hPa | 2.5V | 00:00:00 | 00:00:00 | 00:00:00 | |
| DK7TD | 2026-09-05 06:18:42 | 49.35046 | 9.00454 | 203° | 9km/h | 24757m | 5.1m/s | -51.1°C | 0% | 27.7hPa | 2.7V | 03:29:42 | 01:46:08 | 00:00:00 | |
| DL6DJ-15 | 2026-09-05 06:18:41 | 49.35048 | 9.00454 | 169° | 7km/h | 24752m | 5.4m/s | -51.1°C | 0.5% | 27.7hPa | 2.5V | 00:00:00 | 00:00:00 | 00:00:00 | |
| NBG1-10 | 2026-09-05 06:18:40 | 49.35050 | 9.00453 | 155° | 24km/h | 24747m | 4.9m/s | -51.0°C | 3.3% | 27.6hPa | 2.5V | 00:00:00 | 01:46:06 | 00:00:00 | |
| DM0DOS-11 | 2026-09-05 06:18:39 | 49.35075 | 9.00463 | 210° | 24km/h | 24717m | 4m/s | -51°C | 3.2% | 27.8hPa | 2.5V | 03:29:06 | 01:46:00 | 00:00:00 | |
| DL1XH-west | 2026-09-05 06:18:39 | 49.35053 | 9.00451 | 161° | 13km/h | 24742m | 4.3m/s | -50.9°C | 0% | 27.7hPa | 2.5V | 03:29:42 | 01:46:05 | 00:00:00 | |
| DL1XH1-15 | 2026-09-05 06:18:38 | 49.35080 | 9.00467 | 204° | 22km/h | 24713m | 5.4m/s | -51.1°C | 3.2% | 27.8hPa | 2.5V | 03:29:07 | 01:45:59 | 00:00:00 | |
| DK5PH-5 | 2026-09-05 06:18:38 | 49.35056 | 9.00450 | 176° | 26km/h | 24738m | 4.5m/s | -50.9°C | 3.2% | 27.7hPa | 2.7V | 00:00:00 | 01:46:04 | 00:00:00 | |
| DL1XH-15 | 2026-09-05 06:18:36 | 49.35089 | 9.00469 | 170° | 16km/h | 24701m | 5.6m/s | -51.1°C | 3.2% | 27.9hPa | 2.7V | 03:29:09 | 01:45:57 | 00:00:00 | |
| DF8AY | 2026-09-05 06:18:34 | 49.35075 | 9.00462 | 211° | 24km/h | 24717m | 4m/s | -51°C | 0% | 27.8hPa | 2.5V | 03:29:42 | 01:46:00 | 00:00:00 | |
| HSKMA3-T | 2026-09-05 06:18:33 | 49.35080 | 9.00467 | 204° | 22km/h | 24713m | 5.4m/s | -51.1°C | 0% | 27.8hPa | 2.5V | 03:29:42 | 01:45:59 | 00:00:00 | |
| DK7TD | 2026-09-05 06:18:32 | 49.35085 | 9.00469 | 191° | 18km/h | 24707m | 6.1m/s | -51.1°C | 0% | 27.9hPa | 2.7V | 03:29:42 | 01:45:58 | 00:00:00 | |
| SONDE2-11 | 2026-09-05 06:18:31 | 49.35089 | 9.00469 | 170° | 16km/h | 24701m | 5.6m/s | -51.1°C | 0.5% | 27.9hPa | 2.5V | 00:00:00 | 00:00:00 | 00:00:00 | |
| DG9SBQ-11 | 2026-09-05 06:18:30 | 49.35089 | 9.00469 | 172° | 16km/h | 24701m | 5.6m/s | -51.1°C | 0.5% | 27.9hPa | 2.5V | 03:29:00 | 00:00:00 | 00:00:00 | |
| DM0DOS-11 | 2026-09-05 06:18:29 | 49.35126 | 9.00452 | 167° | 31km/h | 24663m | 6.2m/s | -51°C | 3.2% | 28.1hPa | 2.5V | 03:29:16 | 01:45:50 | 00:00:00 | |
| BIOWL9-15 | 2026-09-05 06:18:29 | 49.35102 | 9.00461 | 157° | 18km/h | 24685m | 6.0m/s | -51.1°C | 0.5% | 28.0hPa | 2.7V | 00:00:00 | 00:00:00 | 00:00:00 | |
| DL1XH1-15 | 2026-09-05 06:18:28 | 49.35134 | 9.00449 | 166° | 35km/h | 24657m | 4.9m/s | -50.9°C | 3.2% | 28.1hPa | 2.7V | 03:29:17 | 01:45:49 | 00:00:00 | |
| DL1XH-west | 2026-09-05 06:18:28 | 49.35102 | 9.00461 | 157° | 20km/h | 24685m | 6m/s | -51.1°C | 0% | 28hPa | 2.7V | 03:29:42 | 01:45:54 | 00:00:00 | |
| DF8AY | 2026-09-05 06:18:24 | 49.35126 | 9.00452 | 167° | 31km/h | 24663m | 6.2m/s | -51°C | 0% | 28.1hPa | 2.5V | 03:29:42 | 01:45:50 | 00:00:00 | |
| BIOWL1-15 | 2026-09-05 06:18:23 | 49.35134 | 9.00449 | 166° | 35km/h | 24657m | 4.9m/s | -50.9°C | 0% | 28.1hPa | 2.7V | 03:29:42 | 01:45:49 | 00:00:00 | |
| DK7TD | 2026-09-05 06:18:22 | 49.35143 | 9.00446 | 169° | 35km/h | 24653m | 3.6m/s | -50.9°C | 0% | 28.1hPa | 2.7V | 03:29:42 | 01:45:48 | 00:00:00 | |
| DO3DL | 2026-09-05 06:18:21 | 49.35143 | 9.00446 | 170° | 35km/h | 24653m | 3.6m/s | -50.9°C | 0.5% | 28.1hPa | 2.5V | 03:29:00 | 00:00:00 | 00:00:00 | |
| DL4BBY-15 | 2026-09-05 06:18:20 | 49.35160 | 9.00443 | 177° | 24km/h | 24644m | 5.5m/s | -51.8°C | 0% | 0hPa | 2.5V | 00:00:00 | 00:00:00 | 00:00:00 | |
| DM0DOS-11 | 2026-09-05 06:18:19 | 49.35201 | 9.00430 | 153° | 26km/h | 24614m | 4.5m/s | -50.9°C | 3.2% | 28.3hPa | 2.5V | 03:29:26 | 01:45:40 | 00:00:00 | |
| DL1XH1-15 | 2026-09-05 06:18:18 | 49.35207 | 9.00426 | 155° | 24km/h | 24609m | 5.9m/s | -50.9°C | 3.1% | 28.3hPa | 2.7V | 03:29:27 | 01:45:39 | 00:00:00 | |
| DL1XH-west | 2026-09-05 06:18:17 | 49.35182 | 9.00441 | 171° | 27km/h | 24629m | 5.1m/s | -50.8°C | 0% | 28.2hPa | 2.7V | 03:29:42 | 01:45:43 | 00:00:00 | |
| DB0NH | 2026-09-05 06:18:17 | 49.35182 | 9.00441 | 171° | 22km/h | 24630m | 5.0m/s | -50.8°C | 3.1% | 28.2hPa | 2.5V | 00:00:00 | 01:45:43 | 00:00:00 | |
| DL1NUX | 2026-09-05 06:18:16 | 49.35218 | 9.00420 | 160° | 22km/h | 24598m | 4.3m/s | -51.1°C | 3.3% | 28.4hPa | 2.5V | 03:29:29 | 01:45:37 | 00:00:00 | |
| DF8AY | 2026-09-05 06:18:13 | 49.35207 | 9.00426 | 156° | 24km/h | 24609m | 5.9m/s | -50.9°C | 0% | 28.3hPa | 2.7V | 03:29:42 | 01:45:39 | 00:00:00 | |
| HSKMA3-T | 2026-09-05 06:18:12 | 49.35212 | 9.00422 | 159° | 22km/h | 24603m | 5.2m/s | -51°C | 0% | 28.4hPa | 2.7V | 03:29:42 | 01:45:38 | 00:00:00 | |
| DK7TD | 2026-09-05 06:18:11 | 49.35218 | 9.00420 | 161° | 22km/h | 24598m | 4.4m/s | -51.1°C | 0% | 28.4hPa | 2.5V | 03:29:42 | 01:45:37 | 00:00:00 | |
| DL6DJ-15 | 2026-09-05 06:18:10 | 49.35223 | 9.00417 | 159° | 24km/h | 24594m | 4.7m/s | -51.0°C | 0.5% | 28.4hPa | 2.5V | 00:00:00 | 00:00:00 | 00:00:00 | |
| DM0DOS-11 | 2026-09-05 06:18:09 | 49.35257 | 9.00401 | 185° | 16km/h | 24564m | 5.3m/s | -51.1°C | 3.2% | 28.5hPa | 2.5V | 03:29:36 | 01:45:30 | 00:00:00 | |
| DL1XH1-15 | 2026-09-05 06:18:08 | 49.35261 | 9.00402 | 188° | 18km/h | 24559m | 4.9m/s | -51.1°C | 3.3% | 28.5hPa | 2.5V | 03:29:37 | 01:45:29 | 00:00:00 | |
| DK5PH-5 | 2026-09-05 06:18:08 | 49.35235 | 9.00409 | 157° | 20km/h | 24584m | 4.5m/s | -50.9°C | 3.1% | 28.4hPa | 2.7V | 00:00:00 | 01:45:34 | 00:00:00 | |
| NBG1-10 | 2026-09-05 06:18:07 | 49.35241 | 9.00405 | 160° | 20km/h | 24580m | 3.9m/s | -51.1°C | 3.2% | 28.4hPa | 2.7V | 00:00:00 | 01:45:33 | 00:00:00 | |
| DL1XH-15 | 2026-09-05 06:18:06 | 49.35271 | 9.00403 | 176° | 22km/h | 24548m | 5.3m/s | -51.2°C | 3.4% | 28.6hPa | 2.6V | 03:29:39 | 01:45:27 | 00:00:00 | |
| DL1XH-west | 2026-09-05 06:18:06 | 49.35247 | 9.00402 | 166° | 22km/h | 24575m | 5m/s | -51.3°C | 0% | 28.4hPa | 2.6V | 03:29:42 | 01:45:32 | 00:00:00 | |
| DJ2DS-15 | 2026-09-05 06:18:05 | 49.35252 | 9.00401 | 175° | 18km/h | 24570m | 6.0m/s | -51.2°C | 3.3% | 28.4hPa | 2.7V | 00:00:00 | 01:45:31 | 00:00:00 | |
| DL3AQ-11 | 2026-09-05 06:18:04 | 49.35298 | 9.00398 | 164° | 18km/h | 24524m | 4.4m/s | -51.0°C | -1.0% | -1.0hPa | 2.7V | 00:00:00 | 00:00:00 | 00:00:00 | |
| DL1NUX | 2026-09-05 06:18:03 | 49.35287 | 9.00400 | 174° | 22km/h | 24533m | 5.8m/s | -51.1°C | 3.2% | 28.6hPa | 2.7V | 03:29:42 | 01:45:24 | 00:00:00 | |
| DF8AY | 2026-09-05 06:18:02 | 49.35266 | 9.00403 | 184° | 18km/h | 24553m | 5.5m/s | -51.2°C | 0% | 28.5hPa | 2.7V | 03:29:42 | 01:45:28 | 00:00:00 | |
| HSKMA3-T | 2026-09-05 06:18:02 | 49.35271 | 9.00403 | 177° | 22km/h | 24548m | 5.3m/s | -51.2°C | 0% | 28.6hPa | 2.6V | 03:29:42 | 01:45:27 | 00:00:00 | |
| DK7TD | 2026-09-05 06:18:00 | 49.35276 | 9.00402 | 174° | 22km/h | 24543m | 4.4m/s | -51.2°C | 0% | 28.6hPa | 2.5V | 03:29:42 | 01:45:26 | 00:00:00 | |
| DM0DOS-11 | 2026-09-05 06:17:59 | 49.35306 | 9.00391 | 140° | 20km/h | 24514m | 6.1m/s | -51°C | 3.1% | 28.7hPa | 2.5V | 03:29:46 | 01:45:20 | 00:00:00 | |
| DL1XH1-15 | 2026-09-05 06:17:58 | 49.35310 | 9.00385 | 133° | 22km/h | 24508m | 4.9m/s | -51°C | 3.1% | 28.8hPa | 2.7V | 03:29:47 | 01:45:19 | 00:00:00 | |
| BIOWL9-15 | 2026-09-05 06:17:58 | 49.35293 | 9.00399 | 173° | 20km/h | 24528m | 4.9m/s | -51.1°C | 0.5% | 28.7hPa | 2.7V | 00:00:00 | 00:00:00 | 00:00:00 | |
| DL1XH-15 | 2026-09-05 06:17:56 | 49.35317 | 9.00374 | 134° | 16km/h | 24499m | 4.7m/s | -51.1°C | 3.2% | 28.8hPa | 2.7V | 03:29:49 | 01:45:17 | 00:00:00 | |
| DL1XH-west | 2026-09-05 06:17:55 | 49.35302 | 9.00395 | 152° | 20km/h | 24519m | 4.6m/s | -51°C | 0% | 28.7hPa | 2.5V | 03:30:33 | 01:45:21 | 00:00:00 | |
| DF8AY | 2026-09-05 06:17:51 | 49.35317 | 9.00374 | 135° | 16km/h | 24499m | 4.7m/s | -51.1°C | 0% | 28.8hPa | 2.7V | 03:30:33 | 01:45:17 | 00:00:00 | |
| BIOWL1-15 | 2026-09-05 06:17:50 | 49.35320 | 9.00370 | 148° | 13km/h | 24494m | 5.8m/s | -51.2°C | 0% | 28.8hPa | 2.5V | 03:30:33 | 01:45:16 | 00:00:00 | |
| DL1XH1-15 | 2026-09-05 06:17:48 | 49.35352 | 9.00363 | 162° | 22km/h | 24459m | 5.7m/s | -51°C | 3.2% | 29hPa | 2.7V | 03:29:57 | 01:45:09 | 00:00:00 | |
| DB0NH | 2026-09-05 06:17:47 | 49.35330 | 9.00368 | 183° | 22km/h | 24479m | 5.1m/s | -51.1°C | 3.4% | 28.9hPa | 2.7V | 00:00:00 | 01:45:13 | 00:00:00 | |
| DL1XH-15 | 2026-09-05 06:17:46 | 49.35360 | 9.00357 | 144° | 16km/h | 24449m | 4.7m/s | -51°C | 3.2% | 29hPa | 2.5V | 03:29:59 | 01:45:07 | 00:00:00 | |
| DL1XH-west | 2026-09-05 06:17:45 | 49.35341 | 9.00367 | 170° | 22km/h | 24469m | 4.5m/s | -51.1°C | 0% | 28.9hPa | 2.5V | 03:30:33 | 01:45:11 | 00:00:00 | |
| BIOWL1-15 | 2026-09-05 06:17:40 | 49.35363 | 9.00352 | 130° | 18km/h | 24444m | 4.9m/s | -51°C | 0% | 29.1hPa | 2.5V | 03:30:33 | 01:45:06 | 00:00:00 | |
| DL6DJ-15 | 2026-09-05 06:17:39 | 49.35366 | 9.00346 | 121° | 18km/h | 24439m | 6.3m/s | -51.0°C | 0.5% | 29.1hPa | 2.7V | 00:00:00 | 00:00:00 | 00:00:00 | |
| DK5PH-5 | 2026-09-05 06:17:38 | 49.35369 | 9.00340 | 121° | 22km/h | 24433m | 5.2m/s | -51.0°C | 3.2% | 29.1hPa | 2.7V | 00:00:00 | 01:45:04 | 00:00:00 | |
| DL1NUX | 2026-09-05 06:17:37 | 49.35391 | 9.00324 | 180° | 24km/h | 24405m | 5.2m/s | -51°C | 3.2% | 29.2hPa | 2.7V | 03:30:08 | 01:44:58 | 00:00:00 | |
| DL1XH-west | 2026-09-05 06:17:34 | 49.35381 | 9.00323 | 178° | 16km/h | 24414m | 4.4m/s | -50.8°C | 0% | 29.2hPa | 2.5V | 03:30:33 | 01:45:00 | 00:00:00 | |
| DK7TD | 2026-09-05 06:17:30 | 49.35405 | 9.00321 | 164° | 31km/h | 24394m | 4.7m/s | -50.8°C | 0% | 29.2hPa | 2.5V | 03:30:33 | 01:44:56 | 00:00:00 | |
| HSKMA3-T | 2026-09-05 06:17:29 | 49.35412 | 9.00317 | 158° | 31km/h | 24389m | 3.9m/s | -50.9°C | 0% | 29.3hPa | 2.5V | 03:30:33 | 01:44:55 | 00:00:00 | |
| SONDE2-11 | 2026-09-05 06:17:29 | 49.35412 | 9.00317 | 157° | 31km/h | 24390m | 3.9m/s | -50.9°C | 0.5% | 29.3hPa | 2.7V | 00:00:00 | 00:00:00 | 00:00:00 | |
| OE5DXL-15 | 2026-09-05 06:17:28 | 49.35419 | 9.00312 | 154° | 20km/h | 24386m | 4.4m/s | -50.9°C | 3.2% | 29.3hPa | 2.7V | 00:00:00 | 00:00:00 | 00:00:00 | |
| DL1NUX | 2026-09-05 06:17:27 | 49.35448 | 9.00280 | 140° | 24km/h | 24354m | 5.4m/s | -51°C | 3.1% | 29.4hPa | 2.7V | 03:30:18 | 01:44:48 | 00:00:00 | |
| BIOWL1-15 | 2026-09-05 06:17:27 | 49.35426 | 9.00307 | 150° | 27km/h | 24381m | 5.3m/s | -50.9°C | 0% | 29.3hPa | 2.7V | 03:30:33 | 01:44:53 | 00:00:00 | |
| DL1XH-west | 2026-09-05 06:17:23 | 49.35444 | 9.00286 | 140° | 22km/h | 24360m | 5.7m/s | -51°C | 0% | 29.4hPa | 2.7V | 03:30:33 | 01:44:49 | 00:00:00 | |
| BIOWL1-15 | 2026-09-05 06:17:20 | 49.35474 | 9.00261 | 166° | 18km/h | 24324m | 5.4m/s | -51.2°C | 0% | 29.6hPa | 2.7V | 03:30:33 | 01:44:42 | 00:00:00 | |
| DL4BBY-15 | 2026-09-05 06:17:20 | 49.35457 | 9.00270 | 148° | 18km/h | 24344m | 5.2m/s | -52.1°C | 0% | 0hPa | 2.5V | 00:00:00 | 00:00:00 | 00:00:00 | |
| DM0DOS-11 | 2026-09-05 06:17:19 | 49.35484 | 9.00255 | 156° | 22km/h | 24313m | 4.6m/s | -51°C | 3.2% | 29.7hPa | 2.5V | 03:30:26 | 01:44:40 | 00:00:00 | |
| DF8AY | 2026-09-05 06:17:19 | 49.35462 | 9.00266 | 154° | 18km/h | 24339m | 6m/s | -51.2°C | 0% | 29.5hPa | 2.5V | 03:30:33 | 01:44:45 | 00:00:00 | |
| HSKMA3-T | 2026-09-05 06:17:18 | 49.35466 | 9.00264 | 163° | 16km/h | 24333m | 4.9m/s | -51.1°C | 0% | 29.6hPa | 2.5V | 03:30:33 | 01:44:44 | 00:00:00 | |
| DL1NUX | 2026-09-05 06:17:17 | 49.35493 | 9.00247 | 143° | 20km/h | 24304m | 5.7m/s | -51°C | 3.2% | 29.7hPa | 2.7V | 03:30:28 | 01:44:38 | 00:00:00 | |
| DL1XH-west | 2026-09-05 06:17:13 | 49.35489 | 9.00252 | 150° | 22km/h | 24309m | 4.6m/s | -51°C | 0% | 29.7hPa | 2.7V | 03:30:33 | 01:44:39 | 00:00:00 | |
| DO3MHA-11 | 2026-09-05 06:17:13 | 49.35488 | 9.00251 | 151° | 22km/h | 24309m | 4.5m/s | -51.0°C | 3.1% | 29.6hPa | 2.5V | 00:00:00 | 01:44:39 | 00:00:00 | |
| DO8TBO-1 | 2026-09-05 06:17:12 | 49.35493 | 9.00247 | 144° | 16km/h | 24304m | 5.6m/s | -51.0°C | 3.2% | 29.6hPa | 2.5V | 00:00:00 | 01:44:38 | 00:00:00 | |
| DL1ZP-14 | 2026-09-05 06:17:11 | 49.35497 | 9.00243 | 133° | 16km/h | 24298m | 5.7m/s | -51.1°C | 0.5% | 29.7hPa | 2.5V | 00:00:00 | 00:00:00 | 00:00:00 | |
| DM0DOS-11 | 2026-09-05 06:17:09 | 49.35518 | 9.00191 | 120° | 20km/h | 24261m | 5.9m/s | -51°C | 3.2% | 29.9hPa | 2.5V | 03:30:36 | 01:44:30 | 00:00:00 | |
| DK7TD | 2026-09-05 06:17:09 | 49.35502 | 9.00231 | 121° | 20km/h | 24288m | 4.4m/s | -51.1°C | 0% | 29.8hPa | 2.5V | 03:30:33 | 01:44:35 | 00:00:00 | |
| HSKMA3-T | 2026-09-05 06:17:08 | 49.35505 | 9.00224 | 121° | 24km/h | 24283m | 6.1m/s | -51.1°C | 0% | 29.8hPa | 2.7V | 03:30:33 | 01:44:34 | 00:00:00 | |
| DK5PH-5 | 2026-09-05 06:17:08 | 49.35505 | 9.00224 | 121° | 16km/h | 24283m | 6.0m/s | -51.1°C | 3.2% | 29.7hPa | 2.7V | 03:30:00 | 01:44:34 | 00:00:00 | |
| DO3DL | 2026-09-05 06:17:07 | 49.35505 | 9.00223 | 122° | 24km/h | 24283m | 6.1m/s | -51.1°C | 0.5% | 29.8hPa | 2.7V | 03:30:00 | 00:00:00 | 00:00:00 | |
| DL1NUX | 2026-09-05 06:17:06 | 49.35526 | 9.00177 | 149° | 13km/h | 24245m | 6.4m/s | -51.2°C | 3.2% | 29.9hPa | 2.7V | 03:30:39 | 01:44:27 | 00:00:00 | |
| BIOWL1-15 | 2026-09-05 06:17:06 | 49.35512 | 9.00206 | 123° | 27km/h | 24272m | 4.4m/s | -51°C | 0% | 29.8hPa | 2.7V | 03:31:24 | 01:44:32 | 00:00:00 | |
| DL1XH-west | 2026-09-05 06:17:03 | 49.35521 | 9.00185 | 125° | 16km/h | 24256m | 5.1m/s | -51.1°C | 0% | 29.9hPa | 2.5V | 03:31:24 | 01:44:29 | 00:00:00 | |
| DF3TZ-5 | 2026-09-05 06:17:03 | 49.35523 | 9.00180 | 136° | 13km/h | 24251m | 5.1m/s | -51.1°C | 0.5% | 29.9hPa | 2.5V | 00:00:00 | 00:00:00 | 00:00:00 | |
| SONCRA | 2026-09-05 06:17:00 | 49.35529 | 9.00175 | 162° | 13km/h | 24240m | 5.4m/s | -51.2°C | 0.5% | 30.0hPa | 2.5V | 00:00:00 | 00:00:00 | 00:00:00 | |
| DM0DOS-11 | 2026-09-05 06:16:59 | 49.35545 | 9.00162 | 128° | 18km/h | 24208m | 6.2m/s | -51.4°C | 3.3% | 30.1hPa | 2.5V | 03:30:46 | 01:44:20 | 00:00:00 | |
| HSKMA3-T | 2026-09-05 06:16:58 | 49.35535 | 9.00173 | 170° | 11km/h | 24229m | 5.9m/s | -51.3°C | 0% | 30hPa | 2.7V | 03:31:24 | 01:44:24 | 00:00:00 | |
| BIOWL1-15 | 2026-09-05 06:16:56 | 49.35540 | 9.00170 | 143° | 11km/h | 24218m | 4.3m/s | -51.3°C | 0% | 30.1hPa | 2.5V | 03:31:24 | 01:44:22 | 00:00:00 | |
| BIOWL9-15 | 2026-09-05 06:16:56 | 49.35542 | 9.00167 | 131° | 13km/h | 24213m | 5.1m/s | -51.4°C | 0.5% | 30.1hPa | 2.5V | 00:00:00 | 00:00:00 | 00:00:00 | |
| DO3DL | 2026-09-05 06:16:55 | 49.35542 | 9.00167 | 133° | 15km/h | 24214m | 5.1m/s | -51.4°C | 0.5% | 30.1hPa | 2.5V | 03:31:00 | 00:00:00 | 00:00:00 | |
| DG1MJG | 2026-09-05 06:16:54 | 49.35542 | 9.00167 | 133° | 15km/h | 24214m | 5.1m/s | -51.4°C | 0.5% | 30.1hPa | 2.5V | 03:31:00 | 00:00:00 | 00:00:00 | |
| DL1NUX | 2026-09-05 06:16:53 | 49.35559 | 9.00120 | 122° | 16km/h | 24177m | 5.2m/s | -51.5°C | 3.2% | 30.3hPa | 2.5V | 03:30:52 | 01:44:14 | 00:00:00 | |
| DL1XH-west | 2026-09-05 06:16:52 | 49.35551 | 9.00148 | 118° | 24km/h | 24197m | 4.3m/s | -51.4°C | 0% | 30.2hPa | 2.7V | 03:31:24 | 01:44:18 | 00:00:00 | |
| DF7PN | 2026-09-05 06:16:52 | 49.35553 | 9.00140 | 112° | 22km/h | 24193m | 6.0m/s | -51.4°C | 0.5% | 30.2hPa | 2.5V | 00:00:00 | 00:00:00 | 00:00:00 | |
| AU51GT2 | 2026-09-05 06:16:51 | 49.35553 | 9.00140 | 112° | 22km/h | 24193m | 6.0m/s | -51.4°C | 0.5% | 30.2hPa | 2.5V | 00:00:00 | 00:00:00 | 00:00:00 | |
| DJTTGO | 2026-09-05 06:16:50 | 49.35555 | 9.00132 | 110° | 20km/h | 24187m | 5.2m/s | -51.5°C | 0.5% | 30.2hPa | 2.5V | 03:31:00 | 00:00:00 | 00:00:00 | |
| DM0DOS-11 | 2026-09-05 06:16:49 | 49.35569 | 9.00111 | 185° | 7km/h | 24156m | 6.4m/s | -51.8°C | 3.3% | 30.4hPa | 2.5V | 03:30:56 | 01:44:10 | 00:00:00 | |
| DL1XH1-15 | 2026-09-05 06:16:48 | 49.35571 | 9.00111 | 204° | 7km/h | 24150m | 5m/s | -51.8°C | 3.3% | 30.4hPa | 2.5V | 03:30:57 | 01:44:09 | 00:00:00 | |
| DK7TD | 2026-09-05 06:16:48 | 49.35559 | 9.00120 | 123° | 16km/h | 24177m | 5.2m/s | -51.5°C | 0% | 0hPa | 2.5V | 03:31:24 | 01:44:14 | 00:00:00 | |
| HSKMA3-T | 2026-09-05 06:16:47 | 49.35561 | 9.00116 | 138° | 15km/h | 24172m | 5.7m/s | -51.5°C | 0% | 30.3hPa | 2.7V | 03:31:24 | 01:44:13 | 00:00:00 | |
| BIOWL1-15 | 2026-09-05 06:16:47 | 49.35567 | 9.00111 | 168° | 11km/h | 24161m | 5m/s | -51.6°C | 0% | 30.4hPa | 2.5V | 03:31:24 | 01:44:11 | 00:00:00 | |
| DJ2DS-15 | 2026-09-05 06:16:45 | 49.35567 | 9.00111 | 168° | 16km/h | 24162m | 5.0m/s | -51.6°C | 3.2% | 30.3hPa | 2.5V | 00:00:00 | 01:44:11 | 00:00:00 | |
| DL1NUX | 2026-09-05 06:16:43 | 49.35587 | 9.00114 | 166° | 18km/h | 24124m | 4.6m/s | -51.7°C | 3.5% | 30.5hPa | 2.5V | 03:31:02 | 01:44:04 | 00:00:00 | |
| DL1XH-west | 2026-09-05 06:16:41 | 49.35575 | 9.00114 | 196° | 13km/h | 24140m | 5.3m/s | -51.8°C | 0% | 30.4hPa | 2.7V | 03:31:24 | 01:44:07 | 00:00:00 | |
| DL1ZP-14 | 2026-09-05 06:16:40 | 49.35578 | 9.00115 | 185° | 15km/h | 24135m | 6.1m/s | -51.7°C | 0.6% | 30.5hPa | 2.7V | 00:00:00 | 00:00:00 | 00:00:00 | |
| DM0DOS-11 | 2026-09-05 06:16:39 | 49.35601 | 9.00105 | 149° | 13km/h | 24104m | 4.2m/s | -51.5°C | 3.3% | 30.6hPa | 2.5V | 03:31:06 | 01:44:00 | 00:00:00 | |
| DL1XH1-15 | 2026-09-05 06:16:38 | 49.35604 | 9.00102 | 152° | 16km/h | 24099m | 5.8m/s | -51.5°C | 3.3% | 30.6hPa | 2.5V | 03:31:07 | 01:43:59 | 00:00:00 | |
| DK7TD | 2026-09-05 06:16:38 | 49.35587 | 9.00114 | 167° | 18km/h | 24124m | 4.6m/s | -51.8°C | 0% | 0hPa | 2.5V | 03:31:24 | 01:44:04 | 00:00:00 | |
| DF8AY | 2026-09-05 06:16:36 | 49.35595 | 9.00110 | 154° | 15km/h | 24113m | 5.2m/s | -51.8°C | 0% | 30.6hPa | 2.7V | 03:31:24 | 01:44:02 | 00:00:00 | |
| BIOWL1-15 | 2026-09-05 06:16:35 | 49.35598 | 9.00107 | 149° | 13km/h | 24108m | 4m/s | -51.7°C | 0% | 30.6hPa | 2.6V | 03:31:24 | 01:44:01 | 00:00:00 | |
| DB0UT-7 | 2026-09-05 06:16:35 | 49.35598 | 9.00107 | 149° | 24km/h | 24109m | 4.0m/s | -51.6°C | 3.4% | 30.5hPa | 2.5V | 00:00:00 | 01:44:01 | 00:00:00 | |
| DM7RM-13 | 2026-09-05 06:16:34 | 49.35598 | 9.00107 | 150° | 13km/h | 24109m | 4.0m/s | -51.7°C | 0.6% | 30.6hPa | 2.5V | 03:31:00 | 00:00:00 | 00:00:00 | |
| DL1NUX | 2026-09-05 06:16:33 | 49.35626 | 9.00086 | 147° | 16km/h | 24073m | 5.8m/s | -51.6°C | 3.2% | 30.8hPa | 2.5V | 03:31:12 | 01:43:54 | 00:00:00 | |
| DL1XH-west | 2026-09-05 06:16:30 | 49.35618 | 9.00093 | 157° | 22km/h | 24083m | 4.6m/s | -51.7°C | 0% | 30.7hPa | 2.5V | 03:31:24 | 01:43:56 | 00:00:00 | |
| SONCRA | 2026-09-05 06:16:29 | 49.35622 | 9.00090 | 152° | 18km/h | 24079m | 5.4m/s | -51.6°C | 0.5% | 30.7hPa | 2.5V | 00:00:00 | 00:00:00 | 00:00:00 | |
| DL1XH1-15 | 2026-09-05 06:16:28 | 49.35645 | 9.00072 | 155° | 22km/h | 24046m | 4.5m/s | -51.5°C | 3.3% | 30.9hPa | 2.5V | 03:31:17 | 01:43:49 | 00:00:00 | |
| DK7TD | 2026-09-05 06:16:27 | 49.35630 | 9.00083 | 146° | 15km/h | 24067m | 5.2m/s | -51.6°C | 0% | 0hPa | 2.7V | 03:31:24 | 01:43:53 | 00:00:00 | |
| HSKMA3-T | 2026-09-05 06:16:26 | 49.35633 | 9.00080 | 152° | 15km/h | 24062m | 5.1m/s | -51.6°C | 0% | 30.8hPa | 2.7V | 03:31:24 | 01:43:52 | 00:00:00 | |
| DO2KSM | 2026-09-05 06:16:26 | 49.35630 | 9.00083 | 147° | 15km/h | 24068m | 5.2m/s | 0°C | 0% | 0hPa | 2.7V | 03:31:00 | 00:00:00 | 00:00:00 | |
| BIOWL1-15 | 2026-09-05 06:16:26 | 49.35640 | 9.00075 | 161° | 18km/h | 24051m | 5.3m/s | -51.5°C | 0% | 30.9hPa | 2.5V | 03:31:24 | 01:43:50 | 00:00:00 | |
| DJ2DS-15 | 2026-09-05 06:16:25 | 49.35636 | 9.00077 | 158° | 26km/h | 24057m | 5.8m/s | -51.6°C | 3.3% | 30.8hPa | 2.7V | 00:00:00 | 01:43:51 | 00:00:00 | |
| BIOWL9-15 | 2026-09-05 06:16:24 | 49.35640 | 9.00075 | 160° | 18km/h | 24051m | 5.3m/s | -51.5°C | 0.5% | 30.9hPa | 2.5V | 00:00:00 | 00:00:00 | 00:00:00 | |
| DO3MHA-11 | 2026-09-05 06:16:23 | 49.35645 | 9.00072 | 156° | 27km/h | 24046m | 4.5m/s | -51.4°C | 3.3% | 30.9hPa | 2.5V | 03:31:00 | 01:43:49 | 00:00:00 | |
| DF2AP-13 | 2026-09-05 06:16:22 | 49.35650 | 9.00068 | 147° | 31km/h | 24041m | 5.0m/s | -51.4°C | 3.2% | 30.9hPa | 2.5V | 00:00:00 | 01:43:48 | 00:00:00 | |
| DF7PN | 2026-09-05 06:16:21 | 49.35658 | 9.00055 | 123° | 26km/h | 24030m | 5.6m/s | -51.3°C | 0.5% | 31.0hPa | 2.5V | 00:00:00 | 00:00:00 | 00:00:00 | |
| DL1NUX | 2026-09-05 06:16:20 | 49.35682 | 9.00009 | 135° | 29km/h | 24003m | 4.1m/s | -51.3°C | 3.3% | 31.1hPa | 2.5V | 03:31:25 | 01:43:41 | 00:00:00 | |
| DL1XH-west | 2026-09-05 06:16:20 | 49.35658 | 9.00055 | 124° | 27km/h | 24030m | 5.6m/s | -51.3°C | 0% | 31hPa | 2.7V | 03:31:24 | 01:43:46 | 00:00:00 | |
| DL1XH1-15 | 2026-09-05 06:16:18 | 49.35690 | 8.99994 | 127° | 24km/h | 23993m | 6.2m/s | -51.3°C | 3.2% | 31.2hPa | 2.5V | 03:31:27 | 01:43:39 | 00:00:00 | |
| DB0ND-19 | 2026-09-05 06:16:18 | 49.35666 | 9.00036 | 123° | 29km/h | 24019m | 5.1m/s | -51.4°C | 0.5% | 31.0hPa | 2.7V | 00:00:00 | 00:00:00 | 00:00:00 | |
| SFWM-10 | 2026-09-05 06:16:17 | 49.35666 | 9.00036 | 125° | 31km/h | 24019m | 5.1m/s | -51.4°C | 0.5% | 31.0hPa | 2.7V | 03:31:00 | 00:00:00 | 00:00:00 | |
| DL1XH-15 | 2026-09-05 06:16:16 | 49.35696 | 8.99979 | 115° | 20km/h | 23982m | 5.2m/s | -51.5°C | 3.2% | 31.2hPa | 2.7V | 03:31:29 | 01:43:37 | 00:00:00 | |
| DK7TD | 2026-09-05 06:16:16 | 49.35676 | 9.00017 | 134° | 31km/h | 24008m | 5.1m/s | 0°C | 0% | 0hPa | 2.7V | 03:31:24 | 01:43:42 | 00:00:00 | |
| HSKMA3-T | 2026-09-05 06:16:15 | 49.35681 | 9.00009 | 136° | 29km/h | 24003m | 4.1m/s | -51.3°C | 0% | 31.1hPa | 2.5V | 03:32:15 | 01:43:41 | 00:00:00 | |
| BIOWL1-15 | 2026-09-05 06:16:14 | 49.35686 | 9.00001 | 133° | 26km/h | 23999m | 4.9m/s | -51.3°C | 0% | 31.1hPa | 2.5V | 03:32:15 | 01:43:40 | 00:00:00 | |
| DL1XH-west | 2026-09-05 06:16:09 | 49.35701 | 8.99964 | 123° | 24km/h | 23971m | 5.7m/s | -51.5°C | 0% | 31.3hPa | 2.5V | 03:32:15 | 01:43:35 | 00:00:00 | |
| DL1XH1-15 | 2026-09-05 06:16:08 | 49.35726 | 8.99890 | 112° | 42km/h | 23939m | 4.6m/s | -51.4°C | 3.1% | 31.4hPa | 2.5V | 03:31:37 | 01:43:29 | 00:00:00 | |
| DK5PH-5 | 2026-09-05 06:16:08 | 49.35705 | 8.99956 | 125° | 37km/h | 23966m | 4.6m/s | -51.3°C | 3.2% | 31.3hPa | 2.5V | 00:00:00 | 01:43:34 | 00:00:00 | |
| DL1NUX | 2026-09-05 06:16:07 | 49.35730 | 8.99876 | 115° | 40km/h | 23934m | 6m/s | -51.5°C | 3.2% | 31.4hPa | 2.5V | 03:31:38 | 01:43:28 | 00:00:00 | |
| DL1XH-15 | 2026-09-05 06:16:06 | 49.35735 | 8.99862 | 118° | 37km/h | 23928m | 5.5m/s | -51.4°C | 3.2% | 31.5hPa | 2.7V | 03:31:39 | 01:43:27 | 00:00:00 | |
| DK7TD | 2026-09-05 06:16:06 | 49.35714 | 8.99934 | 118° | 37km/h | 23956m | 5.9m/s | 0°C | 0% | 0hPa | 2.7V | 18:12:15 | 01:43:32 | 00:00:00 | |
| DF8AY | 2026-09-05 06:16:05 | 49.35718 | 8.99921 | 113° | 40km/h | 23950m | 6.4m/s | -51.5°C | 0% | 31.4hPa | 2.7V | 03:32:15 | 01:43:31 | 00:00:00 | |
| HSKMA3-T | 2026-09-05 06:16:04 | 49.35722 | 8.99906 | 111° | 42km/h | 23944m | 5.2m/s | -51.4°C | 0% | 31.4hPa | 2.5V | 03:32:15 | 01:43:30 | 00:00:00 | |
| BIOWL1-15 | 2026-09-05 06:16:04 | 49.35726 | 8.99890 | 112° | 42km/h | 23939m | 4.6m/s | -51.4°C | 0% | 31.4hPa | 2.5V | 03:32:15 | 01:43:29 | 00:00:00 | |
| DL1XH-west | 2026-09-05 06:15:59 | 49.35743 | 8.99839 | 115° | 31km/h | 23918m | 5m/s | -51.4°C | 0% | 31.5hPa | 2.7V | 03:32:15 | 01:43:25 | 00:00:00 | |
| DL1XH1-15 | 2026-09-05 06:15:58 | 49.35754 | 8.99773 | 108° | 31km/h | 23886m | 4.5m/s | -51.7°C | 3.3% | 31.7hPa | 2.5V | 03:31:47 | 01:43:19 | 00:00:00 | |
| OE5DXL-15 | 2026-09-05 06:15:58 | 49.35746 | 8.99829 | 110° | 35km/h | 23913m | 6.2m/s | -51.5°C | 3.3% | 31.5hPa | 2.5V | 03:31:00 | 00:00:00 | 00:00:00 | |
| DL1NUX | 2026-09-05 06:15:57 | 49.35757 | 8.99761 | 106° | 31km/h | 23881m | 4.5m/s | -51.8°C | 3.3% | 31.7hPa | 2.5V | 03:31:48 | 01:43:18 | 00:00:00 | |
| EDDB2-12 | 2026-09-05 06:15:57 | 49.35749 | 8.99806 | 99° | 29km/h | 23902m | 4.8m/s | -51.6°C | 0.5% | 31.6hPa | 2.7V | 00:00:00 | 00:00:00 | 00:00:00 | |
| DL1XH-15 | 2026-09-05 06:15:56 | 49.35759 | 8.99749 | 103° | 35km/h | 23876m | 5.7m/s | -51.9°C | 3.3% | 31.7hPa | 2.7V | 03:31:49 | 01:43:17 | 00:00:00 | |
| DF8AY | 2026-09-05 06:15:55 | 49.35751 | 8.99795 | 101° | 29km/h | 23897m | 5.9m/s | -51.6°C | 0% | 31.6hPa | 2.7V | 03:32:15 | 01:43:21 | 00:00:00 | |
| BIOWL1-15 | 2026-09-05 06:15:53 | 49.35754 | 8.99773 | 108° | 31km/h | 23886m | 4.5m/s | -51.7°C | 0% | 31.7hPa | 2.5V | 03:32:15 | 01:43:19 | 00:00:00 | |
| DJ2DS-15 | 2026-09-05 06:15:51 | 49.35759 | 8.99749 | 103° | 33km/h | 23876m | 5.7m/s | -51.9°C | 0.5% | 31.7hPa | 2.7V | 00:00:00 | 00:00:00 | 00:00:00 | |
| DL4BBY-15 | 2026-09-05 06:15:50 | 49.35761 | 8.99735 | 100° | 31km/h | 23870m | 6.2m/s | -52.8°C | 0% | 0hPa | 2.7V | 00:00:00 | 00:00:00 | 00:00:00 | |
| DM0DOS-11 | 2026-09-05 06:15:49 | 49.35775 | 8.99638 | 99° | 44km/h | 23838m | 5.5m/s | -52.1°C | 3.4% | 31.9hPa | 2.7V | 03:31:56 | 01:43:10 | 00:00:00 | |
| DL1XH-west | 2026-09-05 06:15:49 | 49.35762 | 8.99720 | 99° | 40km/h | 23864m | 5.6m/s | -51.9°C | 0% | 31.8hPa | 2.5V | 03:32:15 | 01:43:15 | 00:00:00 | |
| DL0LBS | 2026-09-05 06:15:47 | 49.35764 | 8.99704 | 102° | 44km/h | 23859m | 5.5m/s | -51.9°C | 0.6% | 31.8hPa | 2.5V | 03:32:00 | 00:00:00 | 00:00:00 | |
| DL1XH-15 | 2026-09-05 06:15:46 | 49.35776 | 8.99592 | 89° | 35km/h | 23822m | 4.7m/s | -52.1°C | 3.4% | 32hPa | 2.5V | 03:31:59 | 01:43:07 | 00:00:00 | |
| DF8AY | 2026-09-05 06:15:44 | 49.35774 | 8.99638 | 100° | 44km/h | 23838m | 5.6m/s | -52.1°C | 0% | 31.9hPa | 2.7V | 03:32:15 | 01:43:10 | 00:00:00 | |
| BIOWL1-15 | 2026-09-05 06:15:42 | 49.35776 | 8.99606 | 90° | 38km/h | 23827m | 4.8m/s | -52.1°C | 0% | 32hPa | 2.5V | 03:32:15 | 01:43:08 | 00:00:00 | |
| DG9SBQ-11 | 2026-09-05 06:15:41 | 49.35776 | 8.99592 | 90° | 35km/h | 23823m | 4.7m/s | -52.1°C | 0.5% | 32.0hPa | 2.5V | 03:32:00 | 00:00:00 | 00:00:00 | |
| DM0DOS-11 | 2026-09-05 06:15:39 | 49.35775 | 8.99517 | 84° | 31km/h | 23785m | 4.5m/s | -51.7°C | 3.3% | 32.2hPa | 2.5V | 03:32:06 | 01:43:00 | 00:00:00 | |
| DL1XH-west | 2026-09-05 06:15:39 | 49.35776 | 8.99568 | 94° | 27km/h | 23811m | 5.6m/s | -52°C | 0% | 32.1hPa | 2.7V | 03:32:15 | 01:43:05 | 00:00:00 | |
| DL1XH1-15 | 2026-09-05 06:15:38 | 49.35775 | 8.99505 | 88° | 33km/h | 23780m | 5.5m/s | -51.7°C | 3.3% | 32.2hPa | 2.5V | 03:32:07 | 01:42:59 | 00:00:00 | |
| DB0NH | 2026-09-05 06:15:38 | 49.35777 | 8.99558 | 94° | 26km/h | 23806m | 4.8m/s | -51.9°C | 3.4% | 32.0hPa | 2.7V | 00:00:00 | 01:43:04 | 00:00:00 | |
| DL1XH-15 | 2026-09-05 06:15:36 | 49.35776 | 8.99479 | 96° | 33km/h | 23769m | 4.9m/s | -51.6°C | 3.3% | 32.3hPa | 2.7V | 03:32:09 | 01:42:57 | 00:00:00 | |
| DF8AY | 2026-09-05 06:15:34 | 49.35775 | 8.99517 | 84° | 31km/h | 23785m | 4.5m/s | -51.7°C | 0% | 32.2hPa | 2.5V | 03:32:15 | 01:43:00 | 00:00:00 | |
| HSKMA3-T | 2026-09-05 06:15:31 | 49.35776 | 8.99479 | 97° | 33km/h | 23769m | 4.9m/s | -51.7°C | 0% | 32.3hPa | 2.7V | 03:32:15 | 01:42:57 | 00:00:00 | |
| DL1NUX | 2026-09-05 06:15:30 | 49.35775 | 8.99415 | 89° | 18km/h | 23739m | 5.8m/s | -51.6°C | 3.3% | 32.4hPa | 2.7V | 03:32:15 | 01:42:51 | 00:00:00 | |
| DF3TZ-5 | 2026-09-05 06:15:30 | 49.35777 | 8.99454 | 91° | 31km/h | 23759m | 6.0m/s | -51.8°C | 0.5% | 32.3hPa | 2.7V | 00:00:00 | 00:00:00 | 00:00:00 | |
| DM0DOS-11 | 2026-09-05 06:15:29 | 49.35775 | 8.99409 | 94° | 16km/h | 23734m | 4.9m/s | -51.8°C | 3.3% | 32.4hPa | 2.7V | 03:32:16 | 01:42:50 | 00:00:00 | |
| OE5DRO-10 | 2026-09-05 06:15:29 | 49.35777 | 8.99453 | 92° | 24km/h | 23759m | 5.9m/s | -51.7°C | 3.3% | 32.3hPa | 2.5V | 03:32:00 | 00:00:00 | 00:00:00 | |
| DL1XH1-15 | 2026-09-05 06:15:28 | 49.35775 | 8.99402 | 93° | 18km/h | 23729m | 4.3m/s | -51.8°C | 3.3% | 32.5hPa | 2.5V | 03:32:17 | 01:42:49 | 00:00:00 | |
| DL1XH-west | 2026-09-05 06:15:28 | 49.35777 | 8.99442 | 85° | 29km/h | 23753m | 5.1m/s | -51.8°C | 0% | 32.4hPa | 2.5V | 03:32:15 | 01:42:54 | 00:00:00 | |
| OE5DXL-15 | 2026-09-05 06:15:28 | 49.35777 | 8.99442 | 86° | 22km/h | 23754m | 5.1m/s | -51.7°C | 3.4% | 32.3hPa | 2.5V | 00:00:00 | 00:00:00 | 00:00:00 | |
| SONCRA | 2026-09-05 06:15:27 | 49.35776 | 8.99432 | 81° | 24km/h | 23749m | 4.2m/s | -51.8°C | -1.0% | 32.4hPa | 2.7V | 00:00:00 | 00:00:00 | 00:00:00 | |
| DL1XH-15 | 2026-09-05 06:15:26 | 49.35775 | 8.99386 | 82° | 24km/h | 23718m | 5.5m/s | -51.8°C | 3.2% | 32.5hPa | 2.7V | 03:32:19 | 01:42:47 | 00:00:00 | |
| DF8AY | 2026-09-05 06:15:23 | 49.35775 | 8.99402 | 94° | 18km/h | 23729m | 4.3m/s | -51.8°C | 0% | 32.5hPa | 2.5V | 03:33:06 | 01:42:49 | 00:00:00 | |
| HSKMA3-T | 2026-09-05 06:15:21 | 49.35775 | 8.99386 | 83° | 24km/h | 23718m | 5.5m/s | -51.8°C | 0% | 32.5hPa | 2.7V | 03:33:06 | 01:42:47 | 00:00:00 | |
| SO1NDE-10 | 2026-09-05 06:15:20 | 49.35774 | 8.99375 | 81° | 15km/h | 23713m | 4.7m/s | -51.8°C | 3.3% | 32.5hPa | 2.7V | 00:00:00 | 01:42:46 | 00:00:00 | |
| DM0DOS-11 | 2026-09-05 06:15:19 | 49.35773 | 8.99309 | 83° | 26km/h | 23683m | 5.5m/s | -51.9°C | 3.4% | 32.7hPa | 2.7V | 03:32:26 | 01:42:40 | 00:00:00 | |
| DL1XH1-15 | 2026-09-05 06:15:18 | 49.35772 | 8.99300 | 72° | 24km/h | 23677m | 5.6m/s | -51.9°C | 3.4% | 32.7hPa | 2.5V | 03:32:27 | 01:42:39 | 00:00:00 | |
| DL1XH-west | 2026-09-05 06:15:17 | 49.35773 | 8.99341 | 92° | 31km/h | 23698m | 5.4m/s | -51.8°C | 0% | 32.6hPa | 2.5V | 03:33:06 | 01:42:43 | 00:00:00 | |
| DL1XH-15 | 2026-09-05 06:15:16 | 49.35767 | 8.99286 | 52° | 16km/h | 23668m | 4.2m/s | -51.9°C | 3.4% | 32.8hPa | 2.5V | 03:32:29 | 01:42:37 | 00:00:00 | |
| DF8AY | 2026-09-05 06:15:13 | 49.35772 | 8.99300 | 72° | 24km/h | 23677m | 5.6m/s | -51.9°C | 0% | 32.7hPa | 2.5V | 03:33:06 | 01:42:39 | 00:00:00 | |
| HSKMA3-T | 2026-09-05 06:15:11 | 49.35767 | 8.99286 | 53° | 16km/h | 23668m | 4.2m/s | -51.9°C | 0% | 32.8hPa | 2.5V | 03:33:06 | 01:42:37 | 00:00:00 | |
| DO8TBO-1 | 2026-09-05 06:15:11 | 49.35767 | 8.99286 | 53° | 13km/h | 23669m | 4.1m/s | -51.8°C | 3.4% | 32.7hPa | 2.7V | 00:00:00 | 01:42:37 | 00:00:00 | |
| OE5DRO-10 | 2026-09-05 06:15:10 | 49.35764 | 8.99281 | 51° | 15km/h | 23664m | 5.6m/s | -51.9°C | 3.4% | 32.8hPa | 2.7V | 00:00:00 | 00:00:00 | 00:00:00 | |
| DL1XH1-15 | 2026-09-05 06:15:08 | 49.35750 | 8.99239 | 73° | 24km/h | 23629m | 4.8m/s | -52°C | 3.3% | 33hPa | 2.7V | 03:32:37 | 01:42:29 | 00:00:00 | |
| DL1XH-west | 2026-09-05 06:15:07 | 49.35759 | 8.99270 | 58° | 15km/h | 23649m | 4.4m/s | -52°C | 0% | 32.9hPa | 2.5V | 03:33:06 | 01:42:33 | 00:00:00 | |
| DL1XH-15 | 2026-09-05 06:15:06 | 49.35748 | 8.99223 | 76° | 18km/h | 23619m | 4.2m/s | -52.1°C | 3.4% | 33hPa | 2.5V | 03:32:39 | 01:42:27 | 00:00:00 | |
| DF8AY | 2026-09-05 06:15:03 | 49.35750 | 8.99239 | 74° | 24km/h | 23629m | 4.8m/s | -52°C | 0% | 33hPa | 2.7V | 03:33:06 | 01:42:29 | 00:00:00 | |
| BIOWL1-15 | 2026-09-05 06:15:00 | 49.35746 | 8.99217 | 68° | 15km/h | 23615m | 3.7m/s | -52.1°C | 0% | 33hPa | 2.5V | 03:33:06 | 01:42:26 | 00:00:00 | |
| DM0DOS-11 | 2026-09-05 06:14:59 | 49.35731 | 8.99206 | 342° | 7km/h | 23587m | 5m/s | -52.1°C | 3.4% | 33.2hPa | 2.7V | 03:32:46 | 01:42:20 | 00:00:00 | |
| DL1XH-west | 2026-09-05 06:14:57 | 49.35739 | 8.99206 | 19° | 13km/h | 23601m | 4.2m/s | -52.1°C | 0% | 33.1hPa | 2.5V | 03:33:06 | 01:42:23 | 00:00:00 | |
| EDDB2-12 | 2026-09-05 06:14:55 | 49.35731 | 8.99206 | 342° | 5km/h | 23587m | 5.0m/s | -52.1°C | 0.6% | 33.2hPa | 2.5V | 00:00:00 | 00:00:00 | 00:00:00 | |
| SONDE2-11 | 2026-09-05 06:14:54 | 49.35730 | 8.99207 | 348° | 5km/h | 23582m | 4.1m/s | -52.2°C | 0.6% | 33.2hPa | 2.5V | 00:00:00 | 00:00:00 | 00:00:00 | |
| DO3MHA-11 | 2026-09-05 06:14:53 | 49.35730 | 8.99207 | 349° | 9km/h | 23582m | 4.1m/s | -52.1°C | 3.4% | 33.2hPa | 2.5V | 00:00:00 | 01:42:19 | 00:00:00 | |
| DF2AP-13 | 2026-09-05 06:14:52 | 49.35728 | 8.99206 | 12° | 9km/h | 23578m | 5.0m/s | -52.2°C | 3.5% | 33.2hPa | 2.5V | 03:32:00 | 01:42:18 | 00:00:00 | |
| DL1XH-15 | 2026-09-05 06:14:51 | 49.35715 | 8.99190 | 43° | 7km/h | 23548m | 4m/s | -52.2°C | 3.4% | 33.4hPa | 2.5V | 03:32:54 | 01:42:12 | 00:00:00 | |
| DF8AY | 2026-09-05 06:14:51 | 49.35726 | 8.99205 | 27° | 11km/h | 23572m | 5.6m/s | -52.3°C | 0% | 33.3hPa | 2.5V | 03:33:06 | 01:42:17 | 00:00:00 | |
| DL4BBY-15 | 2026-09-05 06:14:50 | 49.35723 | 8.99203 | 37° | 9km/h | 23567m | 4.5m/s | -53.1°C | 0% | 0hPa | 2.7V | 00:00:00 | 00:00:00 | 00:00:00 | |
| DM0DOS-11 | 2026-09-05 06:14:49 | 49.35711 | 8.99189 | 1° | 7km/h | 23539m | 5.2m/s | -52.3°C | 3.5% | 33.5hPa | 2.7V | 03:32:56 | 01:42:10 | 00:00:00 | |
| HSKMA3-T | 2026-09-05 06:14:49 | 49.35720 | 8.99200 | 42° | 15km/h | 23563m | 4.1m/s | -52.3°C | 0% | 33.3hPa | 2.7V | 03:33:06 | 01:42:15 | 00:00:00 | |
| DL1XH1-15 | 2026-09-05 06:14:48 | 49.35709 | 8.99189 | 352° | 11km/h | 23534m | 5m/s | -52.2°C | 3.4% | 33.5hPa | 2.7V | 03:32:57 | 01:42:09 | 00:00:00 | |
| DL1XH-west | 2026-09-05 06:14:47 | 49.35716 | 8.99193 | 51° | 9km/h | 23553m | 4.9m/s | -52.3°C | 0% | 33.4hPa | 2.5V | 03:33:06 | 01:42:13 | 00:00:00 | |
| DL1KLB | 2026-09-05 06:14:46 | 49.35716 | 8.99193 | 52° | 9km/h | 23553m | 4.9m/s | -52.3°C | 0.6% | 33.4hPa | 2.5V | 00:00:00 | 00:00:00 | 00:00:00 | |
| DJ2DS-15 | 2026-09-05 06:14:45 | 49.35713 | 8.99189 | 23° | 9km/h | 23544m | 4.2m/s | -52.2°C | 3.4% | 33.4hPa | 2.5V | 00:00:00 | 01:42:11 | 00:00:00 | |
| DO3MHA-11 | 2026-09-05 06:14:43 | 49.35709 | 8.99189 | 353° | 9km/h | 23535m | 4.9m/s | -52.1°C | 3.4% | 33.4hPa | 2.5V | 00:00:00 | 01:42:09 | 00:00:00 | |
| DJTTGO | 2026-09-05 06:14:42 | 49.35709 | 8.99189 | 354° | 11km/h | 23535m | 5.0m/s | -52.2°C | 0.6% | 33.5hPa | 2.5V | 03:33:00 | 00:00:00 | 00:00:00 | |
| DL1XH-15 | 2026-09-05 06:14:41 | 49.35701 | 8.99201 | 296° | 11km/h | 23500m | 5.4m/s | -52.1°C | 3.4% | 33.6hPa | 2.5V | 03:33:04 | 01:42:02 | 00:00:00 | |
| DO8TBO-1 | 2026-09-05 06:14:41 | 49.35704 | 8.99190 | 339° | 7km/h | 23525m | 4.5m/s | -52.1°C | 3.4% | 33.5hPa | 2.5V | 00:00:00 | 01:42:07 | 00:00:00 | |
| DF8AY | 2026-09-05 06:14:41 | 49.35704 | 8.99191 | 338° | 9km/h | 23525m | 4.5m/s | -52.1°C | 0% | 33.5hPa | 2.5V | 03:33:06 | 01:42:07 | 00:00:00 | |
| DG9SBQ-11 | 2026-09-05 06:14:40 | 49.35704 | 8.99190 | 339° | 9km/h | 23525m | 4.5m/s | -52.1°C | 0.6% | 33.5hPa | 2.7V | 03:33:00 | 00:00:00 | 00:00:00 | |
| HARRO8 | 2026-09-05 06:14:39 | 49.35702 | 8.99195 | 274° | 5km/h | 23510m | 4.2m/s | -52.0°C | 0.6% | 33.6hPa | 2.7V | 00:00:00 | 00:00:00 | 00:00:00 | |
| DL1XH1-15 | 2026-09-05 06:14:38 | 49.35696 | 8.99213 | 296° | 11km/h | 23486m | 5.5m/s | -52°C | 3.3% | 33.7hPa | 2.7V | 03:33:07 | 01:41:59 | 00:00:00 | |
| HSKMA3-T | 2026-09-05 06:14:38 | 49.35702 | 8.99195 | 274° | 5km/h | 23510m | 4.2m/s | -52°C | 0% | 33.6hPa | 2.5V | 03:33:06 | 01:42:04 | 00:00:00 | |
| BIOWL1-15 | 2026-09-05 06:14:37 | 49.35702 | 8.99198 | 282° | 7km/h | 23506m | 5.1m/s | -52°C | 0% | 33.6hPa | 2.5V | 03:33:06 | 01:42:03 | 00:00:00 | |
| DL1XH-west | 2026-09-05 06:14:36 | 49.35701 | 8.99201 | 296° | 11km/h | 23500m | 5.4m/s | -52.1°C | 0% | 33.6hPa | 2.5V | 03:33:06 | 01:42:02 | 00:00:00 | |
| DF8AY | 2026-09-05 06:14:31 | 49.35694 | 8.99221 | 323° | 5km/h | 23471m | 4.9m/s | 0°C | 0% | 33.8hPa | 2.5V | 03:33:57 | 01:41:56 | 00:00:00 | |
| HEMX73-11 | 2026-09-05 06:14:30 | 49.35695 | 8.99219 | 299° | 5km/h | 23476m | 4.7m/s | -52.1°C | 0.5% | 33.8hPa | 2.7V | 03:33:00 | 00:00:00 | 00:00:00 | |
| OE5DRO-10 | 2026-09-05 06:14:29 | 49.35692 | 8.99222 | 339° | 7km/h | 23466m | 5.8m/s | -51.9°C | 3.4% | 33.8hPa | 2.7V | 00:00:00 | 00:00:00 | 00:00:00 | |
| DL1XH1-15 | 2026-09-05 06:14:28 | 49.35685 | 8.99229 | 281° | 5km/h | 23437m | 4.6m/s | -52°C | 3.4% | 34hPa | 2.7V | 03:33:17 | 01:41:49 | 00:00:00 | |
| HSKMA3-T | 2026-09-05 06:14:27 | 49.35688 | 8.99224 | 345° | 9km/h | 23457m | 3.7m/s | -51.9°C | 0% | 33.9hPa | 2.5V | 03:33:57 | 01:41:53 | 00:00:00 | |
| BIOWL1-15 | 2026-09-05 06:14:26 | 49.35685 | 8.99227 | 273° | 4km/h | 23442m | 4.5m/s | -52°C | 0% | 34hPa | 2.7V | 03:33:57 | 01:41:50 | 00:00:00 | |
| DL1XH-west | 2026-09-05 06:14:25 | 49.35685 | 8.99226 | 310° | 4km/h | 23447m | 5.4m/s | -52°C | 0% | 33.9hPa | 2.5V | 03:33:57 | 01:41:51 | 00:00:00 | |
| DF8AY | 2026-09-05 06:14:19 | 49.35682 | 8.99242 | 281° | 11km/h | 23418m | 4.8m/s | 0°C | 0% | 0hPa | 2.5V | 03:33:57 | 01:41:45 | 00:00:00 | |
| DL1XH1-15 | 2026-09-05 06:14:18 | 49.35683 | 8.99261 | 302° | 7km/h | 23389m | 4.1m/s | -52.1°C | 3.4% | 34.2hPa | 2.5V | 03:33:27 | 01:41:39 | 00:00:00 | |
| HSKMA3-T | 2026-09-05 06:14:17 | 49.35682 | 8.99249 | 251° | 9km/h | 23408m | 4.6m/s | -52°C | 0% | 34.1hPa | 2.7V | 03:33:57 | 01:41:43 | 00:00:00 | |
| DL1XH-west | 2026-09-05 06:14:14 | 49.35683 | 8.99258 | 286° | 7km/h | 23394m | 5.2m/s | -52.1°C | 0% | 34.2hPa | 2.5V | 03:33:57 | 01:41:40 | 00:00:00 | |
| DB0ND-19 | 2026-09-05 06:14:14 | 49.35683 | 8.99261 | 302° | 5km/h | 23390m | 4.1m/s | -52.2°C | 0.6% | 34.2hPa | 2.7V | 00:00:00 | 00:00:00 | 00:00:00 | |
| DO3MHA-11 | 2026-09-05 06:14:13 | 49.35682 | 8.99260 | 303° | 4km/h | 23390m | 4.1m/s | -52.1°C | 3.4% | 34.2hPa | 2.7V | 00:00:00 | 01:41:39 | 00:00:00 | |
| NBG1-10 | 2026-09-05 06:14:12 | 49.35681 | 8.99264 | 291° | 11km/h | 23381m | 5.6m/s | -52.2°C | 3.4% | 34.2hPa | 2.7V | 00:00:00 | 01:41:37 | 00:00:00 | |
| DO8TBO-1 | 2026-09-05 06:14:11 | 49.35681 | 8.99264 | 291° | 5km/h | 23381m | 5.6m/s | -52.2°C | 3.4% | 34.2hPa | 2.7V | 03:33:00 | 01:41:37 | 00:00:00 | |
| OE5DRO-10 | 2026-09-05 06:14:10 | 49.35681 | 8.99264 | 232° | 5km/h | 23376m | 4.9m/s | -52.1°C | 3.4% | 34.3hPa | 2.7V | 03:33:00 | 00:00:00 | 00:00:00 | |
| DL1NUX | 2026-09-05 06:14:09 | 49.35679 | 8.99273 | 280° | 5km/h | 23346m | 6m/s | -52.1°C | 3.4% | 34.5hPa | 2.7V | 03:33:36 | 01:41:30 | 00:00:00 | |
| DF8AY | 2026-09-05 06:14:09 | 49.35682 | 8.99265 | 228° | 2km/h | 23371m | 4.3m/s | 0°C | 0% | 0hPa | 2.7V | 03:33:57 | 01:41:35 | 00:00:00 | |
| DB0NH | 2026-09-05 06:14:08 | 49.35682 | 8.99266 | 282° | 5km/h | 23367m | 4.9m/s | -52.1°C | 3.4% | 34.3hPa | 2.5V | 00:00:00 | 01:41:34 | 00:00:00 | |
| DL1XH-15 | 2026-09-05 06:14:07 | 49.35679 | 8.99277 | 274° | 4km/h | 23336m | 4.2m/s | -52°C | 3.4% | 34.5hPa | 2.5V | 03:33:38 | 01:41:28 | 00:00:00 | |
| HSKMA3-T | 2026-09-05 06:14:07 | 49.35681 | 8.99267 | 310° | 5km/h | 23361m | 5.5m/s | -52.1°C | 0% | 34.4hPa | 2.5V | 03:33:57 | 01:41:33 | 00:00:00 | |
| DL1XH-west | 2026-09-05 06:14:04 | 49.35679 | 8.99273 | 280° | 5km/h | 23346m | 6m/s | -52.1°C | 0% | 34.5hPa | 2.7V | 03:33:57 | 01:41:30 | 00:00:00 | |
| DB0UT-7 | 2026-09-05 06:14:04 | 49.35679 | 8.99273 | 281° | 5km/h | 23346m | 5.9m/s | -52.0°C | 3.4% | 34.4hPa | 2.7V | 00:00:00 | 00:00:00 | 00:00:00 | |
| DO3MHA-11 | 2026-09-05 06:14:03 | 49.35679 | 8.99275 | 264° | 4km/h | 23341m | 4.5m/s | -51.9°C | 3.4% | 34.5hPa | 2.7V | 00:00:00 | 01:41:29 | 00:00:00 | |
| DL6DJ-15 | 2026-09-05 06:14:01 | 49.35679 | 8.99278 | 307° | 4km/h | 23332m | 5.4m/s | -51.9°C | 0.5% | 34.6hPa | 2.7V | 00:00:00 | 00:00:00 | 00:00:00 | |
| HTAHTA | 2026-09-05 06:14:00 | 49.35676 | 8.99282 | 230° | 2km/h | 23312m | 5.6m/s | -51.9°C | 0.6% | 34.6hPa | 2.7V | 00:00:00 | 00:00:00 | 00:00:00 | |
| DM0DOS-11 | 2026-09-05 06:13:59 | 49.35679 | 8.99286 | 246° | 4km/h | 23299m | 4.6m/s | -52°C | 3.4% | 34.7hPa | 2.7V | 03:33:46 | 01:41:20 | 00:00:00 | |
| DF8AY | 2026-09-05 06:13:59 | 49.35677 | 8.99280 | 324° | 4km/h | 23321m | 4.1m/s | 0°C | 0% | 0hPa | 2.7V | 03:33:57 | 01:41:25 | 00:00:00 | |
| OE5DXL-15 | 2026-09-05 06:13:58 | 49.35676 | 8.99281 | 289° | 5km/h | 23318m | 4.7m/s | -51.9°C | 3.5% | 34.6hPa | 2.7V | 03:33:00 | 00:00:00 | 00:00:00 | |
| DL1XH-15 | 2026-09-05 06:13:57 | 49.35678 | 8.99290 | 329° | 9km/h | 23289m | 4.7m/s | -52°C | 3.4% | 34.8hPa | 2.6V | 03:33:48 | 01:41:18 | 00:00:00 | |
| HSKMA3-T | 2026-09-05 06:13:56 | 49.35677 | 8.99283 | 211° | 5km/h | 23307m | 4.2m/s | -51.9°C | 0% | 34.7hPa | 2.5V | 03:33:57 | 01:41:22 | 00:00:00 | |
| DL1XH-west | 2026-09-05 06:13:53 | 49.35679 | 8.99288 | 298° | 5km/h | 23294m | 5.5m/s | -51.9°C | 0% | 34.8hPa | 2.7V | 03:33:57 | 01:41:19 | 00:00:00 | |
| EDDB2-12 | 2026-09-05 06:13:53 | 49.35678 | 8.99290 | 329° | 7km/h | 23289m | 4.7m/s | -52.0°C | 0.6% | 34.8hPa | 2.6V | 00:00:00 | 00:00:00 | 00:00:00 | |
| DF2AP-13 | 2026-09-05 06:13:52 | 49.35678 | 8.99290 | 330° | 7km/h | 23289m | 4.7m/s | -51.9°C | 3.4% | 34.7hPa | 2.6V | 00:00:00 | 01:41:18 | 00:00:00 | |
| OE5DRO-10 | 2026-09-05 06:13:51 | 49.35676 | 8.99291 | 340° | 7km/h | 23285m | 4.2m/s | -52.0°C | 3.4% | 34.7hPa | 2.7V | 00:00:00 | 00:00:00 | 00:00:00 | |
| CB1BUN | 2026-09-05 06:13:50 | 49.35676 | 8.99291 | 340° | 9km/h | 23285m | 4.2m/s | -52.1°C | 0.6% | 34.8hPa | 2.7V | 03:33:00 | 00:00:00 | 00:00:00 | |
| DM0DOS-11 | 2026-09-05 06:13:49 | 49.35672 | 8.99283 | 84° | 9km/h | 23251m | 4.9m/s | -51.9°C | 3.4% | 35hPa | 2.7V | 03:33:56 | 01:41:10 | 00:00:00 | |
| DF8AY | 2026-09-05 06:13:48 | 49.35672 | 8.99292 | 61° | 2km/h | 23270m | 5m/s | 0°C | 0% | 0hPa | 2.7V | 03:33:57 | 01:41:14 | 00:00:00 | |
| DL1XH1-15 | 2026-09-05 06:13:48 | 49.35672 | 8.99279 | 89° | 9km/h | 23246m | 4.4m/s | -51.9°C | 3.5% | 35hPa | 2.6V | 03:33:57 | 01:41:09 | 00:00:00 | |
| DL3AQ-11 | 2026-09-05 06:13:48 | 49.35672 | 8.99291 | 104° | 4km/h | 23266m | 4.2m/s | 0°C | -1.0% | -1.0hPa | 2.5V | 00:00:00 | 00:00:00 | 00:00:00 | |
| DL1XH-15 | 2026-09-05 06:13:46 | 49.35673 | 8.99272 | 116° | 9km/h | 23236m | 5.1m/s | -51.8°C | 3.4% | 35hPa | 2.5V | 03:33:59 | 01:41:07 | 00:00:00 | |
| HSKMA3-T | 2026-09-05 06:13:45 | 49.35672 | 8.99286 | 90° | 9km/h | 23256m | 5.6m/s | -52°C | 0% | 35hPa | 2.5V | 03:33:57 | 01:41:11 | 00:00:00 | |
| DF8AY | 2026-09-05 06:13:43 | 49.35675 | 8.99265 | 67° | 5km/h | 23222m | 5.8m/s | 0°C | 0% | 0hPa | 2.7V | 18:12:15 | 01:41:04 | 00:00:00 | |
| DL1XH-west | 2026-09-05 06:13:42 | 49.35672 | 8.99276 | 101° | 9km/h | 23241m | 5.5m/s | -51.8°C | 0% | 35hPa | 2.5V | 03:34:48 | 01:41:08 | 00:00:00 | |
| DO8TBO-1 | 2026-09-05 06:13:41 | 49.35673 | 8.99272 | 117° | 9km/h | 23236m | 5.1m/s | -51.7°C | 3.4% | 35.0hPa | 2.5V | 00:00:00 | 01:41:07 | 00:00:00 | |
| DL4BBY-15 | 2026-09-05 06:13:40 | 49.35673 | 8.99269 | 121° | 11km/h | 23232m | 4.0m/s | -52.6°C | 0% | 0hPa | 2.5V | 00:00:00 | 00:00:00 | 00:00:00 | |
| DL1NUX | 2026-09-05 06:13:39 | 49.35668 | 8.99261 | 0° | 5km/h | 23202m | 5.6m/s | -51.6°C | 3.3% | 35.3hPa | 2.5V | 03:34:06 | 01:41:00 | 00:00:00 | |
| DL1XH1-15 | 2026-09-05 06:13:38 | 49.35667 | 8.99261 | 351° | 2km/h | 23197m | 4.9m/s | -51.6°C | 3.3% | 35.3hPa | 2.7V | 03:34:07 | 01:40:59 | 00:00:00 | |
| DB0NH | 2026-09-05 06:13:38 | 49.35675 | 8.99265 | 68° | 11km/h | 23222m | 5.8m/s | -51.8°C | 3.4% | 35.1hPa | 2.5V | 00:00:00 | 01:41:04 | 00:00:00 | |
| HARRO8 | 2026-09-05 06:13:37 | 49.35672 | 8.99262 | 16° | 7km/h | 23212m | 4.2m/s | -51.5°C | 0.6% | 35.2hPa | 2.5V | 00:00:00 | 00:00:00 | 00:00:00 | |
| DL1XH-15 | 2026-09-05 06:13:36 | 49.35666 | 8.99260 | 49° | 4km/h | 23187m | 5.4m/s | -51.5°C | 3.3% | 35.3hPa | 2.5V | 03:34:09 | 01:40:57 | 00:00:00 | |
| HSKMA3-T | 2026-09-05 06:13:35 | 49.35670 | 8.99261 | 9° | 7km/h | 23207m | 4.4m/s | -51.6°C | 0% | 35.2hPa | 2.5V | 03:34:48 | 01:41:01 | 00:00:00 | |
| DL1XH-west | 2026-09-05 06:13:32 | 49.35667 | 8.99261 | 23° | 2km/h | 23193m | 4.6m/s | -51.6°C | 0% | 35.3hPa | 2.7V | 03:34:48 | 01:40:58 | 00:00:00 | |
| BIOWL1-15 | 2026-09-05 06:13:31 | 49.35666 | 8.99260 | 49° | 4km/h | 23187m | 5.4m/s | -51.5°C | 0% | 35.3hPa | 2.5V | 03:34:48 | 01:40:57 | 00:00:00 | |
| CB1BUN | 2026-09-05 06:13:30 | 49.35666 | 8.99259 | 65° | 5km/h | 23182m | 5.1m/s | -51.5°C | 0.6% | 35.4hPa | 2.5V | 03:34:00 | 00:00:00 | 00:00:00 | |
| HTAHTA | 2026-09-05 06:13:29 | 49.35665 | 8.99252 | 92° | 11km/h | 23173m | 4.9m/s | -51.6°C | 0.5% | 35.4hPa | 2.5V | 00:00:00 | 00:00:00 | 00:00:00 | |
| DL1XH1-15 | 2026-09-05 06:13:28 | 49.35665 | 8.99226 | 58° | 16km/h | 23148m | 5.6m/s | -51.4°C | 3.3% | 35.5hPa | 2.5V | 03:34:17 | 01:40:49 | 00:00:00 | |
| OE5DXL-15 | 2026-09-05 06:13:28 | 49.35665 | 8.99252 | 93° | 13km/h | 23173m | 4.8m/s | -51.5°C | 3.3% | 35.4hPa | 2.7V | 00:00:00 | 00:00:00 | 00:00:00 | |
| DM0DOS-11 | 2026-09-05 06:13:27 | 49.35663 | 8.99221 | 44° | 16km/h | 23143m | 4.5m/s | -51.5°C | 3.3% | 35.5hPa | 2.7V | 03:34:18 | 01:40:48 | 00:00:00 | |
| HSKMA3-T | 2026-09-05 06:13:24 | 49.35667 | 8.99231 | 79° | 15km/h | 23153m | 5.6m/s | -51.5°C | 0% | 35.5hPa | 2.5V | 03:34:48 | 01:40:50 | 00:00:00 | |
| DJ2DS-15 | 2026-09-05 06:13:24 | 49.35667 | 8.99231 | 80° | 13km/h | 23154m | 5.5m/s | -51.4°C | 3.3% | 35.5hPa | 2.5V | 00:00:00 | 01:40:50 | 00:00:00 | |
| DL1XH-15 | 2026-09-05 06:13:23 | 49.35653 | 8.99208 | 47° | 11km/h | 23123m | 4.3m/s | -51.5°C | 3.3% | 35.7hPa | 2.7V | 03:34:22 | 01:40:44 | 00:00:00 | |
| BIOWL1-15 | 2026-09-05 06:13:22 | 49.35657 | 8.99214 | 40° | 13km/h | 23133m | 5.5m/s | -51.4°C | 0% | 35.6hPa | 2.5V | 03:34:48 | 01:40:46 | 00:00:00 | |
| DL1XH-west | 2026-09-05 06:13:22 | 49.35663 | 8.99221 | 45° | 16km/h | 23143m | 4.5m/s | -51.5°C | 0% | 35.5hPa | 2.7V | 03:34:48 | 01:40:48 | 00:00:00 | |
| DL0LBS | 2026-09-05 06:13:22 | 49.35663 | 8.99221 | 46° | 16km/h | 23143m | 4.5m/s | -51.5°C | 0.6% | 35.6hPa | 2.7V | 03:34:00 | 00:00:00 | 00:00:00 | |
| DG1MJG | 2026-09-05 06:13:20 | 49.35660 | 8.99217 | 40° | 15km/h | 23138m | 4.8m/s | -51.5°C | 0.5% | 35.6hPa | 2.7V | 03:34:00 | 00:00:00 | 00:00:00 | |
| DB0UT-9 | 2026-09-05 06:13:19 | 49.35658 | 8.99214 | 41° | 13km/h | 23133m | 5.5m/s | -51.4°C | 0.6% | 35.6hPa | 2.7V | 03:34:00 | 00:00:00 | 00:00:00 | |
| DL1XH1-15 | 2026-09-05 06:13:18 | 49.35647 | 8.99188 | 97° | 13km/h | 23099m | 5.8m/s | -51.5°C | 3.3% | 35.8hPa | 2.7V | 03:34:27 | 01:40:39 | 00:00:00 | |
| DM0DOS-11 | 2026-09-05 06:13:17 | 49.35648 | 8.99183 | 104° | 13km/h | 23094m | 4.5m/s | -51.4°C | 3.3% | 35.8hPa | 2.7V | 03:34:28 | 01:40:38 | 00:00:00 | |
| DL1NUX | 2026-09-05 06:13:16 | 49.35648 | 8.99178 | 96° | 13km/h | 23089m | 4.3m/s | -51.4°C | 3.3% | 35.9hPa | 2.7V | 03:34:29 | 01:40:37 | 00:00:00 | |
| DM3KS-11 | 2026-09-05 06:13:14 | 49.35647 | 8.99192 | 81° | 11km/h | 23104m | 4.9m/s | -51.6°C | 0.6% | 35.8hPa | 2.5V | 00:00:00 | 00:00:00 | 00:00:00 | |
| DL1XH-15 | 2026-09-05 06:13:13 | 49.35645 | 8.99165 | 46° | 16km/h | 23074m | 4.5m/s | -51.3°C | 3.2% | 36hPa | 2.5V | 03:34:32 | 01:40:34 | 00:00:00 | |
| DF8AY | 2026-09-05 06:13:13 | 49.35647 | 8.99188 | 97° | 13km/h | 23099m | 5.9m/s | 0°C | 0% | 0hPa | 2.7V | 18:12:15 | 01:40:39 | 00:00:00 | |
| HSKMA3-T | 2026-09-05 06:13:12 | 49.35648 | 8.99183 | 105° | 13km/h | 23094m | 4.5m/s | -51.4°C | 0% | 35.8hPa | 2.7V | 03:34:48 | 01:40:38 | 00:00:00 | |
| DL1XH-west | 2026-09-05 06:13:11 | 49.35648 | 8.99178 | 97° | 13km/h | 23089m | 4.3m/s | -51.4°C | 0% | 35.9hPa | 2.7V | 03:34:48 | 01:40:37 | 00:00:00 | |
| DO8TBO-1 | 2026-09-05 06:13:11 | 49.35648 | 8.99178 | 97° | 9km/h | 23090m | 4.3m/s | -51.3°C | 3.3% | 35.8hPa | 2.7V | 00:00:00 | 01:40:37 | 00:00:00 | |
| BIOWL1-15 | 2026-09-05 06:13:11 | 49.35647 | 8.99169 | 59° | 15km/h | 23079m | 5.4m/s | -51.3°C | 0% | 35.9hPa | 2.5V | 03:34:48 | 01:40:35 | 00:00:00 | |
| DL4BBY-15 | 2026-09-05 06:13:10 | 49.35648 | 8.99174 | 79° | 7km/h | 23085m | 5.3m/s | -52.1°C | 0% | 0hPa | 2.7V | 00:00:00 | 00:00:00 | 00:00:00 | |
| HEMX73-11 | 2026-09-05 06:13:09 | 49.35648 | 8.99174 | 80° | 13km/h | 23085m | 5.3m/s | -51.3°C | 0.6% | 35.9hPa | 2.7V | 03:34:00 | 00:00:00 | 00:00:00 | |
| DL3AQ-11 | 2026-09-05 06:13:08 | 49.35637 | 8.99152 | 55° | 11km/h | 23060m | 4.6m/s | 0°C | -1.0% | -1.0hPa | 2.7V | 00:00:00 | 00:00:00 | 00:00:00 | |
| DM0DOS-11 | 2026-09-05 06:13:07 | 49.35632 | 8.99142 | 51° | 11km/h | 23046m | 5.6m/s | -51.3°C | 3.1% | 36.1hPa | 2.7V | 03:34:38 | 01:40:28 | 00:00:00 | |
| HARRO8 | 2026-09-05 06:13:06 | 49.35637 | 8.99152 | 55° | 11km/h | 23060m | 4.6m/s | -51.2°C | 0.5% | 36.0hPa | 2.5V | 00:00:00 | 00:00:00 | 00:00:00 | |
| DG9SBQ-11 | 2026-09-05 06:13:05 | 49.35637 | 8.99152 | 56° | 13km/h | 23060m | 4.6m/s | -51.2°C | 0.5% | 36.0hPa | 2.5V | 03:34:00 | 00:00:00 | 00:00:00 | |
| DJ2DS-15 | 2026-09-05 06:13:04 | 49.35635 | 8.99148 | 59° | 7km/h | 23056m | 4.2m/s | -51.2°C | 3.1% | 36.0hPa | 2.5V | 03:34:00 | 01:40:30 | 00:00:00 | |
| DL1XH-15 | 2026-09-05 06:13:03 | 49.35629 | 8.99131 | 106° | 5km/h | 23026m | 5.4m/s | -51.5°C | 3.2% | 36.2hPa | 2.5V | 03:34:42 | 01:40:24 | 00:00:00 | |
| HSKMA3-T | 2026-09-05 06:13:01 | 49.35631 | 8.99138 | 48° | 11km/h | 23041m | 4.7m/s | -51.3°C | 0% | 36.1hPa | 2.7V | 03:34:48 | 01:40:27 | 00:00:00 | |
| DL1XH-west | 2026-09-05 06:13:00 | 49.35629 | 8.99136 | 55° | 9km/h | 23036m | 3.8m/s | -51.3°C | 0% | 36.2hPa | 2.7V | 03:34:48 | 01:40:26 | 00:00:00 | |
| BIOWL1-15 | 2026-09-05 06:12:59 | 49.35628 | 8.99133 | 75° | 5km/h | 23032m | 5.2m/s | -51.5°C | 0% | 36.2hPa | 2.5V | 03:34:48 | 01:40:25 | 00:00:00 | |
| DL1NUX | 2026-09-05 06:12:58 | 49.35626 | 8.99124 | 17° | 9km/h | 23003m | 4.2m/s | -51.7°C | 3.3% | 36.3hPa | 2.5V | 03:34:47 | 01:40:19 | 00:00:00 | |
| HTAHTA | 2026-09-05 06:12:58 | 49.35624 | 8.99123 | 18° | 7km/h | 22999m | 4.3m/s | -51.7°C | 0.5% | 36.4hPa | 2.5V | 00:00:00 | 00:00:00 | 00:00:00 | |
| DO3DL | 2026-09-05 06:12:57 | 49.35629 | 8.99129 | 127° | 5km/h | 23022m | 4.3m/s | -51.5°C | 0.6% | 36.3hPa | 2.5V | 00:00:00 | 00:00:00 | 00:00:00 | |
| KANTATE | 2026-09-05 06:12:54 | 49.35629 | 8.99127 | 58° | 4km/h | 23013m | 5.6m/s | -51.6°C | 0.6% | 36.3hPa | 2.5V | 03:34:00 | 00:00:00 | 00:00:00 | |
| DL1XH-15 | 2026-09-05 06:12:53 | 49.35619 | 8.99117 | 58° | 7km/h | 22979m | 5.5m/s | -51.9°C | 3.3% | 36.5hPa | 2.5V | 03:34:52 | 01:40:14 | 00:00:00 | |
| HSKMA3-T | 2026-09-05 06:12:51 | 49.35622 | 8.99122 | 29° | 7km/h | 22994m | 5.6m/s | -51.7°C | 0% | 36.4hPa | 2.7V | 03:35:39 | 01:40:17 | 00:00:00 | |
| DL1XH-west | 2026-09-05 06:12:50 | 49.35621 | 8.99121 | 49° | 5km/h | 22988m | 4.9m/s | -51.8°C | 0% | 36.4hPa | 2.5V | 03:35:39 | 01:40:16 | 00:00:00 | |
| DH7VM-15 | 2026-09-05 06:12:49 | 49.35620 | 8.99119 | 62° | 5km/h | 22984m | 4.6m/s | -51.9°C | 0.6% | 36.5hPa | 2.5V | 00:00:00 | 00:00:00 | 00:00:00 | |
| DL1NUX | 2026-09-05 06:12:48 | 49.35616 | 8.99107 | 174° | 2km/h | 22954m | 5m/s | -52.1°C | 3.4% | 36.6hPa | 2.5V | 03:34:57 | 01:40:09 | 00:00:00 | |
| BIOWL1-15 | 2026-09-05 06:12:48 | 49.35619 | 8.99117 | 58° | 7km/h | 22979m | 5.5m/s | -51.9°C | 0% | 36.5hPa | 2.5V | 03:35:39 | 01:40:14 | 00:00:00 | |
| DM0DOS-11 | 2026-09-05 06:12:47 | 49.35616 | 8.99108 | 253° | 2km/h | 22950m | 4.2m/s | -52°C | 3.3% | 36.6hPa | 2.5V | 03:34:58 | 01:40:08 | 00:00:00 | |
| DJ2DS-15 | 2026-09-05 06:12:44 | 49.35616 | 8.99108 | 95° | 5km/h | 22960m | 5.8m/s | -52.1°C | 3.4% | 36.6hPa | 2.5V | 00:00:00 | 01:40:10 | 00:00:00 | |
| DL1XH-15 | 2026-09-05 06:12:43 | 49.35610 | 8.99112 | 328° | 11km/h | 22930m | 5.4m/s | -52°C | 3.3% | 36.8hPa | 2.5V | 03:35:02 | 01:40:04 | 00:00:00 | |
| HSKMA3-T | 2026-09-05 06:12:41 | 49.35616 | 8.99108 | 333° | 4km/h | 22945m | 5.6m/s | -52.1°C | 0% | 36.7hPa | 2.7V | 03:35:39 | 01:40:07 | 00:00:00 | |
| DL1XH-west | 2026-09-05 06:12:39 | 49.35612 | 8.99110 | 336° | 11km/h | 22935m | 4.2m/s | -52.1°C | 0% | 36.7hPa | 2.5V | 03:35:39 | 01:40:05 | 00:00:00 | |
| DL1XH1-15 | 2026-09-05 06:12:38 | 49.35599 | 8.99117 | 37° | 7km/h | 22907m | 4m/s | -52.1°C | 3.4% | 36.9hPa | 2.5V | 03:35:07 | 01:39:59 | 00:00:00 | |
| DB0NH | 2026-09-05 06:12:38 | 49.35610 | 8.99112 | 329° | 5km/h | 22931m | 5.4m/s | -52.0°C | 3.3% | 36.7hPa | 2.5V | 03:35:00 | 01:40:04 | 00:00:00 | |
| DM0DOS-11 | 2026-09-05 06:12:37 | 49.35598 | 8.99115 | 69° | 5km/h | 22903m | 3.9m/s | -52.1°C | 3.4% | 36.9hPa | 2.5V | 03:35:08 | 01:39:58 | 00:00:00 | |
| BIOWL1-15 | 2026-09-05 06:12:37 | 49.35607 | 8.99115 | 326° | 11km/h | 22925m | 4.8m/s | -52.1°C | 0% | 36.8hPa | 2.5V | 03:35:39 | 01:40:03 | 00:00:00 | |
| DG9SBQ-11 | 2026-09-05 06:12:37 | 49.35608 | 8.99115 | 327° | 11km/h | 22926m | 4.8m/s | -52.1°C | 0.6% | 36.8hPa | 2.5V | 03:35:00 | 00:00:00 | 00:00:00 | |
| DF1GD-15 | 2026-09-05 06:12:36 | 49.35608 | 8.99115 | 327° | 11km/h | 22926m | 4.8m/s | -52.1°C | 0.6% | 36.8hPa | 2.5V | 03:35:00 | 00:00:00 | 00:00:00 | |
| HARRO8 | 2026-09-05 06:12:35 | 49.35601 | 8.99118 | 12° | 7km/h | 22912m | 5.3m/s | -52.2°C | 0.6% | 36.9hPa | 2.5V | 00:00:00 | 00:00:00 | 00:00:00 | |
| DB0UT-7 | 2026-09-05 06:12:34 | 49.35601 | 8.99118 | 13° | 5km/h | 22912m | 5.2m/s | -52.1°C | 3.4% | 36.8hPa | 2.5V | 00:00:00 | 01:40:00 | 00:00:00 | |
| DL1XH-15 | 2026-09-05 06:12:33 | 49.35601 | 8.99112 | 182° | 4km/h | 22884m | 4.4m/s | -52.1°C | 3.4% | 0hPa | 2.5V | 03:35:12 | 01:39:54 | 00:00:00 | |
| HSKMA3-T | 2026-09-05 06:12:31 | 49.35598 | 8.99113 | 112° | 4km/h | 22899m | 5.7m/s | -52.1°C | 0% | 36.9hPa | 2.5V | 03:35:39 | 01:39:57 | 00:00:00 | |
| DL1XH-west | 2026-09-05 06:12:29 | 49.35600 | 8.99112 | 177° | 5km/h | 22889m | 4.3m/s | -52.1°C | 0% | 37hPa | 2.7V | 03:35:39 | 01:39:55 | 00:00:00 | |
| OE5DXL-15 | 2026-09-05 06:12:28 | 49.35601 | 8.99112 | 183° | 7km/h | 22885m | 4.4m/s | -52.0°C | 3.4% | 37.0hPa | 2.5V | 00:00:00 | 00:00:00 | 00:00:00 | |
| DM0DOS-11 | 2026-09-05 06:12:27 | 49.35595 | 8.99115 | 301° | 7km/h | 22856m | 4.5m/s | -52.3°C | 3.4% | 37.2hPa | 2.5V | 03:35:18 | 01:39:48 | 00:00:00 | |
| BIOWL1-15 | 2026-09-05 06:12:25 | 49.35599 | 8.99111 | 359° | 5km/h | 22870m | 3.8m/s | -52.2°C | 0% | 37.1hPa | 2.7V | 03:35:39 | 01:39:51 | 00:00:00 | |
| DJ2DS-15 | 2026-09-05 06:12:24 | 49.35598 | 8.99111 | 341° | 5km/h | 22866m | 5.0m/s | -52.2°C | 3.4% | 37.1hPa | 2.5V | 00:00:00 | 01:39:50 | 00:00:00 | |
| DO3MHA-11 | 2026-09-05 06:12:23 | 49.35596 | 8.99113 | 317° | 5km/h | 22861m | 5.2m/s | -52.3°C | 3.4% | 37.1hPa | 2.5V | 03:35:00 | 01:39:49 | 00:00:00 | |
| DL1XH-15 | 2026-09-05 06:12:22 | 49.35591 | 8.99119 | 70° | 4km/h | 22833m | 4.1m/s | -52.2°C | 0% | 0hPa | 2.5V | 03:35:23 | 01:39:43 | 00:00:00 | |
| HSKMA3-T | 2026-09-05 06:12:20 | 49.35593 | 8.99120 | 311° | 5km/h | 22847m | 4.5m/s | -52.2°C | 0% | 37.2hPa | 2.7V | 03:35:39 | 01:39:46 | 00:00:00 | |
| DL1XH-west | 2026-09-05 06:12:19 | 49.35593 | 8.99120 | 352° | 4km/h | 22842m | 5.1m/s | -52.2°C | 0% | 37.3hPa | 2.7V | 03:35:39 | 01:39:45 | 00:00:00 | |
| BIOWL1-15 | 2026-09-05 06:12:14 | 49.35594 | 8.99120 | 205° | 9km/h | 22819m | 4.4m/s | -52.5°C | 0% | 37.4hPa | 2.7V | 03:35:39 | 01:39:40 | 00:00:00 | |
| DG9SBQ-11 | 2026-09-05 06:12:13 | 49.35594 | 8.99119 | 205° | 9km/h | 22819m | 4.4m/s | -52.5°C | 0.6% | 37.4hPa | 2.5V | 03:35:00 | 00:00:00 | 00:00:00 | |
| DL1XH-15 | 2026-09-05 06:12:12 | 49.35604 | 8.99128 | 242° | 7km/h | 22786m | 5.4m/s | -53.1°C | 0% | 0hPa | 2.5V | 03:35:33 | 01:39:33 | 00:00:00 | |
| DL1NUX | 2026-09-05 06:12:11 | 49.35606 | 8.99130 | 233° | 9km/h | 22781m | 4.1m/s | -53°C | 3.6% | 37.6hPa | 2.5V | 03:35:34 | 01:39:32 | 00:00:00 | |
| HSKMA3-T | 2026-09-05 06:12:09 | 49.35603 | 8.99125 | 207° | 4km/h | 22795m | 4.1m/s | -52.9°C | 0% | 37.5hPa | 2.7V | 03:35:39 | 01:39:35 | 00:00:00 | |
| DL4BBY-15 | 2026-09-05 06:12:09 | 49.35603 | 8.99125 | 208° | 9km/h | 22796m | 4.0m/s | -53.7°C | 0% | 0hPa | 2.7V | 00:00:00 | 00:00:00 | 00:00:00 | |
| DL1XH1-15 | 2026-09-05 06:12:08 | 49.35612 | 8.99133 | 163° | 13km/h | 22768m | 5.6m/s | -53°C | 3.6% | 37.7hPa | 2.7V | 03:35:37 | 01:39:29 | 00:00:00 | |
| DL1XH-west | 2026-09-05 06:12:08 | 49.35604 | 8.99126 | 237° | 4km/h | 22791m | 4.6m/s | -53.1°C | 0% | 37.6hPa | 2.6V | 03:35:39 | 01:39:34 | 00:00:00 | |
| BIOWL1-15 | 2026-09-05 06:12:04 | 49.35609 | 8.99134 | 187° | 9km/h | 22773m | 4.8m/s | -53°C | 0% | 37.7hPa | 2.7V | 03:35:39 | 01:39:30 | 00:00:00 | |
| DB0UT-7 | 2026-09-05 06:12:04 | 49.35609 | 8.99134 | 187° | 18km/h | 22774m | 4.7m/s | -53.0°C | 3.6% | 37.6hPa | 2.7V | 00:00:00 | 00:00:00 | 00:00:00 | |
| DO3MHA-11 | 2026-09-05 06:12:03 | 49.35612 | 8.99133 | 164° | 20km/h | 22769m | 5.6m/s | -53.0°C | 3.6% | 37.7hPa | 2.7V | 00:00:00 | 01:39:29 | 00:00:00 | |
| DL1XH-15 | 2026-09-05 06:12:02 | 49.35642 | 8.99117 | 162° | 26km/h | 22739m | 5.2m/s | 0°C | 0% | 0hPa | 2.5V | 03:35:43 | 01:39:23 | 00:00:00 | |
| DL1ZP-14 | 2026-09-05 06:12:01 | 49.35625 | 8.99125 | 160° | 22km/h | 22753m | 5.7m/s | -53.0°C | 0.6% | 37.8hPa | 2.7V | 00:00:00 | 00:00:00 | 00:00:00 | |
| SFWM-10 | 2026-09-05 06:12:00 | 49.35620 | 8.99128 | 156° | 20km/h | 22758m | 4.7m/s | -53.0°C | 0.6% | 37.8hPa | 2.7V | 03:35:00 | 00:00:00 | 00:00:00 | |
| DL1KLB | 2026-09-05 06:11:59 | 49.35625 | 8.99125 | 161° | 22km/h | 22753m | 5.7m/s | -53.0°C | 0.6% | 37.8hPa | 2.7V | 03:36:00 | 00:00:00 | 00:00:00 | |
| DL1NUX | 2026-09-05 06:11:58 | 49.35661 | 8.99108 | 177° | 13km/h | 22719m | 5.8m/s | -53°C | 3.5% | 38hPa | 2.7V | 03:35:47 | 01:39:19 | 00:00:00 | |
| HSKMA3-T | 2026-09-05 06:11:58 | 49.35636 | 8.99120 | 165° | 26km/h | 22744m | 3.9m/s | -53°C | 0% | 37.8hPa | 2.5V | 03:36:30 | 01:39:24 | 00:00:00 | |
| OE5DXL-15 | 2026-09-05 06:11:58 | 49.35636 | 8.99120 | 166° | 16km/h | 22744m | 3.9m/s | -52.9°C | 3.5% | 37.8hPa | 2.5V | 03:35:00 | 00:00:00 | 00:00:00 | |
| DM0DOS-11 | 2026-09-05 06:11:57 | 49.35663 | 8.99109 | 194° | 7km/h | 22715m | 4.4m/s | -53°C | 3.6% | 38hPa | 2.5V | 03:35:48 | 01:39:18 | 00:00:00 | |
| DL1XH-west | 2026-09-05 06:11:57 | 49.35642 | 8.99117 | 163° | 26km/h | 22739m | 5.2m/s | -53°C | 0% | 37.9hPa | 2.5V | 03:36:30 | 01:39:23 | 00:00:00 | |
| BIOWL1-15 | 2026-09-05 06:11:56 | 49.35657 | 8.99109 | 166° | 16km/h | 22725m | 4.6m/s | -53.1°C | 0% | 38hPa | 2.7V | 03:36:30 | 01:39:20 | 00:00:00 | |
| DF1GD-15 | 2026-09-05 06:11:55 | 49.35648 | 8.99114 | 159° | 24km/h | 22734m | 5.3m/s | -53.0°C | 0.6% | 37.9hPa | 2.7V | 03:36:00 | 00:00:00 | 00:00:00 | |
| DO3MHA-11 | 2026-09-05 06:11:53 | 49.35661 | 8.99108 | 178° | 13km/h | 22720m | 5.7m/s | -52.9°C | 3.5% | 37.9hPa | 2.7V | 00:00:00 | 01:39:19 | 00:00:00 | |
| DF2AP-13 | 2026-09-05 06:11:52 | 49.35663 | 8.99108 | 195° | 18km/h | 22715m | 4.3m/s | -52.9°C | 3.6% | 38.0hPa | 2.7V | 00:00:00 | 01:39:18 | 00:00:00 | |
| OE5DRO-10 | 2026-09-05 06:11:51 | 49.35665 | 8.99109 | 202° | 11km/h | 22711m | 3.9m/s | -53.0°C | 3.6% | 38.0hPa | 2.7V | 00:00:00 | 00:00:00 | 00:00:00 | |
| DG9SBQ-11 | 2026-09-05 06:11:50 | 49.35665 | 8.99109 | 203° | 4km/h | 22711m | 3.9m/s | -53.0°C | 0.6% | 38.0hPa | 2.7V | 03:36:00 | 00:00:00 | 00:00:00 | |
| DL1XH1-15 | 2026-09-05 06:11:48 | 49.35687 | 8.99083 | 154° | 24km/h | 22673m | 4.4m/s | -53.1°C | 3.5% | 38.3hPa | 2.7V | 03:35:57 | 01:39:09 | 00:00:00 | |
| DM0DOS-11 | 2026-09-05 06:11:47 | 49.35693 | 8.99079 | 149° | 24km/h | 22669m | 4.6m/s | -53°C | 3.5% | 38.3hPa | 2.7V | 03:35:58 | 01:39:08 | 00:00:00 | |
| HSKMA3-T | 2026-09-05 06:11:47 | 49.35669 | 8.99101 | 130° | 16km/h | 22692m | 4.6m/s | -53°C | 0% | 38.2hPa | 2.5V | 03:36:30 | 01:39:13 | 00:00:00 | |
| DL1XH-west | 2026-09-05 06:11:46 | 49.35673 | 8.99096 | 141° | 20km/h | 22687m | 4.7m/s | -53.1°C | 0% | 38.2hPa | 2.5V | 03:36:30 | 01:39:12 | 00:00:00 | |
| BIOWL9-15 | 2026-09-05 06:11:45 | 49.35677 | 8.99091 | 149° | 20km/h | 22683m | 4.8m/s | 0°C | -1.0% | -1.0hPa | 2.7V | 00:00:00 | 00:00:00 | 00:00:00 | |
| BIOWL1-15 | 2026-09-05 06:11:43 | 49.35687 | 8.99083 | 155° | 24km/h | 22673m | 4.4m/s | -53.1°C | 0% | 38.3hPa | 2.7V | 03:36:30 | 01:39:09 | 00:00:00 | |
| DO3MHA-11 | 2026-09-05 06:11:43 | 49.35687 | 8.99083 | 155° | 20km/h | 22673m | 4.4m/s | -53.1°C | 3.5% | 38.2hPa | 2.5V | 03:35:00 | 01:39:09 | 00:00:00 | |
| DJTTGO | 2026-09-05 06:11:42 | 49.35687 | 8.99083 | 156° | 24km/h | 22673m | 4.4m/s | -53.1°C | 0.6% | 38.3hPa | 2.5V | 00:00:00 | 00:00:00 | 00:00:00 | |
| DO8TBO-1 | 2026-09-05 06:11:41 | 49.35697 | 8.99074 | 143° | 18km/h | 22664m | 4.6m/s | -52.9°C | 3.4% | 38.3hPa | 2.5V | 00:00:00 | 01:39:07 | 00:00:00 | |
| NBG1-10 | 2026-09-05 06:11:40 | 49.35702 | 8.99068 | 138° | 20km/h | 22660m | 4.1m/s | -52.9°C | 3.4% | 38.3hPa | 2.7V | 00:00:00 | 01:39:06 | 00:00:00 | |
| DB0ND-19 | 2026-09-05 06:11:39 | 49.35710 | 8.99057 | 139° | 18km/h | 22651m | 4.8m/s | -53.2°C | 0.6% | 38.4hPa | 2.7V | 00:00:00 | 00:00:00 | 00:00:00 | |
| DL1XH1-15 | 2026-09-05 06:11:38 | 49.35725 | 8.99040 | 114° | 15km/h | 22627m | 5.8m/s | -53.2°C | 3.6% | 38.5hPa | 2.7V | 03:36:07 | 01:38:59 | 00:00:00 | |
| DB0NH | 2026-09-05 06:11:38 | 49.35710 | 8.99057 | 140° | 20km/h | 22651m | 4.8m/s | -53.1°C | 3.5% | 38.4hPa | 2.7V | 00:00:00 | 01:39:04 | 00:00:00 | |
| DM0DOS-11 | 2026-09-05 06:11:37 | 49.35726 | 8.99035 | 103° | 16km/h | 22622m | 5m/s | -53.2°C | 3.6% | 38.6hPa | 2.5V | 03:36:08 | 01:38:58 | 00:00:00 | |
| DL1XH-west | 2026-09-05 06:11:36 | 49.35717 | 8.99050 | 153° | 15km/h | 22641m | 4.5m/s | -53.1°C | 0% | 38.5hPa | 2.5V | 03:36:30 | 01:39:02 | 00:00:00 | |
| BIOWL1-15 | 2026-09-05 06:11:33 | 49.35724 | 8.99040 | 115° | 15km/h | 22627m | 5.8m/s | -53.2°C | 0% | 38.5hPa | 2.7V | 03:36:30 | 01:38:59 | 00:00:00 | |
| DO3MHA-11 | 2026-09-05 06:11:33 | 49.35724 | 8.99040 | 115° | 20km/h | 22628m | 5.7m/s | -53.2°C | 3.6% | 38.5hPa | 2.7V | 00:00:00 | 01:38:59 | 00:00:00 | |
| KANTATE | 2026-09-05 06:11:32 | 49.35725 | 8.99040 | 116° | 15km/h | 22628m | 5.8m/s | -53.2°C | 0.7% | 38.5hPa | 2.7V | 00:00:00 | 00:00:00 | 00:00:00 | |
| DL1ZP-14 | 2026-09-05 06:11:29 | 49.35729 | 8.99014 | 104° | 18km/h | 22607m | 4.7m/s | -53.2°C | 0.6% | 38.7hPa | 2.7V | 00:00:00 | 00:00:00 | 00:00:00 | |
| DL1XH1-15 | 2026-09-05 06:11:28 | 49.35735 | 8.98966 | 108° | 18km/h | 22577m | 6.2m/s | -53.4°C | 3.5% | 38.8hPa | 2.7V | 03:36:17 | 01:38:49 | 00:00:00 | |
| OE5DXL-15 | 2026-09-05 06:11:28 | 49.35730 | 8.99007 | 104° | 22km/h | 22602m | 4.2m/s | -53.2°C | 3.5% | 38.6hPa | 2.7V | 00:00:00 | 00:00:00 | 00:00:00 | |
| DM0DOS-11 | 2026-09-05 06:11:27 | 49.35737 | 8.98960 | 117° | 16km/h | 22571m | 5m/s | -53.5°C | 3.6% | 38.9hPa | 2.7V | 03:36:18 | 01:38:48 | 00:00:00 | |
| DL1XH-west | 2026-09-05 06:11:26 | 49.35732 | 8.98991 | 98° | 24km/h | 22592m | 6m/s | -53.3°C | 0% | 38.8hPa | 2.5V | 03:36:30 | 01:38:52 | 00:00:00 | |
| BIOWL1-15 | 2026-09-05 06:11:25 | 49.35735 | 8.98966 | 109° | 18km/h | 22577m | 6.2m/s | -53.4°C | 0% | 38.9hPa | 2.7V | 03:36:30 | 01:38:49 | 00:00:00 | |
| DJ2DS-15 | 2026-09-05 06:11:24 | 49.35734 | 8.98973 | 103° | 22km/h | 22582m | 4.3m/s | -53.3°C | 3.5% | 38.8hPa | 2.5V | 00:00:00 | 01:38:50 | 00:00:00 | |
| DO3MHA-11 | 2026-09-05 06:11:23 | 49.35735 | 8.98966 | 109° | 20km/h | 22577m | 6.1m/s | -53.4°C | 3.5% | 38.8hPa | 2.5V | 00:00:00 | 01:38:49 | 00:00:00 | |
| DF2AP-13 | 2026-09-05 06:11:22 | 49.35737 | 8.98960 | 118° | 22km/h | 22572m | 4.9m/s | -53.5°C | 3.6% | 38.8hPa | 2.5V | 00:00:00 | 01:38:48 | 00:00:00 | |
| DF3TZ-5 | 2026-09-05 06:11:21 | 49.35741 | 8.98948 | 115° | 18km/h | 22562m | 5.5m/s | -53.7°C | 0.7% | 38.9hPa | 2.5V | 00:00:00 | 00:00:00 | 00:00:00 | |
| SFWM-10 | 2026-09-05 06:11:19 | 49.35741 | 8.98948 | 117° | 18km/h | 22563m | 5.5m/s | -53.7°C | 0.7% | 38.9hPa | 2.5V | 00:00:00 | 00:00:00 | 00:00:00 | |
| DL1XH1-15 | 2026-09-05 06:11:18 | 49.35747 | 8.98890 | 83° | 27km/h | 22527m | 6m/s | -53.8°C | 3.8% | 39.1hPa | 2.5V | 03:36:27 | 01:38:39 | 00:00:00 | |
| DM0DOS-11 | 2026-09-05 06:11:17 | 49.35746 | 8.98879 | 81° | 29km/h | 22522m | 4.6m/s | -53.8°C | 3.8% | 39.2hPa | 2.7V | 03:36:28 | 01:38:38 | 00:00:00 | |
| DL1XH-west | 2026-09-05 06:11:16 | 49.35747 | 8.98918 | 99° | 20km/h | 22541m | 5.3m/s | -53.7°C | 0% | 39.1hPa | 2.7V | 03:36:30 | 01:38:42 | 00:00:00 | |
| BIOWL1-15 | 2026-09-05 06:11:12 | 49.35746 | 8.98879 | 81° | 29km/h | 22522m | 4.6m/s | -53.8°C | 0% | 39.2hPa | 2.7V | 03:36:30 | 01:38:38 | 00:00:00 | |
| DO8TBO-1 | 2026-09-05 06:11:11 | 49.35745 | 8.98869 | 82° | 18km/h | 22517m | 3.9m/s | -53.8°C | 3.8% | 39.2hPa | 2.5V | 00:00:00 | 01:38:37 | 00:00:00 | |
| AU51GT2 | 2026-09-05 06:11:10 | 49.35744 | 8.98859 | 85° | 24km/h | 22513m | 5.5m/s | -53.8°C | 0.7% | 39.2hPa | 2.5V | 00:00:00 | 00:00:00 | 00:00:00 | |
| DO3DL | 2026-09-05 06:11:09 | 49.35744 | 8.98858 | 86° | 24km/h | 22513m | 5.5m/s | -53.8°C | 0.7% | 39.2hPa | 2.5V | 03:36:00 | 00:00:00 | 00:00:00 | |
| DL1XH1-15 | 2026-09-05 06:11:08 | 49.35752 | 8.98801 | 92° | 27km/h | 22479m | 4.1m/s | -53.7°C | 3.8% | 39.4hPa | 2.5V | 03:36:37 | 01:38:29 | 00:00:00 | |
| DB0ND-19 | 2026-09-05 06:11:08 | 49.35746 | 8.98836 | 111° | 18km/h | 22498m | 4.1m/s | -53.9°C | 0.6% | 39.3hPa | 2.5V | 00:00:00 | 00:00:00 | 00:00:00 | |
| DM0DOS-11 | 2026-09-05 06:11:07 | 49.35752 | 8.98790 | 84° | 26km/h | 22475m | 5.2m/s | -53.6°C | 3.8% | 39.5hPa | 2.5V | 03:36:38 | 01:38:28 | 00:00:00 | |
| DL1XH-west | 2026-09-05 06:11:05 | 49.35750 | 8.98821 | 108° | 26km/h | 22488m | 5.2m/s | -53.8°C | 0% | 39.4hPa | 2.7V | 03:37:21 | 01:38:31 | 00:00:00 | |
| BIOWL1-15 | 2026-09-05 06:11:03 | 49.35751 | 8.98781 | 75° | 24km/h | 22470m | 5.3m/s | -53.6°C | 0% | 39.5hPa | 2.7V | 03:37:21 | 01:38:27 | 00:00:00 | |
| DO3MHA-11 | 2026-09-05 06:11:03 | 49.35752 | 8.98801 | 93° | 22km/h | 22480m | 4.1m/s | -53.6°C | 3.8% | 39.4hPa | 2.5V | 03:36:00 | 01:38:29 | 00:00:00 | |
| DO3DL | 2026-09-05 06:11:02 | 49.35752 | 8.98801 | 93° | 27km/h | 22480m | 4.1m/s | -53.7°C | 0.7% | 39.4hPa | 2.5V | 00:00:00 | 00:00:00 | 00:00:00 | |
| HARRO8 | 2026-09-05 06:11:01 | 49.35751 | 8.98781 | 74° | 22km/h | 22470m | 5.3m/s | -53.6°C | 0.7% | 39.5hPa | 2.5V | 00:00:00 | 00:00:00 | 00:00:00 | |
| DL1XH1-15 | 2026-09-05 06:10:58 | 49.35738 | 8.98722 | 86° | 13km/h | 22430m | 4.4m/s | -53.4°C | 3.7% | 39.8hPa | 2.5V | 03:36:47 | 01:38:19 | 00:00:00 | |
| OE5DXL-15 | 2026-09-05 06:10:58 | 49.35744 | 8.98757 | 64° | 18km/h | 22455m | 5.2m/s | -53.5°C | 3.8% | 39.5hPa | 2.5V | 00:00:00 | 00:00:00 | 00:00:00 | |
| DM0DOS-11 | 2026-09-05 06:10:57 | 49.35738 | 8.98717 | 90° | 15km/h | 22426m | 3.7m/s | -53.3°C | 3.7% | 39.8hPa | 2.7V | 03:36:48 | 01:38:18 | 00:00:00 | |
| DL1XH-west | 2026-09-05 06:10:55 | 49.35739 | 8.98734 | 78° | 18km/h | 22440m | 4.7m/s | -53.6°C | 0% | 39.7hPa | 2.5V | 03:37:21 | 01:38:21 | 00:00:00 | |
| BIOWL1-15 | 2026-09-05 06:10:51 | 49.35737 | 8.98711 | 90° | 16km/h | 22421m | 4.5m/s | -53.3°C | 0% | 39.8hPa | 2.7V | 03:37:21 | 01:38:17 | 00:00:00 | |
| OE5DRO-10 | 2026-09-05 06:10:50 | 49.35737 | 8.98704 | 89° | 20km/h | 22417m | 5.5m/s | -53.2°C | 3.7% | 39.8hPa | 2.6V | 00:00:00 | 00:00:00 | 00:00:00 | |
| DO3DL | 2026-09-05 06:10:49 | 49.35737 | 8.98704 | 89° | 22km/h | 22417m | 5.5m/s | -53.2°C | 0.7% | 39.8hPa | 2.5V | 00:00:00 | 00:00:00 | 00:00:00 | |
| DL1XH1-15 | 2026-09-05 06:10:48 | 49.35725 | 8.98648 | 64° | 15km/h | 22382m | 5m/s | -53°C | 3.5% | 40.1hPa | 2.5V | 03:36:57 | 01:38:09 | 00:00:00 | |
| DM0DOS-11 | 2026-09-05 06:10:47 | 49.35723 | 8.98643 | 78° | 15km/h | 22377m | 5.4m/s | -53°C | 3.6% | 40.1hPa | 2.5V | 03:36:58 | 01:38:08 | 00:00:00 | |
| EDDB2-12 | 2026-09-05 06:10:46 | 49.35732 | 8.98667 | 62° | 22km/h | 22396m | 5.3m/s | -53.0°C | 0.6% | 40.0hPa | 2.5V | 00:00:00 | 00:00:00 | 00:00:00 | |
| SONDE2-11 | 2026-09-05 06:10:45 | 49.35729 | 8.98659 | 56° | 18km/h | 22392m | 4.3m/s | -52.9°C | 0.6% | 40.0hPa | 2.5V | 00:00:00 | 00:00:00 | 00:00:00 | |
| DL1XH-west | 2026-09-05 06:10:44 | 49.35727 | 8.98654 | 56° | 16km/h | 22387m | 4m/s | -52.9°C | 0% | 40hPa | 2.5V | 03:37:21 | 01:38:10 | 00:00:00 | |
| BIOWL1-15 | 2026-09-05 06:10:41 | 49.35723 | 8.98637 | 95° | 15km/h | 22372m | 4.6m/s | -53°C | 0% | 40.1hPa | 2.7V | 03:37:21 | 01:38:07 | 00:00:00 | |
| DH7VM-15 | 2026-09-05 06:10:40 | 49.35723 | 8.98637 | 96° | 15km/h | 22373m | 4.6m/s | -53.0°C | 0.7% | 40.1hPa | 2.5V | 00:00:00 | 00:00:00 | 00:00:00 | |
| DM3KS-11 | 2026-09-05 06:10:39 | 49.35725 | 8.98627 | 110° | 11km/h | 22363m | 5.5m/s | -53.0°C | 0.7% | 40.2hPa | 2.5V | 00:00:00 | 00:00:00 | 00:00:00 | |
| DL1XH1-15 | 2026-09-05 06:10:38 | 49.35729 | 8.98593 | 83° | 22km/h | 22335m | 4m/s | -52.8°C | 3.5% | 40.4hPa | 2.5V | 03:37:07 | 01:37:59 | 00:00:00 | |
| DB0NH | 2026-09-05 06:10:38 | 49.35726 | 8.98623 | 114° | 16km/h | 22358m | 5.1m/s | -52.8°C | 3.6% | 40.2hPa | 2.5V | 03:37:00 | 01:38:04 | 00:00:00 | |
| DM0DOS-11 | 2026-09-05 06:10:37 | 49.35728 | 8.98585 | 74° | 22km/h | 22330m | 5.4m/s | -52.8°C | 3.4% | 40.4hPa | 2.5V | 03:37:08 | 01:37:58 | 00:00:00 | |
| DL1XH-west | 2026-09-05 06:10:34 | 49.35729 | 8.98602 | 92° | 20km/h | 22339m | 4.3m/s | -52.8°C | 0% | 40.3hPa | 2.7V | 03:37:21 | 01:38:00 | 00:00:00 | |
| HSKMA3-T | 2026-09-05 06:10:33 | 49.35729 | 8.98593 | 83° | 22km/h | 22335m | 4m/s | -52.8°C | 0% | 40.4hPa | 2.5V | 03:37:21 | 01:37:59 | 00:00:00 | |
| BIOWL1-15 | 2026-09-05 06:10:30 | 49.35724 | 8.98571 | 59° | 18km/h | 22320m | 4.3m/s | -52.9°C | 0% | 40.4hPa | 2.7V | 03:37:21 | 01:37:56 | 00:00:00 | |
| DG9SBQ-11 | 2026-09-05 06:10:30 | 49.35724 | 8.98571 | 60° | 18km/h | 22321m | 4.3m/s | -52.9°C | 0.6% | 40.4hPa | 2.5V | 03:37:00 | 00:00:00 | 00:00:00 | |
| DL1XH1-15 | 2026-09-05 06:10:29 | 49.35717 | 8.98532 | 78° | 11km/h | 22287m | 4.7m/s | -53°C | 3.6% | 40.6hPa | 2.5V | 03:37:17 | 01:37:49 | 00:00:00 | |
| OE5DXL-15 | 2026-09-05 06:10:28 | 49.35719 | 8.98559 | 66° | 15km/h | 22312m | 4.9m/s | -52.7°C | 3.4% | 40.5hPa | 2.5V | 00:00:00 | 00:00:00 | 00:00:00 | |
| DM0DOS-11 | 2026-09-05 06:10:27 | 49.35716 | 8.98528 | 77° | 11km/h | 22283m | 3.8m/s | -53.1°C | 3.6% | 40.7hPa | 2.5V | 03:37:18 | 01:37:48 | 00:00:00 | |
| DL1XH-west | 2026-09-05 06:10:24 | 49.35717 | 8.98537 | 85° | 11km/h | 22292m | 5.5m/s | -53.1°C | 0% | 40.6hPa | 2.7V | 03:37:21 | 01:37:50 | 00:00:00 | |
| HSKMA3-T | 2026-09-05 06:10:23 | 49.35717 | 8.98532 | 78° | 11km/h | 22288m | 4.7m/s | -53°C | 0% | 40.6hPa | 2.5V | 03:37:21 | 01:37:49 | 00:00:00 | |
| BIOWL1-15 | 2026-09-05 06:10:19 | 49.35716 | 8.98512 | 93° | 18km/h | 22269m | 4.5m/s | -53.2°C | 0% | 40.8hPa | 2.7V | 03:37:21 | 01:37:45 | 00:00:00 | |
| DM0DOS-11 | 2026-09-05 06:10:17 | 49.35714 | 8.98470 | 106° | 13km/h | 22237m | 4.5m/s | -53.1°C | 3.6% | 41hPa | 2.5V | 03:37:28 | 01:37:38 | 00:00:00 | |
| DL1XH-west | 2026-09-05 06:10:13 | 49.35714 | 8.98475 | 96° | 13km/h | 22242m | 5.2m/s | -53.1°C | 0% | 40.9hPa | 2.7V | 03:38:12 | 01:37:39 | 00:00:00 | |
| HSKMA3-T | 2026-09-05 06:10:12 | 49.35714 | 8.98470 | 107° | 13km/h | 22237m | 4.5m/s | -53.1°C | 0% | 41hPa | 2.5V | 03:39:03 | 01:37:38 | 00:00:00 | |
| BIOWL1-15 | 2026-09-05 06:10:09 | 49.35718 | 8.98457 | 117° | 11km/h | 22224m | 5.2m/s | -53°C | 0% | 41.1hPa | 2.7V | 03:38:12 | 01:37:35 | 00:00:00 | |
| DM3KS-11 | 2026-09-05 06:10:08 | 49.35721 | 8.98450 | 124° | 11km/h | 22215m | 4.5m/s | -53.0°C | 0.6% | 41.1hPa | 2.5V | 00:00:00 | 00:00:00 | 00:00:00 | |
| DM0DOS-11 | 2026-09-05 06:10:07 | 49.35733 | 8.98423 | 112° | 16km/h | 22192m | 5.1m/s | -53.1°C | 3.5% | 41.2hPa | 2.5V | 03:37:38 | 01:37:28 | 00:00:00 | |
| DL1XH-west | 2026-09-05 06:10:03 | 49.35731 | 8.98429 | 120° | 18km/h | 22197m | 4.6m/s | -53°C | 0% | 41.2hPa | 2.5V | 03:38:12 | 01:37:29 | 00:00:00 | |
| HSKMA3-T | 2026-09-05 06:10:01 | 49.35735 | 8.98416 | 109° | 16km/h | 22187m | 4.4m/s | -53.1°C | 0% | 41.3hPa | 2.5V | 03:39:03 | 01:37:27 | 00:00:00 | |
| BIOWL1-15 | 2026-09-05 06:10:00 | 49.35741 | 8.98399 | 129° | 20km/h | 22174m | 4.9m/s | -53.2°C | 0% | 41.4hPa | 2.7V | 03:38:12 | 01:37:24 | 00:00:00 | |
| DL1XH-west | 2026-09-05 06:09:53 | 49.35755 | 8.98375 | 125° | 13km/h | 22151m | 3.7m/s | -53.3°C | 0% | 41.5hPa | 2.7V | 03:38:12 | 01:37:19 | 00:00:00 | |
| HSKMA3-T | 2026-09-05 06:09:48 | 49.35767 | 8.98342 | 114° | 22km/h | 22129m | 5.2m/s | -53.7°C | 0% | 41.7hPa | 2.7V | 03:39:03 | 01:37:14 | 00:00:00 | |
| DL1XH-west | 2026-09-05 06:09:42 | 49.35777 | 8.98304 | 117° | 15km/h | 22103m | 3.5m/s | -54.3°C | 0% | 41.8hPa | 2.7V | 03:38:12 | 01:37:08 | 00:00:00 | |
| BIOWL1-15 | 2026-09-05 06:09:40 | 49.35778 | 8.98286 | 75° | 15km/h | 22085m | 3.9m/s | -54.3°C | 0% | 41.9hPa | 2.7V | 03:38:12 | 01:37:04 | 00:00:00 | |
| DL1XH1-15 | 2026-09-05 06:09:38 | 49.35777 | 8.98239 | 89° | 29km/h | 22064m | 4.4m/s | -54.3°C | 3.7% | 42.1hPa | 2.5V | 03:38:07 | 01:36:59 | 00:00:00 | |
| HSKMA3-T | 2026-09-05 06:09:37 | 49.35777 | 8.98279 | 82° | 20km/h | 22081m | 4.3m/s | -54.4°C | 0% | 42hPa | 2.7V | 03:39:03 | 01:37:03 | 00:00:00 | |
| DJTTGO | 2026-09-05 06:09:37 | 49.35777 | 8.98279 | 83° | 20km/h | 22081m | 4.3m/s | -54.4°C | 0.7% | 42.0hPa | 2.7V | 03:38:00 | 00:00:00 | 00:00:00 | |
| DO8TBO-1 | 2026-09-05 06:09:35 | 49.35777 | 8.98261 | 93° | 18km/h | 22072m | 3.9m/s | -54.3°C | 3.8% | 42.0hPa | 2.7V | 00:00:00 | 01:37:01 | 00:00:00 | |
| DB0UT-7 | 2026-09-05 06:09:34 | 49.35777 | 8.98250 | 93° | 18km/h | 22068m | 3.1m/s | -54.3°C | 3.7% | 42.0hPa | 2.7V | 03:38:00 | 01:37:00 | 00:00:00 | |
| DL1XH-15 | 2026-09-05 06:09:33 | 49.35772 | 8.98189 | 78° | 24km/h | 22042m | 4.9m/s | 0°C | 0% | 0hPa | 2.7V | 03:38:12 | 01:36:54 | 00:00:00 | |
| DL1XH-west | 2026-09-05 06:09:31 | 49.35776 | 8.98217 | 78° | 27km/h | 22055m | 4.2m/s | -54.4°C | 0% | 42.2hPa | 2.7V | 03:38:12 | 01:36:57 | 00:00:00 | |
| DB0NH | 2026-09-05 06:09:31 | 49.35776 | 8.98217 | 78° | 15km/h | 22056m | 4.1m/s | -54.3°C | 3.8% | 42.1hPa | 2.7V | 00:00:00 | 01:36:57 | 00:00:00 | |
| DF1GD-15 | 2026-09-05 06:09:30 | 49.35776 | 8.98217 | 79° | 27km/h | 22056m | 4.2m/s | -54.4°C | 0.8% | 42.2hPa | 2.7V | 03:38:00 | 00:00:00 | 00:00:00 | |
| DO3DL | 2026-09-05 06:09:29 | 49.35773 | 8.98198 | 79° | 24km/h | 22048m | 4.9m/s | -54.5°C | 0.7% | 42.2hPa | 2.7V | 00:00:00 | 00:00:00 | 00:00:00 | |
| DL1XH1-15 | 2026-09-05 06:09:28 | 49.35760 | 8.98147 | 61° | 22km/h | 22020m | 3.9m/s | -54.7°C | 3.9% | 42.4hPa | 2.7V | 03:38:17 | 01:36:49 | 00:00:00 | |
| BIOWL1-15 | 2026-09-05 06:09:28 | 49.35772 | 8.98189 | 78° | 24km/h | 22043m | 4.9m/s | -54.6°C | 0% | 42.2hPa | 2.7V | 03:38:12 | 01:36:54 | 00:00:00 | |
| OE5DXL-15 | 2026-09-05 06:09:28 | 49.35772 | 8.98189 | 79° | 15km/h | 22043m | 4.9m/s | 0°C | 0% | 0hPa | 2.7V | 00:00:00 | 00:00:00 | 00:00:00 | |
| DM0DOS-11 | 2026-09-05 06:09:27 | 49.35757 | 8.98140 | 69° | 22km/h | 22015m | 5.3m/s | -54.7°C | 4% | 42.4hPa | 2.7V | 03:38:18 | 01:36:48 | 00:00:00 | |
| HSKMA3-T | 2026-09-05 06:09:27 | 49.35770 | 8.98180 | 75° | 24km/h | 22038m | 3.8m/s | -54.7°C | 0% | 42.3hPa | 2.7V | 03:39:03 | 01:36:53 | 00:00:00 | |
| HEMX73-11 | 2026-09-05 06:09:26 | 49.35766 | 8.98163 | 62° | 24km/h | 22029m | 5.5m/s | -54.7°C | 0.7% | 42.3hPa | 2.5V | 03:39:00 | 00:00:00 | 00:00:00 | |
| DJ2DS-15 | 2026-09-05 06:09:25 | 49.35763 | 8.98155 | 59° | 13km/h | 22025m | 4.0m/s | -54.7°C | 4.0% | 42.3hPa | 2.5V | 00:00:00 | 01:36:50 | 00:00:00 | |
| DM7RM-13 | 2026-09-05 06:09:24 | 49.35763 | 8.98155 | 59° | 24km/h | 22025m | 4.1m/s | -54.7°C | 0.8% | 42.4hPa | 2.5V | 03:39:00 | 00:00:00 | 00:00:00 | |
| DL1XH-15 | 2026-09-05 06:09:23 | 49.35757 | 8.98116 | 92° | 11km/h | 21996m | 5.8m/s | 0°C | 0% | 0hPa | 2.5V | 03:38:22 | 01:36:44 | 00:00:00 | |
| DL1XH-west | 2026-09-05 06:09:21 | 49.35756 | 8.98132 | 82° | 18km/h | 22010m | 5.2m/s | -54.6°C | 0% | 42.5hPa | 2.7V | 03:39:03 | 01:36:47 | 00:00:00 | |
| HTAHTA | 2026-09-05 06:09:20 | 49.35756 | 8.98126 | 92° | 15km/h | 22006m | 4.2m/s | -54.7°C | -1.0% | 42.5hPa | 2.5V | 00:00:00 | 00:00:00 | 00:00:00 | |
| DL1XH1-15 | 2026-09-05 06:09:18 | 49.35756 | 8.98103 | 101° | 5km/h | 21971m | 4.4m/s | -54.4°C | 3.9% | 42.7hPa | 2.5V | 03:38:27 | 01:36:39 | 00:00:00 | |
| DM0DOS-11 | 2026-09-05 06:09:17 | 49.35756 | 8.98101 | 81° | 7km/h | 21967m | 3.6m/s | -54.3°C | 3.9% | 42.8hPa | 2.7V | 03:38:28 | 01:36:38 | 00:00:00 | |
| BIOWL1-15 | 2026-09-05 06:09:17 | 49.35757 | 8.98112 | 80° | 7km/h | 21991m | 4.9m/s | -54.5°C | 0% | 42.6hPa | 2.7V | 03:39:54 | 01:36:43 | 00:00:00 | |
| HSKMA3-T | 2026-09-05 06:09:16 | 49.35756 | 8.98109 | 70° | 5km/h | 21986m | 4.3m/s | -54.5°C | 0% | 42.6hPa | 2.7V | 03:39:03 | 01:36:42 | 00:00:00 | |
| DG1MJG | 2026-09-05 06:09:14 | 49.35756 | 8.98107 | 80° | 5km/h | 21982m | 4.6m/s | -54.4°C | 0.7% | 42.6hPa | 2.5V | 03:39:00 | 00:00:00 | 00:00:00 | |
| DL1XH-15 | 2026-09-05 06:09:13 | 49.35748 | 8.98084 | 47° | 18km/h | 21949m | 3.8m/s | 0°C | 0% | 0hPa | 2.5V | 03:38:32 | 01:36:34 | 00:00:00 | |
| DL1XH-west | 2026-09-05 06:09:10 | 49.35753 | 8.98093 | 50° | 15km/h | 21958m | 5.3m/s | -54.2°C | 0% | 42.8hPa | 2.7V | 03:39:03 | 01:36:36 | 00:00:00 | |
| DL1XH1-15 | 2026-09-05 06:09:08 | 49.35740 | 8.98056 | 70° | 15km/h | 21926m | 4.8m/s | -53.9°C | 3.7% | 43hPa | 2.5V | 03:38:37 | 01:36:29 | 00:00:00 | |
| DM0DOS-11 | 2026-09-05 06:09:07 | 49.35738 | 8.98051 | 61° | 15km/h | 21921m | 5.2m/s | -53.9°C | 3.7% | 43hPa | 2.5V | 03:38:38 | 01:36:28 | 00:00:00 | |
| BIOWL1-15 | 2026-09-05 06:09:06 | 49.35743 | 8.98073 | 66° | 16km/h | 21940m | 5.3m/s | -54°C | 0% | 43hPa | 2.7V | 03:39:54 | 01:36:32 | 00:00:00 | |
| DL1XH-west | 2026-09-05 06:09:00 | 49.35734 | 8.98041 | 56° | 15km/h | 21912m | 4.2m/s | -53.8°C | 0% | 43.1hPa | 2.7V | 03:39:03 | 01:36:26 | 00:00:00 | |
| DL1XH1-15 | 2026-09-05 06:08:58 | 49.35724 | 8.98012 | 40° | 16km/h | 21878m | 4.2m/s | -53.6°C | 3.7% | 43.3hPa | 2.5V | 03:38:47 | 01:36:19 | 00:00:00 | |
| OE5DXL-15 | 2026-09-05 06:08:58 | 49.35731 | 8.98032 | 75° | 15km/h | 21903m | 5.8m/s | 0°C | 0% | 0hPa | 2.5V | 00:00:00 | 00:00:00 | 00:00:00 | |
| DM0DOS-11 | 2026-09-05 06:08:57 | 49.35721 | 8.98008 | 43° | 16km/h | 21874m | 4.1m/s | -53.6°C | 3.7% | 43.4hPa | 2.5V | 03:38:48 | 01:36:18 | 00:00:00 | |
| HSKMA3-T | 2026-09-05 06:08:55 | 49.35729 | 8.98020 | 61° | 11km/h | 21888m | 5.4m/s | -53.8°C | 0% | 43.3hPa | 2.7V | 03:39:03 | 01:36:21 | 00:00:00 | |
| DB0NH | 2026-09-05 06:08:55 | 49.35729 | 8.98020 | 61° | 15km/h | 21889m | 5.4m/s | -53.7°C | 3.7% | 43.2hPa | 2.5V | 00:00:00 | 01:36:21 | 00:00:00 | |
| DL1XH-15 | 2026-09-05 06:08:54 | 49.35714 | 8.97993 | 66° | 16km/h | 21858m | 4.9m/s | 0°C | 0% | 0hPa | 2.5V | 03:38:51 | 01:36:15 | 00:00:00 | |
| DL1XH-west | 2026-09-05 06:08:49 | 49.35714 | 8.97993 | 67° | 16km/h | 21858m | 4.9m/s | -53.6°C | 0% | 43.5hPa | 2.5V | 03:39:03 | 01:36:15 | 00:00:00 | |
| DL1XH1-15 | 2026-09-05 06:08:48 | 49.35708 | 8.97965 | 98° | 13km/h | 21827m | 5.2m/s | -53.7°C | 3.6% | 43.7hPa | 2.5V | 03:38:57 | 01:36:09 | 00:00:00 | |
| DM0DOS-11 | 2026-09-05 06:08:47 | 49.35709 | 8.97961 | 97° | 11km/h | 21822m | 4.4m/s | -53.8°C | 3.6% | 43.7hPa | 2.5V | 03:38:58 | 01:36:08 | 00:00:00 | |
| BIOWL1-15 | 2026-09-05 06:08:47 | 49.35708 | 8.97974 | 74° | 11km/h | 21838m | 4.2m/s | -53.7°C | 0% | 43.6hPa | 2.7V | 03:39:54 | 01:36:11 | 00:00:00 | |
| DF3TZ-5 | 2026-09-05 06:08:46 | 49.35710 | 8.97978 | 63° | 11km/h | 21843m | 4.4m/s | -53.7°C | 0.7% | 43.6hPa | 2.7V | 00:00:00 | 00:00:00 | 00:00:00 | |
| DJTTGO | 2026-09-05 06:08:45 | 49.35709 | 8.97978 | 64° | 13km/h | 21843m | 4.4m/s | -53.7°C | 0.7% | 43.6hPa | 2.7V | 03:39:00 | 00:00:00 | 00:00:00 | |
| DL1XH-15 | 2026-09-05 06:08:44 | 49.35707 | 8.97950 | 64° | 9km/h | 21807m | 4.2m/s | 0°C | 0% | 0hPa | 2.7V | 03:39:01 | 01:36:05 | 00:00:00 | |
| HSKMA3-T | 2026-09-05 06:08:44 | 49.35708 | 8.97969 | 87° | 11km/h | 21833m | 6m/s | -53.7°C | 0% | 43.7hPa | 2.7V | 03:39:03 | 01:36:10 | 00:00:00 | |
| DL1XH-west | 2026-09-05 06:08:39 | 49.35707 | 8.97950 | 64° | 9km/h | 21807m | 4.2m/s | -53.9°C | 0% | 43.8hPa | 2.7V | 03:39:03 | 01:36:05 | 00:00:00 | |
| AZAK | 2026-09-05 06:08:38 | 49.35707 | 8.97950 | 65° | 9km/h | 21808m | 4.2m/s | -53.9°C | 0% | 0hPa | 2.5V | 00:00:00 | 00:00:00 | 00:00:00 | |
| DM0DOS-11 | 2026-09-05 06:08:37 | 49.35701 | 8.97914 | 83° | 16km/h | 21772m | 4.2m/s | -54°C | 3.8% | 44.1hPa | 2.5V | 03:39:08 | 01:35:58 | 00:00:00 | |
| BIOWL1-15 | 2026-09-05 06:08:35 | 49.35704 | 8.97931 | 76° | 15km/h | 21787m | 5.2m/s | -54°C | 0% | 44hPa | 2.7V | 03:39:54 | 01:36:01 | 00:00:00 | |
| DM3KS-11 | 2026-09-05 06:08:35 | 49.35703 | 8.97926 | 70° | 15km/h | 21782m | 5.7m/s | -54.0°C | 0.7% | 44.0hPa | 2.7V | 00:00:00 | 00:00:00 | 00:00:00 | |
| DB0UT-7 | 2026-09-05 06:08:34 | 49.35703 | 8.97925 | 71° | 16km/h | 21782m | 5.6m/s | -53.9°C | 3.7% | 44.0hPa | 2.7V | 00:00:00 | 01:36:00 | 00:00:00 | |
| DL1XH-15 | 2026-09-05 06:08:33 | 49.35705 | 8.97884 | 106° | 20km/h | 21753m | 4.5m/s | 0°C | 0% | 0hPa | 2.7V | 03:39:12 | 01:35:54 | 00:00:00 | |
| HSKMA3-T | 2026-09-05 06:08:33 | 49.35702 | 8.97920 | 73° | 16km/h | 21776m | 4.1m/s | -54°C | 0% | 44hPa | 2.7V | 03:39:54 | 01:35:59 | 00:00:00 | |
| DB0ND-19 | 2026-09-05 06:08:32 | 49.35701 | 8.97914 | 83° | 16km/h | 21772m | 4.2m/s | -54.0°C | 0.7% | 44.1hPa | 2.7V | 00:00:00 | 00:00:00 | 00:00:00 | |
| DF1GD-15 | 2026-09-05 06:08:31 | 49.35703 | 8.97892 | 109° | 22km/h | 21757m | 4.3m/s | -53.7°C | 0.7% | 44.2hPa | 2.7V | 03:39:00 | 00:00:00 | 00:00:00 | |
| OE5DXL-15 | 2026-09-05 06:08:30 | 49.35705 | 8.97884 | 107° | 13km/h | 21753m | 4.4m/s | 0°C | 0% | 0hPa | 2.7V | 00:00:00 | 01:35:54 | 00:00:00 | |
| DL1XH-west | 2026-09-05 06:08:29 | 49.35703 | 8.97892 | 108° | 22km/h | 21757m | 4.3m/s | -53.8°C | 0% | 44.1hPa | 2.7V | 03:39:54 | 01:35:55 | 00:00:00 | |
| DL1XH1-15 | 2026-09-05 06:08:29 | 49.35704 | 8.97853 | 82° | 15km/h | 21728m | 5.6m/s | -54°C | 3.7% | 44.4hPa | 2.7V | 03:39:17 | 01:35:49 | 00:00:00 | |
| DO3DL | 2026-09-05 06:08:27 | 49.35705 | 8.97884 | 107° | 20km/h | 21753m | 4.5m/s | -53.8°C | 0.7% | 44.2hPa | 2.5V | 03:39:00 | 00:00:00 | 00:00:00 | |
| DB0NH | 2026-09-05 06:08:25 | 49.35706 | 8.97864 | 79° | 15km/h | 21738m | 3.9m/s | 0°C | 0% | 0hPa | 2.5V | 03:39:00 | 01:35:51 | 00:00:00 | |
| BIOWL1-15 | 2026-09-05 06:08:25 | 49.35706 | 8.97864 | 78° | 15km/h | 21738m | 3.9m/s | -53.8°C | 0% | 44.3hPa | 2.5V | 03:39:54 | 01:35:51 | 00:00:00 | |
| DJ2DS-15 | 2026-09-05 06:08:24 | 49.35705 | 8.97858 | 79° | 16km/h | 21734m | 4.6m/s | -53.9°C | 3.7% | 44.3hPa | 2.7V | 00:00:00 | 01:35:50 | 00:00:00 | |
| DL0LBS | 2026-09-05 06:08:23 | 49.35704 | 8.97853 | 84° | 15km/h | 21729m | 5.6m/s | -54.0°C | 0.8% | 44.4hPa | 2.7V | 03:39:00 | 00:00:00 | 00:00:00 | |
| DL1XH-15 | 2026-09-05 06:08:22 | 49.35699 | 8.97815 | 67° | 18km/h | 21697m | 4.8m/s | 0°C | 0% | 0hPa | 2.7V | 03:39:23 | 01:35:43 | 00:00:00 | |
| HSKMA3-T | 2026-09-05 06:08:22 | 49.35704 | 8.97847 | 89° | 16km/h | 21723m | 5.3m/s | -53.9°C | 0% | 44.4hPa | 2.7V | 03:39:54 | 01:35:48 | 00:00:00 | |
| DF2AP-13 | 2026-09-05 06:08:22 | 49.35704 | 8.97847 | 90° | 13km/h | 21723m | 5.3m/s | -53.9°C | 3.7% | 44.4hPa | 2.7V | 00:00:00 | 01:35:48 | 00:00:00 | |
| DO3DL | 2026-09-05 06:08:21 | 49.35704 | 8.97847 | 90° | 16km/h | 21723m | 5.3m/s | -53.9°C | 0.7% | 44.4hPa | 2.7V | 03:39:00 | 00:00:00 | 00:00:00 | |
| DL6DJ-15 | 2026-09-05 06:08:20 | 49.35703 | 8.97828 | 72° | 16km/h | 21708m | 6.1m/s | -54.0°C | 0.7% | 44.5hPa | 2.7V | 00:00:00 | 00:00:00 | 00:00:00 | |
| DL1XH1-15 | 2026-09-05 06:08:19 | 49.35697 | 8.97787 | 88° | 18km/h | 21677m | 4.8m/s | -54.1°C | 3.8% | 44.7hPa | 2.7V | 03:39:27 | 01:35:39 | 00:00:00 | |
| DL1XH-west | 2026-09-05 06:08:18 | 49.35701 | 8.97821 | 66° | 18km/h | 21702m | 5.3m/s | -53.9°C | 0% | 44.6hPa | 2.7V | 03:39:54 | 01:35:44 | 00:00:00 | |
| HTAHTA | 2026-09-05 06:08:18 | 49.35698 | 8.97808 | 76° | 18km/h | 21692m | 5.8m/s | 0°C | -1.0% | -1.0hPa | 2.7V | 00:00:00 | 00:00:00 | 00:00:00 | |
| OE5DRO-10 | 2026-09-05 06:08:16 | 49.35697 | 8.97801 | 86° | 13km/h | 21687m | 5.4m/s | 0°C | 0% | 0hPa | 2.7V | 00:00:00 | 00:00:00 | 00:00:00 | |
| DO3DL | 2026-09-05 06:08:15 | 49.35697 | 8.97801 | 87° | 18km/h | 21687m | 5.4m/s | -53.9°C | 0.7% | 44.7hPa | 2.7V | 03:39:00 | 00:00:00 | 00:00:00 | |
| BIOWL1-15 | 2026-09-05 06:08:15 | 49.35697 | 8.97794 | 90° | 18km/h | 21681m | 4.4m/s | -54°C | 0% | 44.7hPa | 2.7V | 03:39:54 | 01:35:40 | 00:00:00 | |
| DG1MJG | 2026-09-05 06:08:14 | 49.35697 | 8.97794 | 91° | 18km/h | 21682m | 4.4m/s | -54.0°C | 0.7% | 44.7hPa | 2.7V | 03:39:00 | 00:00:00 | 00:00:00 | |
| HSKMA3-T | 2026-09-05 06:08:13 | 49.35697 | 8.97780 | 85° | 18km/h | 21672m | 5.8m/s | -54.1°C | 0% | 44.7hPa | 2.5V | 03:39:54 | 01:35:38 | 00:00:00 | |
| DO3MHA-11 | 2026-09-05 06:08:13 | 49.35697 | 8.97787 | 89° | 13km/h | 21677m | 4.7m/s | -54.0°C | 3.8% | 44.7hPa | 2.7V | 00:00:00 | 01:35:39 | 00:00:00 | |
| DL1XH-15 | 2026-09-05 06:08:12 | 49.35696 | 8.97750 | 88° | 11km/h | 21646m | 4.3m/s | 0°C | 0% | 0hPa | 2.7V | 03:39:33 | 01:35:33 | 00:00:00 | |
| EDDB2-12 | 2026-09-05 06:08:12 | 49.35696 | 8.97773 | 83° | 16km/h | 21666m | 5.1m/s | -54.1°C | 0.7% | 44.8hPa | 2.7V | 00:00:00 | 00:00:00 | 00:00:00 | |
| SONDE2-11 | 2026-09-05 06:08:10 | 49.35696 | 8.97761 | 92° | 15km/h | 21656m | 5.8m/s | -54.2°C | 0.7% | 44.9hPa | 2.7V | 00:00:00 | 00:00:00 | 00:00:00 | |
| BIOWL9-15 | 2026-09-05 06:08:08 | 49.35696 | 8.97750 | 88° | 11km/h | 21646m | 4.4m/s | -54.0°C | 0.7% | 44.9hPa | 2.7V | 00:00:00 | 00:00:00 | 00:00:00 | |
| DL1XH1-15 | 2026-09-05 06:08:08 | 49.35693 | 8.97739 | 78° | 4km/h | 21626m | 4.7m/s | -54.2°C | 3.7% | 45.1hPa | 2.7V | 03:39:37 | 01:35:29 | 00:00:00 | |
| DM0DOS-11 | 2026-09-05 06:08:07 | 49.35694 | 8.97737 | 117° | 5km/h | 21621m | 5.6m/s | -54.3°C | 3.7% | 45.1hPa | 2.7V | 03:39:38 | 01:35:28 | 00:00:00 | |
| DL1XH-west | 2026-09-05 06:08:07 | 49.35696 | 8.97750 | 89° | 11km/h | 21646m | 4.4m/s | -54°C | 0% | 44.9hPa | 2.7V | 03:39:54 | 01:35:33 | 00:00:00 | |
| BIOWL1-15 | 2026-09-05 06:08:06 | 49.35694 | 8.97741 | 61° | 5km/h | 21631m | 4.2m/s | -54.2°C | 0% | 45hPa | 2.5V | 03:39:54 | 01:35:30 | 00:00:00 | |
| HSKMA3-T | 2026-09-05 06:08:01 | 49.35694 | 8.97735 | 130° | 7km/h | 21616m | 4.5m/s | -54.2°C | 0% | 45.1hPa | 2.5V | 03:39:54 | 01:35:27 | 00:00:00 | |
| DK5PH-5 | 2026-09-05 06:08:01 | 49.35694 | 8.97735 | 130° | 11km/h | 21616m | 4.4m/s | -54.2°C | 3.7% | 45.1hPa | 2.5V | 00:00:00 | 01:35:27 | 00:00:00 | |
| CB1BUN | 2026-09-05 06:08:00 | 49.35695 | 8.97735 | 131° | 7km/h | 21616m | 4.5m/s | -54.2°C | 0.7% | 45.1hPa | 2.5V | 03:39:00 | 00:00:00 | 00:00:00 | |
| DM7RM-13 | 2026-09-05 06:07:59 | 49.35695 | 8.97733 | 127° | 7km/h | 21612m | 4.3m/s | -54.3°C | 0.7% | 45.2hPa | 2.5V | 03:39:00 | 00:00:00 | 00:00:00 | |
| DL1XH1-15 | 2026-09-05 06:07:58 | 49.35700 | 8.97701 | 104° | 15km/h | 21579m | 4.1m/s | -54.5°C | 3.9% | 45.4hPa | 2.5V | 03:39:47 | 01:35:19 | 00:00:00 | |
| DG9SBQ-11 | 2026-09-05 06:07:58 | 49.35697 | 8.97727 | 94° | 9km/h | 21602m | 4.4m/s | -54.6°C | 0.7% | 45.2hPa | 2.7V | 03:39:00 | 00:00:00 | 00:00:00 | |
| DM0DOS-11 | 2026-09-05 06:07:57 | 49.35701 | 8.97695 | 93° | 13km/h | 21574m | 4.6m/s | -54.4°C | 3.8% | 45.4hPa | 2.7V | 03:39:48 | 01:35:18 | 00:00:00 | |
| DL1XH-west | 2026-09-05 06:07:57 | 49.35697 | 8.97723 | 93° | 13km/h | 21598m | 3.9m/s | -54.7°C | 0% | 45.3hPa | 2.7V | 03:39:54 | 01:35:23 | 00:00:00 | |
| BIOWL1-15 | 2026-09-05 06:07:53 | 49.35700 | 8.97701 | 105° | 15km/h | 21579m | 4.1m/s | -54.5°C | 0% | 45.4hPa | 2.5V | 03:39:54 | 01:35:19 | 00:00:00 | |
| HSKMA3-T | 2026-09-05 06:07:50 | 49.35700 | 8.97686 | 67° | 11km/h | 21564m | 4.2m/s | -54.5°C | 0% | 45.5hPa | 2.5V | 03:39:54 | 01:35:16 | 00:00:00 | |
| NBG1-10 | 2026-09-05 06:07:49 | 49.35699 | 8.97682 | 70° | 5km/h | 21560m | 4.0m/s | -54.4°C | 3.8% | 45.5hPa | 2.5V | 00:00:00 | 01:35:15 | 00:00:00 | |
| DL1XH1-15 | 2026-09-05 06:07:48 | 49.35706 | 8.97653 | 106° | 16km/h | 21532m | 4.9m/s | -54.4°C | 3.8% | 45.8hPa | 2.5V | 03:39:57 | 01:35:09 | 00:00:00 | |
| DM0DOS-11 | 2026-09-05 06:07:47 | 49.35707 | 8.97647 | 97° | 15km/h | 21527m | 4.4m/s | -54.3°C | 3.8% | 45.8hPa | 2.5V | 03:39:58 | 01:35:08 | 00:00:00 | |
| DF1GD-15 | 2026-09-05 06:07:47 | 49.35699 | 8.97675 | 112° | 11km/h | 21550m | 5.2m/s | -54.3°C | 0.7% | 45.6hPa | 2.7V | 03:39:00 | 00:00:00 | 00:00:00 | |
| DL1XH-15 | 2026-09-05 06:07:46 | 49.35707 | 8.97642 | 89° | 11km/h | 21523m | 4.1m/s | 0°C | 0% | 0hPa | 2.7V | 00:00:00 | 01:35:07 | 00:00:00 | |
| DL1XH-west | 2026-09-05 06:07:46 | 49.35700 | 8.97670 | 121° | 15km/h | 21545m | 4.4m/s | -54.3°C | 0% | 45.7hPa | 2.7V | 03:39:54 | 01:35:12 | 00:00:00 | |
| BIOWL1-15 | 2026-09-05 06:07:43 | 49.35706 | 8.97653 | 106° | 16km/h | 21532m | 4.9m/s | -54.4°C | 0% | 45.8hPa | 2.5V | 03:40:45 | 01:35:09 | 00:00:00 | |
| HSKMA3-T | 2026-09-05 06:07:39 | 49.35707 | 8.97638 | 129° | 2km/h | 21513m | 5.8m/s | -54.5°C | 0% | 45.9hPa | 2.5V | 03:40:45 | 01:35:05 | 00:00:00 | |
| SONDE2-11 | 2026-09-05 06:07:39 | 49.35708 | 8.97637 | 188° | 2km/h | 21508m | 5.1m/s | -54.4°C | 0.7% | 45.9hPa | 2.5V | 00:00:00 | 00:00:00 | 00:00:00 | |
| DL1XH1-15 | 2026-09-05 06:07:38 | 49.35706 | 8.97632 | 53° | 13km/h | 21484m | 4.2m/s | -54.3°C | 3.9% | 46.1hPa | 2.5V | 03:40:07 | 01:34:59 | 00:00:00 | |
| DM0DOS-11 | 2026-09-05 06:07:37 | 49.35704 | 8.97628 | 63° | 13km/h | 21480m | 3.9m/s | -54.3°C | 3.8% | 46.1hPa | 2.5V | 03:40:08 | 01:34:58 | 00:00:00 | |
| DL1XH-west | 2026-09-05 06:07:35 | 49.35709 | 8.97637 | 49° | 4km/h | 21494m | 5.5m/s | -54.4°C | 0% | 46hPa | 2.7V | 03:40:45 | 01:35:01 | 00:00:00 | |
| BIOWL1-15 | 2026-09-05 06:07:32 | 49.35704 | 8.97628 | 63° | 13km/h | 21480m | 3.9m/s | -54.3°C | 0% | 46.1hPa | 2.5V | 03:40:45 | 01:34:58 | 00:00:00 | |
| HSKMA3-T | 2026-09-05 06:07:29 | 49.35703 | 8.97616 | 108° | 7km/h | 21466m | 4.3m/s | -54.2°C | 0% | 46.2hPa | 2.7V | 03:40:45 | 01:34:55 | 00:00:00 | |
| DL1KLB | 2026-09-05 06:07:28 | 49.35703 | 8.97616 | 109° | 7km/h | 21466m | 4.3m/s | -54.2°C | 0% | 46.2hPa | 2.5V | 03:40:00 | 00:00:00 | 00:00:00 | |
| DM0DOS-11 | 2026-09-05 06:07:27 | 49.35704 | 8.97614 | 4° | 0km/h | 21433m | 4.3m/s | -54°C | 3.8% | 46.5hPa | 2.5V | 03:40:18 | 01:34:48 | 00:00:00 | |
| DL1XH-west | 2026-09-05 06:07:24 | 49.35703 | 8.97613 | 278° | 2km/h | 21443m | 5m/s | -54.1°C | 0% | 46.4hPa | 2.5V | 03:40:45 | 01:34:50 | 00:00:00 | |
| BIOWL1-15 | 2026-09-05 06:07:21 | 49.35703 | 8.97614 | 8° | 4km/h | 21428m | 4m/s | -54.1°C | 0% | 46.5hPa | 2.7V | 03:40:45 | 01:34:47 | 00:00:00 | |
| HSKMA3-T | 2026-09-05 06:07:19 | 49.35700 | 8.97613 | 5° | 11km/h | 21418m | 4.7m/s | -53.9°C | 0% | 46.6hPa | 2.7V | 03:40:45 | 01:34:45 | 00:00:00 | |
| DL1XH1-15 | 2026-09-05 06:07:18 | 49.35690 | 8.97616 | 290° | 5km/h | 21388m | 5.1m/s | -53.7°C | 3.8% | 46.8hPa | 2.5V | 03:40:27 | 01:34:39 | 00:00:00 | |
| DL1XH-west | 2026-09-05 06:07:14 | 49.35691 | 8.97614 | 305° | 5km/h | 21393m | 5.4m/s | -53.8°C | 0% | 46.8hPa | 2.7V | 03:40:45 | 01:34:40 | 00:00:00 | |
| BIOWL1-15 | 2026-09-05 06:07:10 | 49.35691 | 8.97622 | 224° | 5km/h | 21374m | 5.2m/s | -53.8°C | 0% | 46.9hPa | 2.7V | 03:40:45 | 01:34:36 | 00:00:00 | |
| EDDB2-12 | 2026-09-05 06:07:09 | 49.35692 | 8.97624 | 205° | 4km/h | 21370m | 4.3m/s | -53.7°C | -1.0% | 46.9hPa | 2.7V | 00:00:00 | 00:00:00 | 00:00:00 | |
| DL1XH1-15 | 2026-09-05 06:07:08 | 49.35683 | 8.97622 | 22° | 11km/h | 21342m | 5.2m/s | -53.6°C | 3.8% | 47.1hPa | 2.7V | 03:40:37 | 01:34:29 | 00:00:00 | |
| HSKMA3-T | 2026-09-05 06:07:08 | 49.35693 | 8.97624 | 250° | 2km/h | 21366m | 3.7m/s | -53.8°C | 0% | 47hPa | 2.7V | 03:40:45 | 01:34:34 | 00:00:00 | |
| DM0DOS-11 | 2026-09-05 06:07:07 | 49.35680 | 8.97621 | 23° | 9km/h | 21337m | 4.4m/s | -53.5°C | 3.7% | 47.2hPa | 2.5V | 03:40:38 | 01:34:28 | 00:00:00 | |
| DL1XH-west | 2026-09-05 06:07:04 | 49.35685 | 8.97624 | 15° | 11km/h | 21347m | 4.7m/s | -53.6°C | 0% | 47.1hPa | 2.7V | 03:40:45 | 01:34:30 | 00:00:00 | |
| BIOWL1-15 | 2026-09-05 06:07:00 | 49.35677 | 8.97620 | 352° | 5km/h | 21327m | 5.2m/s | -53.4°C | 0% | 47.3hPa | 2.5V | 03:40:45 | 01:34:26 | 00:00:00 | |
| DB0ND-19 | 2026-09-05 06:06:59 | 49.35675 | 8.97620 | 322° | 4km/h | 21323m | 4.1m/s | -53.3°C | 0.7% | 47.3hPa | 2.7V | 00:00:00 | 00:00:00 | 00:00:00 | |
| DL1XH1-15 | 2026-09-05 06:06:58 | 49.35677 | 8.97620 | 5° | 5km/h | 21295m | 5.3m/s | -53.2°C | 3.7% | 47.5hPa | 2.7V | 03:40:47 | 01:34:19 | 00:00:00 | |
| DM0DOS-11 | 2026-09-05 06:06:57 | 49.35675 | 8.97620 | 359° | 7km/h | 21290m | 4.3m/s | -53.2°C | 3.7% | 47.5hPa | 2.7V | 03:40:48 | 01:34:18 | 00:00:00 | |
| HSKMA3-T | 2026-09-05 06:06:57 | 49.35675 | 8.97622 | 197° | 4km/h | 21313m | 5.5m/s | -53.3°C | 0% | 47.4hPa | 2.7V | 03:40:45 | 01:34:23 | 00:00:00 | |
| DL1XH-west | 2026-09-05 06:06:53 | 49.35677 | 8.97620 | 5° | 5km/h | 21295m | 5.3m/s | -53.2°C | 0% | 47.5hPa | 2.7V | 03:41:36 | 01:34:19 | 00:00:00 | |
| BIOWL1-15 | 2026-09-05 06:06:51 | 49.35669 | 8.97618 | 41° | 7km/h | 21277m | 5.5m/s | -53.3°C | 0% | 47.6hPa | 2.5V | 03:41:36 | 01:34:15 | 00:00:00 | |
| DL1ZP-14 | 2026-09-05 06:06:50 | 49.35671 | 8.97619 | 19° | 7km/h | 21282m | 4.4m/s | -53.2°C | 0.7% | 47.6hPa | 2.5V | 00:00:00 | 00:00:00 | 00:00:00 | |
| DB0UT-9 | 2026-09-05 06:06:49 | 49.35670 | 8.97619 | 21° | 9km/h | 21282m | 4.4m/s | -53.2°C | 0.7% | 47.6hPa | 2.7V | 03:41:00 | 00:00:00 | 00:00:00 | |
| DM0DOS-11 | 2026-09-05 06:06:47 | 49.35662 | 8.97613 | 3° | 7km/h | 21246m | 5.3m/s | -53.2°C | 3.6% | 47.9hPa | 2.7V | 03:40:58 | 01:34:08 | 00:00:00 | |
| HSKMA3-T | 2026-09-05 06:06:46 | 49.35667 | 8.97612 | 63° | 4km/h | 21264m | 4.3m/s | -53.2°C | 0% | 47.7hPa | 2.7V | 03:41:36 | 01:34:12 | 00:00:00 | |
| DL1XH-west | 2026-09-05 06:06:42 | 49.35662 | 8.97613 | 3° | 7km/h | 21246m | 5.3m/s | -53.2°C | 0% | 47.9hPa | 2.7V | 03:41:36 | 01:34:08 | 00:00:00 | |
| BIOWL1-15 | 2026-09-05 06:06:39 | 49.35658 | 8.97609 | 44° | 7km/h | 21231m | 5.1m/s | -53.1°C | 0% | 48hPa | 2.5V | 03:41:36 | 01:34:05 | 00:00:00 | |
| DL1XH1-15 | 2026-09-05 06:06:38 | 49.35658 | 8.97593 | 116° | 13km/h | 21200m | 4.3m/s | -53°C | 3.7% | 48.2hPa | 2.5V | 03:41:07 | 01:33:59 | 00:00:00 | |
| HSKMA3-T | 2026-09-05 06:06:36 | 49.35656 | 8.97604 | 89° | 5km/h | 21216m | 4.6m/s | -53.2°C | 0% | 48.1hPa | 2.7V | 03:41:36 | 01:34:02 | 00:00:00 | |
| DL1XH-west | 2026-09-05 06:06:32 | 49.35660 | 8.97589 | 119° | 11km/h | 21195m | 5.2m/s | -53.1°C | 0% | 48.2hPa | 2.5V | 03:41:36 | 01:33:58 | 00:00:00 | |
| DF7PN | 2026-09-05 06:06:31 | 49.35662 | 8.97583 | 115° | 5km/h | 21185m | 4.3m/s | -53.0°C | 0.7% | 48.3hPa | 2.5V | 00:00:00 | 00:00:00 | 00:00:00 | |
| DK5PH-5 | 2026-09-05 06:06:30 | 49.35662 | 8.97583 | 116° | 5km/h | 21185m | 4.3m/s | -52.9°C | 3.7% | 48.3hPa | 2.5V | 00:00:00 | 01:33:56 | 00:00:00 | |
| DL1XH1-15 | 2026-09-05 06:06:28 | 49.35671 | 8.97567 | 161° | 5km/h | 21151m | 3.6m/s | -52.8°C | 3.6% | 48.6hPa | 2.5V | 03:41:17 | 01:33:49 | 00:00:00 | |
| BIOWL1-15 | 2026-09-05 06:06:28 | 49.35663 | 8.97578 | 118° | 9km/h | 21176m | 5.3m/s | -52.9°C | 0% | 48.4hPa | 2.5V | 03:41:36 | 01:33:54 | 00:00:00 | |
| DM0DOS-11 | 2026-09-05 06:06:27 | 49.35673 | 8.97565 | 149° | 7km/h | 21147m | 5.2m/s | -52.8°C | 3.6% | 48.6hPa | 2.5V | 03:41:18 | 01:33:48 | 00:00:00 | |
| HSKMA3-T | 2026-09-05 06:06:25 | 49.35668 | 8.97569 | 145° | 9km/h | 21161m | 5.9m/s | -52.9°C | 0% | 48.5hPa | 2.7V | 03:41:36 | 01:33:51 | 00:00:00 | |
| DL1XH-west | 2026-09-05 06:06:21 | 49.35674 | 8.97564 | 138° | 7km/h | 21142m | 5.1m/s | -52.8°C | 0% | 48.6hPa | 2.5V | 03:41:36 | 01:33:47 | 00:00:00 | |
| BIOWL1-15 | 2026-09-05 06:06:19 | 49.35679 | 8.97559 | 195° | 5km/h | 21122m | 4.9m/s | -52.6°C | 0% | 48.8hPa | 2.5V | 03:41:36 | 01:33:43 | 00:00:00 | |
| DL1ZP-14 | 2026-09-05 06:06:19 | 49.35677 | 8.97560 | 145° | 5km/h | 21133m | 4.3m/s | -52.7°C | 0.7% | 48.7hPa | 2.7V | 00:00:00 | 00:00:00 | 00:00:00 | |
| DL1XH1-15 | 2026-09-05 06:06:18 | 49.35685 | 8.97559 | 137° | 5km/h | 21103m | 4.3m/s | -52.7°C | 3.6% | 48.9hPa | 2.7V | 03:41:27 | 01:33:39 | 00:00:00 | |
| DM0DOS-11 | 2026-09-05 06:06:17 | 49.35685 | 8.97557 | 141° | 5km/h | 21099m | 4.1m/s | -52.6°C | 3.5% | 49hPa | 2.5V | 03:41:28 | 01:33:38 | 00:00:00 | |
| HSKMA3-T | 2026-09-05 06:06:15 | 49.35682 | 8.97561 | 182° | 5km/h | 21113m | 5.4m/s | -52.7°C | 0% | 48.9hPa | 2.7V | 03:41:36 | 01:33:41 | 00:00:00 | |
| DL1XH-west | 2026-09-05 06:06:10 | 49.35687 | 8.97557 | 221° | 4km/h | 21089m | 4.9m/s | -52.7°C | 0% | 49hPa | 2.5V | 03:41:36 | 01:33:36 | 00:00:00 | |
| DB0UT-9 | 2026-09-05 06:06:08 | 49.35688 | 8.97558 | 221° | 5km/h | 21085m | 4.0m/s | -52.6°C | 0.7% | 49.1hPa | 2.7V | 03:41:00 | 00:00:00 | 00:00:00 | |
| DM0DOS-11 | 2026-09-05 06:06:07 | 49.35695 | 8.97563 | 255° | 5km/h | 21051m | 4.3m/s | -52.3°C | 3.5% | 49.3hPa | 2.7V | 03:41:38 | 01:33:28 | 00:00:00 | |
| BIOWL1-15 | 2026-09-05 06:06:06 | 49.35692 | 8.97559 | 173° | 5km/h | 21070m | 4.3m/s | -52.5°C | 0% | 49.2hPa | 2.5V | 03:41:36 | 01:33:32 | 00:00:00 | |
| HSKMA3-T | 2026-09-05 06:06:05 | 49.35693 | 8.97559 | 179° | 5km/h | 21065m | 4.1m/s | -52.5°C | 0% | 49.2hPa | 2.5V | 03:41:36 | 01:33:31 | 00:00:00 | |
| BIOWL9-15 | 2026-09-05 06:06:04 | 49.35695 | 8.97561 | 243° | 4km/h | 21056m | 5.2m/s | 0°C | -1.0% | 49.3hPa | 2.7V | 00:00:00 | 00:00:00 | 00:00:00 | |
| DO3MHA-11 | 2026-09-05 06:06:03 | 49.35695 | 8.97561 | 244° | 9km/h | 21056m | 5.1m/s | -52.4°C | 3.5% | 49.2hPa | 2.7V | 00:00:00 | 01:33:29 | 00:00:00 | |
| NBG1-10 | 2026-09-05 06:06:02 | 49.35695 | 8.97562 | 256° | 20km/h | 21051m | 4.2m/s | -52.3°C | 3.5% | 49.3hPa | 2.5V | 00:00:00 | 01:33:28 | 00:00:00 | |
| DL0LBS | 2026-09-05 06:06:01 | 49.35697 | 8.97565 | 164° | 5km/h | 21037m | 5.4m/s | -52.4°C | 0.7% | 49.4hPa | 2.5V | 03:42:00 | 00:00:00 | 00:00:00 | |
| DL1XH1-15 | 2026-09-05 06:06:00 | 49.35707 | 8.97566 | 204° | 15km/h | 21017m | 5.5m/s | -52.3°C | 3.4% | 49.6hPa | 2.5V | 03:41:45 | 01:33:21 | 00:00:00 | |
| DL1XH-west | 2026-09-05 06:05:59 | 49.35697 | 8.97565 | 163° | 5km/h | 21037m | 5.4m/s | -52.4°C | 0% | 49.4hPa | 2.5V | 03:42:27 | 01:33:25 | 00:00:00 | |
| BIOWL1-15 | 2026-09-05 06:05:58 | 49.35704 | 8.97564 | 191° | 13km/h | 21023m | 5.1m/s | -52.3°C | 0% | 49.6hPa | 2.5V | 03:43:18 | 01:33:22 | 00:00:00 | |
| DM0DOS-11 | 2026-09-05 06:05:57 | 49.35718 | 8.97575 | 205° | 18km/h | 21002m | 5.8m/s | -52.6°C | 3.4% | 49.7hPa | 2.7V | 03:41:48 | 01:33:18 | 00:00:00 | |
| HSKMA3-T | 2026-09-05 06:05:55 | 49.35707 | 8.97566 | 204° | 15km/h | 21017m | 5.5m/s | -52.3°C | 0% | 49.6hPa | 2.5V | 03:42:27 | 01:33:21 | 00:00:00 | |
| HARRO8 | 2026-09-05 06:05:51 | 49.35726 | 8.97580 | 206° | 15km/h | 20993m | 4.2m/s | -52.6°C | 0.7% | 49.8hPa | 2.5V | 00:00:00 | 00:00:00 | 00:00:00 | |
| DL1XH1-15 | 2026-09-05 06:05:50 | 49.35739 | 8.97590 | 162° | 11km/h | 20968m | 5.9m/s | -52.6°C | 3.6% | 50hPa | 2.5V | 03:41:55 | 01:33:11 | 00:00:00 | |
| DL1XH-west | 2026-09-05 06:05:49 | 49.35729 | 8.97583 | 215° | 15km/h | 20988m | 5.5m/s | -52.6°C | 0% | 49.8hPa | 2.5V | 03:42:27 | 01:33:15 | 00:00:00 | |
| BIOWL1-15 | 2026-09-05 06:05:45 | 49.35739 | 8.97590 | 162° | 11km/h | 20969m | 5.9m/s | -52.6°C | 0% | 50hPa | 2.5V | 03:43:18 | 01:33:11 | 00:00:00 | |
| HSKMA3-T | 2026-09-05 06:05:44 | 49.35742 | 8.97588 | 150° | 15km/h | 20963m | 4.9m/s | -52.5°C | 0% | 50hPa | 2.5V | 03:42:27 | 01:33:10 | 00:00:00 | |
| DO3MHA-11 | 2026-09-05 06:05:43 | 49.35745 | 8.97585 | 149° | 18km/h | 20959m | 4.5m/s | -52.4°C | 3.6% | 50.0hPa | 2.7V | 03:41:00 | 01:33:09 | 00:00:00 | |
| DG1MJG | 2026-09-05 06:05:41 | 49.35749 | 8.97581 | 153° | 16km/h | 20954m | 5.0m/s | -52.5°C | 0.6% | 50.1hPa | 2.7V | 03:42:00 | 00:00:00 | 00:00:00 | |
| DL1XH1-15 | 2026-09-05 06:05:40 | 49.35779 | 8.97574 | 180° | 22km/h | 20918m | 5.3m/s | -52.6°C | 3.5% | 50.4hPa | 2.7V | 03:42:05 | 01:33:01 | 00:00:00 | |
| DL1XH-west | 2026-09-05 06:05:38 | 49.35764 | 8.97576 | 173° | 16km/h | 20934m | 5.9m/s | -52.5°C | 0% | 50.2hPa | 2.5V | 03:42:27 | 01:33:04 | 00:00:00 | |
| BIOWL1-15 | 2026-09-05 06:05:34 | 49.35784 | 8.97574 | 186° | 20km/h | 20913m | 5.8m/s | -52.6°C | 0% | 50.4hPa | 2.5V | 03:43:18 | 01:33:00 | 00:00:00 | |
| HSKMA3-T | 2026-09-05 06:05:33 | 49.35790 | 8.97575 | 186° | 20km/h | 20908m | 4.4m/s | -52.4°C | 0% | 50.5hPa | 2.5V | 03:42:27 | 01:32:59 | 00:00:00 | |
| DO3MHA-11 | 2026-09-05 06:05:33 | 49.35790 | 8.97575 | 187° | 26km/h | 20908m | 4.4m/s | -52.4°C | 3.5% | 50.4hPa | 2.5V | 00:00:00 | 01:32:59 | 00:00:00 | |
| DG9SBQ-11 | 2026-09-05 06:05:32 | 49.35789 | 8.97575 | 187° | 20km/h | 20908m | 4.4m/s | -52.4°C | 0.7% | 50.5hPa | 2.7V | 03:42:00 | 00:00:00 | 00:00:00 | |
| SFWM-10 | 2026-09-05 06:05:31 | 49.35795 | 8.97575 | 180° | 22km/h | 20904m | 3.8m/s | -52.4°C | 0.7% | 50.5hPa | 2.7V | 03:42:00 | 00:00:00 | 00:00:00 | |
| DL1XH1-15 | 2026-09-05 06:05:30 | 49.35838 | 8.97554 | 166° | 26km/h | 20869m | 4.3m/s | -52.3°C | 3.5% | 50.7hPa | 2.7V | 03:42:15 | 01:32:51 | 00:00:00 | |
| DL1XH-west | 2026-09-05 06:05:27 | 49.35826 | 8.97560 | 158° | 26km/h | 20878m | 5.5m/s | -52.2°C | 0% | 50.7hPa | 2.5V | 03:42:27 | 01:32:53 | 00:00:00 | |
| BIOWL1-15 | 2026-09-05 06:05:26 | 49.35845 | 8.97552 | 170° | 26km/h | 20864m | 5.6m/s | -52.4°C | 0% | 50.8hPa | 2.7V | 03:43:18 | 01:32:50 | 00:00:00 | |
| HSKMA3-T | 2026-09-05 06:05:23 | 49.35852 | 8.97550 | 173° | 29km/h | 20859m | 5.3m/s | -52.4°C | 0% | 50.8hPa | 2.5V | 03:42:27 | 01:32:49 | 00:00:00 | |
| DO3MHA-11 | 2026-09-05 06:05:23 | 49.35851 | 8.97550 | 173° | 29km/h | 20859m | 5.3m/s | -52.4°C | 3.5% | 50.8hPa | 2.5V | 00:00:00 | 01:32:49 | 00:00:00 | |
| DG9SBQ-11 | 2026-09-05 06:05:22 | 49.35859 | 8.97549 | 178° | 29km/h | 20854m | 4.5m/s | -52.3°C | 0.6% | 50.9hPa | 2.5V | 03:42:00 | 00:00:00 | 00:00:00 | |
| DJTTGO | 2026-09-05 06:05:21 | 49.35866 | 8.97549 | 182° | 29km/h | 20849m | 5.1m/s | -52.4°C | 0.6% | 50.9hPa | 2.5V | 00:00:00 | 00:00:00 | 00:00:00 | |
| DL1XH1-15 | 2026-09-05 06:05:20 | 49.35909 | 8.97534 | 144° | 33km/h | 20821m | 4m/s | -52.2°C | 3.4% | 51.1hPa | 2.5V | 03:42:25 | 01:32:41 | 00:00:00 | |
| HARRO8 | 2026-09-05 06:05:20 | 49.35880 | 8.97550 | 179° | 27km/h | 20839m | 3.7m/s | -52.2°C | 0.6% | 51.0hPa | 2.5V | 00:00:00 | 00:00:00 | 00:00:00 | |
| DL1KLB | 2026-09-05 06:05:18 | 49.35880 | 8.97550 | 180° | 27km/h | 20840m | 3.7m/s | 0°C | 0% | 0hPa | 2.5V | 03:42:00 | 00:00:00 | 00:00:00 | |
| DM0DOS-11 | 2026-09-05 06:05:17 | 49.35927 | 8.97513 | 145° | 27km/h | 20807m | 3.7m/s | -52°C | 3.5% | 51.2hPa | 2.5V | 03:42:28 | 01:32:38 | 00:00:00 | |
| DL1XH-west | 2026-09-05 06:05:17 | 49.35894 | 8.97546 | 161° | 31km/h | 20830m | 5.8m/s | -52.1°C | 0% | 51.1hPa | 2.5V | 03:42:27 | 01:32:43 | 00:00:00 | |
| HSKMA3-T | 2026-09-05 06:05:13 | 49.35922 | 8.97520 | 143° | 29km/h | 20811m | 5.2m/s | -52.1°C | 0% | 51.2hPa | 2.7V | 03:42:27 | 01:32:39 | 00:00:00 | |
| DO3MHA-11 | 2026-09-05 06:05:13 | 49.35921 | 8.97520 | 143° | 26km/h | 20811m | 5.1m/s | -52.1°C | 3.4% | 51.2hPa | 2.5V | 00:00:00 | 01:32:39 | 00:00:00 | |
| DM7RM-13 | 2026-09-05 06:05:12 | 49.35921 | 8.97520 | 144° | 29km/h | 20811m | 5.2m/s | -52.1°C | 0.7% | 51.2hPa | 2.5V | 03:42:00 | 00:00:00 | 00:00:00 | |
| SFWM-10 | 2026-09-05 06:05:11 | 49.35933 | 8.97508 | 151° | 26km/h | 20803m | 4.5m/s | -52.0°C | 0.7% | 51.3hPa | 2.5V | 03:43:00 | 00:00:00 | 00:00:00 | |
| DL1XH1-15 | 2026-09-05 06:05:10 | 49.35968 | 8.97486 | 154° | 22km/h | 20773m | 4.2m/s | -52.1°C | 3.4% | 51.5hPa | 2.5V | 03:42:35 | 01:32:31 | 00:00:00 | |
| DF3TZ-5 | 2026-09-05 06:05:09 | 49.35952 | 8.97495 | 160° | 24km/h | 20788m | 4.6m/s | -52.0°C | 0.6% | 51.4hPa | 2.7V | 00:00:00 | 00:00:00 | 00:00:00 | |
| DM0DOS-11 | 2026-09-05 06:05:07 | 49.35986 | 8.97472 | 153° | 31km/h | 20759m | 4.6m/s | -52.4°C | 3.4% | 51.6hPa | 2.7V | 03:42:38 | 01:32:28 | 00:00:00 | |
| DL1XH-west | 2026-09-05 06:05:07 | 49.35957 | 8.97492 | 161° | 24km/h | 20783m | 5.2m/s | -52°C | 0% | 51.5hPa | 2.7V | 03:43:18 | 01:32:33 | 00:00:00 | |
| HSKMA3-T | 2026-09-05 06:05:02 | 49.35985 | 8.97472 | 154° | 31km/h | 20759m | 4.6m/s | -52.4°C | 0% | 51.6hPa | 2.7V | 03:43:18 | 01:32:28 | 00:00:00 | |
| DF1GD-15 | 2026-09-05 06:05:01 | 49.35986 | 8.97472 | 155° | 31km/h | 20759m | 4.6m/s | -52.4°C | 0.7% | 51.6hPa | 2.5V | 03:43:00 | 00:00:00 | 00:00:00 | |
| DL1XH1-15 | 2026-09-05 06:05:00 | 49.36032 | 8.97433 | 143° | 31km/h | 20725m | 4.5m/s | -52.1°C | 3.5% | 51.9hPa | 2.5V | 03:42:45 | 01:32:21 | 00:00:00 | |
| DK5PH-5 | 2026-09-05 06:05:00 | 49.36000 | 8.97461 | 155° | 29km/h | 20750m | 5.2m/s | -52.3°C | 3.4% | 51.6hPa | 2.7V | 03:42:00 | 01:32:26 | 00:00:00 | |
| DG9SBQ-11 | 2026-09-05 06:04:59 | 49.36000 | 8.97462 | 155° | 31km/h | 20750m | 5.2m/s | -52.4°C | 0.6% | 51.7hPa | 2.7V | 03:43:00 | 00:00:00 | 00:00:00 | |
| DM0DOS-11 | 2026-09-05 06:04:57 | 49.36047 | 8.97411 | 127° | 24km/h | 20711m | 5.2m/s | -52.1°C | 3.4% | 52hPa | 2.7V | 03:42:48 | 01:32:18 | 00:00:00 | |
| DL1XH-west | 2026-09-05 06:04:56 | 49.36026 | 8.97440 | 148° | 29km/h | 20731m | 5.7m/s | -52.2°C | 0% | 51.9hPa | 2.7V | 03:43:18 | 01:32:22 | 00:00:00 | |
| BIOWL1-15 | 2026-09-05 06:04:53 | 49.36043 | 8.97419 | 133° | 26km/h | 20716m | 5.7m/s | -52.1°C | 0% | 52hPa | 2.5V | 03:43:18 | 01:32:19 | 00:00:00 | |
| HSKMA3-T | 2026-09-05 06:04:51 | 49.36051 | 8.97403 | 126° | 26km/h | 20706m | 4m/s | -52.1°C | 0% | 52.1hPa | 2.7V | 03:43:18 | 01:32:17 | 00:00:00 | |
| HARRO8 | 2026-09-05 06:04:49 | 49.36065 | 8.97378 | 135° | 33km/h | 20691m | 4.5m/s | -52.2°C | 0.6% | 52.2hPa | 2.5V | 00:00:00 | 00:00:00 | 00:00:00 | |
| DO3DL | 2026-09-05 06:04:48 | 49.36065 | 8.97378 | 137° | 33km/h | 20692m | 4.5m/s | -52.2°C | 0.6% | 52.2hPa | 2.5V | 03:43:00 | 00:00:00 | 00:00:00 | |
| DM0DOS-11 | 2026-09-05 06:04:47 | 49.36099 | 8.97327 | 128° | 33km/h | 20663m | 5.6m/s | -52.2°C | 3.2% | 52.4hPa | 2.5V | 03:42:58 | 01:32:08 | 00:00:00 | |
| DL1XH-west | 2026-09-05 06:04:45 | 49.36083 | 8.97353 | 138° | 31km/h | 20677m | 5m/s | -52.4°C | 0% | 52.3hPa | 2.7V | 03:43:18 | 01:32:11 | 00:00:00 | |
| HSKMA3-T | 2026-09-05 06:04:41 | 49.36104 | 8.97316 | 123° | 33km/h | 20658m | 4.2m/s | -52.3°C | 0% | 52.5hPa | 2.7V | 03:43:18 | 01:32:07 | 00:00:00 | |
| DL1XH1-15 | 2026-09-05 06:04:40 | 49.36119 | 8.97261 | 113° | 26km/h | 20629m | 5.4m/s | -52.5°C | 3.4% | 52.7hPa | 2.7V | 03:43:05 | 01:32:01 | 00:00:00 | |
| DL1XH-west | 2026-09-05 06:04:35 | 49.36120 | 8.97261 | 113° | 26km/h | 20629m | 5.4m/s | -52.5°C | 0% | 52.7hPa | 2.7V | 03:43:18 | 01:32:01 | 00:00:00 | |
| DB0UT-7 | 2026-09-05 06:04:34 | 49.36122 | 8.97251 | 117° | 24km/h | 20625m | 4.2m/s | -52.5°C | 3.4% | 52.7hPa | 2.5V | 00:00:00 | 01:32:00 | 00:00:00 | |
| SONDE2-11 | 2026-09-05 06:04:33 | 49.36129 | 8.97233 | 119° | 26km/h | 20615m | 5.6m/s | -52.8°C | 0.7% | 52.8hPa | 2.5V | 00:00:00 | 00:00:00 | 00:00:00 | |
| DO3MHA-11 | 2026-09-05 06:04:32 | 49.36129 | 8.97233 | 120° | 24km/h | 20616m | 5.5m/s | -52.7°C | 3.5% | 52.8hPa | 2.5V | 00:00:00 | 01:31:58 | 00:00:00 | |
| DM7RM-13 | 2026-09-05 06:04:31 | 49.36129 | 8.97233 | 120° | 26km/h | 20616m | 5.6m/s | -52.8°C | 0.7% | 52.8hPa | 2.7V | 03:43:00 | 00:00:00 | 00:00:00 | |
| DL1XH1-15 | 2026-09-05 06:04:30 | 49.36148 | 8.97171 | 102° | 22km/h | 20582m | 5.4m/s | -53.4°C | 3.6% | 53.1hPa | 2.7V | 03:43:15 | 01:31:51 | 00:00:00 | |
| HSKMA3-T | 2026-09-05 06:04:30 | 49.36135 | 8.97216 | 119° | 26km/h | 20605m | 4.4m/s | -52.9°C | 0% | 52.9hPa | 2.7V | 03:43:18 | 01:31:56 | 00:00:00 | |
| BIOWL1-15 | 2026-09-05 06:04:28 | 49.36141 | 8.97198 | 116° | 27km/h | 20596m | 4.8m/s | -53°C | 0% | 53hPa | 2.5V | 03:43:18 | 01:31:54 | 00:00:00 | |
| DM0DOS-11 | 2026-09-05 06:04:27 | 49.36150 | 8.97148 | 103° | 22km/h | 20569m | 5m/s | -53.3°C | 3.6% | 53.2hPa | 2.5V | 03:43:18 | 01:31:48 | 00:00:00 | |
| DL1XH-west | 2026-09-05 06:04:24 | 49.36149 | 8.97163 | 97° | 20km/h | 20577m | 4.2m/s | -53.4°C | 0% | 53.1hPa | 2.7V | 03:43:18 | 01:31:50 | 00:00:00 | |
| DJ2DS-15 | 2026-09-05 06:04:24 | 49.36149 | 8.97163 | 98° | 24km/h | 20578m | 4.1m/s | -53.3°C | 3.6% | 53.1hPa | 2.7V | 00:00:00 | 01:31:50 | 00:00:00 | |
| DF2AP-13 | 2026-09-05 06:04:22 | 49.36150 | 8.97148 | 104° | 27km/h | 20569m | 4.9m/s | -53.2°C | 3.6% | 53.1hPa | 2.5V | 00:00:00 | 01:31:48 | 00:00:00 | |
| DL1XH1-15 | 2026-09-05 06:04:20 | 49.36171 | 8.97093 | 122° | 22km/h | 20537m | 4m/s | -53.4°C | 3.7% | 53.4hPa | 2.5V | 03:43:25 | 01:31:41 | 00:00:00 | |
| HSKMA3-T | 2026-09-05 06:04:19 | 49.36158 | 8.97122 | 122° | 26km/h | 20555m | 4.2m/s | -53.5°C | 0% | 53.3hPa | 2.7V | 03:45:00 | 01:31:45 | 00:00:00 | |
| BIOWL1-15 | 2026-09-05 06:04:19 | 49.36164 | 8.97107 | 126° | 22km/h | 20546m | 4.7m/s | -53.5°C | 0% | 53.4hPa | 2.5V | 03:44:09 | 01:31:43 | 00:00:00 | |
| HARRO8 | 2026-09-05 06:04:18 | 49.36164 | 8.97107 | 125° | 20km/h | 20546m | 4.7m/s | -53.5°C | 0.7% | 53.4hPa | 2.7V | 00:00:00 | 00:00:00 | 00:00:00 | |
| DM0DOS-11 | 2026-09-05 06:04:17 | 49.36180 | 8.97067 | 117° | 27km/h | 20524m | 3.5m/s | -53.3°C | 3.7% | 53.6hPa | 2.7V | 03:43:28 | 01:31:38 | 00:00:00 | |
| DL1XH-west | 2026-09-05 06:04:13 | 49.36177 | 8.97077 | 118° | 27km/h | 20528m | 4.6m/s | -53.4°C | 0% | 53.5hPa | 2.7V | 03:44:09 | 01:31:39 | 00:00:00 | |
| DO3MHA-11 | 2026-09-05 06:04:12 | 49.36180 | 8.97067 | 118° | 26km/h | 20524m | 3.5m/s | -53.3°C | 3.7% | 53.5hPa | 2.5V | 00:00:00 | 01:31:38 | 00:00:00 | |
| DL6DJ-15 | 2026-09-05 06:04:11 | 49.36183 | 8.97058 | 119° | 27km/h | 20520m | 4.0m/s | -53.3°C | 0.7% | 53.6hPa | 2.5V | 00:00:00 | 00:00:00 | 00:00:00 | |
| DM7RM-13 | 2026-09-05 06:04:10 | 49.36184 | 8.97058 | 121° | 27km/h | 20520m | 4.0m/s | -53.3°C | 0.8% | 53.6hPa | 2.5V | 03:44:00 | 00:00:00 | 00:00:00 | |
| DL1XH1-15 | 2026-09-05 06:04:09 | 49.36200 | 8.96996 | 108° | 26km/h | 20488m | 4.3m/s | -53.3°C | 3.6% | 53.9hPa | 2.5V | 03:43:36 | 01:31:30 | 00:00:00 | |
| HSKMA3-T | 2026-09-05 06:04:09 | 49.36190 | 8.97041 | 120° | 24km/h | 20511m | 4.2m/s | -53.3°C | 0% | 53.7hPa | 2.5V | 03:45:00 | 01:31:35 | 00:00:00 | |
| BIOWL1-15 | 2026-09-05 06:04:06 | 49.36197 | 8.97015 | 105° | 26km/h | 20497m | 4.9m/s | -53.2°C | 0% | 53.8hPa | 2.5V | 03:44:09 | 01:31:32 | 00:00:00 | |
| DL1XH-west | 2026-09-05 06:04:03 | 49.36203 | 8.96987 | 116° | 24km/h | 20483m | 5.4m/s | -53.3°C | 0% | 53.9hPa | 2.7V | 03:44:09 | 01:31:29 | 00:00:00 | |
| HSKMA3-T | 2026-09-05 06:03:58 | 49.36224 | 8.96942 | 125° | 35km/h | 20460m | 4.4m/s | -53.2°C | 0% | 54.1hPa | 2.5V | 03:45:00 | 01:31:24 | 00:00:00 | |
| BIOWL1-15 | 2026-09-05 06:03:55 | 49.36240 | 8.96909 | 126° | 35km/h | 20445m | 4.4m/s | -53°C | 0% | 54.2hPa | 2.5V | 03:44:09 | 01:31:21 | 00:00:00 | |
| DB0ND-19 | 2026-09-05 06:03:53 | 49.36249 | 8.96885 | 118° | 37km/h | 20437m | 5.5m/s | -53.1°C | 0.6% | 54.3hPa | 2.7V | 00:00:00 | 00:00:00 | 00:00:00 | |
| DO3MHA-11 | 2026-09-05 06:03:52 | 49.36253 | 8.96873 | 117° | 37km/h | 20431m | 4.6m/s | -53.0°C | 3.3% | 54.3hPa | 2.7V | 00:00:00 | 01:31:18 | 00:00:00 | |
| DL1XH-west | 2026-09-05 06:03:52 | 49.36254 | 8.96873 | 116° | 37km/h | 20431m | 4.7m/s | -53.1°C | 0% | 54.3hPa | 2.7V | 03:44:09 | 01:31:18 | 00:00:00 | |
| DL1XH1-15 | 2026-09-05 06:03:51 | 49.36282 | 8.96801 | 120° | 37km/h | 20401m | 5m/s | -53.1°C | 3.5% | 54.6hPa | 2.7V | 03:43:54 | 01:31:12 | 00:00:00 | |
| HSKMA3-T | 2026-09-05 06:03:47 | 49.36277 | 8.96813 | 124° | 37km/h | 20407m | 5.6m/s | -53.2°C | 0% | 54.5hPa | 2.5V | 03:45:00 | 01:31:13 | 00:00:00 | |
| HARRO8 | 2026-09-05 06:03:47 | 49.36282 | 8.96801 | 120° | 37km/h | 20402m | 5.1m/s | -53.2°C | 0.7% | 54.6hPa | 2.5V | 00:00:00 | 00:00:00 | 00:00:00 | |
| BIOWL1-15 | 2026-09-05 06:03:44 | 49.36292 | 8.96777 | 123° | 37km/h | 20392m | 5.2m/s | -53.2°C | 0% | 54.6hPa | 2.5V | 03:44:09 | 01:31:10 | 00:00:00 | |
| DL1XH-west | 2026-09-05 06:03:42 | 49.36302 | 8.96753 | 124° | 38km/h | 20382m | 4.1m/s | -53.5°C | 0% | 54.8hPa | 2.5V | 03:44:09 | 01:31:08 | 00:00:00 | |
| DO3MHA-11 | 2026-09-05 06:03:42 | 49.36302 | 8.96753 | 124° | 40km/h | 20383m | 4.1m/s | -53.5°C | 3.7% | 54.7hPa | 2.7V | 03:43:00 | 01:31:08 | 00:00:00 | |
| DL1XH1-15 | 2026-09-05 06:03:40 | 49.36334 | 8.96656 | 118° | 40km/h | 20349m | 4.4m/s | -53.9°C | 3.6% | 55hPa | 2.7V | 03:44:05 | 01:31:01 | 00:00:00 | |
| DG1MJG | 2026-09-05 06:03:39 | 49.36312 | 8.96727 | 116° | 40km/h | 20373m | 5.7m/s | -53.7°C | 0% | 54.8hPa | 2.5V | 00:00:00 | 00:00:00 | 00:00:00 | |
| DF1GD-15 | 2026-09-05 06:03:38 | 49.36316 | 8.96713 | 114° | 42km/h | 20368m | 4.4m/s | -53.7°C | 0.7% | 54.9hPa | 2.5V | 03:44:00 | 00:00:00 | 00:00:00 | |
| DM0DOS-11 | 2026-09-05 06:03:37 | 49.36348 | 8.96613 | 113° | 42km/h | 20334m | 4.4m/s | -54.2°C | 3.7% | 55.2hPa | 2.5V | 03:44:08 | 01:30:58 | 00:00:00 | |
| HSKMA3-T | 2026-09-05 06:03:37 | 49.36325 | 8.96684 | 115° | 40km/h | 20359m | 5.6m/s | -53.9°C | 0% | 54.9hPa | 2.5V | 03:45:00 | 01:31:03 | 00:00:00 | |
| BIOWL1-15 | 2026-09-05 06:03:34 | 49.36339 | 8.96642 | 116° | 40km/h | 20344m | 4.9m/s | -54°C | 0% | 55.1hPa | 2.7V | 03:44:09 | 01:31:00 | 00:00:00 | |
| DL1XH-west | 2026-09-05 06:03:32 | 49.36347 | 8.96613 | 114° | 42km/h | 20334m | 4.4m/s | -54.2°C | 0% | 55.2hPa | 2.5V | 03:44:09 | 01:30:58 | 00:00:00 | |
| DO3MHA-11 | 2026-09-05 06:03:32 | 49.36347 | 8.96613 | 114° | 44km/h | 20335m | 4.4m/s | -54.1°C | 3.7% | 55.1hPa | 2.5V | 00:00:00 | 01:30:58 | 00:00:00 | |
| DL1XH1-15 | 2026-09-05 06:03:30 | 49.36376 | 8.96508 | 99° | 47km/h | 20302m | 4.1m/s | -54.1°C | 3.7% | 55.4hPa | 2.5V | 03:44:15 | 01:30:51 | 00:00:00 | |
| DK5PH-5 | 2026-09-05 06:03:30 | 49.36356 | 8.96584 | 119° | 44km/h | 20325m | 5.6m/s | -54.1°C | 3.7% | 55.2hPa | 2.5V | 00:00:00 | 01:30:56 | 00:00:00 | |
| DL4BBY-15 | 2026-09-05 06:03:29 | 49.36361 | 8.96571 | 120° | 44km/h | 20320m | 4.1m/s | -54.9°C | 0% | 0hPa | 2.5V | 00:00:00 | 00:00:00 | 00:00:00 | |
| DM0DOS-11 | 2026-09-05 06:03:27 | 49.36382 | 8.96455 | 102° | 46km/h | 20287m | 4.6m/s | -54.2°C | 3.8% | 55.6hPa | 2.5V | 03:44:18 | 01:30:48 | 00:00:00 | |
| HSKMA3-T | 2026-09-05 06:03:27 | 49.36370 | 8.96542 | 111° | 44km/h | 20312m | 5.2m/s | -54.1°C | 0% | 55.3hPa | 2.5V | 03:45:00 | 01:30:53 | 00:00:00 | |
| BIOWL1-15 | 2026-09-05 06:03:23 | 49.36380 | 8.96472 | 101° | 47km/h | 20292m | 5.3m/s | -54.2°C | 0% | 55.5hPa | 2.7V | 03:45:00 | 01:30:49 | 00:00:00 | |
| DL1XH-west | 2026-09-05 06:03:21 | 49.36385 | 8.96438 | 102° | 44km/h | 20283m | 4.3m/s | -54.2°C | 0% | 55.6hPa | 2.5V | 03:45:00 | 01:30:47 | 00:00:00 | |
| DL1XH1-15 | 2026-09-05 06:03:20 | 49.36400 | 8.96337 | 107° | 44km/h | 20254m | 3.4m/s | -54.2°C | 3.7% | 55.8hPa | 2.5V | 03:44:25 | 01:30:41 | 00:00:00 | |
| DO3DL | 2026-09-05 06:03:19 | 49.36387 | 8.96421 | 103° | 46km/h | 20278m | 5.2m/s | -54.2°C | 0.7% | 55.6hPa | 2.7V | 03:45:00 | 00:00:00 | 00:00:00 | |
| DG9SBQ-11 | 2026-09-05 06:03:18 | 49.36389 | 8.96403 | 102° | 46km/h | 20273m | 5.0m/s | -54.1°C | 0.7% | 55.7hPa | 2.7V | 03:45:00 | 00:00:00 | 00:00:00 | |
| DM0DOS-11 | 2026-09-05 06:03:17 | 49.36407 | 8.96288 | 96° | 44km/h | 20241m | 4.7m/s | -54.3°C | 3.8% | 56hPa | 2.7V | 03:44:28 | 01:30:38 | 00:00:00 | |
| HSKMA3-T | 2026-09-05 06:03:16 | 49.36397 | 8.96353 | 108° | 44km/h | 20259m | 4.7m/s | -54.3°C | 0% | 55.8hPa | 2.5V | 03:45:00 | 01:30:42 | 00:00:00 | |
| DL1XH-west | 2026-09-05 06:03:11 | 49.36409 | 8.96270 | 96° | 46km/h | 20236m | 4.5m/s | -54.4°C | 0% | 56hPa | 2.5V | 03:45:00 | 01:30:37 | 00:00:00 | |
| DH7VM-15 | 2026-09-05 06:03:10 | 49.36410 | 8.96253 | 98° | 46km/h | 20231m | 5.5m/s | -54.4°C | 0.7% | 56.0hPa | 2.7V | 00:00:00 | 00:00:00 | 00:00:00 | |
| NBG1-10 | 2026-09-05 06:03:09 | 49.36411 | 8.96236 | 98° | 37km/h | 20226m | 4.2m/s | -54.2°C | 3.7% | 56.0hPa | 2.7V | 00:00:00 | 01:30:35 | 00:00:00 | |
| DM0DOS-11 | 2026-09-05 06:03:07 | 49.36421 | 8.96115 | 104° | 40km/h | 20193m | 3.8m/s | -54.5°C | 3.8% | 56.4hPa | 2.7V | 03:44:38 | 01:30:28 | 00:00:00 | |
| HSKMA3-T | 2026-09-05 06:03:06 | 49.36415 | 8.96182 | 93° | 47km/h | 20212m | 4.6m/s | -54.4°C | 0% | 56.2hPa | 2.7V | 03:45:00 | 01:30:32 | 00:00:00 | |
| DL1XH-west | 2026-09-05 06:03:01 | 49.36423 | 8.96100 | 104° | 40km/h | 20190m | 3.8m/s | -54.6°C | 0% | 56.4hPa | 2.7V | 03:45:00 | 01:30:27 | 00:00:00 | |
| DL1XH1-15 | 2026-09-05 06:03:00 | 49.36431 | 8.96008 | 97° | 40km/h | 20162m | 5.1m/s | -54.6°C | 3.9% | 56.7hPa | 2.7V | 03:44:45 | 01:30:21 | 00:00:00 | |
| SONDE2-11 | 2026-09-05 06:02:59 | 49.36427 | 8.96069 | 96° | 38km/h | 20180m | 4.7m/s | -54.8°C | 0.8% | 56.5hPa | 2.5V | 00:00:00 | 00:00:00 | 00:00:00 | |
| DL4BBY-15 | 2026-09-05 06:02:58 | 49.36428 | 8.96054 | 94° | 29km/h | 20176m | 3.9m/s | -55.5°C | 0% | 0hPa | 2.5V | 00:00:00 | 00:00:00 | 00:00:00 | |
| DM0DOS-11 | 2026-09-05 06:02:57 | 49.36434 | 8.95966 | 91° | 33km/h | 20149m | 4.9m/s | -54.7°C | 3.9% | 56.8hPa | 2.5V | 03:44:48 | 01:30:18 | 00:00:00 | |
| HSKMA3-T | 2026-09-05 06:02:56 | 49.36429 | 8.96023 | 96° | 40km/h | 20167m | 5.1m/s | -54.6°C | 0% | 56.6hPa | 2.7V | 03:45:00 | 01:30:22 | 00:00:00 | |
| HSKMA3-T | 2026-09-05 06:02:50 | 49.36428 | 8.95882 | 90° | 31km/h | 20115m | 4m/s | -54.4°C | 0% | 57.1hPa | 2.7V | 03:45:00 | 01:30:11 | 00:00:00 | |
| DL1XH1-15 | 2026-09-05 06:02:50 | 49.36428 | 8.95882 | 90° | 31km/h | 20115m | 4m/s | -54.4°C | 3.8% | 57.1hPa | 2.7V | 03:44:55 | 01:30:11 | 00:00:00 | |
| BIOWL1-15 | 2026-09-05 06:02:50 | 49.36432 | 8.95941 | 79° | 31km/h | 20139m | 4.9m/s | -54.5°C | 0% | 56.9hPa | 2.7V | 03:45:00 | 01:30:16 | 00:00:00 | |
| DM7RM-13 | 2026-09-05 06:02:49 | 49.36430 | 8.95929 | 78° | 31km/h | 20134m | 4.4m/s | -54.6°C | 0.8% | 57.0hPa | 2.5V | 03:45:00 | 00:00:00 | 00:00:00 | |
| DJTTGO | 2026-09-05 06:02:48 | 49.36429 | 8.95917 | 82° | 31km/h | 20130m | 5.2m/s | -54.6°C | 0.8% | 57.0hPa | 2.5V | 00:00:00 | 00:00:00 | 00:00:00 | |
| DM0DOS-11 | 2026-09-05 06:02:47 | 49.36426 | 8.95847 | 82° | 29km/h | 20101m | 4.6m/s | -54.3°C | 3.8% | 57.2hPa | 2.5V | 03:44:58 | 01:30:08 | 00:00:00 | |
| DO3DL | 2026-09-05 06:02:46 | 49.36428 | 8.95905 | 87° | 31km/h | 20124m | 5.1m/s | -54.6°C | 0.8% | 57.0hPa | 2.5V | 03:45:00 | 00:00:00 | 00:00:00 | |
| SFWM-10 | 2026-09-05 06:02:45 | 49.36428 | 8.95893 | 91° | 31km/h | 20120m | 4.1m/s | -54.5°C | 0.7% | 57.1hPa | 2.5V | 03:45:00 | 00:00:00 | 00:00:00 | |
| DJ2DS-15 | 2026-09-05 06:02:44 | 49.36428 | 8.95870 | 88° | 29km/h | 20111m | 5.2m/s | -54.3°C | 3.9% | 57.1hPa | 2.5V | 00:00:00 | 01:30:10 | 00:00:00 | |
| DL0LBS | 2026-09-05 06:02:43 | 49.36426 | 8.95847 | 83° | 29km/h | 20101m | 4.6m/s | -54.3°C | 0.8% | 57.2hPa | 2.5V | 03:45:00 | 00:00:00 | 00:00:00 | |
| DL1ZP-14 | 2026-09-05 06:02:42 | 49.36425 | 8.95836 | 83° | 27km/h | 20095m | 5.6m/s | -54.3°C | 0.7% | 57.3hPa | 2.5V | 00:00:00 | 00:00:00 | 00:00:00 | |
| DL1XH1-15 | 2026-09-05 06:02:40 | 49.36415 | 8.95768 | 71° | 29km/h | 20067m | 4.9m/s | -54°C | 3.7% | 57.5hPa | 2.7V | 03:45:05 | 01:30:01 | 00:00:00 | |
| DL1XH-west | 2026-09-05 06:02:39 | 49.36424 | 8.95814 | 82° | 29km/h | 20086m | 4m/s | -54.3°C | 0% | 57.4hPa | 2.7V | 03:47:33 | 01:30:05 | 00:00:00 | |
| DL6DJ-15 | 2026-09-05 06:02:38 | 49.36422 | 8.95802 | 76° | 29km/h | 20081m | 5.4m/s | -54.2°C | 0.8% | 57.4hPa | 2.5V | 00:00:00 | 00:00:00 | 00:00:00 | |
| DM0DOS-11 | 2026-09-05 06:02:37 | 49.36409 | 8.95736 | 76° | 27km/h | 20053m | 4.1m/s | -54°C | 3.8% | 57.6hPa | 2.5V | 03:45:08 | 01:29:58 | 00:00:00 | |
| HSKMA3-T | 2026-09-05 06:02:35 | 49.36415 | 8.95768 | 72° | 29km/h | 20067m | 4.9m/s | -54°C | 0% | 57.5hPa | 2.7V | 03:49:15 | 01:30:01 | 00:00:00 | |
| DB0UT-7 | 2026-09-05 06:02:34 | 49.36413 | 8.95758 | 76° | 29km/h | 20062m | 5.2m/s | -54.0°C | 3.7% | 57.5hPa | 2.7V | 00:00:00 | 01:30:00 | 00:00:00 | |
| CB1BUN | 2026-09-05 06:02:33 | 49.36411 | 8.95747 | 78° | 27km/h | 20058m | 3.9m/s | -54.1°C | 0.8% | 57.6hPa | 2.5V | 03:45:00 | 00:00:00 | 00:00:00 | |
| DO3MHA-11 | 2026-09-05 06:02:32 | 49.36410 | 8.95736 | 77° | 27km/h | 20053m | 4.0m/s | -54.0°C | 3.8% | 57.6hPa | 2.5V | 00:00:00 | 01:29:58 | 00:00:00 | |
| DL1XH1-15 | 2026-09-05 06:02:30 | 49.36396 | 8.95664 | 72° | 26km/h | 20020m | 5.3m/s | -54°C | 3.7% | 57.9hPa | 2.5V | 03:45:15 | 01:29:51 | 00:00:00 | |
| DL1XH-west | 2026-09-05 06:02:29 | 49.36403 | 8.95704 | 72° | 29km/h | 20039m | 4.5m/s | -54°C | 0% | 57.8hPa | 2.5V | 03:47:33 | 01:29:55 | 00:00:00 | |
| SONDE2-11 | 2026-09-05 06:02:28 | 49.36401 | 8.95693 | 74° | 27km/h | 20035m | 5.2m/s | -54.1°C | 0.7% | 57.8hPa | 2.7V | 00:00:00 | 00:00:00 | 00:00:00 | |
| DM0DOS-11 | 2026-09-05 06:02:27 | 49.36388 | 8.95636 | 64° | 27km/h | 20007m | 3.7m/s | -54°C | 3.7% | 58hPa | 2.7V | 03:45:18 | 01:29:48 | 00:00:00 | |
| HSKMA3-T | 2026-09-05 06:02:25 | 49.36396 | 8.95664 | 72° | 26km/h | 20020m | 5.3m/s | -54°C | 0% | 57.9hPa | 2.5V | 03:49:15 | 01:29:51 | 00:00:00 | |
| BIOWL1-15 | 2026-09-05 06:02:18 | 49.36378 | 8.95598 | 68° | 27km/h | 19989m | 4.5m/s | -54°C | 0% | 58.2hPa | 2.7V | 03:45:51 | 01:29:44 | 00:00:00 | |
| DG9SBQ-11 | 2026-09-05 06:02:16 | 49.36371 | 8.95578 | 62° | 31km/h | 19979m | 4.5m/s | -54.0°C | 0.7% | 58.3hPa | 2.5V | 03:45:00 | 00:00:00 | 00:00:00 | |
| DF1GD-15 | 2026-09-05 06:02:15 | 49.36371 | 8.95578 | 62° | 31km/h | 19979m | 4.5m/s | -54.0°C | 0.8% | 58.3hPa | 2.5V | 03:45:00 | 00:00:00 | 00:00:00 | |
| HARRO8 | 2026-09-05 06:02:13 | 49.36360 | 8.95545 | 62° | 33km/h | 19965m | 4.0m/s | -54.0°C | 0.7% | 58.4hPa | 2.5V | 00:00:00 | 00:00:00 | 00:00:00 | |
| DO3MHA-11 | 2026-09-05 06:02:12 | 49.36356 | 8.95533 | 61° | 35km/h | 19961m | 4.2m/s | -54.1°C | 3.8% | 58.4hPa | 2.5V | 00:00:00 | 01:29:38 | 00:00:00 | |
| DL1ZP-14 | 2026-09-05 06:02:11 | 49.36347 | 8.95509 | 58° | 37km/h | 19951m | 4.3m/s | -54.1°C | 0.7% | 58.6hPa | 2.5V | 00:00:00 | 00:00:00 | 00:00:00 | |
| HEMX73-11 | 2026-09-05 06:02:08 | 49.36342 | 8.95496 | 62° | 37km/h | 19947m | 3.9m/s | -54.1°C | 0.8% | 58.6hPa | 2.7V | 03:45:00 | 00:00:00 | 00:00:00 | |
| BIOWL1-15 | 2026-09-05 06:02:08 | 49.36338 | 8.95484 | 64° | 35km/h | 19942m | 5.4m/s | -54°C | 0% | 58.6hPa | 2.7V | 03:45:51 | 01:29:34 | 00:00:00 | |
| DM0DOS-11 | 2026-09-05 06:02:07 | 49.36318 | 8.95418 | 62° | 31km/h | 19915m | 4.1m/s | -53.9°C | 3.7% | 58.9hPa | 2.7V | 03:45:38 | 01:29:28 | 00:00:00 | |
| BIOWL1-15 | 2026-09-05 06:01:58 | 49.36306 | 8.95379 | 63° | 27km/h | 19896m | 5.4m/s | -53.7°C | 0% | 59.1hPa | 2.5V | 03:45:51 | 01:29:24 | 00:00:00 | |
| DL1XH-west | 2026-09-05 06:01:57 | 49.36303 | 8.95370 | 62° | 29km/h | 19891m | 4.7m/s | -53.7°C | 0% | 59.1hPa | 2.7V | 03:47:33 | 01:29:23 | 00:00:00 | |
| BIOWL1-15 | 2026-09-05 06:01:48 | 49.36270 | 8.95288 | 54° | 29km/h | 19852m | 5.1m/s | -53.4°C | 0% | 59.5hPa | 2.5V | 03:46:42 | 01:29:14 | 00:00:00 | |
| DL1XH-west | 2026-09-05 06:01:45 | 49.36259 | 8.95262 | 62° | 26km/h | 19838m | 4.4m/s | -53.4°C | 0% | 59.6hPa | 2.7V | 03:47:33 | 01:29:11 | 00:00:00 | |
| BIOWL1-15 | 2026-09-05 06:01:39 | 49.36236 | 8.95199 | 55° | 24km/h | 19802m | 5.5m/s | -53.3°C | 0% | 60hPa | 2.5V | 03:46:42 | 01:29:03 | 00:00:00 | |
| DL1XH-west | 2026-09-05 06:01:32 | 49.36219 | 8.95160 | 60° | 22km/h | 19778m | 4.1m/s | -53.5°C | 0% | 60.2hPa | 2.5V | 03:47:33 | 01:28:58 | 00:00:00 | |
| DO3MHA-11 | 2026-09-05 06:01:32 | 49.36219 | 8.95160 | 60° | 20km/h | 19779m | 4.0m/s | -53.4°C | 3.5% | 60.1hPa | 2.5V | 00:00:00 | 01:28:58 | 00:00:00 | |
| DF3TZ-5 | 2026-09-05 06:01:31 | 49.36216 | 8.95152 | 58° | 22km/h | 19774m | 4.8m/s | -53.5°C | 0.7% | 60.2hPa | 2.7V | 00:00:00 | 00:00:00 | 00:00:00 | |
| NBG1-10 | 2026-09-05 06:01:30 | 49.36213 | 8.95145 | 58° | 22km/h | 19769m | 5.1m/s | -53.6°C | 3.6% | 60.2hPa | 2.7V | 00:00:00 | 01:28:56 | 00:00:00 | |
| HEMX73-11 | 2026-09-05 06:01:29 | 49.36210 | 8.95137 | 57° | 22km/h | 19765m | 4.4m/s | -53.7°C | 0.7% | 60.3hPa | 2.7V | 03:46:00 | 00:00:00 | 00:00:00 | |
| DM0DOS-11 | 2026-09-05 06:01:28 | 49.36189 | 8.95103 | 51° | 18km/h | 19733m | 3.7m/s | -53.7°C | 3.7% | 60.6hPa | 2.7V | 03:46:18 | 01:28:48 | 00:00:00 | |
| BIOWL1-15 | 2026-09-05 06:01:28 | 49.36204 | 8.95125 | 50° | 16km/h | 19755m | 5.5m/s | -53.6°C | 0% | 60.4hPa | 2.5V | 03:46:42 | 01:28:53 | 00:00:00 | |
| DJ2DS-15 | 2026-09-05 06:01:26 | 49.36202 | 8.95121 | 41° | 15km/h | 19750m | 4.1m/s | -53.7°C | 0.7% | 60.5hPa | 2.7V | 00:00:00 | 00:00:00 | 00:00:00 | |
| DL4BBY-15 | 2026-09-05 06:01:25 | 49.36199 | 8.95117 | 37° | 24km/h | 19746m | 3.9m/s | -54.5°C | 0% | 0hPa | 2.7V | 00:00:00 | 00:00:00 | 00:00:00 | |
| DJ2DS-15 | 2026-09-05 06:01:24 | 49.36195 | 8.95113 | 38° | 22km/h | 19742m | 5.1m/s | -53.7°C | 3.6% | 60.5hPa | 2.7V | 00:00:00 | 01:28:50 | 00:00:00 | |
| DO3MHA-11 | 2026-09-05 06:01:22 | 49.36188 | 8.95103 | 52° | 20km/h | 19733m | 3.6m/s | -53.6°C | 3.7% | 60.6hPa | 2.7V | 00:00:00 | 01:28:48 | 00:00:00 | |
| DB0UT-9 | 2026-09-05 06:01:21 | 49.36188 | 8.95103 | 53° | 18km/h | 19733m | 3.7m/s | -53.7°C | 0.8% | 60.6hPa | 2.7V | 03:46:00 | 00:00:00 | 00:00:00 | |
| DM3KS-11 | 2026-09-05 06:01:20 | 49.36183 | 8.95075 | 85° | 22km/h | 19714m | 5.3m/s | -53.9°C | 0.7% | 60.8hPa | 2.7V | 00:00:00 | 00:00:00 | 00:00:00 | |
| DB0ND-19 | 2026-09-05 06:01:18 | 49.36183 | 8.95075 | 85° | 22km/h | 19714m | 5.3m/s | -53.9°C | 0.7% | 60.8hPa | 2.7V | 00:00:00 | 00:00:00 | 00:00:00 | |
| DM0DOS-11 | 2026-09-05 06:01:17 | 49.36185 | 8.95026 | 92° | 16km/h | 19686m | 3.7m/s | -54.3°C | 3.7% | 61hPa | 2.7V | 03:46:28 | 01:28:38 | 00:00:00 | |
| BIOWL1-15 | 2026-09-05 06:01:17 | 49.36182 | 8.95066 | 88° | 24km/h | 19708m | 4.8m/s | -53.9°C | 0% | 60.9hPa | 2.7V | 03:46:42 | 01:28:43 | 00:00:00 | |
| DL1XH-west | 2026-09-05 06:01:13 | 49.36184 | 8.95032 | 102° | 18km/h | 19690m | 3.8m/s | -54.2°C | 0% | 61hPa | 2.7V | 03:47:33 | 01:28:39 | 00:00:00 | |
| HARRO8 | 2026-09-05 06:01:12 | 49.36185 | 8.95019 | 78° | 16km/h | 19682m | 4.7m/s | -54.4°C | 0.8% | 61.1hPa | 2.5V | 00:00:00 | 00:00:00 | 00:00:00 | |
| DG9SBQ-11 | 2026-09-05 06:01:11 | 49.36185 | 8.95019 | 80° | 18km/h | 19683m | 4.7m/s | -54.4°C | 0.8% | 61.1hPa | 2.5V | 03:46:00 | 00:00:00 | 00:00:00 | |
| CB1BUN | 2026-09-05 06:01:09 | 49.36183 | 8.95012 | 70° | 20km/h | 19678m | 4.9m/s | -54.3°C | 0.8% | 61.1hPa | 2.5V | 03:46:00 | 00:00:00 | 00:00:00 | |
| DL1ZP-14 | 2026-09-05 06:01:08 | 49.36178 | 8.94995 | 65° | 24km/h | 19669m | 4.1m/s | -54.4°C | 0.8% | 61.2hPa | 2.5V | 00:00:00 | 00:00:00 | 00:00:00 | |
| BIOWL1-15 | 2026-09-05 06:01:08 | 49.36174 | 8.94978 | 78° | 22km/h | 19660m | 4.6m/s | -54.3°C | 0% | 61.3hPa | 2.7V | 03:46:42 | 01:28:32 | 00:00:00 | |
| DM0DOS-11 | 2026-09-05 06:01:07 | 49.36177 | 8.94940 | 106° | 29km/h | 19641m | 5.2m/s | -54.3°C | 3.7% | 61.5hPa | 2.5V | 03:46:38 | 01:28:28 | 00:00:00 | |
| DL6DJ-15 | 2026-09-05 06:01:05 | 49.36174 | 8.94960 | 98° | 24km/h | 19651m | 4.2m/s | -54.4°C | 0.8% | 61.4hPa | 2.5V | 00:00:00 | 00:00:00 | 00:00:00 | |
| DJ2DS-15 | 2026-09-05 06:01:04 | 49.36174 | 8.94960 | 99° | 31km/h | 19651m | 4.1m/s | -54.3°C | 3.7% | 61.4hPa | 2.5V | 03:46:00 | 01:28:30 | 00:00:00 | |
| DL1NUX | 2026-09-05 06:01:03 | 49.36189 | 8.94888 | 106° | 24km/h | 19620m | 3.4m/s | -54.4°C | 3.7% | 61.7hPa | 2.5V | 03:46:43 | 01:28:23 | 00:00:00 | |
| DL1XH-west | 2026-09-05 06:01:02 | 49.36177 | 8.94940 | 106° | 29km/h | 19642m | 5.2m/s | -54.3°C | 0% | 61.5hPa | 2.5V | 03:47:33 | 01:28:28 | 00:00:00 | |
| DF3TZ-5 | 2026-09-05 06:01:00 | 49.36182 | 8.94918 | 109° | 29km/h | 19633m | 3.7m/s | -54.3°C | 0.7% | 61.6hPa | 2.5V | 00:00:00 | 00:00:00 | 00:00:00 | |
| DG9SBQ-11 | 2026-09-05 06:00:59 | 49.36182 | 8.94918 | 110° | 31km/h | 19633m | 3.7m/s | -54.3°C | 0.7% | 61.6hPa | 2.5V | 03:46:00 | 00:00:00 | 00:00:00 | |
| DM0DOS-11 | 2026-09-05 06:00:57 | 49.36189 | 8.94831 | 90° | 38km/h | 19599m | 3.5m/s | -54.9°C | 3.8% | 61.9hPa | 2.5V | 03:46:48 | 01:28:18 | 00:00:00 | |
| BIOWL1-15 | 2026-09-05 06:00:57 | 49.36190 | 8.94870 | 91° | 27km/h | 19612m | 4.7m/s | -54.7°C | 0% | 61.8hPa | 2.7V | 03:47:33 | 01:28:21 | 00:00:00 | |
| BIOWL7-15 | 2026-09-05 06:00:56 | 49.36188 | 8.94888 | 108° | 24km/h | 19620m | 3.4m/s | -54.4°C | 0.8% | 61.7hPa | 2.7V | 00:00:00 | 00:00:00 | 00:00:00 | |
| DL4BBY-15 | 2026-09-05 06:00:55 | 49.36190 | 8.94869 | 91° | 44km/h | 19613m | 4.7m/s | -55.5°C | 0% | 0hPa | 2.7V | 00:00:00 | 00:00:00 | 00:00:00 | |
| DL1XH1-15 | 2026-09-05 06:00:54 | 49.36195 | 8.94790 | 112° | 35km/h | 19585m | 4.2m/s | -55.2°C | 3.9% | 62hPa | 2.7V | 03:46:51 | 01:28:15 | 00:00:00 | |
| BIOWL9-15 | 2026-09-05 06:00:53 | 49.36190 | 8.94845 | 86° | 35km/h | 19603m | 4.0m/s | -54.7°C | 0.7% | 61.8hPa | 2.7V | 00:00:00 | 00:00:00 | 00:00:00 | |
| DJ2DS-15 | 2026-09-05 06:00:50 | 49.36195 | 8.94790 | 112° | 33km/h | 19586m | 4.3m/s | -55.3°C | 0.8% | 62.0hPa | 2.7V | 00:00:00 | 00:00:00 | 00:00:00 | |
| DL1XH-west | 2026-09-05 06:00:50 | 49.36192 | 8.94803 | 105° | 37km/h | 19590m | 4.9m/s | -55.2°C | 0% | 62hPa | 2.5V | 03:47:33 | 01:28:16 | 00:00:00 | |
| DM3KS-11 | 2026-09-05 06:00:49 | 49.36198 | 8.94779 | 116° | 31km/h | 19582m | 3.8m/s | -55.3°C | 0.8% | 62.1hPa | 2.7V | 00:00:00 | 00:00:00 | 00:00:00 | |
| DG9SBQ-11 | 2026-09-05 06:00:48 | 49.36195 | 8.94790 | 113° | 35km/h | 19586m | 4.3m/s | -55.2°C | 0.8% | 62.0hPa | 2.7V | 03:47:00 | 00:00:00 | 00:00:00 | |
| DM0DOS-11 | 2026-09-05 06:00:47 | 49.36214 | 8.94703 | 100° | 42km/h | 19556m | 4.5m/s | -55.5°C | 4.1% | 62.3hPa | 2.7V | 03:46:58 | 01:28:08 | 00:00:00 | |
| DB0ND-19 | 2026-09-05 06:00:47 | 49.36202 | 8.94768 | 116° | 29km/h | 19577m | 4.2m/s | -55.4°C | 0.8% | 62.1hPa | 2.5V | 00:00:00 | 00:00:00 | 00:00:00 | |
| BIOWL1-15 | 2026-09-05 06:00:47 | 49.36207 | 8.94745 | 107° | 33km/h | 19569m | 3.8m/s | -55.4°C | 0% | 62.2hPa | 2.5V | 03:47:33 | 01:28:11 | 00:00:00 | |
| DL1XH-west | 2026-09-05 06:00:40 | 49.36217 | 8.94670 | 96° | 40km/h | 19548m | 4.7m/s | -55.5°C | 0% | 62.4hPa | 2.5V | 03:47:33 | 01:28:06 | 00:00:00 | |
| DJTTGO | 2026-09-05 06:00:39 | 49.36217 | 8.94670 | 97° | 40km/h | 19548m | 4.7m/s | -55.5°C | 0.8% | 62.4hPa | 2.7V | 00:00:00 | 00:00:00 | 00:00:00 | |
| DO3DL | 2026-09-05 06:00:38 | 49.36218 | 8.94655 | 96° | 38km/h | 19543m | 5.3m/s | -55.6°C | 0.8% | 62.4hPa | 2.7V | 00:00:00 | 00:00:00 | 00:00:00 | |
| DM0DOS-11 | 2026-09-05 06:00:37 | 49.36226 | 8.94549 | 92° | 40km/h | 19513m | 4.6m/s | -55.7°C | 4% | 62.7hPa | 2.7V | 03:47:08 | 01:27:58 | 00:00:00 | |
| BIOWL1-15 | 2026-09-05 06:00:35 | 49.36221 | 8.94596 | 99° | 40km/h | 19525m | 4.7m/s | -55.6°C | 0% | 62.6hPa | 2.5V | 03:47:33 | 01:28:01 | 00:00:00 | |
| DL1XH1-15 | 2026-09-05 06:00:34 | 49.36222 | 8.94504 | 75° | 40km/h | 19499m | 3.6m/s | -55.7°C | 4% | 62.9hPa | 2.5V | 03:47:11 | 01:27:55 | 00:00:00 | |
| DL1XH-west | 2026-09-05 06:00:30 | 49.36224 | 8.94519 | 78° | 38km/h | 19503m | 4.7m/s | -55.7°C | 0% | 62.8hPa | 2.5V | 03:47:33 | 01:27:56 | 00:00:00 | |
| DF3TZ-5 | 2026-09-05 06:00:29 | 49.36222 | 8.94504 | 75° | 40km/h | 19499m | 3.6m/s | -55.7°C | 0.8% | 62.9hPa | 2.7V | 00:00:00 | 00:00:00 | 00:00:00 | |
| DM0DOS-11 | 2026-09-05 06:00:27 | 49.36209 | 8.94371 | 83° | 51km/h | 19466m | 4.2m/s | -55.7°C | 4% | 63.2hPa | 2.7V | 03:47:18 | 01:27:48 | 00:00:00 | |
| BIOWL1-15 | 2026-09-05 06:00:26 | 49.36212 | 8.94412 | 86° | 55km/h | 19476m | 4.4m/s | -55.7°C | 0% | 63.1hPa | 2.5V | 03:47:33 | 01:27:50 | 00:00:00 | |
| DJ2DS-15 | 2026-09-05 06:00:24 | 49.36212 | 8.94412 | 86° | 49km/h | 19476m | 4.4m/s | -55.7°C | 4.0% | 63.1hPa | 2.5V | 00:00:00 | 01:27:50 | 00:00:00 | |
| KANTATE | 2026-09-05 06:00:23 | 49.36212 | 8.94412 | 87° | 55km/h | 19476m | 4.4m/s | -55.7°C | 0.8% | 63.1hPa | 2.5V | 03:47:00 | 00:00:00 | 00:00:00 | |
| BIOWL9-15 | 2026-09-05 06:00:22 | 49.36210 | 8.94371 | 83° | 51km/h | 19466m | 4.2m/s | -55.7°C | 0.8% | 63.2hPa | 2.5V | 00:00:00 | 00:00:00 | 00:00:00 | |
| DB0UT-9 | 2026-09-05 06:00:20 | 49.36208 | 8.94352 | 85° | 49km/h | 19462m | 4.1m/s | -55.8°C | 0.9% | 63.3hPa | 2.5V | 03:47:00 | 00:00:00 | 00:00:00 | |
| DL1XH1-15 | 2026-09-05 06:00:19 | 49.36201 | 8.94235 | 78° | 42km/h | 19431m | 3.7m/s | -55.7°C | 4% | 63.6hPa | 2.5V | 03:47:26 | 01:27:40 | 00:00:00 | |
| DL1XH-west | 2026-09-05 06:00:19 | 49.36207 | 8.94315 | 88° | 46km/h | 19452m | 4.8m/s | -55.8°C | 0% | 63.3hPa | 2.5V | 03:47:33 | 01:27:45 | 00:00:00 | |
| BIOWL1-15 | 2026-09-05 06:00:13 | 49.36199 | 8.94219 | 81° | 44km/h | 19426m | 5.1m/s | -55.8°C | 0% | 63.6hPa | 2.5V | 03:47:33 | 01:27:39 | 00:00:00 | |
| DB0NH | 2026-09-05 06:00:12 | 49.36197 | 8.94201 | 84° | 44km/h | 19422m | 4.7m/s | -55.8°C | 4.1% | 63.6hPa | 2.7V | 03:47:00 | 01:27:38 | 00:00:00 | |
| DF1GD-15 | 2026-09-05 06:00:11 | 49.36197 | 8.94201 | 84° | 49km/h | 19422m | 4.7m/s | -55.9°C | 0.9% | 63.7hPa | 2.7V | 03:47:00 | 00:00:00 | 00:00:00 | |
| DL1NUX | 2026-09-05 06:00:10 | 49.36183 | 8.94053 | 80° | 55km/h | 19391m | 4.7m/s | -56°C | 4.2% | 64hPa | 2.7V | 03:47:35 | 01:27:31 | 00:00:00 | |
| HARRO8 | 2026-09-05 06:00:09 | 49.36193 | 8.94139 | 81° | 57km/h | 19408m | 4.8m/s | -55.9°C | 0.8% | 63.8hPa | 2.5V | 00:00:00 | 00:00:00 | 00:00:00 | |
| DL1XH1-15 | 2026-09-05 06:00:08 | 49.36179 | 8.94014 | 78° | 47km/h | 19381m | 4.5m/s | -56°C | 4.2% | 64.1hPa | 2.5V | 03:47:37 | 01:27:29 | 00:00:00 | |
| DL1XH-west | 2026-09-05 06:00:08 | 49.36190 | 8.94117 | 80° | 57km/h | 19404m | 4.3m/s | -56°C | 0% | 63.8hPa | 2.5V | 03:47:33 | 01:27:34 | 00:00:00 | |
| DM0DOS-11 | 2026-09-05 06:00:07 | 49.36176 | 8.93997 | 76° | 46km/h | 19376m | 5.4m/s | -55.9°C | 4.2% | 64.1hPa | 2.5V | 03:47:38 | 01:27:28 | 00:00:00 | |
| BIOWL1-15 | 2026-09-05 06:00:01 | 49.36173 | 8.93980 | 76° | 42km/h | 19372m | 4.2m/s | -56°C | 0% | 64.2hPa | 2.5V | 03:48:24 | 01:27:27 | 00:00:00 | |
| DF3TZ-5 | 2026-09-05 05:59:58 | 49.36169 | 8.93935 | 89° | 40km/h | 19358m | 4.7m/s | -56.0°C | 0.9% | 64.3hPa | 2.5V | 00:00:00 | 00:00:00 | 00:00:00 | |
| DM0DOS-11 | 2026-09-05 05:59:57 | 49.36169 | 8.93836 | 88° | 44km/h | 19331m | 4.8m/s | -55.8°C | 4.2% | 64.6hPa | 2.5V | 03:47:48 | 01:27:18 | 00:00:00 | |
| DL1XH-west | 2026-09-05 05:59:57 | 49.36169 | 8.93919 | 92° | 42km/h | 19354m | 3.6m/s | -55.9°C | 0% | 64.4hPa | 2.5V | 03:48:24 | 01:27:23 | 00:00:00 | |
| BIOWL1-15 | 2026-09-05 05:59:53 | 49.36168 | 8.93819 | 86° | 44km/h | 19326m | 3.7m/s | -55.7°C | 0% | 64.6hPa | 2.5V | 03:48:24 | 01:27:17 | 00:00:00 | |
| DF2AP-13 | 2026-09-05 05:59:52 | 49.36169 | 8.93836 | 89° | 42km/h | 19331m | 4.8m/s | -55.7°C | 4.2% | 64.5hPa | 2.5V | 00:00:00 | 01:27:18 | 00:00:00 | |
| NBG1-10 | 2026-09-05 05:59:51 | 49.36168 | 8.93819 | 87° | 40km/h | 19327m | 3.7m/s | -55.7°C | 4.1% | 64.6hPa | 2.5V | 03:47:00 | 01:27:17 | 00:00:00 | |
| DL1XH1-15 | 2026-09-05 05:59:49 | 49.36154 | 8.93723 | 82° | 37km/h | 19296m | 3.3m/s | -55.6°C | 4.2% | 64.9hPa | 2.5V | 03:47:56 | 01:27:10 | 00:00:00 | |
| DM0DOS-11 | 2026-09-05 05:59:47 | 49.36151 | 8.93692 | 80° | 44km/h | 19288m | 4.9m/s | -55.6°C | 4.1% | 65hPa | 2.7V | 03:47:58 | 01:27:08 | 00:00:00 | |
| DL1XH-west | 2026-09-05 05:59:46 | 49.36157 | 8.93749 | 74° | 33km/h | 19304m | 4.9m/s | -55.7°C | 0% | 64.8hPa | 2.5V | 03:48:24 | 01:27:12 | 00:00:00 | |
| DB0ND-19 | 2026-09-05 05:59:45 | 49.36155 | 8.93737 | 79° | 33km/h | 19299m | 4.3m/s | -55.7°C | 0.9% | 64.9hPa | 2.7V | 00:00:00 | 00:00:00 | 00:00:00 | |
| DJ2DS-15 | 2026-09-05 05:59:44 | 49.36153 | 8.93723 | 83° | 42km/h | 19296m | 3.2m/s | -55.6°C | 4.2% | 64.9hPa | 2.7V | 03:47:00 | 01:27:10 | 00:00:00 | |
| DM7RM-13 | 2026-09-05 05:59:43 | 49.36152 | 8.93708 | 83° | 40km/h | 19292m | 3.7m/s | -55.7°C | 0.9% | 65.0hPa | 2.7V | 03:48:00 | 00:00:00 | 00:00:00 | |
| DL1NUX | 2026-09-05 05:59:42 | 49.36139 | 8.93589 | 81° | 40km/h | 19263m | 3.7m/s | -55.5°C | 4.1% | 65.3hPa | 2.7V | 03:48:04 | 01:27:02 | 00:00:00 | |
| BIOWL1-15 | 2026-09-05 05:59:41 | 49.36149 | 8.93675 | 79° | 46km/h | 19283m | 4.4m/s | -55.5°C | 0% | 65hPa | 2.5V | 03:48:24 | 01:27:07 | 00:00:00 | |
| DB0UT-9 | 2026-09-05 05:59:39 | 49.36146 | 8.93657 | 79° | 47km/h | 19280m | 3.4m/s | -55.5°C | 0.9% | 65.1hPa | 2.7V | 03:48:00 | 00:00:00 | 00:00:00 | |
| DJ2DS-15 | 2026-09-05 05:59:38 | 49.36140 | 8.93605 | 82° | 42km/h | 19267m | 4.7m/s | -55.5°C | 0.9% | 65.2hPa | 2.7V | 00:00:00 | 00:00:00 | 00:00:00 | |
| DM0DOS-11 | 2026-09-05 05:59:37 | 49.36127 | 8.93529 | 67° | 42km/h | 19246m | 4.1m/s | -55.3°C | 3.9% | 65.5hPa | 2.7V | 03:48:08 | 01:26:58 | 00:00:00 | |
| DL1XH-west | 2026-09-05 05:59:36 | 49.36139 | 8.93589 | 82° | 42km/h | 19263m | 3.7m/s | -55.5°C | 0% | 65.3hPa | 2.7V | 03:48:24 | 01:27:02 | 00:00:00 | |
| BIOWL1-15 | 2026-09-05 05:59:34 | 49.36120 | 8.93498 | 73° | 42km/h | 19237m | 4.7m/s | -55.4°C | 0% | 65.5hPa | 2.5V | 03:48:24 | 01:26:56 | 00:00:00 | |
| DB0UT-7 | 2026-09-05 05:59:34 | 49.36134 | 8.93558 | 73° | 42km/h | 19255m | 4.8m/s | -55.3°C | 4.0% | 65.3hPa | 2.5V | 03:48:00 | 01:27:00 | 00:00:00 | |
| DL0LBS | 2026-09-05 05:59:33 | 49.36134 | 8.93558 | 74° | 40km/h | 19255m | 4.8m/s | -55.3°C | 0.9% | 65.4hPa | 2.7V | 03:48:00 | 00:00:00 | 00:00:00 | |
| DO3MHA-11 | 2026-09-05 05:59:32 | 49.36127 | 8.93529 | 68° | 42km/h | 19246m | 4.1m/s | -55.3°C | 3.9% | 65.4hPa | 2.7V | 00:00:00 | 01:26:58 | 00:00:00 | |
| DL6DJ-15 | 2026-09-05 05:59:31 | 49.36123 | 8.93513 | 70° | 42km/h | 19242m | 5.1m/s | -55.3°C | 0.8% | 65.5hPa | 2.5V | 00:00:00 | 00:00:00 | 00:00:00 | |
| DO3DL | 2026-09-05 05:59:30 | 49.36123 | 8.93513 | 71° | 42km/h | 19242m | 5.1m/s | -55.3°C | 0.8% | 65.5hPa | 2.5V | 00:00:00 | 00:00:00 | 00:00:00 | |
| DO8TBO-1 | 2026-09-05 05:59:29 | 49.36117 | 8.93482 | 75° | 42km/h | 19233m | 4.2m/s | -55.2°C | 3.9% | 65.6hPa | 2.5V | 00:00:00 | 01:26:55 | 00:00:00 | |
| DL1NUX | 2026-09-05 05:59:28 | 49.36105 | 8.93389 | 83° | 38km/h | 19204m | 3.2m/s | -55.1°C | 4% | 65.9hPa | 2.5V | 03:48:17 | 01:26:49 | 00:00:00 | |
| DL1XH1-15 | 2026-09-05 05:59:27 | 49.36103 | 8.93374 | 79° | 38km/h | 19200m | 4.4m/s | -55.1°C | 0% | 65.9hPa | 2.5V | 03:48:18 | 01:26:48 | 00:00:00 | |
| DL1XH-west | 2026-09-05 05:59:26 | 49.36109 | 8.93434 | 78° | 42km/h | 19218m | 4m/s | -55.1°C | 0% | 65.8hPa | 2.7V | 03:48:24 | 01:26:52 | 00:00:00 | |
| BIOWL1-15 | 2026-09-05 05:59:19 | 49.36095 | 8.93331 | 71° | 40km/h | 19187m | 3.7m/s | -55.3°C | 0% | 66.1hPa | 2.5V | 03:48:24 | 01:26:45 | 00:00:00 | |
| DL1NUX | 2026-09-05 05:59:18 | 49.36081 | 8.93237 | 80° | 42km/h | 19160m | 4.1m/s | -55.1°C | 3.9% | 66.3hPa | 2.5V | 03:48:27 | 01:26:39 | 00:00:00 | |
| NBG1-10 | 2026-09-05 05:59:18 | 49.36092 | 8.93316 | 74° | 42km/h | 19183m | 4.9m/s | -55.2°C | 4.0% | 66.0hPa | 2.5V | 00:00:00 | 01:26:44 | 00:00:00 | |
| DL1XH1-15 | 2026-09-05 05:59:17 | 49.36079 | 8.93220 | 84° | 42km/h | 19155m | 5m/s | 0°C | 0% | 0hPa | 2.5V | 03:48:28 | 01:26:38 | 00:00:00 | |
| DL1XH-west | 2026-09-05 05:59:16 | 49.36087 | 8.93285 | 79° | 42km/h | 19174m | 3.9m/s | -55.2°C | 0% | 66.2hPa | 2.7V | 03:48:24 | 01:26:42 | 00:00:00 | |
| BIOWL1-15 | 2026-09-05 05:59:09 | 49.36078 | 8.93172 | 87° | 40km/h | 19141m | 4.5m/s | -55.4°C | 0% | 66.5hPa | 2.7V | 03:49:15 | 01:26:35 | 00:00:00 | |
| DL1XH1-15 | 2026-09-05 05:59:07 | 49.36071 | 8.93059 | 85° | 42km/h | 19109m | 5.2m/s | 0°C | 0% | 0hPa | 2.5V | 03:48:38 | 01:26:28 | 00:00:00 | |
| DL1XH-west | 2026-09-05 05:59:05 | 49.36074 | 8.93109 | 85° | 44km/h | 19122m | 5.2m/s | -55.5°C | 0% | 66.7hPa | 2.7V | 03:49:15 | 01:26:31 | 00:00:00 | |
| BIOWL1-15 | 2026-09-05 05:58:59 | 49.36070 | 8.93011 | 93° | 42km/h | 19096m | 5.1m/s | -56°C | 0% | 67hPa | 2.7V | 03:49:15 | 01:26:25 | 00:00:00 | |
| DL1NUX | 2026-09-05 05:58:58 | 49.36076 | 8.92920 | 92° | 44km/h | 19071m | 4m/s | -56.4°C | 4.2% | 67.3hPa | 2.7V | 03:48:47 | 01:26:19 | 00:00:00 | |
| DL1XH-west | 2026-09-05 05:58:55 | 49.36075 | 8.92950 | 95° | 37km/h | 19079m | 4.4m/s | -56.4°C | 0% | 67.2hPa | 2.5V | 03:49:15 | 01:26:21 | 00:00:00 | |
| BIOWL9-15 | 2026-09-05 05:58:49 | 49.36076 | 8.92845 | 85° | 47km/h | 19055m | 5.0m/s | -56.3°C | 0.9% | 67.4hPa | 2.7V | 00:00:00 | 00:00:00 | 00:00:00 | |
| DL1NUX | 2026-09-05 05:58:48 | 49.36070 | 8.92737 | 89° | 47km/h | 19029m | 4.1m/s | -56.1°C | 4.2% | 67.7hPa | 2.7V | 03:48:57 | 01:26:09 | 00:00:00 | |
| BIOWL1-15 | 2026-09-05 05:58:48 | 49.36075 | 8.92827 | 83° | 47km/h | 19050m | 4.1m/s | -56.3°C | 0% | 67.5hPa | 2.7V | 03:49:15 | 01:26:14 | 00:00:00 | |
| DL1XH1-15 | 2026-09-05 05:58:47 | 49.36070 | 8.92718 | 87° | 47km/h | 19025m | 4.5m/s | 0°C | 0% | 0hPa | 2.7V | 03:48:58 | 01:26:08 | 00:00:00 | |
| AU51GT2 | 2026-09-05 05:58:45 | 49.36071 | 8.92774 | 86° | 46km/h | 19038m | 4.8m/s | -56.2°C | 0.9% | 67.6hPa | 2.5V | 00:00:00 | 00:00:00 | 00:00:00 | |
| DL1XH-west | 2026-09-05 05:58:44 | 49.36070 | 8.92755 | 89° | 47km/h | 19033m | 4.2m/s | -56.2°C | 0% | 67.7hPa | 2.5V | 03:49:15 | 01:26:10 | 00:00:00 | |
| HSKMA3-T | 2026-09-05 05:58:42 | 49.36070 | 8.92718 | 88° | 47km/h | 19025m | 4.5m/s | -56.1°C | 0% | 67.7hPa | 2.7V | 03:49:15 | 01:26:08 | 00:00:00 | |
| DB0NH | 2026-09-05 05:58:42 | 49.36070 | 8.92718 | 88° | 42km/h | 19025m | 4.4m/s | -56.1°C | 4.1% | 67.7hPa | 2.6V | 00:00:00 | 01:26:08 | 00:00:00 | |
| DM7RM-13 | 2026-09-05 05:58:41 | 49.36070 | 8.92718 | 89° | 47km/h | 19025m | 4.5m/s | -56.1°C | 0.9% | 67.7hPa | 2.6V | 03:49:00 | 00:00:00 | 00:00:00 | |
| DL1NUX | 2026-09-05 05:58:38 | 49.36063 | 8.92573 | 80° | 38km/h | 18986m | 3.9m/s | -56°C | 4.1% | 68.2hPa | 2.6V | 03:49:07 | 01:25:59 | 00:00:00 | |
| DM0DOS-11 | 2026-09-05 05:58:37 | 49.36062 | 8.92558 | 84° | 40km/h | 18981m | 5.2m/s | -56°C | 4.1% | 68.2hPa | 2.7V | 03:49:08 | 01:25:58 | 00:00:00 | |
| BIOWL1-15 | 2026-09-05 05:58:37 | 49.36067 | 8.92634 | 90° | 42km/h | 19002m | 3.9m/s | -56°C | 0% | 68hPa | 2.7V | 03:49:15 | 01:26:03 | 00:00:00 | |
| DL1XH-west | 2026-09-05 05:58:33 | 49.36063 | 8.92573 | 81° | 38km/h | 18986m | 3.9m/s | -56°C | 0% | 68.2hPa | 2.6V | 03:49:15 | 01:25:59 | 00:00:00 | |
| HSKMA3-T | 2026-09-05 05:58:31 | 49.36061 | 8.92543 | 88° | 40km/h | 18977m | 4.2m/s | -56°C | 0% | 68.3hPa | 2.7V | 03:49:15 | 01:25:57 | 00:00:00 | |
| DO8TBO-1 | 2026-09-05 05:58:29 | 49.36061 | 8.92511 | 90° | 40km/h | 18968m | 4.7m/s | -55.9°C | 4.1% | 68.3hPa | 2.5V | 00:00:00 | 01:25:55 | 00:00:00 | |
| DL1NUX | 2026-09-05 05:58:28 | 49.36060 | 8.92406 | 88° | 46km/h | 18942m | 3.9m/s | -56°C | 4.1% | 68.7hPa | 2.5V | 03:49:17 | 01:25:49 | 00:00:00 | |
| DM0DOS-11 | 2026-09-05 05:58:27 | 49.36059 | 8.92389 | 85° | 42km/h | 18937m | 5.2m/s | -56.1°C | 4.1% | 68.7hPa | 2.6V | 03:49:18 | 01:25:48 | 00:00:00 | |
| BIOWL1-15 | 2026-09-05 05:58:26 | 49.36060 | 8.92460 | 89° | 46km/h | 18955m | 5.1m/s | -55.9°C | 0% | 68.5hPa | 2.7V | 03:49:15 | 01:25:52 | 00:00:00 | |
| DL1XH-west | 2026-09-05 05:58:23 | 49.36060 | 8.92406 | 88° | 46km/h | 18942m | 3.9m/s | -56°C | 0% | 68.7hPa | 2.5V | 03:52:39 | 01:25:49 | 00:00:00 | |
| HSKMA3-T | 2026-09-05 05:58:20 | 49.36058 | 8.92359 | 87° | 35km/h | 18928m | 4.1m/s | -56°C | 0% | 68.8hPa | 2.7V | 03:50:06 | 01:25:46 | 00:00:00 | |
| BIOWL1-15 | 2026-09-05 05:58:15 | 49.36066 | 8.92291 | 105° | 38km/h | 18906m | 5.4m/s | -56.2°C | 0% | 69hPa | 2.7V | 03:50:06 | 01:25:41 | 00:00:00 | |
| DL1XH-west | 2026-09-05 05:58:12 | 49.36072 | 8.92244 | 102° | 47km/h | 18892m | 5.1m/s | -56.4°C | 0% | 69.2hPa | 2.5V | 03:52:39 | 01:25:38 | 00:00:00 | |
| NBG1-10 | 2026-09-05 05:58:12 | 49.36072 | 8.92244 | 103° | 38km/h | 18892m | 5.0m/s | -56.3°C | 4.1% | 69.1hPa | 2.5V | 00:00:00 | 01:25:38 | 00:00:00 | |
| DG9SBQ-11 | 2026-09-05 05:58:10 | 49.36077 | 8.92207 | 102° | 49km/h | 18883m | 3.9m/s | -56.4°C | 0.9% | 69.3hPa | 2.5V | 03:50:00 | 00:00:00 | 00:00:00 | |
| DF1GD-15 | 2026-09-05 05:58:09 | 49.36079 | 8.92190 | 100° | 46km/h | 18878m | 4.9m/s | -56.5°C | 1.0% | 69.3hPa | 2.5V | 03:50:00 | 00:00:00 | 00:00:00 | |
| DL1NUX | 2026-09-05 05:58:07 | 49.36092 | 8.92095 | 102° | 33km/h | 18849m | 5m/s | -56.6°C | 4.3% | 69.7hPa | 2.5V | 03:49:38 | 01:25:28 | 00:00:00 | |
| BIOWL1-15 | 2026-09-05 05:58:04 | 49.36088 | 8.92120 | 107° | 33km/h | 18857m | 4.3m/s | -56.6°C | 0% | 69.6hPa | 2.7V | 03:50:06 | 01:25:30 | 00:00:00 | |
| DB0UT-7 | 2026-09-05 05:58:04 | 49.36088 | 8.92120 | 107° | 42km/h | 18857m | 4.2m/s | -56.5°C | 4.2% | 69.5hPa | 2.7V | 00:00:00 | 00:00:00 | 00:00:00 | |
| CB1BUN | 2026-09-05 05:58:03 | 49.36088 | 8.92120 | 108° | 33km/h | 18857m | 4.3m/s | -56.6°C | 0.9% | 69.6hPa | 2.5V | 03:50:00 | 00:00:00 | 00:00:00 | |
| DL1ZP-14 | 2026-09-05 05:58:02 | 49.36092 | 8.92095 | 102° | 33km/h | 18849m | 5.0m/s | -56.7°C | 0.9% | 69.7hPa | 2.5V | 00:00:00 | 00:00:00 | 00:00:00 | |
| DL6DJ-15 | 2026-09-05 05:58:00 | 49.36099 | 8.92039 | 104° | 40km/h | 18832m | 5.3m/s | -56.7°C | 0.9% | 69.8hPa | 2.7V | 00:00:00 | 00:00:00 | 00:00:00 | |
| DO8TBO-1 | 2026-09-05 05:57:59 | 49.36097 | 8.92054 | 102° | 46km/h | 18837m | 4.4m/s | -56.7°C | 4.2% | 69.7hPa | 2.7V | 03:49:00 | 01:25:25 | 00:00:00 | |
| DM0DOS-11 | 2026-09-05 05:57:57 | 49.36114 | 8.91946 | 107° | 40km/h | 18803m | 5.3m/s | -56.7°C | 4.3% | 70.1hPa | 2.7V | 03:49:48 | 01:25:18 | 00:00:00 | |
| DL1XH-west | 2026-09-05 05:57:57 | 49.36102 | 8.92023 | 106° | 42km/h | 18827m | 4.4m/s | -56.8°C | 0% | 69.9hPa | 2.7V | 03:52:39 | 01:25:23 | 00:00:00 | |
| BIOWL1-15 | 2026-09-05 05:57:54 | 49.36109 | 8.91977 | 102° | 40km/h | 18812m | 4.2m/s | -56.8°C | 0% | 70.1hPa | 2.6V | 03:50:06 | 01:25:20 | 00:00:00 | |
| SO1NDE-10 | 2026-09-05 05:57:53 | 49.36111 | 8.91961 | 105° | 51km/h | 18808m | 4.5m/s | -56.7°C | 4.3% | 70.0hPa | 2.7V | 03:49:00 | 01:25:19 | 00:00:00 | |
| DL1NUX | 2026-09-05 05:57:52 | 49.36133 | 8.91846 | 106° | 49km/h | 18777m | 5m/s | -56.8°C | 4.3% | 70.4hPa | 2.7V | 03:49:54 | 01:25:12 | 00:00:00 | |
| HSKMA3-T | 2026-09-05 05:57:50 | 49.36121 | 8.91915 | 107° | 44km/h | 18795m | 3.6m/s | -56.8°C | 0% | 70.3hPa | 2.5V | 03:50:06 | 01:25:16 | 00:00:00 | |
| SONDE2-11 | 2026-09-05 05:57:49 | 49.36124 | 8.91899 | 104° | 44km/h | 18791m | 5.4m/s | -56.7°C | 0.9% | 70.3hPa | 2.7V | 00:00:00 | 00:00:00 | 00:00:00 | |
| DF1GD-15 | 2026-09-05 05:57:48 | 49.36124 | 8.91899 | 106° | 44km/h | 18791m | 5.4m/s | -56.7°C | 1.0% | 70.3hPa | 2.7V | 03:50:00 | 00:00:00 | 00:00:00 | |
| DM0DOS-11 | 2026-09-05 05:57:47 | 49.36146 | 8.91774 | 100° | 47km/h | 18758m | 4.9m/s | -57°C | 4.4% | 70.7hPa | 2.7V | 03:49:58 | 01:25:08 | 00:00:00 | |
| DL1XH-west | 2026-09-05 05:57:46 | 49.36133 | 8.91846 | 106° | 49km/h | 18778m | 5m/s | -56.8°C | 0% | 70.4hPa | 2.7V | 03:52:39 | 01:25:12 | 00:00:00 | |
| BIOWL1-15 | 2026-09-05 05:57:43 | 49.36143 | 8.91792 | 103° | 47km/h | 18763m | 5.2m/s | -56.9°C | 0% | 70.6hPa | 2.5V | 03:50:06 | 01:25:09 | 00:00:00 | |
| HSKMA3-T | 2026-09-05 05:57:39 | 49.36151 | 8.91724 | 102° | 40km/h | 18745m | 5.3m/s | -57°C | 0% | 70.8hPa | 2.5V | 03:50:06 | 01:25:05 | 00:00:00 | |
| DM7RM-13 | 2026-09-05 05:57:38 | 49.36151 | 8.91723 | 103° | 40km/h | 18745m | 5.3m/s | -57.0°C | 1.0% | 70.8hPa | 2.5V | 03:50:00 | 00:00:00 | 00:00:00 | |
| DM0DOS-11 | 2026-09-05 05:57:37 | 49.36165 | 8.91603 | 101° | 55km/h | 18714m | 4.8m/s | -57°C | 4.3% | 71.2hPa | 2.5V | 03:50:08 | 01:24:58 | 00:00:00 | |
| BIOWL1-15 | 2026-09-05 05:57:35 | 49.36163 | 8.91623 | 100° | 53km/h | 18719m | 4.5m/s | -57°C | 0% | 71.1hPa | 2.5V | 03:50:57 | 01:24:59 | 00:00:00 | |
| DL1XH-west | 2026-09-05 05:57:29 | 49.36174 | 8.91538 | 101° | 58km/h | 18700m | 5.4m/s | -56.9°C | 0% | 71.3hPa | 2.5V | 03:52:39 | 01:24:55 | 00:00:00 | |
| HSKMA3-T | 2026-09-05 05:57:28 | 49.36177 | 8.91516 | 99° | 57km/h | 18695m | 4.4m/s | -56.8°C | 0% | 71.4hPa | 2.5V | 03:50:57 | 01:24:54 | 00:00:00 | |
| BIOWL1-15 | 2026-09-05 05:57:24 | 49.36192 | 8.91405 | 98° | 42km/h | 18668m | 5.7m/s | -56.8°C | 0% | 71.7hPa | 2.5V | 03:50:57 | 01:24:48 | 00:00:00 | |
| DL1XH-west | 2026-09-05 05:57:18 | 49.36195 | 8.91340 | 92° | 44km/h | 18649m | 4.3m/s | -57°C | 0% | 71.9hPa | 2.5V | 03:52:39 | 01:24:44 | 00:00:00 | |
| BIOWL1-15 | 2026-09-05 05:57:11 | 49.36201 | 8.91199 | 103° | 55km/h | 18617m | 3.9m/s | -57.4°C | 0% | 72.3hPa | 2.5V | 03:50:57 | 01:24:37 | 00:00:00 | |
| DB0ND-19 | 2026-09-05 05:57:10 | 49.36206 | 8.91159 | 97° | 49km/h | 18608m | 4.7m/s | -57.3°C | 1.0% | 72.4hPa | 2.7V | 00:00:00 | 00:00:00 | 00:00:00 | |
| DM0DOS-11 | 2026-09-05 05:57:07 | 49.36197 | 8.91026 | 73° | 53km/h | 18576m | 3.3m/s | -57.2°C | 4.5% | 72.7hPa | 2.7V | 03:50:38 | 01:24:28 | 00:00:00 | |
| HSKMA3-T | 2026-09-05 05:57:07 | 49.36208 | 8.91121 | 92° | 49km/h | 18599m | 4.7m/s | -57.3°C | 0.1% | 72.5hPa | 2.5V | 03:50:57 | 01:24:33 | 00:00:00 | |
| DL1XH-west | 2026-09-05 05:57:04 | 49.36204 | 8.91064 | 77° | 49km/h | 18585m | 5.3m/s | -57.3°C | 0% | 72.6hPa | 2.7V | 03:52:39 | 01:24:30 | 00:00:00 | |
| BIOWL1-15 | 2026-09-05 05:57:03 | 49.36193 | 8.91006 | 75° | 55km/h | 18572m | 4.6m/s | -57.2°C | 0% | 72.8hPa | 2.5V | 03:50:57 | 01:24:27 | 00:00:00 | |
| DK7TD | 2026-09-05 05:57:00 | 49.36190 | 8.90985 | 81° | 57km/h | 18567m | 4.4m/s | -57.2°C | 0.1% | 0hPa | 2.5V | 03:50:57 | 01:24:26 | 00:00:00 | |
| DL1NUX | 2026-09-05 05:57:00 | 49.36190 | 8.90882 | 90° | 47km/h | 18544m | 4.3m/s | -57°C | 4.4% | 73.1hPa | 2.5V | 03:50:45 | 01:24:21 | 00:00:00 | |
| DL1ZP-14 | 2026-09-05 05:57:00 | 49.36190 | 8.90985 | 81° | 55km/h | 18568m | 4.4m/s | -57.2°C | 1.0% | 72.8hPa | 2.5V | 00:00:00 | 00:00:00 | 00:00:00 | |
| DO8TBO-1 | 2026-09-05 05:56:59 | 49.36189 | 8.90963 | 88° | 44km/h | 18563m | 4.3m/s | -57.1°C | 4.4% | 72.9hPa | 2.7V | 00:00:00 | 01:24:25 | 00:00:00 | |
| DM0DOS-11 | 2026-09-05 05:56:57 | 49.36187 | 8.90828 | 80° | 47km/h | 18530m | 5.4m/s | -56.9°C | 4.4% | 73.2hPa | 2.7V | 03:50:48 | 01:24:18 | 00:00:00 | |
| HSKMA3-T | 2026-09-05 05:56:57 | 49.36189 | 8.90920 | 93° | 53km/h | 18554m | 5m/s | -57.1°C | 0.1% | 73hPa | 2.7V | 03:50:57 | 01:24:23 | 00:00:00 | |
| DL1XH-west | 2026-09-05 05:56:54 | 49.36190 | 8.90864 | 87° | 46km/h | 18540m | 4.1m/s | -57°C | 0% | 73.2hPa | 2.6V | 03:52:39 | 01:24:20 | 00:00:00 | |
| DO3MHA-11 | 2026-09-05 05:56:52 | 49.36187 | 8.90828 | 81° | 44km/h | 18531m | 5.4m/s | -56.9°C | 4.4% | 73.2hPa | 2.5V | 00:00:00 | 01:24:18 | 00:00:00 | |
| DL1NUX | 2026-09-05 05:56:50 | 49.36179 | 8.90708 | 92° | 46km/h | 18499m | 4.2m/s | -56.6°C | 4.4% | 73.7hPa | 2.5V | 03:50:55 | 01:24:11 | 00:00:00 | |
| BIOWL1-15 | 2026-09-05 05:56:50 | 49.36183 | 8.90792 | 79° | 46km/h | 18521m | 4.1m/s | -56.8°C | 0.1% | 73.4hPa | 2.5V | 03:50:57 | 01:24:16 | 00:00:00 | |
| DK7TD | 2026-09-05 05:56:48 | 49.36180 | 8.90759 | 86° | 42km/h | 18512m | 3.9m/s | 0°C | 0% | 0hPa | 2.6V | 03:50:57 | 01:24:14 | 00:00:00 | |
| SONDE2-11 | 2026-09-05 05:56:47 | 49.36179 | 8.90726 | 90° | 44km/h | 18504m | 5.0m/s | -56.7°C | 1.0% | 73.6hPa | 2.7V | 00:00:00 | 00:00:00 | 00:00:00 | |
| BIOWL9-15 | 2026-09-05 05:56:45 | 49.36179 | 8.90708 | 92° | 44km/h | 18499m | 4.2m/s | -56.6°C | 1.0% | 73.7hPa | 2.7V | 00:00:00 | 00:00:00 | 00:00:00 | |
| DL1XH-west | 2026-09-05 05:56:42 | 49.36182 | 8.90659 | 96° | 38km/h | 18485m | 5.2m/s | -56.5°C | 0% | 73.8hPa | 2.7V | 03:52:39 | 01:24:08 | 00:00:00 | |
| BIOWL1-15 | 2026-09-05 05:56:41 | 49.36183 | 8.90616 | 86° | 40km/h | 18471m | 5.6m/s | -56.4°C | 0% | 74hPa | 2.5V | 03:51:48 | 01:24:05 | 00:00:00 | |
| DL1NUX | 2026-09-05 05:56:40 | 49.36178 | 8.90553 | 88° | 38km/h | 18454m | 5.3m/s | -56.3°C | 4.3% | 74.2hPa | 2.7V | 03:51:05 | 01:24:01 | 00:00:00 | |
| DK7TD | 2026-09-05 05:56:38 | 49.36181 | 8.90600 | 83° | 42km/h | 18466m | 4.4m/s | 0°C | 0% | 0hPa | 2.5V | 18:12:15 | 01:24:04 | 00:00:00 | |
| DM0DOS-11 | 2026-09-05 05:56:37 | 49.36182 | 8.90508 | 102° | 44km/h | 18440m | 5.6m/s | -56.1°C | 4.3% | 74.3hPa | 2.6V | 03:51:08 | 01:23:58 | 00:00:00 | |
| BIOWL1-15 | 2026-09-05 05:56:31 | 49.36190 | 8.90457 | 105° | 44km/h | 18426m | 4.6m/s | -56.1°C | 0.1% | 74.5hPa | 2.7V | 03:51:48 | 01:23:55 | 00:00:00 | |
| DL1NUX | 2026-09-05 05:56:30 | 49.36199 | 8.90399 | 97° | 37km/h | 18407m | 5.1m/s | -55.8°C | 4.2% | 74.7hPa | 2.7V | 03:51:15 | 01:23:51 | 00:00:00 | |
| DK7TD | 2026-09-05 05:56:27 | 49.36195 | 8.90427 | 103° | 38km/h | 18416m | 4.6m/s | 0°C | 0% | 0hPa | 2.5V | 18:12:15 | 01:23:53 | 00:00:00 | |
| DM0DOS-11 | 2026-09-05 05:56:27 | 49.36201 | 8.90357 | 93° | 33km/h | 18393m | 5.5m/s | -55.8°C | 4.1% | 74.9hPa | 2.5V | 03:51:18 | 01:23:48 | 00:00:00 | |
| DF1GD-15 | 2026-09-05 05:56:26 | 49.36195 | 8.90427 | 104° | 38km/h | 18416m | 4.6m/s | -55.9°C | 1.0% | 74.6hPa | 2.7V | 03:51:00 | 00:00:00 | 00:00:00 | |
| SO1NDE-10 | 2026-09-05 05:56:25 | 49.36199 | 8.90398 | 98° | 40km/h | 18407m | 5.1m/s | -55.8°C | 4.2% | 74.7hPa | 2.7V | 00:00:00 | 01:23:51 | 00:00:00 | |
| DJ2DS-15 | 2026-09-05 05:56:24 | 49.36200 | 8.90384 | 95° | 38km/h | 18402m | 3.9m/s | -55.8°C | 4.2% | 74.7hPa | 2.7V | 00:00:00 | 01:23:50 | 00:00:00 | |
| DG9SBQ-11 | 2026-09-05 05:56:23 | 49.36200 | 8.90384 | 96° | 37km/h | 18402m | 4.0m/s | -55.8°C | 0.9% | 74.8hPa | 2.6V | 03:51:00 | 00:00:00 | 00:00:00 | |
| DO3MHA-11 | 2026-09-05 05:56:22 | 49.36201 | 8.90358 | 94° | 40km/h | 18393m | 5.5m/s | -55.7°C | 4.1% | 74.8hPa | 2.6V | 03:51:00 | 01:23:48 | 00:00:00 | |
| DF3TZ-5 | 2026-09-05 05:56:21 | 49.36202 | 8.90345 | 95° | 33km/h | 18388m | 3.9m/s | -55.7°C | 0.9% | 74.9hPa | 2.6V | 00:00:00 | 00:00:00 | 00:00:00 | |
| DL1NUX | 2026-09-05 05:56:20 | 49.36217 | 8.90252 | 109° | 42km/h | 18360m | 5.2m/s | -55.5°C | 4.1% | 75.3hPa | 2.6V | 03:51:25 | 01:23:41 | 00:00:00 | |
| BIOWL1-15 | 2026-09-05 05:56:18 | 49.36207 | 8.90301 | 105° | 44km/h | 18374m | 4.3m/s | -55.5°C | 0% | 75.1hPa | 2.7V | 03:51:48 | 01:23:44 | 00:00:00 | |
| DG9SBQ-11 | 2026-09-05 05:56:17 | 49.36207 | 8.90301 | 106° | 44km/h | 18375m | 4.3m/s | -55.5°C | 0.9% | 75.1hPa | 2.5V | 03:51:00 | 00:00:00 | 00:00:00 | |
| SONDE2-11 | 2026-09-05 05:56:16 | 49.36217 | 8.90252 | 109° | 40km/h | 18360m | 5.2m/s | -55.5°C | 0.9% | 75.3hPa | 2.5V | 00:00:00 | 00:00:00 | 00:00:00 | |
| BIOWL9-15 | 2026-09-05 05:56:14 | 49.36220 | 8.90237 | 108° | 38km/h | 18356m | 4.0m/s | -55.4°C | 0.9% | 75.3hPa | 2.5V | 00:00:00 | 00:00:00 | 00:00:00 | |
| DB0UT-9 | 2026-09-05 05:56:13 | 49.36220 | 8.90237 | 110° | 40km/h | 18356m | 4.0m/s | -55.4°C | 1.0% | 75.3hPa | 2.5V | 03:51:00 | 00:00:00 | 00:00:00 | |
| DB0NH | 2026-09-05 05:56:12 | 49.36226 | 8.90208 | 107° | 37km/h | 18347m | 5.2m/s | -55.2°C | 4.0% | 75.4hPa | 2.5V | 03:51:00 | 01:23:38 | 00:00:00 | |
| AU51GT2 | 2026-09-05 05:56:11 | 49.36231 | 8.90179 | 101° | 38km/h | 18338m | 3.5m/s | -55.3°C | 0.9% | 75.6hPa | 2.6V | 00:00:00 | 00:00:00 | 00:00:00 | |
| NBG1-10 | 2026-09-05 05:56:10 | 49.36231 | 8.90179 | 102° | 40km/h | 18338m | 3.5m/s | -55.2°C | 3.9% | 75.5hPa | 2.6V | 03:51:00 | 01:23:36 | 00:00:00 | |
| DL1NUX | 2026-09-05 05:56:09 | 49.36236 | 8.90102 | 94° | 37km/h | 18311m | 4m/s | -55.2°C | 3.9% | 75.9hPa | 2.6V | 03:51:36 | 01:23:30 | 00:00:00 | |
| BIOWL1-15 | 2026-09-05 05:56:08 | 49.36234 | 8.90151 | 97° | 33km/h | 18329m | 5.6m/s | -55.3°C | 0% | 75.6hPa | 2.7V | 03:51:48 | 01:23:34 | 00:00:00 | |
| DB0ND-19 | 2026-09-05 05:56:08 | 49.36235 | 8.90139 | 95° | 29km/h | 18324m | 4.7m/s | -55.3°C | 0.9% | 75.7hPa | 2.7V | 00:00:00 | 00:00:00 | 00:00:00 | |
| DM0DOS-11 | 2026-09-05 05:56:07 | 49.36239 | 8.90072 | 103° | 40km/h | 18304m | 4.2m/s | -55.2°C | 3.9% | 75.9hPa | 2.7V | 03:51:38 | 01:23:28 | 00:00:00 | |
| DF1GD-15 | 2026-09-05 05:56:05 | 49.36235 | 8.90128 | 94° | 31km/h | 18320m | 4.1m/s | -55.3°C | 0.9% | 75.8hPa | 2.5V | 03:51:00 | 00:00:00 | 00:00:00 | |
| DB0UT-7 | 2026-09-05 05:56:04 | 49.36236 | 8.90102 | 95° | 42km/h | 18311m | 3.9m/s | -55.1°C | 3.9% | 75.8hPa | 2.5V | 00:00:00 | 00:00:00 | 00:00:00 | |
| HARRO8 | 2026-09-05 05:56:01 | 49.36245 | 8.90043 | 111° | 38km/h | 18294m | 4.5m/s | -55.2°C | 0.9% | 76.1hPa | 2.5V | 00:00:00 | 00:00:00 | 00:00:00 | |
| BIOWL7-15 | 2026-09-05 05:56:00 | 49.36242 | 8.90057 | 108° | 40km/h | 18299m | 5.6m/s | -55.2°C | 0.9% | 76.0hPa | 2.5V | 00:00:00 | 00:00:00 | 00:00:00 | |
| DL1NUX | 2026-09-05 05:55:59 | 49.36269 | 8.89950 | 110° | 40km/h | 18268m | 5.2m/s | -55.6°C | 4.1% | 76.4hPa | 2.5V | 03:51:46 | 01:23:20 | 00:00:00 | |
| DO8TBO-1 | 2026-09-05 05:55:58 | 49.36253 | 8.90014 | 114° | 42km/h | 18286m | 4.3m/s | -55.2°C | 3.8% | 76.1hPa | 2.7V | 03:51:00 | 01:23:24 | 00:00:00 | |
| DM0DOS-11 | 2026-09-05 05:55:57 | 49.36275 | 8.89925 | 109° | 31km/h | 18258m | 4m/s | -55.7°C | 4% | 76.5hPa | 2.7V | 03:51:48 | 01:23:18 | 00:00:00 | |
| BIOWL1-15 | 2026-09-05 05:55:57 | 49.36258 | 8.89998 | 113° | 46km/h | 18281m | 5.4m/s | -55.3°C | 0% | 76.2hPa | 2.7V | 03:51:48 | 01:23:23 | 00:00:00 | |
| DL6DJ-15 | 2026-09-05 05:55:54 | 49.36269 | 8.89951 | 110° | 38km/h | 18268m | 5.2m/s | -55.7°C | 0.9% | 76.4hPa | 2.5V | 00:00:00 | 00:00:00 | 00:00:00 | |
| DF3TZ-5 | 2026-09-05 05:55:50 | 49.36280 | 8.89902 | 106° | 29km/h | 18249m | 4.3m/s | -55.8°C | 0.9% | 76.6hPa | 2.5V | 00:00:00 | 00:00:00 | 00:00:00 | |
| DL1NUX | 2026-09-05 05:55:49 | 49.36304 | 8.89834 | 120° | 42km/h | 18224m | 5.1m/s | -56.2°C | 4.2% | 76.9hPa | 2.5V | 03:51:56 | 01:23:10 | 00:00:00 | |
| BIOWL1-15 | 2026-09-05 05:55:48 | 49.36294 | 8.89859 | 124° | 35km/h | 18233m | 4.1m/s | -56°C | 0% | 76.8hPa | 2.7V | 03:52:39 | 01:23:12 | 00:00:00 | |
| DM0DOS-11 | 2026-09-05 05:55:47 | 49.36315 | 8.89804 | 117° | 47km/h | 18215m | 4.2m/s | -56.3°C | 4.2% | 77hPa | 2.6V | 03:51:58 | 01:23:08 | 00:00:00 | |
| SFWM-10 | 2026-09-05 05:55:46 | 49.36289 | 8.89870 | 122° | 31km/h | 18237m | 5.0m/s | -55.9°C | 0.9% | 76.7hPa | 2.7V | 03:52:00 | 00:00:00 | 00:00:00 | |
| SONDE2-11 | 2026-09-05 05:55:45 | 49.36304 | 8.89834 | 120° | 40km/h | 18224m | 5.1m/s | -56.2°C | 0% | 76.9hPa | 2.7V | 00:00:00 | 00:00:00 | 00:00:00 | |
| DJ2DS-15 | 2026-09-05 05:55:44 | 49.36304 | 8.89834 | 121° | 44km/h | 18224m | 5.0m/s | -56.1°C | 4.2% | 76.8hPa | 2.7V | 03:51:00 | 01:23:10 | 00:00:00 | |
| BIOWL9-15 | 2026-09-05 05:55:43 | 49.36310 | 8.89819 | 117° | 44km/h | 18219m | 4.1m/s | -56.2°C | 0.9% | 77.0hPa | 2.7V | 00:00:00 | 00:00:00 | 00:00:00 | |
| DO3MHA-11 | 2026-09-05 05:55:42 | 49.36315 | 8.89803 | 118° | 47km/h | 18215m | 4.2m/s | -56.2°C | 4.2% | 77.0hPa | 2.7V | 03:51:00 | 01:23:08 | 00:00:00 | |
| AU51GT2 | 2026-09-05 05:55:39 | 49.36334 | 8.89752 | 118° | 53km/h | 18203m | 3.2m/s | -56.3°C | 0.9% | 77.2hPa | 2.7V | 00:00:00 | 00:00:00 | 00:00:00 | |
| DM3KS-11 | 2026-09-05 05:55:38 | 49.36340 | 8.89734 | 117° | 53km/h | 18199m | 4.7m/s | -56.3°C | 0.9% | 77.2hPa | 2.7V | 00:00:00 | 00:00:00 | 00:00:00 | |
| DL1NUX | 2026-09-05 05:55:37 | 49.36370 | 8.89645 | 117° | 31km/h | 18174m | 4.7m/s | -56.2°C | 4.3% | 77.5hPa | 2.7V | 03:52:08 | 01:22:58 | 00:00:00 | |
| BIOWL1-15 | 2026-09-05 05:55:35 | 49.36356 | 8.89682 | 116° | 44km/h | 18188m | 4.2m/s | -56.3°C | 0% | 77.3hPa | 2.5V | 03:52:39 | 01:23:01 | 00:00:00 | |
| DB0UT-7 | 2026-09-05 05:55:34 | 49.36361 | 8.89668 | 119° | 42km/h | 18183m | 4.9m/s | -56.2°C | 4.2% | 77.4hPa | 2.7V | 03:52:00 | 01:23:00 | 00:00:00 | |
| DB0UT-9 | 2026-09-05 05:55:33 | 49.36361 | 8.89668 | 120° | 38km/h | 18183m | 5.0m/s | -56.2°C | 1.0% | 77.4hPa | 2.7V | 03:52:00 | 00:00:00 | 00:00:00 | |
| DO3MHA-11 | 2026-09-05 05:55:32 | 49.36369 | 8.89645 | 118° | 44km/h | 18174m | 4.7m/s | -56.1°C | 4.3% | 77.5hPa | 2.7V | 00:00:00 | 01:22:58 | 00:00:00 | |
| BIOWL7-15 | 2026-09-05 05:55:30 | 49.36373 | 8.89634 | 112° | 31km/h | 18169m | 5.5m/s | -56.2°C | 1.0% | 77.6hPa | 2.5V | 00:00:00 | 00:00:00 | 00:00:00 | |
| HARRO8 | 2026-09-05 05:55:29 | 49.36377 | 8.89609 | 102° | 37km/h | 18161m | 2.5m/s | -56.0°C | 1.0% | 77.7hPa | 2.5V | 00:00:00 | 00:00:00 | 00:00:00 | |
| DO8TBO-1 | 2026-09-05 05:55:28 | 49.36380 | 8.89594 | 103° | 40km/h | 18158m | 4.2m/s | -56.0°C | 4.3% | 77.6hPa | 2.5V | 00:00:00 | 01:22:54 | 00:00:00 | |
| DL1NUX | 2026-09-05 05:55:27 | 49.36394 | 8.89475 | 94° | 51km/h | 18130m | 4.2m/s | -55.8°C | 4.1% | 78.1hPa | 2.5V | 03:52:18 | 01:22:48 | 00:00:00 | |
| DL1XH-west | 2026-09-05 05:55:26 | 49.36385 | 8.89559 | 104° | 51km/h | 18148m | 5m/s | -56°C | 0% | 77.8hPa | 2.7V | 03:52:39 | 01:22:52 | 00:00:00 | |
| BIOWL1-15 | 2026-09-05 05:55:24 | 49.36391 | 8.89517 | 100° | 57km/h | 18139m | 4.4m/s | -55.9°C | 0% | 77.9hPa | 2.5V | 03:52:39 | 01:22:50 | 00:00:00 | |
| HSKMA3-T | 2026-09-05 05:55:21 | 49.36395 | 8.89456 | 96° | 46km/h | 18125m | 4.8m/s | -55.8°C | 0% | 78.1hPa | 2.7V | 03:55:12 | 01:22:47 | 00:00:00 | |
| DF3TZ-5 | 2026-09-05 05:55:19 | 49.36398 | 8.89426 | 105° | 31km/h | 18115m | 5.4m/s | -55.9°C | 0.9% | 78.2hPa | 2.5V | 00:00:00 | 00:00:00 | 00:00:00 | |
| DL1NUX | 2026-09-05 05:55:18 | 49.36405 | 8.89346 | 93° | 46km/h | 18080m | 6.2m/s | -55.7°C | 4.2% | 78.7hPa | 2.5V | 03:52:28 | 01:22:38 | 00:00:00 | |
| DL1XH-west | 2026-09-05 05:55:16 | 49.36404 | 8.89397 | 103° | 24km/h | 18100m | 5.8m/s | -55.8°C | 0% | 78.4hPa | 2.5V | 03:52:39 | 01:22:42 | 00:00:00 | |
| DL1XH1-15 | 2026-09-05 05:55:15 | 49.36407 | 8.89306 | 96° | 57km/h | 18071m | 4.1m/s | 0°C | 0% | 0hPa | 2.7V | 03:52:30 | 01:22:36 | 00:00:00 | |
| BIOWL1-15 | 2026-09-05 05:55:13 | 49.36405 | 8.89363 | 90° | 40km/h | 18085m | 4.8m/s | -55.7°C | 0% | 78.6hPa | 2.5V | 03:52:39 | 01:22:39 | 00:00:00 | |
| DK5PH-5 | 2026-09-05 05:55:12 | 49.36405 | 8.89346 | 94° | 42km/h | 18080m | 6.2m/s | -55.6°C | 4.2% | 78.6hPa | 2.5V | 00:00:00 | 01:22:38 | 00:00:00 | |
| DG9SBQ-11 | 2026-09-05 05:55:11 | 49.36405 | 8.89346 | 94° | 46km/h | 18080m | 6.3m/s | -55.7°C | 0.9% | 78.7hPa | 2.5V | 03:52:00 | 00:00:00 | 00:00:00 | |
| BIOWL7-15 | 2026-09-05 05:55:10 | 49.36406 | 8.89327 | 96° | 55km/h | 18075m | 3.5m/s | -55.7°C | 0.9% | 78.7hPa | 2.5V | 00:00:00 | 00:00:00 | 00:00:00 | |
| AU51GT2 | 2026-09-05 05:55:08 | 49.36410 | 8.89263 | 95° | 51km/h | 18062m | 5.5m/s | -55.6°C | 0.9% | 78.9hPa | 2.5V | 00:00:00 | 00:00:00 | 00:00:00 | |
| DM0DOS-11 | 2026-09-05 05:55:07 | 49.36407 | 8.89180 | 70° | 31km/h | 18024m | 5.5m/s | -55.5°C | 4.1% | 79.3hPa | 2.5V | 03:52:38 | 01:22:28 | 00:00:00 | |
| DB0NH | 2026-09-05 05:55:07 | 49.36411 | 8.89243 | 95° | 42km/h | 18056m | 6.2m/s | -55.6°C | 4.1% | 78.9hPa | 2.5V | 00:00:00 | 01:22:33 | 00:00:00 | |
| DL1NUX | 2026-09-05 05:55:06 | 49.36404 | 8.89169 | 74° | 33km/h | 18019m | 4.9m/s | -55.5°C | 4.1% | 79.4hPa | 2.5V | 03:52:39 | 01:22:27 | 00:00:00 | |
| DL1XH-west | 2026-09-05 05:55:04 | 49.36411 | 8.89202 | 80° | 29km/h | 18036m | 5.7m/s | 0°C | 0% | 79.2hPa | 2.7V | 03:52:39 | 01:22:30 | 00:00:00 | |
| DJ2DS-15 | 2026-09-05 05:55:04 | 49.36411 | 8.89201 | 81° | 38km/h | 18037m | 5.7m/s | -55.5°C | 4.0% | 79.2hPa | 2.7V | 00:00:00 | 01:22:30 | 00:00:00 | |
| DL1XH1-15 | 2026-09-05 05:55:02 | 49.36400 | 8.89114 | 84° | 38km/h | 18000m | 4.2m/s | 0°C | 0% | 0hPa | 2.7V | 00:00:00 | 01:22:23 | 00:00:00 | |
| BIOWL1-15 | 2026-09-05 05:55:02 | 49.36407 | 8.89180 | 71° | 31km/h | 18024m | 5.5m/s | -55.5°C | 0% | 79.3hPa | 2.5V | 03:52:39 | 01:22:28 | 00:00:00 | |
| HARRO8 | 2026-09-05 05:54:59 | 49.36401 | 8.89129 | 86° | 37km/h | 18004m | 4.4m/s | -55.4°C | 0.9% | 79.6hPa | 2.7V | 00:00:00 | 00:00:00 | 00:00:00 | |
| DO8TBO-1 | 2026-09-05 05:54:58 | 49.36401 | 8.89129 | 87° | 42km/h | 18005m | 4.3m/s | -55.4°C | 4.1% | 79.6hPa | 2.7V | 00:00:00 | 01:22:24 | 00:00:00 | |
| DM0DOS-11 | 2026-09-05 05:54:57 | 49.36387 | 8.89038 | 73° | 42km/h | 17976m | 4.6m/s | -55.4°C | 4% | 80hPa | 2.7V | 03:52:48 | 01:22:18 | 00:00:00 | |
| DL1NUX | 2026-09-05 05:54:56 | 49.36384 | 8.89022 | 77° | 42km/h | 17971m | 5.4m/s | -55.4°C | 4% | 80hPa | 2.5V | 03:52:49 | 01:22:17 | 00:00:00 | |
| DL1XH-west | 2026-09-05 05:54:54 | 49.36394 | 8.89068 | 71° | 42km/h | 17984m | 4.9m/s | 0°C | 0% | 79.8hPa | 2.6V | 18:12:15 | 01:22:20 | 00:00:00 | |
| BIOWL1-15 | 2026-09-05 05:54:54 | 49.36387 | 8.89038 | 73° | 42km/h | 17976m | 4.6m/s | -55.4°C | 0% | 80hPa | 2.7V | 03:53:30 | 01:22:18 | 00:00:00 | |
| SO1NDE-10 | 2026-09-05 05:54:53 | 49.36390 | 8.89053 | 71° | 42km/h | 17980m | 3.6m/s | -55.3°C | 4.1% | 79.8hPa | 2.5V | 00:00:00 | 01:22:19 | 00:00:00 | |
| DL1XH1-15 | 2026-09-05 05:54:52 | 49.36378 | 8.88957 | 79° | 44km/h | 17951m | 5.6m/s | 0°C | 0% | 0hPa | 2.5V | 00:00:00 | 01:22:13 | 00:00:00 | |
| DJ2DS-15 | 2026-09-05 05:54:49 | 49.36381 | 8.88990 | 83° | 42km/h | 17962m | 4.2m/s | -55.5°C | 0.9% | 80.2hPa | 2.7V | 00:00:00 | 00:00:00 | 00:00:00 | |
| DF3TZ-5 | 2026-09-05 05:54:48 | 49.36380 | 8.88974 | 82° | 42km/h | 17957m | 5.4m/s | -55.4°C | 0.9% | 80.2hPa | 2.7V | 00:00:00 | 00:00:00 | 00:00:00 | |
| DM0DOS-11 | 2026-09-05 05:54:47 | 49.36364 | 8.88875 | 74° | 42km/h | 17928m | 3.6m/s | -55.2°C | 4.1% | 80.5hPa | 2.7V | 03:52:58 | 01:22:08 | 00:00:00 | |
| DL1XH-west | 2026-09-05 05:54:44 | 49.36370 | 8.88908 | 75° | 44km/h | 17937m | 4.4m/s | 0°C | 0% | 0hPa | 2.7V | 18:12:15 | 01:22:10 | 00:00:00 | |
| DJ2DS-15 | 2026-09-05 05:54:44 | 49.36370 | 8.88908 | 75° | 42km/h | 17937m | 4.3m/s | -55.2°C | 4.1% | 80.4hPa | 2.7V | 00:00:00 | 01:22:10 | 00:00:00 | |
| SONDE2-11 | 2026-09-05 05:54:43 | 49.36364 | 8.88876 | 74° | 42km/h | 17928m | 3.6m/s | 0°C | -1.0% | -1.0hPa | 2.7V | 00:00:00 | 00:00:00 | 00:00:00 | |
| DL1NUX | 2026-09-05 05:54:42 | 49.36349 | 8.88804 | 74° | 38km/h | 17907m | 5.2m/s | -54.9°C | 4% | 80.8hPa | 2.7V | 03:53:03 | 01:22:03 | 00:00:00 | |
| BIOWL1-15 | 2026-09-05 05:54:41 | 49.36361 | 8.88860 | 73° | 40km/h | 17924m | 4.1m/s | -55.2°C | 0% | 80.6hPa | 2.5V | 03:53:30 | 01:22:07 | 00:00:00 | |
| BIOWL9-15 | 2026-09-05 05:54:41 | 49.36358 | 8.88845 | 70° | 38km/h | 17920m | 5.1m/s | -55.1°C | 0.9% | 80.6hPa | 2.7V | 00:00:00 | 00:00:00 | 00:00:00 | |
| DM0DOS-11 | 2026-09-05 05:54:37 | 49.36336 | 8.88727 | 72° | 42km/h | 17884m | 4m/s | -54.9°C | 4% | 81.1hPa | 2.7V | 03:53:08 | 01:21:58 | 00:00:00 | |
| DL1XH-west | 2026-09-05 05:54:33 | 49.36339 | 8.88743 | 73° | 42km/h | 17888m | 4.7m/s | 0°C | 0% | 0hPa | 2.7V | 18:12:15 | 01:21:59 | 00:00:00 | |
| BIOWL1-15 | 2026-09-05 05:54:32 | 49.36329 | 8.88694 | 74° | 46km/h | 17875m | 5m/s | -54.9°C | 0% | 81.2hPa | 2.5V | 03:53:30 | 01:21:56 | 00:00:00 | |
| DL1NUX | 2026-09-05 05:54:32 | 49.36319 | 8.88646 | 68° | 40km/h | 17860m | 5.5m/s | -54.8°C | 3.9% | 81.4hPa | 2.7V | 03:53:13 | 01:21:53 | 00:00:00 | |
| NBG1-10 | 2026-09-05 05:54:31 | 49.36332 | 8.88711 | 74° | 40km/h | 17880m | 4.8m/s | -54.9°C | 4.0% | 81.1hPa | 2.7V | 00:00:00 | 01:21:57 | 00:00:00 | |
| DO8TBO-1 | 2026-09-05 05:54:28 | 49.36322 | 8.88661 | 71° | 40km/h | 17865m | 4.9m/s | -54.9°C | 4.0% | 81.3hPa | 2.7V | 00:00:00 | 01:21:54 | 00:00:00 | |
| DM0DOS-11 | 2026-09-05 05:54:27 | 49.36306 | 8.88573 | 82° | 42km/h | 17837m | 3.8m/s | -54.8°C | 3.9% | 81.7hPa | 2.7V | 03:53:18 | 01:21:48 | 00:00:00 | |
| DL1XH-west | 2026-09-05 05:54:23 | 49.36307 | 8.88589 | 81° | 42km/h | 17841m | 4.4m/s | 0°C | 0% | 0hPa | 2.5V | 18:12:15 | 01:21:49 | 00:00:00 | |
| DL1NUX | 2026-09-05 05:54:22 | 49.36296 | 8.88493 | 81° | 40km/h | 17813m | 5.3m/s | -54.8°C | 3.9% | 82hPa | 2.6V | 03:53:23 | 01:21:43 | 00:00:00 | |
| BIOWL1-15 | 2026-09-05 05:54:22 | 49.36302 | 8.88540 | 79° | 42km/h | 17827m | 5.8m/s | -54.9°C | 0% | 81.8hPa | 2.7V | 03:53:30 | 01:21:46 | 00:00:00 | |
| DF2AP-13 | 2026-09-05 05:54:22 | 49.36306 | 8.88573 | 83° | 40km/h | 17837m | 3.7m/s | -54.8°C | 3.9% | 81.7hPa | 2.7V | 00:00:00 | 01:21:48 | 00:00:00 | |
| DL6DJ-15 | 2026-09-05 05:54:21 | 49.36304 | 8.88557 | 80° | 42km/h | 17833m | 4.9m/s | -54.8°C | 0.8% | 81.8hPa | 2.7V | 00:00:00 | 00:00:00 | 00:00:00 | |
| DG9SBQ-11 | 2026-09-05 05:54:20 | 49.36304 | 8.88556 | 82° | 44km/h | 17833m | 4.9m/s | -54.8°C | 0.8% | 81.8hPa | 2.7V | 03:53:00 | 00:00:00 | 00:00:00 | |
| DM0DOS-11 | 2026-09-05 05:54:17 | 49.36290 | 8.88418 | 81° | 37km/h | 17788m | 3.8m/s | -54.8°C | 4.1% | 82.4hPa | 2.7V | 03:53:28 | 01:21:38 | 00:00:00 | |
| DL1XH-west | 2026-09-05 05:54:13 | 49.36291 | 8.88432 | 81° | 38km/h | 17793m | 5.1m/s | 0°C | 0% | 0hPa | 2.6V | 18:12:15 | 01:21:39 | 00:00:00 | |
| DL1NUX | 2026-09-05 05:54:12 | 49.36290 | 8.88344 | 92° | 40km/h | 17766m | 4.8m/s | -54.8°C | 4% | 82.6hPa | 2.7V | 03:53:33 | 01:21:33 | 00:00:00 | |
| BIOWL1-15 | 2026-09-05 05:54:09 | 49.36289 | 8.88375 | 94° | 40km/h | 17775m | 4.7m/s | -54.8°C | 0% | 82.5hPa | 2.5V | 03:54:21 | 01:21:35 | 00:00:00 | |
| DG9SBQ-11 | 2026-09-05 05:54:08 | 49.36289 | 8.88375 | 95° | 40km/h | 17775m | 4.7m/s | -54.8°C | 0.9% | 82.5hPa | 2.5V | 03:54:00 | 00:00:00 | 00:00:00 | |
| DM3KS-11 | 2026-09-05 05:54:05 | 49.36290 | 8.88314 | 85° | 38km/h | 17756m | 4.3m/s | -54.7°C | 0.9% | 82.8hPa | 2.5V | 00:00:00 | 00:00:00 | 00:00:00 | |
| DB0NH | 2026-09-05 05:54:04 | 49.36289 | 8.88298 | 87° | 38km/h | 17752m | 5.5m/s | -54.7°C | 3.9% | 82.8hPa | 2.5V | 03:53:00 | 01:21:30 | 00:00:00 | |
| DB0ND-19 | 2026-09-05 05:54:03 | 49.36288 | 8.88282 | 86° | 40km/h | 17746m | 5.0m/s | -54.7°C | 0.9% | 82.9hPa | 2.5V | 00:00:00 | 00:00:00 | 00:00:00 | |
| DL1NUX | 2026-09-05 05:54:02 | 49.36286 | 8.88196 | 97° | 37km/h | 17720m | 5.1m/s | -54.5°C | 3.9% | 83.2hPa | 2.5V | 03:53:43 | 01:21:23 | 00:00:00 | |
| BIOWL1-15 | 2026-09-05 05:54:00 | 49.36285 | 8.88210 | 91° | 35km/h | 17724m | 4.2m/s | -54.5°C | 0% | 83.2hPa | 2.7V | 03:54:21 | 01:21:24 | 00:00:00 | |
| BIOWL7-15 | 2026-09-05 05:53:59 | 49.36286 | 8.88237 | 85° | 37km/h | 17734m | 5.2m/s | -54.6°C | 0.8% | 83.0hPa | 2.7V | 03:54:00 | 00:00:00 | 00:00:00 | |
| NBG1-10 | 2026-09-05 05:53:58 | 49.36285 | 8.88210 | 92° | 37km/h | 17725m | 4.1m/s | -54.5°C | 3.9% | 83.1hPa | 2.7V | 03:53:00 | 01:21:24 | 00:00:00 | |
| DM0DOS-11 | 2026-09-05 05:53:57 | 49.36302 | 8.88124 | 109° | 40km/h | 17697m | 3.9m/s | -54.5°C | 3.9% | 83.5hPa | 2.5V | 03:53:48 | 01:21:18 | 00:00:00 | |
| HARRO8 | 2026-09-05 05:53:56 | 49.36288 | 8.88182 | 105° | 38km/h | 17715m | 4.3m/s | -54.6°C | 0.9% | 83.3hPa | 2.5V | 00:00:00 | 00:00:00 | 00:00:00 | |
| KANTATE | 2026-09-05 05:53:55 | 49.36288 | 8.88182 | 106° | 40km/h | 17715m | 4.3m/s | -54.6°C | 0.9% | 83.3hPa | 2.5V | 03:54:00 | 00:00:00 | 00:00:00 | |
| HEMX73-11 | 2026-09-05 05:53:54 | 49.36291 | 8.88167 | 111° | 40km/h | 17711m | 4.6m/s | -54.6°C | 0.9% | 83.3hPa | 2.5V | 03:54:00 | 00:00:00 | 00:00:00 | |
| DL1NUX | 2026-09-05 05:53:52 | 49.36312 | 8.88045 | 93° | 37km/h | 17674m | 5.4m/s | -54.3°C | 3.9% | 83.8hPa | 2.5V | 03:53:53 | 01:21:13 | 00:00:00 | |
| SO1NDE-10 | 2026-09-05 05:53:52 | 49.36301 | 8.88124 | 110° | 37km/h | 17697m | 3.9m/s | -54.5°C | 3.9% | 83.5hPa | 2.5V | 00:00:00 | 01:21:18 | 00:00:00 | |
| DM0DOS-11 | 2026-09-05 05:53:47 | 49.36316 | 8.87978 | 102° | 35km/h | 17652m | 3.9m/s | -54.1°C | 3.9% | 84.1hPa | 2.5V | 03:53:58 | 01:21:08 | 00:00:00 | |
| DK7TD | 2026-09-05 05:53:47 | 49.36312 | 8.88045 | 93° | 37km/h | 17674m | 5.4m/s | -54.3°C | 0% | 83.8hPa | 2.5V | 03:56:03 | 01:21:13 | 00:00:00 | |
| DF3TZ-5 | 2026-09-05 05:53:46 | 49.36312 | 8.88018 | 93° | 33km/h | 17665m | 4.0m/s | -54.3°C | 0.9% | 84.0hPa | 2.5V | 00:00:00 | 00:00:00 | 00:00:00 | |
| DJ2DS-15 | 2026-09-05 05:53:44 | 49.36313 | 8.88005 | 96° | 35km/h | 17661m | 5.1m/s | -54.1°C | 3.9% | 83.9hPa | 2.5V | 00:00:00 | 01:21:10 | 00:00:00 | |
| SFWM-10 | 2026-09-05 05:53:43 | 49.36313 | 8.88005 | 96° | 35km/h | 17661m | 5.1m/s | -54.2°C | 0.9% | 84.0hPa | 2.5V | 03:54:00 | 00:00:00 | 00:00:00 | |
| DL1NUX | 2026-09-05 05:53:42 | 49.36330 | 8.87914 | 108° | 37km/h | 17627m | 4.6m/s | -54.1°C | 3.9% | 84.4hPa | 2.5V | 03:54:03 | 01:21:03 | 00:00:00 | |
| DO3MHA-11 | 2026-09-05 05:53:42 | 49.36316 | 8.87978 | 103° | 35km/h | 17652m | 3.8m/s | -54.1°C | 3.9% | 84.1hPa | 2.7V | 03:53:00 | 01:21:08 | 00:00:00 | |
| DF1GD-15 | 2026-09-05 05:53:40 | 49.36318 | 8.87965 | 107° | 35km/h | 17648m | 4.7m/s | -54.0°C | 0.9% | 84.2hPa | 2.7V | 03:54:00 | 00:00:00 | 00:00:00 | |
| BIOWL9-15 | 2026-09-05 05:53:39 | 49.36327 | 8.87927 | 110° | 35km/h | 17632m | 5.2m/s | -54.0°C | 0.9% | 84.4hPa | 2.7V | 00:00:00 | 00:00:00 | 00:00:00 | |
| DM0DOS-11 | 2026-09-05 05:53:37 | 49.36340 | 8.87849 | 98° | 33km/h | 17606m | 4.5m/s | -54°C | 3.8% | 84.7hPa | 2.7V | 03:54:08 | 01:20:58 | 00:00:00 | |
| DK7TD | 2026-09-05 05:53:36 | 49.36332 | 8.87900 | 106° | 37km/h | 17624m | 3.3m/s | -54.1°C | 0% | 84.5hPa | 2.5V | 03:56:03 | 01:21:02 | 00:00:00 | |
| AU51GT2 | 2026-09-05 05:53:35 | 49.36335 | 8.87887 | 104° | 35km/h | 17620m | 3.2m/s | -54.0°C | 0.9% | 84.5hPa | 2.7V | 00:00:00 | 00:00:00 | 00:00:00 | |
| DB0UT-7 | 2026-09-05 05:53:34 | 49.36337 | 8.87873 | 104° | 37km/h | 17616m | 5.3m/s | -54.0°C | 3.8% | 84.5hPa | 2.7V | 03:54:00 | 01:21:00 | 00:00:00 | |
| HEMX73-11 | 2026-09-05 05:53:33 | 49.36337 | 8.87873 | 104° | 35km/h | 17616m | 5.3m/s | -54.0°C | 0.9% | 84.6hPa | 2.7V | 03:54:00 | 00:00:00 | 00:00:00 | |
| DL1NUX | 2026-09-05 05:53:32 | 49.36350 | 8.87781 | 112° | 37km/h | 17581m | 5.8m/s | -54°C | 3.8% | 85.1hPa | 2.7V | 03:54:13 | 01:20:53 | 00:00:00 | |
| DO3MHA-11 | 2026-09-05 05:53:32 | 49.36340 | 8.87849 | 99° | 37km/h | 17606m | 4.5m/s | -54.0°C | 3.8% | 84.7hPa | 2.7V | 00:00:00 | 01:20:58 | 00:00:00 | |
| DB0UT-9 | 2026-09-05 05:53:30 | 49.36341 | 8.87836 | 98° | 35km/h | 17601m | 5.9m/s | -54.1°C | 0.9% | 84.8hPa | 2.7V | 03:54:00 | 00:00:00 | 00:00:00 | |
| DL0LBS | 2026-09-05 05:53:29 | 49.36342 | 8.87822 | 101° | 37km/h | 17595m | 5.0m/s | -54.0°C | 0.8% | 84.8hPa | 2.7V | 03:54:00 | 00:00:00 | 00:00:00 | |
| DO8TBO-1 | 2026-09-05 05:53:28 | 49.36347 | 8.87794 | 109° | 40km/h | 17586m | 4.7m/s | -53.9°C | 3.7% | 84.9hPa | 2.7V | 00:00:00 | 01:20:54 | 00:00:00 | |
| DM0DOS-11 | 2026-09-05 05:53:27 | 49.36372 | 8.87716 | 113° | 40km/h | 17557m | 3.2m/s | -54°C | 3.8% | 85.4hPa | 2.7V | 03:54:18 | 01:20:48 | 00:00:00 | |
| BIOWL1-15 | 2026-09-05 05:53:26 | 49.36354 | 8.87769 | 118° | 37km/h | 17576m | 4.3m/s | -54°C | 0% | 85.1hPa | 2.5V | 03:54:21 | 01:20:52 | 00:00:00 | |
| NBG1-10 | 2026-09-05 05:53:25 | 49.36359 | 8.87756 | 121° | 40km/h | 17572m | 4.0m/s | -53.9°C | 3.8% | 85.1hPa | 2.6V | 00:00:00 | 01:20:51 | 00:00:00 | |
| DJ2DS-15 | 2026-09-05 05:53:24 | 49.36364 | 8.87743 | 119° | 38km/h | 17567m | 5.5m/s | -53.9°C | 3.8% | 85.2hPa | 2.6V | 00:00:00 | 01:20:50 | 00:00:00 | |
| DL1ZP-14 | 2026-09-05 05:53:23 | 49.36372 | 8.87716 | 113° | 38km/h | 17557m | 3.2m/s | -54.0°C | 0.8% | 85.4hPa | 2.7V | 00:00:00 | 00:00:00 | 00:00:00 | |
| DL1NUX | 2026-09-05 05:53:22 | 49.36388 | 8.87649 | 106° | 37km/h | 17536m | 5m/s | -53.9°C | 3.8% | 85.7hPa | 2.7V | 03:54:23 | 01:20:43 | 00:00:00 | |
| SO1NDE-10 | 2026-09-05 05:53:22 | 49.36372 | 8.87716 | 114° | 40km/h | 17558m | 3.2m/s | -53.9°C | 3.8% | 85.3hPa | 2.7V | 03:54:00 | 01:20:48 | 00:00:00 | |
| DF1GD-15 | 2026-09-05 05:53:20 | 49.36376 | 8.87702 | 113° | 38km/h | 17554m | 4.0m/s | -54.0°C | 0.9% | 85.4hPa | 2.7V | 03:54:00 | 00:00:00 | 00:00:00 | |
| AZAK | 2026-09-05 05:53:19 | 49.36383 | 8.87675 | 110° | 35km/h | 17545m | 4.4m/s | 0°C | 0% | 0hPa | 2.7V | 03:54:00 | 00:00:00 | 00:00:00 | |
| DM0DOS-11 | 2026-09-05 05:53:17 | 49.36409 | 8.87587 | 133° | 37km/h | 17513m | 4.1m/s | -54°C | 3.9% | 86hPa | 2.7V | 03:54:28 | 01:20:38 | 00:00:00 | |
| BIOWL1-15 | 2026-09-05 05:53:15 | 49.36394 | 8.87622 | 114° | 37km/h | 17527m | 4m/s | -54°C | 0% | 85.8hPa | 2.5V | 03:55:12 | 01:20:41 | 00:00:00 | |
| DK7TD | 2026-09-05 05:53:14 | 49.36398 | 8.87610 | 120° | 37km/h | 17523m | 4.6m/s | -54°C | 0% | 85.8hPa | 2.5V | 03:56:03 | 01:20:40 | 00:00:00 | |
| HEMX73-11 | 2026-09-05 05:53:13 | 49.36398 | 8.87610 | 121° | 37km/h | 17523m | 4.6m/s | -54.0°C | 0.9% | 85.8hPa | 2.5V | 03:55:00 | 00:00:00 | 00:00:00 | |
| DL1NUX | 2026-09-05 05:53:12 | 49.36440 | 8.87525 | 112° | 42km/h | 17491m | 4m/s | -53.9°C | 3.7% | 86.3hPa | 2.5V | 03:54:33 | 01:20:33 | 00:00:00 | |
| DK5PH-5 | 2026-09-05 05:53:12 | 49.36410 | 8.87587 | 134° | 40km/h | 17513m | 4.1m/s | -54.0°C | 3.9% | 85.9hPa | 2.7V | 00:00:00 | 01:20:38 | 00:00:00 | |
| DB0UT-9 | 2026-09-05 05:53:09 | 49.36423 | 8.87566 | 134° | 40km/h | 17504m | 4.5m/s | -54.0°C | 0.9% | 86.1hPa | 2.6V | 03:55:00 | 00:00:00 | 00:00:00 | |
| BIOWL9-15 | 2026-09-05 05:53:08 | 49.36440 | 8.87525 | 112° | 42km/h | 17491m | 4.0m/s | -53.9°C | 0.8% | 86.3hPa | 2.6V | 00:00:00 | 00:00:00 | 00:00:00 | |
| DM0DOS-11 | 2026-09-05 05:53:07 | 49.36458 | 8.87457 | 122° | 37km/h | 17470m | 4.5m/s | -53.7°C | 3.7% | 86.5hPa | 2.6V | 03:54:38 | 01:20:28 | 00:00:00 | |
| BIOWL1-15 | 2026-09-05 05:53:05 | 49.36447 | 8.87495 | 108° | 38km/h | 17482m | 4.6m/s | -53.8°C | 0% | 86.4hPa | 2.7V | 03:55:12 | 01:20:31 | 00:00:00 | |
| DJ2DS-15 | 2026-09-05 05:53:04 | 49.36450 | 8.87482 | 112° | 42km/h | 17478m | 4.0m/s | -53.7°C | 3.7% | 86.4hPa | 2.5V | 03:54:00 | 01:20:30 | 00:00:00 | |
| DM3KS-11 | 2026-09-05 05:53:03 | 49.36454 | 8.87470 | 116° | 35km/h | 17474m | 4.2m/s | -53.8°C | 0.8% | 86.5hPa | 2.5V | 00:00:00 | 00:00:00 | 00:00:00 | |
| DL1NUX | 2026-09-05 05:53:02 | 49.36488 | 8.87395 | 123° | 40km/h | 17448m | 4.2m/s | -53.7°C | 3.7% | 86.8hPa | 2.5V | 03:54:43 | 01:20:23 | 00:00:00 | |
| DK7TD | 2026-09-05 05:52:59 | 49.36476 | 8.87420 | 128° | 40km/h | 17457m | 4.1m/s | -53.6°C | 0% | 86.7hPa | 2.7V | 03:56:03 | 01:20:25 | 00:00:00 | |
| DM0DOS-11 | 2026-09-05 05:52:57 | 49.36517 | 8.87320 | 120° | 47km/h | 17426m | 3.5m/s | -53.6°C | 3.8% | 87.1hPa | 2.5V | 03:54:48 | 01:20:18 | 00:00:00 | |
| BIOWL1-15 | 2026-09-05 05:52:57 | 49.36499 | 8.87367 | 120° | 44km/h | 17440m | 4m/s | -53.7°C | 0% | 87hPa | 2.7V | 03:55:12 | 01:20:21 | 00:00:00 | |
| HARRO8 | 2026-09-05 05:52:54 | 49.36505 | 8.87352 | 119° | 46km/h | 17435m | 5.3m/s | -53.7°C | 0.9% | 87.0hPa | 2.5V | 00:00:00 | 00:00:00 | 00:00:00 | |
| HEMX73-11 | 2026-09-05 05:52:53 | 49.36505 | 8.87352 | 121° | 47km/h | 17435m | 5.3m/s | -53.7°C | 0.9% | 87.0hPa | 2.5V | 03:55:00 | 00:00:00 | 00:00:00 | |
| DL1NUX | 2026-09-05 05:52:52 | 49.36547 | 8.87252 | 131° | 40km/h | 17405m | 4.9m/s | -53.9°C | 3.7% | 87.4hPa | 2.5V | 03:54:53 | 01:20:13 | 00:00:00 | |
| HSKMA3-T | 2026-09-05 05:52:51 | 49.36523 | 8.87304 | 121° | 46km/h | 17422m | 5.1m/s | -53.7°C | 0% | 87.2hPa | 2.6V | 03:55:12 | 01:20:17 | 00:00:00 | |
| DK7TD | 2026-09-05 05:52:48 | 49.36541 | 8.87264 | 128° | 40km/h | 17409m | 4.3m/s | -53.9°C | 0% | 87.4hPa | 2.7V | 03:56:03 | 01:20:14 | 00:00:00 | |
| DL6DJ-15 | 2026-09-05 05:52:48 | 49.36554 | 8.87240 | 132° | 40km/h | 17400m | 3.9m/s | -53.9°C | -1.0% | -1.0hPa | 2.7V | 00:00:00 | 00:00:00 | 00:00:00 | |
| BIOWL1-15 | 2026-09-05 05:52:46 | 49.36567 | 8.87217 | 130° | 40km/h | 17392m | 4.5m/s | -54°C | 0% | 87.6hPa | 2.7V | 03:55:12 | 01:20:10 | 00:00:00 | |
| DO3DL | 2026-09-05 05:52:44 | 49.36567 | 8.87217 | 131° | 40km/h | 17393m | 4.5m/s | -54.0°C | 0.9% | 87.6hPa | 2.7V | 00:00:00 | 00:00:00 | 00:00:00 | |
| DL1NUX | 2026-09-05 05:52:42 | 49.36609 | 8.87129 | 124° | 46km/h | 17363m | 4.3m/s | -53.9°C | 3.8% | 88hPa | 2.7V | 03:55:03 | 01:20:03 | 00:00:00 | |
| HSKMA3-T | 2026-09-05 05:52:39 | 49.36596 | 8.87156 | 127° | 42km/h | 17371m | 4.9m/s | -53.9°C | 0% | 87.9hPa | 2.7V | 03:55:12 | 01:20:05 | 00:00:00 | |
| DK7TD | 2026-09-05 05:52:38 | 49.36602 | 8.87143 | 127° | 44km/h | 17367m | 3.8m/s | -53.8°C | 0% | 88hPa | 2.7V | 03:56:03 | 01:20:04 | 00:00:00 | |
| BIOWL9-15 | 2026-09-05 05:52:37 | 49.36615 | 8.87114 | 121° | 46km/h | 17358m | 5.3m/s | -53.9°C | 0.9% | 88.1hPa | 2.5V | 00:00:00 | 00:00:00 | 00:00:00 | |
| DM0DOS-11 | 2026-09-05 05:52:36 | 49.36647 | 8.87032 | 122° | 49km/h | 17334m | 4.5m/s | -54.1°C | 3.8% | 88.4hPa | 2.5V | 03:55:09 | 01:19:57 | 00:00:00 | |
| BIOWL1-15 | 2026-09-05 05:52:36 | 49.36627 | 8.87082 | 120° | 49km/h | 17349m | 4.6m/s | -54°C | 0% | 88.2hPa | 2.5V | 03:55:12 | 01:20:00 | 00:00:00 | |
| HSKMA3-T | 2026-09-05 05:52:29 | 49.36660 | 8.87000 | 119° | 47km/h | 17325m | 4.4m/s | -54°C | 0% | 88.5hPa | 2.6V | 03:55:12 | 01:19:55 | 00:00:00 | |
| DK7TD | 2026-09-05 05:52:27 | 49.36672 | 8.86968 | 122° | 47km/h | 17316m | 4.8m/s | -54°C | 0% | 88.7hPa | 2.7V | 03:56:03 | 01:19:53 | 00:00:00 | |
| DM0DOS-11 | 2026-09-05 05:52:26 | 49.36715 | 8.86869 | 122° | 57km/h | 17288m | 5m/s | -54°C | 3.9% | 89hPa | 2.7V | 03:55:19 | 01:19:47 | 00:00:00 | |
| BIOWL1-15 | 2026-09-05 05:52:23 | 49.36700 | 8.86905 | 123° | 51km/h | 17297m | 4.8m/s | -54.1°C | 0% | 88.9hPa | 2.6V | 03:56:03 | 01:19:49 | 00:00:00 | |
| HSKMA3-T | 2026-09-05 05:52:19 | 49.36731 | 8.86829 | 121° | 62km/h | 17278m | 4.2m/s | -54°C | 0% | 89.2hPa | 2.5V | 03:56:03 | 01:19:45 | 00:00:00 | |
| DG9SBQ-11 | 2026-09-05 05:52:19 | 49.36731 | 8.86829 | 122° | 62km/h | 17279m | 4.2m/s | -54.0°C | 0.9% | 89.2hPa | 2.7V | 03:56:00 | 00:00:00 | 00:00:00 | |
| DF1GD-15 | 2026-09-05 05:52:18 | 49.36731 | 8.86829 | 122° | 62km/h | 17279m | 4.2m/s | -54.0°C | 0.9% | 89.2hPa | 2.7V | 03:56:00 | 00:00:00 | 00:00:00 | |
| DO8TBO-1 | 2026-09-05 05:52:17 | 49.36746 | 8.86787 | 118° | 60km/h | 17269m | 5.1m/s | -53.9°C | 3.9% | 89.3hPa | 2.7V | 00:00:00 | 01:19:43 | 00:00:00 | |
| DM0DOS-11 | 2026-09-05 05:52:15 | 49.36796 | 8.86643 | 115° | 58km/h | 17236m | 4.3m/s | -53.8°C | 3.8% | 89.8hPa | 2.7V | 03:55:30 | 01:19:36 | 00:00:00 | |
| DO3DL | 2026-09-05 05:52:15 | 49.36760 | 8.86745 | 118° | 60km/h | 17260m | 4.7m/s | -53.9°C | 0.9% | 89.4hPa | 2.6V | 00:00:00 | 00:00:00 | 00:00:00 | |
| DF3TZ-5 | 2026-09-05 05:52:13 | 49.36782 | 8.86684 | 118° | 60km/h | 17246m | 4.1m/s | -53.9°C | 0.9% | 89.6hPa | 2.6V | 00:00:00 | 00:00:00 | 00:00:00 | |
| DL1NUX | 2026-09-05 05:52:12 | 49.36817 | 8.86580 | 119° | 64km/h | 17222m | 4.1m/s | -53.7°C | 3.8% | 89.9hPa | 2.6V | 03:55:33 | 01:19:33 | 00:00:00 | |
| BIOWL1-15 | 2026-09-05 05:52:12 | 49.36782 | 8.86684 | 118° | 60km/h | 17246m | 4.1m/s | -53.9°C | 0% | 89.6hPa | 2.6V | 03:56:03 | 01:19:38 | 00:00:00 | |
| DK7TD | 2026-09-05 05:52:09 | 49.36803 | 8.86622 | 116° | 60km/h | 17232m | 4.2m/s | -53.8°C | 0% | 89.8hPa | 2.5V | 03:56:03 | 01:19:35 | 00:00:00 | |
| DB0UT-9 | 2026-09-05 05:52:07 | 49.36810 | 8.86601 | 118° | 62km/h | 17227m | 5.6m/s | -53.8°C | 0.9% | 89.9hPa | 2.7V | 03:56:00 | 00:00:00 | 00:00:00 | |
| BIOWL9-15 | 2026-09-05 05:52:06 | 49.36832 | 8.86537 | 118° | 60km/h | 17213m | 5.0m/s | -53.8°C | 0.9% | 90.1hPa | 2.7V | 00:00:00 | 00:00:00 | 00:00:00 | |
| DM0DOS-11 | 2026-09-05 05:52:04 | 49.36872 | 8.86412 | 112° | 62km/h | 17185m | 4.3m/s | -53.8°C | 3.8% | 90.5hPa | 2.7V | 03:55:41 | 01:19:25 | 00:00:00 | |
| DB0NH | 2026-09-05 05:52:04 | 49.36839 | 8.86517 | 118° | 58km/h | 17208m | 4.7m/s | -53.7°C | 3.8% | 90.1hPa | 2.5V | 03:55:00 | 01:19:30 | 00:00:00 | |
| BIOWL7-15 | 2026-09-05 05:52:03 | 49.36839 | 8.86517 | 118° | 58km/h | 17208m | 4.7m/s | -53.8°C | 0.9% | 90.1hPa | 2.5V | 00:00:00 | 00:00:00 | 00:00:00 | |
| DL1NUX | 2026-09-05 05:52:02 | 49.36883 | 8.86369 | 110° | 58km/h | 17175m | 4m/s | -53.7°C | 3.8% | 90.6hPa | 2.5V | 03:55:43 | 01:19:23 | 00:00:00 | |
| BIOWL1-15 | 2026-09-05 05:52:02 | 49.36853 | 8.86476 | 116° | 60km/h | 17199m | 5.2m/s | -53.8°C | 0% | 90.3hPa | 2.5V | 03:56:03 | 01:19:28 | 00:00:00 | |
| DK7TD | 2026-09-05 05:51:57 | 49.36883 | 8.86369 | 111° | 58km/h | 17175m | 4m/s | -53.7°C | 0% | 90.6hPa | 2.5V | 03:56:03 | 01:19:23 | 00:00:00 | |
| DG9SBQ-11 | 2026-09-05 05:51:56 | 49.36883 | 8.86369 | 112° | 58km/h | 17175m | 4.0m/s | -53.7°C | 0.9% | 90.6hPa | 2.7V | 03:56:00 | 00:00:00 | 00:00:00 | |
| DM0DOS-11 | 2026-09-05 05:51:54 | 49.36936 | 8.86208 | 119° | 57km/h | 17140m | 5.1m/s | -53.8°C | 3.7% | 91.1hPa | 2.7V | 03:55:51 | 01:19:15 | 00:00:00 | |
| BIOWL1-15 | 2026-09-05 05:51:53 | 49.36922 | 8.86246 | 120° | 57km/h | 17149m | 4.8m/s | -53.7°C | 0% | 91hPa | 2.6V | 03:56:03 | 01:19:17 | 00:00:00 | |
| DL1NUX | 2026-09-05 05:51:52 | 49.36950 | 8.86170 | 118° | 57km/h | 17131m | 4m/s | -53.7°C | 3.7% | 91.2hPa | 2.5V | 03:55:53 | 01:19:13 | 00:00:00 | |
| HSKMA3-T | 2026-09-05 05:51:48 | 49.36943 | 8.86189 | 119° | 57km/h | 17136m | 4.6m/s | -53.7°C | 0% | 91.2hPa | 2.7V | 03:56:03 | 01:19:14 | 00:00:00 | |
| DO8TBO-1 | 2026-09-05 05:51:47 | 49.36950 | 8.86170 | 119° | 60km/h | 17132m | 4.0m/s | -53.7°C | 3.7% | 91.2hPa | 2.5V | 03:55:00 | 01:19:13 | 00:00:00 | |
| DL0LBS | 2026-09-05 05:51:46 | 49.36957 | 8.86150 | 119° | 57km/h | 17127m | 5.3m/s | -53.8°C | 0.9% | 91.3hPa | 2.5V | 03:56:00 | 00:00:00 | 00:00:00 | |
| DG9SBQ-11 | 2026-09-05 05:51:45 | 49.36957 | 8.86150 | 119° | 57km/h | 17127m | 5.3m/s | -53.8°C | 0.9% | 91.3hPa | 2.5V | 03:56:00 | 00:00:00 | 00:00:00 | |
| DM0DOS-11 | 2026-09-05 05:51:44 | 49.37007 | 8.86006 | 118° | 58km/h | 17095m | 4.7m/s | -53.8°C | 3.7% | 91.7hPa | 2.5V | 03:56:01 | 01:19:05 | 00:00:00 | |
| DJ2DS-15 | 2026-09-05 05:51:44 | 49.36970 | 8.86111 | 118° | 60km/h | 17118m | 3.6m/s | -53.7°C | 3.7% | 91.4hPa | 2.7V | 03:55:00 | 01:19:10 | 00:00:00 | |
| BIOWL7-15 | 2026-09-05 05:51:43 | 49.36970 | 8.86111 | 118° | 58km/h | 17118m | 3.6m/s | -53.7°C | 0.9% | 91.4hPa | 2.7V | 00:00:00 | 00:00:00 | 00:00:00 | |
| DL1NUX | 2026-09-05 05:51:42 | 49.37021 | 8.85967 | 121° | 57km/h | 17087m | 4.4m/s | -54°C | 3.8% | 91.8hPa | 2.7V | 03:56:03 | 01:19:03 | 00:00:00 | |
| DK7TD | 2026-09-05 05:51:41 | 49.36992 | 8.86048 | 119° | 64km/h | 17104m | 4m/s | -53.9°C | 0% | 91.6hPa | 2.5V | 03:56:03 | 01:19:07 | 00:00:00 | |
| BIOWL1-15 | 2026-09-05 05:51:40 | 49.36999 | 8.86027 | 119° | 62km/h | 17100m | 4.3m/s | -53.8°C | 0% | 91.7hPa | 2.5V | 03:56:03 | 01:19:06 | 00:00:00 | |
| HSKMA3-T | 2026-09-05 05:51:37 | 49.37021 | 8.85967 | 121° | 57km/h | 17087m | 4.4m/s | -54°C | 0% | 91.9hPa | 2.7V | 03:56:03 | 01:19:03 | 00:00:00 | |
| BIOWL9-15 | 2026-09-05 05:51:35 | 49.37044 | 8.85909 | 118° | 58km/h | 17074m | 3.8m/s | -54.1°C | 0.9% | 92.0hPa | 2.5V | 00:00:00 | 00:00:00 | 00:00:00 | |
| DM0DOS-11 | 2026-09-05 05:51:34 | 49.37075 | 8.85804 | 114° | 62km/h | 17052m | 4.5m/s | -54.2°C | 3.8% | 92.4hPa | 2.5V | 03:56:11 | 01:18:55 | 00:00:00 | |
| DB0UT-7 | 2026-09-05 05:51:34 | 49.37044 | 8.85908 | 119° | 62km/h | 17074m | 3.8m/s | -54.0°C | 3.9% | 92.0hPa | 2.7V | 03:56:00 | 01:19:00 | 00:00:00 | |
| DL1NUX | 2026-09-05 05:51:32 | 49.37088 | 8.85759 | 112° | 62km/h | 17044m | 4.2m/s | -54.2°C | 3.7% | 92.5hPa | 2.7V | 03:56:13 | 01:18:53 | 00:00:00 | |
| BIOWL1-15 | 2026-09-05 05:51:30 | 49.37068 | 8.85825 | 113° | 60km/h | 17057m | 5m/s | -54.3°C | 0% | 92.3hPa | 2.5V | 03:56:54 | 01:18:56 | 00:00:00 | |
| HSKMA3-T | 2026-09-05 05:51:27 | 49.37087 | 8.85759 | 113° | 62km/h | 17044m | 4.2m/s | -54.2°C | 0% | 92.5hPa | 2.7V | 03:56:54 | 01:18:53 | 00:00:00 | |
| DB0UT-9 | 2026-09-05 05:51:25 | 49.37093 | 8.85736 | 112° | 62km/h | 17040m | 5.0m/s | -54.2°C | 0.9% | 92.6hPa | 2.5V | 03:56:00 | 00:00:00 | 00:00:00 | |
| DM0DOS-11 | 2026-09-05 05:51:24 | 49.37140 | 8.85578 | 116° | 66km/h | 17008m | 3.7m/s | -54.4°C | 4% | 93hPa | 2.5V | 03:56:21 | 01:18:45 | 00:00:00 | |
| DJ2DS-15 | 2026-09-05 05:51:24 | 49.37105 | 8.85691 | 113° | 62km/h | 17031m | 4.4m/s | -54.2°C | 3.9% | 92.6hPa | 2.6V | 00:00:00 | 01:18:50 | 00:00:00 | |
| DL1NUX | 2026-09-05 05:51:22 | 49.37155 | 8.85534 | 119° | 66km/h | 17000m | 4.8m/s | -54.4°C | 3.9% | 93.1hPa | 2.6V | 03:56:23 | 01:18:43 | 00:00:00 | |
| BIOWL1-15 | 2026-09-05 05:51:21 | 49.37139 | 8.85578 | 116° | 66km/h | 17008m | 3.7m/s | -54.4°C | 0% | 93hPa | 2.5V | 03:56:54 | 01:18:45 | 00:00:00 | |
| DK7TD | 2026-09-05 05:51:16 | 49.37163 | 8.85512 | 122° | 66km/h | 16996m | 4.6m/s | -54.3°C | 0% | 93.2hPa | 2.7V | 03:56:54 | 01:18:42 | 00:00:00 | |
| HSKMA3-T | 2026-09-05 05:51:15 | 49.37172 | 8.85491 | 122° | 64km/h | 16991m | 4.1m/s | -54.3°C | 0% | 0hPa | 2.7V | 03:56:54 | 01:18:41 | 00:00:00 | |
| DM0DOS-11 | 2026-09-05 05:51:14 | 49.37214 | 8.85371 | 118° | 58km/h | 16966m | 4m/s | -54.2°C | 4% | 93.6hPa | 2.7V | 03:56:31 | 01:18:35 | 00:00:00 | |
| DJ2DS-15 | 2026-09-05 05:51:13 | 49.37187 | 8.85450 | 117° | 58km/h | 16982m | 4.4m/s | -54.2°C | 1.0% | 93.4hPa | 2.5V | 00:00:00 | 00:00:00 | 00:00:00 | |
| DL1NUX | 2026-09-05 05:51:12 | 49.37228 | 8.85330 | 115° | 60km/h | 16957m | 4.8m/s | -54.2°C | 3.9% | 93.7hPa | 2.5V | 03:56:33 | 01:18:33 | 00:00:00 | |
| BIOWL1-15 | 2026-09-05 05:51:08 | 49.37221 | 8.85350 | 117° | 60km/h | 16962m | 4.3m/s | -54.2°C | 0.1% | 93.7hPa | 2.5V | 03:56:54 | 01:18:34 | 00:00:00 | |
| Es werden nur die letzten 3500 von 5314 Frames angezeigt. GPX/KML und Diagramme bleiben verfügbar. | |||||||||||||||